<?xml version="1.0" encoding="UTF-8"?>
<gpx version="1.1" creator="https://www.youtrack.es" xsi:schemaLocation="http://www.topografix.com/GPX/1/1 http://www.topografix.com/GPX/1/1/gpx.xsd http://www.garmin.com/xmlschemas/GpxExtensions/v3 http://www.garmin.com/xmlschemas/GpxExtensionsv3.xsd http://www.garmin.com/xmlschemas/TrackPointExtension/v1 http://www.garmin.com/xmlschemas/TrackPointExtensionv1.xsd" xmlns:gpxtpx="http://www.garmin.com/xmlschemas/TrackPointExtension/v1" xmlns:gpxx="http://www.garmin.com/xmlschemas/GpxExtensions/v3" xmlns:xsi="http://www.w3.org/2001/XMLSchema-instance">
  <metadata>
    <link href="https://www.youtrack.es">
      <text>YouTrack.es</text>
    </link>
    <time>2026-05-08T16:32:30Z</time>
  </metadata>
  <trk>
    <src>https://www.youtrack.es</src>
    <link href="https://www.youtrack.es/ruta/32503-vilanna">
      <text>YouTrack.es</text>
    </link>
    <trkseg>
      <trkpt lat="41.9752780" lon="2.7039700">
        <ele>163.0</ele>
        <time>2022-05-26T17:14:12Z</time>
      </trkpt>
      <trkpt lat="41.9752780" lon="2.7039700">
        <ele>163.0</ele>
        <time>2022-05-26T17:14:13Z</time>
      </trkpt>
      <trkpt lat="41.9752780" lon="2.7039700">
        <ele>163.0</ele>
        <time>2022-05-26T17:14:14Z</time>
      </trkpt>
      <trkpt lat="41.9752780" lon="2.7039700">
        <ele>163.0</ele>
        <time>2022-05-26T17:14:15Z</time>
      </trkpt>
      <trkpt lat="41.9752780" lon="2.7039700">
        <ele>163.0</ele>
        <time>2022-05-26T17:14:16Z</time>
      </trkpt>
      <trkpt lat="41.9752780" lon="2.7039700">
        <ele>163.0</ele>
        <time>2022-05-26T17:14:17Z</time>
      </trkpt>
      <trkpt lat="41.9752780" lon="2.7039700">
        <ele>163.0</ele>
        <time>2022-05-26T17:14:18Z</time>
      </trkpt>
      <trkpt lat="41.9752780" lon="2.7039700">
        <ele>163.0</ele>
        <time>2022-05-26T17:14:19Z</time>
      </trkpt>
      <trkpt lat="41.9752780" lon="2.7039700">
        <ele>163.0</ele>
        <time>2022-05-26T17:14:20Z</time>
      </trkpt>
      <trkpt lat="41.9752780" lon="2.7039700">
        <ele>163.0</ele>
        <time>2022-05-26T17:14:21Z</time>
      </trkpt>
      <trkpt lat="41.9752780" lon="2.7039700">
        <ele>163.0</ele>
        <time>2022-05-26T17:14:22Z</time>
      </trkpt>
      <trkpt lat="41.9752780" lon="2.7039700">
        <ele>163.0</ele>
        <time>2022-05-26T17:14:23Z</time>
      </trkpt>
      <trkpt lat="41.9752780" lon="2.7039700">
        <ele>163.0</ele>
        <time>2022-05-26T17:14:24Z</time>
      </trkpt>
      <trkpt lat="41.9752780" lon="2.7039700">
        <ele>163.0</ele>
        <time>2022-05-26T17:14:25Z</time>
      </trkpt>
      <trkpt lat="41.9752130" lon="2.7041300">
        <ele>163.0</ele>
        <time>2022-05-26T17:14:30Z</time>
      </trkpt>
      <trkpt lat="41.9751740" lon="2.7041530">
        <ele>163.0</ele>
        <time>2022-05-26T17:14:31Z</time>
      </trkpt>
      <trkpt lat="41.9751350" lon="2.7041920">
        <ele>163.0</ele>
        <time>2022-05-26T17:14:32Z</time>
      </trkpt>
      <trkpt lat="41.9751090" lon="2.7042330">
        <ele>163.0</ele>
        <time>2022-05-26T17:14:33Z</time>
      </trkpt>
      <trkpt lat="41.9750850" lon="2.7042780">
        <ele>163.0</ele>
        <time>2022-05-26T17:14:34Z</time>
      </trkpt>
      <trkpt lat="41.9750570" lon="2.7043260">
        <ele>163.0</ele>
        <time>2022-05-26T17:14:35Z</time>
      </trkpt>
      <trkpt lat="41.9750260" lon="2.7043740">
        <ele>163.0</ele>
        <time>2022-05-26T17:14:36Z</time>
      </trkpt>
      <trkpt lat="41.9749940" lon="2.7044130">
        <ele>163.0</ele>
        <time>2022-05-26T17:14:37Z</time>
      </trkpt>
      <trkpt lat="41.9749600" lon="2.7044520">
        <ele>163.0</ele>
        <time>2022-05-26T17:14:38Z</time>
      </trkpt>
      <trkpt lat="41.9749200" lon="2.7045040">
        <ele>162.8</ele>
        <time>2022-05-26T17:14:39Z</time>
      </trkpt>
      <trkpt lat="41.9748730" lon="2.7045680">
        <ele>162.8</ele>
        <time>2022-05-26T17:14:40Z</time>
      </trkpt>
      <trkpt lat="41.9748160" lon="2.7046390">
        <ele>163.0</ele>
        <time>2022-05-26T17:14:41Z</time>
      </trkpt>
      <trkpt lat="41.9747510" lon="2.7047080">
        <ele>163.2</ele>
        <time>2022-05-26T17:14:42Z</time>
      </trkpt>
      <trkpt lat="41.9746810" lon="2.7047640">
        <ele>163.6</ele>
        <time>2022-05-26T17:14:43Z</time>
      </trkpt>
      <trkpt lat="41.9746100" lon="2.7048100">
        <ele>164.2</ele>
        <time>2022-05-26T17:14:44Z</time>
      </trkpt>
      <trkpt lat="41.9745330" lon="2.7048270">
        <ele>164.8</ele>
        <time>2022-05-26T17:14:45Z</time>
      </trkpt>
      <trkpt lat="41.9744480" lon="2.7048260">
        <ele>165.6</ele>
        <time>2022-05-26T17:14:46Z</time>
      </trkpt>
      <trkpt lat="41.9743590" lon="2.7048020">
        <ele>166.2</ele>
        <time>2022-05-26T17:14:47Z</time>
      </trkpt>
      <trkpt lat="41.9742680" lon="2.7047730">
        <ele>167.0</ele>
        <time>2022-05-26T17:14:48Z</time>
      </trkpt>
      <trkpt lat="41.9741840" lon="2.7047340">
        <ele>167.6</ele>
        <time>2022-05-26T17:14:49Z</time>
      </trkpt>
      <trkpt lat="41.9741100" lon="2.7046810">
        <ele>168.2</ele>
        <time>2022-05-26T17:14:50Z</time>
      </trkpt>
      <trkpt lat="41.9740440" lon="2.7046170">
        <ele>169.0</ele>
        <time>2022-05-26T17:14:51Z</time>
      </trkpt>
      <trkpt lat="41.9739730" lon="2.7045430">
        <ele>169.8</ele>
        <time>2022-05-26T17:14:52Z</time>
      </trkpt>
      <trkpt lat="41.9738940" lon="2.7044600">
        <ele>170.4</ele>
        <time>2022-05-26T17:14:53Z</time>
      </trkpt>
      <trkpt lat="41.9738120" lon="2.7043750">
        <ele>170.8</ele>
        <time>2022-05-26T17:14:54Z</time>
      </trkpt>
      <trkpt lat="41.9737290" lon="2.7042910">
        <ele>171.0</ele>
        <time>2022-05-26T17:14:55Z</time>
      </trkpt>
      <trkpt lat="41.9736440" lon="2.7042040">
        <ele>171.4</ele>
        <time>2022-05-26T17:14:56Z</time>
      </trkpt>
      <trkpt lat="41.9735570" lon="2.7041140">
        <ele>171.8</ele>
        <time>2022-05-26T17:14:57Z</time>
      </trkpt>
      <trkpt lat="41.9734700" lon="2.7040270">
        <ele>172.2</ele>
        <time>2022-05-26T17:14:58Z</time>
      </trkpt>
      <trkpt lat="41.9733810" lon="2.7039460">
        <ele>172.6</ele>
        <time>2022-05-26T17:14:59Z</time>
      </trkpt>
      <trkpt lat="41.9732930" lon="2.7038680">
        <ele>173.2</ele>
        <time>2022-05-26T17:15:00Z</time>
      </trkpt>
      <trkpt lat="41.9732090" lon="2.7037870">
        <ele>173.6</ele>
        <time>2022-05-26T17:15:01Z</time>
      </trkpt>
      <trkpt lat="41.9731290" lon="2.7037020">
        <ele>173.8</ele>
        <time>2022-05-26T17:15:02Z</time>
      </trkpt>
      <trkpt lat="41.9730530" lon="2.7036080">
        <ele>174.4</ele>
        <time>2022-05-26T17:15:03Z</time>
      </trkpt>
      <trkpt lat="41.9729880" lon="2.7035060">
        <ele>174.8</ele>
        <time>2022-05-26T17:15:04Z</time>
      </trkpt>
      <trkpt lat="41.9729300" lon="2.7034000">
        <ele>175.0</ele>
        <time>2022-05-26T17:15:05Z</time>
      </trkpt>
      <trkpt lat="41.9728750" lon="2.7032850">
        <ele>175.4</ele>
        <time>2022-05-26T17:15:06Z</time>
      </trkpt>
      <trkpt lat="41.9728260" lon="2.7031930">
        <ele>175.8</ele>
        <time>2022-05-26T17:15:07Z</time>
      </trkpt>
      <trkpt lat="41.9727690" lon="2.7031260">
        <ele>176.0</ele>
        <time>2022-05-26T17:15:08Z</time>
      </trkpt>
      <trkpt lat="41.9726970" lon="2.7031090">
        <ele>176.6</ele>
        <time>2022-05-26T17:15:09Z</time>
      </trkpt>
      <trkpt lat="41.9726190" lon="2.7031320">
        <ele>177.4</ele>
        <time>2022-05-26T17:15:10Z</time>
      </trkpt>
      <trkpt lat="41.9725530" lon="2.7032210">
        <ele>178.2</ele>
        <time>2022-05-26T17:15:11Z</time>
      </trkpt>
      <trkpt lat="41.9725010" lon="2.7033380">
        <ele>179.0</ele>
        <time>2022-05-26T17:15:12Z</time>
      </trkpt>
      <trkpt lat="41.9724480" lon="2.7034730">
        <ele>179.6</ele>
        <time>2022-05-26T17:15:13Z</time>
      </trkpt>
      <trkpt lat="41.9723940" lon="2.7036050">
        <ele>180.0</ele>
        <time>2022-05-26T17:15:14Z</time>
      </trkpt>
      <trkpt lat="41.9723510" lon="2.7037400">
        <ele>180.2</ele>
        <time>2022-05-26T17:15:15Z</time>
      </trkpt>
      <trkpt lat="41.9723020" lon="2.7038530">
        <ele>180.4</ele>
        <time>2022-05-26T17:15:16Z</time>
      </trkpt>
      <trkpt lat="41.9722450" lon="2.7039400">
        <ele>180.6</ele>
        <time>2022-05-26T17:15:17Z</time>
      </trkpt>
      <trkpt lat="41.9721660" lon="2.7040040">
        <ele>181.0</ele>
        <time>2022-05-26T17:15:18Z</time>
      </trkpt>
      <trkpt lat="41.9720660" lon="2.7040300">
        <ele>181.6</ele>
        <time>2022-05-26T17:15:19Z</time>
      </trkpt>
      <trkpt lat="41.9719610" lon="2.7040240">
        <ele>182.4</ele>
        <time>2022-05-26T17:15:20Z</time>
      </trkpt>
      <trkpt lat="41.9718620" lon="2.7039800">
        <ele>183.4</ele>
        <time>2022-05-26T17:15:21Z</time>
      </trkpt>
      <trkpt lat="41.9717640" lon="2.7039290">
        <ele>184.2</ele>
        <time>2022-05-26T17:15:22Z</time>
      </trkpt>
      <trkpt lat="41.9716610" lon="2.7038780">
        <ele>185.0</ele>
        <time>2022-05-26T17:15:23Z</time>
      </trkpt>
      <trkpt lat="41.9715520" lon="2.7038260">
        <ele>185.6</ele>
        <time>2022-05-26T17:15:24Z</time>
      </trkpt>
      <trkpt lat="41.9714400" lon="2.7037710">
        <ele>186.4</ele>
        <time>2022-05-26T17:15:25Z</time>
      </trkpt>
      <trkpt lat="41.9713290" lon="2.7037250">
        <ele>186.6</ele>
        <time>2022-05-26T17:15:26Z</time>
      </trkpt>
      <trkpt lat="41.9712210" lon="2.7036910">
        <ele>186.6</ele>
        <time>2022-05-26T17:15:27Z</time>
      </trkpt>
      <trkpt lat="41.9711150" lon="2.7036660">
        <ele>186.6</ele>
        <time>2022-05-26T17:15:28Z</time>
      </trkpt>
      <trkpt lat="41.9710210" lon="2.7036500">
        <ele>186.4</ele>
        <time>2022-05-26T17:15:29Z</time>
      </trkpt>
      <trkpt lat="41.9709440" lon="2.7036510">
        <ele>186.2</ele>
        <time>2022-05-26T17:15:30Z</time>
      </trkpt>
      <trkpt lat="41.9708880" lon="2.7036700">
        <ele>186.0</ele>
        <time>2022-05-26T17:15:31Z</time>
      </trkpt>
      <trkpt lat="41.9708610" lon="2.7037170">
        <ele>186.2</ele>
        <time>2022-05-26T17:15:32Z</time>
      </trkpt>
      <trkpt lat="41.9708610" lon="2.7037860">
        <ele>186.6</ele>
        <time>2022-05-26T17:15:33Z</time>
      </trkpt>
      <trkpt lat="41.9708930" lon="2.7038790">
        <ele>186.8</ele>
        <time>2022-05-26T17:15:34Z</time>
      </trkpt>
      <trkpt lat="41.9709310" lon="2.7039670">
        <ele>187.6</ele>
        <time>2022-05-26T17:15:35Z</time>
      </trkpt>
      <trkpt lat="41.9709780" lon="2.7040720">
        <ele>189.0</ele>
        <time>2022-05-26T17:15:36Z</time>
      </trkpt>
      <trkpt lat="41.9710250" lon="2.7041900">
        <ele>189.6</ele>
        <time>2022-05-26T17:15:37Z</time>
      </trkpt>
      <trkpt lat="41.9710830" lon="2.7043130">
        <ele>190.6</ele>
        <time>2022-05-26T17:15:38Z</time>
      </trkpt>
      <trkpt lat="41.9711420" lon="2.7044430">
        <ele>191.4</ele>
        <time>2022-05-26T17:15:39Z</time>
      </trkpt>
      <trkpt lat="41.9712010" lon="2.7045770">
        <ele>192.6</ele>
        <time>2022-05-26T17:15:40Z</time>
      </trkpt>
      <trkpt lat="41.9712580" lon="2.7047090">
        <ele>193.4</ele>
        <time>2022-05-26T17:15:41Z</time>
      </trkpt>
      <trkpt lat="41.9713190" lon="2.7048350">
        <ele>194.8</ele>
        <time>2022-05-26T17:15:42Z</time>
      </trkpt>
      <trkpt lat="41.9713880" lon="2.7049530">
        <ele>195.6</ele>
        <time>2022-05-26T17:15:43Z</time>
      </trkpt>
      <trkpt lat="41.9714600" lon="2.7050660">
        <ele>196.6</ele>
        <time>2022-05-26T17:15:44Z</time>
      </trkpt>
      <trkpt lat="41.9715160" lon="2.7051840">
        <ele>197.6</ele>
        <time>2022-05-26T17:15:45Z</time>
      </trkpt>
      <trkpt lat="41.9715350" lon="2.7053090">
        <ele>198.6</ele>
        <time>2022-05-26T17:15:46Z</time>
      </trkpt>
      <trkpt lat="41.9715370" lon="2.7054470">
        <ele>199.8</ele>
        <time>2022-05-26T17:15:47Z</time>
      </trkpt>
      <trkpt lat="41.9715110" lon="2.7056000">
        <ele>200.8</ele>
        <time>2022-05-26T17:15:48Z</time>
      </trkpt>
      <trkpt lat="41.9714860" lon="2.7057400">
        <ele>201.8</ele>
        <time>2022-05-26T17:15:49Z</time>
      </trkpt>
      <trkpt lat="41.9714670" lon="2.7058950">
        <ele>202.6</ele>
        <time>2022-05-26T17:15:50Z</time>
      </trkpt>
      <trkpt lat="41.9714570" lon="2.7060460">
        <ele>203.6</ele>
        <time>2022-05-26T17:15:51Z</time>
      </trkpt>
      <trkpt lat="41.9714510" lon="2.7062130">
        <ele>204.4</ele>
        <time>2022-05-26T17:15:52Z</time>
      </trkpt>
      <trkpt lat="41.9714490" lon="2.7063690">
        <ele>205.0</ele>
        <time>2022-05-26T17:15:53Z</time>
      </trkpt>
      <trkpt lat="41.9714510" lon="2.7065340">
        <ele>205.6</ele>
        <time>2022-05-26T17:15:54Z</time>
      </trkpt>
      <trkpt lat="41.9714580" lon="2.7066820">
        <ele>206.2</ele>
        <time>2022-05-26T17:15:55Z</time>
      </trkpt>
      <trkpt lat="41.9714670" lon="2.7068350">
        <ele>206.6</ele>
        <time>2022-05-26T17:15:56Z</time>
      </trkpt>
      <trkpt lat="41.9714720" lon="2.7069740">
        <ele>207.2</ele>
        <time>2022-05-26T17:15:57Z</time>
      </trkpt>
      <trkpt lat="41.9714680" lon="2.7071140">
        <ele>207.6</ele>
        <time>2022-05-26T17:15:58Z</time>
      </trkpt>
      <trkpt lat="41.9714520" lon="2.7072610">
        <ele>207.6</ele>
        <time>2022-05-26T17:15:59Z</time>
      </trkpt>
      <trkpt lat="41.9714280" lon="2.7073980">
        <ele>207.4</ele>
        <time>2022-05-26T17:16:00Z</time>
      </trkpt>
      <trkpt lat="41.9713940" lon="2.7075260">
        <ele>207.6</ele>
        <time>2022-05-26T17:16:01Z</time>
      </trkpt>
      <trkpt lat="41.9713500" lon="2.7076520">
        <ele>207.8</ele>
        <time>2022-05-26T17:16:02Z</time>
      </trkpt>
      <trkpt lat="41.9712970" lon="2.7077510">
        <ele>208.4</ele>
        <time>2022-05-26T17:16:03Z</time>
      </trkpt>
      <trkpt lat="41.9712190" lon="2.7078280">
        <ele>209.2</ele>
        <time>2022-05-26T17:16:04Z</time>
      </trkpt>
      <trkpt lat="41.9711280" lon="2.7078970">
        <ele>209.6</ele>
        <time>2022-05-26T17:16:05Z</time>
      </trkpt>
      <trkpt lat="41.9710290" lon="2.7079650">
        <ele>210.0</ele>
        <time>2022-05-26T17:16:06Z</time>
      </trkpt>
      <trkpt lat="41.9709240" lon="2.7080250">
        <ele>210.4</ele>
        <time>2022-05-26T17:16:07Z</time>
      </trkpt>
      <trkpt lat="41.9708140" lon="2.7080680">
        <ele>210.6</ele>
        <time>2022-05-26T17:16:08Z</time>
      </trkpt>
      <trkpt lat="41.9707110" lon="2.7080990">
        <ele>211.0</ele>
        <time>2022-05-26T17:16:09Z</time>
      </trkpt>
      <trkpt lat="41.9706180" lon="2.7081210">
        <ele>211.6</ele>
        <time>2022-05-26T17:16:10Z</time>
      </trkpt>
      <trkpt lat="41.9705060" lon="2.7081220">
        <ele>212.0</ele>
        <time>2022-05-26T17:16:11Z</time>
      </trkpt>
      <trkpt lat="41.9703950" lon="2.7081040">
        <ele>212.4</ele>
        <time>2022-05-26T17:16:12Z</time>
      </trkpt>
      <trkpt lat="41.9702970" lon="2.7080650">
        <ele>212.8</ele>
        <time>2022-05-26T17:16:13Z</time>
      </trkpt>
      <trkpt lat="41.9702040" lon="2.7080290">
        <ele>213.4</ele>
        <time>2022-05-26T17:16:14Z</time>
      </trkpt>
      <trkpt lat="41.9701120" lon="2.7080140">
        <ele>213.4</ele>
        <time>2022-05-26T17:16:15Z</time>
      </trkpt>
      <trkpt lat="41.9700270" lon="2.7080150">
        <ele>213.8</ele>
        <time>2022-05-26T17:16:16Z</time>
      </trkpt>
      <trkpt lat="41.9699270" lon="2.7080370">
        <ele>214.0</ele>
        <time>2022-05-26T17:16:17Z</time>
      </trkpt>
      <trkpt lat="41.9698220" lon="2.7080640">
        <ele>214.4</ele>
        <time>2022-05-26T17:16:18Z</time>
      </trkpt>
      <trkpt lat="41.9697310" lon="2.7080820">
        <ele>214.8</ele>
        <time>2022-05-26T17:16:19Z</time>
      </trkpt>
      <trkpt lat="41.9696330" lon="2.7081010">
        <ele>215.0</ele>
        <time>2022-05-26T17:16:20Z</time>
      </trkpt>
      <trkpt lat="41.9695110" lon="2.7081260">
        <ele>215.2</ele>
        <time>2022-05-26T17:16:21Z</time>
      </trkpt>
      <trkpt lat="41.9693910" lon="2.7081710">
        <ele>215.2</ele>
        <time>2022-05-26T17:16:22Z</time>
      </trkpt>
      <trkpt lat="41.9692830" lon="2.7082330">
        <ele>215.2</ele>
        <time>2022-05-26T17:16:23Z</time>
      </trkpt>
      <trkpt lat="41.9691940" lon="2.7083050">
        <ele>215.0</ele>
        <time>2022-05-26T17:16:24Z</time>
      </trkpt>
      <trkpt lat="41.9691060" lon="2.7083980">
        <ele>214.4</ele>
        <time>2022-05-26T17:16:25Z</time>
      </trkpt>
      <trkpt lat="41.9690380" lon="2.7084980">
        <ele>214.0</ele>
        <time>2022-05-26T17:16:26Z</time>
      </trkpt>
      <trkpt lat="41.9689900" lon="2.7085920">
        <ele>213.6</ele>
        <time>2022-05-26T17:16:27Z</time>
      </trkpt>
      <trkpt lat="41.9689430" lon="2.7086670">
        <ele>213.2</ele>
        <time>2022-05-26T17:16:28Z</time>
      </trkpt>
      <trkpt lat="41.9688880" lon="2.7086930">
        <ele>213.4</ele>
        <time>2022-05-26T17:16:29Z</time>
      </trkpt>
      <trkpt lat="41.9688190" lon="2.7086930">
        <ele>213.8</ele>
        <time>2022-05-26T17:16:30Z</time>
      </trkpt>
      <trkpt lat="41.9687320" lon="2.7086500">
        <ele>214.2</ele>
        <time>2022-05-26T17:16:31Z</time>
      </trkpt>
      <trkpt lat="41.9686400" lon="2.7085870">
        <ele>214.6</ele>
        <time>2022-05-26T17:16:32Z</time>
      </trkpt>
      <trkpt lat="41.9685400" lon="2.7085080">
        <ele>215.0</ele>
        <time>2022-05-26T17:16:33Z</time>
      </trkpt>
      <trkpt lat="41.9684360" lon="2.7084290">
        <ele>215.2</ele>
        <time>2022-05-26T17:16:34Z</time>
      </trkpt>
      <trkpt lat="41.9683280" lon="2.7083490">
        <ele>215.6</ele>
        <time>2022-05-26T17:16:35Z</time>
      </trkpt>
      <trkpt lat="41.9682300" lon="2.7083040">
        <ele>215.6</ele>
        <time>2022-05-26T17:16:36Z</time>
      </trkpt>
      <trkpt lat="41.9681350" lon="2.7082670">
        <ele>216.0</ele>
        <time>2022-05-26T17:16:37Z</time>
      </trkpt>
      <trkpt lat="41.9680550" lon="2.7082230">
        <ele>216.6</ele>
        <time>2022-05-26T17:16:38Z</time>
      </trkpt>
      <trkpt lat="41.9679700" lon="2.7081650">
        <ele>217.0</ele>
        <time>2022-05-26T17:16:39Z</time>
      </trkpt>
      <trkpt lat="41.9678820" lon="2.7081000">
        <ele>217.4</ele>
        <time>2022-05-26T17:16:40Z</time>
      </trkpt>
      <trkpt lat="41.9677910" lon="2.7080420">
        <ele>217.8</ele>
        <time>2022-05-26T17:16:41Z</time>
      </trkpt>
      <trkpt lat="41.9676860" lon="2.7079980">
        <ele>218.2</ele>
        <time>2022-05-26T17:16:42Z</time>
      </trkpt>
      <trkpt lat="41.9675720" lon="2.7079690">
        <ele>218.6</ele>
        <time>2022-05-26T17:16:43Z</time>
      </trkpt>
      <trkpt lat="41.9674460" lon="2.7079500">
        <ele>218.6</ele>
        <time>2022-05-26T17:16:44Z</time>
      </trkpt>
      <trkpt lat="41.9673130" lon="2.7079460">
        <ele>218.6</ele>
        <time>2022-05-26T17:16:45Z</time>
      </trkpt>
      <trkpt lat="41.9671780" lon="2.7079580">
        <ele>218.8</ele>
        <time>2022-05-26T17:16:46Z</time>
      </trkpt>
      <trkpt lat="41.9670560" lon="2.7079890">
        <ele>218.8</ele>
        <time>2022-05-26T17:16:47Z</time>
      </trkpt>
      <trkpt lat="41.9669480" lon="2.7080350">
        <ele>218.8</ele>
        <time>2022-05-26T17:16:48Z</time>
      </trkpt>
      <trkpt lat="41.9668390" lon="2.7080880">
        <ele>218.6</ele>
        <time>2022-05-26T17:16:49Z</time>
      </trkpt>
      <trkpt lat="41.9667280" lon="2.7081370">
        <ele>218.6</ele>
        <time>2022-05-26T17:16:50Z</time>
      </trkpt>
      <trkpt lat="41.9666250" lon="2.7081900">
        <ele>218.8</ele>
        <time>2022-05-26T17:16:51Z</time>
      </trkpt>
      <trkpt lat="41.9665360" lon="2.7082470">
        <ele>219.0</ele>
        <time>2022-05-26T17:16:52Z</time>
      </trkpt>
      <trkpt lat="41.9664420" lon="2.7083340">
        <ele>219.0</ele>
        <time>2022-05-26T17:16:53Z</time>
      </trkpt>
      <trkpt lat="41.9663580" lon="2.7084370">
        <ele>219.0</ele>
        <time>2022-05-26T17:16:54Z</time>
      </trkpt>
      <trkpt lat="41.9662840" lon="2.7085300">
        <ele>219.0</ele>
        <time>2022-05-26T17:16:55Z</time>
      </trkpt>
      <trkpt lat="41.9662140" lon="2.7085980">
        <ele>219.2</ele>
        <time>2022-05-26T17:16:56Z</time>
      </trkpt>
      <trkpt lat="41.9661320" lon="2.7086550">
        <ele>219.2</ele>
        <time>2022-05-26T17:16:57Z</time>
      </trkpt>
      <trkpt lat="41.9660360" lon="2.7087030">
        <ele>219.0</ele>
        <time>2022-05-26T17:16:58Z</time>
      </trkpt>
      <trkpt lat="41.9659520" lon="2.7087260">
        <ele>218.8</ele>
        <time>2022-05-26T17:16:59Z</time>
      </trkpt>
      <trkpt lat="41.9658670" lon="2.7087340">
        <ele>218.6</ele>
        <time>2022-05-26T17:17:00Z</time>
      </trkpt>
      <trkpt lat="41.9657750" lon="2.7087290">
        <ele>218.2</ele>
        <time>2022-05-26T17:17:01Z</time>
      </trkpt>
      <trkpt lat="41.9656830" lon="2.7087130">
        <ele>217.6</ele>
        <time>2022-05-26T17:17:02Z</time>
      </trkpt>
      <trkpt lat="41.9655930" lon="2.7086890">
        <ele>216.8</ele>
        <time>2022-05-26T17:17:03Z</time>
      </trkpt>
      <trkpt lat="41.9655100" lon="2.7086730">
        <ele>216.2</ele>
        <time>2022-05-26T17:17:04Z</time>
      </trkpt>
      <trkpt lat="41.9654400" lon="2.7086720">
        <ele>215.6</ele>
        <time>2022-05-26T17:17:05Z</time>
      </trkpt>
      <trkpt lat="41.9653850" lon="2.7086900">
        <ele>215.0</ele>
        <time>2022-05-26T17:17:06Z</time>
      </trkpt>
      <trkpt lat="41.9653440" lon="2.7087360">
        <ele>214.6</ele>
        <time>2022-05-26T17:17:07Z</time>
      </trkpt>
      <trkpt lat="41.9653250" lon="2.7088000">
        <ele>214.2</ele>
        <time>2022-05-26T17:17:08Z</time>
      </trkpt>
      <trkpt lat="41.9653270" lon="2.7088740">
        <ele>214.0</ele>
        <time>2022-05-26T17:17:09Z</time>
      </trkpt>
      <trkpt lat="41.9653410" lon="2.7089600">
        <ele>213.6</ele>
        <time>2022-05-26T17:17:10Z</time>
      </trkpt>
      <trkpt lat="41.9653430" lon="2.7090460">
        <ele>213.2</ele>
        <time>2022-05-26T17:17:11Z</time>
      </trkpt>
      <trkpt lat="41.9653390" lon="2.7091340">
        <ele>213.2</ele>
        <time>2022-05-26T17:17:12Z</time>
      </trkpt>
      <trkpt lat="41.9653150" lon="2.7092180">
        <ele>213.0</ele>
        <time>2022-05-26T17:17:13Z</time>
      </trkpt>
      <trkpt lat="41.9652730" lon="2.7092940">
        <ele>212.8</ele>
        <time>2022-05-26T17:17:14Z</time>
      </trkpt>
      <trkpt lat="41.9652090" lon="2.7093550">
        <ele>212.8</ele>
        <time>2022-05-26T17:17:15Z</time>
      </trkpt>
      <trkpt lat="41.9651390" lon="2.7093960">
        <ele>212.8</ele>
        <time>2022-05-26T17:17:16Z</time>
      </trkpt>
      <trkpt lat="41.9650600" lon="2.7094110">
        <ele>213.4</ele>
        <time>2022-05-26T17:17:17Z</time>
      </trkpt>
      <trkpt lat="41.9649750" lon="2.7094050">
        <ele>214.0</ele>
        <time>2022-05-26T17:17:18Z</time>
      </trkpt>
      <trkpt lat="41.9648850" lon="2.7093750">
        <ele>214.6</ele>
        <time>2022-05-26T17:17:19Z</time>
      </trkpt>
      <trkpt lat="41.9647890" lon="2.7093240">
        <ele>215.2</ele>
        <time>2022-05-26T17:17:20Z</time>
      </trkpt>
      <trkpt lat="41.9646880" lon="2.7092710">
        <ele>215.4</ele>
        <time>2022-05-26T17:17:21Z</time>
      </trkpt>
      <trkpt lat="41.9645830" lon="2.7092370">
        <ele>215.4</ele>
        <time>2022-05-26T17:17:22Z</time>
      </trkpt>
      <trkpt lat="41.9644680" lon="2.7092020">
        <ele>215.6</ele>
        <time>2022-05-26T17:17:23Z</time>
      </trkpt>
      <trkpt lat="41.9643590" lon="2.7091770">
        <ele>215.6</ele>
        <time>2022-05-26T17:17:24Z</time>
      </trkpt>
      <trkpt lat="41.9642550" lon="2.7091480">
        <ele>215.2</ele>
        <time>2022-05-26T17:17:25Z</time>
      </trkpt>
      <trkpt lat="41.9641540" lon="2.7091120">
        <ele>214.8</ele>
        <time>2022-05-26T17:17:26Z</time>
      </trkpt>
      <trkpt lat="41.9640580" lon="2.7090730">
        <ele>214.0</ele>
        <time>2022-05-26T17:17:27Z</time>
      </trkpt>
      <trkpt lat="41.9639670" lon="2.7090350">
        <ele>213.6</ele>
        <time>2022-05-26T17:17:28Z</time>
      </trkpt>
      <trkpt lat="41.9638870" lon="2.7089980">
        <ele>213.0</ele>
        <time>2022-05-26T17:17:29Z</time>
      </trkpt>
      <trkpt lat="41.9638170" lon="2.7089570">
        <ele>212.4</ele>
        <time>2022-05-26T17:17:30Z</time>
      </trkpt>
      <trkpt lat="41.9637410" lon="2.7089110">
        <ele>211.8</ele>
        <time>2022-05-26T17:17:31Z</time>
      </trkpt>
      <trkpt lat="41.9636490" lon="2.7088710">
        <ele>211.2</ele>
        <time>2022-05-26T17:17:32Z</time>
      </trkpt>
      <trkpt lat="41.9635550" lon="2.7088610">
        <ele>210.8</ele>
        <time>2022-05-26T17:17:33Z</time>
      </trkpt>
      <trkpt lat="41.9634720" lon="2.7088610">
        <ele>210.2</ele>
        <time>2022-05-26T17:17:34Z</time>
      </trkpt>
      <trkpt lat="41.9633860" lon="2.7088720">
        <ele>209.6</ele>
        <time>2022-05-26T17:17:35Z</time>
      </trkpt>
      <trkpt lat="41.9633060" lon="2.7088780">
        <ele>209.6</ele>
        <time>2022-05-26T17:17:36Z</time>
      </trkpt>
      <trkpt lat="41.9632340" lon="2.7088770">
        <ele>209.6</ele>
        <time>2022-05-26T17:17:37Z</time>
      </trkpt>
      <trkpt lat="41.9631640" lon="2.7088770">
        <ele>209.2</ele>
        <time>2022-05-26T17:17:38Z</time>
      </trkpt>
      <trkpt lat="41.9630770" lon="2.7088740">
        <ele>209.2</ele>
        <time>2022-05-26T17:17:39Z</time>
      </trkpt>
      <trkpt lat="41.9629760" lon="2.7088690">
        <ele>209.6</ele>
        <time>2022-05-26T17:17:40Z</time>
      </trkpt>
      <trkpt lat="41.9628710" lon="2.7088540">
        <ele>209.8</ele>
        <time>2022-05-26T17:17:41Z</time>
      </trkpt>
      <trkpt lat="41.9627690" lon="2.7088290">
        <ele>210.2</ele>
        <time>2022-05-26T17:17:42Z</time>
      </trkpt>
      <trkpt lat="41.9626630" lon="2.7087830">
        <ele>211.0</ele>
        <time>2022-05-26T17:17:43Z</time>
      </trkpt>
      <trkpt lat="41.9625430" lon="2.7087210">
        <ele>211.6</ele>
        <time>2022-05-26T17:17:44Z</time>
      </trkpt>
      <trkpt lat="41.9624340" lon="2.7086440">
        <ele>211.8</ele>
        <time>2022-05-26T17:17:45Z</time>
      </trkpt>
      <trkpt lat="41.9623470" lon="2.7085710">
        <ele>212.2</ele>
        <time>2022-05-26T17:17:46Z</time>
      </trkpt>
      <trkpt lat="41.9622710" lon="2.7085060">
        <ele>212.4</ele>
        <time>2022-05-26T17:17:47Z</time>
      </trkpt>
      <trkpt lat="41.9622080" lon="2.7084420">
        <ele>212.6</ele>
        <time>2022-05-26T17:17:48Z</time>
      </trkpt>
      <trkpt lat="41.9621610" lon="2.7083710">
        <ele>213.0</ele>
        <time>2022-05-26T17:17:49Z</time>
      </trkpt>
      <trkpt lat="41.9621220" lon="2.7082970">
        <ele>213.8</ele>
        <time>2022-05-26T17:17:50Z</time>
      </trkpt>
      <trkpt lat="41.9620690" lon="2.7082270">
        <ele>214.4</ele>
        <time>2022-05-26T17:17:51Z</time>
      </trkpt>
      <trkpt lat="41.9620020" lon="2.7081680">
        <ele>215.2</ele>
        <time>2022-05-26T17:17:52Z</time>
      </trkpt>
      <trkpt lat="41.9619180" lon="2.7081060">
        <ele>216.0</ele>
        <time>2022-05-26T17:17:53Z</time>
      </trkpt>
      <trkpt lat="41.9618200" lon="2.7080260">
        <ele>216.6</ele>
        <time>2022-05-26T17:17:54Z</time>
      </trkpt>
      <trkpt lat="41.9617470" lon="2.7079410">
        <ele>217.4</ele>
        <time>2022-05-26T17:17:55Z</time>
      </trkpt>
      <trkpt lat="41.9617080" lon="2.7078540">
        <ele>218.4</ele>
        <time>2022-05-26T17:17:56Z</time>
      </trkpt>
      <trkpt lat="41.9616610" lon="2.7077760">
        <ele>219.6</ele>
        <time>2022-05-26T17:17:57Z</time>
      </trkpt>
      <trkpt lat="41.9616030" lon="2.7077140">
        <ele>220.8</ele>
        <time>2022-05-26T17:17:58Z</time>
      </trkpt>
      <trkpt lat="41.9615250" lon="2.7076540">
        <ele>222.0</ele>
        <time>2022-05-26T17:17:59Z</time>
      </trkpt>
      <trkpt lat="41.9614270" lon="2.7075930">
        <ele>223.4</ele>
        <time>2022-05-26T17:18:00Z</time>
      </trkpt>
      <trkpt lat="41.9613250" lon="2.7075300">
        <ele>224.8</ele>
        <time>2022-05-26T17:18:01Z</time>
      </trkpt>
      <trkpt lat="41.9612400" lon="2.7074660">
        <ele>226.4</ele>
        <time>2022-05-26T17:18:02Z</time>
      </trkpt>
      <trkpt lat="41.9611560" lon="2.7073980">
        <ele>228.0</ele>
        <time>2022-05-26T17:18:03Z</time>
      </trkpt>
      <trkpt lat="41.9610700" lon="2.7073360">
        <ele>229.6</ele>
        <time>2022-05-26T17:18:04Z</time>
      </trkpt>
      <trkpt lat="41.9609910" lon="2.7072910">
        <ele>231.2</ele>
        <time>2022-05-26T17:18:05Z</time>
      </trkpt>
      <trkpt lat="41.9609180" lon="2.7072910">
        <ele>232.6</ele>
        <time>2022-05-26T17:18:06Z</time>
      </trkpt>
      <trkpt lat="41.9608360" lon="2.7073160">
        <ele>234.0</ele>
        <time>2022-05-26T17:18:07Z</time>
      </trkpt>
      <trkpt lat="41.9607560" lon="2.7073690">
        <ele>235.6</ele>
        <time>2022-05-26T17:18:08Z</time>
      </trkpt>
      <trkpt lat="41.9606850" lon="2.7074310">
        <ele>237.2</ele>
        <time>2022-05-26T17:18:09Z</time>
      </trkpt>
      <trkpt lat="41.9606150" lon="2.7075010">
        <ele>238.6</ele>
        <time>2022-05-26T17:18:10Z</time>
      </trkpt>
      <trkpt lat="41.9605400" lon="2.7075780">
        <ele>240.0</ele>
        <time>2022-05-26T17:18:11Z</time>
      </trkpt>
      <trkpt lat="41.9604890" lon="2.7076610">
        <ele>241.2</ele>
        <time>2022-05-26T17:18:12Z</time>
      </trkpt>
      <trkpt lat="41.9604580" lon="2.7077390">
        <ele>242.2</ele>
        <time>2022-05-26T17:18:13Z</time>
      </trkpt>
      <trkpt lat="41.9604270" lon="2.7078070">
        <ele>243.6</ele>
        <time>2022-05-26T17:18:14Z</time>
      </trkpt>
      <trkpt lat="41.9603760" lon="2.7078620">
        <ele>245.0</ele>
        <time>2022-05-26T17:18:15Z</time>
      </trkpt>
      <trkpt lat="41.9603060" lon="2.7079050">
        <ele>246.8</ele>
        <time>2022-05-26T17:18:16Z</time>
      </trkpt>
      <trkpt lat="41.9602360" lon="2.7079380">
        <ele>248.2</ele>
        <time>2022-05-26T17:18:17Z</time>
      </trkpt>
      <trkpt lat="41.9601480" lon="2.7079720">
        <ele>249.8</ele>
        <time>2022-05-26T17:18:18Z</time>
      </trkpt>
      <trkpt lat="41.9600400" lon="2.7080150">
        <ele>251.2</ele>
        <time>2022-05-26T17:18:19Z</time>
      </trkpt>
      <trkpt lat="41.9599410" lon="2.7080690">
        <ele>252.8</ele>
        <time>2022-05-26T17:18:20Z</time>
      </trkpt>
      <trkpt lat="41.9598560" lon="2.7081290">
        <ele>254.4</ele>
        <time>2022-05-26T17:18:21Z</time>
      </trkpt>
      <trkpt lat="41.9597750" lon="2.7081860">
        <ele>256.2</ele>
        <time>2022-05-26T17:18:22Z</time>
      </trkpt>
      <trkpt lat="41.9596920" lon="2.7082440">
        <ele>257.8</ele>
        <time>2022-05-26T17:18:23Z</time>
      </trkpt>
      <trkpt lat="41.9596080" lon="2.7083090">
        <ele>259.6</ele>
        <time>2022-05-26T17:18:24Z</time>
      </trkpt>
      <trkpt lat="41.9595250" lon="2.7083830">
        <ele>261.4</ele>
        <time>2022-05-26T17:18:25Z</time>
      </trkpt>
      <trkpt lat="41.9594470" lon="2.7084500">
        <ele>262.4</ele>
        <time>2022-05-26T17:18:26Z</time>
      </trkpt>
      <trkpt lat="41.9593530" lon="2.7085220">
        <ele>263.8</ele>
        <time>2022-05-26T17:18:27Z</time>
      </trkpt>
      <trkpt lat="41.9592650" lon="2.7085840">
        <ele>265.2</ele>
        <time>2022-05-26T17:18:28Z</time>
      </trkpt>
      <trkpt lat="41.9591830" lon="2.7086290">
        <ele>266.6</ele>
        <time>2022-05-26T17:18:29Z</time>
      </trkpt>
      <trkpt lat="41.9591050" lon="2.7086710">
        <ele>267.6</ele>
        <time>2022-05-26T17:18:30Z</time>
      </trkpt>
      <trkpt lat="41.9590340" lon="2.7087130">
        <ele>268.6</ele>
        <time>2022-05-26T17:18:31Z</time>
      </trkpt>
      <trkpt lat="41.9589520" lon="2.7087570">
        <ele>269.0</ele>
        <time>2022-05-26T17:18:32Z</time>
      </trkpt>
      <trkpt lat="41.9588610" lon="2.7087970">
        <ele>269.6</ele>
        <time>2022-05-26T17:18:33Z</time>
      </trkpt>
      <trkpt lat="41.9587600" lon="2.7088320">
        <ele>269.6</ele>
        <time>2022-05-26T17:18:34Z</time>
      </trkpt>
      <trkpt lat="41.9586590" lon="2.7088650">
        <ele>269.6</ele>
        <time>2022-05-26T17:18:35Z</time>
      </trkpt>
      <trkpt lat="41.9585640" lon="2.7089010">
        <ele>269.8</ele>
        <time>2022-05-26T17:18:36Z</time>
      </trkpt>
      <trkpt lat="41.9584530" lon="2.7089500">
        <ele>270.4</ele>
        <time>2022-05-26T17:18:37Z</time>
      </trkpt>
      <trkpt lat="41.9583430" lon="2.7089870">
        <ele>270.8</ele>
        <time>2022-05-26T17:18:38Z</time>
      </trkpt>
      <trkpt lat="41.9582440" lon="2.7090030">
        <ele>270.6</ele>
        <time>2022-05-26T17:18:39Z</time>
      </trkpt>
      <trkpt lat="41.9581540" lon="2.7090050">
        <ele>270.6</ele>
        <time>2022-05-26T17:18:40Z</time>
      </trkpt>
      <trkpt lat="41.9580530" lon="2.7090010">
        <ele>270.4</ele>
        <time>2022-05-26T17:18:41Z</time>
      </trkpt>
      <trkpt lat="41.9579720" lon="2.7090040">
        <ele>270.2</ele>
        <time>2022-05-26T17:18:42Z</time>
      </trkpt>
      <trkpt lat="41.9578980" lon="2.7090100">
        <ele>270.2</ele>
        <time>2022-05-26T17:18:43Z</time>
      </trkpt>
      <trkpt lat="41.9578330" lon="2.7090220">
        <ele>270.4</ele>
        <time>2022-05-26T17:18:44Z</time>
      </trkpt>
      <trkpt lat="41.9577660" lon="2.7090430">
        <ele>270.6</ele>
        <time>2022-05-26T17:18:45Z</time>
      </trkpt>
      <trkpt lat="41.9576900" lon="2.7090670">
        <ele>271.2</ele>
        <time>2022-05-26T17:18:46Z</time>
      </trkpt>
      <trkpt lat="41.9576030" lon="2.7090720">
        <ele>271.6</ele>
        <time>2022-05-26T17:18:47Z</time>
      </trkpt>
      <trkpt lat="41.9575100" lon="2.7090630">
        <ele>272.0</ele>
        <time>2022-05-26T17:18:48Z</time>
      </trkpt>
      <trkpt lat="41.9574130" lon="2.7090090">
        <ele>272.4</ele>
        <time>2022-05-26T17:18:49Z</time>
      </trkpt>
      <trkpt lat="41.9573060" lon="2.7089250">
        <ele>272.6</ele>
        <time>2022-05-26T17:18:50Z</time>
      </trkpt>
      <trkpt lat="41.9572040" lon="2.7088410">
        <ele>272.8</ele>
        <time>2022-05-26T17:18:51Z</time>
      </trkpt>
      <trkpt lat="41.9571010" lon="2.7087720">
        <ele>273.0</ele>
        <time>2022-05-26T17:18:52Z</time>
      </trkpt>
      <trkpt lat="41.9569970" lon="2.7086990">
        <ele>272.8</ele>
        <time>2022-05-26T17:18:53Z</time>
      </trkpt>
      <trkpt lat="41.9568960" lon="2.7086370">
        <ele>272.8</ele>
        <time>2022-05-26T17:18:54Z</time>
      </trkpt>
      <trkpt lat="41.9568040" lon="2.7085990">
        <ele>273.0</ele>
        <time>2022-05-26T17:18:55Z</time>
      </trkpt>
      <trkpt lat="41.9567200" lon="2.7085940">
        <ele>273.2</ele>
        <time>2022-05-26T17:18:56Z</time>
      </trkpt>
      <trkpt lat="41.9566370" lon="2.7086080">
        <ele>273.0</ele>
        <time>2022-05-26T17:18:57Z</time>
      </trkpt>
      <trkpt lat="41.9565360" lon="2.7086370">
        <ele>272.8</ele>
        <time>2022-05-26T17:18:58Z</time>
      </trkpt>
      <trkpt lat="41.9564390" lon="2.7086660">
        <ele>272.6</ele>
        <time>2022-05-26T17:18:59Z</time>
      </trkpt>
      <trkpt lat="41.9563520" lon="2.7087070">
        <ele>272.6</ele>
        <time>2022-05-26T17:19:00Z</time>
      </trkpt>
      <trkpt lat="41.9562660" lon="2.7087780">
        <ele>272.4</ele>
        <time>2022-05-26T17:19:01Z</time>
      </trkpt>
      <trkpt lat="41.9561820" lon="2.7088630">
        <ele>272.0</ele>
        <time>2022-05-26T17:19:02Z</time>
      </trkpt>
      <trkpt lat="41.9561070" lon="2.7089570">
        <ele>271.8</ele>
        <time>2022-05-26T17:19:03Z</time>
      </trkpt>
      <trkpt lat="41.9560250" lon="2.7090610">
        <ele>272.0</ele>
        <time>2022-05-26T17:19:04Z</time>
      </trkpt>
      <trkpt lat="41.9559260" lon="2.7091700">
        <ele>271.8</ele>
        <time>2022-05-26T17:19:05Z</time>
      </trkpt>
      <trkpt lat="41.9558290" lon="2.7092440">
        <ele>272.0</ele>
        <time>2022-05-26T17:19:06Z</time>
      </trkpt>
      <trkpt lat="41.9557450" lon="2.7092740">
        <ele>272.2</ele>
        <time>2022-05-26T17:19:07Z</time>
      </trkpt>
      <trkpt lat="41.9556550" lon="2.7092730">
        <ele>272.6</ele>
        <time>2022-05-26T17:19:08Z</time>
      </trkpt>
      <trkpt lat="41.9555540" lon="2.7092410">
        <ele>272.8</ele>
        <time>2022-05-26T17:19:09Z</time>
      </trkpt>
      <trkpt lat="41.9554500" lon="2.7091710">
        <ele>273.2</ele>
        <time>2022-05-26T17:19:10Z</time>
      </trkpt>
      <trkpt lat="41.9553420" lon="2.7090760">
        <ele>273.2</ele>
        <time>2022-05-26T17:19:11Z</time>
      </trkpt>
      <trkpt lat="41.9552460" lon="2.7089910">
        <ele>273.4</ele>
        <time>2022-05-26T17:19:12Z</time>
      </trkpt>
      <trkpt lat="41.9551650" lon="2.7089290">
        <ele>273.2</ele>
        <time>2022-05-26T17:19:13Z</time>
      </trkpt>
      <trkpt lat="41.9550740" lon="2.7088650">
        <ele>272.6</ele>
        <time>2022-05-26T17:19:14Z</time>
      </trkpt>
      <trkpt lat="41.9549660" lon="2.7088020">
        <ele>272.0</ele>
        <time>2022-05-26T17:19:15Z</time>
      </trkpt>
      <trkpt lat="41.9548630" lon="2.7087400">
        <ele>271.6</ele>
        <time>2022-05-26T17:19:16Z</time>
      </trkpt>
      <trkpt lat="41.9547670" lon="2.7086780">
        <ele>270.8</ele>
        <time>2022-05-26T17:19:17Z</time>
      </trkpt>
      <trkpt lat="41.9546750" lon="2.7086240">
        <ele>270.0</ele>
        <time>2022-05-26T17:19:18Z</time>
      </trkpt>
      <trkpt lat="41.9545700" lon="2.7085720">
        <ele>269.0</ele>
        <time>2022-05-26T17:19:19Z</time>
      </trkpt>
      <trkpt lat="41.9544520" lon="2.7085300">
        <ele>268.2</ele>
        <time>2022-05-26T17:19:20Z</time>
      </trkpt>
      <trkpt lat="41.9543330" lon="2.7085280">
        <ele>267.6</ele>
        <time>2022-05-26T17:19:21Z</time>
      </trkpt>
      <trkpt lat="41.9542330" lon="2.7085460">
        <ele>267.4</ele>
        <time>2022-05-26T17:19:22Z</time>
      </trkpt>
      <trkpt lat="41.9541320" lon="2.7085900">
        <ele>267.4</ele>
        <time>2022-05-26T17:19:23Z</time>
      </trkpt>
      <trkpt lat="41.9540230" lon="2.7086310">
        <ele>267.0</ele>
        <time>2022-05-26T17:19:24Z</time>
      </trkpt>
      <trkpt lat="41.9539110" lon="2.7086680">
        <ele>266.8</ele>
        <time>2022-05-26T17:19:25Z</time>
      </trkpt>
      <trkpt lat="41.9537980" lon="2.7087030">
        <ele>266.8</ele>
        <time>2022-05-26T17:19:26Z</time>
      </trkpt>
      <trkpt lat="41.9536860" lon="2.7087380">
        <ele>266.6</ele>
        <time>2022-05-26T17:19:27Z</time>
      </trkpt>
      <trkpt lat="41.9535770" lon="2.7087640">
        <ele>267.0</ele>
        <time>2022-05-26T17:19:28Z</time>
      </trkpt>
      <trkpt lat="41.9534740" lon="2.7087820">
        <ele>267.4</ele>
        <time>2022-05-26T17:19:29Z</time>
      </trkpt>
      <trkpt lat="41.9533800" lon="2.7087960">
        <ele>267.8</ele>
        <time>2022-05-26T17:19:30Z</time>
      </trkpt>
      <trkpt lat="41.9532950" lon="2.7088190">
        <ele>268.8</ele>
        <time>2022-05-26T17:19:31Z</time>
      </trkpt>
      <trkpt lat="41.9532060" lon="2.7088520">
        <ele>269.0</ele>
        <time>2022-05-26T17:19:32Z</time>
      </trkpt>
      <trkpt lat="41.9531030" lon="2.7088840">
        <ele>269.0</ele>
        <time>2022-05-26T17:19:33Z</time>
      </trkpt>
      <trkpt lat="41.9530160" lon="2.7089020">
        <ele>269.2</ele>
        <time>2022-05-26T17:19:34Z</time>
      </trkpt>
      <trkpt lat="41.9529310" lon="2.7088990">
        <ele>270.6</ele>
        <time>2022-05-26T17:19:35Z</time>
      </trkpt>
      <trkpt lat="41.9528360" lon="2.7088770">
        <ele>271.4</ele>
        <time>2022-05-26T17:19:36Z</time>
      </trkpt>
      <trkpt lat="41.9527430" lon="2.7088110">
        <ele>271.4</ele>
        <time>2022-05-26T17:19:37Z</time>
      </trkpt>
      <trkpt lat="41.9526530" lon="2.7087170">
        <ele>271.6</ele>
        <time>2022-05-26T17:19:38Z</time>
      </trkpt>
      <trkpt lat="41.9525660" lon="2.7086140">
        <ele>271.6</ele>
        <time>2022-05-26T17:19:39Z</time>
      </trkpt>
      <trkpt lat="41.9524850" lon="2.7085170">
        <ele>271.6</ele>
        <time>2022-05-26T17:19:40Z</time>
      </trkpt>
      <trkpt lat="41.9524150" lon="2.7084180">
        <ele>271.6</ele>
        <time>2022-05-26T17:19:41Z</time>
      </trkpt>
      <trkpt lat="41.9523310" lon="2.7083420">
        <ele>271.8</ele>
        <time>2022-05-26T17:19:42Z</time>
      </trkpt>
      <trkpt lat="41.9522350" lon="2.7082910">
        <ele>272.2</ele>
        <time>2022-05-26T17:19:43Z</time>
      </trkpt>
      <trkpt lat="41.9521310" lon="2.7082520">
        <ele>272.6</ele>
        <time>2022-05-26T17:19:44Z</time>
      </trkpt>
      <trkpt lat="41.9520300" lon="2.7081980">
        <ele>272.8</ele>
        <time>2022-05-26T17:19:45Z</time>
      </trkpt>
      <trkpt lat="41.9519480" lon="2.7081230">
        <ele>272.8</ele>
        <time>2022-05-26T17:19:46Z</time>
      </trkpt>
      <trkpt lat="41.9518610" lon="2.7080320">
        <ele>272.6</ele>
        <time>2022-05-26T17:19:47Z</time>
      </trkpt>
      <trkpt lat="41.9517750" lon="2.7079580">
        <ele>272.6</ele>
        <time>2022-05-26T17:19:48Z</time>
      </trkpt>
      <trkpt lat="41.9517040" lon="2.7079040">
        <ele>272.4</ele>
        <time>2022-05-26T17:19:49Z</time>
      </trkpt>
      <trkpt lat="41.9516310" lon="2.7078430">
        <ele>272.2</ele>
        <time>2022-05-26T17:19:50Z</time>
      </trkpt>
      <trkpt lat="41.9515500" lon="2.7077560">
        <ele>271.8</ele>
        <time>2022-05-26T17:19:51Z</time>
      </trkpt>
      <trkpt lat="41.9514820" lon="2.7076690">
        <ele>271.4</ele>
        <time>2022-05-26T17:19:52Z</time>
      </trkpt>
      <trkpt lat="41.9514200" lon="2.7076030">
        <ele>271.2</ele>
        <time>2022-05-26T17:19:53Z</time>
      </trkpt>
      <trkpt lat="41.9513440" lon="2.7075400">
        <ele>270.6</ele>
        <time>2022-05-26T17:19:54Z</time>
      </trkpt>
      <trkpt lat="41.9512480" lon="2.7074760">
        <ele>269.8</ele>
        <time>2022-05-26T17:19:55Z</time>
      </trkpt>
      <trkpt lat="41.9511320" lon="2.7074080">
        <ele>269.2</ele>
        <time>2022-05-26T17:19:56Z</time>
      </trkpt>
      <trkpt lat="41.9510270" lon="2.7073500">
        <ele>268.6</ele>
        <time>2022-05-26T17:19:57Z</time>
      </trkpt>
      <trkpt lat="41.9509400" lon="2.7072990">
        <ele>268.0</ele>
        <time>2022-05-26T17:19:58Z</time>
      </trkpt>
      <trkpt lat="41.9508680" lon="2.7072420">
        <ele>267.2</ele>
        <time>2022-05-26T17:19:59Z</time>
      </trkpt>
      <trkpt lat="41.9507970" lon="2.7071650">
        <ele>266.8</ele>
        <time>2022-05-26T17:20:00Z</time>
      </trkpt>
      <trkpt lat="41.9507280" lon="2.7070610">
        <ele>266.2</ele>
        <time>2022-05-26T17:20:01Z</time>
      </trkpt>
      <trkpt lat="41.9506790" lon="2.7069550">
        <ele>265.4</ele>
        <time>2022-05-26T17:20:02Z</time>
      </trkpt>
      <trkpt lat="41.9506410" lon="2.7068570">
        <ele>264.6</ele>
        <time>2022-05-26T17:20:03Z</time>
      </trkpt>
      <trkpt lat="41.9506040" lon="2.7067510">
        <ele>263.6</ele>
        <time>2022-05-26T17:20:04Z</time>
      </trkpt>
      <trkpt lat="41.9505650" lon="2.7066650">
        <ele>262.8</ele>
        <time>2022-05-26T17:20:05Z</time>
      </trkpt>
      <trkpt lat="41.9505260" lon="2.7066110">
        <ele>261.8</ele>
        <time>2022-05-26T17:20:06Z</time>
      </trkpt>
      <trkpt lat="41.9504920" lon="2.7065770">
        <ele>261.0</ele>
        <time>2022-05-26T17:20:07Z</time>
      </trkpt>
      <trkpt lat="41.9504740" lon="2.7065490">
        <ele>260.4</ele>
        <time>2022-05-26T17:20:08Z</time>
      </trkpt>
      <trkpt lat="41.9504720" lon="2.7065210">
        <ele>259.6</ele>
        <time>2022-05-26T17:20:09Z</time>
      </trkpt>
      <trkpt lat="41.9504890" lon="2.7064970">
        <ele>259.0</ele>
        <time>2022-05-26T17:20:10Z</time>
      </trkpt>
      <trkpt lat="41.9504980" lon="2.7064870">
        <ele>258.4</ele>
        <time>2022-05-26T17:20:11Z</time>
      </trkpt>
      <trkpt lat="41.9505360" lon="2.7064640">
        <ele>258.0</ele>
        <time>2022-05-26T17:20:12Z</time>
      </trkpt>
      <trkpt lat="41.9505740" lon="2.7064450">
        <ele>257.6</ele>
        <time>2022-05-26T17:20:13Z</time>
      </trkpt>
      <trkpt lat="41.9506130" lon="2.7064260">
        <ele>257.2</ele>
        <time>2022-05-26T17:20:14Z</time>
      </trkpt>
      <trkpt lat="41.9506510" lon="2.7064070">
        <ele>257.2</ele>
        <time>2022-05-26T17:20:15Z</time>
      </trkpt>
      <trkpt lat="41.9506890" lon="2.7063880">
        <ele>257.2</ele>
        <time>2022-05-26T17:20:16Z</time>
      </trkpt>
      <trkpt lat="41.9507280" lon="2.7063690">
        <ele>257.2</ele>
        <time>2022-05-26T17:21:57Z</time>
      </trkpt>
      <trkpt lat="41.9507660" lon="2.7063500">
        <ele>257.0</ele>
        <time>2022-05-26T17:21:58Z</time>
      </trkpt>
      <trkpt lat="41.9508450" lon="2.7063460">
        <ele>256.8</ele>
        <time>2022-05-26T17:21:59Z</time>
      </trkpt>
      <trkpt lat="41.9509240" lon="2.7063420">
        <ele>256.8</ele>
        <time>2022-05-26T17:22:00Z</time>
      </trkpt>
      <trkpt lat="41.9510000" lon="2.7063330">
        <ele>256.4</ele>
        <time>2022-05-26T17:22:01Z</time>
      </trkpt>
      <trkpt lat="41.9510650" lon="2.7063160">
        <ele>256.2</ele>
        <time>2022-05-26T17:22:02Z</time>
      </trkpt>
      <trkpt lat="41.9511170" lon="2.7062920">
        <ele>256.0</ele>
        <time>2022-05-26T17:22:03Z</time>
      </trkpt>
      <trkpt lat="41.9511580" lon="2.7062670">
        <ele>255.6</ele>
        <time>2022-05-26T17:22:04Z</time>
      </trkpt>
      <trkpt lat="41.9511800" lon="2.7062480">
        <ele>255.4</ele>
        <time>2022-05-26T17:22:05Z</time>
      </trkpt>
      <trkpt lat="41.9511860" lon="2.7062390">
        <ele>255.2</ele>
        <time>2022-05-26T17:22:06Z</time>
      </trkpt>
      <trkpt lat="41.9511920" lon="2.7062170">
        <ele>255.0</ele>
        <time>2022-05-26T17:22:07Z</time>
      </trkpt>
      <trkpt lat="41.9511990" lon="2.7061980">
        <ele>254.8</ele>
        <time>2022-05-26T17:22:08Z</time>
      </trkpt>
      <trkpt lat="41.9512070" lon="2.7061780">
        <ele>254.6</ele>
        <time>2022-05-26T17:22:09Z</time>
      </trkpt>
      <trkpt lat="41.9512140" lon="2.7061580">
        <ele>254.6</ele>
        <time>2022-05-26T17:22:10Z</time>
      </trkpt>
      <trkpt lat="41.9512210" lon="2.7061380">
        <ele>254.6</ele>
        <time>2022-05-26T17:22:11Z</time>
      </trkpt>
      <trkpt lat="41.9512280" lon="2.7061180">
        <ele>254.6</ele>
        <time>2022-05-26T17:22:12Z</time>
      </trkpt>
      <trkpt lat="41.9512360" lon="2.7060980">
        <ele>254.6</ele>
        <time>2022-05-26T17:22:13Z</time>
      </trkpt>
      <trkpt lat="41.9512430" lon="2.7060790">
        <ele>254.6</ele>
        <time>2022-05-26T17:22:14Z</time>
      </trkpt>
      <trkpt lat="41.9512500" lon="2.7060590">
        <ele>254.6</ele>
        <time>2022-05-26T17:22:15Z</time>
      </trkpt>
      <trkpt lat="41.9512570" lon="2.7060390">
        <ele>254.6</ele>
        <time>2022-05-26T17:22:16Z</time>
      </trkpt>
      <trkpt lat="41.9512650" lon="2.7060190">
        <ele>254.6</ele>
        <time>2022-05-26T17:22:17Z</time>
      </trkpt>
      <trkpt lat="41.9512720" lon="2.7059990">
        <ele>254.2</ele>
        <time>2022-05-26T17:24:39Z</time>
      </trkpt>
      <trkpt lat="41.9512790" lon="2.7059790">
        <ele>254.0</ele>
        <time>2022-05-26T17:24:40Z</time>
      </trkpt>
      <trkpt lat="41.9512750" lon="2.7058770">
        <ele>254.2</ele>
        <time>2022-05-26T17:24:41Z</time>
      </trkpt>
      <trkpt lat="41.9512620" lon="2.7057600">
        <ele>254.0</ele>
        <time>2022-05-26T17:24:42Z</time>
      </trkpt>
      <trkpt lat="41.9512460" lon="2.7056360">
        <ele>253.8</ele>
        <time>2022-05-26T17:24:43Z</time>
      </trkpt>
      <trkpt lat="41.9512270" lon="2.7055070">
        <ele>253.4</ele>
        <time>2022-05-26T17:24:44Z</time>
      </trkpt>
      <trkpt lat="41.9512030" lon="2.7053760">
        <ele>252.6</ele>
        <time>2022-05-26T17:24:45Z</time>
      </trkpt>
      <trkpt lat="41.9511750" lon="2.7052450">
        <ele>252.0</ele>
        <time>2022-05-26T17:24:46Z</time>
      </trkpt>
      <trkpt lat="41.9511370" lon="2.7051200">
        <ele>251.8</ele>
        <time>2022-05-26T17:24:47Z</time>
      </trkpt>
      <trkpt lat="41.9510970" lon="2.7050000">
        <ele>251.4</ele>
        <time>2022-05-26T17:24:48Z</time>
      </trkpt>
      <trkpt lat="41.9510660" lon="2.7048810">
        <ele>251.6</ele>
        <time>2022-05-26T17:24:49Z</time>
      </trkpt>
      <trkpt lat="41.9510460" lon="2.7047600">
        <ele>251.4</ele>
        <time>2022-05-26T17:24:50Z</time>
      </trkpt>
      <trkpt lat="41.9510320" lon="2.7046240">
        <ele>250.8</ele>
        <time>2022-05-26T17:24:51Z</time>
      </trkpt>
      <trkpt lat="41.9510240" lon="2.7044850">
        <ele>250.2</ele>
        <time>2022-05-26T17:24:52Z</time>
      </trkpt>
      <trkpt lat="41.9510180" lon="2.7043500">
        <ele>249.6</ele>
        <time>2022-05-26T17:24:53Z</time>
      </trkpt>
      <trkpt lat="41.9510020" lon="2.7042200">
        <ele>249.0</ele>
        <time>2022-05-26T17:24:54Z</time>
      </trkpt>
      <trkpt lat="41.9509810" lon="2.7040950">
        <ele>248.4</ele>
        <time>2022-05-26T17:24:55Z</time>
      </trkpt>
      <trkpt lat="41.9509710" lon="2.7039910">
        <ele>247.8</ele>
        <time>2022-05-26T17:24:56Z</time>
      </trkpt>
      <trkpt lat="41.9509730" lon="2.7038830">
        <ele>246.8</ele>
        <time>2022-05-26T17:24:57Z</time>
      </trkpt>
      <trkpt lat="41.9509960" lon="2.7037620">
        <ele>246.0</ele>
        <time>2022-05-26T17:24:58Z</time>
      </trkpt>
      <trkpt lat="41.9510130" lon="2.7036350">
        <ele>245.4</ele>
        <time>2022-05-26T17:24:59Z</time>
      </trkpt>
      <trkpt lat="41.9510230" lon="2.7035120">
        <ele>245.0</ele>
        <time>2022-05-26T17:25:00Z</time>
      </trkpt>
      <trkpt lat="41.9510420" lon="2.7033950">
        <ele>244.2</ele>
        <time>2022-05-26T17:25:01Z</time>
      </trkpt>
      <trkpt lat="41.9510730" lon="2.7032840">
        <ele>243.4</ele>
        <time>2022-05-26T17:25:02Z</time>
      </trkpt>
      <trkpt lat="41.9511210" lon="2.7031750">
        <ele>242.8</ele>
        <time>2022-05-26T17:25:03Z</time>
      </trkpt>
      <trkpt lat="41.9511670" lon="2.7030650">
        <ele>242.4</ele>
        <time>2022-05-26T17:25:04Z</time>
      </trkpt>
      <trkpt lat="41.9511940" lon="2.7029370">
        <ele>242.0</ele>
        <time>2022-05-26T17:25:05Z</time>
      </trkpt>
      <trkpt lat="41.9512160" lon="2.7027950">
        <ele>241.4</ele>
        <time>2022-05-26T17:25:06Z</time>
      </trkpt>
      <trkpt lat="41.9512420" lon="2.7026650">
        <ele>241.0</ele>
        <time>2022-05-26T17:25:07Z</time>
      </trkpt>
      <trkpt lat="41.9512680" lon="2.7025610">
        <ele>240.6</ele>
        <time>2022-05-26T17:25:08Z</time>
      </trkpt>
      <trkpt lat="41.9513130" lon="2.7024670">
        <ele>240.2</ele>
        <time>2022-05-26T17:25:09Z</time>
      </trkpt>
      <trkpt lat="41.9513780" lon="2.7023730">
        <ele>239.6</ele>
        <time>2022-05-26T17:25:10Z</time>
      </trkpt>
      <trkpt lat="41.9514530" lon="2.7022830">
        <ele>239.0</ele>
        <time>2022-05-26T17:25:11Z</time>
      </trkpt>
      <trkpt lat="41.9515310" lon="2.7022000">
        <ele>238.4</ele>
        <time>2022-05-26T17:25:12Z</time>
      </trkpt>
      <trkpt lat="41.9516040" lon="2.7021260">
        <ele>238.0</ele>
        <time>2022-05-26T17:25:13Z</time>
      </trkpt>
      <trkpt lat="41.9516700" lon="2.7020660">
        <ele>237.8</ele>
        <time>2022-05-26T17:25:14Z</time>
      </trkpt>
      <trkpt lat="41.9517320" lon="2.7020350">
        <ele>237.6</ele>
        <time>2022-05-26T17:25:15Z</time>
      </trkpt>
      <trkpt lat="41.9517860" lon="2.7020210">
        <ele>237.8</ele>
        <time>2022-05-26T17:25:16Z</time>
      </trkpt>
      <trkpt lat="41.9518430" lon="2.7020250">
        <ele>238.0</ele>
        <time>2022-05-26T17:25:17Z</time>
      </trkpt>
      <trkpt lat="41.9519120" lon="2.7020340">
        <ele>238.4</ele>
        <time>2022-05-26T17:25:18Z</time>
      </trkpt>
      <trkpt lat="41.9519930" lon="2.7020520">
        <ele>238.8</ele>
        <time>2022-05-26T17:25:19Z</time>
      </trkpt>
      <trkpt lat="41.9520810" lon="2.7020710">
        <ele>239.2</ele>
        <time>2022-05-26T17:25:20Z</time>
      </trkpt>
      <trkpt lat="41.9521640" lon="2.7020860">
        <ele>239.8</ele>
        <time>2022-05-26T17:25:21Z</time>
      </trkpt>
      <trkpt lat="41.9522290" lon="2.7020940">
        <ele>240.4</ele>
        <time>2022-05-26T17:25:22Z</time>
      </trkpt>
      <trkpt lat="41.9522900" lon="2.7021010">
        <ele>241.0</ele>
        <time>2022-05-26T17:25:23Z</time>
      </trkpt>
      <trkpt lat="41.9523490" lon="2.7021040">
        <ele>241.6</ele>
        <time>2022-05-26T17:25:24Z</time>
      </trkpt>
      <trkpt lat="41.9523980" lon="2.7020910">
        <ele>242.6</ele>
        <time>2022-05-26T17:25:25Z</time>
      </trkpt>
      <trkpt lat="41.9524370" lon="2.7020530">
        <ele>243.6</ele>
        <time>2022-05-26T17:25:26Z</time>
      </trkpt>
      <trkpt lat="41.9524670" lon="2.7019890">
        <ele>244.2</ele>
        <time>2022-05-26T17:25:27Z</time>
      </trkpt>
      <trkpt lat="41.9524920" lon="2.7019010">
        <ele>245.0</ele>
        <time>2022-05-26T17:25:28Z</time>
      </trkpt>
      <trkpt lat="41.9525180" lon="2.7018370">
        <ele>246.0</ele>
        <time>2022-05-26T17:25:29Z</time>
      </trkpt>
      <trkpt lat="41.9525460" lon="2.7017990">
        <ele>246.8</ele>
        <time>2022-05-26T17:25:30Z</time>
      </trkpt>
      <trkpt lat="41.9525780" lon="2.7018010">
        <ele>247.6</ele>
        <time>2022-05-26T17:25:31Z</time>
      </trkpt>
      <trkpt lat="41.9526130" lon="2.7018550">
        <ele>248.2</ele>
        <time>2022-05-26T17:25:32Z</time>
      </trkpt>
      <trkpt lat="41.9526470" lon="2.7019310">
        <ele>248.8</ele>
        <time>2022-05-26T17:25:33Z</time>
      </trkpt>
      <trkpt lat="41.9526810" lon="2.7020150">
        <ele>249.8</ele>
        <time>2022-05-26T17:25:34Z</time>
      </trkpt>
      <trkpt lat="41.9527170" lon="2.7021050">
        <ele>250.8</ele>
        <time>2022-05-26T17:25:35Z</time>
      </trkpt>
      <trkpt lat="41.9527560" lon="2.7022070">
        <ele>251.6</ele>
        <time>2022-05-26T17:25:36Z</time>
      </trkpt>
      <trkpt lat="41.9527880" lon="2.7023080">
        <ele>252.8</ele>
        <time>2022-05-26T17:25:37Z</time>
      </trkpt>
      <trkpt lat="41.9528170" lon="2.7024150">
        <ele>254.0</ele>
        <time>2022-05-26T17:25:38Z</time>
      </trkpt>
      <trkpt lat="41.9528430" lon="2.7025270">
        <ele>255.2</ele>
        <time>2022-05-26T17:25:39Z</time>
      </trkpt>
      <trkpt lat="41.9528690" lon="2.7026350">
        <ele>256.0</ele>
        <time>2022-05-26T17:25:40Z</time>
      </trkpt>
      <trkpt lat="41.9528970" lon="2.7027430">
        <ele>257.4</ele>
        <time>2022-05-26T17:25:41Z</time>
      </trkpt>
      <trkpt lat="41.9529070" lon="2.7028410">
        <ele>258.6</ele>
        <time>2022-05-26T17:25:42Z</time>
      </trkpt>
      <trkpt lat="41.9529080" lon="2.7029340">
        <ele>259.4</ele>
        <time>2022-05-26T17:25:43Z</time>
      </trkpt>
      <trkpt lat="41.9528800" lon="2.7030530">
        <ele>260.6</ele>
        <time>2022-05-26T17:25:44Z</time>
      </trkpt>
      <trkpt lat="41.9528280" lon="2.7032040">
        <ele>261.4</ele>
        <time>2022-05-26T17:25:45Z</time>
      </trkpt>
      <trkpt lat="41.9527770" lon="2.7033510">
        <ele>262.2</ele>
        <time>2022-05-26T17:25:46Z</time>
      </trkpt>
      <trkpt lat="41.9527390" lon="2.7034830">
        <ele>263.0</ele>
        <time>2022-05-26T17:25:47Z</time>
      </trkpt>
      <trkpt lat="41.9526990" lon="2.7036400">
        <ele>263.4</ele>
        <time>2022-05-26T17:25:48Z</time>
      </trkpt>
      <trkpt lat="41.9526600" lon="2.7038030">
        <ele>264.0</ele>
        <time>2022-05-26T17:25:49Z</time>
      </trkpt>
      <trkpt lat="41.9526270" lon="2.7039540">
        <ele>264.2</ele>
        <time>2022-05-26T17:25:50Z</time>
      </trkpt>
      <trkpt lat="41.9526010" lon="2.7040850">
        <ele>264.4</ele>
        <time>2022-05-26T17:25:51Z</time>
      </trkpt>
      <trkpt lat="41.9525820" lon="2.7041780">
        <ele>264.6</ele>
        <time>2022-05-26T17:25:52Z</time>
      </trkpt>
      <trkpt lat="41.9525750" lon="2.7042500">
        <ele>264.6</ele>
        <time>2022-05-26T17:25:53Z</time>
      </trkpt>
      <trkpt lat="41.9525790" lon="2.7043020">
        <ele>264.6</ele>
        <time>2022-05-26T17:25:54Z</time>
      </trkpt>
      <trkpt lat="41.9525850" lon="2.7043230">
        <ele>264.6</ele>
        <time>2022-05-26T17:25:55Z</time>
      </trkpt>
      <trkpt lat="41.9525920" lon="2.7043200">
        <ele>264.6</ele>
        <time>2022-05-26T17:25:56Z</time>
      </trkpt>
      <trkpt lat="41.9526090" lon="2.7042980">
        <ele>264.6</ele>
        <time>2022-05-26T17:25:57Z</time>
      </trkpt>
      <trkpt lat="41.9526370" lon="2.7042720">
        <ele>264.4</ele>
        <time>2022-05-26T17:25:58Z</time>
      </trkpt>
      <trkpt lat="41.9526730" lon="2.7042680">
        <ele>264.2</ele>
        <time>2022-05-26T17:25:59Z</time>
      </trkpt>
      <trkpt lat="41.9527110" lon="2.7042720">
        <ele>263.8</ele>
        <time>2022-05-26T17:26:00Z</time>
      </trkpt>
      <trkpt lat="41.9527460" lon="2.7042960">
        <ele>263.6</ele>
        <time>2022-05-26T17:26:01Z</time>
      </trkpt>
      <trkpt lat="41.9527770" lon="2.7043390">
        <ele>263.0</ele>
        <time>2022-05-26T17:26:02Z</time>
      </trkpt>
      <trkpt lat="41.9528080" lon="2.7043780">
        <ele>262.6</ele>
        <time>2022-05-26T17:26:03Z</time>
      </trkpt>
      <trkpt lat="41.9528380" lon="2.7043850">
        <ele>262.2</ele>
        <time>2022-05-26T17:26:04Z</time>
      </trkpt>
      <trkpt lat="41.9528670" lon="2.7043890">
        <ele>261.6</ele>
        <time>2022-05-26T17:26:05Z</time>
      </trkpt>
      <trkpt lat="41.9528940" lon="2.7043940">
        <ele>261.2</ele>
        <time>2022-05-26T17:26:06Z</time>
      </trkpt>
      <trkpt lat="41.9529190" lon="2.7044060">
        <ele>260.6</ele>
        <time>2022-05-26T17:26:07Z</time>
      </trkpt>
      <trkpt lat="41.9529500" lon="2.7044260">
        <ele>259.8</ele>
        <time>2022-05-26T17:26:08Z</time>
      </trkpt>
      <trkpt lat="41.9529900" lon="2.7044430">
        <ele>259.2</ele>
        <time>2022-05-26T17:26:09Z</time>
      </trkpt>
      <trkpt lat="41.9530310" lon="2.7044520">
        <ele>258.4</ele>
        <time>2022-05-26T17:26:10Z</time>
      </trkpt>
      <trkpt lat="41.9530700" lon="2.7044500">
        <ele>257.4</ele>
        <time>2022-05-26T17:26:11Z</time>
      </trkpt>
      <trkpt lat="41.9530970" lon="2.7044390">
        <ele>256.6</ele>
        <time>2022-05-26T17:26:12Z</time>
      </trkpt>
      <trkpt lat="41.9531150" lon="2.7044290">
        <ele>255.8</ele>
        <time>2022-05-26T17:26:13Z</time>
      </trkpt>
      <trkpt lat="41.9531260" lon="2.7044240">
        <ele>254.8</ele>
        <time>2022-05-26T17:26:14Z</time>
      </trkpt>
      <trkpt lat="41.9531400" lon="2.7044130">
        <ele>254.0</ele>
        <time>2022-05-26T17:26:15Z</time>
      </trkpt>
      <trkpt lat="41.9531630" lon="2.7043980">
        <ele>253.0</ele>
        <time>2022-05-26T17:26:16Z</time>
      </trkpt>
      <trkpt lat="41.9531890" lon="2.7043760">
        <ele>252.2</ele>
        <time>2022-05-26T17:26:17Z</time>
      </trkpt>
      <trkpt lat="41.9532160" lon="2.7043670">
        <ele>251.2</ele>
        <time>2022-05-26T17:26:18Z</time>
      </trkpt>
      <trkpt lat="41.9532430" lon="2.7043640">
        <ele>250.2</ele>
        <time>2022-05-26T17:26:19Z</time>
      </trkpt>
      <trkpt lat="41.9532680" lon="2.7043770">
        <ele>249.2</ele>
        <time>2022-05-26T17:26:20Z</time>
      </trkpt>
      <trkpt lat="41.9532870" lon="2.7043940">
        <ele>248.2</ele>
        <time>2022-05-26T17:26:21Z</time>
      </trkpt>
      <trkpt lat="41.9532950" lon="2.7044100">
        <ele>247.2</ele>
        <time>2022-05-26T17:26:22Z</time>
      </trkpt>
      <trkpt lat="41.9533010" lon="2.7044310">
        <ele>246.2</ele>
        <time>2022-05-26T17:26:23Z</time>
      </trkpt>
      <trkpt lat="41.9533160" lon="2.7044540">
        <ele>245.4</ele>
        <time>2022-05-26T17:26:24Z</time>
      </trkpt>
      <trkpt lat="41.9533430" lon="2.7044700">
        <ele>244.4</ele>
        <time>2022-05-26T17:26:25Z</time>
      </trkpt>
      <trkpt lat="41.9533810" lon="2.7044710">
        <ele>243.6</ele>
        <time>2022-05-26T17:26:26Z</time>
      </trkpt>
      <trkpt lat="41.9534170" lon="2.7044630">
        <ele>242.8</ele>
        <time>2022-05-26T17:26:27Z</time>
      </trkpt>
      <trkpt lat="41.9534420" lon="2.7044380">
        <ele>242.0</ele>
        <time>2022-05-26T17:26:28Z</time>
      </trkpt>
      <trkpt lat="41.9534560" lon="2.7043990">
        <ele>241.4</ele>
        <time>2022-05-26T17:26:29Z</time>
      </trkpt>
      <trkpt lat="41.9534680" lon="2.7043610">
        <ele>240.4</ele>
        <time>2022-05-26T17:26:30Z</time>
      </trkpt>
      <trkpt lat="41.9534880" lon="2.7043310">
        <ele>239.6</ele>
        <time>2022-05-26T17:26:31Z</time>
      </trkpt>
      <trkpt lat="41.9535120" lon="2.7043080">
        <ele>238.8</ele>
        <time>2022-05-26T17:26:32Z</time>
      </trkpt>
      <trkpt lat="41.9535300" lon="2.7043010">
        <ele>238.2</ele>
        <time>2022-05-26T17:26:33Z</time>
      </trkpt>
      <trkpt lat="41.9535450" lon="2.7043270">
        <ele>237.6</ele>
        <time>2022-05-26T17:26:34Z</time>
      </trkpt>
      <trkpt lat="41.9535640" lon="2.7043750">
        <ele>236.8</ele>
        <time>2022-05-26T17:26:35Z</time>
      </trkpt>
      <trkpt lat="41.9535880" lon="2.7044200">
        <ele>236.2</ele>
        <time>2022-05-26T17:26:36Z</time>
      </trkpt>
      <trkpt lat="41.9536140" lon="2.7044200">
        <ele>235.6</ele>
        <time>2022-05-26T17:26:37Z</time>
      </trkpt>
      <trkpt lat="41.9536390" lon="2.7044110">
        <ele>235.0</ele>
        <time>2022-05-26T17:26:38Z</time>
      </trkpt>
      <trkpt lat="41.9536650" lon="2.7043830">
        <ele>234.2</ele>
        <time>2022-05-26T17:26:39Z</time>
      </trkpt>
      <trkpt lat="41.9536950" lon="2.7043580">
        <ele>233.4</ele>
        <time>2022-05-26T17:26:40Z</time>
      </trkpt>
      <trkpt lat="41.9537210" lon="2.7043270">
        <ele>232.8</ele>
        <time>2022-05-26T17:26:41Z</time>
      </trkpt>
      <trkpt lat="41.9537410" lon="2.7042830">
        <ele>231.8</ele>
        <time>2022-05-26T17:26:42Z</time>
      </trkpt>
      <trkpt lat="41.9537620" lon="2.7042320">
        <ele>231.0</ele>
        <time>2022-05-26T17:26:43Z</time>
      </trkpt>
      <trkpt lat="41.9537890" lon="2.7041730">
        <ele>230.2</ele>
        <time>2022-05-26T17:26:44Z</time>
      </trkpt>
      <trkpt lat="41.9538250" lon="2.7041110">
        <ele>229.6</ele>
        <time>2022-05-26T17:26:45Z</time>
      </trkpt>
      <trkpt lat="41.9538690" lon="2.7040610">
        <ele>228.6</ele>
        <time>2022-05-26T17:26:46Z</time>
      </trkpt>
      <trkpt lat="41.9539250" lon="2.7040390">
        <ele>227.8</ele>
        <time>2022-05-26T17:26:47Z</time>
      </trkpt>
      <trkpt lat="41.9539960" lon="2.7040230">
        <ele>226.8</ele>
        <time>2022-05-26T17:26:48Z</time>
      </trkpt>
      <trkpt lat="41.9540690" lon="2.7040010">
        <ele>225.8</ele>
        <time>2022-05-26T17:26:49Z</time>
      </trkpt>
      <trkpt lat="41.9541160" lon="2.7039510">
        <ele>225.0</ele>
        <time>2022-05-26T17:26:50Z</time>
      </trkpt>
      <trkpt lat="41.9541520" lon="2.7038850">
        <ele>224.2</ele>
        <time>2022-05-26T17:26:51Z</time>
      </trkpt>
      <trkpt lat="41.9541900" lon="2.7038090">
        <ele>223.4</ele>
        <time>2022-05-26T17:26:52Z</time>
      </trkpt>
      <trkpt lat="41.9542420" lon="2.7037470">
        <ele>222.6</ele>
        <time>2022-05-26T17:26:53Z</time>
      </trkpt>
      <trkpt lat="41.9543000" lon="2.7036990">
        <ele>221.8</ele>
        <time>2022-05-26T17:26:54Z</time>
      </trkpt>
      <trkpt lat="41.9543650" lon="2.7036690">
        <ele>221.0</ele>
        <time>2022-05-26T17:26:55Z</time>
      </trkpt>
      <trkpt lat="41.9544220" lon="2.7036440">
        <ele>220.2</ele>
        <time>2022-05-26T17:26:56Z</time>
      </trkpt>
      <trkpt lat="41.9544630" lon="2.7036380">
        <ele>219.4</ele>
        <time>2022-05-26T17:26:57Z</time>
      </trkpt>
      <trkpt lat="41.9544930" lon="2.7036480">
        <ele>218.6</ele>
        <time>2022-05-26T17:26:58Z</time>
      </trkpt>
      <trkpt lat="41.9545270" lon="2.7036710">
        <ele>218.0</ele>
        <time>2022-05-26T17:26:59Z</time>
      </trkpt>
      <trkpt lat="41.9545680" lon="2.7036740">
        <ele>217.6</ele>
        <time>2022-05-26T17:27:00Z</time>
      </trkpt>
      <trkpt lat="41.9546080" lon="2.7036660">
        <ele>217.2</ele>
        <time>2022-05-26T17:27:01Z</time>
      </trkpt>
      <trkpt lat="41.9546460" lon="2.7036360">
        <ele>217.0</ele>
        <time>2022-05-26T17:27:02Z</time>
      </trkpt>
      <trkpt lat="41.9546890" lon="2.7035880">
        <ele>216.6</ele>
        <time>2022-05-26T17:27:03Z</time>
      </trkpt>
      <trkpt lat="41.9547390" lon="2.7035350">
        <ele>216.4</ele>
        <time>2022-05-26T17:27:04Z</time>
      </trkpt>
      <trkpt lat="41.9547900" lon="2.7034850">
        <ele>216.0</ele>
        <time>2022-05-26T17:27:05Z</time>
      </trkpt>
      <trkpt lat="41.9548360" lon="2.7034310">
        <ele>215.6</ele>
        <time>2022-05-26T17:27:06Z</time>
      </trkpt>
      <trkpt lat="41.9548860" lon="2.7033860">
        <ele>215.4</ele>
        <time>2022-05-26T17:27:07Z</time>
      </trkpt>
      <trkpt lat="41.9549410" lon="2.7033510">
        <ele>215.0</ele>
        <time>2022-05-26T17:27:08Z</time>
      </trkpt>
      <trkpt lat="41.9550020" lon="2.7033290">
        <ele>214.6</ele>
        <time>2022-05-26T17:27:09Z</time>
      </trkpt>
      <trkpt lat="41.9550560" lon="2.7033060">
        <ele>214.4</ele>
        <time>2022-05-26T17:27:10Z</time>
      </trkpt>
      <trkpt lat="41.9550960" lon="2.7032710">
        <ele>214.2</ele>
        <time>2022-05-26T17:27:11Z</time>
      </trkpt>
      <trkpt lat="41.9551320" lon="2.7032320">
        <ele>214.0</ele>
        <time>2022-05-26T17:27:12Z</time>
      </trkpt>
      <trkpt lat="41.9551820" lon="2.7032010">
        <ele>213.6</ele>
        <time>2022-05-26T17:27:13Z</time>
      </trkpt>
      <trkpt lat="41.9552530" lon="2.7031950">
        <ele>213.6</ele>
        <time>2022-05-26T17:27:14Z</time>
      </trkpt>
      <trkpt lat="41.9553270" lon="2.7032050">
        <ele>213.4</ele>
        <time>2022-05-26T17:27:15Z</time>
      </trkpt>
      <trkpt lat="41.9554080" lon="2.7032490">
        <ele>213.0</ele>
        <time>2022-05-26T17:27:16Z</time>
      </trkpt>
      <trkpt lat="41.9554950" lon="2.7033030">
        <ele>212.6</ele>
        <time>2022-05-26T17:27:17Z</time>
      </trkpt>
      <trkpt lat="41.9555840" lon="2.7033580">
        <ele>212.0</ele>
        <time>2022-05-26T17:27:18Z</time>
      </trkpt>
      <trkpt lat="41.9556700" lon="2.7034130">
        <ele>211.4</ele>
        <time>2022-05-26T17:27:19Z</time>
      </trkpt>
      <trkpt lat="41.9557490" lon="2.7034740">
        <ele>210.6</ele>
        <time>2022-05-26T17:27:20Z</time>
      </trkpt>
      <trkpt lat="41.9558230" lon="2.7035310">
        <ele>210.0</ele>
        <time>2022-05-26T17:27:21Z</time>
      </trkpt>
      <trkpt lat="41.9558880" lon="2.7035730">
        <ele>209.4</ele>
        <time>2022-05-26T17:27:22Z</time>
      </trkpt>
      <trkpt lat="41.9559370" lon="2.7035980">
        <ele>208.8</ele>
        <time>2022-05-26T17:27:23Z</time>
      </trkpt>
      <trkpt lat="41.9559650" lon="2.7036120">
        <ele>208.2</ele>
        <time>2022-05-26T17:27:24Z</time>
      </trkpt>
      <trkpt lat="41.9559760" lon="2.7036200">
        <ele>207.8</ele>
        <time>2022-05-26T17:27:25Z</time>
      </trkpt>
      <trkpt lat="41.9559850" lon="2.7036250">
        <ele>207.4</ele>
        <time>2022-05-26T17:27:26Z</time>
      </trkpt>
      <trkpt lat="41.9560050" lon="2.7036250">
        <ele>207.2</ele>
        <time>2022-05-26T17:27:27Z</time>
      </trkpt>
      <trkpt lat="41.9560390" lon="2.7036210">
        <ele>206.8</ele>
        <time>2022-05-26T17:27:28Z</time>
      </trkpt>
      <trkpt lat="41.9560870" lon="2.7036060">
        <ele>206.4</ele>
        <time>2022-05-26T17:27:29Z</time>
      </trkpt>
      <trkpt lat="41.9561490" lon="2.7035800">
        <ele>205.8</ele>
        <time>2022-05-26T17:27:30Z</time>
      </trkpt>
      <trkpt lat="41.9562170" lon="2.7035360">
        <ele>205.4</ele>
        <time>2022-05-26T17:27:31Z</time>
      </trkpt>
      <trkpt lat="41.9562770" lon="2.7034800">
        <ele>205.0</ele>
        <time>2022-05-26T17:27:32Z</time>
      </trkpt>
      <trkpt lat="41.9563270" lon="2.7034200">
        <ele>204.6</ele>
        <time>2022-05-26T17:27:33Z</time>
      </trkpt>
      <trkpt lat="41.9563780" lon="2.7033580">
        <ele>204.2</ele>
        <time>2022-05-26T17:27:34Z</time>
      </trkpt>
      <trkpt lat="41.9564310" lon="2.7033090">
        <ele>203.8</ele>
        <time>2022-05-26T17:27:35Z</time>
      </trkpt>
      <trkpt lat="41.9564810" lon="2.7032620">
        <ele>203.6</ele>
        <time>2022-05-26T17:27:36Z</time>
      </trkpt>
      <trkpt lat="41.9565210" lon="2.7032040">
        <ele>203.4</ele>
        <time>2022-05-26T17:27:37Z</time>
      </trkpt>
      <trkpt lat="41.9565530" lon="2.7031300">
        <ele>203.0</ele>
        <time>2022-05-26T17:27:38Z</time>
      </trkpt>
      <trkpt lat="41.9565900" lon="2.7030500">
        <ele>202.8</ele>
        <time>2022-05-26T17:27:39Z</time>
      </trkpt>
      <trkpt lat="41.9566360" lon="2.7029760">
        <ele>202.6</ele>
        <time>2022-05-26T17:27:40Z</time>
      </trkpt>
      <trkpt lat="41.9566780" lon="2.7029060">
        <ele>202.4</ele>
        <time>2022-05-26T17:27:41Z</time>
      </trkpt>
      <trkpt lat="41.9567070" lon="2.7028370">
        <ele>202.0</ele>
        <time>2022-05-26T17:27:42Z</time>
      </trkpt>
      <trkpt lat="41.9567310" lon="2.7027790">
        <ele>201.6</ele>
        <time>2022-05-26T17:27:43Z</time>
      </trkpt>
      <trkpt lat="41.9567550" lon="2.7027500">
        <ele>201.4</ele>
        <time>2022-05-26T17:27:44Z</time>
      </trkpt>
      <trkpt lat="41.9567900" lon="2.7027460">
        <ele>201.2</ele>
        <time>2022-05-26T17:27:45Z</time>
      </trkpt>
      <trkpt lat="41.9568420" lon="2.7027890">
        <ele>201.0</ele>
        <time>2022-05-26T17:27:46Z</time>
      </trkpt>
      <trkpt lat="41.9569080" lon="2.7028640">
        <ele>200.8</ele>
        <time>2022-05-26T17:27:47Z</time>
      </trkpt>
      <trkpt lat="41.9569790" lon="2.7029640">
        <ele>200.6</ele>
        <time>2022-05-26T17:27:48Z</time>
      </trkpt>
      <trkpt lat="41.9570490" lon="2.7030660">
        <ele>200.4</ele>
        <time>2022-05-26T17:27:49Z</time>
      </trkpt>
      <trkpt lat="41.9571070" lon="2.7031810">
        <ele>200.0</ele>
        <time>2022-05-26T17:27:50Z</time>
      </trkpt>
      <trkpt lat="41.9571620" lon="2.7032840">
        <ele>200.2</ele>
        <time>2022-05-26T17:27:51Z</time>
      </trkpt>
      <trkpt lat="41.9572150" lon="2.7033880">
        <ele>200.0</ele>
        <time>2022-05-26T17:27:52Z</time>
      </trkpt>
      <trkpt lat="41.9572720" lon="2.7034970">
        <ele>200.0</ele>
        <time>2022-05-26T17:27:53Z</time>
      </trkpt>
      <trkpt lat="41.9573320" lon="2.7036030">
        <ele>199.6</ele>
        <time>2022-05-26T17:27:54Z</time>
      </trkpt>
      <trkpt lat="41.9573880" lon="2.7036970">
        <ele>199.2</ele>
        <time>2022-05-26T17:27:55Z</time>
      </trkpt>
      <trkpt lat="41.9574400" lon="2.7037620">
        <ele>199.0</ele>
        <time>2022-05-26T17:27:56Z</time>
      </trkpt>
      <trkpt lat="41.9575030" lon="2.7037960">
        <ele>198.8</ele>
        <time>2022-05-26T17:27:57Z</time>
      </trkpt>
      <trkpt lat="41.9575780" lon="2.7038130">
        <ele>198.2</ele>
        <time>2022-05-26T17:27:58Z</time>
      </trkpt>
      <trkpt lat="41.9576570" lon="2.7038270">
        <ele>197.6</ele>
        <time>2022-05-26T17:27:59Z</time>
      </trkpt>
      <trkpt lat="41.9577240" lon="2.7038520">
        <ele>197.2</ele>
        <time>2022-05-26T17:28:00Z</time>
      </trkpt>
      <trkpt lat="41.9577710" lon="2.7038970">
        <ele>196.8</ele>
        <time>2022-05-26T17:28:01Z</time>
      </trkpt>
      <trkpt lat="41.9578020" lon="2.7039510">
        <ele>196.4</ele>
        <time>2022-05-26T17:28:02Z</time>
      </trkpt>
      <trkpt lat="41.9578220" lon="2.7039630">
        <ele>196.0</ele>
        <time>2022-05-26T17:28:03Z</time>
      </trkpt>
      <trkpt lat="41.9578430" lon="2.7039570">
        <ele>195.8</ele>
        <time>2022-05-26T17:28:04Z</time>
      </trkpt>
      <trkpt lat="41.9578810" lon="2.7039100">
        <ele>195.4</ele>
        <time>2022-05-26T17:28:05Z</time>
      </trkpt>
      <trkpt lat="41.9579340" lon="2.7038470">
        <ele>195.2</ele>
        <time>2022-05-26T17:28:06Z</time>
      </trkpt>
      <trkpt lat="41.9580000" lon="2.7037880">
        <ele>194.6</ele>
        <time>2022-05-26T17:28:07Z</time>
      </trkpt>
      <trkpt lat="41.9580760" lon="2.7037480">
        <ele>194.2</ele>
        <time>2022-05-26T17:28:08Z</time>
      </trkpt>
      <trkpt lat="41.9581560" lon="2.7037030">
        <ele>194.0</ele>
        <time>2022-05-26T17:28:09Z</time>
      </trkpt>
      <trkpt lat="41.9582290" lon="2.7036480">
        <ele>193.6</ele>
        <time>2022-05-26T17:28:10Z</time>
      </trkpt>
      <trkpt lat="41.9583020" lon="2.7035910">
        <ele>193.4</ele>
        <time>2022-05-26T17:28:11Z</time>
      </trkpt>
      <trkpt lat="41.9583870" lon="2.7035400">
        <ele>193.2</ele>
        <time>2022-05-26T17:28:12Z</time>
      </trkpt>
      <trkpt lat="41.9584830" lon="2.7034900">
        <ele>192.6</ele>
        <time>2022-05-26T17:28:13Z</time>
      </trkpt>
      <trkpt lat="41.9585770" lon="2.7034500">
        <ele>192.4</ele>
        <time>2022-05-26T17:28:14Z</time>
      </trkpt>
      <trkpt lat="41.9586630" lon="2.7034300">
        <ele>192.2</ele>
        <time>2022-05-26T17:28:15Z</time>
      </trkpt>
      <trkpt lat="41.9587470" lon="2.7034260">
        <ele>192.2</ele>
        <time>2022-05-26T17:28:16Z</time>
      </trkpt>
      <trkpt lat="41.9588270" lon="2.7034500">
        <ele>192.0</ele>
        <time>2022-05-26T17:28:17Z</time>
      </trkpt>
      <trkpt lat="41.9589110" lon="2.7034850">
        <ele>191.8</ele>
        <time>2022-05-26T17:28:18Z</time>
      </trkpt>
      <trkpt lat="41.9590040" lon="2.7035250">
        <ele>191.4</ele>
        <time>2022-05-26T17:28:19Z</time>
      </trkpt>
      <trkpt lat="41.9590950" lon="2.7035490">
        <ele>191.2</ele>
        <time>2022-05-26T17:28:20Z</time>
      </trkpt>
      <trkpt lat="41.9591770" lon="2.7035630">
        <ele>191.0</ele>
        <time>2022-05-26T17:28:21Z</time>
      </trkpt>
      <trkpt lat="41.9592550" lon="2.7035620">
        <ele>190.8</ele>
        <time>2022-05-26T17:28:22Z</time>
      </trkpt>
      <trkpt lat="41.9593400" lon="2.7035630">
        <ele>190.6</ele>
        <time>2022-05-26T17:28:23Z</time>
      </trkpt>
      <trkpt lat="41.9594260" lon="2.7035780">
        <ele>190.2</ele>
        <time>2022-05-26T17:28:24Z</time>
      </trkpt>
      <trkpt lat="41.9595000" lon="2.7036170">
        <ele>190.0</ele>
        <time>2022-05-26T17:28:25Z</time>
      </trkpt>
      <trkpt lat="41.9595570" lon="2.7036800">
        <ele>189.6</ele>
        <time>2022-05-26T17:28:26Z</time>
      </trkpt>
      <trkpt lat="41.9595960" lon="2.7037600">
        <ele>189.4</ele>
        <time>2022-05-26T17:28:27Z</time>
      </trkpt>
      <trkpt lat="41.9596270" lon="2.7038170">
        <ele>189.0</ele>
        <time>2022-05-26T17:28:28Z</time>
      </trkpt>
      <trkpt lat="41.9596590" lon="2.7038570">
        <ele>188.8</ele>
        <time>2022-05-26T17:28:29Z</time>
      </trkpt>
      <trkpt lat="41.9596880" lon="2.7038690">
        <ele>188.6</ele>
        <time>2022-05-26T17:28:30Z</time>
      </trkpt>
      <trkpt lat="41.9597110" lon="2.7038330">
        <ele>188.4</ele>
        <time>2022-05-26T17:28:31Z</time>
      </trkpt>
      <trkpt lat="41.9597160" lon="2.7037600">
        <ele>188.6</ele>
        <time>2022-05-26T17:28:32Z</time>
      </trkpt>
      <trkpt lat="41.9597190" lon="2.7036620">
        <ele>188.4</ele>
        <time>2022-05-26T17:28:33Z</time>
      </trkpt>
      <trkpt lat="41.9597300" lon="2.7035600">
        <ele>188.6</ele>
        <time>2022-05-26T17:28:34Z</time>
      </trkpt>
      <trkpt lat="41.9597590" lon="2.7034490">
        <ele>188.8</ele>
        <time>2022-05-26T17:28:35Z</time>
      </trkpt>
      <trkpt lat="41.9598080" lon="2.7033660">
        <ele>188.8</ele>
        <time>2022-05-26T17:28:36Z</time>
      </trkpt>
      <trkpt lat="41.9598720" lon="2.7032990">
        <ele>188.6</ele>
        <time>2022-05-26T17:28:37Z</time>
      </trkpt>
      <trkpt lat="41.9599420" lon="2.7032430">
        <ele>188.2</ele>
        <time>2022-05-26T17:28:38Z</time>
      </trkpt>
      <trkpt lat="41.9600150" lon="2.7032180">
        <ele>188.0</ele>
        <time>2022-05-26T17:28:39Z</time>
      </trkpt>
      <trkpt lat="41.9600770" lon="2.7032200">
        <ele>187.6</ele>
        <time>2022-05-26T17:28:40Z</time>
      </trkpt>
      <trkpt lat="41.9601320" lon="2.7032620">
        <ele>187.2</ele>
        <time>2022-05-26T17:28:41Z</time>
      </trkpt>
      <trkpt lat="41.9601850" lon="2.7033050">
        <ele>187.0</ele>
        <time>2022-05-26T17:28:42Z</time>
      </trkpt>
      <trkpt lat="41.9602360" lon="2.7032970">
        <ele>186.4</ele>
        <time>2022-05-26T17:28:43Z</time>
      </trkpt>
      <trkpt lat="41.9602880" lon="2.7032740">
        <ele>186.4</ele>
        <time>2022-05-26T17:28:44Z</time>
      </trkpt>
      <trkpt lat="41.9603450" lon="2.7032280">
        <ele>186.2</ele>
        <time>2022-05-26T17:28:45Z</time>
      </trkpt>
      <trkpt lat="41.9604150" lon="2.7032160">
        <ele>186.2</ele>
        <time>2022-05-26T17:28:46Z</time>
      </trkpt>
      <trkpt lat="41.9604970" lon="2.7032100">
        <ele>186.2</ele>
        <time>2022-05-26T17:28:47Z</time>
      </trkpt>
      <trkpt lat="41.9605820" lon="2.7032150">
        <ele>186.4</ele>
        <time>2022-05-26T17:28:48Z</time>
      </trkpt>
      <trkpt lat="41.9606570" lon="2.7032300">
        <ele>186.4</ele>
        <time>2022-05-26T17:28:49Z</time>
      </trkpt>
      <trkpt lat="41.9607180" lon="2.7032460">
        <ele>186.6</ele>
        <time>2022-05-26T17:28:50Z</time>
      </trkpt>
      <trkpt lat="41.9607490" lon="2.7032530">
        <ele>186.6</ele>
        <time>2022-05-26T17:28:51Z</time>
      </trkpt>
      <trkpt lat="41.9607710" lon="2.7032500">
        <ele>186.4</ele>
        <time>2022-05-26T17:28:52Z</time>
      </trkpt>
      <trkpt lat="41.9607850" lon="2.7032420">
        <ele>186.6</ele>
        <time>2022-05-26T17:28:53Z</time>
      </trkpt>
      <trkpt lat="41.9607980" lon="2.7032340">
        <ele>186.6</ele>
        <time>2022-05-26T17:28:54Z</time>
      </trkpt>
      <trkpt lat="41.9608120" lon="2.7032260">
        <ele>186.6</ele>
        <time>2022-05-26T17:28:55Z</time>
      </trkpt>
      <trkpt lat="41.9608250" lon="2.7032180">
        <ele>186.6</ele>
        <time>2022-05-26T17:28:56Z</time>
      </trkpt>
      <trkpt lat="41.9608390" lon="2.7032100">
        <ele>186.6</ele>
        <time>2022-05-26T17:28:57Z</time>
      </trkpt>
      <trkpt lat="41.9608520" lon="2.7032020">
        <ele>186.6</ele>
        <time>2022-05-26T17:28:58Z</time>
      </trkpt>
      <trkpt lat="41.9608660" lon="2.7031940">
        <ele>186.6</ele>
        <time>2022-05-26T17:28:59Z</time>
      </trkpt>
      <trkpt lat="41.9608790" lon="2.7031860">
        <ele>186.6</ele>
        <time>2022-05-26T17:29:00Z</time>
      </trkpt>
      <trkpt lat="41.9608930" lon="2.7031780">
        <ele>186.6</ele>
        <time>2022-05-26T17:29:01Z</time>
      </trkpt>
      <trkpt lat="41.9609060" lon="2.7031700">
        <ele>186.6</ele>
        <time>2022-05-26T17:29:02Z</time>
      </trkpt>
      <trkpt lat="41.9609200" lon="2.7031620">
        <ele>186.6</ele>
        <time>2022-05-26T17:29:03Z</time>
      </trkpt>
      <trkpt lat="41.9609330" lon="2.7031540">
        <ele>187.0</ele>
        <time>2022-05-26T17:29:17Z</time>
      </trkpt>
      <trkpt lat="41.9609470" lon="2.7031470">
        <ele>187.4</ele>
        <time>2022-05-26T17:29:18Z</time>
      </trkpt>
      <trkpt lat="41.9610230" lon="2.7031240">
        <ele>187.8</ele>
        <time>2022-05-26T17:29:19Z</time>
      </trkpt>
      <trkpt lat="41.9611100" lon="2.7031080">
        <ele>188.2</ele>
        <time>2022-05-26T17:29:20Z</time>
      </trkpt>
      <trkpt lat="41.9612050" lon="2.7030980">
        <ele>188.6</ele>
        <time>2022-05-26T17:29:21Z</time>
      </trkpt>
      <trkpt lat="41.9613030" lon="2.7030930">
        <ele>189.0</ele>
        <time>2022-05-26T17:29:22Z</time>
      </trkpt>
      <trkpt lat="41.9614020" lon="2.7030900">
        <ele>189.0</ele>
        <time>2022-05-26T17:29:23Z</time>
      </trkpt>
      <trkpt lat="41.9615010" lon="2.7030900">
        <ele>188.8</ele>
        <time>2022-05-26T17:29:24Z</time>
      </trkpt>
      <trkpt lat="41.9616030" lon="2.7030960">
        <ele>188.6</ele>
        <time>2022-05-26T17:29:25Z</time>
      </trkpt>
      <trkpt lat="41.9617070" lon="2.7031080">
        <ele>188.6</ele>
        <time>2022-05-26T17:29:26Z</time>
      </trkpt>
      <trkpt lat="41.9618070" lon="2.7031080">
        <ele>188.4</ele>
        <time>2022-05-26T17:29:27Z</time>
      </trkpt>
      <trkpt lat="41.9619040" lon="2.7030980">
        <ele>188.0</ele>
        <time>2022-05-26T17:29:28Z</time>
      </trkpt>
      <trkpt lat="41.9620020" lon="2.7030710">
        <ele>187.8</ele>
        <time>2022-05-26T17:29:29Z</time>
      </trkpt>
      <trkpt lat="41.9621050" lon="2.7030290">
        <ele>187.6</ele>
        <time>2022-05-26T17:29:30Z</time>
      </trkpt>
      <trkpt lat="41.9622040" lon="2.7029780">
        <ele>187.2</ele>
        <time>2022-05-26T17:29:31Z</time>
      </trkpt>
      <trkpt lat="41.9623010" lon="2.7029340">
        <ele>187.0</ele>
        <time>2022-05-26T17:29:32Z</time>
      </trkpt>
      <trkpt lat="41.9623950" lon="2.7028890">
        <ele>186.8</ele>
        <time>2022-05-26T17:29:33Z</time>
      </trkpt>
      <trkpt lat="41.9624860" lon="2.7028530">
        <ele>186.6</ele>
        <time>2022-05-26T17:29:34Z</time>
      </trkpt>
      <trkpt lat="41.9625730" lon="2.7028210">
        <ele>186.0</ele>
        <time>2022-05-26T17:29:35Z</time>
      </trkpt>
      <trkpt lat="41.9626470" lon="2.7027840">
        <ele>185.6</ele>
        <time>2022-05-26T17:29:36Z</time>
      </trkpt>
      <trkpt lat="41.9627090" lon="2.7027330">
        <ele>185.2</ele>
        <time>2022-05-26T17:29:37Z</time>
      </trkpt>
      <trkpt lat="41.9627620" lon="2.7026790">
        <ele>184.6</ele>
        <time>2022-05-26T17:29:38Z</time>
      </trkpt>
      <trkpt lat="41.9628130" lon="2.7026380">
        <ele>184.4</ele>
        <time>2022-05-26T17:29:39Z</time>
      </trkpt>
      <trkpt lat="41.9628600" lon="2.7026130">
        <ele>183.8</ele>
        <time>2022-05-26T17:29:40Z</time>
      </trkpt>
      <trkpt lat="41.9628940" lon="2.7025790">
        <ele>183.4</ele>
        <time>2022-05-26T17:29:41Z</time>
      </trkpt>
      <trkpt lat="41.9629000" lon="2.7025250">
        <ele>183.4</ele>
        <time>2022-05-26T17:29:42Z</time>
      </trkpt>
      <trkpt lat="41.9628920" lon="2.7024500">
        <ele>183.2</ele>
        <time>2022-05-26T17:29:43Z</time>
      </trkpt>
      <trkpt lat="41.9628640" lon="2.7023370">
        <ele>183.2</ele>
        <time>2022-05-26T17:29:44Z</time>
      </trkpt>
      <trkpt lat="41.9628370" lon="2.7022060">
        <ele>183.0</ele>
        <time>2022-05-26T17:29:45Z</time>
      </trkpt>
      <trkpt lat="41.9628280" lon="2.7020500">
        <ele>182.2</ele>
        <time>2022-05-26T17:29:46Z</time>
      </trkpt>
      <trkpt lat="41.9628250" lon="2.7018860">
        <ele>181.2</ele>
        <time>2022-05-26T17:29:47Z</time>
      </trkpt>
      <trkpt lat="41.9628340" lon="2.7017300">
        <ele>180.0</ele>
        <time>2022-05-26T17:29:48Z</time>
      </trkpt>
      <trkpt lat="41.9628430" lon="2.7015580">
        <ele>178.6</ele>
        <time>2022-05-26T17:29:49Z</time>
      </trkpt>
      <trkpt lat="41.9628480" lon="2.7013820">
        <ele>177.8</ele>
        <time>2022-05-26T17:29:50Z</time>
      </trkpt>
      <trkpt lat="41.9628460" lon="2.7012260">
        <ele>176.6</ele>
        <time>2022-05-26T17:29:51Z</time>
      </trkpt>
      <trkpt lat="41.9628430" lon="2.7011010">
        <ele>175.6</ele>
        <time>2022-05-26T17:29:52Z</time>
      </trkpt>
      <trkpt lat="41.9628340" lon="2.7010110">
        <ele>174.8</ele>
        <time>2022-05-26T17:29:53Z</time>
      </trkpt>
      <trkpt lat="41.9628350" lon="2.7009560">
        <ele>174.0</ele>
        <time>2022-05-26T17:29:54Z</time>
      </trkpt>
      <trkpt lat="41.9628540" lon="2.7009220">
        <ele>173.2</ele>
        <time>2022-05-26T17:29:55Z</time>
      </trkpt>
      <trkpt lat="41.9628890" lon="2.7008920">
        <ele>172.6</ele>
        <time>2022-05-26T17:29:56Z</time>
      </trkpt>
      <trkpt lat="41.9629440" lon="2.7008630">
        <ele>171.8</ele>
        <time>2022-05-26T17:29:57Z</time>
      </trkpt>
      <trkpt lat="41.9630040" lon="2.7008370">
        <ele>171.2</ele>
        <time>2022-05-26T17:29:58Z</time>
      </trkpt>
      <trkpt lat="41.9630760" lon="2.7008090">
        <ele>170.6</ele>
        <time>2022-05-26T17:29:59Z</time>
      </trkpt>
      <trkpt lat="41.9631450" lon="2.7007700">
        <ele>170.2</ele>
        <time>2022-05-26T17:30:00Z</time>
      </trkpt>
      <trkpt lat="41.9632170" lon="2.7007190">
        <ele>169.8</ele>
        <time>2022-05-26T17:30:01Z</time>
      </trkpt>
      <trkpt lat="41.9632920" lon="2.7006630">
        <ele>169.4</ele>
        <time>2022-05-26T17:30:02Z</time>
      </trkpt>
      <trkpt lat="41.9633760" lon="2.7006090">
        <ele>169.2</ele>
        <time>2022-05-26T17:30:03Z</time>
      </trkpt>
      <trkpt lat="41.9634700" lon="2.7005540">
        <ele>168.8</ele>
        <time>2022-05-26T17:30:04Z</time>
      </trkpt>
      <trkpt lat="41.9635540" lon="2.7005050">
        <ele>168.2</ele>
        <time>2022-05-26T17:30:05Z</time>
      </trkpt>
      <trkpt lat="41.9636240" lon="2.7004530">
        <ele>167.8</ele>
        <time>2022-05-26T17:30:06Z</time>
      </trkpt>
      <trkpt lat="41.9636830" lon="2.7003940">
        <ele>167.2</ele>
        <time>2022-05-26T17:30:07Z</time>
      </trkpt>
      <trkpt lat="41.9637210" lon="2.7003320">
        <ele>166.6</ele>
        <time>2022-05-26T17:30:08Z</time>
      </trkpt>
      <trkpt lat="41.9637500" lon="2.7002680">
        <ele>166.2</ele>
        <time>2022-05-26T17:30:09Z</time>
      </trkpt>
      <trkpt lat="41.9637820" lon="2.7002150">
        <ele>165.8</ele>
        <time>2022-05-26T17:30:10Z</time>
      </trkpt>
      <trkpt lat="41.9638220" lon="2.7001840">
        <ele>165.4</ele>
        <time>2022-05-26T17:30:11Z</time>
      </trkpt>
      <trkpt lat="41.9638640" lon="2.7001630">
        <ele>165.2</ele>
        <time>2022-05-26T17:30:12Z</time>
      </trkpt>
      <trkpt lat="41.9639010" lon="2.7001380">
        <ele>165.2</ele>
        <time>2022-05-26T17:30:13Z</time>
      </trkpt>
      <trkpt lat="41.9639330" lon="2.7001060">
        <ele>165.2</ele>
        <time>2022-05-26T17:30:14Z</time>
      </trkpt>
      <trkpt lat="41.9639700" lon="2.7000550">
        <ele>165.6</ele>
        <time>2022-05-26T17:30:15Z</time>
      </trkpt>
      <trkpt lat="41.9640070" lon="2.6999900">
        <ele>165.8</ele>
        <time>2022-05-26T17:30:16Z</time>
      </trkpt>
      <trkpt lat="41.9640400" lon="2.6999180">
        <ele>166.0</ele>
        <time>2022-05-26T17:30:17Z</time>
      </trkpt>
      <trkpt lat="41.9640710" lon="2.6998630">
        <ele>166.2</ele>
        <time>2022-05-26T17:30:18Z</time>
      </trkpt>
      <trkpt lat="41.9641070" lon="2.6998270">
        <ele>166.2</ele>
        <time>2022-05-26T17:30:19Z</time>
      </trkpt>
      <trkpt lat="41.9641480" lon="2.6998160">
        <ele>166.4</ele>
        <time>2022-05-26T17:30:20Z</time>
      </trkpt>
      <trkpt lat="41.9642000" lon="2.6998060">
        <ele>166.4</ele>
        <time>2022-05-26T17:30:21Z</time>
      </trkpt>
      <trkpt lat="41.9642540" lon="2.6998010">
        <ele>166.4</ele>
        <time>2022-05-26T17:30:22Z</time>
      </trkpt>
      <trkpt lat="41.9643020" lon="2.6998050">
        <ele>166.4</ele>
        <time>2022-05-26T17:30:23Z</time>
      </trkpt>
      <trkpt lat="41.9643560" lon="2.6998220">
        <ele>166.6</ele>
        <time>2022-05-26T17:30:24Z</time>
      </trkpt>
      <trkpt lat="41.9644260" lon="2.6998390">
        <ele>166.6</ele>
        <time>2022-05-26T17:30:25Z</time>
      </trkpt>
      <trkpt lat="41.9644940" lon="2.6998420">
        <ele>166.6</ele>
        <time>2022-05-26T17:30:26Z</time>
      </trkpt>
      <trkpt lat="41.9645530" lon="2.6998220">
        <ele>166.6</ele>
        <time>2022-05-26T17:30:27Z</time>
      </trkpt>
      <trkpt lat="41.9646180" lon="2.6997770">
        <ele>166.6</ele>
        <time>2022-05-26T17:30:28Z</time>
      </trkpt>
      <trkpt lat="41.9646880" lon="2.6997170">
        <ele>166.6</ele>
        <time>2022-05-26T17:30:29Z</time>
      </trkpt>
      <trkpt lat="41.9647560" lon="2.6996980">
        <ele>166.6</ele>
        <time>2022-05-26T17:30:30Z</time>
      </trkpt>
      <trkpt lat="41.9648140" lon="2.6996990">
        <ele>166.6</ele>
        <time>2022-05-26T17:30:31Z</time>
      </trkpt>
      <trkpt lat="41.9648520" lon="2.6997310">
        <ele>166.6</ele>
        <time>2022-05-26T17:30:32Z</time>
      </trkpt>
      <trkpt lat="41.9648520" lon="2.6997780">
        <ele>166.6</ele>
        <time>2022-05-26T17:30:33Z</time>
      </trkpt>
      <trkpt lat="41.9648410" lon="2.6998150">
        <ele>166.4</ele>
        <time>2022-05-26T17:30:34Z</time>
      </trkpt>
      <trkpt lat="41.9648420" lon="2.6998470">
        <ele>166.2</ele>
        <time>2022-05-26T17:30:35Z</time>
      </trkpt>
      <trkpt lat="41.9648470" lon="2.6998810">
        <ele>166.0</ele>
        <time>2022-05-26T17:30:36Z</time>
      </trkpt>
      <trkpt lat="41.9648580" lon="2.6999130">
        <ele>165.6</ele>
        <time>2022-05-26T17:30:37Z</time>
      </trkpt>
      <trkpt lat="41.9648760" lon="2.6999520">
        <ele>165.4</ele>
        <time>2022-05-26T17:30:38Z</time>
      </trkpt>
      <trkpt lat="41.9649000" lon="2.7000080">
        <ele>164.8</ele>
        <time>2022-05-26T17:30:39Z</time>
      </trkpt>
      <trkpt lat="41.9649280" lon="2.7000690">
        <ele>164.4</ele>
        <time>2022-05-26T17:30:40Z</time>
      </trkpt>
      <trkpt lat="41.9649610" lon="2.7001080">
        <ele>164.0</ele>
        <time>2022-05-26T17:30:41Z</time>
      </trkpt>
      <trkpt lat="41.9649980" lon="2.7001280">
        <ele>163.6</ele>
        <time>2022-05-26T17:30:42Z</time>
      </trkpt>
      <trkpt lat="41.9650470" lon="2.7001350">
        <ele>163.2</ele>
        <time>2022-05-26T17:30:43Z</time>
      </trkpt>
      <trkpt lat="41.9650870" lon="2.7001270">
        <ele>162.8</ele>
        <time>2022-05-26T17:30:44Z</time>
      </trkpt>
      <trkpt lat="41.9651220" lon="2.7001050">
        <ele>162.6</ele>
        <time>2022-05-26T17:30:45Z</time>
      </trkpt>
      <trkpt lat="41.9651580" lon="2.7000700">
        <ele>162.2</ele>
        <time>2022-05-26T17:30:46Z</time>
      </trkpt>
      <trkpt lat="41.9651920" lon="2.7000310">
        <ele>162.0</ele>
        <time>2022-05-26T17:30:47Z</time>
      </trkpt>
      <trkpt lat="41.9652310" lon="2.6999810">
        <ele>161.6</ele>
        <time>2022-05-26T17:30:48Z</time>
      </trkpt>
      <trkpt lat="41.9652660" lon="2.6999230">
        <ele>161.4</ele>
        <time>2022-05-26T17:30:49Z</time>
      </trkpt>
      <trkpt lat="41.9652980" lon="2.6998650">
        <ele>161.2</ele>
        <time>2022-05-26T17:30:50Z</time>
      </trkpt>
      <trkpt lat="41.9653350" lon="2.6998200">
        <ele>161.0</ele>
        <time>2022-05-26T17:30:51Z</time>
      </trkpt>
      <trkpt lat="41.9653810" lon="2.6998110">
        <ele>160.6</ele>
        <time>2022-05-26T17:30:52Z</time>
      </trkpt>
      <trkpt lat="41.9654350" lon="2.6998210">
        <ele>160.4</ele>
        <time>2022-05-26T17:30:53Z</time>
      </trkpt>
      <trkpt lat="41.9654850" lon="2.6998490">
        <ele>160.0</ele>
        <time>2022-05-26T17:30:54Z</time>
      </trkpt>
      <trkpt lat="41.9655260" lon="2.6998520">
        <ele>159.8</ele>
        <time>2022-05-26T17:30:55Z</time>
      </trkpt>
      <trkpt lat="41.9655760" lon="2.6998580">
        <ele>159.8</ele>
        <time>2022-05-26T17:30:56Z</time>
      </trkpt>
      <trkpt lat="41.9656430" lon="2.6998660">
        <ele>159.6</ele>
        <time>2022-05-26T17:30:57Z</time>
      </trkpt>
      <trkpt lat="41.9657180" lon="2.6998860">
        <ele>159.6</ele>
        <time>2022-05-26T17:30:58Z</time>
      </trkpt>
      <trkpt lat="41.9657770" lon="2.6999170">
        <ele>159.6</ele>
        <time>2022-05-26T17:30:59Z</time>
      </trkpt>
      <trkpt lat="41.9658180" lon="2.6999510">
        <ele>159.6</ele>
        <time>2022-05-26T17:31:00Z</time>
      </trkpt>
      <trkpt lat="41.9658600" lon="2.6999840">
        <ele>159.6</ele>
        <time>2022-05-26T17:31:01Z</time>
      </trkpt>
      <trkpt lat="41.9659270" lon="2.7000110">
        <ele>159.6</ele>
        <time>2022-05-26T17:31:02Z</time>
      </trkpt>
      <trkpt lat="41.9660240" lon="2.7000310">
        <ele>159.4</ele>
        <time>2022-05-26T17:31:03Z</time>
      </trkpt>
      <trkpt lat="41.9661200" lon="2.7000530">
        <ele>159.2</ele>
        <time>2022-05-26T17:31:04Z</time>
      </trkpt>
      <trkpt lat="41.9662050" lon="2.7000810">
        <ele>159.2</ele>
        <time>2022-05-26T17:31:05Z</time>
      </trkpt>
      <trkpt lat="41.9662820" lon="2.7001110">
        <ele>158.8</ele>
        <time>2022-05-26T17:31:06Z</time>
      </trkpt>
      <trkpt lat="41.9663350" lon="2.7001340">
        <ele>158.6</ele>
        <time>2022-05-26T17:31:07Z</time>
      </trkpt>
      <trkpt lat="41.9663780" lon="2.7001510">
        <ele>158.4</ele>
        <time>2022-05-26T17:31:08Z</time>
      </trkpt>
      <trkpt lat="41.9664290" lon="2.7001450">
        <ele>158.4</ele>
        <time>2022-05-26T17:31:09Z</time>
      </trkpt>
      <trkpt lat="41.9664730" lon="2.7001250">
        <ele>158.6</ele>
        <time>2022-05-26T17:31:10Z</time>
      </trkpt>
      <trkpt lat="41.9665200" lon="2.7000890">
        <ele>158.4</ele>
        <time>2022-05-26T17:31:11Z</time>
      </trkpt>
      <trkpt lat="41.9665830" lon="2.7000470">
        <ele>158.2</ele>
        <time>2022-05-26T17:31:12Z</time>
      </trkpt>
      <trkpt lat="41.9666600" lon="2.7000160">
        <ele>158.0</ele>
        <time>2022-05-26T17:31:13Z</time>
      </trkpt>
      <trkpt lat="41.9667320" lon="2.7000050">
        <ele>157.8</ele>
        <time>2022-05-26T17:31:14Z</time>
      </trkpt>
      <trkpt lat="41.9667930" lon="2.7000130">
        <ele>157.8</ele>
        <time>2022-05-26T17:31:15Z</time>
      </trkpt>
      <trkpt lat="41.9668460" lon="2.7000220">
        <ele>157.8</ele>
        <time>2022-05-26T17:31:16Z</time>
      </trkpt>
      <trkpt lat="41.9668980" lon="2.7000320">
        <ele>157.6</ele>
        <time>2022-05-26T17:31:17Z</time>
      </trkpt>
      <trkpt lat="41.9669750" lon="2.7000600">
        <ele>157.2</ele>
        <time>2022-05-26T17:31:18Z</time>
      </trkpt>
      <trkpt lat="41.9670770" lon="2.7000920">
        <ele>157.2</ele>
        <time>2022-05-26T17:31:19Z</time>
      </trkpt>
      <trkpt lat="41.9671770" lon="2.7001160">
        <ele>157.2</ele>
        <time>2022-05-26T17:31:20Z</time>
      </trkpt>
      <trkpt lat="41.9672660" lon="2.7001320">
        <ele>157.0</ele>
        <time>2022-05-26T17:31:21Z</time>
      </trkpt>
      <trkpt lat="41.9673340" lon="2.7001600">
        <ele>157.0</ele>
        <time>2022-05-26T17:31:22Z</time>
      </trkpt>
      <trkpt lat="41.9673720" lon="2.7002050">
        <ele>156.8</ele>
        <time>2022-05-26T17:31:23Z</time>
      </trkpt>
      <trkpt lat="41.9673900" lon="2.7002640">
        <ele>156.4</ele>
        <time>2022-05-26T17:31:24Z</time>
      </trkpt>
      <trkpt lat="41.9674080" lon="2.7003160">
        <ele>156.4</ele>
        <time>2022-05-26T17:31:25Z</time>
      </trkpt>
      <trkpt lat="41.9674290" lon="2.7003410">
        <ele>156.2</ele>
        <time>2022-05-26T17:31:26Z</time>
      </trkpt>
      <trkpt lat="41.9674580" lon="2.7003390">
        <ele>156.0</ele>
        <time>2022-05-26T17:31:27Z</time>
      </trkpt>
      <trkpt lat="41.9675010" lon="2.7003170">
        <ele>156.0</ele>
        <time>2022-05-26T17:31:28Z</time>
      </trkpt>
      <trkpt lat="41.9675510" lon="2.7002650">
        <ele>155.8</ele>
        <time>2022-05-26T17:31:29Z</time>
      </trkpt>
      <trkpt lat="41.9675940" lon="2.7002120">
        <ele>155.8</ele>
        <time>2022-05-26T17:31:30Z</time>
      </trkpt>
      <trkpt lat="41.9676240" lon="2.7001670">
        <ele>155.8</ele>
        <time>2022-05-26T17:31:31Z</time>
      </trkpt>
      <trkpt lat="41.9676460" lon="2.7001050">
        <ele>155.6</ele>
        <time>2022-05-26T17:31:32Z</time>
      </trkpt>
      <trkpt lat="41.9676630" lon="2.7000340">
        <ele>155.6</ele>
        <time>2022-05-26T17:31:33Z</time>
      </trkpt>
      <trkpt lat="41.9676780" lon="2.6999620">
        <ele>155.2</ele>
        <time>2022-05-26T17:31:34Z</time>
      </trkpt>
      <trkpt lat="41.9676910" lon="2.6999080">
        <ele>155.2</ele>
        <time>2022-05-26T17:31:35Z</time>
      </trkpt>
      <trkpt lat="41.9676960" lon="2.6998610">
        <ele>155.2</ele>
        <time>2022-05-26T17:31:36Z</time>
      </trkpt>
      <trkpt lat="41.9676980" lon="2.6998100">
        <ele>155.2</ele>
        <time>2022-05-26T17:31:37Z</time>
      </trkpt>
      <trkpt lat="41.9677030" lon="2.6997520">
        <ele>155.2</ele>
        <time>2022-05-26T17:31:38Z</time>
      </trkpt>
      <trkpt lat="41.9677150" lon="2.6996910">
        <ele>155.0</ele>
        <time>2022-05-26T17:31:39Z</time>
      </trkpt>
      <trkpt lat="41.9677330" lon="2.6996440">
        <ele>154.8</ele>
        <time>2022-05-26T17:31:40Z</time>
      </trkpt>
      <trkpt lat="41.9677560" lon="2.6996070">
        <ele>154.8</ele>
        <time>2022-05-26T17:31:41Z</time>
      </trkpt>
      <trkpt lat="41.9677850" lon="2.6995650">
        <ele>154.6</ele>
        <time>2022-05-26T17:31:42Z</time>
      </trkpt>
      <trkpt lat="41.9678090" lon="2.6995270">
        <ele>155.0</ele>
        <time>2022-05-26T17:31:43Z</time>
      </trkpt>
      <trkpt lat="41.9678320" lon="2.6994960">
        <ele>154.8</ele>
        <time>2022-05-26T17:31:44Z</time>
      </trkpt>
      <trkpt lat="41.9678600" lon="2.6994620">
        <ele>154.6</ele>
        <time>2022-05-26T17:31:45Z</time>
      </trkpt>
      <trkpt lat="41.9678870" lon="2.6994190">
        <ele>154.6</ele>
        <time>2022-05-26T17:31:46Z</time>
      </trkpt>
      <trkpt lat="41.9679110" lon="2.6993850">
        <ele>154.6</ele>
        <time>2022-05-26T17:31:47Z</time>
      </trkpt>
      <trkpt lat="41.9679280" lon="2.6993690">
        <ele>154.6</ele>
        <time>2022-05-26T17:31:48Z</time>
      </trkpt>
      <trkpt lat="41.9679450" lon="2.6993620">
        <ele>154.6</ele>
        <time>2022-05-26T17:31:49Z</time>
      </trkpt>
      <trkpt lat="41.9679710" lon="2.6993540">
        <ele>154.4</ele>
        <time>2022-05-26T17:31:50Z</time>
      </trkpt>
      <trkpt lat="41.9680080" lon="2.6993390">
        <ele>154.4</ele>
        <time>2022-05-26T17:31:51Z</time>
      </trkpt>
      <trkpt lat="41.9680460" lon="2.6993020">
        <ele>154.4</ele>
        <time>2022-05-26T17:31:52Z</time>
      </trkpt>
      <trkpt lat="41.9680790" lon="2.6992520">
        <ele>154.2</ele>
        <time>2022-05-26T17:31:53Z</time>
      </trkpt>
      <trkpt lat="41.9680990" lon="2.6991950">
        <ele>154.2</ele>
        <time>2022-05-26T17:31:54Z</time>
      </trkpt>
      <trkpt lat="41.9681130" lon="2.6991420">
        <ele>154.0</ele>
        <time>2022-05-26T17:31:55Z</time>
      </trkpt>
      <trkpt lat="41.9681360" lon="2.6990980">
        <ele>153.8</ele>
        <time>2022-05-26T17:31:56Z</time>
      </trkpt>
      <trkpt lat="41.9681690" lon="2.6990720">
        <ele>153.6</ele>
        <time>2022-05-26T17:31:57Z</time>
      </trkpt>
      <trkpt lat="41.9682020" lon="2.6990470">
        <ele>153.4</ele>
        <time>2022-05-26T17:31:58Z</time>
      </trkpt>
      <trkpt lat="41.9682200" lon="2.6990140">
        <ele>153.0</ele>
        <time>2022-05-26T17:31:59Z</time>
      </trkpt>
      <trkpt lat="41.9682290" lon="2.6989790">
        <ele>152.8</ele>
        <time>2022-05-26T17:32:00Z</time>
      </trkpt>
      <trkpt lat="41.9682440" lon="2.6989480">
        <ele>152.6</ele>
        <time>2022-05-26T17:32:01Z</time>
      </trkpt>
      <trkpt lat="41.9682810" lon="2.6989160">
        <ele>152.6</ele>
        <time>2022-05-26T17:32:02Z</time>
      </trkpt>
      <trkpt lat="41.9683440" lon="2.6988990">
        <ele>152.4</ele>
        <time>2022-05-26T17:32:03Z</time>
      </trkpt>
      <trkpt lat="41.9684200" lon="2.6988990">
        <ele>152.4</ele>
        <time>2022-05-26T17:32:04Z</time>
      </trkpt>
      <trkpt lat="41.9685000" lon="2.6989360">
        <ele>152.2</ele>
        <time>2022-05-26T17:32:05Z</time>
      </trkpt>
      <trkpt lat="41.9685700" lon="2.6989830">
        <ele>152.0</ele>
        <time>2022-05-26T17:32:06Z</time>
      </trkpt>
      <trkpt lat="41.9686220" lon="2.6990340">
        <ele>152.0</ele>
        <time>2022-05-26T17:32:07Z</time>
      </trkpt>
      <trkpt lat="41.9686720" lon="2.6990940">
        <ele>151.8</ele>
        <time>2022-05-26T17:32:08Z</time>
      </trkpt>
      <trkpt lat="41.9687270" lon="2.6991530">
        <ele>151.6</ele>
        <time>2022-05-26T17:32:09Z</time>
      </trkpt>
      <trkpt lat="41.9687790" lon="2.6991840">
        <ele>151.4</ele>
        <time>2022-05-26T17:32:10Z</time>
      </trkpt>
      <trkpt lat="41.9688400" lon="2.6991930">
        <ele>151.4</ele>
        <time>2022-05-26T17:32:11Z</time>
      </trkpt>
      <trkpt lat="41.9689160" lon="2.6991980">
        <ele>151.2</ele>
        <time>2022-05-26T17:32:12Z</time>
      </trkpt>
      <trkpt lat="41.9689900" lon="2.6992020">
        <ele>151.2</ele>
        <time>2022-05-26T17:32:13Z</time>
      </trkpt>
      <trkpt lat="41.9690430" lon="2.6992060">
        <ele>151.2</ele>
        <time>2022-05-26T17:32:14Z</time>
      </trkpt>
      <trkpt lat="41.9690960" lon="2.6992150">
        <ele>151.2</ele>
        <time>2022-05-26T17:32:15Z</time>
      </trkpt>
      <trkpt lat="41.9691630" lon="2.6992300">
        <ele>151.0</ele>
        <time>2022-05-26T17:32:16Z</time>
      </trkpt>
      <trkpt lat="41.9692320" lon="2.6992430">
        <ele>151.0</ele>
        <time>2022-05-26T17:32:17Z</time>
      </trkpt>
      <trkpt lat="41.9692880" lon="2.6992570">
        <ele>150.8</ele>
        <time>2022-05-26T17:32:18Z</time>
      </trkpt>
      <trkpt lat="41.9693350" lon="2.6992760">
        <ele>150.6</ele>
        <time>2022-05-26T17:32:19Z</time>
      </trkpt>
      <trkpt lat="41.9693780" lon="2.6992910">
        <ele>150.4</ele>
        <time>2022-05-26T17:32:20Z</time>
      </trkpt>
      <trkpt lat="41.9694130" lon="2.6993000">
        <ele>150.2</ele>
        <time>2022-05-26T17:32:21Z</time>
      </trkpt>
      <trkpt lat="41.9694360" lon="2.6993060">
        <ele>150.0</ele>
        <time>2022-05-26T17:32:22Z</time>
      </trkpt>
      <trkpt lat="41.9694610" lon="2.6993160">
        <ele>149.8</ele>
        <time>2022-05-26T17:32:23Z</time>
      </trkpt>
      <trkpt lat="41.9694870" lon="2.6993310">
        <ele>149.6</ele>
        <time>2022-05-26T17:32:24Z</time>
      </trkpt>
      <trkpt lat="41.9695150" lon="2.6993340">
        <ele>149.6</ele>
        <time>2022-05-26T17:32:25Z</time>
      </trkpt>
      <trkpt lat="41.9695430" lon="2.6993290">
        <ele>149.6</ele>
        <time>2022-05-26T17:32:26Z</time>
      </trkpt>
      <trkpt lat="41.9695700" lon="2.6993200">
        <ele>149.6</ele>
        <time>2022-05-26T17:32:27Z</time>
      </trkpt>
      <trkpt lat="41.9695800" lon="2.6993160">
        <ele>149.4</ele>
        <time>2022-05-26T17:32:28Z</time>
      </trkpt>
      <trkpt lat="41.9695870" lon="2.6993210">
        <ele>149.4</ele>
        <time>2022-05-26T17:32:29Z</time>
      </trkpt>
      <trkpt lat="41.9696060" lon="2.6993340">
        <ele>149.4</ele>
        <time>2022-05-26T17:32:30Z</time>
      </trkpt>
      <trkpt lat="41.9696400" lon="2.6993540">
        <ele>149.2</ele>
        <time>2022-05-26T17:32:31Z</time>
      </trkpt>
      <trkpt lat="41.9696840" lon="2.6993670">
        <ele>149.2</ele>
        <time>2022-05-26T17:32:32Z</time>
      </trkpt>
      <trkpt lat="41.9697360" lon="2.6993820">
        <ele>149.2</ele>
        <time>2022-05-26T17:32:33Z</time>
      </trkpt>
      <trkpt lat="41.9697940" lon="2.6993910">
        <ele>149.0</ele>
        <time>2022-05-26T17:32:34Z</time>
      </trkpt>
      <trkpt lat="41.9698540" lon="2.6994020">
        <ele>149.0</ele>
        <time>2022-05-26T17:32:35Z</time>
      </trkpt>
      <trkpt lat="41.9699080" lon="2.6994130">
        <ele>148.8</ele>
        <time>2022-05-26T17:32:36Z</time>
      </trkpt>
      <trkpt lat="41.9699490" lon="2.6994180">
        <ele>148.8</ele>
        <time>2022-05-26T17:32:37Z</time>
      </trkpt>
      <trkpt lat="41.9699910" lon="2.6994200">
        <ele>148.8</ele>
        <time>2022-05-26T17:32:38Z</time>
      </trkpt>
      <trkpt lat="41.9700430" lon="2.6994200">
        <ele>148.8</ele>
        <time>2022-05-26T17:32:39Z</time>
      </trkpt>
      <trkpt lat="41.9701030" lon="2.6994240">
        <ele>148.8</ele>
        <time>2022-05-26T17:32:40Z</time>
      </trkpt>
      <trkpt lat="41.9701570" lon="2.6994270">
        <ele>148.6</ele>
        <time>2022-05-26T17:32:41Z</time>
      </trkpt>
      <trkpt lat="41.9701970" lon="2.6994300">
        <ele>148.8</ele>
        <time>2022-05-26T17:32:42Z</time>
      </trkpt>
      <trkpt lat="41.9702330" lon="2.6994330">
        <ele>148.8</ele>
        <time>2022-05-26T17:32:43Z</time>
      </trkpt>
      <trkpt lat="41.9702690" lon="2.6994330">
        <ele>148.6</ele>
        <time>2022-05-26T17:32:44Z</time>
      </trkpt>
      <trkpt lat="41.9703090" lon="2.6994250">
        <ele>148.6</ele>
        <time>2022-05-26T17:32:45Z</time>
      </trkpt>
      <trkpt lat="41.9703530" lon="2.6993990">
        <ele>148.6</ele>
        <time>2022-05-26T17:32:46Z</time>
      </trkpt>
      <trkpt lat="41.9704020" lon="2.6993520">
        <ele>148.6</ele>
        <time>2022-05-26T17:32:47Z</time>
      </trkpt>
      <trkpt lat="41.9704560" lon="2.6992850">
        <ele>148.4</ele>
        <time>2022-05-26T17:32:48Z</time>
      </trkpt>
      <trkpt lat="41.9705150" lon="2.6992170">
        <ele>148.2</ele>
        <time>2022-05-26T17:32:49Z</time>
      </trkpt>
      <trkpt lat="41.9705760" lon="2.6991470">
        <ele>148.2</ele>
        <time>2022-05-26T17:32:50Z</time>
      </trkpt>
      <trkpt lat="41.9706400" lon="2.6991020">
        <ele>148.2</ele>
        <time>2022-05-26T17:32:51Z</time>
      </trkpt>
      <trkpt lat="41.9707060" lon="2.6990730">
        <ele>148.0</ele>
        <time>2022-05-26T17:32:52Z</time>
      </trkpt>
      <trkpt lat="41.9707670" lon="2.6990580">
        <ele>148.0</ele>
        <time>2022-05-26T17:32:53Z</time>
      </trkpt>
      <trkpt lat="41.9708280" lon="2.6990360">
        <ele>148.2</ele>
        <time>2022-05-26T17:32:54Z</time>
      </trkpt>
      <trkpt lat="41.9708960" lon="2.6989920">
        <ele>149.2</ele>
        <time>2022-05-26T17:32:55Z</time>
      </trkpt>
      <trkpt lat="41.9709590" lon="2.6989230">
        <ele>149.6</ele>
        <time>2022-05-26T17:32:56Z</time>
      </trkpt>
      <trkpt lat="41.9710270" lon="2.6988470">
        <ele>149.8</ele>
        <time>2022-05-26T17:32:57Z</time>
      </trkpt>
      <trkpt lat="41.9711060" lon="2.6987760">
        <ele>150.0</ele>
        <time>2022-05-26T17:32:58Z</time>
      </trkpt>
      <trkpt lat="41.9711910" lon="2.6987090">
        <ele>150.0</ele>
        <time>2022-05-26T17:32:59Z</time>
      </trkpt>
      <trkpt lat="41.9712760" lon="2.6986530">
        <ele>150.0</ele>
        <time>2022-05-26T17:33:00Z</time>
      </trkpt>
      <trkpt lat="41.9713640" lon="2.6986110">
        <ele>150.2</ele>
        <time>2022-05-26T17:33:01Z</time>
      </trkpt>
      <trkpt lat="41.9714560" lon="2.6985820">
        <ele>150.2</ele>
        <time>2022-05-26T17:33:02Z</time>
      </trkpt>
      <trkpt lat="41.9715360" lon="2.6985540">
        <ele>150.2</ele>
        <time>2022-05-26T17:33:03Z</time>
      </trkpt>
      <trkpt lat="41.9715950" lon="2.6985200">
        <ele>149.8</ele>
        <time>2022-05-26T17:33:04Z</time>
      </trkpt>
      <trkpt lat="41.9716330" lon="2.6984840">
        <ele>149.6</ele>
        <time>2022-05-26T17:33:05Z</time>
      </trkpt>
      <trkpt lat="41.9716530" lon="2.6984610">
        <ele>149.4</ele>
        <time>2022-05-26T17:33:06Z</time>
      </trkpt>
      <trkpt lat="41.9716580" lon="2.6984500">
        <ele>149.2</ele>
        <time>2022-05-26T17:33:07Z</time>
      </trkpt>
      <trkpt lat="41.9716640" lon="2.6984470">
        <ele>149.0</ele>
        <time>2022-05-26T17:33:08Z</time>
      </trkpt>
      <trkpt lat="41.9716860" lon="2.6984500">
        <ele>148.8</ele>
        <time>2022-05-26T17:33:09Z</time>
      </trkpt>
      <trkpt lat="41.9716970" lon="2.6984520">
        <ele>148.6</ele>
        <time>2022-05-26T17:33:10Z</time>
      </trkpt>
      <trkpt lat="41.9716950" lon="2.6984520">
        <ele>148.6</ele>
        <time>2022-05-26T17:33:11Z</time>
      </trkpt>
      <trkpt lat="41.9716950" lon="2.6984520">
        <ele>148.6</ele>
        <time>2022-05-26T17:33:12Z</time>
      </trkpt>
      <trkpt lat="41.9716950" lon="2.6984520">
        <ele>148.6</ele>
        <time>2022-05-26T17:33:13Z</time>
      </trkpt>
      <trkpt lat="41.9716940" lon="2.6984520">
        <ele>148.6</ele>
        <time>2022-05-26T17:33:14Z</time>
      </trkpt>
      <trkpt lat="41.9716920" lon="2.6984510">
        <ele>148.6</ele>
        <time>2022-05-26T17:33:15Z</time>
      </trkpt>
      <trkpt lat="41.9716920" lon="2.6984500">
        <ele>148.6</ele>
        <time>2022-05-26T17:33:16Z</time>
      </trkpt>
      <trkpt lat="41.9716920" lon="2.6984500">
        <ele>148.6</ele>
        <time>2022-05-26T17:33:17Z</time>
      </trkpt>
      <trkpt lat="41.9716920" lon="2.6984500">
        <ele>148.6</ele>
        <time>2022-05-26T17:33:18Z</time>
      </trkpt>
      <trkpt lat="41.9716810" lon="2.6983920">
        <ele>148.8</ele>
        <time>2022-05-26T17:36:44Z</time>
      </trkpt>
      <trkpt lat="41.9716840" lon="2.6983520">
        <ele>149.0</ele>
        <time>2022-05-26T17:36:45Z</time>
      </trkpt>
      <trkpt lat="41.9716830" lon="2.6983050">
        <ele>149.4</ele>
        <time>2022-05-26T17:36:46Z</time>
      </trkpt>
      <trkpt lat="41.9716790" lon="2.6982520">
        <ele>149.6</ele>
        <time>2022-05-26T17:36:47Z</time>
      </trkpt>
      <trkpt lat="41.9716630" lon="2.6981990">
        <ele>149.8</ele>
        <time>2022-05-26T17:36:48Z</time>
      </trkpt>
      <trkpt lat="41.9716310" lon="2.6981450">
        <ele>150.6</ele>
        <time>2022-05-26T17:36:49Z</time>
      </trkpt>
      <trkpt lat="41.9715920" lon="2.6980870">
        <ele>151.2</ele>
        <time>2022-05-26T17:36:50Z</time>
      </trkpt>
      <trkpt lat="41.9715570" lon="2.6980130">
        <ele>151.8</ele>
        <time>2022-05-26T17:36:51Z</time>
      </trkpt>
      <trkpt lat="41.9715190" lon="2.6979200">
        <ele>152.4</ele>
        <time>2022-05-26T17:36:52Z</time>
      </trkpt>
      <trkpt lat="41.9714800" lon="2.6978110">
        <ele>153.2</ele>
        <time>2022-05-26T17:36:53Z</time>
      </trkpt>
      <trkpt lat="41.9714450" lon="2.6977070">
        <ele>153.8</ele>
        <time>2022-05-26T17:36:54Z</time>
      </trkpt>
      <trkpt lat="41.9714080" lon="2.6976220">
        <ele>154.6</ele>
        <time>2022-05-26T17:36:55Z</time>
      </trkpt>
      <trkpt lat="41.9713560" lon="2.6975340">
        <ele>155.4</ele>
        <time>2022-05-26T17:36:56Z</time>
      </trkpt>
      <trkpt lat="41.9712910" lon="2.6974430">
        <ele>156.2</ele>
        <time>2022-05-26T17:36:57Z</time>
      </trkpt>
      <trkpt lat="41.9712210" lon="2.6973760">
        <ele>157.0</ele>
        <time>2022-05-26T17:36:58Z</time>
      </trkpt>
      <trkpt lat="41.9711490" lon="2.6973320">
        <ele>157.8</ele>
        <time>2022-05-26T17:36:59Z</time>
      </trkpt>
      <trkpt lat="41.9710790" lon="2.6973030">
        <ele>158.6</ele>
        <time>2022-05-26T17:37:00Z</time>
      </trkpt>
      <trkpt lat="41.9710190" lon="2.6972840">
        <ele>159.4</ele>
        <time>2022-05-26T17:37:01Z</time>
      </trkpt>
      <trkpt lat="41.9709570" lon="2.6972700">
        <ele>160.2</ele>
        <time>2022-05-26T17:37:02Z</time>
      </trkpt>
      <trkpt lat="41.9708920" lon="2.6972580">
        <ele>160.8</ele>
        <time>2022-05-26T17:37:03Z</time>
      </trkpt>
      <trkpt lat="41.9708430" lon="2.6972420">
        <ele>161.2</ele>
        <time>2022-05-26T17:37:04Z</time>
      </trkpt>
      <trkpt lat="41.9708160" lon="2.6972180">
        <ele>161.8</ele>
        <time>2022-05-26T17:37:05Z</time>
      </trkpt>
      <trkpt lat="41.9707960" lon="2.6971850">
        <ele>162.2</ele>
        <time>2022-05-26T17:37:06Z</time>
      </trkpt>
      <trkpt lat="41.9707760" lon="2.6971410">
        <ele>162.4</ele>
        <time>2022-05-26T17:37:07Z</time>
      </trkpt>
      <trkpt lat="41.9707570" lon="2.6970930">
        <ele>162.4</ele>
        <time>2022-05-26T17:37:08Z</time>
      </trkpt>
      <trkpt lat="41.9707530" lon="2.6970450">
        <ele>162.6</ele>
        <time>2022-05-26T17:37:09Z</time>
      </trkpt>
      <trkpt lat="41.9707640" lon="2.6969970">
        <ele>162.8</ele>
        <time>2022-05-26T17:37:10Z</time>
      </trkpt>
      <trkpt lat="41.9707980" lon="2.6969540">
        <ele>163.0</ele>
        <time>2022-05-26T17:37:11Z</time>
      </trkpt>
      <trkpt lat="41.9708430" lon="2.6969110">
        <ele>163.0</ele>
        <time>2022-05-26T17:37:12Z</time>
      </trkpt>
      <trkpt lat="41.9708840" lon="2.6968630">
        <ele>162.8</ele>
        <time>2022-05-26T17:37:13Z</time>
      </trkpt>
      <trkpt lat="41.9709080" lon="2.6967990">
        <ele>162.6</ele>
        <time>2022-05-26T17:37:14Z</time>
      </trkpt>
      <trkpt lat="41.9709320" lon="2.6967190">
        <ele>162.6</ele>
        <time>2022-05-26T17:37:15Z</time>
      </trkpt>
      <trkpt lat="41.9709400" lon="2.6966340">
        <ele>162.2</ele>
        <time>2022-05-26T17:37:16Z</time>
      </trkpt>
      <trkpt lat="41.9709440" lon="2.6965570">
        <ele>161.8</ele>
        <time>2022-05-26T17:37:17Z</time>
      </trkpt>
      <trkpt lat="41.9709490" lon="2.6964870">
        <ele>161.4</ele>
        <time>2022-05-26T17:37:18Z</time>
      </trkpt>
      <trkpt lat="41.9709560" lon="2.6964290">
        <ele>161.0</ele>
        <time>2022-05-26T17:37:19Z</time>
      </trkpt>
      <trkpt lat="41.9709680" lon="2.6963880">
        <ele>160.4</ele>
        <time>2022-05-26T17:37:20Z</time>
      </trkpt>
      <trkpt lat="41.9709860" lon="2.6963590">
        <ele>160.2</ele>
        <time>2022-05-26T17:37:21Z</time>
      </trkpt>
      <trkpt lat="41.9710060" lon="2.6963250">
        <ele>159.8</ele>
        <time>2022-05-26T17:37:22Z</time>
      </trkpt>
      <trkpt lat="41.9710230" lon="2.6962810">
        <ele>159.6</ele>
        <time>2022-05-26T17:37:23Z</time>
      </trkpt>
      <trkpt lat="41.9710330" lon="2.6962380">
        <ele>159.4</ele>
        <time>2022-05-26T17:37:24Z</time>
      </trkpt>
      <trkpt lat="41.9710530" lon="2.6961970">
        <ele>159.2</ele>
        <time>2022-05-26T17:37:25Z</time>
      </trkpt>
      <trkpt lat="41.9710830" lon="2.6961550">
        <ele>159.2</ele>
        <time>2022-05-26T17:37:26Z</time>
      </trkpt>
      <trkpt lat="41.9711170" lon="2.6961100">
        <ele>159.0</ele>
        <time>2022-05-26T17:37:27Z</time>
      </trkpt>
      <trkpt lat="41.9711500" lon="2.6960660">
        <ele>158.8</ele>
        <time>2022-05-26T17:37:28Z</time>
      </trkpt>
      <trkpt lat="41.9711780" lon="2.6960230">
        <ele>158.6</ele>
        <time>2022-05-26T17:37:29Z</time>
      </trkpt>
      <trkpt lat="41.9712080" lon="2.6959760">
        <ele>158.6</ele>
        <time>2022-05-26T17:37:30Z</time>
      </trkpt>
      <trkpt lat="41.9712430" lon="2.6959320">
        <ele>158.6</ele>
        <time>2022-05-26T17:37:31Z</time>
      </trkpt>
      <trkpt lat="41.9712810" lon="2.6958890">
        <ele>158.4</ele>
        <time>2022-05-26T17:37:32Z</time>
      </trkpt>
      <trkpt lat="41.9713170" lon="2.6958380">
        <ele>158.4</ele>
        <time>2022-05-26T17:37:33Z</time>
      </trkpt>
      <trkpt lat="41.9713440" lon="2.6957700">
        <ele>158.2</ele>
        <time>2022-05-26T17:37:34Z</time>
      </trkpt>
      <trkpt lat="41.9713610" lon="2.6956860">
        <ele>157.8</ele>
        <time>2022-05-26T17:37:35Z</time>
      </trkpt>
      <trkpt lat="41.9713700" lon="2.6955940">
        <ele>157.6</ele>
        <time>2022-05-26T17:37:36Z</time>
      </trkpt>
      <trkpt lat="41.9713740" lon="2.6955020">
        <ele>157.2</ele>
        <time>2022-05-26T17:37:37Z</time>
      </trkpt>
      <trkpt lat="41.9713740" lon="2.6954220">
        <ele>156.8</ele>
        <time>2022-05-26T17:37:38Z</time>
      </trkpt>
      <trkpt lat="41.9713770" lon="2.6953600">
        <ele>156.6</ele>
        <time>2022-05-26T17:37:39Z</time>
      </trkpt>
      <trkpt lat="41.9713870" lon="2.6953190">
        <ele>156.2</ele>
        <time>2022-05-26T17:37:40Z</time>
      </trkpt>
      <trkpt lat="41.9714060" lon="2.6952840">
        <ele>156.0</ele>
        <time>2022-05-26T17:37:41Z</time>
      </trkpt>
      <trkpt lat="41.9714440" lon="2.6952450">
        <ele>155.8</ele>
        <time>2022-05-26T17:37:42Z</time>
      </trkpt>
      <trkpt lat="41.9714900" lon="2.6951980">
        <ele>155.4</ele>
        <time>2022-05-26T17:37:43Z</time>
      </trkpt>
      <trkpt lat="41.9715290" lon="2.6951460">
        <ele>155.0</ele>
        <time>2022-05-26T17:37:44Z</time>
      </trkpt>
      <trkpt lat="41.9715590" lon="2.6950860">
        <ele>154.8</ele>
        <time>2022-05-26T17:37:45Z</time>
      </trkpt>
      <trkpt lat="41.9715830" lon="2.6950170">
        <ele>154.6</ele>
        <time>2022-05-26T17:37:46Z</time>
      </trkpt>
      <trkpt lat="41.9715940" lon="2.6949390">
        <ele>154.2</ele>
        <time>2022-05-26T17:37:47Z</time>
      </trkpt>
      <trkpt lat="41.9715960" lon="2.6948600">
        <ele>153.8</ele>
        <time>2022-05-26T17:37:48Z</time>
      </trkpt>
      <trkpt lat="41.9716010" lon="2.6947920">
        <ele>153.2</ele>
        <time>2022-05-26T17:37:49Z</time>
      </trkpt>
      <trkpt lat="41.9716220" lon="2.6947370">
        <ele>152.6</ele>
        <time>2022-05-26T17:37:50Z</time>
      </trkpt>
      <trkpt lat="41.9716630" lon="2.6946770">
        <ele>152.0</ele>
        <time>2022-05-26T17:37:51Z</time>
      </trkpt>
      <trkpt lat="41.9717170" lon="2.6946070">
        <ele>151.6</ele>
        <time>2022-05-26T17:37:52Z</time>
      </trkpt>
      <trkpt lat="41.9717740" lon="2.6945440">
        <ele>151.4</ele>
        <time>2022-05-26T17:37:53Z</time>
      </trkpt>
      <trkpt lat="41.9718190" lon="2.6945050">
        <ele>151.0</ele>
        <time>2022-05-26T17:37:54Z</time>
      </trkpt>
      <trkpt lat="41.9718420" lon="2.6944750">
        <ele>150.8</ele>
        <time>2022-05-26T17:37:55Z</time>
      </trkpt>
      <trkpt lat="41.9718520" lon="2.6944470">
        <ele>150.4</ele>
        <time>2022-05-26T17:37:56Z</time>
      </trkpt>
      <trkpt lat="41.9718590" lon="2.6944100">
        <ele>150.2</ele>
        <time>2022-05-26T17:37:57Z</time>
      </trkpt>
      <trkpt lat="41.9718670" lon="2.6943610">
        <ele>150.0</ele>
        <time>2022-05-26T17:37:58Z</time>
      </trkpt>
      <trkpt lat="41.9718800" lon="2.6943060">
        <ele>149.6</ele>
        <time>2022-05-26T17:37:59Z</time>
      </trkpt>
      <trkpt lat="41.9718960" lon="2.6942430">
        <ele>149.2</ele>
        <time>2022-05-26T17:38:00Z</time>
      </trkpt>
      <trkpt lat="41.9719080" lon="2.6941780">
        <ele>148.8</ele>
        <time>2022-05-26T17:38:01Z</time>
      </trkpt>
      <trkpt lat="41.9719170" lon="2.6941090">
        <ele>148.4</ele>
        <time>2022-05-26T17:38:02Z</time>
      </trkpt>
      <trkpt lat="41.9719260" lon="2.6940340">
        <ele>148.0</ele>
        <time>2022-05-26T17:38:03Z</time>
      </trkpt>
      <trkpt lat="41.9719310" lon="2.6939710">
        <ele>147.6</ele>
        <time>2022-05-26T17:38:04Z</time>
      </trkpt>
      <trkpt lat="41.9719400" lon="2.6939250">
        <ele>147.4</ele>
        <time>2022-05-26T17:38:05Z</time>
      </trkpt>
      <trkpt lat="41.9719570" lon="2.6938870">
        <ele>147.2</ele>
        <time>2022-05-26T17:38:06Z</time>
      </trkpt>
      <trkpt lat="41.9719780" lon="2.6938500">
        <ele>146.8</ele>
        <time>2022-05-26T17:38:07Z</time>
      </trkpt>
      <trkpt lat="41.9719980" lon="2.6938120">
        <ele>146.8</ele>
        <time>2022-05-26T17:38:08Z</time>
      </trkpt>
      <trkpt lat="41.9720230" lon="2.6937730">
        <ele>146.6</ele>
        <time>2022-05-26T17:38:09Z</time>
      </trkpt>
      <trkpt lat="41.9720520" lon="2.6937270">
        <ele>146.6</ele>
        <time>2022-05-26T17:38:10Z</time>
      </trkpt>
      <trkpt lat="41.9720770" lon="2.6936750">
        <ele>146.4</ele>
        <time>2022-05-26T17:38:11Z</time>
      </trkpt>
      <trkpt lat="41.9720890" lon="2.6936220">
        <ele>146.4</ele>
        <time>2022-05-26T17:38:12Z</time>
      </trkpt>
      <trkpt lat="41.9720910" lon="2.6935710">
        <ele>146.0</ele>
        <time>2022-05-26T17:38:13Z</time>
      </trkpt>
      <trkpt lat="41.9720960" lon="2.6935180">
        <ele>145.8</ele>
        <time>2022-05-26T17:38:14Z</time>
      </trkpt>
      <trkpt lat="41.9721070" lon="2.6934610">
        <ele>145.6</ele>
        <time>2022-05-26T17:38:15Z</time>
      </trkpt>
      <trkpt lat="41.9721220" lon="2.6934050">
        <ele>145.6</ele>
        <time>2022-05-26T17:38:16Z</time>
      </trkpt>
      <trkpt lat="41.9721390" lon="2.6933520">
        <ele>145.6</ele>
        <time>2022-05-26T17:38:17Z</time>
      </trkpt>
      <trkpt lat="41.9721620" lon="2.6932950">
        <ele>145.4</ele>
        <time>2022-05-26T17:38:18Z</time>
      </trkpt>
      <trkpt lat="41.9721820" lon="2.6932240">
        <ele>145.4</ele>
        <time>2022-05-26T17:38:19Z</time>
      </trkpt>
      <trkpt lat="41.9721970" lon="2.6931470">
        <ele>145.2</ele>
        <time>2022-05-26T17:38:20Z</time>
      </trkpt>
      <trkpt lat="41.9722120" lon="2.6930730">
        <ele>145.0</ele>
        <time>2022-05-26T17:38:21Z</time>
      </trkpt>
      <trkpt lat="41.9722230" lon="2.6930140">
        <ele>145.0</ele>
        <time>2022-05-26T17:38:22Z</time>
      </trkpt>
      <trkpt lat="41.9722380" lon="2.6929780">
        <ele>144.8</ele>
        <time>2022-05-26T17:38:23Z</time>
      </trkpt>
      <trkpt lat="41.9722630" lon="2.6929560">
        <ele>144.8</ele>
        <time>2022-05-26T17:38:24Z</time>
      </trkpt>
      <trkpt lat="41.9722980" lon="2.6929230">
        <ele>144.6</ele>
        <time>2022-05-26T17:38:25Z</time>
      </trkpt>
      <trkpt lat="41.9723370" lon="2.6928690">
        <ele>144.2</ele>
        <time>2022-05-26T17:38:26Z</time>
      </trkpt>
      <trkpt lat="41.9723680" lon="2.6928040">
        <ele>144.0</ele>
        <time>2022-05-26T17:38:27Z</time>
      </trkpt>
      <trkpt lat="41.9723860" lon="2.6927440">
        <ele>143.6</ele>
        <time>2022-05-26T17:38:28Z</time>
      </trkpt>
      <trkpt lat="41.9723960" lon="2.6926890">
        <ele>143.0</ele>
        <time>2022-05-26T17:38:29Z</time>
      </trkpt>
      <trkpt lat="41.9723970" lon="2.6926390">
        <ele>142.6</ele>
        <time>2022-05-26T17:38:30Z</time>
      </trkpt>
      <trkpt lat="41.9723920" lon="2.6925880">
        <ele>142.2</ele>
        <time>2022-05-26T17:38:31Z</time>
      </trkpt>
      <trkpt lat="41.9723780" lon="2.6925340">
        <ele>141.6</ele>
        <time>2022-05-26T17:38:32Z</time>
      </trkpt>
      <trkpt lat="41.9723700" lon="2.6924760">
        <ele>141.2</ele>
        <time>2022-05-26T17:38:33Z</time>
      </trkpt>
      <trkpt lat="41.9723760" lon="2.6924150">
        <ele>140.6</ele>
        <time>2022-05-26T17:38:34Z</time>
      </trkpt>
      <trkpt lat="41.9723970" lon="2.6923510">
        <ele>140.2</ele>
        <time>2022-05-26T17:38:35Z</time>
      </trkpt>
      <trkpt lat="41.9724360" lon="2.6922800">
        <ele>139.8</ele>
        <time>2022-05-26T17:38:36Z</time>
      </trkpt>
      <trkpt lat="41.9724790" lon="2.6922140">
        <ele>139.2</ele>
        <time>2022-05-26T17:38:37Z</time>
      </trkpt>
      <trkpt lat="41.9725090" lon="2.6921610">
        <ele>138.6</ele>
        <time>2022-05-26T17:38:38Z</time>
      </trkpt>
      <trkpt lat="41.9725280" lon="2.6921110">
        <ele>138.0</ele>
        <time>2022-05-26T17:38:39Z</time>
      </trkpt>
      <trkpt lat="41.9725310" lon="2.6920580">
        <ele>137.4</ele>
        <time>2022-05-26T17:38:40Z</time>
      </trkpt>
      <trkpt lat="41.9725110" lon="2.6920090">
        <ele>136.8</ele>
        <time>2022-05-26T17:38:41Z</time>
      </trkpt>
      <trkpt lat="41.9724810" lon="2.6919770">
        <ele>136.2</ele>
        <time>2022-05-26T17:38:42Z</time>
      </trkpt>
      <trkpt lat="41.9724460" lon="2.6919660">
        <ele>135.8</ele>
        <time>2022-05-26T17:38:43Z</time>
      </trkpt>
      <trkpt lat="41.9724110" lon="2.6919550">
        <ele>135.2</ele>
        <time>2022-05-26T17:38:44Z</time>
      </trkpt>
      <trkpt lat="41.9723780" lon="2.6919280">
        <ele>134.8</ele>
        <time>2022-05-26T17:38:45Z</time>
      </trkpt>
      <trkpt lat="41.9723530" lon="2.6918890">
        <ele>134.4</ele>
        <time>2022-05-26T17:38:46Z</time>
      </trkpt>
      <trkpt lat="41.9723330" lon="2.6918570">
        <ele>134.2</ele>
        <time>2022-05-26T17:38:47Z</time>
      </trkpt>
      <trkpt lat="41.9723070" lon="2.6918530">
        <ele>134.0</ele>
        <time>2022-05-26T17:38:48Z</time>
      </trkpt>
      <trkpt lat="41.9722750" lon="2.6918610">
        <ele>133.6</ele>
        <time>2022-05-26T17:38:49Z</time>
      </trkpt>
      <trkpt lat="41.9722470" lon="2.6918900">
        <ele>133.4</ele>
        <time>2022-05-26T17:38:50Z</time>
      </trkpt>
      <trkpt lat="41.9722360" lon="2.6919030">
        <ele>133.2</ele>
        <time>2022-05-26T17:38:51Z</time>
      </trkpt>
      <trkpt lat="41.9722130" lon="2.6918980">
        <ele>133.2</ele>
        <time>2022-05-26T17:38:52Z</time>
      </trkpt>
      <trkpt lat="41.9722020" lon="2.6918940">
        <ele>133.0</ele>
        <time>2022-05-26T17:38:53Z</time>
      </trkpt>
      <trkpt lat="41.9721900" lon="2.6918900">
        <ele>132.8</ele>
        <time>2022-05-26T17:38:54Z</time>
      </trkpt>
      <trkpt lat="41.9721790" lon="2.6918870">
        <ele>132.8</ele>
        <time>2022-05-26T17:38:55Z</time>
      </trkpt>
      <trkpt lat="41.9721670" lon="2.6918830">
        <ele>132.6</ele>
        <time>2022-05-26T17:38:56Z</time>
      </trkpt>
      <trkpt lat="41.9721560" lon="2.6918790">
        <ele>132.6</ele>
        <time>2022-05-26T17:38:57Z</time>
      </trkpt>
      <trkpt lat="41.9721440" lon="2.6918760">
        <ele>132.6</ele>
        <time>2022-05-26T17:38:58Z</time>
      </trkpt>
      <trkpt lat="41.9721330" lon="2.6918720">
        <ele>132.6</ele>
        <time>2022-05-26T17:38:59Z</time>
      </trkpt>
      <trkpt lat="41.9721210" lon="2.6918690">
        <ele>132.6</ele>
        <time>2022-05-26T17:39:00Z</time>
      </trkpt>
      <trkpt lat="41.9721100" lon="2.6918650">
        <ele>132.6</ele>
        <time>2022-05-26T17:39:01Z</time>
      </trkpt>
      <trkpt lat="41.9720980" lon="2.6918610">
        <ele>132.6</ele>
        <time>2022-05-26T17:39:02Z</time>
      </trkpt>
      <trkpt lat="41.9720870" lon="2.6918580">
        <ele>132.6</ele>
        <time>2022-05-26T17:39:03Z</time>
      </trkpt>
      <trkpt lat="41.9720750" lon="2.6918540">
        <ele>133.0</ele>
        <time>2022-05-26T17:39:08Z</time>
      </trkpt>
      <trkpt lat="41.9720640" lon="2.6918500">
        <ele>133.2</ele>
        <time>2022-05-26T17:39:09Z</time>
      </trkpt>
      <trkpt lat="41.9720280" lon="2.6918070">
        <ele>133.2</ele>
        <time>2022-05-26T17:39:10Z</time>
      </trkpt>
      <trkpt lat="41.9719880" lon="2.6917480">
        <ele>133.2</ele>
        <time>2022-05-26T17:39:11Z</time>
      </trkpt>
      <trkpt lat="41.9719460" lon="2.6916690">
        <ele>133.2</ele>
        <time>2022-05-26T17:39:12Z</time>
      </trkpt>
      <trkpt lat="41.9719030" lon="2.6915770">
        <ele>133.2</ele>
        <time>2022-05-26T17:39:13Z</time>
      </trkpt>
      <trkpt lat="41.9718570" lon="2.6914870">
        <ele>133.4</ele>
        <time>2022-05-26T17:39:14Z</time>
      </trkpt>
      <trkpt lat="41.9717990" lon="2.6914170">
        <ele>133.6</ele>
        <time>2022-05-26T17:39:15Z</time>
      </trkpt>
      <trkpt lat="41.9717290" lon="2.6913660">
        <ele>133.8</ele>
        <time>2022-05-26T17:39:16Z</time>
      </trkpt>
      <trkpt lat="41.9716470" lon="2.6913260">
        <ele>134.0</ele>
        <time>2022-05-26T17:39:17Z</time>
      </trkpt>
      <trkpt lat="41.9715640" lon="2.6912920">
        <ele>134.2</ele>
        <time>2022-05-26T17:39:18Z</time>
      </trkpt>
      <trkpt lat="41.9714720" lon="2.6912610">
        <ele>134.4</ele>
        <time>2022-05-26T17:39:19Z</time>
      </trkpt>
      <trkpt lat="41.9713850" lon="2.6912340">
        <ele>134.4</ele>
        <time>2022-05-26T17:39:20Z</time>
      </trkpt>
      <trkpt lat="41.9713080" lon="2.6912210">
        <ele>134.2</ele>
        <time>2022-05-26T17:39:21Z</time>
      </trkpt>
      <trkpt lat="41.9712400" lon="2.6912180">
        <ele>134.2</ele>
        <time>2022-05-26T17:39:22Z</time>
      </trkpt>
      <trkpt lat="41.9711860" lon="2.6912130">
        <ele>134.4</ele>
        <time>2022-05-26T17:39:23Z</time>
      </trkpt>
      <trkpt lat="41.9711530" lon="2.6911980">
        <ele>134.6</ele>
        <time>2022-05-26T17:39:24Z</time>
      </trkpt>
      <trkpt lat="41.9711430" lon="2.6911640">
        <ele>134.8</ele>
        <time>2022-05-26T17:39:25Z</time>
      </trkpt>
      <trkpt lat="41.9711540" lon="2.6911050">
        <ele>134.8</ele>
        <time>2022-05-26T17:39:26Z</time>
      </trkpt>
      <trkpt lat="41.9711790" lon="2.6910220">
        <ele>135.0</ele>
        <time>2022-05-26T17:39:27Z</time>
      </trkpt>
      <trkpt lat="41.9712070" lon="2.6909300">
        <ele>135.2</ele>
        <time>2022-05-26T17:39:28Z</time>
      </trkpt>
      <trkpt lat="41.9712240" lon="2.6908280">
        <ele>135.4</ele>
        <time>2022-05-26T17:39:29Z</time>
      </trkpt>
      <trkpt lat="41.9712300" lon="2.6907290">
        <ele>135.6</ele>
        <time>2022-05-26T17:39:30Z</time>
      </trkpt>
      <trkpt lat="41.9712400" lon="2.6906320">
        <ele>135.8</ele>
        <time>2022-05-26T17:39:31Z</time>
      </trkpt>
      <trkpt lat="41.9712480" lon="2.6905540">
        <ele>136.0</ele>
        <time>2022-05-26T17:39:32Z</time>
      </trkpt>
      <trkpt lat="41.9712510" lon="2.6904820">
        <ele>136.2</ele>
        <time>2022-05-26T17:39:33Z</time>
      </trkpt>
      <trkpt lat="41.9712310" lon="2.6904220">
        <ele>136.4</ele>
        <time>2022-05-26T17:39:34Z</time>
      </trkpt>
      <trkpt lat="41.9711790" lon="2.6903810">
        <ele>136.6</ele>
        <time>2022-05-26T17:39:35Z</time>
      </trkpt>
      <trkpt lat="41.9710910" lon="2.6903620">
        <ele>136.8</ele>
        <time>2022-05-26T17:39:36Z</time>
      </trkpt>
      <trkpt lat="41.9710080" lon="2.6903650">
        <ele>137.0</ele>
        <time>2022-05-26T17:39:37Z</time>
      </trkpt>
      <trkpt lat="41.9709250" lon="2.6903990">
        <ele>137.2</ele>
        <time>2022-05-26T17:39:38Z</time>
      </trkpt>
      <trkpt lat="41.9708660" lon="2.6904470">
        <ele>137.4</ele>
        <time>2022-05-26T17:39:39Z</time>
      </trkpt>
      <trkpt lat="41.9708070" lon="2.6904940">
        <ele>137.6</ele>
        <time>2022-05-26T17:39:40Z</time>
      </trkpt>
      <trkpt lat="41.9707460" lon="2.6905130">
        <ele>137.8</ele>
        <time>2022-05-26T17:39:41Z</time>
      </trkpt>
      <trkpt lat="41.9706830" lon="2.6905160">
        <ele>138.2</ele>
        <time>2022-05-26T17:39:42Z</time>
      </trkpt>
      <trkpt lat="41.9706270" lon="2.6904660">
        <ele>138.4</ele>
        <time>2022-05-26T17:39:43Z</time>
      </trkpt>
      <trkpt lat="41.9705880" lon="2.6903830">
        <ele>138.4</ele>
        <time>2022-05-26T17:39:44Z</time>
      </trkpt>
      <trkpt lat="41.9705690" lon="2.6902970">
        <ele>138.4</ele>
        <time>2022-05-26T17:39:45Z</time>
      </trkpt>
      <trkpt lat="41.9705550" lon="2.6902420">
        <ele>138.4</ele>
        <time>2022-05-26T17:39:46Z</time>
      </trkpt>
      <trkpt lat="41.9705340" lon="2.6901930">
        <ele>138.6</ele>
        <time>2022-05-26T17:39:47Z</time>
      </trkpt>
      <trkpt lat="41.9705010" lon="2.6901660">
        <ele>138.6</ele>
        <time>2022-05-26T17:39:48Z</time>
      </trkpt>
      <trkpt lat="41.9704450" lon="2.6901360">
        <ele>138.8</ele>
        <time>2022-05-26T17:39:49Z</time>
      </trkpt>
      <trkpt lat="41.9703590" lon="2.6901030">
        <ele>138.8</ele>
        <time>2022-05-26T17:39:50Z</time>
      </trkpt>
      <trkpt lat="41.9702510" lon="2.6900860">
        <ele>138.6</ele>
        <time>2022-05-26T17:39:51Z</time>
      </trkpt>
      <trkpt lat="41.9701520" lon="2.6900790">
        <ele>138.8</ele>
        <time>2022-05-26T17:39:52Z</time>
      </trkpt>
      <trkpt lat="41.9700790" lon="2.6900810">
        <ele>138.6</ele>
        <time>2022-05-26T17:39:53Z</time>
      </trkpt>
      <trkpt lat="41.9700160" lon="2.6900770">
        <ele>138.6</ele>
        <time>2022-05-26T17:39:54Z</time>
      </trkpt>
      <trkpt lat="41.9699530" lon="2.6900610">
        <ele>139.2</ele>
        <time>2022-05-26T17:39:55Z</time>
      </trkpt>
      <trkpt lat="41.9698930" lon="2.6900280">
        <ele>139.6</ele>
        <time>2022-05-26T17:39:56Z</time>
      </trkpt>
      <trkpt lat="41.9698400" lon="2.6899760">
        <ele>140.0</ele>
        <time>2022-05-26T17:39:57Z</time>
      </trkpt>
      <trkpt lat="41.9697890" lon="2.6899070">
        <ele>140.4</ele>
        <time>2022-05-26T17:39:58Z</time>
      </trkpt>
      <trkpt lat="41.9697360" lon="2.6898330">
        <ele>141.0</ele>
        <time>2022-05-26T17:39:59Z</time>
      </trkpt>
      <trkpt lat="41.9696830" lon="2.6897750">
        <ele>141.4</ele>
        <time>2022-05-26T17:40:00Z</time>
      </trkpt>
      <trkpt lat="41.9696420" lon="2.6897180">
        <ele>141.8</ele>
        <time>2022-05-26T17:40:01Z</time>
      </trkpt>
      <trkpt lat="41.9696170" lon="2.6896600">
        <ele>142.4</ele>
        <time>2022-05-26T17:40:02Z</time>
      </trkpt>
      <trkpt lat="41.9695880" lon="2.6896000">
        <ele>143.0</ele>
        <time>2022-05-26T17:40:03Z</time>
      </trkpt>
      <trkpt lat="41.9695400" lon="2.6895500">
        <ele>143.4</ele>
        <time>2022-05-26T17:40:04Z</time>
      </trkpt>
      <trkpt lat="41.9694700" lon="2.6895200">
        <ele>143.8</ele>
        <time>2022-05-26T17:40:05Z</time>
      </trkpt>
      <trkpt lat="41.9694030" lon="2.6895150">
        <ele>144.2</ele>
        <time>2022-05-26T17:40:06Z</time>
      </trkpt>
      <trkpt lat="41.9693580" lon="2.6895280">
        <ele>144.4</ele>
        <time>2022-05-26T17:40:07Z</time>
      </trkpt>
      <trkpt lat="41.9693370" lon="2.6895640">
        <ele>144.4</ele>
        <time>2022-05-26T17:40:08Z</time>
      </trkpt>
      <trkpt lat="41.9693280" lon="2.6896180">
        <ele>144.4</ele>
        <time>2022-05-26T17:40:09Z</time>
      </trkpt>
      <trkpt lat="41.9693260" lon="2.6896820">
        <ele>144.2</ele>
        <time>2022-05-26T17:40:10Z</time>
      </trkpt>
      <trkpt lat="41.9693230" lon="2.6897420">
        <ele>144.2</ele>
        <time>2022-05-26T17:40:11Z</time>
      </trkpt>
      <trkpt lat="41.9693110" lon="2.6898060">
        <ele>144.2</ele>
        <time>2022-05-26T17:40:12Z</time>
      </trkpt>
      <trkpt lat="41.9692880" lon="2.6898630">
        <ele>144.4</ele>
        <time>2022-05-26T17:40:13Z</time>
      </trkpt>
      <trkpt lat="41.9692540" lon="2.6899100">
        <ele>144.4</ele>
        <time>2022-05-26T17:40:14Z</time>
      </trkpt>
      <trkpt lat="41.9692030" lon="2.6899400">
        <ele>144.4</ele>
        <time>2022-05-26T17:40:15Z</time>
      </trkpt>
      <trkpt lat="41.9691410" lon="2.6899510">
        <ele>144.4</ele>
        <time>2022-05-26T17:40:16Z</time>
      </trkpt>
      <trkpt lat="41.9690670" lon="2.6899560">
        <ele>144.6</ele>
        <time>2022-05-26T17:40:17Z</time>
      </trkpt>
      <trkpt lat="41.9689950" lon="2.6899610">
        <ele>144.6</ele>
        <time>2022-05-26T17:40:18Z</time>
      </trkpt>
      <trkpt lat="41.9689350" lon="2.6899780">
        <ele>144.8</ele>
        <time>2022-05-26T17:40:19Z</time>
      </trkpt>
      <trkpt lat="41.9688850" lon="2.6900100">
        <ele>145.2</ele>
        <time>2022-05-26T17:40:20Z</time>
      </trkpt>
      <trkpt lat="41.9688330" lon="2.6900520">
        <ele>145.2</ele>
        <time>2022-05-26T17:40:21Z</time>
      </trkpt>
      <trkpt lat="41.9687750" lon="2.6900960">
        <ele>145.2</ele>
        <time>2022-05-26T17:40:22Z</time>
      </trkpt>
      <trkpt lat="41.9687160" lon="2.6901390">
        <ele>145.2</ele>
        <time>2022-05-26T17:40:23Z</time>
      </trkpt>
      <trkpt lat="41.9686680" lon="2.6901600">
        <ele>145.2</ele>
        <time>2022-05-26T17:40:24Z</time>
      </trkpt>
      <trkpt lat="41.9686090" lon="2.6901710">
        <ele>145.2</ele>
        <time>2022-05-26T17:40:25Z</time>
      </trkpt>
      <trkpt lat="41.9685490" lon="2.6901830">
        <ele>145.2</ele>
        <time>2022-05-26T17:40:26Z</time>
      </trkpt>
      <trkpt lat="41.9684950" lon="2.6902020">
        <ele>145.0</ele>
        <time>2022-05-26T17:40:27Z</time>
      </trkpt>
      <trkpt lat="41.9684410" lon="2.6902290">
        <ele>145.0</ele>
        <time>2022-05-26T17:40:28Z</time>
      </trkpt>
      <trkpt lat="41.9683890" lon="2.6902550">
        <ele>145.0</ele>
        <time>2022-05-26T17:40:29Z</time>
      </trkpt>
      <trkpt lat="41.9683340" lon="2.6902770">
        <ele>145.0</ele>
        <time>2022-05-26T17:40:30Z</time>
      </trkpt>
      <trkpt lat="41.9682800" lon="2.6902910">
        <ele>145.2</ele>
        <time>2022-05-26T17:40:31Z</time>
      </trkpt>
      <trkpt lat="41.9682350" lon="2.6902940">
        <ele>145.2</ele>
        <time>2022-05-26T17:40:32Z</time>
      </trkpt>
      <trkpt lat="41.9681960" lon="2.6902930">
        <ele>145.4</ele>
        <time>2022-05-26T17:40:33Z</time>
      </trkpt>
      <trkpt lat="41.9681580" lon="2.6902910">
        <ele>145.4</ele>
        <time>2022-05-26T17:40:34Z</time>
      </trkpt>
      <trkpt lat="41.9681220" lon="2.6902930">
        <ele>145.4</ele>
        <time>2022-05-26T17:40:35Z</time>
      </trkpt>
      <trkpt lat="41.9680950" lon="2.6902990">
        <ele>145.6</ele>
        <time>2022-05-26T17:40:36Z</time>
      </trkpt>
      <trkpt lat="41.9680750" lon="2.6903080">
        <ele>145.6</ele>
        <time>2022-05-26T17:40:37Z</time>
      </trkpt>
      <trkpt lat="41.9680500" lon="2.6903160">
        <ele>145.6</ele>
        <time>2022-05-26T17:40:38Z</time>
      </trkpt>
      <trkpt lat="41.9680120" lon="2.6903240">
        <ele>145.6</ele>
        <time>2022-05-26T17:40:39Z</time>
      </trkpt>
      <trkpt lat="41.9679730" lon="2.6903370">
        <ele>145.6</ele>
        <time>2022-05-26T17:40:40Z</time>
      </trkpt>
      <trkpt lat="41.9679330" lon="2.6903520">
        <ele>145.6</ele>
        <time>2022-05-26T17:40:41Z</time>
      </trkpt>
      <trkpt lat="41.9678950" lon="2.6903700">
        <ele>145.6</ele>
        <time>2022-05-26T17:40:42Z</time>
      </trkpt>
      <trkpt lat="41.9678690" lon="2.6903930">
        <ele>145.8</ele>
        <time>2022-05-26T17:40:43Z</time>
      </trkpt>
      <trkpt lat="41.9678540" lon="2.6904280">
        <ele>145.8</ele>
        <time>2022-05-26T17:40:44Z</time>
      </trkpt>
      <trkpt lat="41.9678410" lon="2.6904680">
        <ele>145.8</ele>
        <time>2022-05-26T17:40:45Z</time>
      </trkpt>
      <trkpt lat="41.9678190" lon="2.6905010">
        <ele>146.0</ele>
        <time>2022-05-26T17:40:46Z</time>
      </trkpt>
      <trkpt lat="41.9677900" lon="2.6905220">
        <ele>146.0</ele>
        <time>2022-05-26T17:40:47Z</time>
      </trkpt>
      <trkpt lat="41.9677600" lon="2.6905290">
        <ele>146.0</ele>
        <time>2022-05-26T17:40:48Z</time>
      </trkpt>
      <trkpt lat="41.9677270" lon="2.6905360">
        <ele>146.2</ele>
        <time>2022-05-26T17:40:49Z</time>
      </trkpt>
      <trkpt lat="41.9676900" lon="2.6905490">
        <ele>146.2</ele>
        <time>2022-05-26T17:40:50Z</time>
      </trkpt>
      <trkpt lat="41.9676530" lon="2.6905720">
        <ele>146.4</ele>
        <time>2022-05-26T17:40:51Z</time>
      </trkpt>
      <trkpt lat="41.9676160" lon="2.6906000">
        <ele>146.4</ele>
        <time>2022-05-26T17:40:52Z</time>
      </trkpt>
      <trkpt lat="41.9675700" lon="2.6906240">
        <ele>146.6</ele>
        <time>2022-05-26T17:40:53Z</time>
      </trkpt>
      <trkpt lat="41.9675150" lon="2.6906450">
        <ele>146.6</ele>
        <time>2022-05-26T17:40:54Z</time>
      </trkpt>
      <trkpt lat="41.9674670" lon="2.6906640">
        <ele>146.6</ele>
        <time>2022-05-26T17:40:55Z</time>
      </trkpt>
      <trkpt lat="41.9674310" lon="2.6906960">
        <ele>146.8</ele>
        <time>2022-05-26T17:40:56Z</time>
      </trkpt>
      <trkpt lat="41.9674000" lon="2.6907460">
        <ele>147.0</ele>
        <time>2022-05-26T17:40:57Z</time>
      </trkpt>
      <trkpt lat="41.9673710" lon="2.6908090">
        <ele>147.2</ele>
        <time>2022-05-26T17:40:58Z</time>
      </trkpt>
      <trkpt lat="41.9673420" lon="2.6908610">
        <ele>147.4</ele>
        <time>2022-05-26T17:40:59Z</time>
      </trkpt>
      <trkpt lat="41.9673130" lon="2.6908960">
        <ele>147.6</ele>
        <time>2022-05-26T17:41:00Z</time>
      </trkpt>
      <trkpt lat="41.9672910" lon="2.6909280">
        <ele>147.8</ele>
        <time>2022-05-26T17:41:01Z</time>
      </trkpt>
      <trkpt lat="41.9672770" lon="2.6909610">
        <ele>147.8</ele>
        <time>2022-05-26T17:41:02Z</time>
      </trkpt>
      <trkpt lat="41.9672670" lon="2.6909970">
        <ele>148.0</ele>
        <time>2022-05-26T17:41:03Z</time>
      </trkpt>
      <trkpt lat="41.9672530" lon="2.6910450">
        <ele>148.2</ele>
        <time>2022-05-26T17:41:04Z</time>
      </trkpt>
      <trkpt lat="41.9672220" lon="2.6911130">
        <ele>148.2</ele>
        <time>2022-05-26T17:41:05Z</time>
      </trkpt>
      <trkpt lat="41.9671720" lon="2.6912020">
        <ele>148.4</ele>
        <time>2022-05-26T17:41:06Z</time>
      </trkpt>
      <trkpt lat="41.9671140" lon="2.6912890">
        <ele>148.6</ele>
        <time>2022-05-26T17:41:07Z</time>
      </trkpt>
      <trkpt lat="41.9670660" lon="2.6913320">
        <ele>148.8</ele>
        <time>2022-05-26T17:41:08Z</time>
      </trkpt>
      <trkpt lat="41.9670110" lon="2.6913460">
        <ele>149.0</ele>
        <time>2022-05-26T17:41:09Z</time>
      </trkpt>
      <trkpt lat="41.9669430" lon="2.6913640">
        <ele>149.6</ele>
        <time>2022-05-26T17:41:10Z</time>
      </trkpt>
      <trkpt lat="41.9668700" lon="2.6914010">
        <ele>150.2</ele>
        <time>2022-05-26T17:41:11Z</time>
      </trkpt>
      <trkpt lat="41.9668020" lon="2.6914590">
        <ele>150.4</ele>
        <time>2022-05-26T17:41:12Z</time>
      </trkpt>
      <trkpt lat="41.9667470" lon="2.6915280">
        <ele>150.6</ele>
        <time>2022-05-26T17:41:13Z</time>
      </trkpt>
      <trkpt lat="41.9667130" lon="2.6915950">
        <ele>150.8</ele>
        <time>2022-05-26T17:41:14Z</time>
      </trkpt>
      <trkpt lat="41.9666920" lon="2.6916460">
        <ele>151.2</ele>
        <time>2022-05-26T17:41:15Z</time>
      </trkpt>
      <trkpt lat="41.9666700" lon="2.6916730">
        <ele>151.4</ele>
        <time>2022-05-26T17:41:16Z</time>
      </trkpt>
      <trkpt lat="41.9666480" lon="2.6916760">
        <ele>151.8</ele>
        <time>2022-05-26T17:41:17Z</time>
      </trkpt>
      <trkpt lat="41.9666440" lon="2.6916590">
        <ele>152.0</ele>
        <time>2022-05-26T17:41:18Z</time>
      </trkpt>
      <trkpt lat="41.9666510" lon="2.6916160">
        <ele>152.4</ele>
        <time>2022-05-26T17:41:19Z</time>
      </trkpt>
      <trkpt lat="41.9666540" lon="2.6915590">
        <ele>152.8</ele>
        <time>2022-05-26T17:41:20Z</time>
      </trkpt>
      <trkpt lat="41.9666560" lon="2.6914940">
        <ele>153.2</ele>
        <time>2022-05-26T17:41:21Z</time>
      </trkpt>
      <trkpt lat="41.9666560" lon="2.6914270">
        <ele>153.8</ele>
        <time>2022-05-26T17:41:22Z</time>
      </trkpt>
      <trkpt lat="41.9666550" lon="2.6913530">
        <ele>154.2</ele>
        <time>2022-05-26T17:41:23Z</time>
      </trkpt>
      <trkpt lat="41.9666540" lon="2.6912800">
        <ele>154.6</ele>
        <time>2022-05-26T17:41:24Z</time>
      </trkpt>
      <trkpt lat="41.9666500" lon="2.6912070">
        <ele>155.0</ele>
        <time>2022-05-26T17:41:25Z</time>
      </trkpt>
      <trkpt lat="41.9666400" lon="2.6911420">
        <ele>155.6</ele>
        <time>2022-05-26T17:41:26Z</time>
      </trkpt>
      <trkpt lat="41.9666260" lon="2.6910880">
        <ele>156.2</ele>
        <time>2022-05-26T17:41:27Z</time>
      </trkpt>
      <trkpt lat="41.9666080" lon="2.6910380">
        <ele>156.8</ele>
        <time>2022-05-26T17:41:28Z</time>
      </trkpt>
      <trkpt lat="41.9665850" lon="2.6909820">
        <ele>157.2</ele>
        <time>2022-05-26T17:41:29Z</time>
      </trkpt>
      <trkpt lat="41.9665630" lon="2.6909220">
        <ele>157.8</ele>
        <time>2022-05-26T17:41:30Z</time>
      </trkpt>
      <trkpt lat="41.9665440" lon="2.6908610">
        <ele>158.4</ele>
        <time>2022-05-26T17:41:31Z</time>
      </trkpt>
      <trkpt lat="41.9665330" lon="2.6908010">
        <ele>159.0</ele>
        <time>2022-05-26T17:41:32Z</time>
      </trkpt>
      <trkpt lat="41.9665250" lon="2.6907410">
        <ele>159.6</ele>
        <time>2022-05-26T17:41:33Z</time>
      </trkpt>
      <trkpt lat="41.9665170" lon="2.6906810">
        <ele>160.2</ele>
        <time>2022-05-26T17:41:34Z</time>
      </trkpt>
      <trkpt lat="41.9665120" lon="2.6906210">
        <ele>160.6</ele>
        <time>2022-05-26T17:41:35Z</time>
      </trkpt>
      <trkpt lat="41.9665070" lon="2.6905580">
        <ele>161.2</ele>
        <time>2022-05-26T17:41:36Z</time>
      </trkpt>
      <trkpt lat="41.9665070" lon="2.6904920">
        <ele>161.6</ele>
        <time>2022-05-26T17:41:37Z</time>
      </trkpt>
      <trkpt lat="41.9665080" lon="2.6904210">
        <ele>162.0</ele>
        <time>2022-05-26T17:41:38Z</time>
      </trkpt>
      <trkpt lat="41.9665030" lon="2.6903480">
        <ele>162.4</ele>
        <time>2022-05-26T17:41:39Z</time>
      </trkpt>
      <trkpt lat="41.9664920" lon="2.6902830">
        <ele>162.8</ele>
        <time>2022-05-26T17:41:40Z</time>
      </trkpt>
      <trkpt lat="41.9664690" lon="2.6902410">
        <ele>163.2</ele>
        <time>2022-05-26T17:41:41Z</time>
      </trkpt>
      <trkpt lat="41.9664380" lon="2.6902330">
        <ele>163.8</ele>
        <time>2022-05-26T17:41:42Z</time>
      </trkpt>
      <trkpt lat="41.9664050" lon="2.6902470">
        <ele>164.4</ele>
        <time>2022-05-26T17:41:43Z</time>
      </trkpt>
      <trkpt lat="41.9663710" lon="2.6902820">
        <ele>165.0</ele>
        <time>2022-05-26T17:41:44Z</time>
      </trkpt>
      <trkpt lat="41.9663290" lon="2.6903150">
        <ele>165.6</ele>
        <time>2022-05-26T17:41:45Z</time>
      </trkpt>
      <trkpt lat="41.9662620" lon="2.6903430">
        <ele>166.2</ele>
        <time>2022-05-26T17:41:46Z</time>
      </trkpt>
      <trkpt lat="41.9662020" lon="2.6903910">
        <ele>166.8</ele>
        <time>2022-05-26T17:41:47Z</time>
      </trkpt>
      <trkpt lat="41.9661700" lon="2.6904490">
        <ele>167.2</ele>
        <time>2022-05-26T17:41:48Z</time>
      </trkpt>
      <trkpt lat="41.9661490" lon="2.6905140">
        <ele>168.0</ele>
        <time>2022-05-26T17:41:49Z</time>
      </trkpt>
      <trkpt lat="41.9661190" lon="2.6905820">
        <ele>168.8</ele>
        <time>2022-05-26T17:41:50Z</time>
      </trkpt>
      <trkpt lat="41.9660740" lon="2.6906570">
        <ele>169.8</ele>
        <time>2022-05-26T17:41:51Z</time>
      </trkpt>
      <trkpt lat="41.9660180" lon="2.6907350">
        <ele>170.4</ele>
        <time>2022-05-26T17:41:52Z</time>
      </trkpt>
      <trkpt lat="41.9659560" lon="2.6908080">
        <ele>171.6</ele>
        <time>2022-05-26T17:41:53Z</time>
      </trkpt>
      <trkpt lat="41.9658820" lon="2.6908650">
        <ele>173.0</ele>
        <time>2022-05-26T17:41:54Z</time>
      </trkpt>
      <trkpt lat="41.9657970" lon="2.6908980">
        <ele>174.2</ele>
        <time>2022-05-26T17:41:55Z</time>
      </trkpt>
      <trkpt lat="41.9657020" lon="2.6909080">
        <ele>175.2</ele>
        <time>2022-05-26T17:41:56Z</time>
      </trkpt>
      <trkpt lat="41.9655990" lon="2.6909000">
        <ele>175.6</ele>
        <time>2022-05-26T17:41:57Z</time>
      </trkpt>
      <trkpt lat="41.9654930" lon="2.6908750">
        <ele>176.8</ele>
        <time>2022-05-26T17:41:58Z</time>
      </trkpt>
      <trkpt lat="41.9653880" lon="2.6908330">
        <ele>177.6</ele>
        <time>2022-05-26T17:41:59Z</time>
      </trkpt>
      <trkpt lat="41.9652820" lon="2.6907800">
        <ele>178.0</ele>
        <time>2022-05-26T17:42:00Z</time>
      </trkpt>
      <trkpt lat="41.9651780" lon="2.6907270">
        <ele>178.2</ele>
        <time>2022-05-26T17:42:01Z</time>
      </trkpt>
      <trkpt lat="41.9650770" lon="2.6906710">
        <ele>179.0</ele>
        <time>2022-05-26T17:42:02Z</time>
      </trkpt>
      <trkpt lat="41.9649770" lon="2.6906250">
        <ele>179.4</ele>
        <time>2022-05-26T17:42:03Z</time>
      </trkpt>
      <trkpt lat="41.9648760" lon="2.6905840">
        <ele>179.6</ele>
        <time>2022-05-26T17:42:04Z</time>
      </trkpt>
      <trkpt lat="41.9647790" lon="2.6905430">
        <ele>180.0</ele>
        <time>2022-05-26T17:42:05Z</time>
      </trkpt>
      <trkpt lat="41.9646810" lon="2.6905130">
        <ele>180.2</ele>
        <time>2022-05-26T17:42:06Z</time>
      </trkpt>
      <trkpt lat="41.9645840" lon="2.6905000">
        <ele>180.6</ele>
        <time>2022-05-26T17:42:07Z</time>
      </trkpt>
      <trkpt lat="41.9644900" lon="2.6904920">
        <ele>180.8</ele>
        <time>2022-05-26T17:42:08Z</time>
      </trkpt>
      <trkpt lat="41.9644070" lon="2.6904690">
        <ele>181.6</ele>
        <time>2022-05-26T17:42:09Z</time>
      </trkpt>
      <trkpt lat="41.9643310" lon="2.6904160">
        <ele>182.4</ele>
        <time>2022-05-26T17:42:10Z</time>
      </trkpt>
      <trkpt lat="41.9642550" lon="2.6903280">
        <ele>183.2</ele>
        <time>2022-05-26T17:42:11Z</time>
      </trkpt>
      <trkpt lat="41.9641770" lon="2.6902180">
        <ele>183.8</ele>
        <time>2022-05-26T17:42:12Z</time>
      </trkpt>
      <trkpt lat="41.9640900" lon="2.6900890">
        <ele>184.4</ele>
        <time>2022-05-26T17:42:13Z</time>
      </trkpt>
      <trkpt lat="41.9639950" lon="2.6899500">
        <ele>185.0</ele>
        <time>2022-05-26T17:42:14Z</time>
      </trkpt>
      <trkpt lat="41.9639020" lon="2.6898170">
        <ele>185.8</ele>
        <time>2022-05-26T17:42:15Z</time>
      </trkpt>
      <trkpt lat="41.9638170" lon="2.6896880">
        <ele>186.4</ele>
        <time>2022-05-26T17:42:16Z</time>
      </trkpt>
      <trkpt lat="41.9637360" lon="2.6895580">
        <ele>187.0</ele>
        <time>2022-05-26T17:42:17Z</time>
      </trkpt>
      <trkpt lat="41.9636550" lon="2.6894360">
        <ele>187.6</ele>
        <time>2022-05-26T17:42:18Z</time>
      </trkpt>
      <trkpt lat="41.9635780" lon="2.6893270">
        <ele>188.0</ele>
        <time>2022-05-26T17:42:19Z</time>
      </trkpt>
      <trkpt lat="41.9634820" lon="2.6892060">
        <ele>188.6</ele>
        <time>2022-05-26T17:42:20Z</time>
      </trkpt>
      <trkpt lat="41.9633750" lon="2.6890950">
        <ele>189.2</ele>
        <time>2022-05-26T17:42:21Z</time>
      </trkpt>
      <trkpt lat="41.9632690" lon="2.6890060">
        <ele>190.0</ele>
        <time>2022-05-26T17:42:22Z</time>
      </trkpt>
      <trkpt lat="41.9631660" lon="2.6889310">
        <ele>190.6</ele>
        <time>2022-05-26T17:42:23Z</time>
      </trkpt>
      <trkpt lat="41.9630670" lon="2.6888610">
        <ele>191.0</ele>
        <time>2022-05-26T17:42:24Z</time>
      </trkpt>
      <trkpt lat="41.9629510" lon="2.6887770">
        <ele>191.4</ele>
        <time>2022-05-26T17:42:25Z</time>
      </trkpt>
      <trkpt lat="41.9628490" lon="2.6886900">
        <ele>192.2</ele>
        <time>2022-05-26T17:42:26Z</time>
      </trkpt>
      <trkpt lat="41.9627690" lon="2.6886040">
        <ele>193.2</ele>
        <time>2022-05-26T17:42:27Z</time>
      </trkpt>
      <trkpt lat="41.9627010" lon="2.6885120">
        <ele>194.4</ele>
        <time>2022-05-26T17:42:28Z</time>
      </trkpt>
      <trkpt lat="41.9626400" lon="2.6884050">
        <ele>195.2</ele>
        <time>2022-05-26T17:42:29Z</time>
      </trkpt>
      <trkpt lat="41.9625850" lon="2.6882870">
        <ele>196.4</ele>
        <time>2022-05-26T17:42:30Z</time>
      </trkpt>
      <trkpt lat="41.9625340" lon="2.6881670">
        <ele>197.4</ele>
        <time>2022-05-26T17:42:31Z</time>
      </trkpt>
      <trkpt lat="41.9624810" lon="2.6880460">
        <ele>198.4</ele>
        <time>2022-05-26T17:42:32Z</time>
      </trkpt>
      <trkpt lat="41.9624260" lon="2.6879240">
        <ele>199.4</ele>
        <time>2022-05-26T17:42:33Z</time>
      </trkpt>
      <trkpt lat="41.9623690" lon="2.6878060">
        <ele>200.4</ele>
        <time>2022-05-26T17:42:34Z</time>
      </trkpt>
      <trkpt lat="41.9623120" lon="2.6877020">
        <ele>201.4</ele>
        <time>2022-05-26T17:42:35Z</time>
      </trkpt>
      <trkpt lat="41.9622480" lon="2.6876160">
        <ele>202.2</ele>
        <time>2022-05-26T17:42:36Z</time>
      </trkpt>
      <trkpt lat="41.9621690" lon="2.6875390">
        <ele>202.6</ele>
        <time>2022-05-26T17:42:37Z</time>
      </trkpt>
      <trkpt lat="41.9620780" lon="2.6874680">
        <ele>203.2</ele>
        <time>2022-05-26T17:42:38Z</time>
      </trkpt>
      <trkpt lat="41.9619930" lon="2.6874100">
        <ele>203.8</ele>
        <time>2022-05-26T17:42:39Z</time>
      </trkpt>
      <trkpt lat="41.9619230" lon="2.6873640">
        <ele>204.4</ele>
        <time>2022-05-26T17:42:40Z</time>
      </trkpt>
      <trkpt lat="41.9618580" lon="2.6873190">
        <ele>205.0</ele>
        <time>2022-05-26T17:42:41Z</time>
      </trkpt>
      <trkpt lat="41.9617940" lon="2.6872680">
        <ele>205.8</ele>
        <time>2022-05-26T17:42:42Z</time>
      </trkpt>
      <trkpt lat="41.9617330" lon="2.6872140">
        <ele>206.4</ele>
        <time>2022-05-26T17:42:43Z</time>
      </trkpt>
      <trkpt lat="41.9616580" lon="2.6871450">
        <ele>207.0</ele>
        <time>2022-05-26T17:42:44Z</time>
      </trkpt>
      <trkpt lat="41.9615830" lon="2.6870760">
        <ele>207.6</ele>
        <time>2022-05-26T17:42:45Z</time>
      </trkpt>
      <trkpt lat="41.9615190" lon="2.6870120">
        <ele>208.0</ele>
        <time>2022-05-26T17:42:46Z</time>
      </trkpt>
      <trkpt lat="41.9614650" lon="2.6869530">
        <ele>208.6</ele>
        <time>2022-05-26T17:42:47Z</time>
      </trkpt>
      <trkpt lat="41.9614050" lon="2.6868900">
        <ele>209.0</ele>
        <time>2022-05-26T17:42:48Z</time>
      </trkpt>
      <trkpt lat="41.9613460" lon="2.6868400">
        <ele>209.4</ele>
        <time>2022-05-26T17:42:49Z</time>
      </trkpt>
      <trkpt lat="41.9612910" lon="2.6868020">
        <ele>210.0</ele>
        <time>2022-05-26T17:42:50Z</time>
      </trkpt>
      <trkpt lat="41.9612350" lon="2.6867710">
        <ele>210.6</ele>
        <time>2022-05-26T17:42:51Z</time>
      </trkpt>
      <trkpt lat="41.9611800" lon="2.6867490">
        <ele>211.0</ele>
        <time>2022-05-26T17:42:52Z</time>
      </trkpt>
      <trkpt lat="41.9611290" lon="2.6867400">
        <ele>211.4</ele>
        <time>2022-05-26T17:42:53Z</time>
      </trkpt>
      <trkpt lat="41.9610870" lon="2.6867410">
        <ele>211.8</ele>
        <time>2022-05-26T17:42:54Z</time>
      </trkpt>
      <trkpt lat="41.9610520" lon="2.6867460">
        <ele>212.2</ele>
        <time>2022-05-26T17:42:55Z</time>
      </trkpt>
      <trkpt lat="41.9610260" lon="2.6867450">
        <ele>212.6</ele>
        <time>2022-05-26T17:42:56Z</time>
      </trkpt>
      <trkpt lat="41.9610070" lon="2.6867410">
        <ele>213.0</ele>
        <time>2022-05-26T17:42:57Z</time>
      </trkpt>
      <trkpt lat="41.9609930" lon="2.6867340">
        <ele>213.2</ele>
        <time>2022-05-26T17:42:58Z</time>
      </trkpt>
      <trkpt lat="41.9609850" lon="2.6867250">
        <ele>213.4</ele>
        <time>2022-05-26T17:42:59Z</time>
      </trkpt>
      <trkpt lat="41.9609800" lon="2.6867200">
        <ele>213.6</ele>
        <time>2022-05-26T17:43:00Z</time>
      </trkpt>
      <trkpt lat="41.9609680" lon="2.6867150">
        <ele>214.0</ele>
        <time>2022-05-26T17:43:01Z</time>
      </trkpt>
      <trkpt lat="41.9609470" lon="2.6867130">
        <ele>214.0</ele>
        <time>2022-05-26T17:43:02Z</time>
      </trkpt>
      <trkpt lat="41.9609180" lon="2.6867130">
        <ele>214.2</ele>
        <time>2022-05-26T17:43:03Z</time>
      </trkpt>
      <trkpt lat="41.9608790" lon="2.6867140">
        <ele>214.4</ele>
        <time>2022-05-26T17:43:04Z</time>
      </trkpt>
      <trkpt lat="41.9608330" lon="2.6867080">
        <ele>214.4</ele>
        <time>2022-05-26T17:43:05Z</time>
      </trkpt>
      <trkpt lat="41.9607920" lon="2.6867000">
        <ele>214.6</ele>
        <time>2022-05-26T17:43:06Z</time>
      </trkpt>
      <trkpt lat="41.9607620" lon="2.6866920">
        <ele>214.8</ele>
        <time>2022-05-26T17:43:07Z</time>
      </trkpt>
      <trkpt lat="41.9607270" lon="2.6866840">
        <ele>214.8</ele>
        <time>2022-05-26T17:43:08Z</time>
      </trkpt>
      <trkpt lat="41.9606930" lon="2.6866720">
        <ele>215.0</ele>
        <time>2022-05-26T17:43:09Z</time>
      </trkpt>
      <trkpt lat="41.9606600" lon="2.6866580">
        <ele>215.0</ele>
        <time>2022-05-26T17:43:10Z</time>
      </trkpt>
      <trkpt lat="41.9606180" lon="2.6866460">
        <ele>215.2</ele>
        <time>2022-05-26T17:43:11Z</time>
      </trkpt>
      <trkpt lat="41.9605760" lon="2.6866380">
        <ele>215.2</ele>
        <time>2022-05-26T17:43:12Z</time>
      </trkpt>
      <trkpt lat="41.9605340" lon="2.6866290">
        <ele>215.2</ele>
        <time>2022-05-26T17:43:13Z</time>
      </trkpt>
      <trkpt lat="41.9604960" lon="2.6866170">
        <ele>215.2</ele>
        <time>2022-05-26T17:43:14Z</time>
      </trkpt>
      <trkpt lat="41.9604650" lon="2.6865980">
        <ele>215.2</ele>
        <time>2022-05-26T17:43:15Z</time>
      </trkpt>
      <trkpt lat="41.9604410" lon="2.6865680">
        <ele>215.6</ele>
        <time>2022-05-26T17:43:16Z</time>
      </trkpt>
      <trkpt lat="41.9604160" lon="2.6865300">
        <ele>215.8</ele>
        <time>2022-05-26T17:43:17Z</time>
      </trkpt>
      <trkpt lat="41.9603830" lon="2.6864850">
        <ele>216.0</ele>
        <time>2022-05-26T17:43:18Z</time>
      </trkpt>
      <trkpt lat="41.9603470" lon="2.6864380">
        <ele>216.4</ele>
        <time>2022-05-26T17:43:19Z</time>
      </trkpt>
      <trkpt lat="41.9603050" lon="2.6863750">
        <ele>216.6</ele>
        <time>2022-05-26T17:43:20Z</time>
      </trkpt>
      <trkpt lat="41.9602530" lon="2.6862990">
        <ele>216.8</ele>
        <time>2022-05-26T17:43:21Z</time>
      </trkpt>
      <trkpt lat="41.9601980" lon="2.6862270">
        <ele>216.8</ele>
        <time>2022-05-26T17:43:22Z</time>
      </trkpt>
      <trkpt lat="41.9601550" lon="2.6861740">
        <ele>217.2</ele>
        <time>2022-05-26T17:43:23Z</time>
      </trkpt>
      <trkpt lat="41.9601140" lon="2.6861350">
        <ele>217.4</ele>
        <time>2022-05-26T17:43:24Z</time>
      </trkpt>
      <trkpt lat="41.9600490" lon="2.6861050">
        <ele>217.4</ele>
        <time>2022-05-26T17:43:25Z</time>
      </trkpt>
      <trkpt lat="41.9599630" lon="2.6860810">
        <ele>217.6</ele>
        <time>2022-05-26T17:43:26Z</time>
      </trkpt>
      <trkpt lat="41.9598820" lon="2.6860700">
        <ele>217.6</ele>
        <time>2022-05-26T17:43:27Z</time>
      </trkpt>
      <trkpt lat="41.9598190" lon="2.6860720">
        <ele>217.8</ele>
        <time>2022-05-26T17:43:28Z</time>
      </trkpt>
      <trkpt lat="41.9597720" lon="2.6860800">
        <ele>217.8</ele>
        <time>2022-05-26T17:43:29Z</time>
      </trkpt>
      <trkpt lat="41.9597330" lon="2.6860830">
        <ele>217.8</ele>
        <time>2022-05-26T17:43:30Z</time>
      </trkpt>
      <trkpt lat="41.9596950" lon="2.6860800">
        <ele>217.8</ele>
        <time>2022-05-26T17:43:31Z</time>
      </trkpt>
      <trkpt lat="41.9596660" lon="2.6860820">
        <ele>217.6</ele>
        <time>2022-05-26T17:43:32Z</time>
      </trkpt>
      <trkpt lat="41.9596610" lon="2.6860980">
        <ele>217.8</ele>
        <time>2022-05-26T17:43:33Z</time>
      </trkpt>
      <trkpt lat="41.9596730" lon="2.6861320">
        <ele>218.0</ele>
        <time>2022-05-26T17:43:34Z</time>
      </trkpt>
      <trkpt lat="41.9596970" lon="2.6861860">
        <ele>218.2</ele>
        <time>2022-05-26T17:43:35Z</time>
      </trkpt>
      <trkpt lat="41.9597260" lon="2.6862540">
        <ele>218.4</ele>
        <time>2022-05-26T17:43:36Z</time>
      </trkpt>
      <trkpt lat="41.9597450" lon="2.6863080">
        <ele>218.6</ele>
        <time>2022-05-26T17:43:37Z</time>
      </trkpt>
      <trkpt lat="41.9597550" lon="2.6863670">
        <ele>219.0</ele>
        <time>2022-05-26T17:43:38Z</time>
      </trkpt>
      <trkpt lat="41.9597700" lon="2.6864190">
        <ele>219.2</ele>
        <time>2022-05-26T17:43:39Z</time>
      </trkpt>
      <trkpt lat="41.9597840" lon="2.6864720">
        <ele>219.6</ele>
        <time>2022-05-26T17:43:40Z</time>
      </trkpt>
      <trkpt lat="41.9597920" lon="2.6865300">
        <ele>219.8</ele>
        <time>2022-05-26T17:43:41Z</time>
      </trkpt>
      <trkpt lat="41.9597950" lon="2.6866050">
        <ele>220.0</ele>
        <time>2022-05-26T17:43:42Z</time>
      </trkpt>
      <trkpt lat="41.9598020" lon="2.6867010">
        <ele>220.4</ele>
        <time>2022-05-26T17:43:43Z</time>
      </trkpt>
      <trkpt lat="41.9598060" lon="2.6868060">
        <ele>220.8</ele>
        <time>2022-05-26T17:43:44Z</time>
      </trkpt>
      <trkpt lat="41.9598080" lon="2.6869070">
        <ele>221.2</ele>
        <time>2022-05-26T17:43:45Z</time>
      </trkpt>
      <trkpt lat="41.9597980" lon="2.6870050">
        <ele>221.6</ele>
        <time>2022-05-26T17:43:46Z</time>
      </trkpt>
      <trkpt lat="41.9597930" lon="2.6871030">
        <ele>222.0</ele>
        <time>2022-05-26T17:43:47Z</time>
      </trkpt>
      <trkpt lat="41.9597890" lon="2.6871900">
        <ele>222.6</ele>
        <time>2022-05-26T17:43:48Z</time>
      </trkpt>
      <trkpt lat="41.9597870" lon="2.6872570">
        <ele>223.2</ele>
        <time>2022-05-26T17:43:49Z</time>
      </trkpt>
      <trkpt lat="41.9597850" lon="2.6873040">
        <ele>223.8</ele>
        <time>2022-05-26T17:43:50Z</time>
      </trkpt>
      <trkpt lat="41.9597780" lon="2.6873290">
        <ele>224.4</ele>
        <time>2022-05-26T17:43:51Z</time>
      </trkpt>
      <trkpt lat="41.9597630" lon="2.6873320">
        <ele>225.0</ele>
        <time>2022-05-26T17:43:52Z</time>
      </trkpt>
      <trkpt lat="41.9597420" lon="2.6873050">
        <ele>225.8</ele>
        <time>2022-05-26T17:43:53Z</time>
      </trkpt>
      <trkpt lat="41.9597160" lon="2.6872550">
        <ele>226.6</ele>
        <time>2022-05-26T17:43:54Z</time>
      </trkpt>
      <trkpt lat="41.9596910" lon="2.6871960">
        <ele>227.6</ele>
        <time>2022-05-26T17:43:55Z</time>
      </trkpt>
      <trkpt lat="41.9596580" lon="2.6871440">
        <ele>228.4</ele>
        <time>2022-05-26T17:43:56Z</time>
      </trkpt>
      <trkpt lat="41.9596160" lon="2.6870850">
        <ele>229.2</ele>
        <time>2022-05-26T17:43:57Z</time>
      </trkpt>
      <trkpt lat="41.9595700" lon="2.6870300">
        <ele>229.8</ele>
        <time>2022-05-26T17:43:58Z</time>
      </trkpt>
      <trkpt lat="41.9595300" lon="2.6869860">
        <ele>230.4</ele>
        <time>2022-05-26T17:43:59Z</time>
      </trkpt>
      <trkpt lat="41.9595060" lon="2.6869620">
        <ele>231.0</ele>
        <time>2022-05-26T17:44:00Z</time>
      </trkpt>
      <trkpt lat="41.9594910" lon="2.6869490">
        <ele>231.6</ele>
        <time>2022-05-26T17:44:01Z</time>
      </trkpt>
      <trkpt lat="41.9594780" lon="2.6869380">
        <ele>232.0</ele>
        <time>2022-05-26T17:44:02Z</time>
      </trkpt>
      <trkpt lat="41.9594640" lon="2.6869220">
        <ele>232.4</ele>
        <time>2022-05-26T17:44:03Z</time>
      </trkpt>
      <trkpt lat="41.9594460" lon="2.6868950">
        <ele>233.0</ele>
        <time>2022-05-26T17:44:04Z</time>
      </trkpt>
      <trkpt lat="41.9594260" lon="2.6868570">
        <ele>233.6</ele>
        <time>2022-05-26T17:44:05Z</time>
      </trkpt>
      <trkpt lat="41.9594060" lon="2.6868080">
        <ele>234.0</ele>
        <time>2022-05-26T17:44:06Z</time>
      </trkpt>
      <trkpt lat="41.9593870" lon="2.6867480">
        <ele>234.6</ele>
        <time>2022-05-26T17:44:07Z</time>
      </trkpt>
      <trkpt lat="41.9593710" lon="2.6866800">
        <ele>235.2</ele>
        <time>2022-05-26T17:44:08Z</time>
      </trkpt>
      <trkpt lat="41.9593560" lon="2.6866140">
        <ele>235.8</ele>
        <time>2022-05-26T17:44:09Z</time>
      </trkpt>
      <trkpt lat="41.9593360" lon="2.6865440">
        <ele>236.4</ele>
        <time>2022-05-26T17:44:10Z</time>
      </trkpt>
      <trkpt lat="41.9593080" lon="2.6864870">
        <ele>236.8</ele>
        <time>2022-05-26T17:44:11Z</time>
      </trkpt>
      <trkpt lat="41.9592720" lon="2.6864340">
        <ele>237.2</ele>
        <time>2022-05-26T17:44:12Z</time>
      </trkpt>
      <trkpt lat="41.9592330" lon="2.6863870">
        <ele>237.8</ele>
        <time>2022-05-26T17:44:13Z</time>
      </trkpt>
      <trkpt lat="41.9591840" lon="2.6863350">
        <ele>238.2</ele>
        <time>2022-05-26T17:44:14Z</time>
      </trkpt>
      <trkpt lat="41.9591320" lon="2.6862830">
        <ele>238.8</ele>
        <time>2022-05-26T17:44:15Z</time>
      </trkpt>
      <trkpt lat="41.9590820" lon="2.6862340">
        <ele>239.2</ele>
        <time>2022-05-26T17:44:16Z</time>
      </trkpt>
      <trkpt lat="41.9590310" lon="2.6861820">
        <ele>239.6</ele>
        <time>2022-05-26T17:44:17Z</time>
      </trkpt>
      <trkpt lat="41.9589840" lon="2.6861310">
        <ele>240.2</ele>
        <time>2022-05-26T17:44:18Z</time>
      </trkpt>
      <trkpt lat="41.9589460" lon="2.6860860">
        <ele>240.6</ele>
        <time>2022-05-26T17:44:19Z</time>
      </trkpt>
      <trkpt lat="41.9589090" lon="2.6860470">
        <ele>241.0</ele>
        <time>2022-05-26T17:44:20Z</time>
      </trkpt>
      <trkpt lat="41.9588650" lon="2.6860140">
        <ele>241.6</ele>
        <time>2022-05-26T17:44:21Z</time>
      </trkpt>
      <trkpt lat="41.9588190" lon="2.6859830">
        <ele>242.2</ele>
        <time>2022-05-26T17:44:22Z</time>
      </trkpt>
      <trkpt lat="41.9587700" lon="2.6859440">
        <ele>242.8</ele>
        <time>2022-05-26T17:44:23Z</time>
      </trkpt>
      <trkpt lat="41.9587130" lon="2.6858970">
        <ele>243.4</ele>
        <time>2022-05-26T17:44:24Z</time>
      </trkpt>
      <trkpt lat="41.9586570" lon="2.6858420">
        <ele>244.0</ele>
        <time>2022-05-26T17:44:25Z</time>
      </trkpt>
      <trkpt lat="41.9586090" lon="2.6857870">
        <ele>244.8</ele>
        <time>2022-05-26T17:44:26Z</time>
      </trkpt>
      <trkpt lat="41.9585690" lon="2.6857400">
        <ele>245.4</ele>
        <time>2022-05-26T17:44:27Z</time>
      </trkpt>
      <trkpt lat="41.9585300" lon="2.6856870">
        <ele>246.2</ele>
        <time>2022-05-26T17:44:28Z</time>
      </trkpt>
      <trkpt lat="41.9584890" lon="2.6856280">
        <ele>246.8</ele>
        <time>2022-05-26T17:44:29Z</time>
      </trkpt>
      <trkpt lat="41.9584430" lon="2.6855620">
        <ele>247.6</ele>
        <time>2022-05-26T17:44:30Z</time>
      </trkpt>
      <trkpt lat="41.9584050" lon="2.6855000">
        <ele>248.0</ele>
        <time>2022-05-26T17:44:31Z</time>
      </trkpt>
      <trkpt lat="41.9583780" lon="2.6854470">
        <ele>248.6</ele>
        <time>2022-05-26T17:44:32Z</time>
      </trkpt>
      <trkpt lat="41.9583570" lon="2.6853920">
        <ele>249.2</ele>
        <time>2022-05-26T17:44:33Z</time>
      </trkpt>
      <trkpt lat="41.9583510" lon="2.6853200">
        <ele>249.8</ele>
        <time>2022-05-26T17:44:34Z</time>
      </trkpt>
      <trkpt lat="41.9583600" lon="2.6852330">
        <ele>250.4</ele>
        <time>2022-05-26T17:44:35Z</time>
      </trkpt>
      <trkpt lat="41.9583800" lon="2.6851460">
        <ele>251.2</ele>
        <time>2022-05-26T17:44:36Z</time>
      </trkpt>
      <trkpt lat="41.9584040" lon="2.6850720">
        <ele>252.0</ele>
        <time>2022-05-26T17:44:37Z</time>
      </trkpt>
      <trkpt lat="41.9584390" lon="2.6849930">
        <ele>253.0</ele>
        <time>2022-05-26T17:44:38Z</time>
      </trkpt>
      <trkpt lat="41.9584770" lon="2.6849250">
        <ele>254.0</ele>
        <time>2022-05-26T17:44:39Z</time>
      </trkpt>
      <trkpt lat="41.9585270" lon="2.6848760">
        <ele>255.0</ele>
        <time>2022-05-26T17:44:40Z</time>
      </trkpt>
      <trkpt lat="41.9585900" lon="2.6848280">
        <ele>255.8</ele>
        <time>2022-05-26T17:44:41Z</time>
      </trkpt>
      <trkpt lat="41.9586720" lon="2.6847770">
        <ele>256.8</ele>
        <time>2022-05-26T17:44:42Z</time>
      </trkpt>
      <trkpt lat="41.9587680" lon="2.6847170">
        <ele>257.8</ele>
        <time>2022-05-26T17:44:43Z</time>
      </trkpt>
      <trkpt lat="41.9588540" lon="2.6846670">
        <ele>258.6</ele>
        <time>2022-05-26T17:44:44Z</time>
      </trkpt>
      <trkpt lat="41.9589290" lon="2.6846280">
        <ele>259.4</ele>
        <time>2022-05-26T17:44:45Z</time>
      </trkpt>
      <trkpt lat="41.9589950" lon="2.6845930">
        <ele>260.2</ele>
        <time>2022-05-26T17:44:46Z</time>
      </trkpt>
      <trkpt lat="41.9590500" lon="2.6845610">
        <ele>260.8</ele>
        <time>2022-05-26T17:44:47Z</time>
      </trkpt>
      <trkpt lat="41.9590940" lon="2.6845300">
        <ele>261.4</ele>
        <time>2022-05-26T17:44:48Z</time>
      </trkpt>
      <trkpt lat="41.9591270" lon="2.6844980">
        <ele>261.8</ele>
        <time>2022-05-26T17:44:49Z</time>
      </trkpt>
      <trkpt lat="41.9591570" lon="2.6844690">
        <ele>262.2</ele>
        <time>2022-05-26T17:44:50Z</time>
      </trkpt>
      <trkpt lat="41.9591810" lon="2.6844470">
        <ele>262.6</ele>
        <time>2022-05-26T17:44:51Z</time>
      </trkpt>
      <trkpt lat="41.9592000" lon="2.6844280">
        <ele>262.6</ele>
        <time>2022-05-26T17:44:52Z</time>
      </trkpt>
      <trkpt lat="41.9592170" lon="2.6844040">
        <ele>262.6</ele>
        <time>2022-05-26T17:44:53Z</time>
      </trkpt>
      <trkpt lat="41.9592320" lon="2.6843700">
        <ele>262.6</ele>
        <time>2022-05-26T17:44:54Z</time>
      </trkpt>
      <trkpt lat="41.9592340" lon="2.6843280">
        <ele>262.2</ele>
        <time>2022-05-26T17:44:55Z</time>
      </trkpt>
      <trkpt lat="41.9592320" lon="2.6842660">
        <ele>262.0</ele>
        <time>2022-05-26T17:44:56Z</time>
      </trkpt>
      <trkpt lat="41.9592180" lon="2.6841880">
        <ele>261.6</ele>
        <time>2022-05-26T17:44:57Z</time>
      </trkpt>
      <trkpt lat="41.9592020" lon="2.6840980">
        <ele>261.2</ele>
        <time>2022-05-26T17:44:58Z</time>
      </trkpt>
      <trkpt lat="41.9591810" lon="2.6840050">
        <ele>261.0</ele>
        <time>2022-05-26T17:44:59Z</time>
      </trkpt>
      <trkpt lat="41.9591360" lon="2.6838940">
        <ele>260.6</ele>
        <time>2022-05-26T17:45:00Z</time>
      </trkpt>
      <trkpt lat="41.9590820" lon="2.6837590">
        <ele>260.2</ele>
        <time>2022-05-26T17:45:01Z</time>
      </trkpt>
      <trkpt lat="41.9590230" lon="2.6836300">
        <ele>259.8</ele>
        <time>2022-05-26T17:45:02Z</time>
      </trkpt>
      <trkpt lat="41.9589820" lon="2.6835150">
        <ele>259.2</ele>
        <time>2022-05-26T17:45:03Z</time>
      </trkpt>
      <trkpt lat="41.9589720" lon="2.6834160">
        <ele>259.0</ele>
        <time>2022-05-26T17:45:04Z</time>
      </trkpt>
      <trkpt lat="41.9589830" lon="2.6833110">
        <ele>258.6</ele>
        <time>2022-05-26T17:45:05Z</time>
      </trkpt>
      <trkpt lat="41.9590220" lon="2.6832130">
        <ele>258.4</ele>
        <time>2022-05-26T17:45:06Z</time>
      </trkpt>
      <trkpt lat="41.9590790" lon="2.6831270">
        <ele>258.4</ele>
        <time>2022-05-26T17:45:07Z</time>
      </trkpt>
      <trkpt lat="41.9591470" lon="2.6830540">
        <ele>258.6</ele>
        <time>2022-05-26T17:45:08Z</time>
      </trkpt>
      <trkpt lat="41.9592200" lon="2.6829960">
        <ele>258.4</ele>
        <time>2022-05-26T17:45:09Z</time>
      </trkpt>
      <trkpt lat="41.9593120" lon="2.6829440">
        <ele>258.4</ele>
        <time>2022-05-26T17:45:10Z</time>
      </trkpt>
      <trkpt lat="41.9594140" lon="2.6828940">
        <ele>258.2</ele>
        <time>2022-05-26T17:45:11Z</time>
      </trkpt>
      <trkpt lat="41.9595170" lon="2.6828310">
        <ele>258.0</ele>
        <time>2022-05-26T17:45:12Z</time>
      </trkpt>
      <trkpt lat="41.9595990" lon="2.6827640">
        <ele>257.6</ele>
        <time>2022-05-26T17:45:13Z</time>
      </trkpt>
      <trkpt lat="41.9596550" lon="2.6827030">
        <ele>257.0</ele>
        <time>2022-05-26T17:45:14Z</time>
      </trkpt>
      <trkpt lat="41.9596990" lon="2.6826340">
        <ele>256.6</ele>
        <time>2022-05-26T17:45:15Z</time>
      </trkpt>
      <trkpt lat="41.9597300" lon="2.6825500">
        <ele>256.2</ele>
        <time>2022-05-26T17:45:16Z</time>
      </trkpt>
      <trkpt lat="41.9597280" lon="2.6824530">
        <ele>255.6</ele>
        <time>2022-05-26T17:45:17Z</time>
      </trkpt>
      <trkpt lat="41.9597040" lon="2.6823420">
        <ele>255.2</ele>
        <time>2022-05-26T17:45:18Z</time>
      </trkpt>
      <trkpt lat="41.9596480" lon="2.6822210">
        <ele>254.4</ele>
        <time>2022-05-26T17:45:19Z</time>
      </trkpt>
      <trkpt lat="41.9595890" lon="2.6821130">
        <ele>253.8</ele>
        <time>2022-05-26T17:45:20Z</time>
      </trkpt>
      <trkpt lat="41.9595420" lon="2.6820160">
        <ele>253.0</ele>
        <time>2022-05-26T17:45:21Z</time>
      </trkpt>
      <trkpt lat="41.9595190" lon="2.6819290">
        <ele>252.4</ele>
        <time>2022-05-26T17:45:22Z</time>
      </trkpt>
      <trkpt lat="41.9595110" lon="2.6818530">
        <ele>251.6</ele>
        <time>2022-05-26T17:45:23Z</time>
      </trkpt>
      <trkpt lat="41.9595260" lon="2.6817770">
        <ele>251.0</ele>
        <time>2022-05-26T17:45:24Z</time>
      </trkpt>
      <trkpt lat="41.9595540" lon="2.6817070">
        <ele>250.4</ele>
        <time>2022-05-26T17:45:25Z</time>
      </trkpt>
      <trkpt lat="41.9595850" lon="2.6816560">
        <ele>250.0</ele>
        <time>2022-05-26T17:45:26Z</time>
      </trkpt>
      <trkpt lat="41.9596150" lon="2.6816090">
        <ele>249.8</ele>
        <time>2022-05-26T17:45:27Z</time>
      </trkpt>
      <trkpt lat="41.9596460" lon="2.6815510">
        <ele>249.6</ele>
        <time>2022-05-26T17:45:28Z</time>
      </trkpt>
      <trkpt lat="41.9596850" lon="2.6814820">
        <ele>249.4</ele>
        <time>2022-05-26T17:45:29Z</time>
      </trkpt>
      <trkpt lat="41.9597340" lon="2.6813930">
        <ele>249.4</ele>
        <time>2022-05-26T17:45:30Z</time>
      </trkpt>
      <trkpt lat="41.9597900" lon="2.6813100">
        <ele>249.4</ele>
        <time>2022-05-26T17:45:31Z</time>
      </trkpt>
      <trkpt lat="41.9598470" lon="2.6812490">
        <ele>249.6</ele>
        <time>2022-05-26T17:45:32Z</time>
      </trkpt>
      <trkpt lat="41.9599000" lon="2.6812040">
        <ele>249.8</ele>
        <time>2022-05-26T17:45:33Z</time>
      </trkpt>
      <trkpt lat="41.9599500" lon="2.6811420">
        <ele>250.2</ele>
        <time>2022-05-26T17:45:34Z</time>
      </trkpt>
      <trkpt lat="41.9599670" lon="2.6810650">
        <ele>250.8</ele>
        <time>2022-05-26T17:45:35Z</time>
      </trkpt>
      <trkpt lat="41.9599660" lon="2.6809830">
        <ele>251.4</ele>
        <time>2022-05-26T17:45:36Z</time>
      </trkpt>
      <trkpt lat="41.9599250" lon="2.6808860">
        <ele>251.8</ele>
        <time>2022-05-26T17:45:37Z</time>
      </trkpt>
      <trkpt lat="41.9598770" lon="2.6807730">
        <ele>252.4</ele>
        <time>2022-05-26T17:45:38Z</time>
      </trkpt>
      <trkpt lat="41.9598370" lon="2.6806350">
        <ele>252.8</ele>
        <time>2022-05-26T17:45:39Z</time>
      </trkpt>
      <trkpt lat="41.9598170" lon="2.6804950">
        <ele>253.0</ele>
        <time>2022-05-26T17:45:40Z</time>
      </trkpt>
      <trkpt lat="41.9598010" lon="2.6803720">
        <ele>253.0</ele>
        <time>2022-05-26T17:45:41Z</time>
      </trkpt>
      <trkpt lat="41.9597900" lon="2.6802720">
        <ele>253.2</ele>
        <time>2022-05-26T17:45:42Z</time>
      </trkpt>
      <trkpt lat="41.9597840" lon="2.6801710">
        <ele>253.2</ele>
        <time>2022-05-26T17:45:43Z</time>
      </trkpt>
      <trkpt lat="41.9597870" lon="2.6800520">
        <ele>253.2</ele>
        <time>2022-05-26T17:45:44Z</time>
      </trkpt>
      <trkpt lat="41.9598010" lon="2.6799270">
        <ele>253.6</ele>
        <time>2022-05-26T17:45:45Z</time>
      </trkpt>
      <trkpt lat="41.9598210" lon="2.6798040">
        <ele>254.0</ele>
        <time>2022-05-26T17:45:46Z</time>
      </trkpt>
      <trkpt lat="41.9598480" lon="2.6796880">
        <ele>254.2</ele>
        <time>2022-05-26T17:45:47Z</time>
      </trkpt>
      <trkpt lat="41.9598840" lon="2.6795810">
        <ele>254.8</ele>
        <time>2022-05-26T17:45:48Z</time>
      </trkpt>
      <trkpt lat="41.9599340" lon="2.6794790">
        <ele>255.0</ele>
        <time>2022-05-26T17:45:49Z</time>
      </trkpt>
      <trkpt lat="41.9599960" lon="2.6793850">
        <ele>255.4</ele>
        <time>2022-05-26T17:45:50Z</time>
      </trkpt>
      <trkpt lat="41.9600610" lon="2.6792910">
        <ele>255.6</ele>
        <time>2022-05-26T17:45:51Z</time>
      </trkpt>
      <trkpt lat="41.9601130" lon="2.6791980">
        <ele>255.6</ele>
        <time>2022-05-26T17:45:52Z</time>
      </trkpt>
      <trkpt lat="41.9601470" lon="2.6791130">
        <ele>255.6</ele>
        <time>2022-05-26T17:45:53Z</time>
      </trkpt>
      <trkpt lat="41.9601580" lon="2.6790440">
        <ele>255.8</ele>
        <time>2022-05-26T17:45:54Z</time>
      </trkpt>
      <trkpt lat="41.9601570" lon="2.6789840">
        <ele>256.0</ele>
        <time>2022-05-26T17:45:55Z</time>
      </trkpt>
      <trkpt lat="41.9601350" lon="2.6789260">
        <ele>256.4</ele>
        <time>2022-05-26T17:45:56Z</time>
      </trkpt>
      <trkpt lat="41.9600920" lon="2.6788680">
        <ele>256.8</ele>
        <time>2022-05-26T17:45:57Z</time>
      </trkpt>
      <trkpt lat="41.9600300" lon="2.6788120">
        <ele>257.4</ele>
        <time>2022-05-26T17:45:58Z</time>
      </trkpt>
      <trkpt lat="41.9599640" lon="2.6787700">
        <ele>258.2</ele>
        <time>2022-05-26T17:45:59Z</time>
      </trkpt>
      <trkpt lat="41.9598840" lon="2.6787460">
        <ele>259.2</ele>
        <time>2022-05-26T17:46:00Z</time>
      </trkpt>
      <trkpt lat="41.9597920" lon="2.6787380">
        <ele>260.0</ele>
        <time>2022-05-26T17:46:01Z</time>
      </trkpt>
      <trkpt lat="41.9596970" lon="2.6787490">
        <ele>260.6</ele>
        <time>2022-05-26T17:46:02Z</time>
      </trkpt>
      <trkpt lat="41.9595960" lon="2.6787470">
        <ele>261.2</ele>
        <time>2022-05-26T17:46:03Z</time>
      </trkpt>
      <trkpt lat="41.9594880" lon="2.6787470">
        <ele>261.8</ele>
        <time>2022-05-26T17:46:04Z</time>
      </trkpt>
      <trkpt lat="41.9593920" lon="2.6787420">
        <ele>262.2</ele>
        <time>2022-05-26T17:46:05Z</time>
      </trkpt>
      <trkpt lat="41.9593080" lon="2.6787330">
        <ele>262.8</ele>
        <time>2022-05-26T17:46:06Z</time>
      </trkpt>
      <trkpt lat="41.9592270" lon="2.6787210">
        <ele>263.2</ele>
        <time>2022-05-26T17:46:07Z</time>
      </trkpt>
      <trkpt lat="41.9591560" lon="2.6787040">
        <ele>263.6</ele>
        <time>2022-05-26T17:46:08Z</time>
      </trkpt>
      <trkpt lat="41.9591020" lon="2.6786880">
        <ele>264.0</ele>
        <time>2022-05-26T17:46:09Z</time>
      </trkpt>
      <trkpt lat="41.9590600" lon="2.6786780">
        <ele>264.0</ele>
        <time>2022-05-26T17:46:10Z</time>
      </trkpt>
      <trkpt lat="41.9590240" lon="2.6786740">
        <ele>264.2</ele>
        <time>2022-05-26T17:46:11Z</time>
      </trkpt>
      <trkpt lat="41.9589900" lon="2.6786760">
        <ele>264.4</ele>
        <time>2022-05-26T17:46:12Z</time>
      </trkpt>
      <trkpt lat="41.9589640" lon="2.6786970">
        <ele>264.4</ele>
        <time>2022-05-26T17:46:13Z</time>
      </trkpt>
      <trkpt lat="41.9589450" lon="2.6787430">
        <ele>264.6</ele>
        <time>2022-05-26T17:46:14Z</time>
      </trkpt>
      <trkpt lat="41.9589250" lon="2.6788080">
        <ele>264.6</ele>
        <time>2022-05-26T17:46:15Z</time>
      </trkpt>
      <trkpt lat="41.9588970" lon="2.6788850">
        <ele>264.6</ele>
        <time>2022-05-26T17:46:16Z</time>
      </trkpt>
      <trkpt lat="41.9588580" lon="2.6789720">
        <ele>264.8</ele>
        <time>2022-05-26T17:46:17Z</time>
      </trkpt>
      <trkpt lat="41.9588110" lon="2.6790400">
        <ele>264.8</ele>
        <time>2022-05-26T17:46:18Z</time>
      </trkpt>
      <trkpt lat="41.9587520" lon="2.6790800">
        <ele>265.0</ele>
        <time>2022-05-26T17:46:19Z</time>
      </trkpt>
      <trkpt lat="41.9586850" lon="2.6791030">
        <ele>265.0</ele>
        <time>2022-05-26T17:46:20Z</time>
      </trkpt>
      <trkpt lat="41.9586070" lon="2.6791340">
        <ele>265.2</ele>
        <time>2022-05-26T17:46:21Z</time>
      </trkpt>
      <trkpt lat="41.9585210" lon="2.6791890">
        <ele>265.4</ele>
        <time>2022-05-26T17:46:22Z</time>
      </trkpt>
      <trkpt lat="41.9584530" lon="2.6792610">
        <ele>265.4</ele>
        <time>2022-05-26T17:46:23Z</time>
      </trkpt>
      <trkpt lat="41.9584070" lon="2.6793440">
        <ele>265.6</ele>
        <time>2022-05-26T17:46:24Z</time>
      </trkpt>
      <trkpt lat="41.9583740" lon="2.6794320">
        <ele>265.6</ele>
        <time>2022-05-26T17:46:25Z</time>
      </trkpt>
      <trkpt lat="41.9583360" lon="2.6795430">
        <ele>265.6</ele>
        <time>2022-05-26T17:46:26Z</time>
      </trkpt>
      <trkpt lat="41.9582920" lon="2.6796610">
        <ele>265.6</ele>
        <time>2022-05-26T17:46:27Z</time>
      </trkpt>
      <trkpt lat="41.9582410" lon="2.6797700">
        <ele>265.6</ele>
        <time>2022-05-26T17:46:28Z</time>
      </trkpt>
      <trkpt lat="41.9581950" lon="2.6798730">
        <ele>265.6</ele>
        <time>2022-05-26T17:46:29Z</time>
      </trkpt>
      <trkpt lat="41.9581600" lon="2.6799760">
        <ele>265.6</ele>
        <time>2022-05-26T17:46:30Z</time>
      </trkpt>
      <trkpt lat="41.9581310" lon="2.6800790">
        <ele>265.4</ele>
        <time>2022-05-26T17:46:31Z</time>
      </trkpt>
      <trkpt lat="41.9581040" lon="2.6801770">
        <ele>265.4</ele>
        <time>2022-05-26T17:46:32Z</time>
      </trkpt>
      <trkpt lat="41.9580730" lon="2.6802580">
        <ele>265.2</ele>
        <time>2022-05-26T17:46:33Z</time>
      </trkpt>
      <trkpt lat="41.9580360" lon="2.6803060">
        <ele>265.2</ele>
        <time>2022-05-26T17:46:34Z</time>
      </trkpt>
      <trkpt lat="41.9579860" lon="2.6803290">
        <ele>265.2</ele>
        <time>2022-05-26T17:46:35Z</time>
      </trkpt>
      <trkpt lat="41.9579230" lon="2.6803320">
        <ele>265.2</ele>
        <time>2022-05-26T17:46:36Z</time>
      </trkpt>
      <trkpt lat="41.9578500" lon="2.6803120">
        <ele>265.0</ele>
        <time>2022-05-26T17:46:37Z</time>
      </trkpt>
      <trkpt lat="41.9577770" lon="2.6802690">
        <ele>265.2</ele>
        <time>2022-05-26T17:46:38Z</time>
      </trkpt>
      <trkpt lat="41.9577200" lon="2.6802150">
        <ele>265.0</ele>
        <time>2022-05-26T17:46:39Z</time>
      </trkpt>
      <trkpt lat="41.9576650" lon="2.6801480">
        <ele>265.0</ele>
        <time>2022-05-26T17:46:40Z</time>
      </trkpt>
      <trkpt lat="41.9576060" lon="2.6800780">
        <ele>265.0</ele>
        <time>2022-05-26T17:46:41Z</time>
      </trkpt>
      <trkpt lat="41.9575460" lon="2.6800080">
        <ele>265.0</ele>
        <time>2022-05-26T17:46:42Z</time>
      </trkpt>
      <trkpt lat="41.9574810" lon="2.6799630">
        <ele>265.0</ele>
        <time>2022-05-26T17:46:43Z</time>
      </trkpt>
      <trkpt lat="41.9574190" lon="2.6799420">
        <ele>265.2</ele>
        <time>2022-05-26T17:46:44Z</time>
      </trkpt>
      <trkpt lat="41.9573680" lon="2.6799370">
        <ele>265.2</ele>
        <time>2022-05-26T17:46:45Z</time>
      </trkpt>
      <trkpt lat="41.9573400" lon="2.6799530">
        <ele>265.4</ele>
        <time>2022-05-26T17:46:46Z</time>
      </trkpt>
      <trkpt lat="41.9573350" lon="2.6799990">
        <ele>266.0</ele>
        <time>2022-05-26T17:46:47Z</time>
      </trkpt>
      <trkpt lat="41.9573500" lon="2.6800760">
        <ele>266.6</ele>
        <time>2022-05-26T17:46:48Z</time>
      </trkpt>
      <trkpt lat="41.9573770" lon="2.6801640">
        <ele>267.4</ele>
        <time>2022-05-26T17:46:49Z</time>
      </trkpt>
      <trkpt lat="41.9574040" lon="2.6802550">
        <ele>268.4</ele>
        <time>2022-05-26T17:46:50Z</time>
      </trkpt>
      <trkpt lat="41.9574270" lon="2.6803570">
        <ele>269.0</ele>
        <time>2022-05-26T17:46:51Z</time>
      </trkpt>
      <trkpt lat="41.9574330" lon="2.6804550">
        <ele>270.0</ele>
        <time>2022-05-26T17:46:52Z</time>
      </trkpt>
      <trkpt lat="41.9574330" lon="2.6805610">
        <ele>270.6</ele>
        <time>2022-05-26T17:46:53Z</time>
      </trkpt>
      <trkpt lat="41.9574120" lon="2.6806580">
        <ele>271.0</ele>
        <time>2022-05-26T17:46:54Z</time>
      </trkpt>
      <trkpt lat="41.9573960" lon="2.6807660">
        <ele>271.6</ele>
        <time>2022-05-26T17:46:55Z</time>
      </trkpt>
      <trkpt lat="41.9573920" lon="2.6808770">
        <ele>272.0</ele>
        <time>2022-05-26T17:46:56Z</time>
      </trkpt>
      <trkpt lat="41.9574050" lon="2.6809800">
        <ele>272.6</ele>
        <time>2022-05-26T17:46:57Z</time>
      </trkpt>
      <trkpt lat="41.9574360" lon="2.6811050">
        <ele>273.0</ele>
        <time>2022-05-26T17:46:58Z</time>
      </trkpt>
      <trkpt lat="41.9574700" lon="2.6812330">
        <ele>273.4</ele>
        <time>2022-05-26T17:46:59Z</time>
      </trkpt>
      <trkpt lat="41.9574900" lon="2.6813470">
        <ele>273.6</ele>
        <time>2022-05-26T17:47:00Z</time>
      </trkpt>
      <trkpt lat="41.9575110" lon="2.6814750">
        <ele>274.0</ele>
        <time>2022-05-26T17:47:01Z</time>
      </trkpt>
      <trkpt lat="41.9575120" lon="2.6816210">
        <ele>274.0</ele>
        <time>2022-05-26T17:47:02Z</time>
      </trkpt>
      <trkpt lat="41.9575060" lon="2.6817410">
        <ele>274.2</ele>
        <time>2022-05-26T17:47:03Z</time>
      </trkpt>
      <trkpt lat="41.9574940" lon="2.6818190">
        <ele>274.2</ele>
        <time>2022-05-26T17:47:04Z</time>
      </trkpt>
      <trkpt lat="41.9574840" lon="2.6818630">
        <ele>274.4</ele>
        <time>2022-05-26T17:47:05Z</time>
      </trkpt>
      <trkpt lat="41.9574730" lon="2.6818880">
        <ele>274.4</ele>
        <time>2022-05-26T17:47:06Z</time>
      </trkpt>
      <trkpt lat="41.9574590" lon="2.6819110">
        <ele>274.6</ele>
        <time>2022-05-26T17:47:07Z</time>
      </trkpt>
      <trkpt lat="41.9574460" lon="2.6819400">
        <ele>274.8</ele>
        <time>2022-05-26T17:47:08Z</time>
      </trkpt>
      <trkpt lat="41.9574250" lon="2.6819840">
        <ele>275.2</ele>
        <time>2022-05-26T17:47:09Z</time>
      </trkpt>
      <trkpt lat="41.9573970" lon="2.6820430">
        <ele>275.8</ele>
        <time>2022-05-26T17:47:10Z</time>
      </trkpt>
      <trkpt lat="41.9573590" lon="2.6821090">
        <ele>276.4</ele>
        <time>2022-05-26T17:47:11Z</time>
      </trkpt>
      <trkpt lat="41.9573000" lon="2.6821950">
        <ele>276.8</ele>
        <time>2022-05-26T17:47:12Z</time>
      </trkpt>
      <trkpt lat="41.9572350" lon="2.6822830">
        <ele>277.4</ele>
        <time>2022-05-26T17:47:13Z</time>
      </trkpt>
      <trkpt lat="41.9571680" lon="2.6823610">
        <ele>277.8</ele>
        <time>2022-05-26T17:47:14Z</time>
      </trkpt>
      <trkpt lat="41.9570980" lon="2.6824320">
        <ele>278.2</ele>
        <time>2022-05-26T17:47:15Z</time>
      </trkpt>
      <trkpt lat="41.9570360" lon="2.6824860">
        <ele>278.6</ele>
        <time>2022-05-26T17:47:16Z</time>
      </trkpt>
      <trkpt lat="41.9569880" lon="2.6825190">
        <ele>279.2</ele>
        <time>2022-05-26T17:47:17Z</time>
      </trkpt>
      <trkpt lat="41.9569450" lon="2.6825300">
        <ele>279.6</ele>
        <time>2022-05-26T17:47:18Z</time>
      </trkpt>
      <trkpt lat="41.9568990" lon="2.6825220">
        <ele>280.0</ele>
        <time>2022-05-26T17:47:19Z</time>
      </trkpt>
      <trkpt lat="41.9568420" lon="2.6825030">
        <ele>280.0</ele>
        <time>2022-05-26T17:47:20Z</time>
      </trkpt>
      <trkpt lat="41.9567790" lon="2.6825100">
        <ele>280.2</ele>
        <time>2022-05-26T17:47:21Z</time>
      </trkpt>
      <trkpt lat="41.9567260" lon="2.6825330">
        <ele>280.6</ele>
        <time>2022-05-26T17:47:22Z</time>
      </trkpt>
      <trkpt lat="41.9566920" lon="2.6825750">
        <ele>281.0</ele>
        <time>2022-05-26T17:47:23Z</time>
      </trkpt>
      <trkpt lat="41.9566780" lon="2.6826380">
        <ele>281.6</ele>
        <time>2022-05-26T17:47:24Z</time>
      </trkpt>
      <trkpt lat="41.9566830" lon="2.6827250">
        <ele>282.2</ele>
        <time>2022-05-26T17:47:25Z</time>
      </trkpt>
      <trkpt lat="41.9567000" lon="2.6828370">
        <ele>283.0</ele>
        <time>2022-05-26T17:47:26Z</time>
      </trkpt>
      <trkpt lat="41.9567150" lon="2.6829640">
        <ele>283.6</ele>
        <time>2022-05-26T17:47:27Z</time>
      </trkpt>
      <trkpt lat="41.9567260" lon="2.6830840">
        <ele>284.0</ele>
        <time>2022-05-26T17:47:28Z</time>
      </trkpt>
      <trkpt lat="41.9567420" lon="2.6831920">
        <ele>284.2</ele>
        <time>2022-05-26T17:47:29Z</time>
      </trkpt>
      <trkpt lat="41.9567660" lon="2.6833140">
        <ele>284.4</ele>
        <time>2022-05-26T17:47:30Z</time>
      </trkpt>
      <trkpt lat="41.9567960" lon="2.6834520">
        <ele>284.6</ele>
        <time>2022-05-26T17:47:31Z</time>
      </trkpt>
      <trkpt lat="41.9568070" lon="2.6835790">
        <ele>285.0</ele>
        <time>2022-05-26T17:47:32Z</time>
      </trkpt>
      <trkpt lat="41.9568140" lon="2.6836910">
        <ele>285.4</ele>
        <time>2022-05-26T17:47:33Z</time>
      </trkpt>
      <trkpt lat="41.9567930" lon="2.6837940">
        <ele>285.4</ele>
        <time>2022-05-26T17:47:34Z</time>
      </trkpt>
      <trkpt lat="41.9567560" lon="2.6838820">
        <ele>285.4</ele>
        <time>2022-05-26T17:47:35Z</time>
      </trkpt>
      <trkpt lat="41.9567100" lon="2.6839480">
        <ele>285.4</ele>
        <time>2022-05-26T17:47:36Z</time>
      </trkpt>
      <trkpt lat="41.9566760" lon="2.6839850">
        <ele>285.2</ele>
        <time>2022-05-26T17:47:37Z</time>
      </trkpt>
      <trkpt lat="41.9566460" lon="2.6839970">
        <ele>285.2</ele>
        <time>2022-05-26T17:47:38Z</time>
      </trkpt>
      <trkpt lat="41.9566290" lon="2.6839840">
        <ele>284.8</ele>
        <time>2022-05-26T17:47:39Z</time>
      </trkpt>
      <trkpt lat="41.9566190" lon="2.6839480">
        <ele>284.6</ele>
        <time>2022-05-26T17:47:40Z</time>
      </trkpt>
      <trkpt lat="41.9566070" lon="2.6839060">
        <ele>284.2</ele>
        <time>2022-05-26T17:47:41Z</time>
      </trkpt>
      <trkpt lat="41.9565880" lon="2.6838720">
        <ele>283.8</ele>
        <time>2022-05-26T17:47:42Z</time>
      </trkpt>
      <trkpt lat="41.9565630" lon="2.6838460">
        <ele>283.4</ele>
        <time>2022-05-26T17:47:43Z</time>
      </trkpt>
      <trkpt lat="41.9565370" lon="2.6838230">
        <ele>283.0</ele>
        <time>2022-05-26T17:47:44Z</time>
      </trkpt>
      <trkpt lat="41.9565070" lon="2.6838080">
        <ele>282.4</ele>
        <time>2022-05-26T17:47:45Z</time>
      </trkpt>
      <trkpt lat="41.9564740" lon="2.6838000">
        <ele>281.8</ele>
        <time>2022-05-26T17:47:46Z</time>
      </trkpt>
      <trkpt lat="41.9564380" lon="2.6837990">
        <ele>281.2</ele>
        <time>2022-05-26T17:47:47Z</time>
      </trkpt>
      <trkpt lat="41.9564030" lon="2.6838030">
        <ele>280.6</ele>
        <time>2022-05-26T17:47:48Z</time>
      </trkpt>
      <trkpt lat="41.9563710" lon="2.6838020">
        <ele>280.0</ele>
        <time>2022-05-26T17:47:49Z</time>
      </trkpt>
      <trkpt lat="41.9563420" lon="2.6838040">
        <ele>279.4</ele>
        <time>2022-05-26T17:47:50Z</time>
      </trkpt>
      <trkpt lat="41.9563100" lon="2.6838090">
        <ele>278.8</ele>
        <time>2022-05-26T17:47:51Z</time>
      </trkpt>
      <trkpt lat="41.9562730" lon="2.6838150">
        <ele>278.2</ele>
        <time>2022-05-26T17:47:52Z</time>
      </trkpt>
      <trkpt lat="41.9562310" lon="2.6838210">
        <ele>277.6</ele>
        <time>2022-05-26T17:47:53Z</time>
      </trkpt>
      <trkpt lat="41.9561900" lon="2.6838270">
        <ele>276.8</ele>
        <time>2022-05-26T17:47:54Z</time>
      </trkpt>
      <trkpt lat="41.9561600" lon="2.6838260">
        <ele>276.2</ele>
        <time>2022-05-26T17:47:55Z</time>
      </trkpt>
      <trkpt lat="41.9561380" lon="2.6838170">
        <ele>275.4</ele>
        <time>2022-05-26T17:47:56Z</time>
      </trkpt>
      <trkpt lat="41.9561180" lon="2.6837930">
        <ele>274.6</ele>
        <time>2022-05-26T17:47:57Z</time>
      </trkpt>
      <trkpt lat="41.9560980" lon="2.6837740">
        <ele>274.0</ele>
        <time>2022-05-26T17:47:58Z</time>
      </trkpt>
      <trkpt lat="41.9560790" lon="2.6837770">
        <ele>273.6</ele>
        <time>2022-05-26T17:47:59Z</time>
      </trkpt>
      <trkpt lat="41.9560520" lon="2.6837870">
        <ele>273.0</ele>
        <time>2022-05-26T17:48:00Z</time>
      </trkpt>
      <trkpt lat="41.9560180" lon="2.6838040">
        <ele>272.4</ele>
        <time>2022-05-26T17:48:01Z</time>
      </trkpt>
      <trkpt lat="41.9559760" lon="2.6838110">
        <ele>272.0</ele>
        <time>2022-05-26T17:48:02Z</time>
      </trkpt>
      <trkpt lat="41.9559170" lon="2.6838140">
        <ele>271.4</ele>
        <time>2022-05-26T17:48:03Z</time>
      </trkpt>
      <trkpt lat="41.9558560" lon="2.6838270">
        <ele>271.0</ele>
        <time>2022-05-26T17:48:04Z</time>
      </trkpt>
      <trkpt lat="41.9558140" lon="2.6838450">
        <ele>270.6</ele>
        <time>2022-05-26T17:48:05Z</time>
      </trkpt>
      <trkpt lat="41.9557870" lon="2.6838750">
        <ele>270.2</ele>
        <time>2022-05-26T17:48:06Z</time>
      </trkpt>
      <trkpt lat="41.9557590" lon="2.6839010">
        <ele>269.8</ele>
        <time>2022-05-26T17:48:07Z</time>
      </trkpt>
      <trkpt lat="41.9557270" lon="2.6839230">
        <ele>269.4</ele>
        <time>2022-05-26T17:48:08Z</time>
      </trkpt>
      <trkpt lat="41.9556950" lon="2.6839390">
        <ele>269.0</ele>
        <time>2022-05-26T17:48:09Z</time>
      </trkpt>
      <trkpt lat="41.9556500" lon="2.6839610">
        <ele>268.6</ele>
        <time>2022-05-26T17:48:10Z</time>
      </trkpt>
      <trkpt lat="41.9556020" lon="2.6839920">
        <ele>268.0</ele>
        <time>2022-05-26T17:48:11Z</time>
      </trkpt>
      <trkpt lat="41.9555550" lon="2.6840230">
        <ele>267.4</ele>
        <time>2022-05-26T17:48:12Z</time>
      </trkpt>
      <trkpt lat="41.9555050" lon="2.6840560">
        <ele>267.0</ele>
        <time>2022-05-26T17:48:13Z</time>
      </trkpt>
      <trkpt lat="41.9554610" lon="2.6840820">
        <ele>266.4</ele>
        <time>2022-05-26T17:48:14Z</time>
      </trkpt>
      <trkpt lat="41.9554180" lon="2.6841020">
        <ele>265.8</ele>
        <time>2022-05-26T17:48:15Z</time>
      </trkpt>
      <trkpt lat="41.9553740" lon="2.6841270">
        <ele>265.4</ele>
        <time>2022-05-26T17:48:16Z</time>
      </trkpt>
      <trkpt lat="41.9553270" lon="2.6841650">
        <ele>264.8</ele>
        <time>2022-05-26T17:48:17Z</time>
      </trkpt>
      <trkpt lat="41.9552860" lon="2.6842070">
        <ele>264.4</ele>
        <time>2022-05-26T17:48:18Z</time>
      </trkpt>
      <trkpt lat="41.9552450" lon="2.6842700">
        <ele>264.0</ele>
        <time>2022-05-26T17:48:19Z</time>
      </trkpt>
      <trkpt lat="41.9552040" lon="2.6843370">
        <ele>263.6</ele>
        <time>2022-05-26T17:48:20Z</time>
      </trkpt>
      <trkpt lat="41.9551690" lon="2.6843930">
        <ele>263.2</ele>
        <time>2022-05-26T17:48:21Z</time>
      </trkpt>
      <trkpt lat="41.9551240" lon="2.6844470">
        <ele>262.8</ele>
        <time>2022-05-26T17:48:22Z</time>
      </trkpt>
      <trkpt lat="41.9550740" lon="2.6845010">
        <ele>262.4</ele>
        <time>2022-05-26T17:48:23Z</time>
      </trkpt>
      <trkpt lat="41.9550260" lon="2.6845520">
        <ele>262.0</ele>
        <time>2022-05-26T17:48:24Z</time>
      </trkpt>
      <trkpt lat="41.9549840" lon="2.6846010">
        <ele>261.6</ele>
        <time>2022-05-26T17:48:25Z</time>
      </trkpt>
      <trkpt lat="41.9549450" lon="2.6846480">
        <ele>261.2</ele>
        <time>2022-05-26T17:48:26Z</time>
      </trkpt>
      <trkpt lat="41.9549050" lon="2.6846840">
        <ele>260.8</ele>
        <time>2022-05-26T17:48:27Z</time>
      </trkpt>
      <trkpt lat="41.9548620" lon="2.6847190">
        <ele>260.6</ele>
        <time>2022-05-26T17:48:28Z</time>
      </trkpt>
      <trkpt lat="41.9548130" lon="2.6847620">
        <ele>260.2</ele>
        <time>2022-05-26T17:48:29Z</time>
      </trkpt>
      <trkpt lat="41.9547570" lon="2.6848060">
        <ele>260.0</ele>
        <time>2022-05-26T17:48:30Z</time>
      </trkpt>
      <trkpt lat="41.9546940" lon="2.6848560">
        <ele>259.8</ele>
        <time>2022-05-26T17:48:31Z</time>
      </trkpt>
      <trkpt lat="41.9546330" lon="2.6849090">
        <ele>259.8</ele>
        <time>2022-05-26T17:48:32Z</time>
      </trkpt>
      <trkpt lat="41.9545810" lon="2.6849690">
        <ele>259.8</ele>
        <time>2022-05-26T17:48:33Z</time>
      </trkpt>
      <trkpt lat="41.9545420" lon="2.6850380">
        <ele>259.8</ele>
        <time>2022-05-26T17:48:34Z</time>
      </trkpt>
      <trkpt lat="41.9545100" lon="2.6851140">
        <ele>259.8</ele>
        <time>2022-05-26T17:48:35Z</time>
      </trkpt>
      <trkpt lat="41.9544770" lon="2.6851820">
        <ele>260.0</ele>
        <time>2022-05-26T17:48:36Z</time>
      </trkpt>
      <trkpt lat="41.9544460" lon="2.6852440">
        <ele>260.2</ele>
        <time>2022-05-26T17:48:37Z</time>
      </trkpt>
      <trkpt lat="41.9544190" lon="2.6853070">
        <ele>260.4</ele>
        <time>2022-05-26T17:48:38Z</time>
      </trkpt>
      <trkpt lat="41.9543950" lon="2.6853690">
        <ele>260.6</ele>
        <time>2022-05-26T17:48:39Z</time>
      </trkpt>
      <trkpt lat="41.9543730" lon="2.6854220">
        <ele>260.8</ele>
        <time>2022-05-26T17:48:40Z</time>
      </trkpt>
      <trkpt lat="41.9543590" lon="2.6854630">
        <ele>261.0</ele>
        <time>2022-05-26T17:48:41Z</time>
      </trkpt>
      <trkpt lat="41.9543530" lon="2.6854770">
        <ele>261.2</ele>
        <time>2022-05-26T17:48:42Z</time>
      </trkpt>
      <trkpt lat="41.9543560" lon="2.6854790">
        <ele>261.4</ele>
        <time>2022-05-26T17:48:43Z</time>
      </trkpt>
      <trkpt lat="41.9543620" lon="2.6854800">
        <ele>261.6</ele>
        <time>2022-05-26T17:48:44Z</time>
      </trkpt>
      <trkpt lat="41.9543650" lon="2.6854760">
        <ele>261.6</ele>
        <time>2022-05-26T17:48:45Z</time>
      </trkpt>
      <trkpt lat="41.9543660" lon="2.6854720">
        <ele>261.8</ele>
        <time>2022-05-26T17:48:46Z</time>
      </trkpt>
      <trkpt lat="41.9543630" lon="2.6854770">
        <ele>261.8</ele>
        <time>2022-05-26T17:48:47Z</time>
      </trkpt>
      <trkpt lat="41.9543520" lon="2.6854920">
        <ele>261.8</ele>
        <time>2022-05-26T17:48:48Z</time>
      </trkpt>
      <trkpt lat="41.9543330" lon="2.6855190">
        <ele>261.8</ele>
        <time>2022-05-26T17:48:49Z</time>
      </trkpt>
      <trkpt lat="41.9543140" lon="2.6855630">
        <ele>261.8</ele>
        <time>2022-05-26T17:48:50Z</time>
      </trkpt>
      <trkpt lat="41.9542980" lon="2.6856110">
        <ele>262.0</ele>
        <time>2022-05-26T17:48:51Z</time>
      </trkpt>
      <trkpt lat="41.9542920" lon="2.6856290">
        <ele>262.2</ele>
        <time>2022-05-26T17:48:52Z</time>
      </trkpt>
      <trkpt lat="41.9542810" lon="2.6856550">
        <ele>262.6</ele>
        <time>2022-05-26T17:48:53Z</time>
      </trkpt>
      <trkpt lat="41.9542780" lon="2.6856640">
        <ele>262.8</ele>
        <time>2022-05-26T17:48:54Z</time>
      </trkpt>
      <trkpt lat="41.9542710" lon="2.6856490">
        <ele>263.0</ele>
        <time>2022-05-26T17:48:55Z</time>
      </trkpt>
      <trkpt lat="41.9542630" lon="2.6856330">
        <ele>263.2</ele>
        <time>2022-05-26T17:48:56Z</time>
      </trkpt>
      <trkpt lat="41.9542560" lon="2.6856180">
        <ele>263.4</ele>
        <time>2022-05-26T17:48:57Z</time>
      </trkpt>
      <trkpt lat="41.9542480" lon="2.6856020">
        <ele>263.4</ele>
        <time>2022-05-26T17:48:58Z</time>
      </trkpt>
      <trkpt lat="41.9542410" lon="2.6855860">
        <ele>263.4</ele>
        <time>2022-05-26T17:48:59Z</time>
      </trkpt>
      <trkpt lat="41.9542340" lon="2.6855700">
        <ele>263.4</ele>
        <time>2022-05-26T17:49:00Z</time>
      </trkpt>
      <trkpt lat="41.9542260" lon="2.6855540">
        <ele>263.4</ele>
        <time>2022-05-26T17:49:01Z</time>
      </trkpt>
      <trkpt lat="41.9542190" lon="2.6855390">
        <ele>263.4</ele>
        <time>2022-05-26T17:49:02Z</time>
      </trkpt>
      <trkpt lat="41.9542110" lon="2.6855230">
        <ele>263.4</ele>
        <time>2022-05-26T17:49:03Z</time>
      </trkpt>
      <trkpt lat="41.9542040" lon="2.6855070">
        <ele>263.4</ele>
        <time>2022-05-26T17:49:04Z</time>
      </trkpt>
      <trkpt lat="41.9541960" lon="2.6854910">
        <ele>263.4</ele>
        <time>2022-05-26T17:49:05Z</time>
      </trkpt>
      <trkpt lat="41.9541890" lon="2.6854750">
        <ele>262.0</ele>
        <time>2022-05-26T17:49:11Z</time>
      </trkpt>
      <trkpt lat="41.9541820" lon="2.6854600">
        <ele>261.2</ele>
        <time>2022-05-26T17:49:12Z</time>
      </trkpt>
      <trkpt lat="41.9541540" lon="2.6853890">
        <ele>260.2</ele>
        <time>2022-05-26T17:49:13Z</time>
      </trkpt>
      <trkpt lat="41.9541290" lon="2.6853230">
        <ele>259.2</ele>
        <time>2022-05-26T17:49:14Z</time>
      </trkpt>
      <trkpt lat="41.9541030" lon="2.6852560">
        <ele>258.0</ele>
        <time>2022-05-26T17:49:15Z</time>
      </trkpt>
      <trkpt lat="41.9540790" lon="2.6852010">
        <ele>257.0</ele>
        <time>2022-05-26T17:49:16Z</time>
      </trkpt>
      <trkpt lat="41.9540500" lon="2.6851530">
        <ele>255.8</ele>
        <time>2022-05-26T17:49:17Z</time>
      </trkpt>
      <trkpt lat="41.9540190" lon="2.6851120">
        <ele>254.8</ele>
        <time>2022-05-26T17:49:18Z</time>
      </trkpt>
      <trkpt lat="41.9539920" lon="2.6850840">
        <ele>253.8</ele>
        <time>2022-05-26T17:49:19Z</time>
      </trkpt>
      <trkpt lat="41.9539600" lon="2.6850570">
        <ele>253.0</ele>
        <time>2022-05-26T17:49:20Z</time>
      </trkpt>
      <trkpt lat="41.9539250" lon="2.6850260">
        <ele>252.0</ele>
        <time>2022-05-26T17:49:21Z</time>
      </trkpt>
      <trkpt lat="41.9538830" lon="2.6849830">
        <ele>251.0</ele>
        <time>2022-05-26T17:49:22Z</time>
      </trkpt>
      <trkpt lat="41.9538390" lon="2.6849340">
        <ele>250.0</ele>
        <time>2022-05-26T17:49:23Z</time>
      </trkpt>
      <trkpt lat="41.9537960" lon="2.6848900">
        <ele>249.0</ele>
        <time>2022-05-26T17:49:24Z</time>
      </trkpt>
      <trkpt lat="41.9537480" lon="2.6848600">
        <ele>247.8</ele>
        <time>2022-05-26T17:49:25Z</time>
      </trkpt>
      <trkpt lat="41.9536990" lon="2.6848330">
        <ele>246.6</ele>
        <time>2022-05-26T17:49:26Z</time>
      </trkpt>
      <trkpt lat="41.9536500" lon="2.6847940">
        <ele>245.4</ele>
        <time>2022-05-26T17:49:27Z</time>
      </trkpt>
      <trkpt lat="41.9536050" lon="2.6847390">
        <ele>244.4</ele>
        <time>2022-05-26T17:49:28Z</time>
      </trkpt>
      <trkpt lat="41.9535730" lon="2.6846830">
        <ele>243.2</ele>
        <time>2022-05-26T17:49:29Z</time>
      </trkpt>
      <trkpt lat="41.9535530" lon="2.6846380">
        <ele>242.2</ele>
        <time>2022-05-26T17:49:30Z</time>
      </trkpt>
      <trkpt lat="41.9535370" lon="2.6846070">
        <ele>241.4</ele>
        <time>2022-05-26T17:49:31Z</time>
      </trkpt>
      <trkpt lat="41.9535190" lon="2.6845800">
        <ele>240.6</ele>
        <time>2022-05-26T17:49:32Z</time>
      </trkpt>
      <trkpt lat="41.9534960" lon="2.6845480">
        <ele>240.0</ele>
        <time>2022-05-26T17:49:33Z</time>
      </trkpt>
      <trkpt lat="41.9534730" lon="2.6845120">
        <ele>239.2</ele>
        <time>2022-05-26T17:49:34Z</time>
      </trkpt>
      <trkpt lat="41.9534510" lon="2.6844600">
        <ele>238.4</ele>
        <time>2022-05-26T17:49:35Z</time>
      </trkpt>
      <trkpt lat="41.9534250" lon="2.6843920">
        <ele>237.8</ele>
        <time>2022-05-26T17:49:36Z</time>
      </trkpt>
      <trkpt lat="41.9533960" lon="2.6843170">
        <ele>237.0</ele>
        <time>2022-05-26T17:49:37Z</time>
      </trkpt>
      <trkpt lat="41.9533640" lon="2.6842480">
        <ele>236.4</ele>
        <time>2022-05-26T17:49:38Z</time>
      </trkpt>
      <trkpt lat="41.9533290" lon="2.6841940">
        <ele>235.8</ele>
        <time>2022-05-26T17:49:39Z</time>
      </trkpt>
      <trkpt lat="41.9532860" lon="2.6841540">
        <ele>235.4</ele>
        <time>2022-05-26T17:49:40Z</time>
      </trkpt>
      <trkpt lat="41.9532260" lon="2.6841150">
        <ele>235.0</ele>
        <time>2022-05-26T17:49:41Z</time>
      </trkpt>
      <trkpt lat="41.9531650" lon="2.6840620">
        <ele>234.6</ele>
        <time>2022-05-26T17:49:42Z</time>
      </trkpt>
      <trkpt lat="41.9531210" lon="2.6840070">
        <ele>234.2</ele>
        <time>2022-05-26T17:49:43Z</time>
      </trkpt>
      <trkpt lat="41.9530920" lon="2.6839570">
        <ele>233.8</ele>
        <time>2022-05-26T17:49:44Z</time>
      </trkpt>
      <trkpt lat="41.9530700" lon="2.6839060">
        <ele>233.4</ele>
        <time>2022-05-26T17:49:45Z</time>
      </trkpt>
      <trkpt lat="41.9530460" lon="2.6838490">
        <ele>233.0</ele>
        <time>2022-05-26T17:49:46Z</time>
      </trkpt>
      <trkpt lat="41.9530240" lon="2.6837930">
        <ele>232.6</ele>
        <time>2022-05-26T17:49:47Z</time>
      </trkpt>
      <trkpt lat="41.9530060" lon="2.6837480">
        <ele>232.0</ele>
        <time>2022-05-26T17:49:48Z</time>
      </trkpt>
      <trkpt lat="41.9529890" lon="2.6837160">
        <ele>231.6</ele>
        <time>2022-05-26T17:49:49Z</time>
      </trkpt>
      <trkpt lat="41.9529660" lon="2.6836870">
        <ele>231.2</ele>
        <time>2022-05-26T17:49:50Z</time>
      </trkpt>
      <trkpt lat="41.9529380" lon="2.6836490">
        <ele>230.8</ele>
        <time>2022-05-26T17:49:51Z</time>
      </trkpt>
      <trkpt lat="41.9529120" lon="2.6836030">
        <ele>230.4</ele>
        <time>2022-05-26T17:49:52Z</time>
      </trkpt>
      <trkpt lat="41.9528940" lon="2.6835600">
        <ele>230.0</ele>
        <time>2022-05-26T17:49:53Z</time>
      </trkpt>
      <trkpt lat="41.9528870" lon="2.6835210">
        <ele>229.6</ele>
        <time>2022-05-26T17:49:54Z</time>
      </trkpt>
      <trkpt lat="41.9528790" lon="2.6834810">
        <ele>229.0</ele>
        <time>2022-05-26T17:49:55Z</time>
      </trkpt>
      <trkpt lat="41.9528610" lon="2.6834350">
        <ele>228.6</ele>
        <time>2022-05-26T17:49:56Z</time>
      </trkpt>
      <trkpt lat="41.9528270" lon="2.6833810">
        <ele>228.0</ele>
        <time>2022-05-26T17:49:57Z</time>
      </trkpt>
      <trkpt lat="41.9527810" lon="2.6833260">
        <ele>227.8</ele>
        <time>2022-05-26T17:49:58Z</time>
      </trkpt>
      <trkpt lat="41.9527350" lon="2.6832860">
        <ele>227.4</ele>
        <time>2022-05-26T17:49:59Z</time>
      </trkpt>
      <trkpt lat="41.9526790" lon="2.6832580">
        <ele>227.4</ele>
        <time>2022-05-26T17:50:00Z</time>
      </trkpt>
      <trkpt lat="41.9526080" lon="2.6832340">
        <ele>227.4</ele>
        <time>2022-05-26T17:50:01Z</time>
      </trkpt>
      <trkpt lat="41.9525340" lon="2.6832140">
        <ele>227.2</ele>
        <time>2022-05-26T17:50:02Z</time>
      </trkpt>
      <trkpt lat="41.9524640" lon="2.6832010">
        <ele>227.2</ele>
        <time>2022-05-26T17:50:03Z</time>
      </trkpt>
      <trkpt lat="41.9523940" lon="2.6831920">
        <ele>227.0</ele>
        <time>2022-05-26T17:50:04Z</time>
      </trkpt>
      <trkpt lat="41.9523190" lon="2.6831880">
        <ele>227.0</ele>
        <time>2022-05-26T17:50:05Z</time>
      </trkpt>
      <trkpt lat="41.9522490" lon="2.6831910">
        <ele>227.4</ele>
        <time>2022-05-26T17:50:06Z</time>
      </trkpt>
      <trkpt lat="41.9521880" lon="2.6832070">
        <ele>227.4</ele>
        <time>2022-05-26T17:50:07Z</time>
      </trkpt>
      <trkpt lat="41.9521330" lon="2.6832340">
        <ele>227.4</ele>
        <time>2022-05-26T17:50:08Z</time>
      </trkpt>
      <trkpt lat="41.9520730" lon="2.6832650">
        <ele>227.4</ele>
        <time>2022-05-26T17:50:09Z</time>
      </trkpt>
      <trkpt lat="41.9520120" lon="2.6832880">
        <ele>227.6</ele>
        <time>2022-05-26T17:50:10Z</time>
      </trkpt>
      <trkpt lat="41.9519500" lon="2.6833030">
        <ele>227.6</ele>
        <time>2022-05-26T17:50:11Z</time>
      </trkpt>
      <trkpt lat="41.9518900" lon="2.6833060">
        <ele>227.6</ele>
        <time>2022-05-26T17:50:12Z</time>
      </trkpt>
      <trkpt lat="41.9518320" lon="2.6832930">
        <ele>227.8</ele>
        <time>2022-05-26T17:50:13Z</time>
      </trkpt>
      <trkpt lat="41.9517720" lon="2.6832940">
        <ele>227.8</ele>
        <time>2022-05-26T17:50:14Z</time>
      </trkpt>
      <trkpt lat="41.9517150" lon="2.6832960">
        <ele>227.8</ele>
        <time>2022-05-26T17:50:15Z</time>
      </trkpt>
      <trkpt lat="41.9516670" lon="2.6832960">
        <ele>228.0</ele>
        <time>2022-05-26T17:50:16Z</time>
      </trkpt>
      <trkpt lat="41.9516340" lon="2.6832860">
        <ele>228.0</ele>
        <time>2022-05-26T17:50:17Z</time>
      </trkpt>
      <trkpt lat="41.9516000" lon="2.6832690">
        <ele>228.0</ele>
        <time>2022-05-26T17:50:18Z</time>
      </trkpt>
      <trkpt lat="41.9515550" lon="2.6832540">
        <ele>227.8</ele>
        <time>2022-05-26T17:50:19Z</time>
      </trkpt>
      <trkpt lat="41.9515010" lon="2.6832470">
        <ele>227.6</ele>
        <time>2022-05-26T17:50:20Z</time>
      </trkpt>
      <trkpt lat="41.9514500" lon="2.6832430">
        <ele>227.4</ele>
        <time>2022-05-26T17:50:21Z</time>
      </trkpt>
      <trkpt lat="41.9514170" lon="2.6832300">
        <ele>227.4</ele>
        <time>2022-05-26T17:50:22Z</time>
      </trkpt>
      <trkpt lat="41.9513930" lon="2.6832050">
        <ele>227.4</ele>
        <time>2022-05-26T17:50:23Z</time>
      </trkpt>
      <trkpt lat="41.9513690" lon="2.6831680">
        <ele>227.2</ele>
        <time>2022-05-26T17:50:24Z</time>
      </trkpt>
      <trkpt lat="41.9513420" lon="2.6831250">
        <ele>227.0</ele>
        <time>2022-05-26T17:50:25Z</time>
      </trkpt>
      <trkpt lat="41.9513140" lon="2.6831000">
        <ele>226.8</ele>
        <time>2022-05-26T17:50:26Z</time>
      </trkpt>
      <trkpt lat="41.9512860" lon="2.6830770">
        <ele>226.4</ele>
        <time>2022-05-26T17:50:27Z</time>
      </trkpt>
      <trkpt lat="41.9512570" lon="2.6830650">
        <ele>226.0</ele>
        <time>2022-05-26T17:50:28Z</time>
      </trkpt>
      <trkpt lat="41.9512250" lon="2.6830550">
        <ele>225.6</ele>
        <time>2022-05-26T17:50:29Z</time>
      </trkpt>
      <trkpt lat="41.9511980" lon="2.6830490">
        <ele>225.0</ele>
        <time>2022-05-26T17:50:30Z</time>
      </trkpt>
      <trkpt lat="41.9511720" lon="2.6830450">
        <ele>224.4</ele>
        <time>2022-05-26T17:50:31Z</time>
      </trkpt>
      <trkpt lat="41.9511440" lon="2.6830420">
        <ele>223.8</ele>
        <time>2022-05-26T17:50:32Z</time>
      </trkpt>
      <trkpt lat="41.9511100" lon="2.6830390">
        <ele>223.0</ele>
        <time>2022-05-26T17:50:33Z</time>
      </trkpt>
      <trkpt lat="41.9510760" lon="2.6830380">
        <ele>222.2</ele>
        <time>2022-05-26T17:50:34Z</time>
      </trkpt>
      <trkpt lat="41.9510500" lon="2.6830410">
        <ele>221.2</ele>
        <time>2022-05-26T17:50:35Z</time>
      </trkpt>
      <trkpt lat="41.9510330" lon="2.6830390">
        <ele>220.4</ele>
        <time>2022-05-26T17:50:36Z</time>
      </trkpt>
      <trkpt lat="41.9510170" lon="2.6830270">
        <ele>219.4</ele>
        <time>2022-05-26T17:50:37Z</time>
      </trkpt>
      <trkpt lat="41.9509950" lon="2.6830020">
        <ele>218.4</ele>
        <time>2022-05-26T17:50:38Z</time>
      </trkpt>
      <trkpt lat="41.9509750" lon="2.6829680">
        <ele>217.4</ele>
        <time>2022-05-26T17:50:39Z</time>
      </trkpt>
      <trkpt lat="41.9509600" lon="2.6829360">
        <ele>216.6</ele>
        <time>2022-05-26T17:50:40Z</time>
      </trkpt>
      <trkpt lat="41.9509600" lon="2.6829360">
        <ele>215.8</ele>
        <time>2022-05-26T17:50:41Z</time>
      </trkpt>
      <trkpt lat="41.9509530" lon="2.6829190">
        <ele>215.0</ele>
        <time>2022-05-26T17:50:42Z</time>
      </trkpt>
      <trkpt lat="41.9509450" lon="2.6829060">
        <ele>214.2</ele>
        <time>2022-05-26T17:50:43Z</time>
      </trkpt>
      <trkpt lat="41.9509260" lon="2.6828730">
        <ele>213.6</ele>
        <time>2022-05-26T17:50:44Z</time>
      </trkpt>
      <trkpt lat="41.9508970" lon="2.6828300">
        <ele>213.0</ele>
        <time>2022-05-26T17:50:45Z</time>
      </trkpt>
      <trkpt lat="41.9508670" lon="2.6827930">
        <ele>212.4</ele>
        <time>2022-05-26T17:50:46Z</time>
      </trkpt>
      <trkpt lat="41.9508370" lon="2.6827730">
        <ele>212.2</ele>
        <time>2022-05-26T17:50:47Z</time>
      </trkpt>
      <trkpt lat="41.9508230" lon="2.6827650">
        <ele>211.8</ele>
        <time>2022-05-26T17:50:48Z</time>
      </trkpt>
      <trkpt lat="41.9507910" lon="2.6827540">
        <ele>211.8</ele>
        <time>2022-05-26T17:50:49Z</time>
      </trkpt>
      <trkpt lat="41.9507540" lon="2.6827320">
        <ele>211.6</ele>
        <time>2022-05-26T17:50:50Z</time>
      </trkpt>
      <trkpt lat="41.9507090" lon="2.6826980">
        <ele>211.4</ele>
        <time>2022-05-26T17:50:51Z</time>
      </trkpt>
      <trkpt lat="41.9506550" lon="2.6826570">
        <ele>211.2</ele>
        <time>2022-05-26T17:50:52Z</time>
      </trkpt>
      <trkpt lat="41.9506000" lon="2.6826180">
        <ele>211.2</ele>
        <time>2022-05-26T17:50:53Z</time>
      </trkpt>
      <trkpt lat="41.9505400" lon="2.6825800">
        <ele>211.2</ele>
        <time>2022-05-26T17:50:54Z</time>
      </trkpt>
      <trkpt lat="41.9504760" lon="2.6825420">
        <ele>211.0</ele>
        <time>2022-05-26T17:50:55Z</time>
      </trkpt>
      <trkpt lat="41.9504110" lon="2.6825050">
        <ele>211.2</ele>
        <time>2022-05-26T17:50:56Z</time>
      </trkpt>
      <trkpt lat="41.9503450" lon="2.6824650">
        <ele>211.2</ele>
        <time>2022-05-26T17:50:57Z</time>
      </trkpt>
      <trkpt lat="41.9502830" lon="2.6824170">
        <ele>211.0</ele>
        <time>2022-05-26T17:50:58Z</time>
      </trkpt>
      <trkpt lat="41.9502380" lon="2.6823640">
        <ele>211.0</ele>
        <time>2022-05-26T17:50:59Z</time>
      </trkpt>
      <trkpt lat="41.9502060" lon="2.6823130">
        <ele>210.8</ele>
        <time>2022-05-26T17:51:00Z</time>
      </trkpt>
      <trkpt lat="41.9501730" lon="2.6822680">
        <ele>210.8</ele>
        <time>2022-05-26T17:51:01Z</time>
      </trkpt>
      <trkpt lat="41.9501320" lon="2.6822420">
        <ele>211.0</ele>
        <time>2022-05-26T17:51:02Z</time>
      </trkpt>
      <trkpt lat="41.9500750" lon="2.6822240">
        <ele>211.2</ele>
        <time>2022-05-26T17:51:03Z</time>
      </trkpt>
      <trkpt lat="41.9500050" lon="2.6822140">
        <ele>211.2</ele>
        <time>2022-05-26T17:51:04Z</time>
      </trkpt>
      <trkpt lat="41.9499250" lon="2.6822200">
        <ele>211.4</ele>
        <time>2022-05-26T17:51:05Z</time>
      </trkpt>
      <trkpt lat="41.9498430" lon="2.6822560">
        <ele>211.6</ele>
        <time>2022-05-26T17:51:06Z</time>
      </trkpt>
      <trkpt lat="41.9497640" lon="2.6823000">
        <ele>211.4</ele>
        <time>2022-05-26T17:51:07Z</time>
      </trkpt>
      <trkpt lat="41.9496950" lon="2.6823350">
        <ele>211.2</ele>
        <time>2022-05-26T17:51:08Z</time>
      </trkpt>
      <trkpt lat="41.9496400" lon="2.6823690">
        <ele>210.8</ele>
        <time>2022-05-26T17:51:09Z</time>
      </trkpt>
      <trkpt lat="41.9495840" lon="2.6824040">
        <ele>210.6</ele>
        <time>2022-05-26T17:51:10Z</time>
      </trkpt>
      <trkpt lat="41.9495310" lon="2.6824190">
        <ele>210.4</ele>
        <time>2022-05-26T17:51:11Z</time>
      </trkpt>
      <trkpt lat="41.9494940" lon="2.6824180">
        <ele>210.4</ele>
        <time>2022-05-26T17:51:12Z</time>
      </trkpt>
      <trkpt lat="41.9494800" lon="2.6823770">
        <ele>210.2</ele>
        <time>2022-05-26T17:51:13Z</time>
      </trkpt>
      <trkpt lat="41.9494850" lon="2.6823280">
        <ele>210.0</ele>
        <time>2022-05-26T17:51:14Z</time>
      </trkpt>
      <trkpt lat="41.9495110" lon="2.6822820">
        <ele>209.8</ele>
        <time>2022-05-26T17:51:15Z</time>
      </trkpt>
      <trkpt lat="41.9495500" lon="2.6822340">
        <ele>209.6</ele>
        <time>2022-05-26T17:51:16Z</time>
      </trkpt>
      <trkpt lat="41.9495920" lon="2.6821790">
        <ele>209.6</ele>
        <time>2022-05-26T17:51:17Z</time>
      </trkpt>
      <trkpt lat="41.9496360" lon="2.6821140">
        <ele>209.4</ele>
        <time>2022-05-26T17:51:18Z</time>
      </trkpt>
      <trkpt lat="41.9496890" lon="2.6820400">
        <ele>209.4</ele>
        <time>2022-05-26T17:51:19Z</time>
      </trkpt>
      <trkpt lat="41.9497390" lon="2.6819570">
        <ele>209.6</ele>
        <time>2022-05-26T17:51:20Z</time>
      </trkpt>
      <trkpt lat="41.9497770" lon="2.6818700">
        <ele>209.6</ele>
        <time>2022-05-26T17:51:21Z</time>
      </trkpt>
      <trkpt lat="41.9498070" lon="2.6817910">
        <ele>209.6</ele>
        <time>2022-05-26T17:51:22Z</time>
      </trkpt>
      <trkpt lat="41.9498380" lon="2.6817300">
        <ele>209.4</ele>
        <time>2022-05-26T17:51:23Z</time>
      </trkpt>
      <trkpt lat="41.9498780" lon="2.6816920">
        <ele>209.4</ele>
        <time>2022-05-26T17:51:24Z</time>
      </trkpt>
      <trkpt lat="41.9499380" lon="2.6816700">
        <ele>209.2</ele>
        <time>2022-05-26T17:51:25Z</time>
      </trkpt>
      <trkpt lat="41.9500040" lon="2.6816550">
        <ele>209.0</ele>
        <time>2022-05-26T17:51:26Z</time>
      </trkpt>
      <trkpt lat="41.9500570" lon="2.6816200">
        <ele>208.6</ele>
        <time>2022-05-26T17:51:27Z</time>
      </trkpt>
      <trkpt lat="41.9501030" lon="2.6815650">
        <ele>208.4</ele>
        <time>2022-05-26T17:51:28Z</time>
      </trkpt>
      <trkpt lat="41.9501430" lon="2.6814990">
        <ele>208.0</ele>
        <time>2022-05-26T17:51:29Z</time>
      </trkpt>
      <trkpt lat="41.9501710" lon="2.6814230">
        <ele>207.4</ele>
        <time>2022-05-26T17:51:30Z</time>
      </trkpt>
      <trkpt lat="41.9501940" lon="2.6813400">
        <ele>206.8</ele>
        <time>2022-05-26T17:51:31Z</time>
      </trkpt>
      <trkpt lat="41.9502110" lon="2.6812640">
        <ele>206.2</ele>
        <time>2022-05-26T17:51:32Z</time>
      </trkpt>
      <trkpt lat="41.9502250" lon="2.6811910">
        <ele>205.6</ele>
        <time>2022-05-26T17:51:33Z</time>
      </trkpt>
      <trkpt lat="41.9502350" lon="2.6811210">
        <ele>205.0</ele>
        <time>2022-05-26T17:51:34Z</time>
      </trkpt>
      <trkpt lat="41.9502460" lon="2.6810610">
        <ele>204.6</ele>
        <time>2022-05-26T17:51:35Z</time>
      </trkpt>
      <trkpt lat="41.9502660" lon="2.6810180">
        <ele>204.2</ele>
        <time>2022-05-26T17:51:36Z</time>
      </trkpt>
      <trkpt lat="41.9502970" lon="2.6809830">
        <ele>204.0</ele>
        <time>2022-05-26T17:51:37Z</time>
      </trkpt>
      <trkpt lat="41.9503410" lon="2.6809320">
        <ele>203.6</ele>
        <time>2022-05-26T17:51:38Z</time>
      </trkpt>
      <trkpt lat="41.9503920" lon="2.6808600">
        <ele>203.4</ele>
        <time>2022-05-26T17:51:39Z</time>
      </trkpt>
      <trkpt lat="41.9504460" lon="2.6807710">
        <ele>203.0</ele>
        <time>2022-05-26T17:51:40Z</time>
      </trkpt>
      <trkpt lat="41.9504950" lon="2.6806950">
        <ele>202.8</ele>
        <time>2022-05-26T17:51:41Z</time>
      </trkpt>
      <trkpt lat="41.9505440" lon="2.6806350">
        <ele>202.2</ele>
        <time>2022-05-26T17:51:42Z</time>
      </trkpt>
      <trkpt lat="41.9505970" lon="2.6805780">
        <ele>202.0</ele>
        <time>2022-05-26T17:51:43Z</time>
      </trkpt>
      <trkpt lat="41.9506570" lon="2.6805160">
        <ele>201.6</ele>
        <time>2022-05-26T17:51:44Z</time>
      </trkpt>
      <trkpt lat="41.9507200" lon="2.6804480">
        <ele>201.0</ele>
        <time>2022-05-26T17:51:45Z</time>
      </trkpt>
      <trkpt lat="41.9507740" lon="2.6803710">
        <ele>200.6</ele>
        <time>2022-05-26T17:51:46Z</time>
      </trkpt>
      <trkpt lat="41.9508130" lon="2.6802770">
        <ele>200.2</ele>
        <time>2022-05-26T17:51:47Z</time>
      </trkpt>
      <trkpt lat="41.9508430" lon="2.6801750">
        <ele>199.8</ele>
        <time>2022-05-26T17:51:48Z</time>
      </trkpt>
      <trkpt lat="41.9508720" lon="2.6800760">
        <ele>199.2</ele>
        <time>2022-05-26T17:51:49Z</time>
      </trkpt>
      <trkpt lat="41.9509090" lon="2.6799870">
        <ele>198.8</ele>
        <time>2022-05-26T17:51:50Z</time>
      </trkpt>
      <trkpt lat="41.9509460" lon="2.6799100">
        <ele>198.2</ele>
        <time>2022-05-26T17:51:51Z</time>
      </trkpt>
      <trkpt lat="41.9509710" lon="2.6798470">
        <ele>197.6</ele>
        <time>2022-05-26T17:51:52Z</time>
      </trkpt>
      <trkpt lat="41.9509770" lon="2.6797990">
        <ele>197.0</ele>
        <time>2022-05-26T17:51:53Z</time>
      </trkpt>
      <trkpt lat="41.9509790" lon="2.6797580">
        <ele>196.6</ele>
        <time>2022-05-26T17:51:54Z</time>
      </trkpt>
      <trkpt lat="41.9509760" lon="2.6797290">
        <ele>196.2</ele>
        <time>2022-05-26T17:51:55Z</time>
      </trkpt>
      <trkpt lat="41.9509720" lon="2.6797070">
        <ele>195.6</ele>
        <time>2022-05-26T17:51:56Z</time>
      </trkpt>
      <trkpt lat="41.9509750" lon="2.6796800">
        <ele>195.0</ele>
        <time>2022-05-26T17:51:57Z</time>
      </trkpt>
      <trkpt lat="41.9509940" lon="2.6796460">
        <ele>194.4</ele>
        <time>2022-05-26T17:51:58Z</time>
      </trkpt>
      <trkpt lat="41.9510220" lon="2.6796060">
        <ele>194.0</ele>
        <time>2022-05-26T17:51:59Z</time>
      </trkpt>
      <trkpt lat="41.9510520" lon="2.6795540">
        <ele>193.4</ele>
        <time>2022-05-26T17:52:00Z</time>
      </trkpt>
      <trkpt lat="41.9510730" lon="2.6794990">
        <ele>193.0</ele>
        <time>2022-05-26T17:52:01Z</time>
      </trkpt>
      <trkpt lat="41.9510770" lon="2.6794510">
        <ele>192.6</ele>
        <time>2022-05-26T17:52:02Z</time>
      </trkpt>
      <trkpt lat="41.9510660" lon="2.6793890">
        <ele>192.4</ele>
        <time>2022-05-26T17:52:03Z</time>
      </trkpt>
      <trkpt lat="41.9510550" lon="2.6793210">
        <ele>192.0</ele>
        <time>2022-05-26T17:52:04Z</time>
      </trkpt>
      <trkpt lat="41.9510480" lon="2.6792730">
        <ele>191.8</ele>
        <time>2022-05-26T17:52:05Z</time>
      </trkpt>
      <trkpt lat="41.9510460" lon="2.6792390">
        <ele>191.4</ele>
        <time>2022-05-26T17:52:06Z</time>
      </trkpt>
      <trkpt lat="41.9510480" lon="2.6792060">
        <ele>191.2</ele>
        <time>2022-05-26T17:52:07Z</time>
      </trkpt>
      <trkpt lat="41.9510500" lon="2.6791730">
        <ele>191.2</ele>
        <time>2022-05-26T17:52:08Z</time>
      </trkpt>
      <trkpt lat="41.9510510" lon="2.6791410">
        <ele>191.0</ele>
        <time>2022-05-26T17:52:09Z</time>
      </trkpt>
      <trkpt lat="41.9510510" lon="2.6791120">
        <ele>190.8</ele>
        <time>2022-05-26T17:52:10Z</time>
      </trkpt>
      <trkpt lat="41.9510480" lon="2.6790860">
        <ele>190.8</ele>
        <time>2022-05-26T17:52:11Z</time>
      </trkpt>
      <trkpt lat="41.9510400" lon="2.6790640">
        <ele>190.6</ele>
        <time>2022-05-26T17:52:12Z</time>
      </trkpt>
      <trkpt lat="41.9510260" lon="2.6790410">
        <ele>190.8</ele>
        <time>2022-05-26T17:52:13Z</time>
      </trkpt>
      <trkpt lat="41.9510020" lon="2.6790160">
        <ele>190.8</ele>
        <time>2022-05-26T17:52:14Z</time>
      </trkpt>
      <trkpt lat="41.9509700" lon="2.6789840">
        <ele>190.8</ele>
        <time>2022-05-26T17:52:15Z</time>
      </trkpt>
      <trkpt lat="41.9509330" lon="2.6789460">
        <ele>191.0</ele>
        <time>2022-05-26T17:52:16Z</time>
      </trkpt>
      <trkpt lat="41.9508990" lon="2.6789040">
        <ele>191.4</ele>
        <time>2022-05-26T17:52:17Z</time>
      </trkpt>
      <trkpt lat="41.9508770" lon="2.6788630">
        <ele>191.6</ele>
        <time>2022-05-26T17:52:18Z</time>
      </trkpt>
      <trkpt lat="41.9508580" lon="2.6788220">
        <ele>192.0</ele>
        <time>2022-05-26T17:52:19Z</time>
      </trkpt>
      <trkpt lat="41.9508420" lon="2.6787860">
        <ele>192.4</ele>
        <time>2022-05-26T17:52:20Z</time>
      </trkpt>
      <trkpt lat="41.9508340" lon="2.6787540">
        <ele>192.6</ele>
        <time>2022-05-26T17:52:21Z</time>
      </trkpt>
      <trkpt lat="41.9508370" lon="2.6787120">
        <ele>192.6</ele>
        <time>2022-05-26T17:52:22Z</time>
      </trkpt>
      <trkpt lat="41.9508400" lon="2.6786620">
        <ele>192.8</ele>
        <time>2022-05-26T17:52:23Z</time>
      </trkpt>
      <trkpt lat="41.9508410" lon="2.6786190">
        <ele>192.8</ele>
        <time>2022-05-26T17:52:24Z</time>
      </trkpt>
      <trkpt lat="41.9508370" lon="2.6785860">
        <ele>193.0</ele>
        <time>2022-05-26T17:52:25Z</time>
      </trkpt>
      <trkpt lat="41.9508330" lon="2.6785510">
        <ele>193.0</ele>
        <time>2022-05-26T17:52:26Z</time>
      </trkpt>
      <trkpt lat="41.9508290" lon="2.6785060">
        <ele>192.8</ele>
        <time>2022-05-26T17:52:27Z</time>
      </trkpt>
      <trkpt lat="41.9508220" lon="2.6784520">
        <ele>192.6</ele>
        <time>2022-05-26T17:52:28Z</time>
      </trkpt>
      <trkpt lat="41.9508210" lon="2.6783950">
        <ele>192.4</ele>
        <time>2022-05-26T17:52:29Z</time>
      </trkpt>
      <trkpt lat="41.9508260" lon="2.6783320">
        <ele>192.0</ele>
        <time>2022-05-26T17:52:30Z</time>
      </trkpt>
      <trkpt lat="41.9508490" lon="2.6782590">
        <ele>191.4</ele>
        <time>2022-05-26T17:52:31Z</time>
      </trkpt>
      <trkpt lat="41.9508810" lon="2.6781740">
        <ele>190.8</ele>
        <time>2022-05-26T17:52:32Z</time>
      </trkpt>
      <trkpt lat="41.9509140" lon="2.6780840">
        <ele>190.0</ele>
        <time>2022-05-26T17:52:33Z</time>
      </trkpt>
      <trkpt lat="41.9509420" lon="2.6780020">
        <ele>189.2</ele>
        <time>2022-05-26T17:52:34Z</time>
      </trkpt>
      <trkpt lat="41.9509730" lon="2.6779310">
        <ele>188.2</ele>
        <time>2022-05-26T17:52:35Z</time>
      </trkpt>
      <trkpt lat="41.9509960" lon="2.6778630">
        <ele>187.2</ele>
        <time>2022-05-26T17:52:36Z</time>
      </trkpt>
      <trkpt lat="41.9510140" lon="2.6777960">
        <ele>186.2</ele>
        <time>2022-05-26T17:52:37Z</time>
      </trkpt>
      <trkpt lat="41.9510310" lon="2.6777400">
        <ele>185.4</ele>
        <time>2022-05-26T17:52:38Z</time>
      </trkpt>
      <trkpt lat="41.9510510" lon="2.6777050">
        <ele>184.4</ele>
        <time>2022-05-26T17:52:39Z</time>
      </trkpt>
      <trkpt lat="41.9510720" lon="2.6776840">
        <ele>183.6</ele>
        <time>2022-05-26T17:52:40Z</time>
      </trkpt>
      <trkpt lat="41.9510900" lon="2.6776610">
        <ele>182.6</ele>
        <time>2022-05-26T17:52:41Z</time>
      </trkpt>
      <trkpt lat="41.9511020" lon="2.6776410">
        <ele>182.0</ele>
        <time>2022-05-26T17:52:42Z</time>
      </trkpt>
      <trkpt lat="41.9511140" lon="2.6776250">
        <ele>181.2</ele>
        <time>2022-05-26T17:52:43Z</time>
      </trkpt>
      <trkpt lat="41.9511270" lon="2.6776080">
        <ele>180.6</ele>
        <time>2022-05-26T17:52:44Z</time>
      </trkpt>
      <trkpt lat="41.9511400" lon="2.6775860">
        <ele>180.0</ele>
        <time>2022-05-26T17:52:45Z</time>
      </trkpt>
      <trkpt lat="41.9511400" lon="2.6775720">
        <ele>179.6</ele>
        <time>2022-05-26T17:52:46Z</time>
      </trkpt>
      <trkpt lat="41.9511390" lon="2.6775620">
        <ele>178.8</ele>
        <time>2022-05-26T17:52:47Z</time>
      </trkpt>
      <trkpt lat="41.9511270" lon="2.6775370">
        <ele>178.2</ele>
        <time>2022-05-26T17:52:48Z</time>
      </trkpt>
      <trkpt lat="41.9511120" lon="2.6775040">
        <ele>177.6</ele>
        <time>2022-05-26T17:52:49Z</time>
      </trkpt>
      <trkpt lat="41.9510950" lon="2.6774680">
        <ele>177.0</ele>
        <time>2022-05-26T17:52:50Z</time>
      </trkpt>
      <trkpt lat="41.9510710" lon="2.6774350">
        <ele>176.6</ele>
        <time>2022-05-26T17:52:51Z</time>
      </trkpt>
      <trkpt lat="41.9510460" lon="2.6774010">
        <ele>176.2</ele>
        <time>2022-05-26T17:52:52Z</time>
      </trkpt>
      <trkpt lat="41.9510180" lon="2.6773650">
        <ele>175.6</ele>
        <time>2022-05-26T17:52:53Z</time>
      </trkpt>
      <trkpt lat="41.9510000" lon="2.6773300">
        <ele>175.0</ele>
        <time>2022-05-26T17:52:54Z</time>
      </trkpt>
      <trkpt lat="41.9509940" lon="2.6772930">
        <ele>174.6</ele>
        <time>2022-05-26T17:52:55Z</time>
      </trkpt>
      <trkpt lat="41.9509950" lon="2.6772510">
        <ele>174.2</ele>
        <time>2022-05-26T17:52:56Z</time>
      </trkpt>
      <trkpt lat="41.9509990" lon="2.6772030">
        <ele>174.0</ele>
        <time>2022-05-26T17:52:57Z</time>
      </trkpt>
      <trkpt lat="41.9509950" lon="2.6771430">
        <ele>173.6</ele>
        <time>2022-05-26T17:52:58Z</time>
      </trkpt>
      <trkpt lat="41.9509960" lon="2.6770920">
        <ele>173.4</ele>
        <time>2022-05-26T17:52:59Z</time>
      </trkpt>
      <trkpt lat="41.9510130" lon="2.6770440">
        <ele>173.2</ele>
        <time>2022-05-26T17:53:00Z</time>
      </trkpt>
      <trkpt lat="41.9510400" lon="2.6770060">
        <ele>173.2</ele>
        <time>2022-05-26T17:53:01Z</time>
      </trkpt>
      <trkpt lat="41.9510790" lon="2.6769700">
        <ele>173.0</ele>
        <time>2022-05-26T17:53:02Z</time>
      </trkpt>
      <trkpt lat="41.9511190" lon="2.6769200">
        <ele>173.0</ele>
        <time>2022-05-26T17:53:03Z</time>
      </trkpt>
      <trkpt lat="41.9511540" lon="2.6768530">
        <ele>173.0</ele>
        <time>2022-05-26T17:53:04Z</time>
      </trkpt>
      <trkpt lat="41.9511860" lon="2.6767860">
        <ele>173.0</ele>
        <time>2022-05-26T17:53:05Z</time>
      </trkpt>
      <trkpt lat="41.9512180" lon="2.6767340">
        <ele>172.8</ele>
        <time>2022-05-26T17:53:06Z</time>
      </trkpt>
      <trkpt lat="41.9512570" lon="2.6766950">
        <ele>172.8</ele>
        <time>2022-05-26T17:53:07Z</time>
      </trkpt>
      <trkpt lat="41.9513000" lon="2.6766550">
        <ele>173.0</ele>
        <time>2022-05-26T17:53:08Z</time>
      </trkpt>
      <trkpt lat="41.9513410" lon="2.6766100">
        <ele>173.0</ele>
        <time>2022-05-26T17:53:09Z</time>
      </trkpt>
      <trkpt lat="41.9513760" lon="2.6765610">
        <ele>173.2</ele>
        <time>2022-05-26T17:53:10Z</time>
      </trkpt>
      <trkpt lat="41.9513830" lon="2.6765020">
        <ele>173.2</ele>
        <time>2022-05-26T17:53:11Z</time>
      </trkpt>
      <trkpt lat="41.9513890" lon="2.6764350">
        <ele>173.4</ele>
        <time>2022-05-26T17:53:12Z</time>
      </trkpt>
      <trkpt lat="41.9513990" lon="2.6763690">
        <ele>173.6</ele>
        <time>2022-05-26T17:53:13Z</time>
      </trkpt>
      <trkpt lat="41.9514190" lon="2.6763010">
        <ele>173.6</ele>
        <time>2022-05-26T17:53:14Z</time>
      </trkpt>
      <trkpt lat="41.9514510" lon="2.6762300">
        <ele>173.4</ele>
        <time>2022-05-26T17:53:15Z</time>
      </trkpt>
      <trkpt lat="41.9514930" lon="2.6761650">
        <ele>173.4</ele>
        <time>2022-05-26T17:53:16Z</time>
      </trkpt>
      <trkpt lat="41.9515380" lon="2.6761130">
        <ele>173.2</ele>
        <time>2022-05-26T17:53:17Z</time>
      </trkpt>
      <trkpt lat="41.9515820" lon="2.6760530">
        <ele>173.0</ele>
        <time>2022-05-26T17:53:18Z</time>
      </trkpt>
      <trkpt lat="41.9516050" lon="2.6760050">
        <ele>172.8</ele>
        <time>2022-05-26T17:53:19Z</time>
      </trkpt>
      <trkpt lat="41.9516200" lon="2.6759750">
        <ele>172.6</ele>
        <time>2022-05-26T17:53:20Z</time>
      </trkpt>
      <trkpt lat="41.9516420" lon="2.6759600">
        <ele>172.2</ele>
        <time>2022-05-26T17:53:21Z</time>
      </trkpt>
      <trkpt lat="41.9516760" lon="2.6759580">
        <ele>172.0</ele>
        <time>2022-05-26T17:53:22Z</time>
      </trkpt>
      <trkpt lat="41.9517140" lon="2.6759700">
        <ele>171.8</ele>
        <time>2022-05-26T17:53:23Z</time>
      </trkpt>
      <trkpt lat="41.9517460" lon="2.6759710">
        <ele>171.6</ele>
        <time>2022-05-26T17:53:24Z</time>
      </trkpt>
      <trkpt lat="41.9517710" lon="2.6759660">
        <ele>171.2</ele>
        <time>2022-05-26T17:53:25Z</time>
      </trkpt>
      <trkpt lat="41.9517930" lon="2.6759490">
        <ele>171.0</ele>
        <time>2022-05-26T17:53:26Z</time>
      </trkpt>
      <trkpt lat="41.9518210" lon="2.6759250">
        <ele>170.6</ele>
        <time>2022-05-26T17:53:27Z</time>
      </trkpt>
      <trkpt lat="41.9518480" lon="2.6759060">
        <ele>170.0</ele>
        <time>2022-05-26T17:53:28Z</time>
      </trkpt>
      <trkpt lat="41.9518750" lon="2.6758940">
        <ele>169.4</ele>
        <time>2022-05-26T17:53:29Z</time>
      </trkpt>
      <trkpt lat="41.9518900" lon="2.6758760">
        <ele>169.0</ele>
        <time>2022-05-26T17:53:30Z</time>
      </trkpt>
      <trkpt lat="41.9518920" lon="2.6758400">
        <ele>168.4</ele>
        <time>2022-05-26T17:53:31Z</time>
      </trkpt>
      <trkpt lat="41.9518950" lon="2.6757960">
        <ele>168.0</ele>
        <time>2022-05-26T17:53:32Z</time>
      </trkpt>
      <trkpt lat="41.9519160" lon="2.6757610">
        <ele>167.6</ele>
        <time>2022-05-26T17:53:33Z</time>
      </trkpt>
      <trkpt lat="41.9519490" lon="2.6757340">
        <ele>167.6</ele>
        <time>2022-05-26T17:53:34Z</time>
      </trkpt>
      <trkpt lat="41.9519740" lon="2.6756740">
        <ele>167.4</ele>
        <time>2022-05-26T17:53:35Z</time>
      </trkpt>
      <trkpt lat="41.9520140" lon="2.6756050">
        <ele>167.2</ele>
        <time>2022-05-26T17:53:36Z</time>
      </trkpt>
      <trkpt lat="41.9520550" lon="2.6755400">
        <ele>167.0</ele>
        <time>2022-05-26T17:53:37Z</time>
      </trkpt>
      <trkpt lat="41.9520810" lon="2.6754850">
        <ele>166.8</ele>
        <time>2022-05-26T17:53:38Z</time>
      </trkpt>
      <trkpt lat="41.9520980" lon="2.6754600">
        <ele>166.4</ele>
        <time>2022-05-26T17:53:39Z</time>
      </trkpt>
      <trkpt lat="41.9521120" lon="2.6754400">
        <ele>166.2</ele>
        <time>2022-05-26T17:53:40Z</time>
      </trkpt>
      <trkpt lat="41.9521270" lon="2.6754280">
        <ele>165.8</ele>
        <time>2022-05-26T17:53:41Z</time>
      </trkpt>
      <trkpt lat="41.9521390" lon="2.6754200">
        <ele>165.6</ele>
        <time>2022-05-26T17:53:42Z</time>
      </trkpt>
      <trkpt lat="41.9521450" lon="2.6754150">
        <ele>165.4</ele>
        <time>2022-05-26T17:53:43Z</time>
      </trkpt>
      <trkpt lat="41.9521460" lon="2.6754130">
        <ele>165.2</ele>
        <time>2022-05-26T17:53:44Z</time>
      </trkpt>
      <trkpt lat="41.9521460" lon="2.6754140">
        <ele>165.0</ele>
        <time>2022-05-26T17:53:45Z</time>
      </trkpt>
      <trkpt lat="41.9521450" lon="2.6754150">
        <ele>165.0</ele>
        <time>2022-05-26T17:53:46Z</time>
      </trkpt>
      <trkpt lat="41.9521460" lon="2.6754170">
        <ele>165.0</ele>
        <time>2022-05-26T17:53:47Z</time>
      </trkpt>
      <trkpt lat="41.9521470" lon="2.6754200">
        <ele>165.0</ele>
        <time>2022-05-26T17:53:48Z</time>
      </trkpt>
      <trkpt lat="41.9521500" lon="2.6754220">
        <ele>165.0</ele>
        <time>2022-05-26T17:53:49Z</time>
      </trkpt>
      <trkpt lat="41.9521530" lon="2.6754230">
        <ele>165.0</ele>
        <time>2022-05-26T17:53:50Z</time>
      </trkpt>
      <trkpt lat="41.9521530" lon="2.6754250">
        <ele>165.0</ele>
        <time>2022-05-26T17:53:51Z</time>
      </trkpt>
      <trkpt lat="41.9521540" lon="2.6754250">
        <ele>165.0</ele>
        <time>2022-05-26T17:53:52Z</time>
      </trkpt>
      <trkpt lat="41.9521540" lon="2.6754250">
        <ele>165.0</ele>
        <time>2022-05-26T17:53:53Z</time>
      </trkpt>
      <trkpt lat="41.9522210" lon="2.6753780">
        <ele>164.8</ele>
        <time>2022-05-26T17:53:58Z</time>
      </trkpt>
      <trkpt lat="41.9522350" lon="2.6753440">
        <ele>164.8</ele>
        <time>2022-05-26T17:53:59Z</time>
      </trkpt>
      <trkpt lat="41.9522360" lon="2.6753040">
        <ele>164.6</ele>
        <time>2022-05-26T17:54:00Z</time>
      </trkpt>
      <trkpt lat="41.9522380" lon="2.6752610">
        <ele>164.4</ele>
        <time>2022-05-26T17:54:01Z</time>
      </trkpt>
      <trkpt lat="41.9522420" lon="2.6752280">
        <ele>164.2</ele>
        <time>2022-05-26T17:54:02Z</time>
      </trkpt>
      <trkpt lat="41.9522510" lon="2.6751910">
        <ele>164.0</ele>
        <time>2022-05-26T17:54:03Z</time>
      </trkpt>
      <trkpt lat="41.9522700" lon="2.6751560">
        <ele>164.0</ele>
        <time>2022-05-26T17:54:04Z</time>
      </trkpt>
      <trkpt lat="41.9523010" lon="2.6751150">
        <ele>164.0</ele>
        <time>2022-05-26T17:54:05Z</time>
      </trkpt>
      <trkpt lat="41.9523390" lon="2.6750630">
        <ele>164.0</ele>
        <time>2022-05-26T17:54:06Z</time>
      </trkpt>
      <trkpt lat="41.9523850" lon="2.6750120">
        <ele>164.0</ele>
        <time>2022-05-26T17:54:07Z</time>
      </trkpt>
      <trkpt lat="41.9524290" lon="2.6749660">
        <ele>164.0</ele>
        <time>2022-05-26T17:54:08Z</time>
      </trkpt>
      <trkpt lat="41.9524750" lon="2.6749250">
        <ele>163.8</ele>
        <time>2022-05-26T17:54:09Z</time>
      </trkpt>
      <trkpt lat="41.9525140" lon="2.6748880">
        <ele>163.6</ele>
        <time>2022-05-26T17:54:10Z</time>
      </trkpt>
      <trkpt lat="41.9525420" lon="2.6748540">
        <ele>163.4</ele>
        <time>2022-05-26T17:54:11Z</time>
      </trkpt>
      <trkpt lat="41.9525660" lon="2.6748250">
        <ele>163.2</ele>
        <time>2022-05-26T17:54:12Z</time>
      </trkpt>
      <trkpt lat="41.9525930" lon="2.6747950">
        <ele>163.0</ele>
        <time>2022-05-26T17:54:13Z</time>
      </trkpt>
      <trkpt lat="41.9526170" lon="2.6747550">
        <ele>162.6</ele>
        <time>2022-05-26T17:54:14Z</time>
      </trkpt>
      <trkpt lat="41.9526400" lon="2.6747030">
        <ele>162.2</ele>
        <time>2022-05-26T17:54:15Z</time>
      </trkpt>
      <trkpt lat="41.9526610" lon="2.6746510">
        <ele>162.0</ele>
        <time>2022-05-26T17:54:16Z</time>
      </trkpt>
      <trkpt lat="41.9526750" lon="2.6746040">
        <ele>162.0</ele>
        <time>2022-05-26T17:54:17Z</time>
      </trkpt>
      <trkpt lat="41.9526810" lon="2.6745640">
        <ele>162.0</ele>
        <time>2022-05-26T17:54:18Z</time>
      </trkpt>
      <trkpt lat="41.9526770" lon="2.6745260">
        <ele>162.0</ele>
        <time>2022-05-26T17:54:19Z</time>
      </trkpt>
      <trkpt lat="41.9526690" lon="2.6744740">
        <ele>161.8</ele>
        <time>2022-05-26T17:54:20Z</time>
      </trkpt>
      <trkpt lat="41.9526630" lon="2.6743970">
        <ele>161.8</ele>
        <time>2022-05-26T17:54:21Z</time>
      </trkpt>
      <trkpt lat="41.9526730" lon="2.6743240">
        <ele>161.8</ele>
        <time>2022-05-26T17:54:22Z</time>
      </trkpt>
      <trkpt lat="41.9527040" lon="2.6742570">
        <ele>161.6</ele>
        <time>2022-05-26T17:54:23Z</time>
      </trkpt>
      <trkpt lat="41.9527470" lon="2.6741840">
        <ele>161.6</ele>
        <time>2022-05-26T17:54:24Z</time>
      </trkpt>
      <trkpt lat="41.9528010" lon="2.6740880">
        <ele>161.4</ele>
        <time>2022-05-26T17:54:25Z</time>
      </trkpt>
      <trkpt lat="41.9528340" lon="2.6739710">
        <ele>161.6</ele>
        <time>2022-05-26T17:54:26Z</time>
      </trkpt>
      <trkpt lat="41.9528680" lon="2.6738500">
        <ele>161.6</ele>
        <time>2022-05-26T17:54:27Z</time>
      </trkpt>
      <trkpt lat="41.9528850" lon="2.6737370">
        <ele>161.4</ele>
        <time>2022-05-26T17:54:28Z</time>
      </trkpt>
      <trkpt lat="41.9528910" lon="2.6736220">
        <ele>161.0</ele>
        <time>2022-05-26T17:54:29Z</time>
      </trkpt>
      <trkpt lat="41.9528930" lon="2.6735010">
        <ele>160.4</ele>
        <time>2022-05-26T17:54:30Z</time>
      </trkpt>
      <trkpt lat="41.9529010" lon="2.6733690">
        <ele>160.2</ele>
        <time>2022-05-26T17:54:31Z</time>
      </trkpt>
      <trkpt lat="41.9529220" lon="2.6732280">
        <ele>160.0</ele>
        <time>2022-05-26T17:54:32Z</time>
      </trkpt>
      <trkpt lat="41.9529460" lon="2.6730970">
        <ele>159.8</ele>
        <time>2022-05-26T17:54:33Z</time>
      </trkpt>
      <trkpt lat="41.9529630" lon="2.6729790">
        <ele>159.6</ele>
        <time>2022-05-26T17:54:34Z</time>
      </trkpt>
      <trkpt lat="41.9529780" lon="2.6728830">
        <ele>159.4</ele>
        <time>2022-05-26T17:54:35Z</time>
      </trkpt>
      <trkpt lat="41.9529930" lon="2.6728120">
        <ele>159.4</ele>
        <time>2022-05-26T17:54:36Z</time>
      </trkpt>
      <trkpt lat="41.9530030" lon="2.6727540">
        <ele>159.2</ele>
        <time>2022-05-26T17:54:37Z</time>
      </trkpt>
      <trkpt lat="41.9530010" lon="2.6726820">
        <ele>159.2</ele>
        <time>2022-05-26T17:54:38Z</time>
      </trkpt>
      <trkpt lat="41.9529600" lon="2.6725970">
        <ele>159.2</ele>
        <time>2022-05-26T17:54:39Z</time>
      </trkpt>
      <trkpt lat="41.9529010" lon="2.6725120">
        <ele>159.0</ele>
        <time>2022-05-26T17:54:40Z</time>
      </trkpt>
      <trkpt lat="41.9528410" lon="2.6724310">
        <ele>158.8</ele>
        <time>2022-05-26T17:54:41Z</time>
      </trkpt>
      <trkpt lat="41.9527990" lon="2.6723510">
        <ele>158.4</ele>
        <time>2022-05-26T17:54:42Z</time>
      </trkpt>
      <trkpt lat="41.9527660" lon="2.6722730">
        <ele>158.0</ele>
        <time>2022-05-26T17:54:43Z</time>
      </trkpt>
      <trkpt lat="41.9527560" lon="2.6721960">
        <ele>157.2</ele>
        <time>2022-05-26T17:54:44Z</time>
      </trkpt>
      <trkpt lat="41.9527630" lon="2.6721140">
        <ele>156.6</ele>
        <time>2022-05-26T17:54:45Z</time>
      </trkpt>
      <trkpt lat="41.9527800" lon="2.6720290">
        <ele>156.0</ele>
        <time>2022-05-26T17:54:46Z</time>
      </trkpt>
      <trkpt lat="41.9528060" lon="2.6719600">
        <ele>155.4</ele>
        <time>2022-05-26T17:54:47Z</time>
      </trkpt>
      <trkpt lat="41.9528370" lon="2.6719100">
        <ele>154.8</ele>
        <time>2022-05-26T17:54:48Z</time>
      </trkpt>
      <trkpt lat="41.9528500" lon="2.6718700">
        <ele>154.2</ele>
        <time>2022-05-26T17:54:49Z</time>
      </trkpt>
      <trkpt lat="41.9528590" lon="2.6718480">
        <ele>153.8</ele>
        <time>2022-05-26T17:54:50Z</time>
      </trkpt>
      <trkpt lat="41.9528440" lon="2.6718430">
        <ele>153.4</ele>
        <time>2022-05-26T17:54:51Z</time>
      </trkpt>
      <trkpt lat="41.9528220" lon="2.6718550">
        <ele>153.0</ele>
        <time>2022-05-26T17:54:52Z</time>
      </trkpt>
      <trkpt lat="41.9527990" lon="2.6718760">
        <ele>152.8</ele>
        <time>2022-05-26T17:54:53Z</time>
      </trkpt>
      <trkpt lat="41.9527600" lon="2.6719020">
        <ele>152.6</ele>
        <time>2022-05-26T17:54:54Z</time>
      </trkpt>
      <trkpt lat="41.9527130" lon="2.6719310">
        <ele>152.6</ele>
        <time>2022-05-26T17:54:55Z</time>
      </trkpt>
      <trkpt lat="41.9526540" lon="2.6719680">
        <ele>152.4</ele>
        <time>2022-05-26T17:54:56Z</time>
      </trkpt>
      <trkpt lat="41.9525880" lon="2.6720050">
        <ele>152.4</ele>
        <time>2022-05-26T17:54:57Z</time>
      </trkpt>
      <trkpt lat="41.9525150" lon="2.6720390">
        <ele>152.4</ele>
        <time>2022-05-26T17:54:58Z</time>
      </trkpt>
      <trkpt lat="41.9524470" lon="2.6720680">
        <ele>152.2</ele>
        <time>2022-05-26T17:54:59Z</time>
      </trkpt>
      <trkpt lat="41.9523920" lon="2.6720860">
        <ele>152.0</ele>
        <time>2022-05-26T17:55:00Z</time>
      </trkpt>
      <trkpt lat="41.9523540" lon="2.6720880">
        <ele>151.8</ele>
        <time>2022-05-26T17:55:01Z</time>
      </trkpt>
      <trkpt lat="41.9523260" lon="2.6720820">
        <ele>151.4</ele>
        <time>2022-05-26T17:55:02Z</time>
      </trkpt>
      <trkpt lat="41.9523070" lon="2.6720690">
        <ele>151.2</ele>
        <time>2022-05-26T17:55:03Z</time>
      </trkpt>
      <trkpt lat="41.9522950" lon="2.6720540">
        <ele>150.8</ele>
        <time>2022-05-26T17:55:04Z</time>
      </trkpt>
      <trkpt lat="41.9522860" lon="2.6720360">
        <ele>150.6</ele>
        <time>2022-05-26T17:55:05Z</time>
      </trkpt>
      <trkpt lat="41.9522760" lon="2.6720210">
        <ele>150.4</ele>
        <time>2022-05-26T17:55:06Z</time>
      </trkpt>
      <trkpt lat="41.9522700" lon="2.6720100">
        <ele>150.2</ele>
        <time>2022-05-26T17:55:07Z</time>
      </trkpt>
      <trkpt lat="41.9522700" lon="2.6720050">
        <ele>150.0</ele>
        <time>2022-05-26T17:55:08Z</time>
      </trkpt>
      <trkpt lat="41.9522700" lon="2.6720060">
        <ele>150.0</ele>
        <time>2022-05-26T17:55:09Z</time>
      </trkpt>
      <trkpt lat="41.9522700" lon="2.6720070">
        <ele>150.0</ele>
        <time>2022-05-26T17:55:10Z</time>
      </trkpt>
      <trkpt lat="41.9522620" lon="2.6720010">
        <ele>150.0</ele>
        <time>2022-05-26T17:55:11Z</time>
      </trkpt>
      <trkpt lat="41.9522520" lon="2.6719960">
        <ele>150.0</ele>
        <time>2022-05-26T17:55:12Z</time>
      </trkpt>
      <trkpt lat="41.9522470" lon="2.6719980">
        <ele>150.0</ele>
        <time>2022-05-26T17:55:13Z</time>
      </trkpt>
      <trkpt lat="41.9522470" lon="2.6719980">
        <ele>150.0</ele>
        <time>2022-05-26T17:55:14Z</time>
      </trkpt>
      <trkpt lat="41.9522470" lon="2.6719980">
        <ele>150.0</ele>
        <time>2022-05-26T17:55:15Z</time>
      </trkpt>
      <trkpt lat="41.9522460" lon="2.6719960">
        <ele>150.0</ele>
        <time>2022-05-26T17:55:16Z</time>
      </trkpt>
      <trkpt lat="41.9522410" lon="2.6719910">
        <ele>150.0</ele>
        <time>2022-05-26T17:55:17Z</time>
      </trkpt>
      <trkpt lat="41.9520760" lon="2.6719160">
        <ele>150.4</ele>
        <time>2022-05-26T17:55:22Z</time>
      </trkpt>
      <trkpt lat="41.9520470" lon="2.6719160">
        <ele>150.6</ele>
        <time>2022-05-26T17:55:23Z</time>
      </trkpt>
      <trkpt lat="41.9520150" lon="2.6719250">
        <ele>150.8</ele>
        <time>2022-05-26T17:55:24Z</time>
      </trkpt>
      <trkpt lat="41.9519770" lon="2.6719440">
        <ele>151.2</ele>
        <time>2022-05-26T17:55:25Z</time>
      </trkpt>
      <trkpt lat="41.9519300" lon="2.6719510">
        <ele>151.4</ele>
        <time>2022-05-26T17:55:26Z</time>
      </trkpt>
      <trkpt lat="41.9518710" lon="2.6719520">
        <ele>151.6</ele>
        <time>2022-05-26T17:55:27Z</time>
      </trkpt>
      <trkpt lat="41.9518020" lon="2.6719440">
        <ele>152.0</ele>
        <time>2022-05-26T17:55:28Z</time>
      </trkpt>
      <trkpt lat="41.9517290" lon="2.6719280">
        <ele>152.2</ele>
        <time>2022-05-26T17:55:29Z</time>
      </trkpt>
      <trkpt lat="41.9516600" lon="2.6719180">
        <ele>152.6</ele>
        <time>2022-05-26T17:55:30Z</time>
      </trkpt>
      <trkpt lat="41.9515970" lon="2.6719130">
        <ele>152.6</ele>
        <time>2022-05-26T17:55:31Z</time>
      </trkpt>
      <trkpt lat="41.9515410" lon="2.6719120">
        <ele>153.0</ele>
        <time>2022-05-26T17:55:32Z</time>
      </trkpt>
      <trkpt lat="41.9514930" lon="2.6719140">
        <ele>153.2</ele>
        <time>2022-05-26T17:55:33Z</time>
      </trkpt>
      <trkpt lat="41.9514370" lon="2.6719010">
        <ele>153.6</ele>
        <time>2022-05-26T17:55:34Z</time>
      </trkpt>
      <trkpt lat="41.9513760" lon="2.6718680">
        <ele>153.8</ele>
        <time>2022-05-26T17:55:35Z</time>
      </trkpt>
      <trkpt lat="41.9513210" lon="2.6718100">
        <ele>154.0</ele>
        <time>2022-05-26T17:55:36Z</time>
      </trkpt>
      <trkpt lat="41.9512720" lon="2.6717250">
        <ele>154.2</ele>
        <time>2022-05-26T17:55:37Z</time>
      </trkpt>
      <trkpt lat="41.9512250" lon="2.6716280">
        <ele>154.4</ele>
        <time>2022-05-26T17:55:38Z</time>
      </trkpt>
      <trkpt lat="41.9511710" lon="2.6715280">
        <ele>154.4</ele>
        <time>2022-05-26T17:55:39Z</time>
      </trkpt>
      <trkpt lat="41.9511150" lon="2.6714560">
        <ele>154.4</ele>
        <time>2022-05-26T17:55:40Z</time>
      </trkpt>
      <trkpt lat="41.9510640" lon="2.6713980">
        <ele>154.4</ele>
        <time>2022-05-26T17:55:41Z</time>
      </trkpt>
      <trkpt lat="41.9510160" lon="2.6713490">
        <ele>154.4</ele>
        <time>2022-05-26T17:55:42Z</time>
      </trkpt>
      <trkpt lat="41.9509680" lon="2.6713100">
        <ele>154.4</ele>
        <time>2022-05-26T17:55:43Z</time>
      </trkpt>
      <trkpt lat="41.9509120" lon="2.6712750">
        <ele>154.4</ele>
        <time>2022-05-26T17:55:44Z</time>
      </trkpt>
      <trkpt lat="41.9508470" lon="2.6712430">
        <ele>154.4</ele>
        <time>2022-05-26T17:55:45Z</time>
      </trkpt>
      <trkpt lat="41.9507860" lon="2.6712050">
        <ele>154.4</ele>
        <time>2022-05-26T17:55:46Z</time>
      </trkpt>
      <trkpt lat="41.9507410" lon="2.6711590">
        <ele>154.4</ele>
        <time>2022-05-26T17:55:47Z</time>
      </trkpt>
      <trkpt lat="41.9507040" lon="2.6711170">
        <ele>154.6</ele>
        <time>2022-05-26T17:55:48Z</time>
      </trkpt>
      <trkpt lat="41.9506610" lon="2.6710880">
        <ele>154.6</ele>
        <time>2022-05-26T17:55:49Z</time>
      </trkpt>
      <trkpt lat="41.9506100" lon="2.6710830">
        <ele>154.6</ele>
        <time>2022-05-26T17:55:50Z</time>
      </trkpt>
      <trkpt lat="41.9505630" lon="2.6710930">
        <ele>154.6</ele>
        <time>2022-05-26T17:55:51Z</time>
      </trkpt>
      <trkpt lat="41.9505270" lon="2.6711170">
        <ele>154.6</ele>
        <time>2022-05-26T17:55:52Z</time>
      </trkpt>
      <trkpt lat="41.9504910" lon="2.6711310">
        <ele>154.8</ele>
        <time>2022-05-26T17:55:53Z</time>
      </trkpt>
      <trkpt lat="41.9504490" lon="2.6711390">
        <ele>154.8</ele>
        <time>2022-05-26T17:55:54Z</time>
      </trkpt>
      <trkpt lat="41.9503990" lon="2.6711380">
        <ele>154.8</ele>
        <time>2022-05-26T17:55:55Z</time>
      </trkpt>
      <trkpt lat="41.9503470" lon="2.6711280">
        <ele>155.2</ele>
        <time>2022-05-26T17:55:56Z</time>
      </trkpt>
      <trkpt lat="41.9502980" lon="2.6710960">
        <ele>155.4</ele>
        <time>2022-05-26T17:55:57Z</time>
      </trkpt>
      <trkpt lat="41.9502460" lon="2.6710490">
        <ele>155.8</ele>
        <time>2022-05-26T17:55:58Z</time>
      </trkpt>
      <trkpt lat="41.9501800" lon="2.6710200">
        <ele>156.0</ele>
        <time>2022-05-26T17:55:59Z</time>
      </trkpt>
      <trkpt lat="41.9501120" lon="2.6710090">
        <ele>156.2</ele>
        <time>2022-05-26T17:56:00Z</time>
      </trkpt>
      <trkpt lat="41.9500560" lon="2.6710190">
        <ele>156.2</ele>
        <time>2022-05-26T17:56:01Z</time>
      </trkpt>
      <trkpt lat="41.9500040" lon="2.6710320">
        <ele>156.2</ele>
        <time>2022-05-26T17:56:02Z</time>
      </trkpt>
      <trkpt lat="41.9499460" lon="2.6710270">
        <ele>156.4</ele>
        <time>2022-05-26T17:56:03Z</time>
      </trkpt>
      <trkpt lat="41.9498890" lon="2.6710180">
        <ele>156.6</ele>
        <time>2022-05-26T17:56:04Z</time>
      </trkpt>
      <trkpt lat="41.9498480" lon="2.6709970">
        <ele>156.6</ele>
        <time>2022-05-26T17:56:05Z</time>
      </trkpt>
      <trkpt lat="41.9498190" lon="2.6709670">
        <ele>156.8</ele>
        <time>2022-05-26T17:56:06Z</time>
      </trkpt>
      <trkpt lat="41.9497790" lon="2.6709350">
        <ele>157.0</ele>
        <time>2022-05-26T17:56:07Z</time>
      </trkpt>
      <trkpt lat="41.9497230" lon="2.6709070">
        <ele>157.2</ele>
        <time>2022-05-26T17:56:08Z</time>
      </trkpt>
      <trkpt lat="41.9496680" lon="2.6708710">
        <ele>157.4</ele>
        <time>2022-05-26T17:56:09Z</time>
      </trkpt>
      <trkpt lat="41.9496470" lon="2.6708250">
        <ele>157.6</ele>
        <time>2022-05-26T17:56:10Z</time>
      </trkpt>
      <trkpt lat="41.9496410" lon="2.6707820">
        <ele>158.0</ele>
        <time>2022-05-26T17:56:11Z</time>
      </trkpt>
      <trkpt lat="41.9496590" lon="2.6707460">
        <ele>158.4</ele>
        <time>2022-05-26T17:56:12Z</time>
      </trkpt>
      <trkpt lat="41.9496700" lon="2.6707170">
        <ele>158.6</ele>
        <time>2022-05-26T17:56:13Z</time>
      </trkpt>
      <trkpt lat="41.9496690" lon="2.6706760">
        <ele>159.0</ele>
        <time>2022-05-26T17:56:14Z</time>
      </trkpt>
      <trkpt lat="41.9496610" lon="2.6706290">
        <ele>159.6</ele>
        <time>2022-05-26T17:56:15Z</time>
      </trkpt>
      <trkpt lat="41.9496600" lon="2.6705930">
        <ele>160.2</ele>
        <time>2022-05-26T17:56:16Z</time>
      </trkpt>
      <trkpt lat="41.9496720" lon="2.6705720">
        <ele>160.8</ele>
        <time>2022-05-26T17:56:17Z</time>
      </trkpt>
      <trkpt lat="41.9496950" lon="2.6705530">
        <ele>161.2</ele>
        <time>2022-05-26T17:56:18Z</time>
      </trkpt>
      <trkpt lat="41.9497300" lon="2.6705410">
        <ele>161.8</ele>
        <time>2022-05-26T17:56:19Z</time>
      </trkpt>
      <trkpt lat="41.9497680" lon="2.6705340">
        <ele>162.4</ele>
        <time>2022-05-26T17:56:20Z</time>
      </trkpt>
      <trkpt lat="41.9498150" lon="2.6705260">
        <ele>163.0</ele>
        <time>2022-05-26T17:56:21Z</time>
      </trkpt>
      <trkpt lat="41.9498610" lon="2.6705190">
        <ele>163.8</ele>
        <time>2022-05-26T17:56:22Z</time>
      </trkpt>
      <trkpt lat="41.9499120" lon="2.6705120">
        <ele>164.6</ele>
        <time>2022-05-26T17:56:23Z</time>
      </trkpt>
      <trkpt lat="41.9499670" lon="2.6705040">
        <ele>165.6</ele>
        <time>2022-05-26T17:56:24Z</time>
      </trkpt>
      <trkpt lat="41.9500260" lon="2.6704910">
        <ele>166.6</ele>
        <time>2022-05-26T17:56:25Z</time>
      </trkpt>
      <trkpt lat="41.9500840" lon="2.6704800">
        <ele>167.6</ele>
        <time>2022-05-26T17:56:26Z</time>
      </trkpt>
      <trkpt lat="41.9501340" lon="2.6704680">
        <ele>168.6</ele>
        <time>2022-05-26T17:56:27Z</time>
      </trkpt>
      <trkpt lat="41.9501830" lon="2.6704620">
        <ele>169.4</ele>
        <time>2022-05-26T17:56:28Z</time>
      </trkpt>
      <trkpt lat="41.9502310" lon="2.6704630">
        <ele>170.4</ele>
        <time>2022-05-26T17:56:29Z</time>
      </trkpt>
      <trkpt lat="41.9502770" lon="2.6704660">
        <ele>171.2</ele>
        <time>2022-05-26T17:56:30Z</time>
      </trkpt>
      <trkpt lat="41.9503200" lon="2.6704540">
        <ele>171.8</ele>
        <time>2022-05-26T17:56:31Z</time>
      </trkpt>
      <trkpt lat="41.9503510" lon="2.6704260">
        <ele>172.6</ele>
        <time>2022-05-26T17:56:32Z</time>
      </trkpt>
      <trkpt lat="41.9503560" lon="2.6703830">
        <ele>173.4</ele>
        <time>2022-05-26T17:56:33Z</time>
      </trkpt>
      <trkpt lat="41.9503460" lon="2.6703280">
        <ele>174.4</ele>
        <time>2022-05-26T17:56:34Z</time>
      </trkpt>
      <trkpt lat="41.9503090" lon="2.6702670">
        <ele>175.0</ele>
        <time>2022-05-26T17:56:35Z</time>
      </trkpt>
      <trkpt lat="41.9502460" lon="2.6701990">
        <ele>176.0</ele>
        <time>2022-05-26T17:56:36Z</time>
      </trkpt>
      <trkpt lat="41.9501750" lon="2.6701360">
        <ele>176.8</ele>
        <time>2022-05-26T17:56:37Z</time>
      </trkpt>
      <trkpt lat="41.9501280" lon="2.6700800">
        <ele>177.8</ele>
        <time>2022-05-26T17:56:38Z</time>
      </trkpt>
      <trkpt lat="41.9500790" lon="2.6700260">
        <ele>178.6</ele>
        <time>2022-05-26T17:56:39Z</time>
      </trkpt>
      <trkpt lat="41.9500290" lon="2.6699690">
        <ele>179.6</ele>
        <time>2022-05-26T17:56:40Z</time>
      </trkpt>
      <trkpt lat="41.9499750" lon="2.6699100">
        <ele>180.4</ele>
        <time>2022-05-26T17:56:41Z</time>
      </trkpt>
      <trkpt lat="41.9499210" lon="2.6698480">
        <ele>181.2</ele>
        <time>2022-05-26T17:56:42Z</time>
      </trkpt>
      <trkpt lat="41.9498750" lon="2.6697820">
        <ele>182.2</ele>
        <time>2022-05-26T17:56:43Z</time>
      </trkpt>
      <trkpt lat="41.9498250" lon="2.6696950">
        <ele>183.0</ele>
        <time>2022-05-26T17:56:44Z</time>
      </trkpt>
      <trkpt lat="41.9497770" lon="2.6695980">
        <ele>183.8</ele>
        <time>2022-05-26T17:56:45Z</time>
      </trkpt>
      <trkpt lat="41.9497340" lon="2.6694990">
        <ele>184.8</ele>
        <time>2022-05-26T17:56:46Z</time>
      </trkpt>
      <trkpt lat="41.9496970" lon="2.6693980">
        <ele>185.6</ele>
        <time>2022-05-26T17:56:47Z</time>
      </trkpt>
      <trkpt lat="41.9496710" lon="2.6692980">
        <ele>186.2</ele>
        <time>2022-05-26T17:56:48Z</time>
      </trkpt>
      <trkpt lat="41.9496510" lon="2.6691990">
        <ele>186.8</ele>
        <time>2022-05-26T17:56:49Z</time>
      </trkpt>
      <trkpt lat="41.9496350" lon="2.6691010">
        <ele>187.4</ele>
        <time>2022-05-26T17:56:50Z</time>
      </trkpt>
      <trkpt lat="41.9496140" lon="2.6690060">
        <ele>188.0</ele>
        <time>2022-05-26T17:56:51Z</time>
      </trkpt>
      <trkpt lat="41.9495830" lon="2.6689170">
        <ele>188.8</ele>
        <time>2022-05-26T17:56:52Z</time>
      </trkpt>
      <trkpt lat="41.9495370" lon="2.6688330">
        <ele>189.6</ele>
        <time>2022-05-26T17:56:53Z</time>
      </trkpt>
      <trkpt lat="41.9494860" lon="2.6687510">
        <ele>190.4</ele>
        <time>2022-05-26T17:56:54Z</time>
      </trkpt>
      <trkpt lat="41.9494330" lon="2.6686700">
        <ele>191.0</ele>
        <time>2022-05-26T17:56:55Z</time>
      </trkpt>
      <trkpt lat="41.9493870" lon="2.6685830">
        <ele>191.8</ele>
        <time>2022-05-26T17:56:56Z</time>
      </trkpt>
      <trkpt lat="41.9493590" lon="2.6684860">
        <ele>192.6</ele>
        <time>2022-05-26T17:56:57Z</time>
      </trkpt>
      <trkpt lat="41.9493460" lon="2.6683770">
        <ele>193.4</ele>
        <time>2022-05-26T17:56:58Z</time>
      </trkpt>
      <trkpt lat="41.9493380" lon="2.6682620">
        <ele>194.4</ele>
        <time>2022-05-26T17:56:59Z</time>
      </trkpt>
      <trkpt lat="41.9493310" lon="2.6681520">
        <ele>195.0</ele>
        <time>2022-05-26T17:57:00Z</time>
      </trkpt>
      <trkpt lat="41.9493270" lon="2.6680540">
        <ele>195.6</ele>
        <time>2022-05-26T17:57:01Z</time>
      </trkpt>
      <trkpt lat="41.9493330" lon="2.6679530">
        <ele>196.2</ele>
        <time>2022-05-26T17:57:02Z</time>
      </trkpt>
      <trkpt lat="41.9493370" lon="2.6678740">
        <ele>196.6</ele>
        <time>2022-05-26T17:57:03Z</time>
      </trkpt>
      <trkpt lat="41.9493320" lon="2.6678090">
        <ele>197.0</ele>
        <time>2022-05-26T17:57:04Z</time>
      </trkpt>
      <trkpt lat="41.9493130" lon="2.6677420">
        <ele>197.4</ele>
        <time>2022-05-26T17:57:05Z</time>
      </trkpt>
      <trkpt lat="41.9492880" lon="2.6676620">
        <ele>197.8</ele>
        <time>2022-05-26T17:57:06Z</time>
      </trkpt>
      <trkpt lat="41.9492570" lon="2.6675840">
        <ele>198.2</ele>
        <time>2022-05-26T17:57:07Z</time>
      </trkpt>
      <trkpt lat="41.9492280" lon="2.6674920">
        <ele>198.4</ele>
        <time>2022-05-26T17:57:08Z</time>
      </trkpt>
      <trkpt lat="41.9491970" lon="2.6674030">
        <ele>198.4</ele>
        <time>2022-05-26T17:57:09Z</time>
      </trkpt>
      <trkpt lat="41.9491560" lon="2.6673100">
        <ele>198.6</ele>
        <time>2022-05-26T17:57:10Z</time>
      </trkpt>
      <trkpt lat="41.9491080" lon="2.6672130">
        <ele>198.8</ele>
        <time>2022-05-26T17:57:11Z</time>
      </trkpt>
      <trkpt lat="41.9490620" lon="2.6671340">
        <ele>199.0</ele>
        <time>2022-05-26T17:57:12Z</time>
      </trkpt>
      <trkpt lat="41.9490120" lon="2.6670530">
        <ele>199.2</ele>
        <time>2022-05-26T17:57:13Z</time>
      </trkpt>
      <trkpt lat="41.9489550" lon="2.6669640">
        <ele>199.6</ele>
        <time>2022-05-26T17:57:14Z</time>
      </trkpt>
      <trkpt lat="41.9489020" lon="2.6668680">
        <ele>199.8</ele>
        <time>2022-05-26T17:57:15Z</time>
      </trkpt>
      <trkpt lat="41.9488550" lon="2.6667670">
        <ele>199.8</ele>
        <time>2022-05-26T17:57:16Z</time>
      </trkpt>
      <trkpt lat="41.9488120" lon="2.6666690">
        <ele>199.8</ele>
        <time>2022-05-26T17:57:17Z</time>
      </trkpt>
      <trkpt lat="41.9487770" lon="2.6665800">
        <ele>199.8</ele>
        <time>2022-05-26T17:57:18Z</time>
      </trkpt>
      <trkpt lat="41.9487550" lon="2.6664980">
        <ele>200.0</ele>
        <time>2022-05-26T17:57:19Z</time>
      </trkpt>
      <trkpt lat="41.9487440" lon="2.6664200">
        <ele>200.2</ele>
        <time>2022-05-26T17:57:20Z</time>
      </trkpt>
      <trkpt lat="41.9487390" lon="2.6663440">
        <ele>200.2</ele>
        <time>2022-05-26T17:57:21Z</time>
      </trkpt>
      <trkpt lat="41.9487330" lon="2.6662650">
        <ele>200.6</ele>
        <time>2022-05-26T17:57:22Z</time>
      </trkpt>
      <trkpt lat="41.9487350" lon="2.6661820">
        <ele>201.0</ele>
        <time>2022-05-26T17:57:23Z</time>
      </trkpt>
      <trkpt lat="41.9487400" lon="2.6660960">
        <ele>201.2</ele>
        <time>2022-05-26T17:57:24Z</time>
      </trkpt>
      <trkpt lat="41.9487480" lon="2.6659980">
        <ele>201.8</ele>
        <time>2022-05-26T17:57:25Z</time>
      </trkpt>
      <trkpt lat="41.9487530" lon="2.6659100">
        <ele>202.2</ele>
        <time>2022-05-26T17:57:26Z</time>
      </trkpt>
      <trkpt lat="41.9487550" lon="2.6658220">
        <ele>202.6</ele>
        <time>2022-05-26T17:57:27Z</time>
      </trkpt>
      <trkpt lat="41.9487590" lon="2.6657250">
        <ele>203.2</ele>
        <time>2022-05-26T17:57:28Z</time>
      </trkpt>
      <trkpt lat="41.9487620" lon="2.6656170">
        <ele>204.0</ele>
        <time>2022-05-26T17:57:29Z</time>
      </trkpt>
      <trkpt lat="41.9487620" lon="2.6654870">
        <ele>204.8</ele>
        <time>2022-05-26T17:57:30Z</time>
      </trkpt>
      <trkpt lat="41.9487630" lon="2.6653620">
        <ele>205.4</ele>
        <time>2022-05-26T17:57:31Z</time>
      </trkpt>
      <trkpt lat="41.9487640" lon="2.6652490">
        <ele>206.0</ele>
        <time>2022-05-26T17:57:32Z</time>
      </trkpt>
      <trkpt lat="41.9487650" lon="2.6651500">
        <ele>206.6</ele>
        <time>2022-05-26T17:57:33Z</time>
      </trkpt>
      <trkpt lat="41.9487670" lon="2.6650410">
        <ele>207.4</ele>
        <time>2022-05-26T17:57:34Z</time>
      </trkpt>
      <trkpt lat="41.9487680" lon="2.6649220">
        <ele>208.2</ele>
        <time>2022-05-26T17:57:35Z</time>
      </trkpt>
      <trkpt lat="41.9487670" lon="2.6647980">
        <ele>209.0</ele>
        <time>2022-05-26T17:57:36Z</time>
      </trkpt>
      <trkpt lat="41.9487670" lon="2.6646720">
        <ele>209.6</ele>
        <time>2022-05-26T17:57:37Z</time>
      </trkpt>
      <trkpt lat="41.9487650" lon="2.6645510">
        <ele>210.0</ele>
        <time>2022-05-26T17:57:38Z</time>
      </trkpt>
      <trkpt lat="41.9487640" lon="2.6644370">
        <ele>210.4</ele>
        <time>2022-05-26T17:57:39Z</time>
      </trkpt>
      <trkpt lat="41.9487620" lon="2.6643360">
        <ele>210.8</ele>
        <time>2022-05-26T17:57:40Z</time>
      </trkpt>
      <trkpt lat="41.9487630" lon="2.6642480">
        <ele>211.2</ele>
        <time>2022-05-26T17:57:41Z</time>
      </trkpt>
      <trkpt lat="41.9487610" lon="2.6641660">
        <ele>211.6</ele>
        <time>2022-05-26T17:57:42Z</time>
      </trkpt>
      <trkpt lat="41.9487590" lon="2.6640880">
        <ele>212.0</ele>
        <time>2022-05-26T17:57:43Z</time>
      </trkpt>
      <trkpt lat="41.9487540" lon="2.6640090">
        <ele>212.2</ele>
        <time>2022-05-26T17:57:44Z</time>
      </trkpt>
      <trkpt lat="41.9487490" lon="2.6639260">
        <ele>212.4</ele>
        <time>2022-05-26T17:57:45Z</time>
      </trkpt>
      <trkpt lat="41.9487460" lon="2.6638340">
        <ele>212.6</ele>
        <time>2022-05-26T17:57:46Z</time>
      </trkpt>
      <trkpt lat="41.9487370" lon="2.6637580">
        <ele>212.6</ele>
        <time>2022-05-26T17:57:47Z</time>
      </trkpt>
      <trkpt lat="41.9487230" lon="2.6636880">
        <ele>212.6</ele>
        <time>2022-05-26T17:57:48Z</time>
      </trkpt>
      <trkpt lat="41.9486910" lon="2.6636450">
        <ele>212.6</ele>
        <time>2022-05-26T17:57:49Z</time>
      </trkpt>
      <trkpt lat="41.9486390" lon="2.6636240">
        <ele>212.6</ele>
        <time>2022-05-26T17:57:50Z</time>
      </trkpt>
      <trkpt lat="41.9485670" lon="2.6636100">
        <ele>212.4</ele>
        <time>2022-05-26T17:57:51Z</time>
      </trkpt>
      <trkpt lat="41.9484760" lon="2.6635940">
        <ele>212.2</ele>
        <time>2022-05-26T17:57:52Z</time>
      </trkpt>
      <trkpt lat="41.9483950" lon="2.6635700">
        <ele>212.2</ele>
        <time>2022-05-26T17:57:53Z</time>
      </trkpt>
      <trkpt lat="41.9483190" lon="2.6635280">
        <ele>212.0</ele>
        <time>2022-05-26T17:57:54Z</time>
      </trkpt>
      <trkpt lat="41.9482450" lon="2.6634550">
        <ele>211.6</ele>
        <time>2022-05-26T17:57:55Z</time>
      </trkpt>
      <trkpt lat="41.9481730" lon="2.6633530">
        <ele>211.4</ele>
        <time>2022-05-26T17:57:56Z</time>
      </trkpt>
      <trkpt lat="41.9480990" lon="2.6632300">
        <ele>211.2</ele>
        <time>2022-05-26T17:57:57Z</time>
      </trkpt>
      <trkpt lat="41.9480350" lon="2.6631130">
        <ele>211.2</ele>
        <time>2022-05-26T17:57:58Z</time>
      </trkpt>
      <trkpt lat="41.9479680" lon="2.6629860">
        <ele>211.0</ele>
        <time>2022-05-26T17:57:59Z</time>
      </trkpt>
      <trkpt lat="41.9478960" lon="2.6628470">
        <ele>210.8</ele>
        <time>2022-05-26T17:58:00Z</time>
      </trkpt>
      <trkpt lat="41.9478220" lon="2.6627080">
        <ele>210.6</ele>
        <time>2022-05-26T17:58:01Z</time>
      </trkpt>
      <trkpt lat="41.9477560" lon="2.6625710">
        <ele>210.4</ele>
        <time>2022-05-26T17:58:02Z</time>
      </trkpt>
      <trkpt lat="41.9476920" lon="2.6624400">
        <ele>210.0</ele>
        <time>2022-05-26T17:58:03Z</time>
      </trkpt>
      <trkpt lat="41.9476250" lon="2.6623160">
        <ele>209.8</ele>
        <time>2022-05-26T17:58:04Z</time>
      </trkpt>
      <trkpt lat="41.9475510" lon="2.6621930">
        <ele>209.2</ele>
        <time>2022-05-26T17:58:05Z</time>
      </trkpt>
      <trkpt lat="41.9474850" lon="2.6620800">
        <ele>208.6</ele>
        <time>2022-05-26T17:58:06Z</time>
      </trkpt>
      <trkpt lat="41.9474270" lon="2.6619740">
        <ele>208.2</ele>
        <time>2022-05-26T17:58:07Z</time>
      </trkpt>
      <trkpt lat="41.9473740" lon="2.6618720">
        <ele>207.8</ele>
        <time>2022-05-26T17:58:08Z</time>
      </trkpt>
      <trkpt lat="41.9473300" lon="2.6617760">
        <ele>207.6</ele>
        <time>2022-05-26T17:58:09Z</time>
      </trkpt>
      <trkpt lat="41.9472880" lon="2.6616760">
        <ele>207.0</ele>
        <time>2022-05-26T17:58:10Z</time>
      </trkpt>
      <trkpt lat="41.9472390" lon="2.6615670">
        <ele>206.8</ele>
        <time>2022-05-26T17:58:11Z</time>
      </trkpt>
      <trkpt lat="41.9471880" lon="2.6614780">
        <ele>206.2</ele>
        <time>2022-05-26T17:58:12Z</time>
      </trkpt>
      <trkpt lat="41.9471360" lon="2.6614190">
        <ele>205.8</ele>
        <time>2022-05-26T17:58:13Z</time>
      </trkpt>
      <trkpt lat="41.9470720" lon="2.6613760">
        <ele>205.6</ele>
        <time>2022-05-26T17:58:14Z</time>
      </trkpt>
      <trkpt lat="41.9469970" lon="2.6613560">
        <ele>205.2</ele>
        <time>2022-05-26T17:58:15Z</time>
      </trkpt>
      <trkpt lat="41.9469160" lon="2.6613570">
        <ele>204.8</ele>
        <time>2022-05-26T17:58:16Z</time>
      </trkpt>
      <trkpt lat="41.9468320" lon="2.6613790">
        <ele>204.6</ele>
        <time>2022-05-26T17:58:17Z</time>
      </trkpt>
      <trkpt lat="41.9467600" lon="2.6614070">
        <ele>204.2</ele>
        <time>2022-05-26T17:58:18Z</time>
      </trkpt>
      <trkpt lat="41.9466900" lon="2.6614390">
        <ele>204.0</ele>
        <time>2022-05-26T17:58:19Z</time>
      </trkpt>
      <trkpt lat="41.9466170" lon="2.6614760">
        <ele>203.6</ele>
        <time>2022-05-26T17:58:20Z</time>
      </trkpt>
      <trkpt lat="41.9465420" lon="2.6615200">
        <ele>203.2</ele>
        <time>2022-05-26T17:58:21Z</time>
      </trkpt>
      <trkpt lat="41.9464750" lon="2.6615660">
        <ele>203.0</ele>
        <time>2022-05-26T17:58:22Z</time>
      </trkpt>
      <trkpt lat="41.9464150" lon="2.6616080">
        <ele>202.8</ele>
        <time>2022-05-26T17:58:23Z</time>
      </trkpt>
      <trkpt lat="41.9463570" lon="2.6616510">
        <ele>202.6</ele>
        <time>2022-05-26T17:58:24Z</time>
      </trkpt>
      <trkpt lat="41.9463000" lon="2.6616940">
        <ele>202.2</ele>
        <time>2022-05-26T17:58:25Z</time>
      </trkpt>
      <trkpt lat="41.9462480" lon="2.6617350">
        <ele>202.0</ele>
        <time>2022-05-26T17:58:26Z</time>
      </trkpt>
      <trkpt lat="41.9461860" lon="2.6617800">
        <ele>201.6</ele>
        <time>2022-05-26T17:58:27Z</time>
      </trkpt>
      <trkpt lat="41.9461280" lon="2.6618230">
        <ele>201.4</ele>
        <time>2022-05-26T17:58:28Z</time>
      </trkpt>
      <trkpt lat="41.9460650" lon="2.6618700">
        <ele>201.2</ele>
        <time>2022-05-26T17:58:29Z</time>
      </trkpt>
      <trkpt lat="41.9460060" lon="2.6619120">
        <ele>201.0</ele>
        <time>2022-05-26T17:58:30Z</time>
      </trkpt>
      <trkpt lat="41.9459420" lon="2.6619510">
        <ele>200.8</ele>
        <time>2022-05-26T17:58:31Z</time>
      </trkpt>
      <trkpt lat="41.9458730" lon="2.6619890">
        <ele>200.6</ele>
        <time>2022-05-26T17:58:32Z</time>
      </trkpt>
      <trkpt lat="41.9458050" lon="2.6620240">
        <ele>200.4</ele>
        <time>2022-05-26T17:58:33Z</time>
      </trkpt>
      <trkpt lat="41.9457340" lon="2.6620530">
        <ele>200.2</ele>
        <time>2022-05-26T17:58:34Z</time>
      </trkpt>
      <trkpt lat="41.9456560" lon="2.6620710">
        <ele>200.2</ele>
        <time>2022-05-26T17:58:35Z</time>
      </trkpt>
      <trkpt lat="41.9455860" lon="2.6620760">
        <ele>200.0</ele>
        <time>2022-05-26T17:58:36Z</time>
      </trkpt>
      <trkpt lat="41.9455140" lon="2.6620770">
        <ele>200.0</ele>
        <time>2022-05-26T17:58:37Z</time>
      </trkpt>
      <trkpt lat="41.9454360" lon="2.6620720">
        <ele>199.8</ele>
        <time>2022-05-26T17:58:38Z</time>
      </trkpt>
      <trkpt lat="41.9453690" lon="2.6620700">
        <ele>199.8</ele>
        <time>2022-05-26T17:58:39Z</time>
      </trkpt>
      <trkpt lat="41.9452990" lon="2.6620700">
        <ele>199.8</ele>
        <time>2022-05-26T17:58:40Z</time>
      </trkpt>
      <trkpt lat="41.9452260" lon="2.6620730">
        <ele>199.6</ele>
        <time>2022-05-26T17:58:41Z</time>
      </trkpt>
      <trkpt lat="41.9451570" lon="2.6620810">
        <ele>199.6</ele>
        <time>2022-05-26T17:58:42Z</time>
      </trkpt>
      <trkpt lat="41.9450920" lon="2.6620950">
        <ele>199.4</ele>
        <time>2022-05-26T17:58:43Z</time>
      </trkpt>
      <trkpt lat="41.9450300" lon="2.6621160">
        <ele>199.4</ele>
        <time>2022-05-26T17:58:44Z</time>
      </trkpt>
      <trkpt lat="41.9449700" lon="2.6621380">
        <ele>199.2</ele>
        <time>2022-05-26T17:58:45Z</time>
      </trkpt>
      <trkpt lat="41.9449100" lon="2.6621620">
        <ele>199.0</ele>
        <time>2022-05-26T17:58:46Z</time>
      </trkpt>
      <trkpt lat="41.9448500" lon="2.6621790">
        <ele>198.8</ele>
        <time>2022-05-26T17:58:47Z</time>
      </trkpt>
      <trkpt lat="41.9447860" lon="2.6621860">
        <ele>198.6</ele>
        <time>2022-05-26T17:58:48Z</time>
      </trkpt>
      <trkpt lat="41.9447290" lon="2.6621850">
        <ele>198.4</ele>
        <time>2022-05-26T17:58:49Z</time>
      </trkpt>
      <trkpt lat="41.9446740" lon="2.6621740">
        <ele>198.2</ele>
        <time>2022-05-26T17:58:50Z</time>
      </trkpt>
      <trkpt lat="41.9446150" lon="2.6621560">
        <ele>197.8</ele>
        <time>2022-05-26T17:58:51Z</time>
      </trkpt>
      <trkpt lat="41.9445540" lon="2.6621320">
        <ele>197.6</ele>
        <time>2022-05-26T17:58:52Z</time>
      </trkpt>
      <trkpt lat="41.9444940" lon="2.6621020">
        <ele>197.4</ele>
        <time>2022-05-26T17:58:53Z</time>
      </trkpt>
      <trkpt lat="41.9444380" lon="2.6620600">
        <ele>197.2</ele>
        <time>2022-05-26T17:58:54Z</time>
      </trkpt>
      <trkpt lat="41.9443870" lon="2.6619920">
        <ele>197.0</ele>
        <time>2022-05-26T17:58:55Z</time>
      </trkpt>
      <trkpt lat="41.9443510" lon="2.6619090">
        <ele>196.6</ele>
        <time>2022-05-26T17:58:56Z</time>
      </trkpt>
      <trkpt lat="41.9443370" lon="2.6618210">
        <ele>196.4</ele>
        <time>2022-05-26T17:58:57Z</time>
      </trkpt>
      <trkpt lat="41.9443310" lon="2.6617220">
        <ele>195.8</ele>
        <time>2022-05-26T17:58:58Z</time>
      </trkpt>
      <trkpt lat="41.9443300" lon="2.6616260">
        <ele>195.2</ele>
        <time>2022-05-26T17:58:59Z</time>
      </trkpt>
      <trkpt lat="41.9443200" lon="2.6615500">
        <ele>194.6</ele>
        <time>2022-05-26T17:59:00Z</time>
      </trkpt>
      <trkpt lat="41.9442970" lon="2.6614980">
        <ele>194.2</ele>
        <time>2022-05-26T17:59:01Z</time>
      </trkpt>
      <trkpt lat="41.9442620" lon="2.6614880">
        <ele>194.2</ele>
        <time>2022-05-26T17:59:02Z</time>
      </trkpt>
      <trkpt lat="41.9442160" lon="2.6615100">
        <ele>194.2</ele>
        <time>2022-05-26T17:59:03Z</time>
      </trkpt>
      <trkpt lat="41.9441580" lon="2.6615710">
        <ele>194.4</ele>
        <time>2022-05-26T17:59:04Z</time>
      </trkpt>
      <trkpt lat="41.9440910" lon="2.6616390">
        <ele>194.4</ele>
        <time>2022-05-26T17:59:05Z</time>
      </trkpt>
      <trkpt lat="41.9440100" lon="2.6617090">
        <ele>194.4</ele>
        <time>2022-05-26T17:59:06Z</time>
      </trkpt>
      <trkpt lat="41.9439210" lon="2.6617780">
        <ele>194.4</ele>
        <time>2022-05-26T17:59:07Z</time>
      </trkpt>
      <trkpt lat="41.9438330" lon="2.6618450">
        <ele>194.6</ele>
        <time>2022-05-26T17:59:08Z</time>
      </trkpt>
      <trkpt lat="41.9437400" lon="2.6618780">
        <ele>194.6</ele>
        <time>2022-05-26T17:59:09Z</time>
      </trkpt>
      <trkpt lat="41.9436500" lon="2.6618930">
        <ele>194.4</ele>
        <time>2022-05-26T17:59:10Z</time>
      </trkpt>
      <trkpt lat="41.9435530" lon="2.6619120">
        <ele>194.4</ele>
        <time>2022-05-26T17:59:11Z</time>
      </trkpt>
      <trkpt lat="41.9434500" lon="2.6619440">
        <ele>194.2</ele>
        <time>2022-05-26T17:59:12Z</time>
      </trkpt>
      <trkpt lat="41.9433460" lon="2.6619850">
        <ele>193.8</ele>
        <time>2022-05-26T17:59:13Z</time>
      </trkpt>
      <trkpt lat="41.9432610" lon="2.6620190">
        <ele>193.4</ele>
        <time>2022-05-26T17:59:14Z</time>
      </trkpt>
      <trkpt lat="41.9431780" lon="2.6620330">
        <ele>193.0</ele>
        <time>2022-05-26T17:59:15Z</time>
      </trkpt>
      <trkpt lat="41.9431020" lon="2.6620360">
        <ele>192.8</ele>
        <time>2022-05-26T17:59:16Z</time>
      </trkpt>
      <trkpt lat="41.9430350" lon="2.6620060">
        <ele>192.6</ele>
        <time>2022-05-26T17:59:17Z</time>
      </trkpt>
      <trkpt lat="41.9429790" lon="2.6619510">
        <ele>192.4</ele>
        <time>2022-05-26T17:59:18Z</time>
      </trkpt>
      <trkpt lat="41.9429220" lon="2.6618620">
        <ele>191.6</ele>
        <time>2022-05-26T17:59:19Z</time>
      </trkpt>
      <trkpt lat="41.9428640" lon="2.6617750">
        <ele>191.0</ele>
        <time>2022-05-26T17:59:20Z</time>
      </trkpt>
      <trkpt lat="41.9428040" lon="2.6616810">
        <ele>190.2</ele>
        <time>2022-05-26T17:59:21Z</time>
      </trkpt>
      <trkpt lat="41.9427340" lon="2.6616140">
        <ele>189.4</ele>
        <time>2022-05-26T17:59:22Z</time>
      </trkpt>
      <trkpt lat="41.9426580" lon="2.6615710">
        <ele>188.8</ele>
        <time>2022-05-26T17:59:23Z</time>
      </trkpt>
      <trkpt lat="41.9425840" lon="2.6615590">
        <ele>188.2</ele>
        <time>2022-05-26T17:59:24Z</time>
      </trkpt>
      <trkpt lat="41.9425150" lon="2.6615760">
        <ele>188.0</ele>
        <time>2022-05-26T17:59:25Z</time>
      </trkpt>
      <trkpt lat="41.9424450" lon="2.6616320">
        <ele>188.0</ele>
        <time>2022-05-26T17:59:26Z</time>
      </trkpt>
      <trkpt lat="41.9423650" lon="2.6617060">
        <ele>188.2</ele>
        <time>2022-05-26T17:59:27Z</time>
      </trkpt>
      <trkpt lat="41.9422790" lon="2.6617850">
        <ele>188.2</ele>
        <time>2022-05-26T17:59:28Z</time>
      </trkpt>
      <trkpt lat="41.9421900" lon="2.6618580">
        <ele>188.2</ele>
        <time>2022-05-26T17:59:29Z</time>
      </trkpt>
      <trkpt lat="41.9421000" lon="2.6619350">
        <ele>188.4</ele>
        <time>2022-05-26T17:59:30Z</time>
      </trkpt>
      <trkpt lat="41.9420160" lon="2.6620010">
        <ele>188.4</ele>
        <time>2022-05-26T17:59:31Z</time>
      </trkpt>
      <trkpt lat="41.9419410" lon="2.6620580">
        <ele>188.2</ele>
        <time>2022-05-26T17:59:32Z</time>
      </trkpt>
      <trkpt lat="41.9418670" lon="2.6621010">
        <ele>188.2</ele>
        <time>2022-05-26T17:59:33Z</time>
      </trkpt>
      <trkpt lat="41.9417930" lon="2.6621360">
        <ele>188.0</ele>
        <time>2022-05-26T17:59:34Z</time>
      </trkpt>
      <trkpt lat="41.9417210" lon="2.6621620">
        <ele>187.8</ele>
        <time>2022-05-26T17:59:35Z</time>
      </trkpt>
      <trkpt lat="41.9416450" lon="2.6621720">
        <ele>187.8</ele>
        <time>2022-05-26T17:59:36Z</time>
      </trkpt>
      <trkpt lat="41.9415600" lon="2.6621720">
        <ele>188.4</ele>
        <time>2022-05-26T17:59:37Z</time>
      </trkpt>
      <trkpt lat="41.9414650" lon="2.6621660">
        <ele>189.2</ele>
        <time>2022-05-26T17:59:38Z</time>
      </trkpt>
      <trkpt lat="41.9413620" lon="2.6621550">
        <ele>189.6</ele>
        <time>2022-05-26T17:59:39Z</time>
      </trkpt>
      <trkpt lat="41.9412540" lon="2.6621370">
        <ele>189.6</ele>
        <time>2022-05-26T17:59:40Z</time>
      </trkpt>
      <trkpt lat="41.9411420" lon="2.6621130">
        <ele>189.4</ele>
        <time>2022-05-26T17:59:41Z</time>
      </trkpt>
      <trkpt lat="41.9410330" lon="2.6620830">
        <ele>189.2</ele>
        <time>2022-05-26T17:59:42Z</time>
      </trkpt>
      <trkpt lat="41.9409330" lon="2.6620560">
        <ele>189.4</ele>
        <time>2022-05-26T17:59:43Z</time>
      </trkpt>
      <trkpt lat="41.9408440" lon="2.6620280">
        <ele>189.8</ele>
        <time>2022-05-26T17:59:44Z</time>
      </trkpt>
      <trkpt lat="41.9407400" lon="2.6619970">
        <ele>190.2</ele>
        <time>2022-05-26T17:59:45Z</time>
      </trkpt>
      <trkpt lat="41.9406350" lon="2.6619700">
        <ele>190.2</ele>
        <time>2022-05-26T17:59:46Z</time>
      </trkpt>
      <trkpt lat="41.9405370" lon="2.6619480">
        <ele>190.0</ele>
        <time>2022-05-26T17:59:47Z</time>
      </trkpt>
      <trkpt lat="41.9404410" lon="2.6619250">
        <ele>189.8</ele>
        <time>2022-05-26T17:59:48Z</time>
      </trkpt>
      <trkpt lat="41.9403540" lon="2.6619010">
        <ele>189.6</ele>
        <time>2022-05-26T17:59:49Z</time>
      </trkpt>
      <trkpt lat="41.9402790" lon="2.6618890">
        <ele>189.6</ele>
        <time>2022-05-26T17:59:50Z</time>
      </trkpt>
      <trkpt lat="41.9402150" lon="2.6618840">
        <ele>189.6</ele>
        <time>2022-05-26T17:59:51Z</time>
      </trkpt>
      <trkpt lat="41.9401550" lon="2.6618930">
        <ele>189.8</ele>
        <time>2022-05-26T17:59:52Z</time>
      </trkpt>
      <trkpt lat="41.9400900" lon="2.6619020">
        <ele>190.0</ele>
        <time>2022-05-26T17:59:53Z</time>
      </trkpt>
      <trkpt lat="41.9400210" lon="2.6619070">
        <ele>190.0</ele>
        <time>2022-05-26T17:59:54Z</time>
      </trkpt>
      <trkpt lat="41.9399570" lon="2.6619060">
        <ele>189.8</ele>
        <time>2022-05-26T17:59:55Z</time>
      </trkpt>
      <trkpt lat="41.9399040" lon="2.6619030">
        <ele>189.6</ele>
        <time>2022-05-26T17:59:56Z</time>
      </trkpt>
      <trkpt lat="41.9398490" lon="2.6618960">
        <ele>189.4</ele>
        <time>2022-05-26T17:59:57Z</time>
      </trkpt>
      <trkpt lat="41.9397980" lon="2.6618880">
        <ele>189.2</ele>
        <time>2022-05-26T17:59:58Z</time>
      </trkpt>
      <trkpt lat="41.9397600" lon="2.6618760">
        <ele>189.0</ele>
        <time>2022-05-26T17:59:59Z</time>
      </trkpt>
      <trkpt lat="41.9397400" lon="2.6618580">
        <ele>188.8</ele>
        <time>2022-05-26T18:00:00Z</time>
      </trkpt>
      <trkpt lat="41.9397280" lon="2.6618360">
        <ele>188.8</ele>
        <time>2022-05-26T18:00:01Z</time>
      </trkpt>
      <trkpt lat="41.9397210" lon="2.6618140">
        <ele>188.6</ele>
        <time>2022-05-26T18:00:02Z</time>
      </trkpt>
      <trkpt lat="41.9397100" lon="2.6617940">
        <ele>188.6</ele>
        <time>2022-05-26T18:00:03Z</time>
      </trkpt>
      <trkpt lat="41.9396890" lon="2.6617830">
        <ele>188.4</ele>
        <time>2022-05-26T18:00:04Z</time>
      </trkpt>
      <trkpt lat="41.9396610" lon="2.6617810">
        <ele>188.4</ele>
        <time>2022-05-26T18:00:05Z</time>
      </trkpt>
      <trkpt lat="41.9396350" lon="2.6617960">
        <ele>188.2</ele>
        <time>2022-05-26T18:00:06Z</time>
      </trkpt>
      <trkpt lat="41.9396180" lon="2.6618190">
        <ele>188.2</ele>
        <time>2022-05-26T18:00:07Z</time>
      </trkpt>
      <trkpt lat="41.9396060" lon="2.6618480">
        <ele>188.2</ele>
        <time>2022-05-26T18:00:08Z</time>
      </trkpt>
      <trkpt lat="41.9395940" lon="2.6618790">
        <ele>188.2</ele>
        <time>2022-05-26T18:00:09Z</time>
      </trkpt>
      <trkpt lat="41.9395850" lon="2.6619180">
        <ele>188.2</ele>
        <time>2022-05-26T18:00:10Z</time>
      </trkpt>
      <trkpt lat="41.9395730" lon="2.6619690">
        <ele>188.4</ele>
        <time>2022-05-26T18:00:11Z</time>
      </trkpt>
      <trkpt lat="41.9395530" lon="2.6620370">
        <ele>188.4</ele>
        <time>2022-05-26T18:00:12Z</time>
      </trkpt>
      <trkpt lat="41.9395290" lon="2.6621040">
        <ele>188.4</ele>
        <time>2022-05-26T18:00:13Z</time>
      </trkpt>
      <trkpt lat="41.9395110" lon="2.6621700">
        <ele>188.4</ele>
        <time>2022-05-26T18:00:14Z</time>
      </trkpt>
      <trkpt lat="41.9395050" lon="2.6622350">
        <ele>188.2</ele>
        <time>2022-05-26T18:00:15Z</time>
      </trkpt>
      <trkpt lat="41.9395230" lon="2.6622870">
        <ele>188.2</ele>
        <time>2022-05-26T18:00:16Z</time>
      </trkpt>
      <trkpt lat="41.9395470" lon="2.6623320">
        <ele>188.4</ele>
        <time>2022-05-26T18:00:17Z</time>
      </trkpt>
      <trkpt lat="41.9395800" lon="2.6623830">
        <ele>188.4</ele>
        <time>2022-05-26T18:00:18Z</time>
      </trkpt>
      <trkpt lat="41.9396180" lon="2.6624290">
        <ele>188.2</ele>
        <time>2022-05-26T18:00:19Z</time>
      </trkpt>
      <trkpt lat="41.9396680" lon="2.6624530">
        <ele>188.4</ele>
        <time>2022-05-26T18:00:20Z</time>
      </trkpt>
      <trkpt lat="41.9397280" lon="2.6624550">
        <ele>188.4</ele>
        <time>2022-05-26T18:00:21Z</time>
      </trkpt>
      <trkpt lat="41.9397950" lon="2.6624530">
        <ele>188.2</ele>
        <time>2022-05-26T18:00:22Z</time>
      </trkpt>
      <trkpt lat="41.9398580" lon="2.6624560">
        <ele>188.4</ele>
        <time>2022-05-26T18:00:23Z</time>
      </trkpt>
      <trkpt lat="41.9399160" lon="2.6624750">
        <ele>188.4</ele>
        <time>2022-05-26T18:00:24Z</time>
      </trkpt>
      <trkpt lat="41.9399670" lon="2.6625070">
        <ele>188.8</ele>
        <time>2022-05-26T18:00:25Z</time>
      </trkpt>
      <trkpt lat="41.9400180" lon="2.6625360">
        <ele>188.8</ele>
        <time>2022-05-26T18:00:26Z</time>
      </trkpt>
      <trkpt lat="41.9400780" lon="2.6625530">
        <ele>188.8</ele>
        <time>2022-05-26T18:00:27Z</time>
      </trkpt>
      <trkpt lat="41.9401440" lon="2.6625560">
        <ele>188.6</ele>
        <time>2022-05-26T18:00:28Z</time>
      </trkpt>
      <trkpt lat="41.9402060" lon="2.6625580">
        <ele>188.6</ele>
        <time>2022-05-26T18:00:29Z</time>
      </trkpt>
      <trkpt lat="41.9402620" lon="2.6625670">
        <ele>188.6</ele>
        <time>2022-05-26T18:00:30Z</time>
      </trkpt>
      <trkpt lat="41.9403160" lon="2.6625830">
        <ele>188.4</ele>
        <time>2022-05-26T18:00:31Z</time>
      </trkpt>
      <trkpt lat="41.9403700" lon="2.6625990">
        <ele>188.4</ele>
        <time>2022-05-26T18:00:32Z</time>
      </trkpt>
      <trkpt lat="41.9404140" lon="2.6626160">
        <ele>188.2</ele>
        <time>2022-05-26T18:00:33Z</time>
      </trkpt>
      <trkpt lat="41.9404580" lon="2.6626390">
        <ele>188.4</ele>
        <time>2022-05-26T18:00:34Z</time>
      </trkpt>
      <trkpt lat="41.9405110" lon="2.6626660">
        <ele>188.2</ele>
        <time>2022-05-26T18:00:35Z</time>
      </trkpt>
      <trkpt lat="41.9405760" lon="2.6626970">
        <ele>188.2</ele>
        <time>2022-05-26T18:00:36Z</time>
      </trkpt>
      <trkpt lat="41.9406530" lon="2.6627230">
        <ele>188.4</ele>
        <time>2022-05-26T18:00:37Z</time>
      </trkpt>
      <trkpt lat="41.9407200" lon="2.6627400">
        <ele>188.4</ele>
        <time>2022-05-26T18:00:38Z</time>
      </trkpt>
      <trkpt lat="41.9407750" lon="2.6627570">
        <ele>188.6</ele>
        <time>2022-05-26T18:00:39Z</time>
      </trkpt>
      <trkpt lat="41.9408230" lon="2.6627780">
        <ele>188.6</ele>
        <time>2022-05-26T18:00:40Z</time>
      </trkpt>
      <trkpt lat="41.9408680" lon="2.6627940">
        <ele>188.8</ele>
        <time>2022-05-26T18:00:41Z</time>
      </trkpt>
      <trkpt lat="41.9409130" lon="2.6627970">
        <ele>188.8</ele>
        <time>2022-05-26T18:00:42Z</time>
      </trkpt>
      <trkpt lat="41.9409600" lon="2.6627910">
        <ele>189.0</ele>
        <time>2022-05-26T18:00:43Z</time>
      </trkpt>
      <trkpt lat="41.9410160" lon="2.6627660">
        <ele>189.0</ele>
        <time>2022-05-26T18:00:44Z</time>
      </trkpt>
      <trkpt lat="41.9410770" lon="2.6627400">
        <ele>189.0</ele>
        <time>2022-05-26T18:00:45Z</time>
      </trkpt>
      <trkpt lat="41.9411460" lon="2.6627180">
        <ele>189.0</ele>
        <time>2022-05-26T18:00:46Z</time>
      </trkpt>
      <trkpt lat="41.9412290" lon="2.6627030">
        <ele>189.2</ele>
        <time>2022-05-26T18:00:47Z</time>
      </trkpt>
      <trkpt lat="41.9412970" lon="2.6626900">
        <ele>189.2</ele>
        <time>2022-05-26T18:00:48Z</time>
      </trkpt>
      <trkpt lat="41.9413590" lon="2.6626730">
        <ele>189.0</ele>
        <time>2022-05-26T18:00:49Z</time>
      </trkpt>
      <trkpt lat="41.9414140" lon="2.6626450">
        <ele>189.0</ele>
        <time>2022-05-26T18:00:50Z</time>
      </trkpt>
      <trkpt lat="41.9414720" lon="2.6626140">
        <ele>189.0</ele>
        <time>2022-05-26T18:00:51Z</time>
      </trkpt>
      <trkpt lat="41.9415310" lon="2.6625870">
        <ele>188.8</ele>
        <time>2022-05-26T18:00:52Z</time>
      </trkpt>
      <trkpt lat="41.9415870" lon="2.6625680">
        <ele>188.8</ele>
        <time>2022-05-26T18:00:53Z</time>
      </trkpt>
      <trkpt lat="41.9416440" lon="2.6625510">
        <ele>188.6</ele>
        <time>2022-05-26T18:00:54Z</time>
      </trkpt>
      <trkpt lat="41.9416930" lon="2.6625420">
        <ele>188.4</ele>
        <time>2022-05-26T18:00:55Z</time>
      </trkpt>
      <trkpt lat="41.9417260" lon="2.6625440">
        <ele>188.4</ele>
        <time>2022-05-26T18:00:56Z</time>
      </trkpt>
      <trkpt lat="41.9417530" lon="2.6625630">
        <ele>188.4</ele>
        <time>2022-05-26T18:00:57Z</time>
      </trkpt>
      <trkpt lat="41.9417830" lon="2.6625950">
        <ele>188.6</ele>
        <time>2022-05-26T18:00:58Z</time>
      </trkpt>
      <trkpt lat="41.9418170" lon="2.6626260">
        <ele>189.0</ele>
        <time>2022-05-26T18:00:59Z</time>
      </trkpt>
      <trkpt lat="41.9418610" lon="2.6626560">
        <ele>189.2</ele>
        <time>2022-05-26T18:01:00Z</time>
      </trkpt>
      <trkpt lat="41.9419120" lon="2.6626880">
        <ele>189.6</ele>
        <time>2022-05-26T18:01:01Z</time>
      </trkpt>
      <trkpt lat="41.9419530" lon="2.6627030">
        <ele>189.8</ele>
        <time>2022-05-26T18:01:02Z</time>
      </trkpt>
      <trkpt lat="41.9419810" lon="2.6627110">
        <ele>190.2</ele>
        <time>2022-05-26T18:01:03Z</time>
      </trkpt>
      <trkpt lat="41.9420160" lon="2.6627150">
        <ele>190.8</ele>
        <time>2022-05-26T18:01:04Z</time>
      </trkpt>
      <trkpt lat="41.9420580" lon="2.6627230">
        <ele>191.2</ele>
        <time>2022-05-26T18:01:05Z</time>
      </trkpt>
      <trkpt lat="41.9421000" lon="2.6627370">
        <ele>191.6</ele>
        <time>2022-05-26T18:01:06Z</time>
      </trkpt>
      <trkpt lat="41.9421400" lon="2.6627590">
        <ele>192.2</ele>
        <time>2022-05-26T18:01:07Z</time>
      </trkpt>
      <trkpt lat="41.9421760" lon="2.6627880">
        <ele>193.0</ele>
        <time>2022-05-26T18:01:08Z</time>
      </trkpt>
      <trkpt lat="41.9422050" lon="2.6628340">
        <ele>193.8</ele>
        <time>2022-05-26T18:01:09Z</time>
      </trkpt>
      <trkpt lat="41.9422410" lon="2.6628940">
        <ele>194.6</ele>
        <time>2022-05-26T18:01:10Z</time>
      </trkpt>
      <trkpt lat="41.9422830" lon="2.6629660">
        <ele>195.4</ele>
        <time>2022-05-26T18:01:11Z</time>
      </trkpt>
      <trkpt lat="41.9423250" lon="2.6630360">
        <ele>195.8</ele>
        <time>2022-05-26T18:01:12Z</time>
      </trkpt>
      <trkpt lat="41.9423630" lon="2.6631040">
        <ele>196.4</ele>
        <time>2022-05-26T18:01:13Z</time>
      </trkpt>
      <trkpt lat="41.9423970" lon="2.6631550">
        <ele>196.6</ele>
        <time>2022-05-26T18:01:14Z</time>
      </trkpt>
      <trkpt lat="41.9424360" lon="2.6631850">
        <ele>196.8</ele>
        <time>2022-05-26T18:01:15Z</time>
      </trkpt>
      <trkpt lat="41.9424850" lon="2.6631970">
        <ele>197.0</ele>
        <time>2022-05-26T18:01:16Z</time>
      </trkpt>
      <trkpt lat="41.9425440" lon="2.6632010">
        <ele>197.0</ele>
        <time>2022-05-26T18:01:17Z</time>
      </trkpt>
      <trkpt lat="41.9426120" lon="2.6631940">
        <ele>196.8</ele>
        <time>2022-05-26T18:01:18Z</time>
      </trkpt>
      <trkpt lat="41.9426840" lon="2.6631810">
        <ele>196.6</ele>
        <time>2022-05-26T18:01:19Z</time>
      </trkpt>
      <trkpt lat="41.9427530" lon="2.6631680">
        <ele>196.2</ele>
        <time>2022-05-26T18:01:20Z</time>
      </trkpt>
      <trkpt lat="41.9428140" lon="2.6631630">
        <ele>196.0</ele>
        <time>2022-05-26T18:01:21Z</time>
      </trkpt>
      <trkpt lat="41.9428820" lon="2.6631600">
        <ele>196.0</ele>
        <time>2022-05-26T18:01:22Z</time>
      </trkpt>
      <trkpt lat="41.9429590" lon="2.6631560">
        <ele>195.4</ele>
        <time>2022-05-26T18:01:23Z</time>
      </trkpt>
      <trkpt lat="41.9430420" lon="2.6631360">
        <ele>195.2</ele>
        <time>2022-05-26T18:01:24Z</time>
      </trkpt>
      <trkpt lat="41.9431360" lon="2.6631010">
        <ele>195.0</ele>
        <time>2022-05-26T18:01:25Z</time>
      </trkpt>
      <trkpt lat="41.9432280" lon="2.6630590">
        <ele>194.8</ele>
        <time>2022-05-26T18:01:26Z</time>
      </trkpt>
      <trkpt lat="41.9433140" lon="2.6630130">
        <ele>194.6</ele>
        <time>2022-05-26T18:01:27Z</time>
      </trkpt>
      <trkpt lat="41.9433930" lon="2.6629620">
        <ele>194.2</ele>
        <time>2022-05-26T18:01:28Z</time>
      </trkpt>
      <trkpt lat="41.9434610" lon="2.6629110">
        <ele>193.6</ele>
        <time>2022-05-26T18:01:29Z</time>
      </trkpt>
      <trkpt lat="41.9435330" lon="2.6628620">
        <ele>193.2</ele>
        <time>2022-05-26T18:01:30Z</time>
      </trkpt>
      <trkpt lat="41.9436110" lon="2.6628220">
        <ele>192.4</ele>
        <time>2022-05-26T18:01:31Z</time>
      </trkpt>
      <trkpt lat="41.9436850" lon="2.6627960">
        <ele>191.4</ele>
        <time>2022-05-26T18:01:32Z</time>
      </trkpt>
      <trkpt lat="41.9437570" lon="2.6627900">
        <ele>190.4</ele>
        <time>2022-05-26T18:01:33Z</time>
      </trkpt>
      <trkpt lat="41.9438280" lon="2.6628000">
        <ele>189.4</ele>
        <time>2022-05-26T18:01:34Z</time>
      </trkpt>
      <trkpt lat="41.9438970" lon="2.6628350">
        <ele>188.2</ele>
        <time>2022-05-26T18:01:35Z</time>
      </trkpt>
      <trkpt lat="41.9439580" lon="2.6628810">
        <ele>187.0</ele>
        <time>2022-05-26T18:01:36Z</time>
      </trkpt>
      <trkpt lat="41.9439980" lon="2.6629200">
        <ele>186.0</ele>
        <time>2022-05-26T18:01:37Z</time>
      </trkpt>
      <trkpt lat="41.9440270" lon="2.6629590">
        <ele>185.0</ele>
        <time>2022-05-26T18:01:38Z</time>
      </trkpt>
      <trkpt lat="41.9440530" lon="2.6630010">
        <ele>184.0</ele>
        <time>2022-05-26T18:01:39Z</time>
      </trkpt>
      <trkpt lat="41.9440700" lon="2.6630370">
        <ele>183.2</ele>
        <time>2022-05-26T18:01:40Z</time>
      </trkpt>
      <trkpt lat="41.9440780" lon="2.6630600">
        <ele>182.4</ele>
        <time>2022-05-26T18:01:41Z</time>
      </trkpt>
      <trkpt lat="41.9440750" lon="2.6630770">
        <ele>181.8</ele>
        <time>2022-05-26T18:01:42Z</time>
      </trkpt>
      <trkpt lat="41.9440650" lon="2.6630930">
        <ele>181.2</ele>
        <time>2022-05-26T18:01:43Z</time>
      </trkpt>
      <trkpt lat="41.9440480" lon="2.6631010">
        <ele>180.6</ele>
        <time>2022-05-26T18:01:44Z</time>
      </trkpt>
      <trkpt lat="41.9440350" lon="2.6631020">
        <ele>180.2</ele>
        <time>2022-05-26T18:01:45Z</time>
      </trkpt>
      <trkpt lat="41.9440300" lon="2.6631030">
        <ele>179.8</ele>
        <time>2022-05-26T18:01:46Z</time>
      </trkpt>
      <trkpt lat="41.9440180" lon="2.6631050">
        <ele>179.4</ele>
        <time>2022-05-26T18:01:47Z</time>
      </trkpt>
      <trkpt lat="41.9440080" lon="2.6631110">
        <ele>179.2</ele>
        <time>2022-05-26T18:01:48Z</time>
      </trkpt>
      <trkpt lat="41.9439870" lon="2.6631240">
        <ele>179.2</ele>
        <time>2022-05-26T18:01:49Z</time>
      </trkpt>
      <trkpt lat="41.9439570" lon="2.6631420">
        <ele>179.2</ele>
        <time>2022-05-26T18:01:50Z</time>
      </trkpt>
      <trkpt lat="41.9439180" lon="2.6631640">
        <ele>179.2</ele>
        <time>2022-05-26T18:01:51Z</time>
      </trkpt>
      <trkpt lat="41.9438810" lon="2.6631880">
        <ele>179.2</ele>
        <time>2022-05-26T18:01:52Z</time>
      </trkpt>
      <trkpt lat="41.9438420" lon="2.6632220">
        <ele>179.2</ele>
        <time>2022-05-26T18:01:53Z</time>
      </trkpt>
      <trkpt lat="41.9438050" lon="2.6632620">
        <ele>179.4</ele>
        <time>2022-05-26T18:01:54Z</time>
      </trkpt>
      <trkpt lat="41.9437690" lon="2.6633070">
        <ele>179.6</ele>
        <time>2022-05-26T18:01:55Z</time>
      </trkpt>
      <trkpt lat="41.9437270" lon="2.6633540">
        <ele>180.0</ele>
        <time>2022-05-26T18:01:56Z</time>
      </trkpt>
      <trkpt lat="41.9436770" lon="2.6634040">
        <ele>180.6</ele>
        <time>2022-05-26T18:01:57Z</time>
      </trkpt>
      <trkpt lat="41.9436140" lon="2.6634560">
        <ele>181.2</ele>
        <time>2022-05-26T18:01:58Z</time>
      </trkpt>
      <trkpt lat="41.9435460" lon="2.6634940">
        <ele>181.6</ele>
        <time>2022-05-26T18:01:59Z</time>
      </trkpt>
      <trkpt lat="41.9434600" lon="2.6635340">
        <ele>182.0</ele>
        <time>2022-05-26T18:02:00Z</time>
      </trkpt>
      <trkpt lat="41.9433730" lon="2.6635790">
        <ele>182.6</ele>
        <time>2022-05-26T18:02:01Z</time>
      </trkpt>
      <trkpt lat="41.9432980" lon="2.6636310">
        <ele>183.2</ele>
        <time>2022-05-26T18:02:02Z</time>
      </trkpt>
      <trkpt lat="41.9432310" lon="2.6636890">
        <ele>184.2</ele>
        <time>2022-05-26T18:02:03Z</time>
      </trkpt>
      <trkpt lat="41.9431670" lon="2.6637350">
        <ele>184.6</ele>
        <time>2022-05-26T18:02:04Z</time>
      </trkpt>
      <trkpt lat="41.9430880" lon="2.6637780">
        <ele>185.0</ele>
        <time>2022-05-26T18:02:05Z</time>
      </trkpt>
      <trkpt lat="41.9429960" lon="2.6638220">
        <ele>185.2</ele>
        <time>2022-05-26T18:02:06Z</time>
      </trkpt>
      <trkpt lat="41.9429170" lon="2.6638610">
        <ele>185.4</ele>
        <time>2022-05-26T18:02:07Z</time>
      </trkpt>
      <trkpt lat="41.9428440" lon="2.6638980">
        <ele>185.8</ele>
        <time>2022-05-26T18:02:08Z</time>
      </trkpt>
      <trkpt lat="41.9427670" lon="2.6639370">
        <ele>186.0</ele>
        <time>2022-05-26T18:02:09Z</time>
      </trkpt>
      <trkpt lat="41.9426890" lon="2.6639770">
        <ele>186.4</ele>
        <time>2022-05-26T18:02:10Z</time>
      </trkpt>
      <trkpt lat="41.9426080" lon="2.6640160">
        <ele>186.6</ele>
        <time>2022-05-26T18:02:11Z</time>
      </trkpt>
      <trkpt lat="41.9425290" lon="2.6640540">
        <ele>187.0</ele>
        <time>2022-05-26T18:02:12Z</time>
      </trkpt>
      <trkpt lat="41.9424540" lon="2.6640960">
        <ele>187.2</ele>
        <time>2022-05-26T18:02:13Z</time>
      </trkpt>
      <trkpt lat="41.9423810" lon="2.6641480">
        <ele>187.6</ele>
        <time>2022-05-26T18:02:14Z</time>
      </trkpt>
      <trkpt lat="41.9423140" lon="2.6642170">
        <ele>188.2</ele>
        <time>2022-05-26T18:02:15Z</time>
      </trkpt>
      <trkpt lat="41.9422510" lon="2.6642990">
        <ele>188.4</ele>
        <time>2022-05-26T18:02:16Z</time>
      </trkpt>
      <trkpt lat="41.9421830" lon="2.6643830">
        <ele>188.6</ele>
        <time>2022-05-26T18:02:17Z</time>
      </trkpt>
      <trkpt lat="41.9421120" lon="2.6644610">
        <ele>188.6</ele>
        <time>2022-05-26T18:02:18Z</time>
      </trkpt>
      <trkpt lat="41.9420560" lon="2.6645170">
        <ele>189.0</ele>
        <time>2022-05-26T18:02:19Z</time>
      </trkpt>
      <trkpt lat="41.9420090" lon="2.6645590">
        <ele>189.0</ele>
        <time>2022-05-26T18:02:20Z</time>
      </trkpt>
      <trkpt lat="41.9419640" lon="2.6645930">
        <ele>189.6</ele>
        <time>2022-05-26T18:02:21Z</time>
      </trkpt>
      <trkpt lat="41.9419190" lon="2.6646300">
        <ele>190.2</ele>
        <time>2022-05-26T18:02:22Z</time>
      </trkpt>
      <trkpt lat="41.9418710" lon="2.6646670">
        <ele>190.4</ele>
        <time>2022-05-26T18:02:23Z</time>
      </trkpt>
      <trkpt lat="41.9418170" lon="2.6647010">
        <ele>191.4</ele>
        <time>2022-05-26T18:02:24Z</time>
      </trkpt>
      <trkpt lat="41.9417480" lon="2.6647400">
        <ele>192.2</ele>
        <time>2022-05-26T18:02:25Z</time>
      </trkpt>
      <trkpt lat="41.9416660" lon="2.6647870">
        <ele>192.4</ele>
        <time>2022-05-26T18:02:26Z</time>
      </trkpt>
      <trkpt lat="41.9415710" lon="2.6648430">
        <ele>192.8</ele>
        <time>2022-05-26T18:02:27Z</time>
      </trkpt>
      <trkpt lat="41.9414810" lon="2.6648970">
        <ele>193.4</ele>
        <time>2022-05-26T18:02:28Z</time>
      </trkpt>
      <trkpt lat="41.9414030" lon="2.6649480">
        <ele>194.4</ele>
        <time>2022-05-26T18:02:29Z</time>
      </trkpt>
      <trkpt lat="41.9413140" lon="2.6650060">
        <ele>194.8</ele>
        <time>2022-05-26T18:02:30Z</time>
      </trkpt>
      <trkpt lat="41.9412180" lon="2.6650590">
        <ele>195.4</ele>
        <time>2022-05-26T18:02:31Z</time>
      </trkpt>
      <trkpt lat="41.9411230" lon="2.6651060">
        <ele>195.8</ele>
        <time>2022-05-26T18:02:32Z</time>
      </trkpt>
      <trkpt lat="41.9410320" lon="2.6651520">
        <ele>195.8</ele>
        <time>2022-05-26T18:02:33Z</time>
      </trkpt>
      <trkpt lat="41.9409310" lon="2.6652080">
        <ele>196.0</ele>
        <time>2022-05-26T18:02:34Z</time>
      </trkpt>
      <trkpt lat="41.9408210" lon="2.6652730">
        <ele>196.4</ele>
        <time>2022-05-26T18:02:35Z</time>
      </trkpt>
      <trkpt lat="41.9407300" lon="2.6653290">
        <ele>197.0</ele>
        <time>2022-05-26T18:02:36Z</time>
      </trkpt>
      <trkpt lat="41.9406380" lon="2.6653880">
        <ele>197.8</ele>
        <time>2022-05-26T18:02:37Z</time>
      </trkpt>
      <trkpt lat="41.9405500" lon="2.6654410">
        <ele>198.2</ele>
        <time>2022-05-26T18:02:38Z</time>
      </trkpt>
      <trkpt lat="41.9404510" lon="2.6654940">
        <ele>198.6</ele>
        <time>2022-05-26T18:02:39Z</time>
      </trkpt>
      <trkpt lat="41.9403580" lon="2.6655440">
        <ele>198.6</ele>
        <time>2022-05-26T18:02:40Z</time>
      </trkpt>
      <trkpt lat="41.9402830" lon="2.6655850">
        <ele>198.6</ele>
        <time>2022-05-26T18:02:41Z</time>
      </trkpt>
      <trkpt lat="41.9402080" lon="2.6656260">
        <ele>198.8</ele>
        <time>2022-05-26T18:02:42Z</time>
      </trkpt>
      <trkpt lat="41.9401280" lon="2.6656640">
        <ele>199.2</ele>
        <time>2022-05-26T18:02:43Z</time>
      </trkpt>
      <trkpt lat="41.9400470" lon="2.6657040">
        <ele>199.4</ele>
        <time>2022-05-26T18:02:44Z</time>
      </trkpt>
      <trkpt lat="41.9399630" lon="2.6657530">
        <ele>199.6</ele>
        <time>2022-05-26T18:02:45Z</time>
      </trkpt>
      <trkpt lat="41.9398770" lon="2.6658100">
        <ele>199.6</ele>
        <time>2022-05-26T18:02:46Z</time>
      </trkpt>
      <trkpt lat="41.9397890" lon="2.6658670">
        <ele>199.4</ele>
        <time>2022-05-26T18:02:47Z</time>
      </trkpt>
      <trkpt lat="41.9397050" lon="2.6659190">
        <ele>199.0</ele>
        <time>2022-05-26T18:02:48Z</time>
      </trkpt>
      <trkpt lat="41.9396470" lon="2.6659590">
        <ele>198.8</ele>
        <time>2022-05-26T18:02:49Z</time>
      </trkpt>
      <trkpt lat="41.9396080" lon="2.6660040">
        <ele>198.6</ele>
        <time>2022-05-26T18:02:50Z</time>
      </trkpt>
      <trkpt lat="41.9395830" lon="2.6660590">
        <ele>198.6</ele>
        <time>2022-05-26T18:02:51Z</time>
      </trkpt>
      <trkpt lat="41.9395820" lon="2.6661230">
        <ele>199.0</ele>
        <time>2022-05-26T18:02:52Z</time>
      </trkpt>
      <trkpt lat="41.9396020" lon="2.6661920">
        <ele>199.4</ele>
        <time>2022-05-26T18:02:53Z</time>
      </trkpt>
      <trkpt lat="41.9396330" lon="2.6662580">
        <ele>200.0</ele>
        <time>2022-05-26T18:02:54Z</time>
      </trkpt>
      <trkpt lat="41.9396690" lon="2.6663370">
        <ele>200.8</ele>
        <time>2022-05-26T18:02:55Z</time>
      </trkpt>
      <trkpt lat="41.9397070" lon="2.6664290">
        <ele>201.8</ele>
        <time>2022-05-26T18:02:56Z</time>
      </trkpt>
      <trkpt lat="41.9397520" lon="2.6665340">
        <ele>203.0</ele>
        <time>2022-05-26T18:02:57Z</time>
      </trkpt>
      <trkpt lat="41.9397860" lon="2.6666350">
        <ele>203.8</ele>
        <time>2022-05-26T18:02:58Z</time>
      </trkpt>
      <trkpt lat="41.9398210" lon="2.6667420">
        <ele>204.6</ele>
        <time>2022-05-26T18:02:59Z</time>
      </trkpt>
      <trkpt lat="41.9398660" lon="2.6668520">
        <ele>205.4</ele>
        <time>2022-05-26T18:03:00Z</time>
      </trkpt>
      <trkpt lat="41.9399210" lon="2.6669540">
        <ele>206.0</ele>
        <time>2022-05-26T18:03:01Z</time>
      </trkpt>
      <trkpt lat="41.9399860" lon="2.6670500">
        <ele>206.6</ele>
        <time>2022-05-26T18:03:02Z</time>
      </trkpt>
      <trkpt lat="41.9400420" lon="2.6671350">
        <ele>207.2</ele>
        <time>2022-05-26T18:03:03Z</time>
      </trkpt>
      <trkpt lat="41.9400810" lon="2.6672100">
        <ele>207.6</ele>
        <time>2022-05-26T18:03:04Z</time>
      </trkpt>
      <trkpt lat="41.9400960" lon="2.6672810">
        <ele>208.0</ele>
        <time>2022-05-26T18:03:05Z</time>
      </trkpt>
      <trkpt lat="41.9401000" lon="2.6673420">
        <ele>208.4</ele>
        <time>2022-05-26T18:03:06Z</time>
      </trkpt>
      <trkpt lat="41.9400840" lon="2.6673910">
        <ele>208.6</ele>
        <time>2022-05-26T18:03:07Z</time>
      </trkpt>
      <trkpt lat="41.9400510" lon="2.6674430">
        <ele>209.0</ele>
        <time>2022-05-26T18:03:08Z</time>
      </trkpt>
      <trkpt lat="41.9400100" lon="2.6674990">
        <ele>209.8</ele>
        <time>2022-05-26T18:03:09Z</time>
      </trkpt>
      <trkpt lat="41.9399750" lon="2.6675670">
        <ele>210.2</ele>
        <time>2022-05-26T18:03:10Z</time>
      </trkpt>
      <trkpt lat="41.9399410" lon="2.6676520">
        <ele>210.6</ele>
        <time>2022-05-26T18:03:11Z</time>
      </trkpt>
      <trkpt lat="41.9399300" lon="2.6677510">
        <ele>211.0</ele>
        <time>2022-05-26T18:03:12Z</time>
      </trkpt>
      <trkpt lat="41.9399310" lon="2.6678500">
        <ele>211.8</ele>
        <time>2022-05-26T18:03:13Z</time>
      </trkpt>
      <trkpt lat="41.9399410" lon="2.6679480">
        <ele>212.6</ele>
        <time>2022-05-26T18:03:14Z</time>
      </trkpt>
      <trkpt lat="41.9399530" lon="2.6680450">
        <ele>213.0</ele>
        <time>2022-05-26T18:03:15Z</time>
      </trkpt>
      <trkpt lat="41.9399640" lon="2.6681470">
        <ele>213.6</ele>
        <time>2022-05-26T18:03:16Z</time>
      </trkpt>
      <trkpt lat="41.9399780" lon="2.6682590">
        <ele>214.2</ele>
        <time>2022-05-26T18:03:17Z</time>
      </trkpt>
      <trkpt lat="41.9399960" lon="2.6683740">
        <ele>214.8</ele>
        <time>2022-05-26T18:03:18Z</time>
      </trkpt>
      <trkpt lat="41.9400070" lon="2.6684810">
        <ele>215.2</ele>
        <time>2022-05-26T18:03:19Z</time>
      </trkpt>
      <trkpt lat="41.9400200" lon="2.6685760">
        <ele>215.8</ele>
        <time>2022-05-26T18:03:20Z</time>
      </trkpt>
      <trkpt lat="41.9400460" lon="2.6686400">
        <ele>216.4</ele>
        <time>2022-05-26T18:03:21Z</time>
      </trkpt>
      <trkpt lat="41.9400940" lon="2.6686900">
        <ele>217.0</ele>
        <time>2022-05-26T18:03:22Z</time>
      </trkpt>
      <trkpt lat="41.9401620" lon="2.6687410">
        <ele>217.4</ele>
        <time>2022-05-26T18:03:23Z</time>
      </trkpt>
      <trkpt lat="41.9402220" lon="2.6687790">
        <ele>217.6</ele>
        <time>2022-05-26T18:03:24Z</time>
      </trkpt>
      <trkpt lat="41.9402750" lon="2.6688040">
        <ele>217.8</ele>
        <time>2022-05-26T18:03:25Z</time>
      </trkpt>
      <trkpt lat="41.9403110" lon="2.6688360">
        <ele>218.2</ele>
        <time>2022-05-26T18:03:26Z</time>
      </trkpt>
      <trkpt lat="41.9403110" lon="2.6688790">
        <ele>218.4</ele>
        <time>2022-05-26T18:03:27Z</time>
      </trkpt>
      <trkpt lat="41.9402970" lon="2.6689300">
        <ele>218.6</ele>
        <time>2022-05-26T18:03:28Z</time>
      </trkpt>
      <trkpt lat="41.9402630" lon="2.6690030">
        <ele>218.6</ele>
        <time>2022-05-26T18:03:29Z</time>
      </trkpt>
      <trkpt lat="41.9402290" lon="2.6690940">
        <ele>218.6</ele>
        <time>2022-05-26T18:03:30Z</time>
      </trkpt>
      <trkpt lat="41.9401940" lon="2.6691890">
        <ele>218.6</ele>
        <time>2022-05-26T18:03:31Z</time>
      </trkpt>
      <trkpt lat="41.9401620" lon="2.6692820">
        <ele>218.4</ele>
        <time>2022-05-26T18:03:32Z</time>
      </trkpt>
      <trkpt lat="41.9401320" lon="2.6693690">
        <ele>218.0</ele>
        <time>2022-05-26T18:03:33Z</time>
      </trkpt>
      <trkpt lat="41.9401050" lon="2.6694470">
        <ele>217.8</ele>
        <time>2022-05-26T18:03:34Z</time>
      </trkpt>
      <trkpt lat="41.9400830" lon="2.6695120">
        <ele>217.6</ele>
        <time>2022-05-26T18:03:35Z</time>
      </trkpt>
      <trkpt lat="41.9400740" lon="2.6695480">
        <ele>217.4</ele>
        <time>2022-05-26T18:03:36Z</time>
      </trkpt>
      <trkpt lat="41.9400700" lon="2.6695620">
        <ele>217.2</ele>
        <time>2022-05-26T18:03:37Z</time>
      </trkpt>
      <trkpt lat="41.9400730" lon="2.6695640">
        <ele>217.0</ele>
        <time>2022-05-26T18:03:38Z</time>
      </trkpt>
      <trkpt lat="41.9400800" lon="2.6695410">
        <ele>216.8</ele>
        <time>2022-05-26T18:03:39Z</time>
      </trkpt>
      <trkpt lat="41.9400870" lon="2.6695200">
        <ele>216.6</ele>
        <time>2022-05-26T18:03:40Z</time>
      </trkpt>
      <trkpt lat="41.9400930" lon="2.6694980">
        <ele>216.6</ele>
        <time>2022-05-26T18:03:41Z</time>
      </trkpt>
      <trkpt lat="41.9401000" lon="2.6694770">
        <ele>216.6</ele>
        <time>2022-05-26T18:03:42Z</time>
      </trkpt>
      <trkpt lat="41.9401060" lon="2.6694550">
        <ele>216.6</ele>
        <time>2022-05-26T18:03:43Z</time>
      </trkpt>
      <trkpt lat="41.9401130" lon="2.6694340">
        <ele>216.6</ele>
        <time>2022-05-26T18:03:44Z</time>
      </trkpt>
      <trkpt lat="41.9401190" lon="2.6694120">
        <ele>216.6</ele>
        <time>2022-05-26T18:03:45Z</time>
      </trkpt>
      <trkpt lat="41.9401260" lon="2.6693910">
        <ele>216.6</ele>
        <time>2022-05-26T18:03:46Z</time>
      </trkpt>
      <trkpt lat="41.9401330" lon="2.6693700">
        <ele>216.6</ele>
        <time>2022-05-26T18:03:47Z</time>
      </trkpt>
      <trkpt lat="41.9401390" lon="2.6693480">
        <ele>216.6</ele>
        <time>2022-05-26T18:03:48Z</time>
      </trkpt>
      <trkpt lat="41.9401460" lon="2.6693270">
        <ele>216.8</ele>
        <time>2022-05-26T18:03:52Z</time>
      </trkpt>
      <trkpt lat="41.9401520" lon="2.6693050">
        <ele>217.0</ele>
        <time>2022-05-26T18:03:53Z</time>
      </trkpt>
      <trkpt lat="41.9401820" lon="2.6692250">
        <ele>217.0</ele>
        <time>2022-05-26T18:03:54Z</time>
      </trkpt>
      <trkpt lat="41.9402100" lon="2.6691500">
        <ele>217.4</ele>
        <time>2022-05-26T18:03:55Z</time>
      </trkpt>
      <trkpt lat="41.9402380" lon="2.6690770">
        <ele>217.6</ele>
        <time>2022-05-26T18:03:56Z</time>
      </trkpt>
      <trkpt lat="41.9402670" lon="2.6690070">
        <ele>217.8</ele>
        <time>2022-05-26T18:03:57Z</time>
      </trkpt>
      <trkpt lat="41.9403000" lon="2.6689260">
        <ele>218.0</ele>
        <time>2022-05-26T18:03:58Z</time>
      </trkpt>
      <trkpt lat="41.9403340" lon="2.6688510">
        <ele>218.4</ele>
        <time>2022-05-26T18:03:59Z</time>
      </trkpt>
      <trkpt lat="41.9403680" lon="2.6687910">
        <ele>218.8</ele>
        <time>2022-05-26T18:04:00Z</time>
      </trkpt>
      <trkpt lat="41.9404040" lon="2.6687410">
        <ele>219.0</ele>
        <time>2022-05-26T18:04:01Z</time>
      </trkpt>
      <trkpt lat="41.9404490" lon="2.6686760">
        <ele>219.2</ele>
        <time>2022-05-26T18:04:02Z</time>
      </trkpt>
      <trkpt lat="41.9404910" lon="2.6685990">
        <ele>219.6</ele>
        <time>2022-05-26T18:04:03Z</time>
      </trkpt>
      <trkpt lat="41.9405270" lon="2.6685210">
        <ele>220.0</ele>
        <time>2022-05-26T18:04:04Z</time>
      </trkpt>
      <trkpt lat="41.9405570" lon="2.6684460">
        <ele>220.2</ele>
        <time>2022-05-26T18:04:05Z</time>
      </trkpt>
      <trkpt lat="41.9405810" lon="2.6683810">
        <ele>220.6</ele>
        <time>2022-05-26T18:04:06Z</time>
      </trkpt>
      <trkpt lat="41.9406080" lon="2.6683110">
        <ele>221.0</ele>
        <time>2022-05-26T18:04:07Z</time>
      </trkpt>
      <trkpt lat="41.9406420" lon="2.6682460">
        <ele>221.6</ele>
        <time>2022-05-26T18:04:08Z</time>
      </trkpt>
      <trkpt lat="41.9406830" lon="2.6681940">
        <ele>222.0</ele>
        <time>2022-05-26T18:04:09Z</time>
      </trkpt>
      <trkpt lat="41.9407270" lon="2.6681520">
        <ele>222.4</ele>
        <time>2022-05-26T18:04:10Z</time>
      </trkpt>
      <trkpt lat="41.9407830" lon="2.6681080">
        <ele>223.0</ele>
        <time>2022-05-26T18:04:11Z</time>
      </trkpt>
      <trkpt lat="41.9408450" lon="2.6680690">
        <ele>223.6</ele>
        <time>2022-05-26T18:04:12Z</time>
      </trkpt>
      <trkpt lat="41.9408450" lon="2.6680690">
        <ele>224.0</ele>
        <time>2022-05-26T18:04:13Z</time>
      </trkpt>
      <trkpt lat="41.9409780" lon="2.6679700">
        <ele>224.4</ele>
        <time>2022-05-26T18:04:14Z</time>
      </trkpt>
      <trkpt lat="41.9410410" lon="2.6679160">
        <ele>225.0</ele>
        <time>2022-05-26T18:04:15Z</time>
      </trkpt>
      <trkpt lat="41.9411060" lon="2.6678540">
        <ele>225.4</ele>
        <time>2022-05-26T18:04:16Z</time>
      </trkpt>
      <trkpt lat="41.9411650" lon="2.6677930">
        <ele>225.8</ele>
        <time>2022-05-26T18:04:17Z</time>
      </trkpt>
      <trkpt lat="41.9412190" lon="2.6677470">
        <ele>226.2</ele>
        <time>2022-05-26T18:04:18Z</time>
      </trkpt>
      <trkpt lat="41.9412570" lon="2.6677390">
        <ele>226.6</ele>
        <time>2022-05-26T18:04:19Z</time>
      </trkpt>
      <trkpt lat="41.9412870" lon="2.6677500">
        <ele>227.0</ele>
        <time>2022-05-26T18:04:20Z</time>
      </trkpt>
      <trkpt lat="41.9413050" lon="2.6677890">
        <ele>227.8</ele>
        <time>2022-05-26T18:04:21Z</time>
      </trkpt>
      <trkpt lat="41.9413160" lon="2.6678550">
        <ele>228.6</ele>
        <time>2022-05-26T18:04:22Z</time>
      </trkpt>
      <trkpt lat="41.9413210" lon="2.6679380">
        <ele>229.4</ele>
        <time>2022-05-26T18:04:23Z</time>
      </trkpt>
      <trkpt lat="41.9413170" lon="2.6680190">
        <ele>230.2</ele>
        <time>2022-05-26T18:04:24Z</time>
      </trkpt>
      <trkpt lat="41.9412990" lon="2.6681080">
        <ele>231.0</ele>
        <time>2022-05-26T18:04:25Z</time>
      </trkpt>
      <trkpt lat="41.9412780" lon="2.6681950">
        <ele>231.8</ele>
        <time>2022-05-26T18:04:26Z</time>
      </trkpt>
      <trkpt lat="41.9412740" lon="2.6682880">
        <ele>232.8</ele>
        <time>2022-05-26T18:04:27Z</time>
      </trkpt>
      <trkpt lat="41.9412850" lon="2.6683800">
        <ele>233.6</ele>
        <time>2022-05-26T18:04:28Z</time>
      </trkpt>
      <trkpt lat="41.9413190" lon="2.6684690">
        <ele>234.6</ele>
        <time>2022-05-26T18:04:29Z</time>
      </trkpt>
      <trkpt lat="41.9413770" lon="2.6685520">
        <ele>235.4</ele>
        <time>2022-05-26T18:04:30Z</time>
      </trkpt>
      <trkpt lat="41.9414350" lon="2.6686170">
        <ele>236.4</ele>
        <time>2022-05-26T18:04:31Z</time>
      </trkpt>
      <trkpt lat="41.9414890" lon="2.6686820">
        <ele>237.0</ele>
        <time>2022-05-26T18:04:32Z</time>
      </trkpt>
      <trkpt lat="41.9415520" lon="2.6687560">
        <ele>237.8</ele>
        <time>2022-05-26T18:04:33Z</time>
      </trkpt>
      <trkpt lat="41.9416190" lon="2.6688350">
        <ele>238.2</ele>
        <time>2022-05-26T18:04:34Z</time>
      </trkpt>
      <trkpt lat="41.9416880" lon="2.6688990">
        <ele>238.6</ele>
        <time>2022-05-26T18:04:35Z</time>
      </trkpt>
      <trkpt lat="41.9417630" lon="2.6689540">
        <ele>238.8</ele>
        <time>2022-05-26T18:04:36Z</time>
      </trkpt>
      <trkpt lat="41.9418340" lon="2.6690020">
        <ele>239.2</ele>
        <time>2022-05-26T18:04:37Z</time>
      </trkpt>
      <trkpt lat="41.9418870" lon="2.6690420">
        <ele>239.4</ele>
        <time>2022-05-26T18:04:38Z</time>
      </trkpt>
      <trkpt lat="41.9419140" lon="2.6690730">
        <ele>239.4</ele>
        <time>2022-05-26T18:04:39Z</time>
      </trkpt>
      <trkpt lat="41.9419270" lon="2.6690970">
        <ele>239.6</ele>
        <time>2022-05-26T18:04:40Z</time>
      </trkpt>
      <trkpt lat="41.9419360" lon="2.6691150">
        <ele>239.6</ele>
        <time>2022-05-26T18:04:41Z</time>
      </trkpt>
      <trkpt lat="41.9419440" lon="2.6691310">
        <ele>239.6</ele>
        <time>2022-05-26T18:04:42Z</time>
      </trkpt>
      <trkpt lat="41.9419490" lon="2.6691490">
        <ele>239.8</ele>
        <time>2022-05-26T18:04:43Z</time>
      </trkpt>
      <trkpt lat="41.9419530" lon="2.6691770">
        <ele>239.8</ele>
        <time>2022-05-26T18:04:44Z</time>
      </trkpt>
      <trkpt lat="41.9419580" lon="2.6692260">
        <ele>240.0</ele>
        <time>2022-05-26T18:04:45Z</time>
      </trkpt>
      <trkpt lat="41.9419650" lon="2.6692950">
        <ele>240.0</ele>
        <time>2022-05-26T18:04:46Z</time>
      </trkpt>
      <trkpt lat="41.9419730" lon="2.6693790">
        <ele>240.2</ele>
        <time>2022-05-26T18:04:47Z</time>
      </trkpt>
      <trkpt lat="41.9419840" lon="2.6694750">
        <ele>240.4</ele>
        <time>2022-05-26T18:04:48Z</time>
      </trkpt>
      <trkpt lat="41.9419980" lon="2.6695810">
        <ele>240.4</ele>
        <time>2022-05-26T18:04:49Z</time>
      </trkpt>
      <trkpt lat="41.9420150" lon="2.6696950">
        <ele>240.6</ele>
        <time>2022-05-26T18:04:50Z</time>
      </trkpt>
      <trkpt lat="41.9420350" lon="2.6698070">
        <ele>240.8</ele>
        <time>2022-05-26T18:04:51Z</time>
      </trkpt>
      <trkpt lat="41.9420660" lon="2.6699110">
        <ele>241.0</ele>
        <time>2022-05-26T18:04:52Z</time>
      </trkpt>
      <trkpt lat="41.9421130" lon="2.6700070">
        <ele>241.4</ele>
        <time>2022-05-26T18:04:53Z</time>
      </trkpt>
      <trkpt lat="41.9421740" lon="2.6700970">
        <ele>242.2</ele>
        <time>2022-05-26T18:04:54Z</time>
      </trkpt>
      <trkpt lat="41.9422370" lon="2.6701860">
        <ele>242.8</ele>
        <time>2022-05-26T18:04:55Z</time>
      </trkpt>
      <trkpt lat="41.9422940" lon="2.6702740">
        <ele>243.4</ele>
        <time>2022-05-26T18:04:56Z</time>
      </trkpt>
      <trkpt lat="41.9423460" lon="2.6703680">
        <ele>243.6</ele>
        <time>2022-05-26T18:04:57Z</time>
      </trkpt>
      <trkpt lat="41.9424010" lon="2.6704650">
        <ele>244.2</ele>
        <time>2022-05-26T18:04:58Z</time>
      </trkpt>
      <trkpt lat="41.9424550" lon="2.6705680">
        <ele>244.8</ele>
        <time>2022-05-26T18:04:59Z</time>
      </trkpt>
      <trkpt lat="41.9424980" lon="2.6706830">
        <ele>245.2</ele>
        <time>2022-05-26T18:05:00Z</time>
      </trkpt>
      <trkpt lat="41.9425260" lon="2.6708100">
        <ele>245.6</ele>
        <time>2022-05-26T18:05:01Z</time>
      </trkpt>
      <trkpt lat="41.9425450" lon="2.6709410">
        <ele>246.2</ele>
        <time>2022-05-26T18:05:02Z</time>
      </trkpt>
      <trkpt lat="41.9425590" lon="2.6710740">
        <ele>246.8</ele>
        <time>2022-05-26T18:05:03Z</time>
      </trkpt>
      <trkpt lat="41.9425700" lon="2.6712030">
        <ele>247.2</ele>
        <time>2022-05-26T18:05:04Z</time>
      </trkpt>
      <trkpt lat="41.9425810" lon="2.6713230">
        <ele>247.2</ele>
        <time>2022-05-26T18:05:05Z</time>
      </trkpt>
      <trkpt lat="41.9426010" lon="2.6714550">
        <ele>247.4</ele>
        <time>2022-05-26T18:05:06Z</time>
      </trkpt>
      <trkpt lat="41.9426310" lon="2.6715720">
        <ele>247.4</ele>
        <time>2022-05-26T18:05:07Z</time>
      </trkpt>
      <trkpt lat="41.9426670" lon="2.6716630">
        <ele>247.6</ele>
        <time>2022-05-26T18:05:08Z</time>
      </trkpt>
      <trkpt lat="41.9427080" lon="2.6717410">
        <ele>247.8</ele>
        <time>2022-05-26T18:05:09Z</time>
      </trkpt>
      <trkpt lat="41.9427590" lon="2.6718100">
        <ele>248.0</ele>
        <time>2022-05-26T18:05:10Z</time>
      </trkpt>
      <trkpt lat="41.9428260" lon="2.6718730">
        <ele>248.6</ele>
        <time>2022-05-26T18:05:11Z</time>
      </trkpt>
      <trkpt lat="41.9428990" lon="2.6719160">
        <ele>248.6</ele>
        <time>2022-05-26T18:05:12Z</time>
      </trkpt>
      <trkpt lat="41.9429870" lon="2.6719450">
        <ele>248.8</ele>
        <time>2022-05-26T18:05:13Z</time>
      </trkpt>
      <trkpt lat="41.9430890" lon="2.6719610">
        <ele>249.2</ele>
        <time>2022-05-26T18:05:14Z</time>
      </trkpt>
      <trkpt lat="41.9431930" lon="2.6719680">
        <ele>249.2</ele>
        <time>2022-05-26T18:05:15Z</time>
      </trkpt>
      <trkpt lat="41.9432900" lon="2.6719760">
        <ele>249.2</ele>
        <time>2022-05-26T18:05:16Z</time>
      </trkpt>
      <trkpt lat="41.9433680" lon="2.6719870">
        <ele>249.2</ele>
        <time>2022-05-26T18:05:17Z</time>
      </trkpt>
      <trkpt lat="41.9434210" lon="2.6719950">
        <ele>249.2</ele>
        <time>2022-05-26T18:05:18Z</time>
      </trkpt>
      <trkpt lat="41.9434470" lon="2.6720000">
        <ele>249.2</ele>
        <time>2022-05-26T18:05:19Z</time>
      </trkpt>
      <trkpt lat="41.9434540" lon="2.6720030">
        <ele>249.2</ele>
        <time>2022-05-26T18:05:20Z</time>
      </trkpt>
      <trkpt lat="41.9434550" lon="2.6720020">
        <ele>249.2</ele>
        <time>2022-05-26T18:05:21Z</time>
      </trkpt>
      <trkpt lat="41.9434460" lon="2.6719990">
        <ele>249.2</ele>
        <time>2022-05-26T18:05:22Z</time>
      </trkpt>
      <trkpt lat="41.9434370" lon="2.6719960">
        <ele>249.2</ele>
        <time>2022-05-26T18:05:23Z</time>
      </trkpt>
      <trkpt lat="41.9434120" lon="2.6719910">
        <ele>249.2</ele>
        <time>2022-05-26T18:05:24Z</time>
      </trkpt>
      <trkpt lat="41.9433850" lon="2.6719810">
        <ele>249.2</ele>
        <time>2022-05-26T18:05:25Z</time>
      </trkpt>
      <trkpt lat="41.9433540" lon="2.6719680">
        <ele>249.0</ele>
        <time>2022-05-26T18:05:26Z</time>
      </trkpt>
      <trkpt lat="41.9433260" lon="2.6719590">
        <ele>248.8</ele>
        <time>2022-05-26T18:05:27Z</time>
      </trkpt>
      <trkpt lat="41.9433030" lon="2.6719600">
        <ele>248.8</ele>
        <time>2022-05-26T18:05:28Z</time>
      </trkpt>
      <trkpt lat="41.9432890" lon="2.6719750">
        <ele>248.8</ele>
        <time>2022-05-26T18:05:29Z</time>
      </trkpt>
      <trkpt lat="41.9432850" lon="2.6719860">
        <ele>248.8</ele>
        <time>2022-05-26T18:05:30Z</time>
      </trkpt>
      <trkpt lat="41.9432830" lon="2.6720180">
        <ele>249.0</ele>
        <time>2022-05-26T18:05:31Z</time>
      </trkpt>
      <trkpt lat="41.9432800" lon="2.6720660">
        <ele>249.2</ele>
        <time>2022-05-26T18:05:32Z</time>
      </trkpt>
      <trkpt lat="41.9432690" lon="2.6721170">
        <ele>249.4</ele>
        <time>2022-05-26T18:05:33Z</time>
      </trkpt>
      <trkpt lat="41.9432580" lon="2.6721810">
        <ele>249.6</ele>
        <time>2022-05-26T18:05:34Z</time>
      </trkpt>
      <trkpt lat="41.9432410" lon="2.6722640">
        <ele>249.6</ele>
        <time>2022-05-26T18:05:35Z</time>
      </trkpt>
      <trkpt lat="41.9432200" lon="2.6723520">
        <ele>249.4</ele>
        <time>2022-05-26T18:05:36Z</time>
      </trkpt>
      <trkpt lat="41.9431990" lon="2.6724310">
        <ele>249.2</ele>
        <time>2022-05-26T18:05:37Z</time>
      </trkpt>
      <trkpt lat="41.9431820" lon="2.6725020">
        <ele>248.8</ele>
        <time>2022-05-26T18:05:38Z</time>
      </trkpt>
      <trkpt lat="41.9431640" lon="2.6725790">
        <ele>248.2</ele>
        <time>2022-05-26T18:05:39Z</time>
      </trkpt>
      <trkpt lat="41.9431430" lon="2.6726630">
        <ele>247.6</ele>
        <time>2022-05-26T18:05:40Z</time>
      </trkpt>
      <trkpt lat="41.9431190" lon="2.6727510">
        <ele>246.8</ele>
        <time>2022-05-26T18:05:41Z</time>
      </trkpt>
      <trkpt lat="41.9430950" lon="2.6728430">
        <ele>246.0</ele>
        <time>2022-05-26T18:05:42Z</time>
      </trkpt>
      <trkpt lat="41.9430720" lon="2.6729340">
        <ele>245.0</ele>
        <time>2022-05-26T18:05:43Z</time>
      </trkpt>
      <trkpt lat="41.9430500" lon="2.6730220">
        <ele>244.0</ele>
        <time>2022-05-26T18:05:44Z</time>
      </trkpt>
      <trkpt lat="41.9430360" lon="2.6730940">
        <ele>243.0</ele>
        <time>2022-05-26T18:05:45Z</time>
      </trkpt>
      <trkpt lat="41.9430250" lon="2.6731540">
        <ele>242.0</ele>
        <time>2022-05-26T18:05:46Z</time>
      </trkpt>
      <trkpt lat="41.9430170" lon="2.6732210">
        <ele>241.2</ele>
        <time>2022-05-26T18:05:47Z</time>
      </trkpt>
      <trkpt lat="41.9430080" lon="2.6732910">
        <ele>240.2</ele>
        <time>2022-05-26T18:05:48Z</time>
      </trkpt>
      <trkpt lat="41.9429930" lon="2.6733560">
        <ele>239.2</ele>
        <time>2022-05-26T18:05:49Z</time>
      </trkpt>
      <trkpt lat="41.9429730" lon="2.6734170">
        <ele>238.2</ele>
        <time>2022-05-26T18:05:50Z</time>
      </trkpt>
      <trkpt lat="41.9429510" lon="2.6734810">
        <ele>237.4</ele>
        <time>2022-05-26T18:05:51Z</time>
      </trkpt>
      <trkpt lat="41.9429320" lon="2.6735560">
        <ele>236.4</ele>
        <time>2022-05-26T18:05:52Z</time>
      </trkpt>
      <trkpt lat="41.9429180" lon="2.6736360">
        <ele>235.4</ele>
        <time>2022-05-26T18:05:53Z</time>
      </trkpt>
      <trkpt lat="41.9429050" lon="2.6737190">
        <ele>234.4</ele>
        <time>2022-05-26T18:05:54Z</time>
      </trkpt>
      <trkpt lat="41.9428960" lon="2.6737960">
        <ele>233.4</ele>
        <time>2022-05-26T18:05:55Z</time>
      </trkpt>
      <trkpt lat="41.9428870" lon="2.6738840">
        <ele>232.8</ele>
        <time>2022-05-26T18:05:56Z</time>
      </trkpt>
      <trkpt lat="41.9428720" lon="2.6739850">
        <ele>232.0</ele>
        <time>2022-05-26T18:05:57Z</time>
      </trkpt>
      <trkpt lat="41.9428450" lon="2.6740910">
        <ele>231.4</ele>
        <time>2022-05-26T18:05:58Z</time>
      </trkpt>
      <trkpt lat="41.9428130" lon="2.6741800">
        <ele>231.0</ele>
        <time>2022-05-26T18:05:59Z</time>
      </trkpt>
      <trkpt lat="41.9427760" lon="2.6742760">
        <ele>230.4</ele>
        <time>2022-05-26T18:06:00Z</time>
      </trkpt>
      <trkpt lat="41.9427380" lon="2.6743710">
        <ele>229.8</ele>
        <time>2022-05-26T18:06:01Z</time>
      </trkpt>
      <trkpt lat="41.9427060" lon="2.6744430">
        <ele>229.4</ele>
        <time>2022-05-26T18:06:02Z</time>
      </trkpt>
      <trkpt lat="41.9426740" lon="2.6744950">
        <ele>229.0</ele>
        <time>2022-05-26T18:06:03Z</time>
      </trkpt>
      <trkpt lat="41.9426390" lon="2.6745210">
        <ele>228.6</ele>
        <time>2022-05-26T18:06:04Z</time>
      </trkpt>
      <trkpt lat="41.9425960" lon="2.6745260">
        <ele>228.2</ele>
        <time>2022-05-26T18:06:05Z</time>
      </trkpt>
      <trkpt lat="41.9425270" lon="2.6745390">
        <ele>227.8</ele>
        <time>2022-05-26T18:06:06Z</time>
      </trkpt>
      <trkpt lat="41.9424570" lon="2.6745640">
        <ele>227.4</ele>
        <time>2022-05-26T18:06:07Z</time>
      </trkpt>
      <trkpt lat="41.9423940" lon="2.6745990">
        <ele>227.2</ele>
        <time>2022-05-26T18:06:08Z</time>
      </trkpt>
      <trkpt lat="41.9423320" lon="2.6746440">
        <ele>226.8</ele>
        <time>2022-05-26T18:06:09Z</time>
      </trkpt>
      <trkpt lat="41.9422580" lon="2.6746960">
        <ele>226.2</ele>
        <time>2022-05-26T18:06:10Z</time>
      </trkpt>
      <trkpt lat="41.9421710" lon="2.6747450">
        <ele>225.8</ele>
        <time>2022-05-26T18:06:11Z</time>
      </trkpt>
      <trkpt lat="41.9420820" lon="2.6747900">
        <ele>225.2</ele>
        <time>2022-05-26T18:06:12Z</time>
      </trkpt>
      <trkpt lat="41.9420010" lon="2.6748270">
        <ele>224.4</ele>
        <time>2022-05-26T18:06:13Z</time>
      </trkpt>
      <trkpt lat="41.9419350" lon="2.6748470">
        <ele>223.8</ele>
        <time>2022-05-26T18:06:14Z</time>
      </trkpt>
      <trkpt lat="41.9418700" lon="2.6748500">
        <ele>223.2</ele>
        <time>2022-05-26T18:06:15Z</time>
      </trkpt>
      <trkpt lat="41.9418060" lon="2.6748360">
        <ele>222.4</ele>
        <time>2022-05-26T18:06:16Z</time>
      </trkpt>
      <trkpt lat="41.9417570" lon="2.6748000">
        <ele>221.8</ele>
        <time>2022-05-26T18:06:17Z</time>
      </trkpt>
      <trkpt lat="41.9417050" lon="2.6747540">
        <ele>221.0</ele>
        <time>2022-05-26T18:06:18Z</time>
      </trkpt>
      <trkpt lat="41.9416440" lon="2.6747320">
        <ele>220.2</ele>
        <time>2022-05-26T18:06:19Z</time>
      </trkpt>
      <trkpt lat="41.9415800" lon="2.6747290">
        <ele>219.4</ele>
        <time>2022-05-26T18:06:20Z</time>
      </trkpt>
      <trkpt lat="41.9415120" lon="2.6747480">
        <ele>219.2</ele>
        <time>2022-05-26T18:06:21Z</time>
      </trkpt>
      <trkpt lat="41.9414450" lon="2.6747750">
        <ele>218.6</ele>
        <time>2022-05-26T18:06:22Z</time>
      </trkpt>
      <trkpt lat="41.9413770" lon="2.6747840">
        <ele>218.0</ele>
        <time>2022-05-26T18:06:23Z</time>
      </trkpt>
      <trkpt lat="41.9412970" lon="2.6747980">
        <ele>217.6</ele>
        <time>2022-05-26T18:06:24Z</time>
      </trkpt>
      <trkpt lat="41.9412250" lon="2.6748130">
        <ele>217.2</ele>
        <time>2022-05-26T18:06:25Z</time>
      </trkpt>
      <trkpt lat="41.9411640" lon="2.6748180">
        <ele>216.8</ele>
        <time>2022-05-26T18:06:26Z</time>
      </trkpt>
      <trkpt lat="41.9410950" lon="2.6748200">
        <ele>216.4</ele>
        <time>2022-05-26T18:06:27Z</time>
      </trkpt>
      <trkpt lat="41.9410300" lon="2.6748210">
        <ele>215.8</ele>
        <time>2022-05-26T18:06:28Z</time>
      </trkpt>
      <trkpt lat="41.9409650" lon="2.6748270">
        <ele>215.2</ele>
        <time>2022-05-26T18:06:29Z</time>
      </trkpt>
      <trkpt lat="41.9408970" lon="2.6748500">
        <ele>214.8</ele>
        <time>2022-05-26T18:06:30Z</time>
      </trkpt>
      <trkpt lat="41.9408370" lon="2.6748870">
        <ele>214.6</ele>
        <time>2022-05-26T18:06:31Z</time>
      </trkpt>
      <trkpt lat="41.9408000" lon="2.6749380">
        <ele>214.4</ele>
        <time>2022-05-26T18:06:32Z</time>
      </trkpt>
      <trkpt lat="41.9407630" lon="2.6749890">
        <ele>214.2</ele>
        <time>2022-05-26T18:06:33Z</time>
      </trkpt>
      <trkpt lat="41.9407120" lon="2.6750470">
        <ele>214.0</ele>
        <time>2022-05-26T18:06:34Z</time>
      </trkpt>
      <trkpt lat="41.9406500" lon="2.6751040">
        <ele>214.0</ele>
        <time>2022-05-26T18:06:35Z</time>
      </trkpt>
      <trkpt lat="41.9405890" lon="2.6751520">
        <ele>214.4</ele>
        <time>2022-05-26T18:06:36Z</time>
      </trkpt>
      <trkpt lat="41.9405290" lon="2.6751910">
        <ele>214.6</ele>
        <time>2022-05-26T18:06:37Z</time>
      </trkpt>
      <trkpt lat="41.9404580" lon="2.6752330">
        <ele>214.8</ele>
        <time>2022-05-26T18:06:38Z</time>
      </trkpt>
      <trkpt lat="41.9403730" lon="2.6752740">
        <ele>215.0</ele>
        <time>2022-05-26T18:06:39Z</time>
      </trkpt>
      <trkpt lat="41.9402930" lon="2.6753120">
        <ele>215.0</ele>
        <time>2022-05-26T18:06:40Z</time>
      </trkpt>
      <trkpt lat="41.9402230" lon="2.6753360">
        <ele>214.8</ele>
        <time>2022-05-26T18:06:41Z</time>
      </trkpt>
      <trkpt lat="41.9401670" lon="2.6753450">
        <ele>214.6</ele>
        <time>2022-05-26T18:06:42Z</time>
      </trkpt>
      <trkpt lat="41.9401200" lon="2.6753470">
        <ele>214.4</ele>
        <time>2022-05-26T18:06:43Z</time>
      </trkpt>
      <trkpt lat="41.9400790" lon="2.6753610">
        <ele>214.4</ele>
        <time>2022-05-26T18:06:44Z</time>
      </trkpt>
      <trkpt lat="41.9400520" lon="2.6753900">
        <ele>214.2</ele>
        <time>2022-05-26T18:06:45Z</time>
      </trkpt>
      <trkpt lat="41.9400370" lon="2.6754320">
        <ele>214.0</ele>
        <time>2022-05-26T18:06:46Z</time>
      </trkpt>
      <trkpt lat="41.9400230" lon="2.6754930">
        <ele>214.0</ele>
        <time>2022-05-26T18:06:47Z</time>
      </trkpt>
      <trkpt lat="41.9400050" lon="2.6755480">
        <ele>213.8</ele>
        <time>2022-05-26T18:06:48Z</time>
      </trkpt>
      <trkpt lat="41.9399790" lon="2.6755910">
        <ele>213.4</ele>
        <time>2022-05-26T18:06:49Z</time>
      </trkpt>
      <trkpt lat="41.9399480" lon="2.6756140">
        <ele>213.2</ele>
        <time>2022-05-26T18:06:50Z</time>
      </trkpt>
      <trkpt lat="41.9399160" lon="2.6756180">
        <ele>213.0</ele>
        <time>2022-05-26T18:06:51Z</time>
      </trkpt>
      <trkpt lat="41.9398830" lon="2.6756080">
        <ele>212.6</ele>
        <time>2022-05-26T18:06:52Z</time>
      </trkpt>
      <trkpt lat="41.9398470" lon="2.6755920">
        <ele>212.4</ele>
        <time>2022-05-26T18:06:53Z</time>
      </trkpt>
      <trkpt lat="41.9398090" lon="2.6755840">
        <ele>212.0</ele>
        <time>2022-05-26T18:06:54Z</time>
      </trkpt>
      <trkpt lat="41.9397610" lon="2.6755860">
        <ele>211.6</ele>
        <time>2022-05-26T18:06:55Z</time>
      </trkpt>
      <trkpt lat="41.9397070" lon="2.6755940">
        <ele>211.4</ele>
        <time>2022-05-26T18:06:56Z</time>
      </trkpt>
      <trkpt lat="41.9396600" lon="2.6756110">
        <ele>211.2</ele>
        <time>2022-05-26T18:06:57Z</time>
      </trkpt>
      <trkpt lat="41.9396180" lon="2.6756310">
        <ele>210.8</ele>
        <time>2022-05-26T18:06:58Z</time>
      </trkpt>
      <trkpt lat="41.9395810" lon="2.6756500">
        <ele>210.6</ele>
        <time>2022-05-26T18:06:59Z</time>
      </trkpt>
      <trkpt lat="41.9395570" lon="2.6756760">
        <ele>210.4</ele>
        <time>2022-05-26T18:07:00Z</time>
      </trkpt>
      <trkpt lat="41.9395490" lon="2.6757050">
        <ele>210.2</ele>
        <time>2022-05-26T18:07:01Z</time>
      </trkpt>
      <trkpt lat="41.9395480" lon="2.6757270">
        <ele>210.0</ele>
        <time>2022-05-26T18:07:02Z</time>
      </trkpt>
      <trkpt lat="41.9395500" lon="2.6757490">
        <ele>210.0</ele>
        <time>2022-05-26T18:07:03Z</time>
      </trkpt>
      <trkpt lat="41.9395560" lon="2.6757800">
        <ele>210.2</ele>
        <time>2022-05-26T18:07:04Z</time>
      </trkpt>
      <trkpt lat="41.9395670" lon="2.6758170">
        <ele>210.2</ele>
        <time>2022-05-26T18:07:05Z</time>
      </trkpt>
      <trkpt lat="41.9395820" lon="2.6758500">
        <ele>210.2</ele>
        <time>2022-05-26T18:07:06Z</time>
      </trkpt>
      <trkpt lat="41.9395970" lon="2.6758720">
        <ele>210.4</ele>
        <time>2022-05-26T18:07:07Z</time>
      </trkpt>
      <trkpt lat="41.9396080" lon="2.6758930">
        <ele>210.4</ele>
        <time>2022-05-26T18:07:08Z</time>
      </trkpt>
      <trkpt lat="41.9396180" lon="2.6759210">
        <ele>210.6</ele>
        <time>2022-05-26T18:07:09Z</time>
      </trkpt>
      <trkpt lat="41.9396250" lon="2.6759500">
        <ele>210.8</ele>
        <time>2022-05-26T18:07:10Z</time>
      </trkpt>
      <trkpt lat="41.9396330" lon="2.6759780">
        <ele>211.0</ele>
        <time>2022-05-26T18:07:11Z</time>
      </trkpt>
      <trkpt lat="41.9396410" lon="2.6760130">
        <ele>211.4</ele>
        <time>2022-05-26T18:07:12Z</time>
      </trkpt>
      <trkpt lat="41.9396530" lon="2.6760700">
        <ele>211.6</ele>
        <time>2022-05-26T18:07:13Z</time>
      </trkpt>
      <trkpt lat="41.9396740" lon="2.6761450">
        <ele>211.8</ele>
        <time>2022-05-26T18:07:14Z</time>
      </trkpt>
      <trkpt lat="41.9396990" lon="2.6762140">
        <ele>212.2</ele>
        <time>2022-05-26T18:07:15Z</time>
      </trkpt>
      <trkpt lat="41.9397340" lon="2.6762670">
        <ele>212.4</ele>
        <time>2022-05-26T18:07:16Z</time>
      </trkpt>
      <trkpt lat="41.9397800" lon="2.6763010">
        <ele>212.8</ele>
        <time>2022-05-26T18:07:17Z</time>
      </trkpt>
      <trkpt lat="41.9397800" lon="2.6763010">
        <ele>213.0</ele>
        <time>2022-05-26T18:07:18Z</time>
      </trkpt>
      <trkpt lat="41.9399010" lon="2.6763470">
        <ele>213.4</ele>
        <time>2022-05-26T18:07:19Z</time>
      </trkpt>
      <trkpt lat="41.9399750" lon="2.6763790">
        <ele>214.0</ele>
        <time>2022-05-26T18:07:20Z</time>
      </trkpt>
      <trkpt lat="41.9400440" lon="2.6764190">
        <ele>214.2</ele>
        <time>2022-05-26T18:07:21Z</time>
      </trkpt>
      <trkpt lat="41.9401170" lon="2.6764740">
        <ele>214.4</ele>
        <time>2022-05-26T18:07:22Z</time>
      </trkpt>
      <trkpt lat="41.9401930" lon="2.6765370">
        <ele>214.6</ele>
        <time>2022-05-26T18:07:23Z</time>
      </trkpt>
      <trkpt lat="41.9402600" lon="2.6765910">
        <ele>214.6</ele>
        <time>2022-05-26T18:07:24Z</time>
      </trkpt>
      <trkpt lat="41.9403260" lon="2.6766390">
        <ele>214.8</ele>
        <time>2022-05-26T18:07:25Z</time>
      </trkpt>
      <trkpt lat="41.9403940" lon="2.6766810">
        <ele>214.8</ele>
        <time>2022-05-26T18:07:26Z</time>
      </trkpt>
      <trkpt lat="41.9404580" lon="2.6767170">
        <ele>214.8</ele>
        <time>2022-05-26T18:07:27Z</time>
      </trkpt>
      <trkpt lat="41.9405130" lon="2.6767550">
        <ele>215.0</ele>
        <time>2022-05-26T18:07:28Z</time>
      </trkpt>
      <trkpt lat="41.9405620" lon="2.6767990">
        <ele>215.0</ele>
        <time>2022-05-26T18:07:29Z</time>
      </trkpt>
      <trkpt lat="41.9406060" lon="2.6768460">
        <ele>215.0</ele>
        <time>2022-05-26T18:07:30Z</time>
      </trkpt>
      <trkpt lat="41.9406480" lon="2.6768970">
        <ele>215.2</ele>
        <time>2022-05-26T18:07:31Z</time>
      </trkpt>
      <trkpt lat="41.9406910" lon="2.6769540">
        <ele>215.4</ele>
        <time>2022-05-26T18:07:32Z</time>
      </trkpt>
      <trkpt lat="41.9407310" lon="2.6770170">
        <ele>215.6</ele>
        <time>2022-05-26T18:07:33Z</time>
      </trkpt>
      <trkpt lat="41.9407670" lon="2.6770860">
        <ele>215.8</ele>
        <time>2022-05-26T18:07:34Z</time>
      </trkpt>
      <trkpt lat="41.9408010" lon="2.6771620">
        <ele>216.0</ele>
        <time>2022-05-26T18:07:35Z</time>
      </trkpt>
      <trkpt lat="41.9408260" lon="2.6772350">
        <ele>216.2</ele>
        <time>2022-05-26T18:07:36Z</time>
      </trkpt>
      <trkpt lat="41.9408470" lon="2.6773130">
        <ele>216.4</ele>
        <time>2022-05-26T18:07:37Z</time>
      </trkpt>
      <trkpt lat="41.9408690" lon="2.6773890">
        <ele>216.6</ele>
        <time>2022-05-26T18:07:38Z</time>
      </trkpt>
      <trkpt lat="41.9408850" lon="2.6774530">
        <ele>217.0</ele>
        <time>2022-05-26T18:07:39Z</time>
      </trkpt>
      <trkpt lat="41.9408960" lon="2.6775210">
        <ele>217.2</ele>
        <time>2022-05-26T18:07:40Z</time>
      </trkpt>
      <trkpt lat="41.9409030" lon="2.6775910">
        <ele>217.4</ele>
        <time>2022-05-26T18:07:41Z</time>
      </trkpt>
      <trkpt lat="41.9409120" lon="2.6776600">
        <ele>217.6</ele>
        <time>2022-05-26T18:07:42Z</time>
      </trkpt>
      <trkpt lat="41.9409250" lon="2.6777320">
        <ele>217.8</ele>
        <time>2022-05-26T18:07:43Z</time>
      </trkpt>
      <trkpt lat="41.9409400" lon="2.6778080">
        <ele>218.0</ele>
        <time>2022-05-26T18:07:44Z</time>
      </trkpt>
      <trkpt lat="41.9409500" lon="2.6778750">
        <ele>218.2</ele>
        <time>2022-05-26T18:07:45Z</time>
      </trkpt>
      <trkpt lat="41.9409600" lon="2.6779530">
        <ele>218.4</ele>
        <time>2022-05-26T18:07:46Z</time>
      </trkpt>
      <trkpt lat="41.9409720" lon="2.6780330">
        <ele>218.4</ele>
        <time>2022-05-26T18:07:47Z</time>
      </trkpt>
      <trkpt lat="41.9409820" lon="2.6781070">
        <ele>218.6</ele>
        <time>2022-05-26T18:07:48Z</time>
      </trkpt>
      <trkpt lat="41.9409940" lon="2.6781770">
        <ele>218.8</ele>
        <time>2022-05-26T18:07:49Z</time>
      </trkpt>
      <trkpt lat="41.9410100" lon="2.6782510">
        <ele>218.8</ele>
        <time>2022-05-26T18:07:50Z</time>
      </trkpt>
      <trkpt lat="41.9410290" lon="2.6783240">
        <ele>219.0</ele>
        <time>2022-05-26T18:07:51Z</time>
      </trkpt>
      <trkpt lat="41.9410460" lon="2.6783870">
        <ele>219.0</ele>
        <time>2022-05-26T18:07:52Z</time>
      </trkpt>
      <trkpt lat="41.9410620" lon="2.6784400">
        <ele>219.0</ele>
        <time>2022-05-26T18:07:53Z</time>
      </trkpt>
      <trkpt lat="41.9410770" lon="2.6784850">
        <ele>219.0</ele>
        <time>2022-05-26T18:07:54Z</time>
      </trkpt>
      <trkpt lat="41.9410900" lon="2.6785190">
        <ele>219.2</ele>
        <time>2022-05-26T18:07:55Z</time>
      </trkpt>
      <trkpt lat="41.9410980" lon="2.6785370">
        <ele>219.2</ele>
        <time>2022-05-26T18:07:56Z</time>
      </trkpt>
      <trkpt lat="41.9411020" lon="2.6785420">
        <ele>219.2</ele>
        <time>2022-05-26T18:07:57Z</time>
      </trkpt>
      <trkpt lat="41.9411040" lon="2.6785440">
        <ele>219.2</ele>
        <time>2022-05-26T18:07:58Z</time>
      </trkpt>
      <trkpt lat="41.9411090" lon="2.6785530">
        <ele>219.4</ele>
        <time>2022-05-26T18:07:59Z</time>
      </trkpt>
      <trkpt lat="41.9411170" lon="2.6785770">
        <ele>219.4</ele>
        <time>2022-05-26T18:08:00Z</time>
      </trkpt>
      <trkpt lat="41.9411300" lon="2.6786140">
        <ele>219.6</ele>
        <time>2022-05-26T18:08:01Z</time>
      </trkpt>
      <trkpt lat="41.9411470" lon="2.6786580">
        <ele>219.8</ele>
        <time>2022-05-26T18:08:02Z</time>
      </trkpt>
      <trkpt lat="41.9411660" lon="2.6787090">
        <ele>219.8</ele>
        <time>2022-05-26T18:08:03Z</time>
      </trkpt>
      <trkpt lat="41.9411910" lon="2.6787670">
        <ele>220.0</ele>
        <time>2022-05-26T18:08:04Z</time>
      </trkpt>
      <trkpt lat="41.9412240" lon="2.6788340">
        <ele>220.4</ele>
        <time>2022-05-26T18:08:05Z</time>
      </trkpt>
      <trkpt lat="41.9412660" lon="2.6789100">
        <ele>220.8</ele>
        <time>2022-05-26T18:08:06Z</time>
      </trkpt>
      <trkpt lat="41.9413120" lon="2.6789930">
        <ele>221.2</ele>
        <time>2022-05-26T18:08:07Z</time>
      </trkpt>
      <trkpt lat="41.9413590" lon="2.6790800">
        <ele>221.8</ele>
        <time>2022-05-26T18:08:08Z</time>
      </trkpt>
      <trkpt lat="41.9414070" lon="2.6791670">
        <ele>222.0</ele>
        <time>2022-05-26T18:08:09Z</time>
      </trkpt>
      <trkpt lat="41.9414560" lon="2.6792510">
        <ele>222.4</ele>
        <time>2022-05-26T18:08:10Z</time>
      </trkpt>
      <trkpt lat="41.9415040" lon="2.6793290">
        <ele>222.4</ele>
        <time>2022-05-26T18:08:11Z</time>
      </trkpt>
      <trkpt lat="41.9415430" lon="2.6794020">
        <ele>222.6</ele>
        <time>2022-05-26T18:08:12Z</time>
      </trkpt>
      <trkpt lat="41.9415730" lon="2.6794710">
        <ele>222.6</ele>
        <time>2022-05-26T18:08:13Z</time>
      </trkpt>
      <trkpt lat="41.9415840" lon="2.6795370">
        <ele>222.8</ele>
        <time>2022-05-26T18:08:14Z</time>
      </trkpt>
      <trkpt lat="41.9415810" lon="2.6795920">
        <ele>222.8</ele>
        <time>2022-05-26T18:08:15Z</time>
      </trkpt>
      <trkpt lat="41.9415520" lon="2.6796350">
        <ele>223.0</ele>
        <time>2022-05-26T18:08:16Z</time>
      </trkpt>
      <trkpt lat="41.9415090" lon="2.6796740">
        <ele>223.2</ele>
        <time>2022-05-26T18:08:17Z</time>
      </trkpt>
      <trkpt lat="41.9414630" lon="2.6797240">
        <ele>223.2</ele>
        <time>2022-05-26T18:08:18Z</time>
      </trkpt>
      <trkpt lat="41.9414340" lon="2.6797960">
        <ele>223.8</ele>
        <time>2022-05-26T18:08:19Z</time>
      </trkpt>
      <trkpt lat="41.9414120" lon="2.6798870">
        <ele>224.2</ele>
        <time>2022-05-26T18:08:20Z</time>
      </trkpt>
      <trkpt lat="41.9414030" lon="2.6799940">
        <ele>224.8</ele>
        <time>2022-05-26T18:08:21Z</time>
      </trkpt>
      <trkpt lat="41.9413880" lon="2.6801110">
        <ele>225.2</ele>
        <time>2022-05-26T18:08:22Z</time>
      </trkpt>
      <trkpt lat="41.9413690" lon="2.6802260">
        <ele>225.8</ele>
        <time>2022-05-26T18:08:23Z</time>
      </trkpt>
      <trkpt lat="41.9413500" lon="2.6803370">
        <ele>226.4</ele>
        <time>2022-05-26T18:08:24Z</time>
      </trkpt>
      <trkpt lat="41.9413360" lon="2.6804420">
        <ele>227.0</ele>
        <time>2022-05-26T18:08:25Z</time>
      </trkpt>
      <trkpt lat="41.9413260" lon="2.6805450">
        <ele>227.6</ele>
        <time>2022-05-26T18:08:26Z</time>
      </trkpt>
      <trkpt lat="41.9413140" lon="2.6806550">
        <ele>227.8</ele>
        <time>2022-05-26T18:08:27Z</time>
      </trkpt>
      <trkpt lat="41.9413010" lon="2.6807560">
        <ele>228.0</ele>
        <time>2022-05-26T18:08:28Z</time>
      </trkpt>
      <trkpt lat="41.9412840" lon="2.6808650">
        <ele>228.0</ele>
        <time>2022-05-26T18:08:29Z</time>
      </trkpt>
      <trkpt lat="41.9412590" lon="2.6809890">
        <ele>228.2</ele>
        <time>2022-05-26T18:08:30Z</time>
      </trkpt>
      <trkpt lat="41.9412280" lon="2.6810930">
        <ele>228.0</ele>
        <time>2022-05-26T18:08:31Z</time>
      </trkpt>
      <trkpt lat="41.9411970" lon="2.6811730">
        <ele>228.4</ele>
        <time>2022-05-26T18:08:32Z</time>
      </trkpt>
      <trkpt lat="41.9411620" lon="2.6812530">
        <ele>228.2</ele>
        <time>2022-05-26T18:08:33Z</time>
      </trkpt>
      <trkpt lat="41.9411240" lon="2.6813360">
        <ele>228.0</ele>
        <time>2022-05-26T18:08:34Z</time>
      </trkpt>
      <trkpt lat="41.9410820" lon="2.6814230">
        <ele>227.6</ele>
        <time>2022-05-26T18:08:35Z</time>
      </trkpt>
      <trkpt lat="41.9410360" lon="2.6815070">
        <ele>227.4</ele>
        <time>2022-05-26T18:08:36Z</time>
      </trkpt>
      <trkpt lat="41.9409830" lon="2.6815780">
        <ele>227.0</ele>
        <time>2022-05-26T18:08:37Z</time>
      </trkpt>
      <trkpt lat="41.9409170" lon="2.6816230">
        <ele>226.6</ele>
        <time>2022-05-26T18:08:38Z</time>
      </trkpt>
      <trkpt lat="41.9408430" lon="2.6816450">
        <ele>226.0</ele>
        <time>2022-05-26T18:08:39Z</time>
      </trkpt>
      <trkpt lat="41.9407640" lon="2.6816520">
        <ele>225.6</ele>
        <time>2022-05-26T18:08:40Z</time>
      </trkpt>
      <trkpt lat="41.9406870" lon="2.6816550">
        <ele>225.0</ele>
        <time>2022-05-26T18:08:41Z</time>
      </trkpt>
      <trkpt lat="41.9406130" lon="2.6816570">
        <ele>224.4</ele>
        <time>2022-05-26T18:08:42Z</time>
      </trkpt>
      <trkpt lat="41.9405430" lon="2.6816600">
        <ele>223.8</ele>
        <time>2022-05-26T18:08:43Z</time>
      </trkpt>
      <trkpt lat="41.9404960" lon="2.6816600">
        <ele>223.4</ele>
        <time>2022-05-26T18:08:44Z</time>
      </trkpt>
      <trkpt lat="41.9404660" lon="2.6816570">
        <ele>223.0</ele>
        <time>2022-05-26T18:08:45Z</time>
      </trkpt>
      <trkpt lat="41.9404470" lon="2.6816510">
        <ele>222.6</ele>
        <time>2022-05-26T18:08:46Z</time>
      </trkpt>
      <trkpt lat="41.9404370" lon="2.6816490">
        <ele>222.2</ele>
        <time>2022-05-26T18:08:47Z</time>
      </trkpt>
      <trkpt lat="41.9404310" lon="2.6816480">
        <ele>222.0</ele>
        <time>2022-05-26T18:08:48Z</time>
      </trkpt>
      <trkpt lat="41.9404310" lon="2.6816480">
        <ele>221.6</ele>
        <time>2022-05-26T18:08:49Z</time>
      </trkpt>
      <trkpt lat="41.9404290" lon="2.6816480">
        <ele>221.4</ele>
        <time>2022-05-26T18:08:50Z</time>
      </trkpt>
      <trkpt lat="41.9404130" lon="2.6816500">
        <ele>221.4</ele>
        <time>2022-05-26T18:08:51Z</time>
      </trkpt>
      <trkpt lat="41.9403780" lon="2.6816530">
        <ele>221.4</ele>
        <time>2022-05-26T18:08:52Z</time>
      </trkpt>
      <trkpt lat="41.9403250" lon="2.6816560">
        <ele>221.4</ele>
        <time>2022-05-26T18:08:53Z</time>
      </trkpt>
      <trkpt lat="41.9402670" lon="2.6816600">
        <ele>221.4</ele>
        <time>2022-05-26T18:08:54Z</time>
      </trkpt>
      <trkpt lat="41.9402120" lon="2.6816670">
        <ele>221.2</ele>
        <time>2022-05-26T18:08:55Z</time>
      </trkpt>
      <trkpt lat="41.9401870" lon="2.6816720">
        <ele>221.2</ele>
        <time>2022-05-26T18:08:56Z</time>
      </trkpt>
      <trkpt lat="41.9401380" lon="2.6816840">
        <ele>221.0</ele>
        <time>2022-05-26T18:08:57Z</time>
      </trkpt>
      <trkpt lat="41.9400940" lon="2.6817080">
        <ele>220.8</ele>
        <time>2022-05-26T18:08:58Z</time>
      </trkpt>
      <trkpt lat="41.9400540" lon="2.6817490">
        <ele>220.6</ele>
        <time>2022-05-26T18:08:59Z</time>
      </trkpt>
      <trkpt lat="41.9400210" lon="2.6818030">
        <ele>220.4</ele>
        <time>2022-05-26T18:09:00Z</time>
      </trkpt>
      <trkpt lat="41.9400010" lon="2.6818710">
        <ele>220.2</ele>
        <time>2022-05-26T18:09:01Z</time>
      </trkpt>
      <trkpt lat="41.9399940" lon="2.6819330">
        <ele>220.0</ele>
        <time>2022-05-26T18:09:02Z</time>
      </trkpt>
      <trkpt lat="41.9399870" lon="2.6819970">
        <ele>219.6</ele>
        <time>2022-05-26T18:09:03Z</time>
      </trkpt>
      <trkpt lat="41.9399780" lon="2.6820630">
        <ele>219.4</ele>
        <time>2022-05-26T18:09:04Z</time>
      </trkpt>
      <trkpt lat="41.9399780" lon="2.6821220">
        <ele>219.2</ele>
        <time>2022-05-26T18:09:05Z</time>
      </trkpt>
      <trkpt lat="41.9399840" lon="2.6821740">
        <ele>218.6</ele>
        <time>2022-05-26T18:09:06Z</time>
      </trkpt>
      <trkpt lat="41.9399970" lon="2.6822250">
        <ele>218.2</ele>
        <time>2022-05-26T18:09:07Z</time>
      </trkpt>
      <trkpt lat="41.9400100" lon="2.6822740">
        <ele>217.8</ele>
        <time>2022-05-26T18:09:08Z</time>
      </trkpt>
      <trkpt lat="41.9400100" lon="2.6822740">
        <ele>217.4</ele>
        <time>2022-05-26T18:09:09Z</time>
      </trkpt>
      <trkpt lat="41.9400150" lon="2.6823790">
        <ele>216.8</ele>
        <time>2022-05-26T18:09:10Z</time>
      </trkpt>
      <trkpt lat="41.9400160" lon="2.6824400">
        <ele>216.4</ele>
        <time>2022-05-26T18:09:11Z</time>
      </trkpt>
      <trkpt lat="41.9400180" lon="2.6825050">
        <ele>216.0</ele>
        <time>2022-05-26T18:09:12Z</time>
      </trkpt>
      <trkpt lat="41.9400280" lon="2.6825720">
        <ele>215.4</ele>
        <time>2022-05-26T18:09:13Z</time>
      </trkpt>
      <trkpt lat="41.9400480" lon="2.6826320">
        <ele>215.0</ele>
        <time>2022-05-26T18:09:14Z</time>
      </trkpt>
      <trkpt lat="41.9400800" lon="2.6826830">
        <ele>214.6</ele>
        <time>2022-05-26T18:09:15Z</time>
      </trkpt>
      <trkpt lat="41.9401240" lon="2.6827300">
        <ele>214.2</ele>
        <time>2022-05-26T18:09:16Z</time>
      </trkpt>
      <trkpt lat="41.9401750" lon="2.6827830">
        <ele>213.8</ele>
        <time>2022-05-26T18:09:17Z</time>
      </trkpt>
      <trkpt lat="41.9402340" lon="2.6828420">
        <ele>213.4</ele>
        <time>2022-05-26T18:09:18Z</time>
      </trkpt>
      <trkpt lat="41.9402870" lon="2.6828890">
        <ele>212.6</ele>
        <time>2022-05-26T18:09:19Z</time>
      </trkpt>
      <trkpt lat="41.9403320" lon="2.6829300">
        <ele>212.0</ele>
        <time>2022-05-26T18:09:20Z</time>
      </trkpt>
      <trkpt lat="41.9403620" lon="2.6829710">
        <ele>211.4</ele>
        <time>2022-05-26T18:09:21Z</time>
      </trkpt>
      <trkpt lat="41.9403630" lon="2.6830080">
        <ele>210.8</ele>
        <time>2022-05-26T18:09:22Z</time>
      </trkpt>
      <trkpt lat="41.9403520" lon="2.6830330">
        <ele>210.2</ele>
        <time>2022-05-26T18:09:23Z</time>
      </trkpt>
      <trkpt lat="41.9403320" lon="2.6830570">
        <ele>209.8</ele>
        <time>2022-05-26T18:09:24Z</time>
      </trkpt>
      <trkpt lat="41.9403190" lon="2.6830850">
        <ele>209.4</ele>
        <time>2022-05-26T18:09:25Z</time>
      </trkpt>
      <trkpt lat="41.9403140" lon="2.6831110">
        <ele>209.0</ele>
        <time>2022-05-26T18:09:26Z</time>
      </trkpt>
      <trkpt lat="41.9403120" lon="2.6831350">
        <ele>208.6</ele>
        <time>2022-05-26T18:09:27Z</time>
      </trkpt>
      <trkpt lat="41.9403150" lon="2.6831620">
        <ele>208.2</ele>
        <time>2022-05-26T18:09:28Z</time>
      </trkpt>
      <trkpt lat="41.9403170" lon="2.6832040">
        <ele>207.8</ele>
        <time>2022-05-26T18:09:29Z</time>
      </trkpt>
      <trkpt lat="41.9403220" lon="2.6832590">
        <ele>207.4</ele>
        <time>2022-05-26T18:09:30Z</time>
      </trkpt>
      <trkpt lat="41.9403280" lon="2.6833190">
        <ele>207.2</ele>
        <time>2022-05-26T18:09:31Z</time>
      </trkpt>
      <trkpt lat="41.9403310" lon="2.6833710">
        <ele>207.2</ele>
        <time>2022-05-26T18:09:32Z</time>
      </trkpt>
      <trkpt lat="41.9403350" lon="2.6834170">
        <ele>207.0</ele>
        <time>2022-05-26T18:09:33Z</time>
      </trkpt>
      <trkpt lat="41.9403320" lon="2.6834540">
        <ele>206.8</ele>
        <time>2022-05-26T18:09:34Z</time>
      </trkpt>
      <trkpt lat="41.9403330" lon="2.6834880">
        <ele>206.6</ele>
        <time>2022-05-26T18:09:35Z</time>
      </trkpt>
      <trkpt lat="41.9403410" lon="2.6835220">
        <ele>206.6</ele>
        <time>2022-05-26T18:09:36Z</time>
      </trkpt>
      <trkpt lat="41.9403550" lon="2.6835450">
        <ele>206.4</ele>
        <time>2022-05-26T18:09:37Z</time>
      </trkpt>
      <trkpt lat="41.9403760" lon="2.6835570">
        <ele>206.4</ele>
        <time>2022-05-26T18:09:38Z</time>
      </trkpt>
      <trkpt lat="41.9403920" lon="2.6835630">
        <ele>206.4</ele>
        <time>2022-05-26T18:09:39Z</time>
      </trkpt>
      <trkpt lat="41.9403970" lon="2.6835720">
        <ele>206.4</ele>
        <time>2022-05-26T18:09:40Z</time>
      </trkpt>
      <trkpt lat="41.9403990" lon="2.6835900">
        <ele>206.8</ele>
        <time>2022-05-26T18:09:41Z</time>
      </trkpt>
      <trkpt lat="41.9403940" lon="2.6836250">
        <ele>207.0</ele>
        <time>2022-05-26T18:09:42Z</time>
      </trkpt>
      <trkpt lat="41.9403740" lon="2.6836680">
        <ele>207.2</ele>
        <time>2022-05-26T18:09:43Z</time>
      </trkpt>
      <trkpt lat="41.9403440" lon="2.6837110">
        <ele>207.6</ele>
        <time>2022-05-26T18:09:44Z</time>
      </trkpt>
      <trkpt lat="41.9403200" lon="2.6837510">
        <ele>208.0</ele>
        <time>2022-05-26T18:09:45Z</time>
      </trkpt>
      <trkpt lat="41.9403140" lon="2.6837920">
        <ele>208.4</ele>
        <time>2022-05-26T18:09:46Z</time>
      </trkpt>
      <trkpt lat="41.9403080" lon="2.6838270">
        <ele>209.0</ele>
        <time>2022-05-26T18:09:47Z</time>
      </trkpt>
      <trkpt lat="41.9402990" lon="2.6838540">
        <ele>209.4</ele>
        <time>2022-05-26T18:09:48Z</time>
      </trkpt>
      <trkpt lat="41.9402720" lon="2.6838790">
        <ele>210.0</ele>
        <time>2022-05-26T18:09:49Z</time>
      </trkpt>
      <trkpt lat="41.9402300" lon="2.6839120">
        <ele>210.6</ele>
        <time>2022-05-26T18:09:50Z</time>
      </trkpt>
      <trkpt lat="41.9401790" lon="2.6839480">
        <ele>211.2</ele>
        <time>2022-05-26T18:09:51Z</time>
      </trkpt>
      <trkpt lat="41.9401240" lon="2.6839840">
        <ele>212.0</ele>
        <time>2022-05-26T18:09:52Z</time>
      </trkpt>
      <trkpt lat="41.9400690" lon="2.6840230">
        <ele>212.8</ele>
        <time>2022-05-26T18:09:53Z</time>
      </trkpt>
      <trkpt lat="41.9400100" lon="2.6840670">
        <ele>213.4</ele>
        <time>2022-05-26T18:09:54Z</time>
      </trkpt>
      <trkpt lat="41.9399430" lon="2.6841120">
        <ele>213.8</ele>
        <time>2022-05-26T18:09:55Z</time>
      </trkpt>
      <trkpt lat="41.9398780" lon="2.6841530">
        <ele>214.2</ele>
        <time>2022-05-26T18:09:56Z</time>
      </trkpt>
      <trkpt lat="41.9398200" lon="2.6841860">
        <ele>214.6</ele>
        <time>2022-05-26T18:09:57Z</time>
      </trkpt>
      <trkpt lat="41.9397730" lon="2.6842200">
        <ele>215.0</ele>
        <time>2022-05-26T18:09:58Z</time>
      </trkpt>
      <trkpt lat="41.9397350" lon="2.6842590">
        <ele>215.4</ele>
        <time>2022-05-26T18:09:59Z</time>
      </trkpt>
      <trkpt lat="41.9397060" lon="2.6842990">
        <ele>216.0</ele>
        <time>2022-05-26T18:10:00Z</time>
      </trkpt>
      <trkpt lat="41.9396820" lon="2.6843310">
        <ele>216.4</ele>
        <time>2022-05-26T18:10:01Z</time>
      </trkpt>
      <trkpt lat="41.9396550" lon="2.6843530">
        <ele>216.8</ele>
        <time>2022-05-26T18:10:02Z</time>
      </trkpt>
      <trkpt lat="41.9396120" lon="2.6843740">
        <ele>217.2</ele>
        <time>2022-05-26T18:10:03Z</time>
      </trkpt>
      <trkpt lat="41.9395720" lon="2.6843970">
        <ele>217.8</ele>
        <time>2022-05-26T18:10:04Z</time>
      </trkpt>
      <trkpt lat="41.9395540" lon="2.6844160">
        <ele>218.2</ele>
        <time>2022-05-26T18:10:05Z</time>
      </trkpt>
      <trkpt lat="41.9395440" lon="2.6844370">
        <ele>218.8</ele>
        <time>2022-05-26T18:10:06Z</time>
      </trkpt>
      <trkpt lat="41.9395170" lon="2.6844620">
        <ele>219.2</ele>
        <time>2022-05-26T18:10:07Z</time>
      </trkpt>
      <trkpt lat="41.9394710" lon="2.6844890">
        <ele>219.8</ele>
        <time>2022-05-26T18:10:08Z</time>
      </trkpt>
      <trkpt lat="41.9394290" lon="2.6845170">
        <ele>220.2</ele>
        <time>2022-05-26T18:10:09Z</time>
      </trkpt>
      <trkpt lat="41.9393880" lon="2.6845560">
        <ele>220.8</ele>
        <time>2022-05-26T18:10:10Z</time>
      </trkpt>
      <trkpt lat="41.9393510" lon="2.6845950">
        <ele>221.2</ele>
        <time>2022-05-26T18:10:11Z</time>
      </trkpt>
      <trkpt lat="41.9393120" lon="2.6846390">
        <ele>221.8</ele>
        <time>2022-05-26T18:10:12Z</time>
      </trkpt>
      <trkpt lat="41.9392750" lon="2.6846860">
        <ele>222.2</ele>
        <time>2022-05-26T18:10:13Z</time>
      </trkpt>
      <trkpt lat="41.9392440" lon="2.6847320">
        <ele>222.6</ele>
        <time>2022-05-26T18:10:14Z</time>
      </trkpt>
      <trkpt lat="41.9392150" lon="2.6847800">
        <ele>223.2</ele>
        <time>2022-05-26T18:10:15Z</time>
      </trkpt>
      <trkpt lat="41.9391830" lon="2.6848400">
        <ele>223.6</ele>
        <time>2022-05-26T18:10:16Z</time>
      </trkpt>
      <trkpt lat="41.9391540" lon="2.6849080">
        <ele>224.0</ele>
        <time>2022-05-26T18:10:17Z</time>
      </trkpt>
      <trkpt lat="41.9391300" lon="2.6849770">
        <ele>224.4</ele>
        <time>2022-05-26T18:10:18Z</time>
      </trkpt>
      <trkpt lat="41.9391060" lon="2.6850570">
        <ele>225.0</ele>
        <time>2022-05-26T18:10:19Z</time>
      </trkpt>
      <trkpt lat="41.9390870" lon="2.6851450">
        <ele>225.4</ele>
        <time>2022-05-26T18:10:20Z</time>
      </trkpt>
      <trkpt lat="41.9390790" lon="2.6852200">
        <ele>225.8</ele>
        <time>2022-05-26T18:10:21Z</time>
      </trkpt>
      <trkpt lat="41.9390740" lon="2.6852900">
        <ele>226.2</ele>
        <time>2022-05-26T18:10:22Z</time>
      </trkpt>
      <trkpt lat="41.9390680" lon="2.6853500">
        <ele>226.6</ele>
        <time>2022-05-26T18:10:23Z</time>
      </trkpt>
      <trkpt lat="41.9390600" lon="2.6853980">
        <ele>226.8</ele>
        <time>2022-05-26T18:10:24Z</time>
      </trkpt>
      <trkpt lat="41.9390580" lon="2.6854400">
        <ele>227.2</ele>
        <time>2022-05-26T18:10:25Z</time>
      </trkpt>
      <trkpt lat="41.9390630" lon="2.6854750">
        <ele>227.4</ele>
        <time>2022-05-26T18:10:26Z</time>
      </trkpt>
      <trkpt lat="41.9390770" lon="2.6855020">
        <ele>227.8</ele>
        <time>2022-05-26T18:10:27Z</time>
      </trkpt>
      <trkpt lat="41.9390950" lon="2.6855190">
        <ele>228.0</ele>
        <time>2022-05-26T18:10:28Z</time>
      </trkpt>
      <trkpt lat="41.9391040" lon="2.6855350">
        <ele>228.2</ele>
        <time>2022-05-26T18:10:29Z</time>
      </trkpt>
      <trkpt lat="41.9391140" lon="2.6855590">
        <ele>228.4</ele>
        <time>2022-05-26T18:10:30Z</time>
      </trkpt>
      <trkpt lat="41.9391110" lon="2.6856040">
        <ele>228.6</ele>
        <time>2022-05-26T18:10:31Z</time>
      </trkpt>
      <trkpt lat="41.9391100" lon="2.6856730">
        <ele>228.6</ele>
        <time>2022-05-26T18:10:32Z</time>
      </trkpt>
      <trkpt lat="41.9391090" lon="2.6857610">
        <ele>228.6</ele>
        <time>2022-05-26T18:10:33Z</time>
      </trkpt>
      <trkpt lat="41.9391020" lon="2.6858740">
        <ele>228.6</ele>
        <time>2022-05-26T18:10:34Z</time>
      </trkpt>
      <trkpt lat="41.9390860" lon="2.6859990">
        <ele>228.6</ele>
        <time>2022-05-26T18:10:35Z</time>
      </trkpt>
      <trkpt lat="41.9390610" lon="2.6861070">
        <ele>228.4</ele>
        <time>2022-05-26T18:10:36Z</time>
      </trkpt>
      <trkpt lat="41.9390330" lon="2.6862060">
        <ele>228.4</ele>
        <time>2022-05-26T18:10:37Z</time>
      </trkpt>
      <trkpt lat="41.9390070" lon="2.6863010">
        <ele>228.2</ele>
        <time>2022-05-26T18:10:38Z</time>
      </trkpt>
      <trkpt lat="41.9389950" lon="2.6863920">
        <ele>228.0</ele>
        <time>2022-05-26T18:10:39Z</time>
      </trkpt>
      <trkpt lat="41.9389870" lon="2.6864740">
        <ele>227.8</ele>
        <time>2022-05-26T18:10:40Z</time>
      </trkpt>
      <trkpt lat="41.9389750" lon="2.6865400">
        <ele>227.6</ele>
        <time>2022-05-26T18:10:41Z</time>
      </trkpt>
      <trkpt lat="41.9389540" lon="2.6865950">
        <ele>227.4</ele>
        <time>2022-05-26T18:10:42Z</time>
      </trkpt>
      <trkpt lat="41.9389160" lon="2.6866510">
        <ele>227.2</ele>
        <time>2022-05-26T18:10:43Z</time>
      </trkpt>
      <trkpt lat="41.9388700" lon="2.6867270">
        <ele>226.8</ele>
        <time>2022-05-26T18:10:44Z</time>
      </trkpt>
      <trkpt lat="41.9388210" lon="2.6868040">
        <ele>226.4</ele>
        <time>2022-05-26T18:10:45Z</time>
      </trkpt>
      <trkpt lat="41.9387740" lon="2.6868830">
        <ele>225.8</ele>
        <time>2022-05-26T18:10:46Z</time>
      </trkpt>
      <trkpt lat="41.9387330" lon="2.6869620">
        <ele>225.2</ele>
        <time>2022-05-26T18:10:47Z</time>
      </trkpt>
      <trkpt lat="41.9386970" lon="2.6870340">
        <ele>224.4</ele>
        <time>2022-05-26T18:10:48Z</time>
      </trkpt>
      <trkpt lat="41.9386670" lon="2.6870920">
        <ele>223.6</ele>
        <time>2022-05-26T18:10:49Z</time>
      </trkpt>
      <trkpt lat="41.9386360" lon="2.6871550">
        <ele>222.6</ele>
        <time>2022-05-26T18:10:50Z</time>
      </trkpt>
      <trkpt lat="41.9386090" lon="2.6872200">
        <ele>221.8</ele>
        <time>2022-05-26T18:10:51Z</time>
      </trkpt>
      <trkpt lat="41.9385820" lon="2.6872800">
        <ele>220.8</ele>
        <time>2022-05-26T18:10:52Z</time>
      </trkpt>
      <trkpt lat="41.9385520" lon="2.6873430">
        <ele>220.0</ele>
        <time>2022-05-26T18:10:53Z</time>
      </trkpt>
      <trkpt lat="41.9385170" lon="2.6873870">
        <ele>219.4</ele>
        <time>2022-05-26T18:10:54Z</time>
      </trkpt>
      <trkpt lat="41.9384720" lon="2.6874100">
        <ele>218.6</ele>
        <time>2022-05-26T18:10:55Z</time>
      </trkpt>
      <trkpt lat="41.9384200" lon="2.6874210">
        <ele>217.6</ele>
        <time>2022-05-26T18:10:56Z</time>
      </trkpt>
      <trkpt lat="41.9383620" lon="2.6874270">
        <ele>216.8</ele>
        <time>2022-05-26T18:10:57Z</time>
      </trkpt>
      <trkpt lat="41.9383160" lon="2.6874210">
        <ele>216.0</ele>
        <time>2022-05-26T18:10:58Z</time>
      </trkpt>
      <trkpt lat="41.9382800" lon="2.6874020">
        <ele>215.2</ele>
        <time>2022-05-26T18:10:59Z</time>
      </trkpt>
      <trkpt lat="41.9382580" lon="2.6873690">
        <ele>214.6</ele>
        <time>2022-05-26T18:11:00Z</time>
      </trkpt>
      <trkpt lat="41.9382470" lon="2.6873230">
        <ele>214.2</ele>
        <time>2022-05-26T18:11:01Z</time>
      </trkpt>
      <trkpt lat="41.9382480" lon="2.6872740">
        <ele>213.8</ele>
        <time>2022-05-26T18:11:02Z</time>
      </trkpt>
      <trkpt lat="41.9382520" lon="2.6872180">
        <ele>213.6</ele>
        <time>2022-05-26T18:11:03Z</time>
      </trkpt>
      <trkpt lat="41.9382640" lon="2.6871630">
        <ele>213.6</ele>
        <time>2022-05-26T18:11:04Z</time>
      </trkpt>
      <trkpt lat="41.9382900" lon="2.6871080">
        <ele>213.6</ele>
        <time>2022-05-26T18:11:05Z</time>
      </trkpt>
      <trkpt lat="41.9383220" lon="2.6870540">
        <ele>213.6</ele>
        <time>2022-05-26T18:11:06Z</time>
      </trkpt>
      <trkpt lat="41.9383590" lon="2.6869940">
        <ele>213.6</ele>
        <time>2022-05-26T18:11:07Z</time>
      </trkpt>
      <trkpt lat="41.9383820" lon="2.6869340">
        <ele>213.8</ele>
        <time>2022-05-26T18:11:08Z</time>
      </trkpt>
      <trkpt lat="41.9384000" lon="2.6868800">
        <ele>214.0</ele>
        <time>2022-05-26T18:11:09Z</time>
      </trkpt>
      <trkpt lat="41.9384250" lon="2.6868290">
        <ele>214.2</ele>
        <time>2022-05-26T18:11:10Z</time>
      </trkpt>
      <trkpt lat="41.9384550" lon="2.6867910">
        <ele>214.6</ele>
        <time>2022-05-26T18:11:11Z</time>
      </trkpt>
      <trkpt lat="41.9384860" lon="2.6867800">
        <ele>214.8</ele>
        <time>2022-05-26T18:11:12Z</time>
      </trkpt>
      <trkpt lat="41.9385110" lon="2.6867880">
        <ele>215.2</ele>
        <time>2022-05-26T18:11:13Z</time>
      </trkpt>
      <trkpt lat="41.9385330" lon="2.6868220">
        <ele>215.6</ele>
        <time>2022-05-26T18:11:14Z</time>
      </trkpt>
      <trkpt lat="41.9385680" lon="2.6868540">
        <ele>215.8</ele>
        <time>2022-05-26T18:11:15Z</time>
      </trkpt>
      <trkpt lat="41.9386100" lon="2.6868540">
        <ele>216.2</ele>
        <time>2022-05-26T18:11:16Z</time>
      </trkpt>
      <trkpt lat="41.9386400" lon="2.6868420">
        <ele>216.8</ele>
        <time>2022-05-26T18:11:17Z</time>
      </trkpt>
      <trkpt lat="41.9386440" lon="2.6868090">
        <ele>217.0</ele>
        <time>2022-05-26T18:11:18Z</time>
      </trkpt>
      <trkpt lat="41.9386400" lon="2.6867540">
        <ele>217.2</ele>
        <time>2022-05-26T18:11:19Z</time>
      </trkpt>
      <trkpt lat="41.9386120" lon="2.6866920">
        <ele>217.4</ele>
        <time>2022-05-26T18:11:20Z</time>
      </trkpt>
      <trkpt lat="41.9385820" lon="2.6866560">
        <ele>217.6</ele>
        <time>2022-05-26T18:11:21Z</time>
      </trkpt>
      <trkpt lat="41.9385600" lon="2.6866240">
        <ele>217.8</ele>
        <time>2022-05-26T18:11:22Z</time>
      </trkpt>
      <trkpt lat="41.9385370" lon="2.6866070">
        <ele>217.8</ele>
        <time>2022-05-26T18:11:23Z</time>
      </trkpt>
      <trkpt lat="41.9385120" lon="2.6865910">
        <ele>217.8</ele>
        <time>2022-05-26T18:11:24Z</time>
      </trkpt>
      <trkpt lat="41.9384800" lon="2.6865890">
        <ele>217.8</ele>
        <time>2022-05-26T18:11:25Z</time>
      </trkpt>
      <trkpt lat="41.9384580" lon="2.6865950">
        <ele>217.6</ele>
        <time>2022-05-26T18:11:26Z</time>
      </trkpt>
      <trkpt lat="41.9384380" lon="2.6865970">
        <ele>217.4</ele>
        <time>2022-05-26T18:11:27Z</time>
      </trkpt>
      <trkpt lat="41.9384170" lon="2.6865920">
        <ele>217.2</ele>
        <time>2022-05-26T18:11:28Z</time>
      </trkpt>
      <trkpt lat="41.9383990" lon="2.6865730">
        <ele>217.0</ele>
        <time>2022-05-26T18:11:29Z</time>
      </trkpt>
      <trkpt lat="41.9383810" lon="2.6865400">
        <ele>217.0</ele>
        <time>2022-05-26T18:11:30Z</time>
      </trkpt>
      <trkpt lat="41.9383610" lon="2.6864970">
        <ele>217.0</ele>
        <time>2022-05-26T18:11:31Z</time>
      </trkpt>
      <trkpt lat="41.9383410" lon="2.6864580">
        <ele>216.8</ele>
        <time>2022-05-26T18:11:32Z</time>
      </trkpt>
      <trkpt lat="41.9383190" lon="2.6864140">
        <ele>217.0</ele>
        <time>2022-05-26T18:11:33Z</time>
      </trkpt>
      <trkpt lat="41.9382990" lon="2.6863730">
        <ele>217.0</ele>
        <time>2022-05-26T18:11:34Z</time>
      </trkpt>
      <trkpt lat="41.9382750" lon="2.6863330">
        <ele>217.0</ele>
        <time>2022-05-26T18:11:35Z</time>
      </trkpt>
      <trkpt lat="41.9382370" lon="2.6862960">
        <ele>217.0</ele>
        <time>2022-05-26T18:11:36Z</time>
      </trkpt>
      <trkpt lat="41.9381860" lon="2.6862680">
        <ele>216.8</ele>
        <time>2022-05-26T18:11:37Z</time>
      </trkpt>
      <trkpt lat="41.9381240" lon="2.6862390">
        <ele>217.0</ele>
        <time>2022-05-26T18:11:38Z</time>
      </trkpt>
      <trkpt lat="41.9380530" lon="2.6862000">
        <ele>216.8</ele>
        <time>2022-05-26T18:11:39Z</time>
      </trkpt>
      <trkpt lat="41.9379760" lon="2.6861540">
        <ele>216.4</ele>
        <time>2022-05-26T18:11:40Z</time>
      </trkpt>
      <trkpt lat="41.9379030" lon="2.6861170">
        <ele>216.0</ele>
        <time>2022-05-26T18:11:41Z</time>
      </trkpt>
      <trkpt lat="41.9378260" lon="2.6860760">
        <ele>215.8</ele>
        <time>2022-05-26T18:11:42Z</time>
      </trkpt>
      <trkpt lat="41.9377580" lon="2.6860230">
        <ele>215.4</ele>
        <time>2022-05-26T18:11:43Z</time>
      </trkpt>
      <trkpt lat="41.9377040" lon="2.6859540">
        <ele>214.8</ele>
        <time>2022-05-26T18:11:44Z</time>
      </trkpt>
      <trkpt lat="41.9376580" lon="2.6858690">
        <ele>214.4</ele>
        <time>2022-05-26T18:11:45Z</time>
      </trkpt>
      <trkpt lat="41.9376060" lon="2.6857620">
        <ele>213.8</ele>
        <time>2022-05-26T18:11:46Z</time>
      </trkpt>
      <trkpt lat="41.9375630" lon="2.6856650">
        <ele>213.2</ele>
        <time>2022-05-26T18:11:47Z</time>
      </trkpt>
      <trkpt lat="41.9375320" lon="2.6855920">
        <ele>212.6</ele>
        <time>2022-05-26T18:11:48Z</time>
      </trkpt>
      <trkpt lat="41.9375030" lon="2.6855220">
        <ele>211.8</ele>
        <time>2022-05-26T18:11:49Z</time>
      </trkpt>
      <trkpt lat="41.9374780" lon="2.6854680">
        <ele>211.2</ele>
        <time>2022-05-26T18:11:50Z</time>
      </trkpt>
      <trkpt lat="41.9374570" lon="2.6854380">
        <ele>210.6</ele>
        <time>2022-05-26T18:11:51Z</time>
      </trkpt>
      <trkpt lat="41.9374410" lon="2.6854240">
        <ele>210.2</ele>
        <time>2022-05-26T18:11:52Z</time>
      </trkpt>
      <trkpt lat="41.9374230" lon="2.6854250">
        <ele>209.6</ele>
        <time>2022-05-26T18:11:53Z</time>
      </trkpt>
      <trkpt lat="41.9373990" lon="2.6854270">
        <ele>209.2</ele>
        <time>2022-05-26T18:11:54Z</time>
      </trkpt>
      <trkpt lat="41.9373650" lon="2.6854320">
        <ele>208.8</ele>
        <time>2022-05-26T18:11:55Z</time>
      </trkpt>
      <trkpt lat="41.9373320" lon="2.6854430">
        <ele>208.4</ele>
        <time>2022-05-26T18:11:56Z</time>
      </trkpt>
      <trkpt lat="41.9373080" lon="2.6854500">
        <ele>208.0</ele>
        <time>2022-05-26T18:11:57Z</time>
      </trkpt>
      <trkpt lat="41.9372870" lon="2.6854590">
        <ele>207.6</ele>
        <time>2022-05-26T18:11:58Z</time>
      </trkpt>
      <trkpt lat="41.9372680" lon="2.6854670">
        <ele>207.2</ele>
        <time>2022-05-26T18:11:59Z</time>
      </trkpt>
      <trkpt lat="41.9372470" lon="2.6854750">
        <ele>206.8</ele>
        <time>2022-05-26T18:12:00Z</time>
      </trkpt>
      <trkpt lat="41.9372260" lon="2.6854890">
        <ele>206.4</ele>
        <time>2022-05-26T18:12:01Z</time>
      </trkpt>
      <trkpt lat="41.9372140" lon="2.6855110">
        <ele>206.2</ele>
        <time>2022-05-26T18:12:02Z</time>
      </trkpt>
      <trkpt lat="41.9372130" lon="2.6855390">
        <ele>206.0</ele>
        <time>2022-05-26T18:12:03Z</time>
      </trkpt>
      <trkpt lat="41.9372300" lon="2.6855580">
        <ele>205.8</ele>
        <time>2022-05-26T18:12:04Z</time>
      </trkpt>
      <trkpt lat="41.9372590" lon="2.6855710">
        <ele>205.8</ele>
        <time>2022-05-26T18:12:05Z</time>
      </trkpt>
      <trkpt lat="41.9372910" lon="2.6855870">
        <ele>205.8</ele>
        <time>2022-05-26T18:12:06Z</time>
      </trkpt>
      <trkpt lat="41.9373220" lon="2.6856050">
        <ele>205.8</ele>
        <time>2022-05-26T18:12:07Z</time>
      </trkpt>
      <trkpt lat="41.9373600" lon="2.6856170">
        <ele>206.0</ele>
        <time>2022-05-26T18:12:08Z</time>
      </trkpt>
      <trkpt lat="41.9373950" lon="2.6856260">
        <ele>206.0</ele>
        <time>2022-05-26T18:12:09Z</time>
      </trkpt>
      <trkpt lat="41.9374260" lon="2.6856390">
        <ele>206.2</ele>
        <time>2022-05-26T18:12:10Z</time>
      </trkpt>
      <trkpt lat="41.9374500" lon="2.6856500">
        <ele>206.2</ele>
        <time>2022-05-26T18:12:11Z</time>
      </trkpt>
      <trkpt lat="41.9374680" lon="2.6856630">
        <ele>206.4</ele>
        <time>2022-05-26T18:12:12Z</time>
      </trkpt>
      <trkpt lat="41.9374830" lon="2.6856960">
        <ele>206.6</ele>
        <time>2022-05-26T18:12:13Z</time>
      </trkpt>
      <trkpt lat="41.9374970" lon="2.6857440">
        <ele>206.6</ele>
        <time>2022-05-26T18:12:14Z</time>
      </trkpt>
      <trkpt lat="41.9375120" lon="2.6857950">
        <ele>206.8</ele>
        <time>2022-05-26T18:12:15Z</time>
      </trkpt>
      <trkpt lat="41.9375230" lon="2.6858330">
        <ele>207.0</ele>
        <time>2022-05-26T18:12:16Z</time>
      </trkpt>
      <trkpt lat="41.9375310" lon="2.6858640">
        <ele>207.2</ele>
        <time>2022-05-26T18:12:17Z</time>
      </trkpt>
      <trkpt lat="41.9375380" lon="2.6858990">
        <ele>207.4</ele>
        <time>2022-05-26T18:12:18Z</time>
      </trkpt>
      <trkpt lat="41.9375410" lon="2.6859390">
        <ele>207.6</ele>
        <time>2022-05-26T18:12:19Z</time>
      </trkpt>
      <trkpt lat="41.9375460" lon="2.6859730">
        <ele>207.8</ele>
        <time>2022-05-26T18:12:20Z</time>
      </trkpt>
      <trkpt lat="41.9375540" lon="2.6859990">
        <ele>207.8</ele>
        <time>2022-05-26T18:12:21Z</time>
      </trkpt>
      <trkpt lat="41.9375620" lon="2.6860180">
        <ele>208.0</ele>
        <time>2022-05-26T18:12:22Z</time>
      </trkpt>
      <trkpt lat="41.9375650" lon="2.6860380">
        <ele>208.2</ele>
        <time>2022-05-26T18:12:23Z</time>
      </trkpt>
      <trkpt lat="41.9375670" lon="2.6860760">
        <ele>208.2</ele>
        <time>2022-05-26T18:12:24Z</time>
      </trkpt>
      <trkpt lat="41.9375690" lon="2.6861260">
        <ele>208.4</ele>
        <time>2022-05-26T18:12:25Z</time>
      </trkpt>
      <trkpt lat="41.9375700" lon="2.6861690">
        <ele>208.4</ele>
        <time>2022-05-26T18:12:26Z</time>
      </trkpt>
      <trkpt lat="41.9375640" lon="2.6861960">
        <ele>208.4</ele>
        <time>2022-05-26T18:12:27Z</time>
      </trkpt>
      <trkpt lat="41.9375510" lon="2.6862150">
        <ele>208.4</ele>
        <time>2022-05-26T18:12:28Z</time>
      </trkpt>
      <trkpt lat="41.9375320" lon="2.6862400">
        <ele>208.4</ele>
        <time>2022-05-26T18:12:29Z</time>
      </trkpt>
      <trkpt lat="41.9375110" lon="2.6862690">
        <ele>208.2</ele>
        <time>2022-05-26T18:12:30Z</time>
      </trkpt>
      <trkpt lat="41.9374890" lon="2.6862960">
        <ele>208.0</ele>
        <time>2022-05-26T18:12:31Z</time>
      </trkpt>
      <trkpt lat="41.9374660" lon="2.6863010">
        <ele>207.8</ele>
        <time>2022-05-26T18:12:32Z</time>
      </trkpt>
      <trkpt lat="41.9374370" lon="2.6863020">
        <ele>207.6</ele>
        <time>2022-05-26T18:12:33Z</time>
      </trkpt>
      <trkpt lat="41.9374060" lon="2.6863070">
        <ele>207.4</ele>
        <time>2022-05-26T18:12:34Z</time>
      </trkpt>
      <trkpt lat="41.9373780" lon="2.6863200">
        <ele>207.2</ele>
        <time>2022-05-26T18:12:35Z</time>
      </trkpt>
      <trkpt lat="41.9373500" lon="2.6863410">
        <ele>206.8</ele>
        <time>2022-05-26T18:12:36Z</time>
      </trkpt>
      <trkpt lat="41.9373110" lon="2.6863680">
        <ele>206.4</ele>
        <time>2022-05-26T18:12:37Z</time>
      </trkpt>
      <trkpt lat="41.9372630" lon="2.6863880">
        <ele>206.0</ele>
        <time>2022-05-26T18:12:38Z</time>
      </trkpt>
      <trkpt lat="41.9372180" lon="2.6863980">
        <ele>205.8</ele>
        <time>2022-05-26T18:12:39Z</time>
      </trkpt>
      <trkpt lat="41.9371890" lon="2.6863950">
        <ele>205.4</ele>
        <time>2022-05-26T18:12:40Z</time>
      </trkpt>
      <trkpt lat="41.9371650" lon="2.6863790">
        <ele>205.0</ele>
        <time>2022-05-26T18:12:41Z</time>
      </trkpt>
      <trkpt lat="41.9371360" lon="2.6863590">
        <ele>204.6</ele>
        <time>2022-05-26T18:12:42Z</time>
      </trkpt>
      <trkpt lat="41.9371110" lon="2.6863370">
        <ele>204.4</ele>
        <time>2022-05-26T18:12:43Z</time>
      </trkpt>
      <trkpt lat="41.9370860" lon="2.6862970">
        <ele>204.0</ele>
        <time>2022-05-26T18:12:44Z</time>
      </trkpt>
      <trkpt lat="41.9370610" lon="2.6862470">
        <ele>203.6</ele>
        <time>2022-05-26T18:12:45Z</time>
      </trkpt>
      <trkpt lat="41.9370320" lon="2.6861950">
        <ele>203.4</ele>
        <time>2022-05-26T18:12:46Z</time>
      </trkpt>
      <trkpt lat="41.9369980" lon="2.6861790">
        <ele>203.2</ele>
        <time>2022-05-26T18:12:47Z</time>
      </trkpt>
      <trkpt lat="41.9369620" lon="2.6861800">
        <ele>202.8</ele>
        <time>2022-05-26T18:12:48Z</time>
      </trkpt>
      <trkpt lat="41.9369190" lon="2.6862140">
        <ele>202.4</ele>
        <time>2022-05-26T18:12:49Z</time>
      </trkpt>
      <trkpt lat="41.9368700" lon="2.6862550">
        <ele>202.0</ele>
        <time>2022-05-26T18:12:50Z</time>
      </trkpt>
      <trkpt lat="41.9368270" lon="2.6862900">
        <ele>201.4</ele>
        <time>2022-05-26T18:12:51Z</time>
      </trkpt>
      <trkpt lat="41.9367950" lon="2.6863260">
        <ele>201.0</ele>
        <time>2022-05-26T18:12:52Z</time>
      </trkpt>
      <trkpt lat="41.9367710" lon="2.6863670">
        <ele>200.6</ele>
        <time>2022-05-26T18:12:53Z</time>
      </trkpt>
      <trkpt lat="41.9367440" lon="2.6864160">
        <ele>200.2</ele>
        <time>2022-05-26T18:12:54Z</time>
      </trkpt>
      <trkpt lat="41.9367200" lon="2.6864710">
        <ele>199.8</ele>
        <time>2022-05-26T18:12:55Z</time>
      </trkpt>
      <trkpt lat="41.9367100" lon="2.6865280">
        <ele>199.4</ele>
        <time>2022-05-26T18:12:56Z</time>
      </trkpt>
      <trkpt lat="41.9367100" lon="2.6865890">
        <ele>199.2</ele>
        <time>2022-05-26T18:12:57Z</time>
      </trkpt>
      <trkpt lat="41.9367050" lon="2.6866430">
        <ele>198.8</ele>
        <time>2022-05-26T18:12:58Z</time>
      </trkpt>
      <trkpt lat="41.9367050" lon="2.6866870">
        <ele>198.4</ele>
        <time>2022-05-26T18:12:59Z</time>
      </trkpt>
      <trkpt lat="41.9367060" lon="2.6867310">
        <ele>198.0</ele>
        <time>2022-05-26T18:13:00Z</time>
      </trkpt>
      <trkpt lat="41.9367080" lon="2.6867710">
        <ele>197.6</ele>
        <time>2022-05-26T18:13:01Z</time>
      </trkpt>
      <trkpt lat="41.9367040" lon="2.6868010">
        <ele>197.2</ele>
        <time>2022-05-26T18:13:02Z</time>
      </trkpt>
      <trkpt lat="41.9366930" lon="2.6868210">
        <ele>196.8</ele>
        <time>2022-05-26T18:13:03Z</time>
      </trkpt>
      <trkpt lat="41.9366720" lon="2.6868330">
        <ele>196.6</ele>
        <time>2022-05-26T18:13:04Z</time>
      </trkpt>
      <trkpt lat="41.9366450" lon="2.6868410">
        <ele>196.2</ele>
        <time>2022-05-26T18:13:05Z</time>
      </trkpt>
      <trkpt lat="41.9366170" lon="2.6868530">
        <ele>195.6</ele>
        <time>2022-05-26T18:13:06Z</time>
      </trkpt>
      <trkpt lat="41.9365920" lon="2.6868720">
        <ele>195.2</ele>
        <time>2022-05-26T18:13:07Z</time>
      </trkpt>
      <trkpt lat="41.9365810" lon="2.6868950">
        <ele>194.8</ele>
        <time>2022-05-26T18:13:08Z</time>
      </trkpt>
      <trkpt lat="41.9365780" lon="2.6869250">
        <ele>194.2</ele>
        <time>2022-05-26T18:13:09Z</time>
      </trkpt>
      <trkpt lat="41.9365890" lon="2.6869630">
        <ele>193.8</ele>
        <time>2022-05-26T18:13:10Z</time>
      </trkpt>
      <trkpt lat="41.9366160" lon="2.6869980">
        <ele>193.4</ele>
        <time>2022-05-26T18:13:11Z</time>
      </trkpt>
      <trkpt lat="41.9366540" lon="2.6870180">
        <ele>193.2</ele>
        <time>2022-05-26T18:13:12Z</time>
      </trkpt>
      <trkpt lat="41.9366860" lon="2.6870230">
        <ele>192.8</ele>
        <time>2022-05-26T18:13:13Z</time>
      </trkpt>
      <trkpt lat="41.9367170" lon="2.6870290">
        <ele>192.6</ele>
        <time>2022-05-26T18:13:14Z</time>
      </trkpt>
      <trkpt lat="41.9367560" lon="2.6870380">
        <ele>192.6</ele>
        <time>2022-05-26T18:13:15Z</time>
      </trkpt>
      <trkpt lat="41.9368020" lon="2.6870460">
        <ele>192.6</ele>
        <time>2022-05-26T18:13:16Z</time>
      </trkpt>
      <trkpt lat="41.9368490" lon="2.6870560">
        <ele>192.6</ele>
        <time>2022-05-26T18:13:17Z</time>
      </trkpt>
      <trkpt lat="41.9368940" lon="2.6870800">
        <ele>192.4</ele>
        <time>2022-05-26T18:13:18Z</time>
      </trkpt>
      <trkpt lat="41.9369340" lon="2.6871120">
        <ele>192.4</ele>
        <time>2022-05-26T18:13:19Z</time>
      </trkpt>
      <trkpt lat="41.9369640" lon="2.6871400">
        <ele>192.4</ele>
        <time>2022-05-26T18:13:20Z</time>
      </trkpt>
      <trkpt lat="41.9369680" lon="2.6871610">
        <ele>192.4</ele>
        <time>2022-05-26T18:13:21Z</time>
      </trkpt>
      <trkpt lat="41.9369570" lon="2.6871740">
        <ele>192.6</ele>
        <time>2022-05-26T18:13:22Z</time>
      </trkpt>
      <trkpt lat="41.9369250" lon="2.6871900">
        <ele>192.8</ele>
        <time>2022-05-26T18:13:23Z</time>
      </trkpt>
      <trkpt lat="41.9368860" lon="2.6872160">
        <ele>192.8</ele>
        <time>2022-05-26T18:13:24Z</time>
      </trkpt>
      <trkpt lat="41.9368560" lon="2.6872370">
        <ele>193.2</ele>
        <time>2022-05-26T18:13:25Z</time>
      </trkpt>
      <trkpt lat="41.9368300" lon="2.6872330">
        <ele>193.2</ele>
        <time>2022-05-26T18:13:26Z</time>
      </trkpt>
      <trkpt lat="41.9368020" lon="2.6872200">
        <ele>193.4</ele>
        <time>2022-05-26T18:13:27Z</time>
      </trkpt>
      <trkpt lat="41.9367580" lon="2.6871960">
        <ele>193.4</ele>
        <time>2022-05-26T18:13:28Z</time>
      </trkpt>
      <trkpt lat="41.9367210" lon="2.6871990">
        <ele>193.4</ele>
        <time>2022-05-26T18:13:29Z</time>
      </trkpt>
      <trkpt lat="41.9367070" lon="2.6872140">
        <ele>193.6</ele>
        <time>2022-05-26T18:13:30Z</time>
      </trkpt>
      <trkpt lat="41.9367050" lon="2.6872450">
        <ele>194.0</ele>
        <time>2022-05-26T18:13:31Z</time>
      </trkpt>
      <trkpt lat="41.9367160" lon="2.6872900">
        <ele>194.2</ele>
        <time>2022-05-26T18:13:32Z</time>
      </trkpt>
      <trkpt lat="41.9367300" lon="2.6873300">
        <ele>194.6</ele>
        <time>2022-05-26T18:13:33Z</time>
      </trkpt>
      <trkpt lat="41.9367410" lon="2.6873700">
        <ele>194.8</ele>
        <time>2022-05-26T18:13:34Z</time>
      </trkpt>
      <trkpt lat="41.9367430" lon="2.6874110">
        <ele>195.2</ele>
        <time>2022-05-26T18:13:35Z</time>
      </trkpt>
      <trkpt lat="41.9367440" lon="2.6874410">
        <ele>195.6</ele>
        <time>2022-05-26T18:13:36Z</time>
      </trkpt>
      <trkpt lat="41.9367360" lon="2.6874770">
        <ele>195.8</ele>
        <time>2022-05-26T18:13:37Z</time>
      </trkpt>
      <trkpt lat="41.9367260" lon="2.6875290">
        <ele>196.2</ele>
        <time>2022-05-26T18:13:38Z</time>
      </trkpt>
      <trkpt lat="41.9367170" lon="2.6875880">
        <ele>196.6</ele>
        <time>2022-05-26T18:13:39Z</time>
      </trkpt>
      <trkpt lat="41.9367030" lon="2.6876520">
        <ele>196.8</ele>
        <time>2022-05-26T18:13:40Z</time>
      </trkpt>
      <trkpt lat="41.9366910" lon="2.6877180">
        <ele>197.0</ele>
        <time>2022-05-26T18:13:41Z</time>
      </trkpt>
      <trkpt lat="41.9366810" lon="2.6877720">
        <ele>197.4</ele>
        <time>2022-05-26T18:13:42Z</time>
      </trkpt>
      <trkpt lat="41.9366780" lon="2.6878220">
        <ele>197.6</ele>
        <time>2022-05-26T18:13:43Z</time>
      </trkpt>
      <trkpt lat="41.9366820" lon="2.6878730">
        <ele>197.8</ele>
        <time>2022-05-26T18:13:44Z</time>
      </trkpt>
      <trkpt lat="41.9366970" lon="2.6879300">
        <ele>198.0</ele>
        <time>2022-05-26T18:13:45Z</time>
      </trkpt>
      <trkpt lat="41.9367280" lon="2.6879760">
        <ele>198.4</ele>
        <time>2022-05-26T18:13:46Z</time>
      </trkpt>
      <trkpt lat="41.9367660" lon="2.6879890">
        <ele>198.6</ele>
        <time>2022-05-26T18:13:47Z</time>
      </trkpt>
      <trkpt lat="41.9368000" lon="2.6879900">
        <ele>199.0</ele>
        <time>2022-05-26T18:13:48Z</time>
      </trkpt>
      <trkpt lat="41.9368380" lon="2.6879940">
        <ele>199.2</ele>
        <time>2022-05-26T18:13:49Z</time>
      </trkpt>
      <trkpt lat="41.9368680" lon="2.6880060">
        <ele>199.8</ele>
        <time>2022-05-26T18:13:50Z</time>
      </trkpt>
      <trkpt lat="41.9369010" lon="2.6880330">
        <ele>200.4</ele>
        <time>2022-05-26T18:13:51Z</time>
      </trkpt>
      <trkpt lat="41.9369490" lon="2.6880750">
        <ele>200.8</ele>
        <time>2022-05-26T18:13:52Z</time>
      </trkpt>
      <trkpt lat="41.9370070" lon="2.6881280">
        <ele>201.4</ele>
        <time>2022-05-26T18:13:53Z</time>
      </trkpt>
      <trkpt lat="41.9370620" lon="2.6881830">
        <ele>201.8</ele>
        <time>2022-05-26T18:13:54Z</time>
      </trkpt>
      <trkpt lat="41.9371120" lon="2.6882380">
        <ele>202.0</ele>
        <time>2022-05-26T18:13:55Z</time>
      </trkpt>
      <trkpt lat="41.9371580" lon="2.6882730">
        <ele>202.4</ele>
        <time>2022-05-26T18:13:56Z</time>
      </trkpt>
      <trkpt lat="41.9371950" lon="2.6882870">
        <ele>202.8</ele>
        <time>2022-05-26T18:13:57Z</time>
      </trkpt>
      <trkpt lat="41.9372140" lon="2.6882880">
        <ele>203.0</ele>
        <time>2022-05-26T18:13:58Z</time>
      </trkpt>
      <trkpt lat="41.9372190" lon="2.6882790">
        <ele>203.2</ele>
        <time>2022-05-26T18:13:59Z</time>
      </trkpt>
      <trkpt lat="41.9372290" lon="2.6882590">
        <ele>203.4</ele>
        <time>2022-05-26T18:14:00Z</time>
      </trkpt>
      <trkpt lat="41.9372380" lon="2.6882420">
        <ele>203.6</ele>
        <time>2022-05-26T18:14:01Z</time>
      </trkpt>
      <trkpt lat="41.9372470" lon="2.6882240">
        <ele>203.8</ele>
        <time>2022-05-26T18:14:02Z</time>
      </trkpt>
      <trkpt lat="41.9372560" lon="2.6882060">
        <ele>203.8</ele>
        <time>2022-05-26T18:14:03Z</time>
      </trkpt>
      <trkpt lat="41.9372650" lon="2.6881890">
        <ele>203.8</ele>
        <time>2022-05-26T18:14:04Z</time>
      </trkpt>
      <trkpt lat="41.9372740" lon="2.6881710">
        <ele>203.8</ele>
        <time>2022-05-26T18:14:05Z</time>
      </trkpt>
      <trkpt lat="41.9372820" lon="2.6881540">
        <ele>203.8</ele>
        <time>2022-05-26T18:14:06Z</time>
      </trkpt>
      <trkpt lat="41.9372910" lon="2.6881360">
        <ele>203.8</ele>
        <time>2022-05-26T18:14:07Z</time>
      </trkpt>
      <trkpt lat="41.9373000" lon="2.6881190">
        <ele>203.8</ele>
        <time>2022-05-26T18:14:08Z</time>
      </trkpt>
      <trkpt lat="41.9373090" lon="2.6881010">
        <ele>203.8</ele>
        <time>2022-05-26T18:14:09Z</time>
      </trkpt>
      <trkpt lat="41.9373180" lon="2.6880840">
        <ele>203.8</ele>
        <time>2022-05-26T18:14:10Z</time>
      </trkpt>
      <trkpt lat="41.9373270" lon="2.6880660">
        <ele>204.0</ele>
        <time>2022-05-26T18:14:22Z</time>
      </trkpt>
      <trkpt lat="41.9373350" lon="2.6880490">
        <ele>204.2</ele>
        <time>2022-05-26T18:14:23Z</time>
      </trkpt>
      <trkpt lat="41.9373740" lon="2.6880100">
        <ele>204.4</ele>
        <time>2022-05-26T18:14:24Z</time>
      </trkpt>
      <trkpt lat="41.9374180" lon="2.6879660">
        <ele>204.4</ele>
        <time>2022-05-26T18:14:25Z</time>
      </trkpt>
      <trkpt lat="41.9374610" lon="2.6879230">
        <ele>204.4</ele>
        <time>2022-05-26T18:14:26Z</time>
      </trkpt>
      <trkpt lat="41.9374980" lon="2.6878870">
        <ele>204.4</ele>
        <time>2022-05-26T18:14:27Z</time>
      </trkpt>
      <trkpt lat="41.9375300" lon="2.6878600">
        <ele>204.4</ele>
        <time>2022-05-26T18:14:28Z</time>
      </trkpt>
      <trkpt lat="41.9375570" lon="2.6878510">
        <ele>204.2</ele>
        <time>2022-05-26T18:14:29Z</time>
      </trkpt>
      <trkpt lat="41.9375840" lon="2.6878450">
        <ele>204.2</ele>
        <time>2022-05-26T18:14:30Z</time>
      </trkpt>
      <trkpt lat="41.9376170" lon="2.6878330">
        <ele>204.2</ele>
        <time>2022-05-26T18:14:31Z</time>
      </trkpt>
      <trkpt lat="41.9376480" lon="2.6878090">
        <ele>204.0</ele>
        <time>2022-05-26T18:14:32Z</time>
      </trkpt>
      <trkpt lat="41.9376690" lon="2.6877710">
        <ele>204.2</ele>
        <time>2022-05-26T18:14:33Z</time>
      </trkpt>
      <trkpt lat="41.9376890" lon="2.6877220">
        <ele>204.2</ele>
        <time>2022-05-26T18:14:34Z</time>
      </trkpt>
      <trkpt lat="41.9377220" lon="2.6876750">
        <ele>204.2</ele>
        <time>2022-05-26T18:14:35Z</time>
      </trkpt>
      <trkpt lat="41.9377590" lon="2.6876310">
        <ele>204.4</ele>
        <time>2022-05-26T18:14:36Z</time>
      </trkpt>
      <trkpt lat="41.9377940" lon="2.6876080">
        <ele>204.4</ele>
        <time>2022-05-26T18:14:37Z</time>
      </trkpt>
      <trkpt lat="41.9378240" lon="2.6875960">
        <ele>204.6</ele>
        <time>2022-05-26T18:14:38Z</time>
      </trkpt>
      <trkpt lat="41.9378460" lon="2.6875960">
        <ele>204.8</ele>
        <time>2022-05-26T18:14:39Z</time>
      </trkpt>
      <trkpt lat="41.9378630" lon="2.6876060">
        <ele>204.8</ele>
        <time>2022-05-26T18:14:40Z</time>
      </trkpt>
      <trkpt lat="41.9378790" lon="2.6876230">
        <ele>205.2</ele>
        <time>2022-05-26T18:14:41Z</time>
      </trkpt>
      <trkpt lat="41.9378950" lon="2.6876370">
        <ele>205.4</ele>
        <time>2022-05-26T18:14:42Z</time>
      </trkpt>
      <trkpt lat="41.9379200" lon="2.6876470">
        <ele>205.6</ele>
        <time>2022-05-26T18:14:43Z</time>
      </trkpt>
      <trkpt lat="41.9379520" lon="2.6876600">
        <ele>206.0</ele>
        <time>2022-05-26T18:14:44Z</time>
      </trkpt>
      <trkpt lat="41.9379820" lon="2.6876750">
        <ele>206.2</ele>
        <time>2022-05-26T18:14:45Z</time>
      </trkpt>
      <trkpt lat="41.9380120" lon="2.6876960">
        <ele>206.6</ele>
        <time>2022-05-26T18:14:46Z</time>
      </trkpt>
      <trkpt lat="41.9380450" lon="2.6877250">
        <ele>207.0</ele>
        <time>2022-05-26T18:14:47Z</time>
      </trkpt>
      <trkpt lat="41.9380790" lon="2.6877620">
        <ele>207.6</ele>
        <time>2022-05-26T18:14:48Z</time>
      </trkpt>
      <trkpt lat="41.9381120" lon="2.6878180">
        <ele>208.0</ele>
        <time>2022-05-26T18:14:49Z</time>
      </trkpt>
      <trkpt lat="41.9381440" lon="2.6878930">
        <ele>208.4</ele>
        <time>2022-05-26T18:14:50Z</time>
      </trkpt>
      <trkpt lat="41.9381740" lon="2.6879640">
        <ele>209.0</ele>
        <time>2022-05-26T18:14:51Z</time>
      </trkpt>
      <trkpt lat="41.9382010" lon="2.6880140">
        <ele>209.4</ele>
        <time>2022-05-26T18:14:52Z</time>
      </trkpt>
      <trkpt lat="41.9382380" lon="2.6880430">
        <ele>210.0</ele>
        <time>2022-05-26T18:14:53Z</time>
      </trkpt>
      <trkpt lat="41.9382850" lon="2.6880460">
        <ele>210.2</ele>
        <time>2022-05-26T18:14:54Z</time>
      </trkpt>
      <trkpt lat="41.9383290" lon="2.6880330">
        <ele>210.6</ele>
        <time>2022-05-26T18:14:55Z</time>
      </trkpt>
      <trkpt lat="41.9383620" lon="2.6880110">
        <ele>211.0</ele>
        <time>2022-05-26T18:14:56Z</time>
      </trkpt>
      <trkpt lat="41.9383850" lon="2.6880110">
        <ele>211.2</ele>
        <time>2022-05-26T18:14:57Z</time>
      </trkpt>
      <trkpt lat="41.9384100" lon="2.6880190">
        <ele>211.6</ele>
        <time>2022-05-26T18:14:58Z</time>
      </trkpt>
      <trkpt lat="41.9384370" lon="2.6880350">
        <ele>212.0</ele>
        <time>2022-05-26T18:14:59Z</time>
      </trkpt>
      <trkpt lat="41.9384690" lon="2.6880540">
        <ele>212.4</ele>
        <time>2022-05-26T18:15:00Z</time>
      </trkpt>
      <trkpt lat="41.9385090" lon="2.6880520">
        <ele>212.8</ele>
        <time>2022-05-26T18:15:01Z</time>
      </trkpt>
      <trkpt lat="41.9385520" lon="2.6880450">
        <ele>213.2</ele>
        <time>2022-05-26T18:15:02Z</time>
      </trkpt>
      <trkpt lat="41.9385850" lon="2.6880300">
        <ele>213.4</ele>
        <time>2022-05-26T18:15:03Z</time>
      </trkpt>
      <trkpt lat="41.9386110" lon="2.6880160">
        <ele>214.0</ele>
        <time>2022-05-26T18:15:04Z</time>
      </trkpt>
      <trkpt lat="41.9386380" lon="2.6880000">
        <ele>214.2</ele>
        <time>2022-05-26T18:15:05Z</time>
      </trkpt>
      <trkpt lat="41.9386720" lon="2.6879840">
        <ele>214.6</ele>
        <time>2022-05-26T18:15:06Z</time>
      </trkpt>
      <trkpt lat="41.9387160" lon="2.6879710">
        <ele>215.2</ele>
        <time>2022-05-26T18:15:07Z</time>
      </trkpt>
      <trkpt lat="41.9387650" lon="2.6879670">
        <ele>215.8</ele>
        <time>2022-05-26T18:15:08Z</time>
      </trkpt>
      <trkpt lat="41.9388150" lon="2.6879640">
        <ele>216.4</ele>
        <time>2022-05-26T18:15:09Z</time>
      </trkpt>
      <trkpt lat="41.9388590" lon="2.6879590">
        <ele>217.0</ele>
        <time>2022-05-26T18:15:10Z</time>
      </trkpt>
      <trkpt lat="41.9389110" lon="2.6879520">
        <ele>217.4</ele>
        <time>2022-05-26T18:15:11Z</time>
      </trkpt>
      <trkpt lat="41.9389580" lon="2.6879390">
        <ele>218.0</ele>
        <time>2022-05-26T18:15:12Z</time>
      </trkpt>
      <trkpt lat="41.9389880" lon="2.6879240">
        <ele>218.6</ele>
        <time>2022-05-26T18:15:13Z</time>
      </trkpt>
      <trkpt lat="41.9390210" lon="2.6879160">
        <ele>219.2</ele>
        <time>2022-05-26T18:15:14Z</time>
      </trkpt>
      <trkpt lat="41.9390660" lon="2.6879100">
        <ele>219.8</ele>
        <time>2022-05-26T18:15:15Z</time>
      </trkpt>
      <trkpt lat="41.9391200" lon="2.6878970">
        <ele>220.6</ele>
        <time>2022-05-26T18:15:16Z</time>
      </trkpt>
      <trkpt lat="41.9391870" lon="2.6878790">
        <ele>221.6</ele>
        <time>2022-05-26T18:15:17Z</time>
      </trkpt>
      <trkpt lat="41.9392500" lon="2.6878520">
        <ele>222.2</ele>
        <time>2022-05-26T18:15:18Z</time>
      </trkpt>
      <trkpt lat="41.9393030" lon="2.6878190">
        <ele>223.0</ele>
        <time>2022-05-26T18:15:19Z</time>
      </trkpt>
      <trkpt lat="41.9393680" lon="2.6877890">
        <ele>224.0</ele>
        <time>2022-05-26T18:15:20Z</time>
      </trkpt>
      <trkpt lat="41.9394360" lon="2.6877720">
        <ele>224.8</ele>
        <time>2022-05-26T18:15:21Z</time>
      </trkpt>
      <trkpt lat="41.9395020" lon="2.6877620">
        <ele>225.8</ele>
        <time>2022-05-26T18:15:22Z</time>
      </trkpt>
      <trkpt lat="41.9395730" lon="2.6877460">
        <ele>226.8</ele>
        <time>2022-05-26T18:15:23Z</time>
      </trkpt>
      <trkpt lat="41.9396490" lon="2.6877250">
        <ele>227.6</ele>
        <time>2022-05-26T18:15:24Z</time>
      </trkpt>
      <trkpt lat="41.9397270" lon="2.6876990">
        <ele>228.2</ele>
        <time>2022-05-26T18:15:25Z</time>
      </trkpt>
      <trkpt lat="41.9398060" lon="2.6876660">
        <ele>229.6</ele>
        <time>2022-05-26T18:15:26Z</time>
      </trkpt>
      <trkpt lat="41.9398830" lon="2.6876210">
        <ele>230.2</ele>
        <time>2022-05-26T18:15:27Z</time>
      </trkpt>
      <trkpt lat="41.9399430" lon="2.6875730">
        <ele>231.2</ele>
        <time>2022-05-26T18:15:28Z</time>
      </trkpt>
      <trkpt lat="41.9400010" lon="2.6875220">
        <ele>232.0</ele>
        <time>2022-05-26T18:15:29Z</time>
      </trkpt>
      <trkpt lat="41.9400630" lon="2.6874780">
        <ele>232.6</ele>
        <time>2022-05-26T18:15:30Z</time>
      </trkpt>
      <trkpt lat="41.9401220" lon="2.6874450">
        <ele>233.2</ele>
        <time>2022-05-26T18:15:31Z</time>
      </trkpt>
      <trkpt lat="41.9401740" lon="2.6874360">
        <ele>233.8</ele>
        <time>2022-05-26T18:15:32Z</time>
      </trkpt>
      <trkpt lat="41.9402180" lon="2.6874430">
        <ele>234.4</ele>
        <time>2022-05-26T18:15:33Z</time>
      </trkpt>
      <trkpt lat="41.9402620" lon="2.6874730">
        <ele>235.0</ele>
        <time>2022-05-26T18:15:34Z</time>
      </trkpt>
      <trkpt lat="41.9403040" lon="2.6875090">
        <ele>235.6</ele>
        <time>2022-05-26T18:15:35Z</time>
      </trkpt>
      <trkpt lat="41.9403450" lon="2.6875500">
        <ele>236.2</ele>
        <time>2022-05-26T18:15:36Z</time>
      </trkpt>
      <trkpt lat="41.9403720" lon="2.6875880">
        <ele>236.8</ele>
        <time>2022-05-26T18:15:37Z</time>
      </trkpt>
      <trkpt lat="41.9403800" lon="2.6876330">
        <ele>237.4</ele>
        <time>2022-05-26T18:15:38Z</time>
      </trkpt>
      <trkpt lat="41.9403790" lon="2.6876880">
        <ele>237.8</ele>
        <time>2022-05-26T18:15:39Z</time>
      </trkpt>
      <trkpt lat="41.9403660" lon="2.6877580">
        <ele>238.4</ele>
        <time>2022-05-26T18:15:40Z</time>
      </trkpt>
      <trkpt lat="41.9403590" lon="2.6878450">
        <ele>239.0</ele>
        <time>2022-05-26T18:15:41Z</time>
      </trkpt>
      <trkpt lat="41.9403550" lon="2.6879470">
        <ele>239.4</ele>
        <time>2022-05-26T18:15:42Z</time>
      </trkpt>
      <trkpt lat="41.9403440" lon="2.6880570">
        <ele>239.8</ele>
        <time>2022-05-26T18:15:43Z</time>
      </trkpt>
      <trkpt lat="41.9403310" lon="2.6881600">
        <ele>239.8</ele>
        <time>2022-05-26T18:15:44Z</time>
      </trkpt>
      <trkpt lat="41.9403100" lon="2.6882430">
        <ele>240.0</ele>
        <time>2022-05-26T18:15:45Z</time>
      </trkpt>
      <trkpt lat="41.9402850" lon="2.6882990">
        <ele>240.2</ele>
        <time>2022-05-26T18:15:46Z</time>
      </trkpt>
      <trkpt lat="41.9402570" lon="2.6883260">
        <ele>240.2</ele>
        <time>2022-05-26T18:15:47Z</time>
      </trkpt>
      <trkpt lat="41.9402250" lon="2.6883390">
        <ele>240.4</ele>
        <time>2022-05-26T18:15:48Z</time>
      </trkpt>
      <trkpt lat="41.9401880" lon="2.6883650">
        <ele>240.4</ele>
        <time>2022-05-26T18:15:49Z</time>
      </trkpt>
      <trkpt lat="41.9401490" lon="2.6884270">
        <ele>240.4</ele>
        <time>2022-05-26T18:15:50Z</time>
      </trkpt>
      <trkpt lat="41.9401160" lon="2.6885000">
        <ele>240.4</ele>
        <time>2022-05-26T18:15:51Z</time>
      </trkpt>
      <trkpt lat="41.9400870" lon="2.6885740">
        <ele>240.2</ele>
        <time>2022-05-26T18:15:52Z</time>
      </trkpt>
      <trkpt lat="41.9400710" lon="2.6886420">
        <ele>240.2</ele>
        <time>2022-05-26T18:15:53Z</time>
      </trkpt>
      <trkpt lat="41.9400680" lon="2.6887050">
        <ele>240.4</ele>
        <time>2022-05-26T18:15:54Z</time>
      </trkpt>
      <trkpt lat="41.9400760" lon="2.6887780">
        <ele>240.2</ele>
        <time>2022-05-26T18:15:55Z</time>
      </trkpt>
      <trkpt lat="41.9400900" lon="2.6888610">
        <ele>239.8</ele>
        <time>2022-05-26T18:15:56Z</time>
      </trkpt>
      <trkpt lat="41.9400970" lon="2.6889330">
        <ele>239.4</ele>
        <time>2022-05-26T18:15:57Z</time>
      </trkpt>
      <trkpt lat="41.9400970" lon="2.6889870">
        <ele>239.2</ele>
        <time>2022-05-26T18:15:58Z</time>
      </trkpt>
      <trkpt lat="41.9400880" lon="2.6890350">
        <ele>238.8</ele>
        <time>2022-05-26T18:15:59Z</time>
      </trkpt>
      <trkpt lat="41.9400710" lon="2.6890810">
        <ele>238.2</ele>
        <time>2022-05-26T18:16:00Z</time>
      </trkpt>
      <trkpt lat="41.9400480" lon="2.6891300">
        <ele>237.8</ele>
        <time>2022-05-26T18:16:01Z</time>
      </trkpt>
      <trkpt lat="41.9400230" lon="2.6891650">
        <ele>237.2</ele>
        <time>2022-05-26T18:16:02Z</time>
      </trkpt>
      <trkpt lat="41.9399970" lon="2.6891960">
        <ele>236.6</ele>
        <time>2022-05-26T18:16:03Z</time>
      </trkpt>
      <trkpt lat="41.9399670" lon="2.6892320">
        <ele>236.0</ele>
        <time>2022-05-26T18:16:04Z</time>
      </trkpt>
      <trkpt lat="41.9399370" lon="2.6892730">
        <ele>235.4</ele>
        <time>2022-05-26T18:16:05Z</time>
      </trkpt>
      <trkpt lat="41.9399120" lon="2.6893180">
        <ele>234.8</ele>
        <time>2022-05-26T18:16:06Z</time>
      </trkpt>
      <trkpt lat="41.9399010" lon="2.6893650">
        <ele>234.0</ele>
        <time>2022-05-26T18:16:07Z</time>
      </trkpt>
      <trkpt lat="41.9398980" lon="2.6894030">
        <ele>233.4</ele>
        <time>2022-05-26T18:16:08Z</time>
      </trkpt>
      <trkpt lat="41.9398910" lon="2.6894350">
        <ele>232.8</ele>
        <time>2022-05-26T18:16:09Z</time>
      </trkpt>
      <trkpt lat="41.9398720" lon="2.6894790">
        <ele>232.2</ele>
        <time>2022-05-26T18:16:10Z</time>
      </trkpt>
      <trkpt lat="41.9398490" lon="2.6895310">
        <ele>231.6</ele>
        <time>2022-05-26T18:16:11Z</time>
      </trkpt>
      <trkpt lat="41.9398360" lon="2.6895760">
        <ele>230.8</ele>
        <time>2022-05-26T18:16:12Z</time>
      </trkpt>
      <trkpt lat="41.9398300" lon="2.6896030">
        <ele>230.4</ele>
        <time>2022-05-26T18:16:13Z</time>
      </trkpt>
      <trkpt lat="41.9398250" lon="2.6896250">
        <ele>229.8</ele>
        <time>2022-05-26T18:16:14Z</time>
      </trkpt>
      <trkpt lat="41.9398170" lon="2.6896590">
        <ele>229.4</ele>
        <time>2022-05-26T18:16:15Z</time>
      </trkpt>
      <trkpt lat="41.9398010" lon="2.6897100">
        <ele>228.8</ele>
        <time>2022-05-26T18:16:16Z</time>
      </trkpt>
      <trkpt lat="41.9397820" lon="2.6897560">
        <ele>228.2</ele>
        <time>2022-05-26T18:16:17Z</time>
      </trkpt>
      <trkpt lat="41.9397610" lon="2.6897860">
        <ele>227.8</ele>
        <time>2022-05-26T18:16:18Z</time>
      </trkpt>
      <trkpt lat="41.9397350" lon="2.6898100">
        <ele>227.2</ele>
        <time>2022-05-26T18:16:19Z</time>
      </trkpt>
      <trkpt lat="41.9397110" lon="2.6898290">
        <ele>226.8</ele>
        <time>2022-05-26T18:16:20Z</time>
      </trkpt>
      <trkpt lat="41.9396900" lon="2.6898460">
        <ele>226.4</ele>
        <time>2022-05-26T18:16:21Z</time>
      </trkpt>
      <trkpt lat="41.9396690" lon="2.6898680">
        <ele>226.0</ele>
        <time>2022-05-26T18:16:22Z</time>
      </trkpt>
      <trkpt lat="41.9396480" lon="2.6898920">
        <ele>225.4</ele>
        <time>2022-05-26T18:16:23Z</time>
      </trkpt>
      <trkpt lat="41.9396220" lon="2.6899150">
        <ele>225.0</ele>
        <time>2022-05-26T18:16:24Z</time>
      </trkpt>
      <trkpt lat="41.9395910" lon="2.6899380">
        <ele>224.8</ele>
        <time>2022-05-26T18:16:25Z</time>
      </trkpt>
      <trkpt lat="41.9395540" lon="2.6899630">
        <ele>224.4</ele>
        <time>2022-05-26T18:16:26Z</time>
      </trkpt>
      <trkpt lat="41.9395150" lon="2.6899780">
        <ele>224.2</ele>
        <time>2022-05-26T18:16:27Z</time>
      </trkpt>
      <trkpt lat="41.9394850" lon="2.6899810">
        <ele>224.2</ele>
        <time>2022-05-26T18:16:28Z</time>
      </trkpt>
      <trkpt lat="41.9394630" lon="2.6899580">
        <ele>224.4</ele>
        <time>2022-05-26T18:16:29Z</time>
      </trkpt>
      <trkpt lat="41.9394350" lon="2.6899180">
        <ele>224.6</ele>
        <time>2022-05-26T18:16:30Z</time>
      </trkpt>
      <trkpt lat="41.9393940" lon="2.6898700">
        <ele>224.8</ele>
        <time>2022-05-26T18:16:31Z</time>
      </trkpt>
      <trkpt lat="41.9393390" lon="2.6898220">
        <ele>224.8</ele>
        <time>2022-05-26T18:16:32Z</time>
      </trkpt>
      <trkpt lat="41.9392740" lon="2.6897660">
        <ele>224.8</ele>
        <time>2022-05-26T18:16:33Z</time>
      </trkpt>
      <trkpt lat="41.9392250" lon="2.6897080">
        <ele>224.8</ele>
        <time>2022-05-26T18:16:34Z</time>
      </trkpt>
      <trkpt lat="41.9391880" lon="2.6896430">
        <ele>224.8</ele>
        <time>2022-05-26T18:16:35Z</time>
      </trkpt>
      <trkpt lat="41.9391540" lon="2.6895780">
        <ele>224.8</ele>
        <time>2022-05-26T18:16:36Z</time>
      </trkpt>
      <trkpt lat="41.9391230" lon="2.6895340">
        <ele>224.8</ele>
        <time>2022-05-26T18:16:37Z</time>
      </trkpt>
      <trkpt lat="41.9390980" lon="2.6894990">
        <ele>224.8</ele>
        <time>2022-05-26T18:16:38Z</time>
      </trkpt>
      <trkpt lat="41.9390880" lon="2.6894580">
        <ele>224.8</ele>
        <time>2022-05-26T18:16:39Z</time>
      </trkpt>
      <trkpt lat="41.9390830" lon="2.6893960">
        <ele>224.6</ele>
        <time>2022-05-26T18:16:40Z</time>
      </trkpt>
      <trkpt lat="41.9390770" lon="2.6893190">
        <ele>224.4</ele>
        <time>2022-05-26T18:16:41Z</time>
      </trkpt>
      <trkpt lat="41.9390630" lon="2.6892210">
        <ele>224.2</ele>
        <time>2022-05-26T18:16:42Z</time>
      </trkpt>
      <trkpt lat="41.9390390" lon="2.6891230">
        <ele>223.8</ele>
        <time>2022-05-26T18:16:43Z</time>
      </trkpt>
      <trkpt lat="41.9390080" lon="2.6890410">
        <ele>223.4</ele>
        <time>2022-05-26T18:16:44Z</time>
      </trkpt>
      <trkpt lat="41.9389690" lon="2.6889730">
        <ele>222.8</ele>
        <time>2022-05-26T18:16:45Z</time>
      </trkpt>
      <trkpt lat="41.9389290" lon="2.6888990">
        <ele>222.0</ele>
        <time>2022-05-26T18:16:46Z</time>
      </trkpt>
      <trkpt lat="41.9388930" lon="2.6888350">
        <ele>221.4</ele>
        <time>2022-05-26T18:16:47Z</time>
      </trkpt>
      <trkpt lat="41.9388620" lon="2.6887870">
        <ele>220.6</ele>
        <time>2022-05-26T18:16:48Z</time>
      </trkpt>
      <trkpt lat="41.9388350" lon="2.6887600">
        <ele>219.8</ele>
        <time>2022-05-26T18:16:49Z</time>
      </trkpt>
      <trkpt lat="41.9388040" lon="2.6887420">
        <ele>219.2</ele>
        <time>2022-05-26T18:16:50Z</time>
      </trkpt>
      <trkpt lat="41.9387700" lon="2.6887380">
        <ele>218.6</ele>
        <time>2022-05-26T18:16:51Z</time>
      </trkpt>
      <trkpt lat="41.9387380" lon="2.6887510">
        <ele>218.0</ele>
        <time>2022-05-26T18:16:52Z</time>
      </trkpt>
      <trkpt lat="41.9387120" lon="2.6887830">
        <ele>217.6</ele>
        <time>2022-05-26T18:16:53Z</time>
      </trkpt>
      <trkpt lat="41.9386790" lon="2.6888230">
        <ele>217.2</ele>
        <time>2022-05-26T18:16:54Z</time>
      </trkpt>
      <trkpt lat="41.9386410" lon="2.6888370">
        <ele>216.6</ele>
        <time>2022-05-26T18:16:55Z</time>
      </trkpt>
      <trkpt lat="41.9386020" lon="2.6888430">
        <ele>216.0</ele>
        <time>2022-05-26T18:16:56Z</time>
      </trkpt>
      <trkpt lat="41.9385630" lon="2.6888450">
        <ele>215.6</ele>
        <time>2022-05-26T18:16:57Z</time>
      </trkpt>
      <trkpt lat="41.9385230" lon="2.6888530">
        <ele>215.0</ele>
        <time>2022-05-26T18:16:58Z</time>
      </trkpt>
      <trkpt lat="41.9384860" lon="2.6888730">
        <ele>214.6</ele>
        <time>2022-05-26T18:16:59Z</time>
      </trkpt>
      <trkpt lat="41.9384430" lon="2.6889010">
        <ele>214.2</ele>
        <time>2022-05-26T18:17:00Z</time>
      </trkpt>
      <trkpt lat="41.9383860" lon="2.6889310">
        <ele>213.8</ele>
        <time>2022-05-26T18:17:01Z</time>
      </trkpt>
      <trkpt lat="41.9383360" lon="2.6889330">
        <ele>213.2</ele>
        <time>2022-05-26T18:17:02Z</time>
      </trkpt>
      <trkpt lat="41.9382930" lon="2.6889260">
        <ele>212.6</ele>
        <time>2022-05-26T18:17:03Z</time>
      </trkpt>
      <trkpt lat="41.9382570" lon="2.6888960">
        <ele>212.0</ele>
        <time>2022-05-26T18:17:04Z</time>
      </trkpt>
      <trkpt lat="41.9382330" lon="2.6888500">
        <ele>211.6</ele>
        <time>2022-05-26T18:17:05Z</time>
      </trkpt>
      <trkpt lat="41.9382200" lon="2.6887850">
        <ele>211.2</ele>
        <time>2022-05-26T18:17:06Z</time>
      </trkpt>
      <trkpt lat="41.9382130" lon="2.6887270">
        <ele>211.2</ele>
        <time>2022-05-26T18:17:07Z</time>
      </trkpt>
      <trkpt lat="41.9382010" lon="2.6886710">
        <ele>211.0</ele>
        <time>2022-05-26T18:17:08Z</time>
      </trkpt>
      <trkpt lat="41.9381720" lon="2.6886400">
        <ele>210.8</ele>
        <time>2022-05-26T18:17:09Z</time>
      </trkpt>
      <trkpt lat="41.9381220" lon="2.6886340">
        <ele>210.6</ele>
        <time>2022-05-26T18:17:10Z</time>
      </trkpt>
      <trkpt lat="41.9380650" lon="2.6886470">
        <ele>210.4</ele>
        <time>2022-05-26T18:17:11Z</time>
      </trkpt>
      <trkpt lat="41.9380200" lon="2.6886840">
        <ele>210.0</ele>
        <time>2022-05-26T18:17:12Z</time>
      </trkpt>
      <trkpt lat="41.9379820" lon="2.6887280">
        <ele>209.6</ele>
        <time>2022-05-26T18:17:13Z</time>
      </trkpt>
      <trkpt lat="41.9379490" lon="2.6887720">
        <ele>209.2</ele>
        <time>2022-05-26T18:17:14Z</time>
      </trkpt>
      <trkpt lat="41.9379290" lon="2.6888050">
        <ele>208.8</ele>
        <time>2022-05-26T18:17:15Z</time>
      </trkpt>
      <trkpt lat="41.9379090" lon="2.6888350">
        <ele>208.4</ele>
        <time>2022-05-26T18:17:16Z</time>
      </trkpt>
      <trkpt lat="41.9378870" lon="2.6888560">
        <ele>208.2</ele>
        <time>2022-05-26T18:17:17Z</time>
      </trkpt>
      <trkpt lat="41.9378570" lon="2.6888830">
        <ele>207.8</ele>
        <time>2022-05-26T18:17:18Z</time>
      </trkpt>
      <trkpt lat="41.9378180" lon="2.6889200">
        <ele>207.4</ele>
        <time>2022-05-26T18:17:19Z</time>
      </trkpt>
      <trkpt lat="41.9377720" lon="2.6889570">
        <ele>206.8</ele>
        <time>2022-05-26T18:17:20Z</time>
      </trkpt>
      <trkpt lat="41.9377210" lon="2.6889880">
        <ele>206.4</ele>
        <time>2022-05-26T18:17:21Z</time>
      </trkpt>
      <trkpt lat="41.9376740" lon="2.6890090">
        <ele>206.0</ele>
        <time>2022-05-26T18:17:22Z</time>
      </trkpt>
      <trkpt lat="41.9376290" lon="2.6890170">
        <ele>205.8</ele>
        <time>2022-05-26T18:17:23Z</time>
      </trkpt>
      <trkpt lat="41.9375940" lon="2.6890100">
        <ele>205.6</ele>
        <time>2022-05-26T18:17:24Z</time>
      </trkpt>
      <trkpt lat="41.9375590" lon="2.6889730">
        <ele>205.4</ele>
        <time>2022-05-26T18:17:25Z</time>
      </trkpt>
      <trkpt lat="41.9375220" lon="2.6889220">
        <ele>205.6</ele>
        <time>2022-05-26T18:17:26Z</time>
      </trkpt>
      <trkpt lat="41.9374710" lon="2.6888610">
        <ele>205.6</ele>
        <time>2022-05-26T18:17:27Z</time>
      </trkpt>
      <trkpt lat="41.9374090" lon="2.6887970">
        <ele>205.6</ele>
        <time>2022-05-26T18:17:28Z</time>
      </trkpt>
      <trkpt lat="41.9373520" lon="2.6887380">
        <ele>205.4</ele>
        <time>2022-05-26T18:17:29Z</time>
      </trkpt>
      <trkpt lat="41.9373100" lon="2.6887280">
        <ele>205.4</ele>
        <time>2022-05-26T18:17:30Z</time>
      </trkpt>
      <trkpt lat="41.9372770" lon="2.6887330">
        <ele>205.4</ele>
        <time>2022-05-26T18:17:31Z</time>
      </trkpt>
      <trkpt lat="41.9372480" lon="2.6887600">
        <ele>205.4</ele>
        <time>2022-05-26T18:17:32Z</time>
      </trkpt>
      <trkpt lat="41.9372250" lon="2.6888000">
        <ele>205.2</ele>
        <time>2022-05-26T18:17:33Z</time>
      </trkpt>
      <trkpt lat="41.9372090" lon="2.6888490">
        <ele>205.2</ele>
        <time>2022-05-26T18:17:34Z</time>
      </trkpt>
      <trkpt lat="41.9371940" lon="2.6888820">
        <ele>205.0</ele>
        <time>2022-05-26T18:17:35Z</time>
      </trkpt>
      <trkpt lat="41.9371690" lon="2.6889160">
        <ele>204.8</ele>
        <time>2022-05-26T18:17:36Z</time>
      </trkpt>
      <trkpt lat="41.9371690" lon="2.6889160">
        <ele>204.6</ele>
        <time>2022-05-26T18:17:37Z</time>
      </trkpt>
      <trkpt lat="41.9370980" lon="2.6889790">
        <ele>204.4</ele>
        <time>2022-05-26T18:17:38Z</time>
      </trkpt>
      <trkpt lat="41.9370830" lon="2.6890160">
        <ele>204.2</ele>
        <time>2022-05-26T18:17:39Z</time>
      </trkpt>
      <trkpt lat="41.9370790" lon="2.6890450">
        <ele>204.0</ele>
        <time>2022-05-26T18:17:40Z</time>
      </trkpt>
      <trkpt lat="41.9370900" lon="2.6890720">
        <ele>203.8</ele>
        <time>2022-05-26T18:17:41Z</time>
      </trkpt>
      <trkpt lat="41.9371010" lon="2.6890980">
        <ele>203.6</ele>
        <time>2022-05-26T18:17:42Z</time>
      </trkpt>
      <trkpt lat="41.9371100" lon="2.6891230">
        <ele>203.4</ele>
        <time>2022-05-26T18:17:43Z</time>
      </trkpt>
      <trkpt lat="41.9371140" lon="2.6891540">
        <ele>203.2</ele>
        <time>2022-05-26T18:17:44Z</time>
      </trkpt>
      <trkpt lat="41.9371150" lon="2.6891850">
        <ele>203.0</ele>
        <time>2022-05-26T18:17:45Z</time>
      </trkpt>
      <trkpt lat="41.9371090" lon="2.6892070">
        <ele>202.8</ele>
        <time>2022-05-26T18:17:46Z</time>
      </trkpt>
      <trkpt lat="41.9370900" lon="2.6892190">
        <ele>202.6</ele>
        <time>2022-05-26T18:17:47Z</time>
      </trkpt>
      <trkpt lat="41.9370680" lon="2.6892240">
        <ele>202.6</ele>
        <time>2022-05-26T18:17:48Z</time>
      </trkpt>
      <trkpt lat="41.9370450" lon="2.6892240">
        <ele>202.8</ele>
        <time>2022-05-26T18:17:49Z</time>
      </trkpt>
      <trkpt lat="41.9370120" lon="2.6892290">
        <ele>202.8</ele>
        <time>2022-05-26T18:17:50Z</time>
      </trkpt>
      <trkpt lat="41.9369810" lon="2.6892510">
        <ele>202.8</ele>
        <time>2022-05-26T18:17:51Z</time>
      </trkpt>
      <trkpt lat="41.9369570" lon="2.6892890">
        <ele>202.6</ele>
        <time>2022-05-26T18:17:52Z</time>
      </trkpt>
      <trkpt lat="41.9369390" lon="2.6893370">
        <ele>202.6</ele>
        <time>2022-05-26T18:17:53Z</time>
      </trkpt>
      <trkpt lat="41.9369240" lon="2.6893760">
        <ele>202.6</ele>
        <time>2022-05-26T18:17:54Z</time>
      </trkpt>
      <trkpt lat="41.9369080" lon="2.6893820">
        <ele>202.6</ele>
        <time>2022-05-26T18:17:55Z</time>
      </trkpt>
      <trkpt lat="41.9368890" lon="2.6893760">
        <ele>202.6</ele>
        <time>2022-05-26T18:17:56Z</time>
      </trkpt>
      <trkpt lat="41.9368710" lon="2.6893470">
        <ele>202.6</ele>
        <time>2022-05-26T18:17:57Z</time>
      </trkpt>
      <trkpt lat="41.9368560" lon="2.6893160">
        <ele>202.8</ele>
        <time>2022-05-26T18:17:58Z</time>
      </trkpt>
      <trkpt lat="41.9368330" lon="2.6892890">
        <ele>202.8</ele>
        <time>2022-05-26T18:17:59Z</time>
      </trkpt>
      <trkpt lat="41.9367980" lon="2.6892700">
        <ele>202.8</ele>
        <time>2022-05-26T18:18:00Z</time>
      </trkpt>
      <trkpt lat="41.9367530" lon="2.6892590">
        <ele>203.0</ele>
        <time>2022-05-26T18:18:01Z</time>
      </trkpt>
      <trkpt lat="41.9367080" lon="2.6892610">
        <ele>203.2</ele>
        <time>2022-05-26T18:18:02Z</time>
      </trkpt>
      <trkpt lat="41.9366650" lon="2.6892770">
        <ele>203.4</ele>
        <time>2022-05-26T18:18:03Z</time>
      </trkpt>
      <trkpt lat="41.9366120" lon="2.6892950">
        <ele>203.8</ele>
        <time>2022-05-26T18:18:04Z</time>
      </trkpt>
      <trkpt lat="41.9365480" lon="2.6893140">
        <ele>204.0</ele>
        <time>2022-05-26T18:18:05Z</time>
      </trkpt>
      <trkpt lat="41.9364890" lon="2.6893240">
        <ele>204.0</ele>
        <time>2022-05-26T18:18:06Z</time>
      </trkpt>
      <trkpt lat="41.9364450" lon="2.6893320">
        <ele>204.2</ele>
        <time>2022-05-26T18:18:07Z</time>
      </trkpt>
      <trkpt lat="41.9364150" lon="2.6893380">
        <ele>204.4</ele>
        <time>2022-05-26T18:18:08Z</time>
      </trkpt>
      <trkpt lat="41.9363910" lon="2.6893560">
        <ele>204.4</ele>
        <time>2022-05-26T18:18:09Z</time>
      </trkpt>
      <trkpt lat="41.9363580" lon="2.6893860">
        <ele>204.6</ele>
        <time>2022-05-26T18:18:10Z</time>
      </trkpt>
      <trkpt lat="41.9363300" lon="2.6894230">
        <ele>204.8</ele>
        <time>2022-05-26T18:18:11Z</time>
      </trkpt>
      <trkpt lat="41.9363240" lon="2.6894630">
        <ele>205.0</ele>
        <time>2022-05-26T18:18:12Z</time>
      </trkpt>
      <trkpt lat="41.9363310" lon="2.6895100">
        <ele>205.0</ele>
        <time>2022-05-26T18:18:13Z</time>
      </trkpt>
      <trkpt lat="41.9363530" lon="2.6895540">
        <ele>205.2</ele>
        <time>2022-05-26T18:18:14Z</time>
      </trkpt>
      <trkpt lat="41.9363780" lon="2.6895870">
        <ele>205.2</ele>
        <time>2022-05-26T18:18:15Z</time>
      </trkpt>
      <trkpt lat="41.9364030" lon="2.6896140">
        <ele>205.2</ele>
        <time>2022-05-26T18:18:16Z</time>
      </trkpt>
      <trkpt lat="41.9364200" lon="2.6896340">
        <ele>205.2</ele>
        <time>2022-05-26T18:18:17Z</time>
      </trkpt>
      <trkpt lat="41.9364370" lon="2.6896470">
        <ele>205.0</ele>
        <time>2022-05-26T18:18:18Z</time>
      </trkpt>
      <trkpt lat="41.9364390" lon="2.6896580">
        <ele>205.2</ele>
        <time>2022-05-26T18:18:19Z</time>
      </trkpt>
      <trkpt lat="41.9364360" lon="2.6896680">
        <ele>205.2</ele>
        <time>2022-05-26T18:18:20Z</time>
      </trkpt>
      <trkpt lat="41.9364200" lon="2.6896800">
        <ele>205.4</ele>
        <time>2022-05-26T18:18:21Z</time>
      </trkpt>
      <trkpt lat="41.9363990" lon="2.6896980">
        <ele>205.4</ele>
        <time>2022-05-26T18:18:22Z</time>
      </trkpt>
      <trkpt lat="41.9363700" lon="2.6897210">
        <ele>205.4</ele>
        <time>2022-05-26T18:18:23Z</time>
      </trkpt>
      <trkpt lat="41.9363430" lon="2.6897360">
        <ele>205.4</ele>
        <time>2022-05-26T18:18:24Z</time>
      </trkpt>
      <trkpt lat="41.9363150" lon="2.6897420">
        <ele>205.4</ele>
        <time>2022-05-26T18:18:25Z</time>
      </trkpt>
      <trkpt lat="41.9362850" lon="2.6897390">
        <ele>205.6</ele>
        <time>2022-05-26T18:18:26Z</time>
      </trkpt>
      <trkpt lat="41.9362620" lon="2.6897290">
        <ele>205.8</ele>
        <time>2022-05-26T18:18:27Z</time>
      </trkpt>
      <trkpt lat="41.9362620" lon="2.6897290">
        <ele>205.8</ele>
        <time>2022-05-26T18:18:28Z</time>
      </trkpt>
      <trkpt lat="41.9362210" lon="2.6896790">
        <ele>205.8</ele>
        <time>2022-05-26T18:18:29Z</time>
      </trkpt>
      <trkpt lat="41.9361980" lon="2.6896570">
        <ele>206.0</ele>
        <time>2022-05-26T18:18:30Z</time>
      </trkpt>
      <trkpt lat="41.9361790" lon="2.6896420">
        <ele>206.2</ele>
        <time>2022-05-26T18:18:31Z</time>
      </trkpt>
      <trkpt lat="41.9361640" lon="2.6896240">
        <ele>206.2</ele>
        <time>2022-05-26T18:18:32Z</time>
      </trkpt>
      <trkpt lat="41.9361440" lon="2.6895990">
        <ele>206.2</ele>
        <time>2022-05-26T18:18:33Z</time>
      </trkpt>
      <trkpt lat="41.9361170" lon="2.6895810">
        <ele>206.4</ele>
        <time>2022-05-26T18:18:34Z</time>
      </trkpt>
      <trkpt lat="41.9360870" lon="2.6895760">
        <ele>206.4</ele>
        <time>2022-05-26T18:18:35Z</time>
      </trkpt>
      <trkpt lat="41.9360570" lon="2.6895730">
        <ele>206.4</ele>
        <time>2022-05-26T18:18:36Z</time>
      </trkpt>
      <trkpt lat="41.9360280" lon="2.6895690">
        <ele>206.4</ele>
        <time>2022-05-26T18:18:37Z</time>
      </trkpt>
      <trkpt lat="41.9360040" lon="2.6895700">
        <ele>206.4</ele>
        <time>2022-05-26T18:18:38Z</time>
      </trkpt>
      <trkpt lat="41.9359950" lon="2.6895740">
        <ele>206.4</ele>
        <time>2022-05-26T18:18:39Z</time>
      </trkpt>
      <trkpt lat="41.9359940" lon="2.6895750">
        <ele>206.4</ele>
        <time>2022-05-26T18:18:40Z</time>
      </trkpt>
      <trkpt lat="41.9359950" lon="2.6895750">
        <ele>206.4</ele>
        <time>2022-05-26T18:18:41Z</time>
      </trkpt>
      <trkpt lat="41.9359950" lon="2.6895750">
        <ele>206.4</ele>
        <time>2022-05-26T18:18:42Z</time>
      </trkpt>
      <trkpt lat="41.9359950" lon="2.6895750">
        <ele>206.4</ele>
        <time>2022-05-26T18:18:43Z</time>
      </trkpt>
      <trkpt lat="41.9359950" lon="2.6895750">
        <ele>206.4</ele>
        <time>2022-05-26T18:18:44Z</time>
      </trkpt>
      <trkpt lat="41.9359950" lon="2.6895750">
        <ele>206.4</ele>
        <time>2022-05-26T18:18:45Z</time>
      </trkpt>
      <trkpt lat="41.9359950" lon="2.6895750">
        <ele>206.4</ele>
        <time>2022-05-26T18:18:46Z</time>
      </trkpt>
      <trkpt lat="41.9359950" lon="2.6895750">
        <ele>206.4</ele>
        <time>2022-05-26T18:18:47Z</time>
      </trkpt>
      <trkpt lat="41.9359950" lon="2.6895750">
        <ele>206.4</ele>
        <time>2022-05-26T18:18:48Z</time>
      </trkpt>
      <trkpt lat="41.9359950" lon="2.6895750">
        <ele>206.4</ele>
        <time>2022-05-26T18:18:49Z</time>
      </trkpt>
      <trkpt lat="41.9359270" lon="2.6896280">
        <ele>206.0</ele>
        <time>2022-05-26T18:21:07Z</time>
      </trkpt>
      <trkpt lat="41.9359160" lon="2.6896460">
        <ele>205.8</ele>
        <time>2022-05-26T18:21:08Z</time>
      </trkpt>
      <trkpt lat="41.9359010" lon="2.6896550">
        <ele>205.6</ele>
        <time>2022-05-26T18:21:09Z</time>
      </trkpt>
      <trkpt lat="41.9358820" lon="2.6896580">
        <ele>205.4</ele>
        <time>2022-05-26T18:21:10Z</time>
      </trkpt>
      <trkpt lat="41.9358610" lon="2.6896620">
        <ele>205.0</ele>
        <time>2022-05-26T18:21:11Z</time>
      </trkpt>
      <trkpt lat="41.9358360" lon="2.6896630">
        <ele>204.8</ele>
        <time>2022-05-26T18:21:12Z</time>
      </trkpt>
      <trkpt lat="41.9358030" lon="2.6896590">
        <ele>204.6</ele>
        <time>2022-05-26T18:21:13Z</time>
      </trkpt>
      <trkpt lat="41.9357710" lon="2.6896530">
        <ele>204.2</ele>
        <time>2022-05-26T18:21:14Z</time>
      </trkpt>
      <trkpt lat="41.9357460" lon="2.6896500">
        <ele>204.0</ele>
        <time>2022-05-26T18:21:15Z</time>
      </trkpt>
      <trkpt lat="41.9357220" lon="2.6896460">
        <ele>203.6</ele>
        <time>2022-05-26T18:21:16Z</time>
      </trkpt>
      <trkpt lat="41.9356940" lon="2.6896270">
        <ele>203.6</ele>
        <time>2022-05-26T18:21:17Z</time>
      </trkpt>
      <trkpt lat="41.9356530" lon="2.6896000">
        <ele>203.2</ele>
        <time>2022-05-26T18:21:18Z</time>
      </trkpt>
      <trkpt lat="41.9356040" lon="2.6895610">
        <ele>203.0</ele>
        <time>2022-05-26T18:21:19Z</time>
      </trkpt>
      <trkpt lat="41.9355600" lon="2.6895250">
        <ele>202.6</ele>
        <time>2022-05-26T18:21:20Z</time>
      </trkpt>
      <trkpt lat="41.9355220" lon="2.6894960">
        <ele>202.4</ele>
        <time>2022-05-26T18:21:21Z</time>
      </trkpt>
      <trkpt lat="41.9354900" lon="2.6894820">
        <ele>202.0</ele>
        <time>2022-05-26T18:21:22Z</time>
      </trkpt>
      <trkpt lat="41.9354590" lon="2.6894770">
        <ele>201.6</ele>
        <time>2022-05-26T18:21:23Z</time>
      </trkpt>
      <trkpt lat="41.9354270" lon="2.6894730">
        <ele>201.2</ele>
        <time>2022-05-26T18:21:24Z</time>
      </trkpt>
      <trkpt lat="41.9353960" lon="2.6894720">
        <ele>200.8</ele>
        <time>2022-05-26T18:21:25Z</time>
      </trkpt>
      <trkpt lat="41.9353670" lon="2.6894680">
        <ele>200.4</ele>
        <time>2022-05-26T18:21:26Z</time>
      </trkpt>
      <trkpt lat="41.9353380" lon="2.6894620">
        <ele>200.0</ele>
        <time>2022-05-26T18:21:27Z</time>
      </trkpt>
      <trkpt lat="41.9353140" lon="2.6894560">
        <ele>199.4</ele>
        <time>2022-05-26T18:21:28Z</time>
      </trkpt>
      <trkpt lat="41.9352920" lon="2.6894500">
        <ele>199.0</ele>
        <time>2022-05-26T18:21:29Z</time>
      </trkpt>
      <trkpt lat="41.9352690" lon="2.6894490">
        <ele>198.4</ele>
        <time>2022-05-26T18:21:30Z</time>
      </trkpt>
      <trkpt lat="41.9352480" lon="2.6894570">
        <ele>198.0</ele>
        <time>2022-05-26T18:21:31Z</time>
      </trkpt>
      <trkpt lat="41.9352280" lon="2.6894860">
        <ele>197.4</ele>
        <time>2022-05-26T18:21:32Z</time>
      </trkpt>
      <trkpt lat="41.9352080" lon="2.6895310">
        <ele>197.0</ele>
        <time>2022-05-26T18:21:33Z</time>
      </trkpt>
      <trkpt lat="41.9351880" lon="2.6895790">
        <ele>196.4</ele>
        <time>2022-05-26T18:21:34Z</time>
      </trkpt>
      <trkpt lat="41.9351700" lon="2.6896180">
        <ele>196.0</ele>
        <time>2022-05-26T18:21:35Z</time>
      </trkpt>
      <trkpt lat="41.9351650" lon="2.6896590">
        <ele>195.8</ele>
        <time>2022-05-26T18:21:36Z</time>
      </trkpt>
      <trkpt lat="41.9351720" lon="2.6896960">
        <ele>195.4</ele>
        <time>2022-05-26T18:21:37Z</time>
      </trkpt>
      <trkpt lat="41.9351980" lon="2.6897320">
        <ele>195.2</ele>
        <time>2022-05-26T18:21:38Z</time>
      </trkpt>
      <trkpt lat="41.9352320" lon="2.6897600">
        <ele>195.2</ele>
        <time>2022-05-26T18:21:39Z</time>
      </trkpt>
      <trkpt lat="41.9352640" lon="2.6897860">
        <ele>195.0</ele>
        <time>2022-05-26T18:21:40Z</time>
      </trkpt>
      <trkpt lat="41.9352940" lon="2.6898120">
        <ele>194.8</ele>
        <time>2022-05-26T18:21:41Z</time>
      </trkpt>
      <trkpt lat="41.9353290" lon="2.6898360">
        <ele>194.6</ele>
        <time>2022-05-26T18:21:42Z</time>
      </trkpt>
      <trkpt lat="41.9353620" lon="2.6898580">
        <ele>194.4</ele>
        <time>2022-05-26T18:21:43Z</time>
      </trkpt>
      <trkpt lat="41.9353990" lon="2.6898760">
        <ele>194.4</ele>
        <time>2022-05-26T18:21:44Z</time>
      </trkpt>
      <trkpt lat="41.9354410" lon="2.6898940">
        <ele>194.2</ele>
        <time>2022-05-26T18:21:45Z</time>
      </trkpt>
      <trkpt lat="41.9354850" lon="2.6899220">
        <ele>194.0</ele>
        <time>2022-05-26T18:21:46Z</time>
      </trkpt>
      <trkpt lat="41.9355320" lon="2.6899640">
        <ele>194.0</ele>
        <time>2022-05-26T18:21:47Z</time>
      </trkpt>
      <trkpt lat="41.9355890" lon="2.6900120">
        <ele>193.8</ele>
        <time>2022-05-26T18:21:48Z</time>
      </trkpt>
      <trkpt lat="41.9356490" lon="2.6900600">
        <ele>193.6</ele>
        <time>2022-05-26T18:21:49Z</time>
      </trkpt>
      <trkpt lat="41.9357000" lon="2.6901120">
        <ele>193.6</ele>
        <time>2022-05-26T18:21:50Z</time>
      </trkpt>
      <trkpt lat="41.9357370" lon="2.6901540">
        <ele>193.4</ele>
        <time>2022-05-26T18:21:51Z</time>
      </trkpt>
      <trkpt lat="41.9357570" lon="2.6901860">
        <ele>193.2</ele>
        <time>2022-05-26T18:21:52Z</time>
      </trkpt>
      <trkpt lat="41.9357670" lon="2.6902160">
        <ele>193.0</ele>
        <time>2022-05-26T18:21:53Z</time>
      </trkpt>
      <trkpt lat="41.9357780" lon="2.6902450">
        <ele>192.8</ele>
        <time>2022-05-26T18:21:54Z</time>
      </trkpt>
      <trkpt lat="41.9357930" lon="2.6902640">
        <ele>192.6</ele>
        <time>2022-05-26T18:21:55Z</time>
      </trkpt>
      <trkpt lat="41.9358140" lon="2.6902860">
        <ele>192.4</ele>
        <time>2022-05-26T18:21:56Z</time>
      </trkpt>
      <trkpt lat="41.9358460" lon="2.6903170">
        <ele>192.0</ele>
        <time>2022-05-26T18:21:57Z</time>
      </trkpt>
      <trkpt lat="41.9358870" lon="2.6903500">
        <ele>191.8</ele>
        <time>2022-05-26T18:21:58Z</time>
      </trkpt>
      <trkpt lat="41.9359330" lon="2.6903840">
        <ele>191.4</ele>
        <time>2022-05-26T18:21:59Z</time>
      </trkpt>
      <trkpt lat="41.9359770" lon="2.6904180">
        <ele>191.0</ele>
        <time>2022-05-26T18:22:00Z</time>
      </trkpt>
      <trkpt lat="41.9360200" lon="2.6904540">
        <ele>190.6</ele>
        <time>2022-05-26T18:22:01Z</time>
      </trkpt>
      <trkpt lat="41.9360650" lon="2.6904920">
        <ele>190.2</ele>
        <time>2022-05-26T18:22:02Z</time>
      </trkpt>
      <trkpt lat="41.9361080" lon="2.6905230">
        <ele>189.6</ele>
        <time>2022-05-26T18:22:03Z</time>
      </trkpt>
      <trkpt lat="41.9361440" lon="2.6905450">
        <ele>189.0</ele>
        <time>2022-05-26T18:22:04Z</time>
      </trkpt>
      <trkpt lat="41.9361820" lon="2.6905670">
        <ele>188.4</ele>
        <time>2022-05-26T18:22:05Z</time>
      </trkpt>
      <trkpt lat="41.9362220" lon="2.6905890">
        <ele>187.8</ele>
        <time>2022-05-26T18:22:06Z</time>
      </trkpt>
      <trkpt lat="41.9362600" lon="2.6906090">
        <ele>187.0</ele>
        <time>2022-05-26T18:22:07Z</time>
      </trkpt>
      <trkpt lat="41.9363000" lon="2.6906290">
        <ele>186.4</ele>
        <time>2022-05-26T18:22:08Z</time>
      </trkpt>
      <trkpt lat="41.9363420" lon="2.6906480">
        <ele>185.8</ele>
        <time>2022-05-26T18:22:09Z</time>
      </trkpt>
      <trkpt lat="41.9363790" lon="2.6906570">
        <ele>185.2</ele>
        <time>2022-05-26T18:22:10Z</time>
      </trkpt>
      <trkpt lat="41.9364110" lon="2.6906620">
        <ele>184.6</ele>
        <time>2022-05-26T18:22:11Z</time>
      </trkpt>
      <trkpt lat="41.9364420" lon="2.6906690">
        <ele>183.8</ele>
        <time>2022-05-26T18:22:12Z</time>
      </trkpt>
      <trkpt lat="41.9364760" lon="2.6906810">
        <ele>183.0</ele>
        <time>2022-05-26T18:22:13Z</time>
      </trkpt>
      <trkpt lat="41.9365130" lon="2.6906980">
        <ele>182.4</ele>
        <time>2022-05-26T18:22:14Z</time>
      </trkpt>
      <trkpt lat="41.9365400" lon="2.6907170">
        <ele>181.6</ele>
        <time>2022-05-26T18:22:15Z</time>
      </trkpt>
      <trkpt lat="41.9365440" lon="2.6907340">
        <ele>181.0</ele>
        <time>2022-05-26T18:22:16Z</time>
      </trkpt>
      <trkpt lat="41.9365410" lon="2.6907440">
        <ele>180.6</ele>
        <time>2022-05-26T18:22:17Z</time>
      </trkpt>
      <trkpt lat="41.9365240" lon="2.6907460">
        <ele>180.0</ele>
        <time>2022-05-26T18:22:18Z</time>
      </trkpt>
      <trkpt lat="41.9365000" lon="2.6907410">
        <ele>179.6</ele>
        <time>2022-05-26T18:22:19Z</time>
      </trkpt>
      <trkpt lat="41.9364780" lon="2.6907360">
        <ele>179.2</ele>
        <time>2022-05-26T18:22:20Z</time>
      </trkpt>
      <trkpt lat="41.9364590" lon="2.6907350">
        <ele>178.8</ele>
        <time>2022-05-26T18:22:21Z</time>
      </trkpt>
      <trkpt lat="41.9364420" lon="2.6907380">
        <ele>178.6</ele>
        <time>2022-05-26T18:22:22Z</time>
      </trkpt>
      <trkpt lat="41.9364240" lon="2.6907420">
        <ele>178.2</ele>
        <time>2022-05-26T18:22:23Z</time>
      </trkpt>
      <trkpt lat="41.9364060" lon="2.6907440">
        <ele>177.8</ele>
        <time>2022-05-26T18:22:24Z</time>
      </trkpt>
      <trkpt lat="41.9363840" lon="2.6907420">
        <ele>177.6</ele>
        <time>2022-05-26T18:22:25Z</time>
      </trkpt>
      <trkpt lat="41.9363570" lon="2.6907400">
        <ele>177.6</ele>
        <time>2022-05-26T18:22:26Z</time>
      </trkpt>
      <trkpt lat="41.9363260" lon="2.6907380">
        <ele>177.4</ele>
        <time>2022-05-26T18:22:27Z</time>
      </trkpt>
      <trkpt lat="41.9362930" lon="2.6907370">
        <ele>177.0</ele>
        <time>2022-05-26T18:22:28Z</time>
      </trkpt>
      <trkpt lat="41.9362560" lon="2.6907410">
        <ele>176.6</ele>
        <time>2022-05-26T18:22:29Z</time>
      </trkpt>
      <trkpt lat="41.9362190" lon="2.6907510">
        <ele>176.4</ele>
        <time>2022-05-26T18:22:30Z</time>
      </trkpt>
      <trkpt lat="41.9361760" lon="2.6907690">
        <ele>176.2</ele>
        <time>2022-05-26T18:22:31Z</time>
      </trkpt>
      <trkpt lat="41.9361250" lon="2.6907880">
        <ele>176.0</ele>
        <time>2022-05-26T18:22:32Z</time>
      </trkpt>
      <trkpt lat="41.9360600" lon="2.6908030">
        <ele>175.8</ele>
        <time>2022-05-26T18:22:33Z</time>
      </trkpt>
      <trkpt lat="41.9359980" lon="2.6908140">
        <ele>175.8</ele>
        <time>2022-05-26T18:22:34Z</time>
      </trkpt>
      <trkpt lat="41.9359450" lon="2.6908160">
        <ele>175.6</ele>
        <time>2022-05-26T18:22:35Z</time>
      </trkpt>
      <trkpt lat="41.9358840" lon="2.6908200">
        <ele>175.4</ele>
        <time>2022-05-26T18:22:36Z</time>
      </trkpt>
      <trkpt lat="41.9358170" lon="2.6908240">
        <ele>175.2</ele>
        <time>2022-05-26T18:22:37Z</time>
      </trkpt>
      <trkpt lat="41.9357550" lon="2.6908320">
        <ele>175.0</ele>
        <time>2022-05-26T18:22:38Z</time>
      </trkpt>
      <trkpt lat="41.9357060" lon="2.6908410">
        <ele>174.8</ele>
        <time>2022-05-26T18:22:39Z</time>
      </trkpt>
      <trkpt lat="41.9356680" lon="2.6908460">
        <ele>174.8</ele>
        <time>2022-05-26T18:22:40Z</time>
      </trkpt>
      <trkpt lat="41.9356290" lon="2.6908440">
        <ele>174.8</ele>
        <time>2022-05-26T18:22:41Z</time>
      </trkpt>
      <trkpt lat="41.9355860" lon="2.6908450">
        <ele>174.8</ele>
        <time>2022-05-26T18:22:42Z</time>
      </trkpt>
      <trkpt lat="41.9355360" lon="2.6908460">
        <ele>174.6</ele>
        <time>2022-05-26T18:22:43Z</time>
      </trkpt>
      <trkpt lat="41.9354920" lon="2.6908440">
        <ele>174.6</ele>
        <time>2022-05-26T18:22:44Z</time>
      </trkpt>
      <trkpt lat="41.9354460" lon="2.6908370">
        <ele>174.6</ele>
        <time>2022-05-26T18:22:45Z</time>
      </trkpt>
      <trkpt lat="41.9353900" lon="2.6908250">
        <ele>174.4</ele>
        <time>2022-05-26T18:22:46Z</time>
      </trkpt>
      <trkpt lat="41.9353410" lon="2.6908180">
        <ele>174.4</ele>
        <time>2022-05-26T18:22:47Z</time>
      </trkpt>
      <trkpt lat="41.9353140" lon="2.6908300">
        <ele>174.4</ele>
        <time>2022-05-26T18:22:48Z</time>
      </trkpt>
      <trkpt lat="41.9352980" lon="2.6908610">
        <ele>174.4</ele>
        <time>2022-05-26T18:22:49Z</time>
      </trkpt>
      <trkpt lat="41.9352920" lon="2.6909110">
        <ele>174.4</ele>
        <time>2022-05-26T18:22:50Z</time>
      </trkpt>
      <trkpt lat="41.9352880" lon="2.6909570">
        <ele>174.4</ele>
        <time>2022-05-26T18:22:51Z</time>
      </trkpt>
      <trkpt lat="41.9352970" lon="2.6909810">
        <ele>174.4</ele>
        <time>2022-05-26T18:22:52Z</time>
      </trkpt>
      <trkpt lat="41.9353200" lon="2.6910020">
        <ele>174.2</ele>
        <time>2022-05-26T18:22:53Z</time>
      </trkpt>
      <trkpt lat="41.9353560" lon="2.6910110">
        <ele>174.2</ele>
        <time>2022-05-26T18:22:54Z</time>
      </trkpt>
      <trkpt lat="41.9354030" lon="2.6910180">
        <ele>174.2</ele>
        <time>2022-05-26T18:22:55Z</time>
      </trkpt>
      <trkpt lat="41.9354510" lon="2.6910240">
        <ele>174.2</ele>
        <time>2022-05-26T18:22:56Z</time>
      </trkpt>
      <trkpt lat="41.9355110" lon="2.6910270">
        <ele>174.2</ele>
        <time>2022-05-26T18:22:57Z</time>
      </trkpt>
      <trkpt lat="41.9355740" lon="2.6910270">
        <ele>174.4</ele>
        <time>2022-05-26T18:22:58Z</time>
      </trkpt>
      <trkpt lat="41.9356360" lon="2.6910240">
        <ele>174.4</ele>
        <time>2022-05-26T18:22:59Z</time>
      </trkpt>
      <trkpt lat="41.9356930" lon="2.6910210">
        <ele>174.6</ele>
        <time>2022-05-26T18:23:00Z</time>
      </trkpt>
      <trkpt lat="41.9357500" lon="2.6910210">
        <ele>174.6</ele>
        <time>2022-05-26T18:23:01Z</time>
      </trkpt>
      <trkpt lat="41.9358080" lon="2.6910280">
        <ele>174.8</ele>
        <time>2022-05-26T18:23:02Z</time>
      </trkpt>
      <trkpt lat="41.9358660" lon="2.6910340">
        <ele>175.0</ele>
        <time>2022-05-26T18:23:03Z</time>
      </trkpt>
      <trkpt lat="41.9359160" lon="2.6910390">
        <ele>175.2</ele>
        <time>2022-05-26T18:23:04Z</time>
      </trkpt>
      <trkpt lat="41.9359610" lon="2.6910440">
        <ele>175.4</ele>
        <time>2022-05-26T18:23:05Z</time>
      </trkpt>
      <trkpt lat="41.9360140" lon="2.6910500">
        <ele>175.4</ele>
        <time>2022-05-26T18:23:06Z</time>
      </trkpt>
      <trkpt lat="41.9360760" lon="2.6910520">
        <ele>175.6</ele>
        <time>2022-05-26T18:23:07Z</time>
      </trkpt>
      <trkpt lat="41.9361350" lon="2.6910490">
        <ele>175.8</ele>
        <time>2022-05-26T18:23:08Z</time>
      </trkpt>
      <trkpt lat="41.9361940" lon="2.6910400">
        <ele>176.2</ele>
        <time>2022-05-26T18:23:09Z</time>
      </trkpt>
      <trkpt lat="41.9362570" lon="2.6910260">
        <ele>176.4</ele>
        <time>2022-05-26T18:23:10Z</time>
      </trkpt>
      <trkpt lat="41.9363240" lon="2.6910160">
        <ele>176.6</ele>
        <time>2022-05-26T18:23:11Z</time>
      </trkpt>
      <trkpt lat="41.9363940" lon="2.6910120">
        <ele>177.0</ele>
        <time>2022-05-26T18:23:12Z</time>
      </trkpt>
      <trkpt lat="41.9364660" lon="2.6910100">
        <ele>177.2</ele>
        <time>2022-05-26T18:23:13Z</time>
      </trkpt>
      <trkpt lat="41.9365270" lon="2.6910140">
        <ele>177.4</ele>
        <time>2022-05-26T18:23:14Z</time>
      </trkpt>
      <trkpt lat="41.9365840" lon="2.6910240">
        <ele>177.6</ele>
        <time>2022-05-26T18:23:15Z</time>
      </trkpt>
      <trkpt lat="41.9366480" lon="2.6910380">
        <ele>178.0</ele>
        <time>2022-05-26T18:23:16Z</time>
      </trkpt>
      <trkpt lat="41.9367140" lon="2.6910560">
        <ele>178.2</ele>
        <time>2022-05-26T18:23:17Z</time>
      </trkpt>
      <trkpt lat="41.9367750" lon="2.6910790">
        <ele>178.4</ele>
        <time>2022-05-26T18:23:18Z</time>
      </trkpt>
      <trkpt lat="41.9368300" lon="2.6911010">
        <ele>178.4</ele>
        <time>2022-05-26T18:23:19Z</time>
      </trkpt>
      <trkpt lat="41.9368800" lon="2.6911250">
        <ele>178.6</ele>
        <time>2022-05-26T18:23:20Z</time>
      </trkpt>
      <trkpt lat="41.9369320" lon="2.6911580">
        <ele>178.6</ele>
        <time>2022-05-26T18:23:21Z</time>
      </trkpt>
      <trkpt lat="41.9369850" lon="2.6912050">
        <ele>178.8</ele>
        <time>2022-05-26T18:23:22Z</time>
      </trkpt>
      <trkpt lat="41.9370230" lon="2.6912540">
        <ele>178.8</ele>
        <time>2022-05-26T18:23:23Z</time>
      </trkpt>
      <trkpt lat="41.9370230" lon="2.6912540">
        <ele>178.8</ele>
        <time>2022-05-26T18:23:24Z</time>
      </trkpt>
      <trkpt lat="41.9370940" lon="2.6913640">
        <ele>178.8</ele>
        <time>2022-05-26T18:23:25Z</time>
      </trkpt>
      <trkpt lat="41.9371240" lon="2.6914050">
        <ele>179.0</ele>
        <time>2022-05-26T18:23:26Z</time>
      </trkpt>
      <trkpt lat="41.9371530" lon="2.6914450">
        <ele>179.0</ele>
        <time>2022-05-26T18:23:27Z</time>
      </trkpt>
      <trkpt lat="41.9371770" lon="2.6914940">
        <ele>179.2</ele>
        <time>2022-05-26T18:23:28Z</time>
      </trkpt>
      <trkpt lat="41.9371940" lon="2.6915530">
        <ele>179.4</ele>
        <time>2022-05-26T18:23:29Z</time>
      </trkpt>
      <trkpt lat="41.9372110" lon="2.6916230">
        <ele>179.2</ele>
        <time>2022-05-26T18:23:30Z</time>
      </trkpt>
      <trkpt lat="41.9372340" lon="2.6916920">
        <ele>179.4</ele>
        <time>2022-05-26T18:23:31Z</time>
      </trkpt>
      <trkpt lat="41.9372590" lon="2.6917510">
        <ele>179.4</ele>
        <time>2022-05-26T18:23:32Z</time>
      </trkpt>
      <trkpt lat="41.9372830" lon="2.6918060">
        <ele>179.6</ele>
        <time>2022-05-26T18:23:33Z</time>
      </trkpt>
      <trkpt lat="41.9373070" lon="2.6918600">
        <ele>179.6</ele>
        <time>2022-05-26T18:23:34Z</time>
      </trkpt>
      <trkpt lat="41.9373340" lon="2.6919170">
        <ele>179.6</ele>
        <time>2022-05-26T18:23:35Z</time>
      </trkpt>
      <trkpt lat="41.9373590" lon="2.6919770">
        <ele>179.8</ele>
        <time>2022-05-26T18:23:36Z</time>
      </trkpt>
      <trkpt lat="41.9373840" lon="2.6920430">
        <ele>180.0</ele>
        <time>2022-05-26T18:23:37Z</time>
      </trkpt>
      <trkpt lat="41.9374100" lon="2.6921160">
        <ele>180.4</ele>
        <time>2022-05-26T18:23:38Z</time>
      </trkpt>
      <trkpt lat="41.9374330" lon="2.6921830">
        <ele>180.8</ele>
        <time>2022-05-26T18:23:39Z</time>
      </trkpt>
      <trkpt lat="41.9374530" lon="2.6922460">
        <ele>181.4</ele>
        <time>2022-05-26T18:23:40Z</time>
      </trkpt>
      <trkpt lat="41.9374660" lon="2.6923100">
        <ele>181.8</ele>
        <time>2022-05-26T18:23:41Z</time>
      </trkpt>
      <trkpt lat="41.9374750" lon="2.6923840">
        <ele>182.4</ele>
        <time>2022-05-26T18:23:42Z</time>
      </trkpt>
      <trkpt lat="41.9374910" lon="2.6924660">
        <ele>182.8</ele>
        <time>2022-05-26T18:23:43Z</time>
      </trkpt>
      <trkpt lat="41.9375200" lon="2.6925440">
        <ele>183.2</ele>
        <time>2022-05-26T18:23:44Z</time>
      </trkpt>
      <trkpt lat="41.9375610" lon="2.6926120">
        <ele>183.6</ele>
        <time>2022-05-26T18:23:45Z</time>
      </trkpt>
      <trkpt lat="41.9376050" lon="2.6926620">
        <ele>184.0</ele>
        <time>2022-05-26T18:23:46Z</time>
      </trkpt>
      <trkpt lat="41.9376460" lon="2.6927020">
        <ele>184.4</ele>
        <time>2022-05-26T18:23:47Z</time>
      </trkpt>
      <trkpt lat="41.9376810" lon="2.6927410">
        <ele>185.0</ele>
        <time>2022-05-26T18:23:48Z</time>
      </trkpt>
      <trkpt lat="41.9377150" lon="2.6927840">
        <ele>185.4</ele>
        <time>2022-05-26T18:23:49Z</time>
      </trkpt>
      <trkpt lat="41.9377630" lon="2.6928420">
        <ele>186.0</ele>
        <time>2022-05-26T18:23:50Z</time>
      </trkpt>
      <trkpt lat="41.9378180" lon="2.6929100">
        <ele>186.4</ele>
        <time>2022-05-26T18:23:51Z</time>
      </trkpt>
      <trkpt lat="41.9378620" lon="2.6929780">
        <ele>186.8</ele>
        <time>2022-05-26T18:23:52Z</time>
      </trkpt>
      <trkpt lat="41.9379010" lon="2.6930400">
        <ele>187.2</ele>
        <time>2022-05-26T18:23:53Z</time>
      </trkpt>
      <trkpt lat="41.9379360" lon="2.6930910">
        <ele>187.4</ele>
        <time>2022-05-26T18:23:54Z</time>
      </trkpt>
      <trkpt lat="41.9379750" lon="2.6931350">
        <ele>187.8</ele>
        <time>2022-05-26T18:23:55Z</time>
      </trkpt>
      <trkpt lat="41.9380230" lon="2.6931720">
        <ele>188.0</ele>
        <time>2022-05-26T18:23:56Z</time>
      </trkpt>
      <trkpt lat="41.9380660" lon="2.6931990">
        <ele>188.0</ele>
        <time>2022-05-26T18:23:57Z</time>
      </trkpt>
      <trkpt lat="41.9381000" lon="2.6932170">
        <ele>188.0</ele>
        <time>2022-05-26T18:23:58Z</time>
      </trkpt>
      <trkpt lat="41.9381330" lon="2.6932270">
        <ele>188.2</ele>
        <time>2022-05-26T18:23:59Z</time>
      </trkpt>
      <trkpt lat="41.9381640" lon="2.6932260">
        <ele>188.2</ele>
        <time>2022-05-26T18:24:00Z</time>
      </trkpt>
      <trkpt lat="41.9381960" lon="2.6932120">
        <ele>188.2</ele>
        <time>2022-05-26T18:24:01Z</time>
      </trkpt>
      <trkpt lat="41.9382300" lon="2.6931990">
        <ele>188.4</ele>
        <time>2022-05-26T18:24:02Z</time>
      </trkpt>
      <trkpt lat="41.9382630" lon="2.6931910">
        <ele>188.6</ele>
        <time>2022-05-26T18:24:03Z</time>
      </trkpt>
      <trkpt lat="41.9382970" lon="2.6931840">
        <ele>188.6</ele>
        <time>2022-05-26T18:24:04Z</time>
      </trkpt>
      <trkpt lat="41.9383390" lon="2.6931770">
        <ele>188.8</ele>
        <time>2022-05-26T18:24:05Z</time>
      </trkpt>
      <trkpt lat="41.9383870" lon="2.6931810">
        <ele>189.0</ele>
        <time>2022-05-26T18:24:06Z</time>
      </trkpt>
      <trkpt lat="41.9384400" lon="2.6931930">
        <ele>189.2</ele>
        <time>2022-05-26T18:24:07Z</time>
      </trkpt>
      <trkpt lat="41.9384870" lon="2.6932180">
        <ele>189.6</ele>
        <time>2022-05-26T18:24:08Z</time>
      </trkpt>
      <trkpt lat="41.9385220" lon="2.6932520">
        <ele>189.8</ele>
        <time>2022-05-26T18:24:09Z</time>
      </trkpt>
      <trkpt lat="41.9385520" lon="2.6932950">
        <ele>190.0</ele>
        <time>2022-05-26T18:24:10Z</time>
      </trkpt>
      <trkpt lat="41.9385520" lon="2.6932950">
        <ele>190.0</ele>
        <time>2022-05-26T18:24:11Z</time>
      </trkpt>
      <trkpt lat="41.9386250" lon="2.6933720">
        <ele>190.2</ele>
        <time>2022-05-26T18:24:12Z</time>
      </trkpt>
      <trkpt lat="41.9386710" lon="2.6933900">
        <ele>190.4</ele>
        <time>2022-05-26T18:24:13Z</time>
      </trkpt>
      <trkpt lat="41.9386710" lon="2.6933900">
        <ele>190.6</ele>
        <time>2022-05-26T18:24:14Z</time>
      </trkpt>
      <trkpt lat="41.9387790" lon="2.6933910">
        <ele>190.8</ele>
        <time>2022-05-26T18:24:15Z</time>
      </trkpt>
      <trkpt lat="41.9388380" lon="2.6933890">
        <ele>190.8</ele>
        <time>2022-05-26T18:24:16Z</time>
      </trkpt>
      <trkpt lat="41.9388380" lon="2.6933890">
        <ele>190.8</ele>
        <time>2022-05-26T18:24:17Z</time>
      </trkpt>
      <trkpt lat="41.9389670" lon="2.6933820">
        <ele>191.0</ele>
        <time>2022-05-26T18:24:18Z</time>
      </trkpt>
      <trkpt lat="41.9390380" lon="2.6933820">
        <ele>191.4</ele>
        <time>2022-05-26T18:24:19Z</time>
      </trkpt>
      <trkpt lat="41.9391080" lon="2.6933830">
        <ele>191.6</ele>
        <time>2022-05-26T18:24:20Z</time>
      </trkpt>
      <trkpt lat="41.9391820" lon="2.6933830">
        <ele>192.2</ele>
        <time>2022-05-26T18:24:21Z</time>
      </trkpt>
      <trkpt lat="41.9392580" lon="2.6933820">
        <ele>192.8</ele>
        <time>2022-05-26T18:24:22Z</time>
      </trkpt>
      <trkpt lat="41.9393320" lon="2.6933790">
        <ele>193.4</ele>
        <time>2022-05-26T18:24:23Z</time>
      </trkpt>
      <trkpt lat="41.9394060" lon="2.6933760">
        <ele>193.8</ele>
        <time>2022-05-26T18:24:24Z</time>
      </trkpt>
      <trkpt lat="41.9394830" lon="2.6933760">
        <ele>194.2</ele>
        <time>2022-05-26T18:24:25Z</time>
      </trkpt>
      <trkpt lat="41.9395560" lon="2.6933800">
        <ele>194.4</ele>
        <time>2022-05-26T18:24:26Z</time>
      </trkpt>
      <trkpt lat="41.9396310" lon="2.6933920">
        <ele>194.8</ele>
        <time>2022-05-26T18:24:27Z</time>
      </trkpt>
      <trkpt lat="41.9397130" lon="2.6934120">
        <ele>195.0</ele>
        <time>2022-05-26T18:24:28Z</time>
      </trkpt>
      <trkpt lat="41.9398000" lon="2.6934310">
        <ele>195.2</ele>
        <time>2022-05-26T18:24:29Z</time>
      </trkpt>
      <trkpt lat="41.9398720" lon="2.6934310">
        <ele>195.4</ele>
        <time>2022-05-26T18:24:30Z</time>
      </trkpt>
      <trkpt lat="41.9399250" lon="2.6934100">
        <ele>195.6</ele>
        <time>2022-05-26T18:24:31Z</time>
      </trkpt>
      <trkpt lat="41.9399680" lon="2.6933540">
        <ele>195.8</ele>
        <time>2022-05-26T18:24:32Z</time>
      </trkpt>
      <trkpt lat="41.9400150" lon="2.6932920">
        <ele>196.2</ele>
        <time>2022-05-26T18:24:33Z</time>
      </trkpt>
      <trkpt lat="41.9400720" lon="2.6932460">
        <ele>196.4</ele>
        <time>2022-05-26T18:24:34Z</time>
      </trkpt>
      <trkpt lat="41.9401360" lon="2.6932230">
        <ele>196.4</ele>
        <time>2022-05-26T18:24:35Z</time>
      </trkpt>
      <trkpt lat="41.9402030" lon="2.6932120">
        <ele>196.4</ele>
        <time>2022-05-26T18:24:36Z</time>
      </trkpt>
      <trkpt lat="41.9402750" lon="2.6932160">
        <ele>196.4</ele>
        <time>2022-05-26T18:24:37Z</time>
      </trkpt>
      <trkpt lat="41.9403280" lon="2.6932240">
        <ele>196.4</ele>
        <time>2022-05-26T18:24:38Z</time>
      </trkpt>
      <trkpt lat="41.9403690" lon="2.6932380">
        <ele>196.4</ele>
        <time>2022-05-26T18:24:39Z</time>
      </trkpt>
      <trkpt lat="41.9403950" lon="2.6932580">
        <ele>196.4</ele>
        <time>2022-05-26T18:24:40Z</time>
      </trkpt>
      <trkpt lat="41.9404200" lon="2.6932820">
        <ele>196.6</ele>
        <time>2022-05-26T18:24:41Z</time>
      </trkpt>
      <trkpt lat="41.9404570" lon="2.6933110">
        <ele>196.8</ele>
        <time>2022-05-26T18:24:42Z</time>
      </trkpt>
      <trkpt lat="41.9405050" lon="2.6933420">
        <ele>197.0</ele>
        <time>2022-05-26T18:24:43Z</time>
      </trkpt>
      <trkpt lat="41.9405620" lon="2.6933800">
        <ele>197.0</ele>
        <time>2022-05-26T18:24:44Z</time>
      </trkpt>
      <trkpt lat="41.9406260" lon="2.6934260">
        <ele>197.0</ele>
        <time>2022-05-26T18:24:45Z</time>
      </trkpt>
      <trkpt lat="41.9406890" lon="2.6934770">
        <ele>197.0</ele>
        <time>2022-05-26T18:24:46Z</time>
      </trkpt>
      <trkpt lat="41.9407630" lon="2.6935400">
        <ele>197.2</ele>
        <time>2022-05-26T18:24:47Z</time>
      </trkpt>
      <trkpt lat="41.9408530" lon="2.6936190">
        <ele>197.4</ele>
        <time>2022-05-26T18:24:48Z</time>
      </trkpt>
      <trkpt lat="41.9409370" lon="2.6936930">
        <ele>197.4</ele>
        <time>2022-05-26T18:24:49Z</time>
      </trkpt>
      <trkpt lat="41.9410030" lon="2.6937540">
        <ele>197.6</ele>
        <time>2022-05-26T18:24:50Z</time>
      </trkpt>
      <trkpt lat="41.9410740" lon="2.6938160">
        <ele>197.8</ele>
        <time>2022-05-26T18:24:51Z</time>
      </trkpt>
      <trkpt lat="41.9411600" lon="2.6938830">
        <ele>198.0</ele>
        <time>2022-05-26T18:24:52Z</time>
      </trkpt>
      <trkpt lat="41.9412390" lon="2.6939390">
        <ele>198.0</ele>
        <time>2022-05-26T18:24:53Z</time>
      </trkpt>
      <trkpt lat="41.9413160" lon="2.6939850">
        <ele>198.2</ele>
        <time>2022-05-26T18:24:54Z</time>
      </trkpt>
      <trkpt lat="41.9413930" lon="2.6940240">
        <ele>198.4</ele>
        <time>2022-05-26T18:24:55Z</time>
      </trkpt>
      <trkpt lat="41.9414650" lon="2.6940600">
        <ele>198.4</ele>
        <time>2022-05-26T18:24:56Z</time>
      </trkpt>
      <trkpt lat="41.9415310" lon="2.6940990">
        <ele>198.2</ele>
        <time>2022-05-26T18:24:57Z</time>
      </trkpt>
      <trkpt lat="41.9416000" lon="2.6941480">
        <ele>198.0</ele>
        <time>2022-05-26T18:24:58Z</time>
      </trkpt>
      <trkpt lat="41.9416660" lon="2.6941860">
        <ele>197.8</ele>
        <time>2022-05-26T18:24:59Z</time>
      </trkpt>
      <trkpt lat="41.9417270" lon="2.6941830">
        <ele>197.6</ele>
        <time>2022-05-26T18:25:00Z</time>
      </trkpt>
      <trkpt lat="41.9418020" lon="2.6941590">
        <ele>197.6</ele>
        <time>2022-05-26T18:25:01Z</time>
      </trkpt>
      <trkpt lat="41.9418780" lon="2.6941080">
        <ele>197.4</ele>
        <time>2022-05-26T18:25:02Z</time>
      </trkpt>
      <trkpt lat="41.9419490" lon="2.6940640">
        <ele>197.4</ele>
        <time>2022-05-26T18:25:03Z</time>
      </trkpt>
      <trkpt lat="41.9420180" lon="2.6940390">
        <ele>197.4</ele>
        <time>2022-05-26T18:25:04Z</time>
      </trkpt>
      <trkpt lat="41.9420940" lon="2.6940290">
        <ele>197.4</ele>
        <time>2022-05-26T18:25:05Z</time>
      </trkpt>
      <trkpt lat="41.9421600" lon="2.6940260">
        <ele>197.6</ele>
        <time>2022-05-26T18:25:06Z</time>
      </trkpt>
      <trkpt lat="41.9422310" lon="2.6940290">
        <ele>197.6</ele>
        <time>2022-05-26T18:25:07Z</time>
      </trkpt>
      <trkpt lat="41.9423200" lon="2.6940250">
        <ele>197.6</ele>
        <time>2022-05-26T18:25:08Z</time>
      </trkpt>
      <trkpt lat="41.9423990" lon="2.6940190">
        <ele>197.6</ele>
        <time>2022-05-26T18:25:09Z</time>
      </trkpt>
      <trkpt lat="41.9424570" lon="2.6940120">
        <ele>197.8</ele>
        <time>2022-05-26T18:25:10Z</time>
      </trkpt>
      <trkpt lat="41.9425120" lon="2.6940050">
        <ele>198.0</ele>
        <time>2022-05-26T18:25:11Z</time>
      </trkpt>
      <trkpt lat="41.9425740" lon="2.6939990">
        <ele>198.4</ele>
        <time>2022-05-26T18:25:12Z</time>
      </trkpt>
      <trkpt lat="41.9426420" lon="2.6939680">
        <ele>198.6</ele>
        <time>2022-05-26T18:25:13Z</time>
      </trkpt>
      <trkpt lat="41.9427200" lon="2.6939220">
        <ele>198.8</ele>
        <time>2022-05-26T18:25:14Z</time>
      </trkpt>
      <trkpt lat="41.9427910" lon="2.6938510">
        <ele>199.0</ele>
        <time>2022-05-26T18:25:15Z</time>
      </trkpt>
      <trkpt lat="41.9428460" lon="2.6937870">
        <ele>199.4</ele>
        <time>2022-05-26T18:25:16Z</time>
      </trkpt>
      <trkpt lat="41.9429010" lon="2.6937360">
        <ele>200.0</ele>
        <time>2022-05-26T18:25:17Z</time>
      </trkpt>
      <trkpt lat="41.9429620" lon="2.6937200">
        <ele>200.6</ele>
        <time>2022-05-26T18:25:18Z</time>
      </trkpt>
      <trkpt lat="41.9430280" lon="2.6937230">
        <ele>201.2</ele>
        <time>2022-05-26T18:25:19Z</time>
      </trkpt>
      <trkpt lat="41.9431000" lon="2.6937580">
        <ele>201.4</ele>
        <time>2022-05-26T18:25:20Z</time>
      </trkpt>
      <trkpt lat="41.9431860" lon="2.6938040">
        <ele>201.8</ele>
        <time>2022-05-26T18:25:21Z</time>
      </trkpt>
      <trkpt lat="41.9432700" lon="2.6938390">
        <ele>202.0</ele>
        <time>2022-05-26T18:25:22Z</time>
      </trkpt>
      <trkpt lat="41.9433490" lon="2.6938500">
        <ele>202.2</ele>
        <time>2022-05-26T18:25:23Z</time>
      </trkpt>
      <trkpt lat="41.9434360" lon="2.6938510">
        <ele>202.2</ele>
        <time>2022-05-26T18:25:24Z</time>
      </trkpt>
      <trkpt lat="41.9435110" lon="2.6938340">
        <ele>202.4</ele>
        <time>2022-05-26T18:25:25Z</time>
      </trkpt>
      <trkpt lat="41.9435670" lon="2.6937990">
        <ele>202.4</ele>
        <time>2022-05-26T18:25:26Z</time>
      </trkpt>
      <trkpt lat="41.9436070" lon="2.6937640">
        <ele>202.4</ele>
        <time>2022-05-26T18:25:27Z</time>
      </trkpt>
      <trkpt lat="41.9436220" lon="2.6937390">
        <ele>202.6</ele>
        <time>2022-05-26T18:25:28Z</time>
      </trkpt>
      <trkpt lat="41.9436220" lon="2.6937390">
        <ele>202.6</ele>
        <time>2022-05-26T18:25:29Z</time>
      </trkpt>
      <trkpt lat="41.9436250" lon="2.6937250">
        <ele>202.8</ele>
        <time>2022-05-26T18:25:30Z</time>
      </trkpt>
      <trkpt lat="41.9436220" lon="2.6937260">
        <ele>202.8</ele>
        <time>2022-05-26T18:25:31Z</time>
      </trkpt>
      <trkpt lat="41.9436190" lon="2.6937270">
        <ele>202.8</ele>
        <time>2022-05-26T18:25:32Z</time>
      </trkpt>
      <trkpt lat="41.9436170" lon="2.6937260">
        <ele>202.8</ele>
        <time>2022-05-26T18:25:33Z</time>
      </trkpt>
      <trkpt lat="41.9436150" lon="2.6937250">
        <ele>202.8</ele>
        <time>2022-05-26T18:25:34Z</time>
      </trkpt>
      <trkpt lat="41.9436180" lon="2.6935960">
        <ele>182.4</ele>
        <time>2022-05-27T05:09:57Z</time>
      </trkpt>
      <trkpt lat="41.9436140" lon="2.6936530">
        <ele>182.8</ele>
        <time>2022-05-27T05:09:58Z</time>
      </trkpt>
      <trkpt lat="41.9436090" lon="2.6937120">
        <ele>183.2</ele>
        <time>2022-05-27T05:09:59Z</time>
      </trkpt>
      <trkpt lat="41.9436130" lon="2.6937710">
        <ele>183.6</ele>
        <time>2022-05-27T05:10:00Z</time>
      </trkpt>
      <trkpt lat="41.9436210" lon="2.6938220">
        <ele>184.0</ele>
        <time>2022-05-27T05:10:01Z</time>
      </trkpt>
      <trkpt lat="41.9436340" lon="2.6938670">
        <ele>184.2</ele>
        <time>2022-05-27T05:10:02Z</time>
      </trkpt>
      <trkpt lat="41.9436490" lon="2.6939110">
        <ele>184.4</ele>
        <time>2022-05-27T05:10:03Z</time>
      </trkpt>
      <trkpt lat="41.9436620" lon="2.6939470">
        <ele>184.6</ele>
        <time>2022-05-27T05:10:04Z</time>
      </trkpt>
      <trkpt lat="41.9436800" lon="2.6939800">
        <ele>185.0</ele>
        <time>2022-05-27T05:10:05Z</time>
      </trkpt>
      <trkpt lat="41.9436940" lon="2.6940210">
        <ele>185.2</ele>
        <time>2022-05-27T05:10:06Z</time>
      </trkpt>
      <trkpt lat="41.9437130" lon="2.6940740">
        <ele>185.6</ele>
        <time>2022-05-27T05:10:07Z</time>
      </trkpt>
      <trkpt lat="41.9437400" lon="2.6941330">
        <ele>186.0</ele>
        <time>2022-05-27T05:10:08Z</time>
      </trkpt>
      <trkpt lat="41.9437740" lon="2.6941900">
        <ele>186.4</ele>
        <time>2022-05-27T05:10:09Z</time>
      </trkpt>
      <trkpt lat="41.9438100" lon="2.6942380">
        <ele>187.0</ele>
        <time>2022-05-27T05:10:10Z</time>
      </trkpt>
      <trkpt lat="41.9438470" lon="2.6942730">
        <ele>187.6</ele>
        <time>2022-05-27T05:10:11Z</time>
      </trkpt>
      <trkpt lat="41.9438850" lon="2.6942960">
        <ele>188.0</ele>
        <time>2022-05-27T05:10:12Z</time>
      </trkpt>
      <trkpt lat="41.9439230" lon="2.6943140">
        <ele>188.6</ele>
        <time>2022-05-27T05:10:13Z</time>
      </trkpt>
      <trkpt lat="41.9439600" lon="2.6943260">
        <ele>189.2</ele>
        <time>2022-05-27T05:10:14Z</time>
      </trkpt>
      <trkpt lat="41.9439910" lon="2.6943310">
        <ele>189.8</ele>
        <time>2022-05-27T05:10:15Z</time>
      </trkpt>
      <trkpt lat="41.9440190" lon="2.6943400">
        <ele>190.4</ele>
        <time>2022-05-27T05:10:16Z</time>
      </trkpt>
      <trkpt lat="41.9440490" lon="2.6943590">
        <ele>191.0</ele>
        <time>2022-05-27T05:10:17Z</time>
      </trkpt>
      <trkpt lat="41.9440870" lon="2.6943880">
        <ele>191.8</ele>
        <time>2022-05-27T05:10:18Z</time>
      </trkpt>
      <trkpt lat="41.9441290" lon="2.6944270">
        <ele>192.6</ele>
        <time>2022-05-27T05:10:19Z</time>
      </trkpt>
      <trkpt lat="41.9441740" lon="2.6944560">
        <ele>193.4</ele>
        <time>2022-05-27T05:10:20Z</time>
      </trkpt>
      <trkpt lat="41.9442190" lon="2.6944700">
        <ele>194.2</ele>
        <time>2022-05-27T05:10:21Z</time>
      </trkpt>
      <trkpt lat="41.9442670" lon="2.6944820">
        <ele>194.8</ele>
        <time>2022-05-27T05:10:22Z</time>
      </trkpt>
      <trkpt lat="41.9443180" lon="2.6945060">
        <ele>195.6</ele>
        <time>2022-05-27T05:10:23Z</time>
      </trkpt>
      <trkpt lat="41.9443680" lon="2.6945500">
        <ele>196.4</ele>
        <time>2022-05-27T05:10:24Z</time>
      </trkpt>
      <trkpt lat="41.9444140" lon="2.6946030">
        <ele>197.0</ele>
        <time>2022-05-27T05:10:25Z</time>
      </trkpt>
      <trkpt lat="41.9444610" lon="2.6946560">
        <ele>197.4</ele>
        <time>2022-05-27T05:10:26Z</time>
      </trkpt>
      <trkpt lat="41.9445140" lon="2.6947000">
        <ele>197.8</ele>
        <time>2022-05-27T05:10:27Z</time>
      </trkpt>
      <trkpt lat="41.9445700" lon="2.6947430">
        <ele>198.4</ele>
        <time>2022-05-27T05:10:28Z</time>
      </trkpt>
      <trkpt lat="41.9446210" lon="2.6947840">
        <ele>198.8</ele>
        <time>2022-05-27T05:10:29Z</time>
      </trkpt>
      <trkpt lat="41.9446640" lon="2.6948190">
        <ele>199.2</ele>
        <time>2022-05-27T05:10:30Z</time>
      </trkpt>
      <trkpt lat="41.9447030" lon="2.6948560">
        <ele>199.6</ele>
        <time>2022-05-27T05:10:31Z</time>
      </trkpt>
      <trkpt lat="41.9447440" lon="2.6948990">
        <ele>200.0</ele>
        <time>2022-05-27T05:10:32Z</time>
      </trkpt>
      <trkpt lat="41.9447870" lon="2.6949500">
        <ele>200.4</ele>
        <time>2022-05-27T05:10:33Z</time>
      </trkpt>
      <trkpt lat="41.9448320" lon="2.6950110">
        <ele>200.8</ele>
        <time>2022-05-27T05:10:34Z</time>
      </trkpt>
      <trkpt lat="41.9448840" lon="2.6950740">
        <ele>201.2</ele>
        <time>2022-05-27T05:10:35Z</time>
      </trkpt>
      <trkpt lat="41.9449480" lon="2.6951270">
        <ele>201.6</ele>
        <time>2022-05-27T05:10:36Z</time>
      </trkpt>
      <trkpt lat="41.9450170" lon="2.6951660">
        <ele>201.8</ele>
        <time>2022-05-27T05:10:37Z</time>
      </trkpt>
      <trkpt lat="41.9450820" lon="2.6952000">
        <ele>202.0</ele>
        <time>2022-05-27T05:10:38Z</time>
      </trkpt>
      <trkpt lat="41.9451400" lon="2.6952390">
        <ele>202.0</ele>
        <time>2022-05-27T05:10:39Z</time>
      </trkpt>
      <trkpt lat="41.9451910" lon="2.6952820">
        <ele>202.4</ele>
        <time>2022-05-27T05:10:40Z</time>
      </trkpt>
      <trkpt lat="41.9452340" lon="2.6953310">
        <ele>202.6</ele>
        <time>2022-05-27T05:10:41Z</time>
      </trkpt>
      <trkpt lat="41.9452680" lon="2.6953920">
        <ele>202.8</ele>
        <time>2022-05-27T05:10:42Z</time>
      </trkpt>
      <trkpt lat="41.9452900" lon="2.6954700">
        <ele>202.8</ele>
        <time>2022-05-27T05:10:43Z</time>
      </trkpt>
      <trkpt lat="41.9453000" lon="2.6955640">
        <ele>203.0</ele>
        <time>2022-05-27T05:10:44Z</time>
      </trkpt>
      <trkpt lat="41.9453090" lon="2.6956750">
        <ele>202.8</ele>
        <time>2022-05-27T05:10:45Z</time>
      </trkpt>
      <trkpt lat="41.9453110" lon="2.6957830">
        <ele>202.8</ele>
        <time>2022-05-27T05:10:46Z</time>
      </trkpt>
      <trkpt lat="41.9453060" lon="2.6958800">
        <ele>202.8</ele>
        <time>2022-05-27T05:10:47Z</time>
      </trkpt>
      <trkpt lat="41.9453100" lon="2.6959680">
        <ele>202.8</ele>
        <time>2022-05-27T05:10:48Z</time>
      </trkpt>
      <trkpt lat="41.9453270" lon="2.6960390">
        <ele>203.0</ele>
        <time>2022-05-27T05:10:49Z</time>
      </trkpt>
      <trkpt lat="41.9453590" lon="2.6960800">
        <ele>203.0</ele>
        <time>2022-05-27T05:10:50Z</time>
      </trkpt>
      <trkpt lat="41.9454070" lon="2.6960990">
        <ele>203.2</ele>
        <time>2022-05-27T05:10:51Z</time>
      </trkpt>
      <trkpt lat="41.9454470" lon="2.6961170">
        <ele>203.4</ele>
        <time>2022-05-27T05:10:52Z</time>
      </trkpt>
      <trkpt lat="41.9454920" lon="2.6961390">
        <ele>203.6</ele>
        <time>2022-05-27T05:10:53Z</time>
      </trkpt>
      <trkpt lat="41.9455270" lon="2.6961650">
        <ele>204.0</ele>
        <time>2022-05-27T05:10:54Z</time>
      </trkpt>
      <trkpt lat="41.9455660" lon="2.6961880">
        <ele>204.2</ele>
        <time>2022-05-27T05:10:55Z</time>
      </trkpt>
      <trkpt lat="41.9456100" lon="2.6962080">
        <ele>204.4</ele>
        <time>2022-05-27T05:10:56Z</time>
      </trkpt>
      <trkpt lat="41.9456560" lon="2.6962340">
        <ele>204.8</ele>
        <time>2022-05-27T05:10:57Z</time>
      </trkpt>
      <trkpt lat="41.9457030" lon="2.6962720">
        <ele>205.0</ele>
        <time>2022-05-27T05:10:58Z</time>
      </trkpt>
      <trkpt lat="41.9457510" lon="2.6963190">
        <ele>205.4</ele>
        <time>2022-05-27T05:10:59Z</time>
      </trkpt>
      <trkpt lat="41.9457990" lon="2.6963740">
        <ele>205.6</ele>
        <time>2022-05-27T05:11:00Z</time>
      </trkpt>
      <trkpt lat="41.9458390" lon="2.6964370">
        <ele>205.8</ele>
        <time>2022-05-27T05:11:01Z</time>
      </trkpt>
      <trkpt lat="41.9458690" lon="2.6965130">
        <ele>206.2</ele>
        <time>2022-05-27T05:11:02Z</time>
      </trkpt>
      <trkpt lat="41.9458920" lon="2.6965950">
        <ele>206.4</ele>
        <time>2022-05-27T05:11:03Z</time>
      </trkpt>
      <trkpt lat="41.9459130" lon="2.6966730">
        <ele>206.8</ele>
        <time>2022-05-27T05:11:04Z</time>
      </trkpt>
      <trkpt lat="41.9459350" lon="2.6967420">
        <ele>207.0</ele>
        <time>2022-05-27T05:11:05Z</time>
      </trkpt>
      <trkpt lat="41.9459630" lon="2.6967990">
        <ele>207.2</ele>
        <time>2022-05-27T05:11:06Z</time>
      </trkpt>
      <trkpt lat="41.9459940" lon="2.6968360">
        <ele>207.6</ele>
        <time>2022-05-27T05:11:07Z</time>
      </trkpt>
      <trkpt lat="41.9460320" lon="2.6968480">
        <ele>208.0</ele>
        <time>2022-05-27T05:11:08Z</time>
      </trkpt>
      <trkpt lat="41.9460780" lon="2.6968410">
        <ele>208.4</ele>
        <time>2022-05-27T05:11:09Z</time>
      </trkpt>
      <trkpt lat="41.9461290" lon="2.6968120">
        <ele>208.8</ele>
        <time>2022-05-27T05:11:10Z</time>
      </trkpt>
      <trkpt lat="41.9461840" lon="2.6967700">
        <ele>209.4</ele>
        <time>2022-05-27T05:11:11Z</time>
      </trkpt>
      <trkpt lat="41.9462360" lon="2.6967300">
        <ele>209.8</ele>
        <time>2022-05-27T05:11:12Z</time>
      </trkpt>
      <trkpt lat="41.9462840" lon="2.6966920">
        <ele>210.4</ele>
        <time>2022-05-27T05:11:13Z</time>
      </trkpt>
      <trkpt lat="41.9463360" lon="2.6966540">
        <ele>211.0</ele>
        <time>2022-05-27T05:11:14Z</time>
      </trkpt>
      <trkpt lat="41.9463960" lon="2.6966340">
        <ele>211.8</ele>
        <time>2022-05-27T05:11:15Z</time>
      </trkpt>
      <trkpt lat="41.9464570" lon="2.6966290">
        <ele>212.2</ele>
        <time>2022-05-27T05:11:16Z</time>
      </trkpt>
      <trkpt lat="41.9465220" lon="2.6966350">
        <ele>212.8</ele>
        <time>2022-05-27T05:11:17Z</time>
      </trkpt>
      <trkpt lat="41.9465910" lon="2.6966570">
        <ele>213.4</ele>
        <time>2022-05-27T05:11:18Z</time>
      </trkpt>
      <trkpt lat="41.9466610" lon="2.6966980">
        <ele>213.8</ele>
        <time>2022-05-27T05:11:19Z</time>
      </trkpt>
      <trkpt lat="41.9467270" lon="2.6967470">
        <ele>214.4</ele>
        <time>2022-05-27T05:11:20Z</time>
      </trkpt>
      <trkpt lat="41.9467850" lon="2.6968000">
        <ele>214.8</ele>
        <time>2022-05-27T05:11:21Z</time>
      </trkpt>
      <trkpt lat="41.9468310" lon="2.6968560">
        <ele>215.2</ele>
        <time>2022-05-27T05:11:22Z</time>
      </trkpt>
      <trkpt lat="41.9468690" lon="2.6969020">
        <ele>215.6</ele>
        <time>2022-05-27T05:11:23Z</time>
      </trkpt>
      <trkpt lat="41.9469040" lon="2.6969620">
        <ele>216.2</ele>
        <time>2022-05-27T05:11:24Z</time>
      </trkpt>
      <trkpt lat="41.9469100" lon="2.6970310">
        <ele>216.6</ele>
        <time>2022-05-27T05:11:25Z</time>
      </trkpt>
      <trkpt lat="41.9468980" lon="2.6971190">
        <ele>216.8</ele>
        <time>2022-05-27T05:11:26Z</time>
      </trkpt>
      <trkpt lat="41.9468470" lon="2.6972120">
        <ele>217.0</ele>
        <time>2022-05-27T05:11:27Z</time>
      </trkpt>
      <trkpt lat="41.9467770" lon="2.6973060">
        <ele>217.2</ele>
        <time>2022-05-27T05:11:28Z</time>
      </trkpt>
      <trkpt lat="41.9467300" lon="2.6973900">
        <ele>217.4</ele>
        <time>2022-05-27T05:11:29Z</time>
      </trkpt>
      <trkpt lat="41.9467020" lon="2.6974720">
        <ele>217.6</ele>
        <time>2022-05-27T05:11:30Z</time>
      </trkpt>
      <trkpt lat="41.9466830" lon="2.6975480">
        <ele>218.0</ele>
        <time>2022-05-27T05:11:31Z</time>
      </trkpt>
      <trkpt lat="41.9466760" lon="2.6976290">
        <ele>218.2</ele>
        <time>2022-05-27T05:11:32Z</time>
      </trkpt>
      <trkpt lat="41.9466700" lon="2.6977130">
        <ele>218.4</ele>
        <time>2022-05-27T05:11:33Z</time>
      </trkpt>
      <trkpt lat="41.9466810" lon="2.6977880">
        <ele>218.6</ele>
        <time>2022-05-27T05:11:34Z</time>
      </trkpt>
      <trkpt lat="41.9467100" lon="2.6978520">
        <ele>219.2</ele>
        <time>2022-05-27T05:11:35Z</time>
      </trkpt>
      <trkpt lat="41.9467430" lon="2.6979150">
        <ele>219.4</ele>
        <time>2022-05-27T05:11:36Z</time>
      </trkpt>
      <trkpt lat="41.9467680" lon="2.6979930">
        <ele>219.6</ele>
        <time>2022-05-27T05:11:37Z</time>
      </trkpt>
      <trkpt lat="41.9467960" lon="2.6980830">
        <ele>219.8</ele>
        <time>2022-05-27T05:11:38Z</time>
      </trkpt>
      <trkpt lat="41.9468320" lon="2.6981790">
        <ele>220.0</ele>
        <time>2022-05-27T05:11:39Z</time>
      </trkpt>
      <trkpt lat="41.9468770" lon="2.6982660">
        <ele>220.0</ele>
        <time>2022-05-27T05:11:40Z</time>
      </trkpt>
      <trkpt lat="41.9469200" lon="2.6983170">
        <ele>220.2</ele>
        <time>2022-05-27T05:11:41Z</time>
      </trkpt>
      <trkpt lat="41.9469600" lon="2.6983430">
        <ele>220.4</ele>
        <time>2022-05-27T05:11:42Z</time>
      </trkpt>
      <trkpt lat="41.9469990" lon="2.6983700">
        <ele>220.6</ele>
        <time>2022-05-27T05:11:43Z</time>
      </trkpt>
      <trkpt lat="41.9470370" lon="2.6984070">
        <ele>220.8</ele>
        <time>2022-05-27T05:11:44Z</time>
      </trkpt>
      <trkpt lat="41.9470770" lon="2.6984630">
        <ele>221.0</ele>
        <time>2022-05-27T05:11:45Z</time>
      </trkpt>
      <trkpt lat="41.9471120" lon="2.6985310">
        <ele>221.4</ele>
        <time>2022-05-27T05:11:46Z</time>
      </trkpt>
      <trkpt lat="41.9471430" lon="2.6985940">
        <ele>221.8</ele>
        <time>2022-05-27T05:11:47Z</time>
      </trkpt>
      <trkpt lat="41.9471740" lon="2.6986520">
        <ele>222.4</ele>
        <time>2022-05-27T05:11:48Z</time>
      </trkpt>
      <trkpt lat="41.9472070" lon="2.6987110">
        <ele>222.8</ele>
        <time>2022-05-27T05:11:49Z</time>
      </trkpt>
      <trkpt lat="41.9472500" lon="2.6987720">
        <ele>223.2</ele>
        <time>2022-05-27T05:11:50Z</time>
      </trkpt>
      <trkpt lat="41.9472970" lon="2.6988330">
        <ele>223.6</ele>
        <time>2022-05-27T05:11:51Z</time>
      </trkpt>
      <trkpt lat="41.9473380" lon="2.6988870">
        <ele>224.2</ele>
        <time>2022-05-27T05:11:52Z</time>
      </trkpt>
      <trkpt lat="41.9473670" lon="2.6989320">
        <ele>224.6</ele>
        <time>2022-05-27T05:11:53Z</time>
      </trkpt>
      <trkpt lat="41.9473740" lon="2.6989690">
        <ele>225.2</ele>
        <time>2022-05-27T05:11:54Z</time>
      </trkpt>
      <trkpt lat="41.9473740" lon="2.6990000">
        <ele>225.6</ele>
        <time>2022-05-27T05:11:55Z</time>
      </trkpt>
      <trkpt lat="41.9473610" lon="2.6990340">
        <ele>226.2</ele>
        <time>2022-05-27T05:11:56Z</time>
      </trkpt>
      <trkpt lat="41.9473460" lon="2.6990730">
        <ele>226.8</ele>
        <time>2022-05-27T05:11:57Z</time>
      </trkpt>
      <trkpt lat="41.9473250" lon="2.6991180">
        <ele>227.2</ele>
        <time>2022-05-27T05:11:58Z</time>
      </trkpt>
      <trkpt lat="41.9472980" lon="2.6991380">
        <ele>227.6</ele>
        <time>2022-05-27T05:11:59Z</time>
      </trkpt>
      <trkpt lat="41.9472690" lon="2.6991410">
        <ele>228.0</ele>
        <time>2022-05-27T05:12:00Z</time>
      </trkpt>
      <trkpt lat="41.9472330" lon="2.6991120">
        <ele>228.4</ele>
        <time>2022-05-27T05:12:01Z</time>
      </trkpt>
      <trkpt lat="41.9471810" lon="2.6990790">
        <ele>228.6</ele>
        <time>2022-05-27T05:12:02Z</time>
      </trkpt>
      <trkpt lat="41.9471150" lon="2.6990530">
        <ele>228.8</ele>
        <time>2022-05-27T05:12:03Z</time>
      </trkpt>
      <trkpt lat="41.9470480" lon="2.6990490">
        <ele>228.8</ele>
        <time>2022-05-27T05:12:04Z</time>
      </trkpt>
      <trkpt lat="41.9469850" lon="2.6990540">
        <ele>228.8</ele>
        <time>2022-05-27T05:12:05Z</time>
      </trkpt>
      <trkpt lat="41.9469280" lon="2.6990730">
        <ele>229.0</ele>
        <time>2022-05-27T05:12:06Z</time>
      </trkpt>
      <trkpt lat="41.9468820" lon="2.6990740">
        <ele>229.2</ele>
        <time>2022-05-27T05:12:07Z</time>
      </trkpt>
      <trkpt lat="41.9468510" lon="2.6990670">
        <ele>229.2</ele>
        <time>2022-05-27T05:12:08Z</time>
      </trkpt>
      <trkpt lat="41.9468180" lon="2.6990530">
        <ele>229.2</ele>
        <time>2022-05-27T05:12:09Z</time>
      </trkpt>
      <trkpt lat="41.9467780" lon="2.6990500">
        <ele>229.4</ele>
        <time>2022-05-27T05:12:10Z</time>
      </trkpt>
      <trkpt lat="41.9467330" lon="2.6990690">
        <ele>229.4</ele>
        <time>2022-05-27T05:12:11Z</time>
      </trkpt>
      <trkpt lat="41.9466860" lon="2.6991050">
        <ele>229.4</ele>
        <time>2022-05-27T05:12:12Z</time>
      </trkpt>
      <trkpt lat="41.9466440" lon="2.6991540">
        <ele>229.4</ele>
        <time>2022-05-27T05:12:13Z</time>
      </trkpt>
      <trkpt lat="41.9466050" lon="2.6991930">
        <ele>229.2</ele>
        <time>2022-05-27T05:12:14Z</time>
      </trkpt>
      <trkpt lat="41.9465640" lon="2.6992290">
        <ele>229.0</ele>
        <time>2022-05-27T05:12:15Z</time>
      </trkpt>
      <trkpt lat="41.9465210" lon="2.6992660">
        <ele>228.6</ele>
        <time>2022-05-27T05:12:16Z</time>
      </trkpt>
      <trkpt lat="41.9464800" lon="2.6993010">
        <ele>228.4</ele>
        <time>2022-05-27T05:12:17Z</time>
      </trkpt>
      <trkpt lat="41.9464470" lon="2.6993350">
        <ele>227.8</ele>
        <time>2022-05-27T05:12:18Z</time>
      </trkpt>
      <trkpt lat="41.9464200" lon="2.6993730">
        <ele>227.4</ele>
        <time>2022-05-27T05:12:19Z</time>
      </trkpt>
      <trkpt lat="41.9464000" lon="2.6994120">
        <ele>226.8</ele>
        <time>2022-05-27T05:12:20Z</time>
      </trkpt>
      <trkpt lat="41.9463840" lon="2.6994400">
        <ele>226.4</ele>
        <time>2022-05-27T05:12:21Z</time>
      </trkpt>
      <trkpt lat="41.9463700" lon="2.6994550">
        <ele>225.8</ele>
        <time>2022-05-27T05:12:22Z</time>
      </trkpt>
      <trkpt lat="41.9463540" lon="2.6994620">
        <ele>225.6</ele>
        <time>2022-05-27T05:12:23Z</time>
      </trkpt>
      <trkpt lat="41.9463330" lon="2.6994570">
        <ele>225.2</ele>
        <time>2022-05-27T05:12:24Z</time>
      </trkpt>
      <trkpt lat="41.9463120" lon="2.6994290">
        <ele>225.0</ele>
        <time>2022-05-27T05:12:25Z</time>
      </trkpt>
      <trkpt lat="41.9462940" lon="2.6993860">
        <ele>225.0</ele>
        <time>2022-05-27T05:12:26Z</time>
      </trkpt>
      <trkpt lat="41.9462690" lon="2.6993400">
        <ele>225.0</ele>
        <time>2022-05-27T05:12:27Z</time>
      </trkpt>
      <trkpt lat="41.9462360" lon="2.6992860">
        <ele>225.0</ele>
        <time>2022-05-27T05:12:28Z</time>
      </trkpt>
      <trkpt lat="41.9461990" lon="2.6992230">
        <ele>225.2</ele>
        <time>2022-05-27T05:12:29Z</time>
      </trkpt>
      <trkpt lat="41.9461620" lon="2.6991510">
        <ele>225.2</ele>
        <time>2022-05-27T05:12:30Z</time>
      </trkpt>
      <trkpt lat="41.9461230" lon="2.6990730">
        <ele>225.4</ele>
        <time>2022-05-27T05:12:31Z</time>
      </trkpt>
      <trkpt lat="41.9460820" lon="2.6989940">
        <ele>225.6</ele>
        <time>2022-05-27T05:12:32Z</time>
      </trkpt>
      <trkpt lat="41.9460400" lon="2.6989130">
        <ele>226.0</ele>
        <time>2022-05-27T05:12:33Z</time>
      </trkpt>
      <trkpt lat="41.9460020" lon="2.6988280">
        <ele>226.2</ele>
        <time>2022-05-27T05:12:34Z</time>
      </trkpt>
      <trkpt lat="41.9459650" lon="2.6987510">
        <ele>226.6</ele>
        <time>2022-05-27T05:12:35Z</time>
      </trkpt>
      <trkpt lat="41.9459280" lon="2.6986910">
        <ele>226.8</ele>
        <time>2022-05-27T05:12:36Z</time>
      </trkpt>
      <trkpt lat="41.9458870" lon="2.6986430">
        <ele>226.8</ele>
        <time>2022-05-27T05:12:37Z</time>
      </trkpt>
      <trkpt lat="41.9458340" lon="2.6986020">
        <ele>227.0</ele>
        <time>2022-05-27T05:12:38Z</time>
      </trkpt>
      <trkpt lat="41.9457690" lon="2.6985600">
        <ele>227.4</ele>
        <time>2022-05-27T05:12:39Z</time>
      </trkpt>
      <trkpt lat="41.9457010" lon="2.6985140">
        <ele>227.6</ele>
        <time>2022-05-27T05:12:40Z</time>
      </trkpt>
      <trkpt lat="41.9456370" lon="2.6984700">
        <ele>228.0</ele>
        <time>2022-05-27T05:12:41Z</time>
      </trkpt>
      <trkpt lat="41.9455730" lon="2.6984380">
        <ele>228.2</ele>
        <time>2022-05-27T05:12:42Z</time>
      </trkpt>
      <trkpt lat="41.9455100" lon="2.6984270">
        <ele>228.8</ele>
        <time>2022-05-27T05:12:43Z</time>
      </trkpt>
      <trkpt lat="41.9454410" lon="2.6984290">
        <ele>229.0</ele>
        <time>2022-05-27T05:12:44Z</time>
      </trkpt>
      <trkpt lat="41.9453650" lon="2.6984530">
        <ele>229.0</ele>
        <time>2022-05-27T05:12:45Z</time>
      </trkpt>
      <trkpt lat="41.9452840" lon="2.6984890">
        <ele>229.0</ele>
        <time>2022-05-27T05:12:46Z</time>
      </trkpt>
      <trkpt lat="41.9452070" lon="2.6985200">
        <ele>229.2</ele>
        <time>2022-05-27T05:12:47Z</time>
      </trkpt>
      <trkpt lat="41.9451440" lon="2.6985520">
        <ele>229.4</ele>
        <time>2022-05-27T05:12:48Z</time>
      </trkpt>
      <trkpt lat="41.9450920" lon="2.6985970">
        <ele>229.4</ele>
        <time>2022-05-27T05:12:49Z</time>
      </trkpt>
      <trkpt lat="41.9450450" lon="2.6986760">
        <ele>229.6</ele>
        <time>2022-05-27T05:12:50Z</time>
      </trkpt>
      <trkpt lat="41.9450050" lon="2.6987710">
        <ele>229.6</ele>
        <time>2022-05-27T05:12:51Z</time>
      </trkpt>
      <trkpt lat="41.9449730" lon="2.6988670">
        <ele>229.6</ele>
        <time>2022-05-27T05:12:52Z</time>
      </trkpt>
      <trkpt lat="41.9449400" lon="2.6989640">
        <ele>229.8</ele>
        <time>2022-05-27T05:12:53Z</time>
      </trkpt>
      <trkpt lat="41.9449030" lon="2.6990660">
        <ele>229.8</ele>
        <time>2022-05-27T05:12:54Z</time>
      </trkpt>
      <trkpt lat="41.9448670" lon="2.6991620">
        <ele>230.0</ele>
        <time>2022-05-27T05:12:55Z</time>
      </trkpt>
      <trkpt lat="41.9448250" lon="2.6992690">
        <ele>230.0</ele>
        <time>2022-05-27T05:12:56Z</time>
      </trkpt>
      <trkpt lat="41.9447890" lon="2.6993700">
        <ele>230.0</ele>
        <time>2022-05-27T05:12:57Z</time>
      </trkpt>
      <trkpt lat="41.9447630" lon="2.6994600">
        <ele>229.8</ele>
        <time>2022-05-27T05:12:58Z</time>
      </trkpt>
      <trkpt lat="41.9447460" lon="2.6995310">
        <ele>229.8</ele>
        <time>2022-05-27T05:12:59Z</time>
      </trkpt>
      <trkpt lat="41.9447280" lon="2.6995870">
        <ele>229.8</ele>
        <time>2022-05-27T05:13:00Z</time>
      </trkpt>
      <trkpt lat="41.9447020" lon="2.6996260">
        <ele>229.8</ele>
        <time>2022-05-27T05:13:01Z</time>
      </trkpt>
      <trkpt lat="41.9446670" lon="2.6996530">
        <ele>229.8</ele>
        <time>2022-05-27T05:13:02Z</time>
      </trkpt>
      <trkpt lat="41.9446260" lon="2.6996800">
        <ele>230.0</ele>
        <time>2022-05-27T05:13:03Z</time>
      </trkpt>
      <trkpt lat="41.9445780" lon="2.6997190">
        <ele>230.0</ele>
        <time>2022-05-27T05:13:04Z</time>
      </trkpt>
      <trkpt lat="41.9445260" lon="2.6997690">
        <ele>230.0</ele>
        <time>2022-05-27T05:13:05Z</time>
      </trkpt>
      <trkpt lat="41.9444750" lon="2.6998180">
        <ele>230.2</ele>
        <time>2022-05-27T05:13:06Z</time>
      </trkpt>
      <trkpt lat="41.9444190" lon="2.6998650">
        <ele>230.6</ele>
        <time>2022-05-27T05:13:07Z</time>
      </trkpt>
      <trkpt lat="41.9443500" lon="2.6999160">
        <ele>231.2</ele>
        <time>2022-05-27T05:13:08Z</time>
      </trkpt>
      <trkpt lat="41.9442770" lon="2.6999730">
        <ele>231.8</ele>
        <time>2022-05-27T05:13:09Z</time>
      </trkpt>
      <trkpt lat="41.9442070" lon="2.7000460">
        <ele>233.0</ele>
        <time>2022-05-27T05:13:10Z</time>
      </trkpt>
      <trkpt lat="41.9441370" lon="2.7001340">
        <ele>233.8</ele>
        <time>2022-05-27T05:13:11Z</time>
      </trkpt>
      <trkpt lat="41.9440700" lon="2.7002250">
        <ele>234.0</ele>
        <time>2022-05-27T05:13:12Z</time>
      </trkpt>
      <trkpt lat="41.9439920" lon="2.7003250">
        <ele>234.2</ele>
        <time>2022-05-27T05:13:13Z</time>
      </trkpt>
      <trkpt lat="41.9438980" lon="2.7004340">
        <ele>234.4</ele>
        <time>2022-05-27T05:13:14Z</time>
      </trkpt>
      <trkpt lat="41.9438130" lon="2.7005230">
        <ele>234.8</ele>
        <time>2022-05-27T05:13:15Z</time>
      </trkpt>
      <trkpt lat="41.9437390" lon="2.7005870">
        <ele>235.2</ele>
        <time>2022-05-27T05:13:16Z</time>
      </trkpt>
      <trkpt lat="41.9436680" lon="2.7006320">
        <ele>235.6</ele>
        <time>2022-05-27T05:13:17Z</time>
      </trkpt>
      <trkpt lat="41.9435940" lon="2.7006580">
        <ele>236.4</ele>
        <time>2022-05-27T05:13:18Z</time>
      </trkpt>
      <trkpt lat="41.9435110" lon="2.7006720">
        <ele>236.8</ele>
        <time>2022-05-27T05:13:19Z</time>
      </trkpt>
      <trkpt lat="41.9434190" lon="2.7006790">
        <ele>237.2</ele>
        <time>2022-05-27T05:13:20Z</time>
      </trkpt>
      <trkpt lat="41.9433180" lon="2.7006870">
        <ele>237.8</ele>
        <time>2022-05-27T05:13:21Z</time>
      </trkpt>
      <trkpt lat="41.9432170" lon="2.7006960">
        <ele>238.4</ele>
        <time>2022-05-27T05:13:22Z</time>
      </trkpt>
      <trkpt lat="41.9431190" lon="2.7007080">
        <ele>239.2</ele>
        <time>2022-05-27T05:13:23Z</time>
      </trkpt>
      <trkpt lat="41.9430070" lon="2.7007270">
        <ele>240.2</ele>
        <time>2022-05-27T05:13:24Z</time>
      </trkpt>
      <trkpt lat="41.9429010" lon="2.7007440">
        <ele>241.2</ele>
        <time>2022-05-27T05:13:25Z</time>
      </trkpt>
      <trkpt lat="41.9428090" lon="2.7007610">
        <ele>242.0</ele>
        <time>2022-05-27T05:13:26Z</time>
      </trkpt>
      <trkpt lat="41.9427100" lon="2.7007930">
        <ele>242.8</ele>
        <time>2022-05-27T05:13:27Z</time>
      </trkpt>
      <trkpt lat="41.9426270" lon="2.7008360">
        <ele>243.6</ele>
        <time>2022-05-27T05:13:28Z</time>
      </trkpt>
      <trkpt lat="41.9425490" lon="2.7008990">
        <ele>244.2</ele>
        <time>2022-05-27T05:13:29Z</time>
      </trkpt>
      <trkpt lat="41.9424830" lon="2.7009740">
        <ele>244.6</ele>
        <time>2022-05-27T05:13:30Z</time>
      </trkpt>
      <trkpt lat="41.9424100" lon="2.7010740">
        <ele>245.4</ele>
        <time>2022-05-27T05:13:31Z</time>
      </trkpt>
      <trkpt lat="41.9423320" lon="2.7011810">
        <ele>246.0</ele>
        <time>2022-05-27T05:13:32Z</time>
      </trkpt>
      <trkpt lat="41.9422580" lon="2.7012860">
        <ele>247.0</ele>
        <time>2022-05-27T05:13:33Z</time>
      </trkpt>
      <trkpt lat="41.9421810" lon="2.7013850">
        <ele>248.0</ele>
        <time>2022-05-27T05:13:34Z</time>
      </trkpt>
      <trkpt lat="41.9421030" lon="2.7014720">
        <ele>248.8</ele>
        <time>2022-05-27T05:13:35Z</time>
      </trkpt>
      <trkpt lat="41.9420300" lon="2.7015460">
        <ele>249.2</ele>
        <time>2022-05-27T05:13:36Z</time>
      </trkpt>
      <trkpt lat="41.9419540" lon="2.7016230">
        <ele>249.6</ele>
        <time>2022-05-27T05:13:37Z</time>
      </trkpt>
      <trkpt lat="41.9418720" lon="2.7017000">
        <ele>250.2</ele>
        <time>2022-05-27T05:13:38Z</time>
      </trkpt>
      <trkpt lat="41.9417820" lon="2.7017700">
        <ele>250.8</ele>
        <time>2022-05-27T05:13:39Z</time>
      </trkpt>
      <trkpt lat="41.9416960" lon="2.7018150">
        <ele>251.2</ele>
        <time>2022-05-27T05:13:40Z</time>
      </trkpt>
      <trkpt lat="41.9416140" lon="2.7018320">
        <ele>252.0</ele>
        <time>2022-05-27T05:13:41Z</time>
      </trkpt>
      <trkpt lat="41.9415350" lon="2.7018310">
        <ele>252.8</ele>
        <time>2022-05-27T05:13:42Z</time>
      </trkpt>
      <trkpt lat="41.9414570" lon="2.7018100">
        <ele>253.6</ele>
        <time>2022-05-27T05:13:43Z</time>
      </trkpt>
      <trkpt lat="41.9413760" lon="2.7017960">
        <ele>254.2</ele>
        <time>2022-05-27T05:13:44Z</time>
      </trkpt>
      <trkpt lat="41.9412870" lon="2.7017960">
        <ele>254.6</ele>
        <time>2022-05-27T05:13:45Z</time>
      </trkpt>
      <trkpt lat="41.9412000" lon="2.7018190">
        <ele>255.2</ele>
        <time>2022-05-27T05:13:46Z</time>
      </trkpt>
      <trkpt lat="41.9411210" lon="2.7018660">
        <ele>255.6</ele>
        <time>2022-05-27T05:13:47Z</time>
      </trkpt>
      <trkpt lat="41.9410520" lon="2.7019330">
        <ele>256.2</ele>
        <time>2022-05-27T05:13:48Z</time>
      </trkpt>
      <trkpt lat="41.9409930" lon="2.7020110">
        <ele>256.8</ele>
        <time>2022-05-27T05:13:49Z</time>
      </trkpt>
      <trkpt lat="41.9409470" lon="2.7021020">
        <ele>257.6</ele>
        <time>2022-05-27T05:13:50Z</time>
      </trkpt>
      <trkpt lat="41.9409140" lon="2.7022020">
        <ele>258.2</ele>
        <time>2022-05-27T05:13:51Z</time>
      </trkpt>
      <trkpt lat="41.9408840" lon="2.7023300">
        <ele>258.4</ele>
        <time>2022-05-27T05:13:52Z</time>
      </trkpt>
      <trkpt lat="41.9408600" lon="2.7024540">
        <ele>259.0</ele>
        <time>2022-05-27T05:13:53Z</time>
      </trkpt>
      <trkpt lat="41.9408470" lon="2.7025630">
        <ele>259.4</ele>
        <time>2022-05-27T05:13:54Z</time>
      </trkpt>
      <trkpt lat="41.9408480" lon="2.7026640">
        <ele>259.4</ele>
        <time>2022-05-27T05:13:55Z</time>
      </trkpt>
      <trkpt lat="41.9408650" lon="2.7027580">
        <ele>259.4</ele>
        <time>2022-05-27T05:13:56Z</time>
      </trkpt>
      <trkpt lat="41.9408960" lon="2.7028560">
        <ele>259.4</ele>
        <time>2022-05-27T05:13:57Z</time>
      </trkpt>
      <trkpt lat="41.9409300" lon="2.7029320">
        <ele>259.2</ele>
        <time>2022-05-27T05:13:58Z</time>
      </trkpt>
      <trkpt lat="41.9409500" lon="2.7029800">
        <ele>259.0</ele>
        <time>2022-05-27T05:13:59Z</time>
      </trkpt>
      <trkpt lat="41.9409740" lon="2.7030120">
        <ele>258.8</ele>
        <time>2022-05-27T05:14:00Z</time>
      </trkpt>
      <trkpt lat="41.9409870" lon="2.7030310">
        <ele>258.6</ele>
        <time>2022-05-27T05:14:01Z</time>
      </trkpt>
      <trkpt lat="41.9409970" lon="2.7030430">
        <ele>258.4</ele>
        <time>2022-05-27T05:14:02Z</time>
      </trkpt>
      <trkpt lat="41.9410060" lon="2.7030550">
        <ele>258.4</ele>
        <time>2022-05-27T05:14:03Z</time>
      </trkpt>
      <trkpt lat="41.9410100" lon="2.7030640">
        <ele>258.2</ele>
        <time>2022-05-27T05:14:04Z</time>
      </trkpt>
      <trkpt lat="41.9410110" lon="2.7030660">
        <ele>258.2</ele>
        <time>2022-05-27T05:14:05Z</time>
      </trkpt>
      <trkpt lat="41.9410100" lon="2.7030650">
        <ele>258.2</ele>
        <time>2022-05-27T05:14:06Z</time>
      </trkpt>
      <trkpt lat="41.9410100" lon="2.7030650">
        <ele>258.2</ele>
        <time>2022-05-27T05:14:07Z</time>
      </trkpt>
      <trkpt lat="41.9410100" lon="2.7030650">
        <ele>258.2</ele>
        <time>2022-05-27T05:14:08Z</time>
      </trkpt>
      <trkpt lat="41.9410970" lon="2.7031030">
        <ele>258.0</ele>
        <time>2022-05-27T05:14:19Z</time>
      </trkpt>
      <trkpt lat="41.9411060" lon="2.7031100">
        <ele>258.0</ele>
        <time>2022-05-27T05:14:20Z</time>
      </trkpt>
      <trkpt lat="41.9411110" lon="2.7031150">
        <ele>258.0</ele>
        <time>2022-05-27T05:14:21Z</time>
      </trkpt>
      <trkpt lat="41.9411110" lon="2.7031160">
        <ele>258.0</ele>
        <time>2022-05-27T05:14:22Z</time>
      </trkpt>
      <trkpt lat="41.9411140" lon="2.7031200">
        <ele>258.0</ele>
        <time>2022-05-27T05:14:23Z</time>
      </trkpt>
      <trkpt lat="41.9411260" lon="2.7031410">
        <ele>258.0</ele>
        <time>2022-05-27T05:14:24Z</time>
      </trkpt>
      <trkpt lat="41.9411480" lon="2.7031760">
        <ele>258.0</ele>
        <time>2022-05-27T05:14:25Z</time>
      </trkpt>
      <trkpt lat="41.9411750" lon="2.7032190">
        <ele>258.0</ele>
        <time>2022-05-27T05:14:26Z</time>
      </trkpt>
      <trkpt lat="41.9412060" lon="2.7032680">
        <ele>258.2</ele>
        <time>2022-05-27T05:14:27Z</time>
      </trkpt>
      <trkpt lat="41.9412430" lon="2.7033200">
        <ele>258.4</ele>
        <time>2022-05-27T05:14:28Z</time>
      </trkpt>
      <trkpt lat="41.9412890" lon="2.7033910">
        <ele>258.6</ele>
        <time>2022-05-27T05:14:29Z</time>
      </trkpt>
      <trkpt lat="41.9413370" lon="2.7034710">
        <ele>258.6</ele>
        <time>2022-05-27T05:14:30Z</time>
      </trkpt>
      <trkpt lat="41.9413830" lon="2.7035470">
        <ele>258.8</ele>
        <time>2022-05-27T05:14:31Z</time>
      </trkpt>
      <trkpt lat="41.9414240" lon="2.7036170">
        <ele>259.0</ele>
        <time>2022-05-27T05:14:32Z</time>
      </trkpt>
      <trkpt lat="41.9414670" lon="2.7036960">
        <ele>259.2</ele>
        <time>2022-05-27T05:14:33Z</time>
      </trkpt>
      <trkpt lat="41.9415180" lon="2.7037860">
        <ele>259.2</ele>
        <time>2022-05-27T05:14:34Z</time>
      </trkpt>
      <trkpt lat="41.9415670" lon="2.7038710">
        <ele>259.2</ele>
        <time>2022-05-27T05:14:35Z</time>
      </trkpt>
      <trkpt lat="41.9416120" lon="2.7039550">
        <ele>259.2</ele>
        <time>2022-05-27T05:14:36Z</time>
      </trkpt>
      <trkpt lat="41.9416520" lon="2.7040350">
        <ele>259.2</ele>
        <time>2022-05-27T05:14:37Z</time>
      </trkpt>
      <trkpt lat="41.9416850" lon="2.7041080">
        <ele>259.0</ele>
        <time>2022-05-27T05:14:38Z</time>
      </trkpt>
      <trkpt lat="41.9417150" lon="2.7041940">
        <ele>259.0</ele>
        <time>2022-05-27T05:14:39Z</time>
      </trkpt>
      <trkpt lat="41.9417410" lon="2.7042910">
        <ele>258.8</ele>
        <time>2022-05-27T05:14:40Z</time>
      </trkpt>
      <trkpt lat="41.9417630" lon="2.7043700">
        <ele>258.6</ele>
        <time>2022-05-27T05:14:41Z</time>
      </trkpt>
      <trkpt lat="41.9417860" lon="2.7044560">
        <ele>258.2</ele>
        <time>2022-05-27T05:14:42Z</time>
      </trkpt>
      <trkpt lat="41.9418160" lon="2.7045490">
        <ele>257.8</ele>
        <time>2022-05-27T05:14:43Z</time>
      </trkpt>
      <trkpt lat="41.9418540" lon="2.7046140">
        <ele>257.4</ele>
        <time>2022-05-27T05:14:44Z</time>
      </trkpt>
      <trkpt lat="41.9419100" lon="2.7046580">
        <ele>257.0</ele>
        <time>2022-05-27T05:14:45Z</time>
      </trkpt>
      <trkpt lat="41.9419810" lon="2.7046860">
        <ele>256.4</ele>
        <time>2022-05-27T05:14:46Z</time>
      </trkpt>
      <trkpt lat="41.9420610" lon="2.7047060">
        <ele>255.8</ele>
        <time>2022-05-27T05:14:47Z</time>
      </trkpt>
      <trkpt lat="41.9421410" lon="2.7047290">
        <ele>255.2</ele>
        <time>2022-05-27T05:14:48Z</time>
      </trkpt>
      <trkpt lat="41.9422170" lon="2.7047590">
        <ele>254.8</ele>
        <time>2022-05-27T05:14:49Z</time>
      </trkpt>
      <trkpt lat="41.9422740" lon="2.7047900">
        <ele>254.2</ele>
        <time>2022-05-27T05:14:50Z</time>
      </trkpt>
      <trkpt lat="41.9423130" lon="2.7048370">
        <ele>253.8</ele>
        <time>2022-05-27T05:14:51Z</time>
      </trkpt>
      <trkpt lat="41.9423380" lon="2.7049080">
        <ele>253.4</ele>
        <time>2022-05-27T05:14:52Z</time>
      </trkpt>
      <trkpt lat="41.9423510" lon="2.7049860">
        <ele>253.0</ele>
        <time>2022-05-27T05:14:53Z</time>
      </trkpt>
      <trkpt lat="41.9423680" lon="2.7050630">
        <ele>252.6</ele>
        <time>2022-05-27T05:14:54Z</time>
      </trkpt>
      <trkpt lat="41.9423990" lon="2.7051280">
        <ele>252.4</ele>
        <time>2022-05-27T05:14:55Z</time>
      </trkpt>
      <trkpt lat="41.9424310" lon="2.7051820">
        <ele>252.2</ele>
        <time>2022-05-27T05:14:56Z</time>
      </trkpt>
      <trkpt lat="41.9424540" lon="2.7052450">
        <ele>252.0</ele>
        <time>2022-05-27T05:14:57Z</time>
      </trkpt>
      <trkpt lat="41.9424630" lon="2.7053040">
        <ele>251.8</ele>
        <time>2022-05-27T05:14:58Z</time>
      </trkpt>
      <trkpt lat="41.9424610" lon="2.7053490">
        <ele>251.8</ele>
        <time>2022-05-27T05:14:59Z</time>
      </trkpt>
      <trkpt lat="41.9424530" lon="2.7053900">
        <ele>251.8</ele>
        <time>2022-05-27T05:15:00Z</time>
      </trkpt>
      <trkpt lat="41.9424390" lon="2.7054350">
        <ele>251.8</ele>
        <time>2022-05-27T05:15:01Z</time>
      </trkpt>
      <trkpt lat="41.9424260" lon="2.7054840">
        <ele>251.8</ele>
        <time>2022-05-27T05:15:02Z</time>
      </trkpt>
      <trkpt lat="41.9424140" lon="2.7055300">
        <ele>251.8</ele>
        <time>2022-05-27T05:15:03Z</time>
      </trkpt>
      <trkpt lat="41.9424030" lon="2.7055730">
        <ele>251.8</ele>
        <time>2022-05-27T05:15:04Z</time>
      </trkpt>
      <trkpt lat="41.9423940" lon="2.7056120">
        <ele>251.6</ele>
        <time>2022-05-27T05:15:05Z</time>
      </trkpt>
      <trkpt lat="41.9423830" lon="2.7056440">
        <ele>251.6</ele>
        <time>2022-05-27T05:15:06Z</time>
      </trkpt>
      <trkpt lat="41.9423740" lon="2.7056740">
        <ele>251.4</ele>
        <time>2022-05-27T05:15:07Z</time>
      </trkpt>
      <trkpt lat="41.9423690" lon="2.7057040">
        <ele>251.4</ele>
        <time>2022-05-27T05:15:08Z</time>
      </trkpt>
      <trkpt lat="41.9423660" lon="2.7057360">
        <ele>251.2</ele>
        <time>2022-05-27T05:15:09Z</time>
      </trkpt>
      <trkpt lat="41.9423650" lon="2.7057660">
        <ele>251.2</ele>
        <time>2022-05-27T05:15:10Z</time>
      </trkpt>
      <trkpt lat="41.9423640" lon="2.7057980">
        <ele>251.2</ele>
        <time>2022-05-27T05:15:11Z</time>
      </trkpt>
      <trkpt lat="41.9423630" lon="2.7058360">
        <ele>251.0</ele>
        <time>2022-05-27T05:15:12Z</time>
      </trkpt>
      <trkpt lat="41.9423590" lon="2.7058750">
        <ele>251.0</ele>
        <time>2022-05-27T05:15:13Z</time>
      </trkpt>
      <trkpt lat="41.9423530" lon="2.7059140">
        <ele>251.0</ele>
        <time>2022-05-27T05:15:14Z</time>
      </trkpt>
      <trkpt lat="41.9423470" lon="2.7059490">
        <ele>251.0</ele>
        <time>2022-05-27T05:15:15Z</time>
      </trkpt>
      <trkpt lat="41.9423430" lon="2.7059850">
        <ele>251.0</ele>
        <time>2022-05-27T05:15:16Z</time>
      </trkpt>
      <trkpt lat="41.9423390" lon="2.7060210">
        <ele>251.0</ele>
        <time>2022-05-27T05:15:17Z</time>
      </trkpt>
      <trkpt lat="41.9423310" lon="2.7060490">
        <ele>251.0</ele>
        <time>2022-05-27T05:15:18Z</time>
      </trkpt>
      <trkpt lat="41.9423150" lon="2.7060710">
        <ele>251.0</ele>
        <time>2022-05-27T05:15:19Z</time>
      </trkpt>
      <trkpt lat="41.9422950" lon="2.7060940">
        <ele>250.8</ele>
        <time>2022-05-27T05:15:20Z</time>
      </trkpt>
      <trkpt lat="41.9422720" lon="2.7061190">
        <ele>251.0</ele>
        <time>2022-05-27T05:15:21Z</time>
      </trkpt>
      <trkpt lat="41.9422530" lon="2.7061490">
        <ele>251.0</ele>
        <time>2022-05-27T05:15:22Z</time>
      </trkpt>
      <trkpt lat="41.9422390" lon="2.7061910">
        <ele>251.2</ele>
        <time>2022-05-27T05:15:23Z</time>
      </trkpt>
      <trkpt lat="41.9422310" lon="2.7062450">
        <ele>251.6</ele>
        <time>2022-05-27T05:15:24Z</time>
      </trkpt>
      <trkpt lat="41.9422320" lon="2.7063060">
        <ele>252.0</ele>
        <time>2022-05-27T05:15:25Z</time>
      </trkpt>
      <trkpt lat="41.9422390" lon="2.7063750">
        <ele>252.4</ele>
        <time>2022-05-27T05:15:26Z</time>
      </trkpt>
      <trkpt lat="41.9422490" lon="2.7064560">
        <ele>252.8</ele>
        <time>2022-05-27T05:15:27Z</time>
      </trkpt>
      <trkpt lat="41.9422650" lon="2.7065380">
        <ele>253.4</ele>
        <time>2022-05-27T05:15:28Z</time>
      </trkpt>
      <trkpt lat="41.9422840" lon="2.7066160">
        <ele>254.0</ele>
        <time>2022-05-27T05:15:29Z</time>
      </trkpt>
      <trkpt lat="41.9423130" lon="2.7067080">
        <ele>254.4</ele>
        <time>2022-05-27T05:15:30Z</time>
      </trkpt>
      <trkpt lat="41.9423450" lon="2.7068050">
        <ele>254.6</ele>
        <time>2022-05-27T05:15:31Z</time>
      </trkpt>
      <trkpt lat="41.9423800" lon="2.7069010">
        <ele>255.0</ele>
        <time>2022-05-27T05:15:32Z</time>
      </trkpt>
      <trkpt lat="41.9424160" lon="2.7069940">
        <ele>255.4</ele>
        <time>2022-05-27T05:15:33Z</time>
      </trkpt>
      <trkpt lat="41.9424520" lon="2.7070830">
        <ele>255.6</ele>
        <time>2022-05-27T05:15:34Z</time>
      </trkpt>
      <trkpt lat="41.9424890" lon="2.7071690">
        <ele>256.2</ele>
        <time>2022-05-27T05:15:35Z</time>
      </trkpt>
      <trkpt lat="41.9425300" lon="2.7072560">
        <ele>257.0</ele>
        <time>2022-05-27T05:15:36Z</time>
      </trkpt>
      <trkpt lat="41.9425730" lon="2.7073470">
        <ele>257.6</ele>
        <time>2022-05-27T05:15:37Z</time>
      </trkpt>
      <trkpt lat="41.9426160" lon="2.7074440">
        <ele>258.4</ele>
        <time>2022-05-27T05:15:38Z</time>
      </trkpt>
      <trkpt lat="41.9426580" lon="2.7075450">
        <ele>259.2</ele>
        <time>2022-05-27T05:15:39Z</time>
      </trkpt>
      <trkpt lat="41.9427010" lon="2.7076500">
        <ele>259.8</ele>
        <time>2022-05-27T05:15:40Z</time>
      </trkpt>
      <trkpt lat="41.9427480" lon="2.7077570">
        <ele>260.4</ele>
        <time>2022-05-27T05:15:41Z</time>
      </trkpt>
      <trkpt lat="41.9427970" lon="2.7078670">
        <ele>261.0</ele>
        <time>2022-05-27T05:15:42Z</time>
      </trkpt>
      <trkpt lat="41.9428480" lon="2.7079790">
        <ele>261.6</ele>
        <time>2022-05-27T05:15:43Z</time>
      </trkpt>
      <trkpt lat="41.9429030" lon="2.7080890">
        <ele>262.2</ele>
        <time>2022-05-27T05:15:44Z</time>
      </trkpt>
      <trkpt lat="41.9429590" lon="2.7081910">
        <ele>262.6</ele>
        <time>2022-05-27T05:15:45Z</time>
      </trkpt>
      <trkpt lat="41.9430100" lon="2.7082880">
        <ele>262.6</ele>
        <time>2022-05-27T05:15:46Z</time>
      </trkpt>
      <trkpt lat="41.9430620" lon="2.7084070">
        <ele>262.8</ele>
        <time>2022-05-27T05:15:47Z</time>
      </trkpt>
      <trkpt lat="41.9431020" lon="2.7085270">
        <ele>263.0</ele>
        <time>2022-05-27T05:15:48Z</time>
      </trkpt>
      <trkpt lat="41.9431140" lon="2.7086440">
        <ele>263.6</ele>
        <time>2022-05-27T05:15:49Z</time>
      </trkpt>
      <trkpt lat="41.9431170" lon="2.7087660">
        <ele>264.2</ele>
        <time>2022-05-27T05:15:50Z</time>
      </trkpt>
      <trkpt lat="41.9431020" lon="2.7088860">
        <ele>264.6</ele>
        <time>2022-05-27T05:15:51Z</time>
      </trkpt>
      <trkpt lat="41.9430800" lon="2.7090060">
        <ele>265.0</ele>
        <time>2022-05-27T05:15:52Z</time>
      </trkpt>
      <trkpt lat="41.9430580" lon="2.7091290">
        <ele>265.6</ele>
        <time>2022-05-27T05:15:53Z</time>
      </trkpt>
      <trkpt lat="41.9430410" lon="2.7092530">
        <ele>266.2</ele>
        <time>2022-05-27T05:15:54Z</time>
      </trkpt>
      <trkpt lat="41.9430250" lon="2.7093710">
        <ele>267.2</ele>
        <time>2022-05-27T05:15:55Z</time>
      </trkpt>
      <trkpt lat="41.9430100" lon="2.7094890">
        <ele>267.8</ele>
        <time>2022-05-27T05:15:56Z</time>
      </trkpt>
      <trkpt lat="41.9429970" lon="2.7096100">
        <ele>268.6</ele>
        <time>2022-05-27T05:15:57Z</time>
      </trkpt>
      <trkpt lat="41.9429890" lon="2.7097390">
        <ele>269.2</ele>
        <time>2022-05-27T05:15:58Z</time>
      </trkpt>
      <trkpt lat="41.9429840" lon="2.7098650">
        <ele>269.8</ele>
        <time>2022-05-27T05:15:59Z</time>
      </trkpt>
      <trkpt lat="41.9429860" lon="2.7099780">
        <ele>270.4</ele>
        <time>2022-05-27T05:16:00Z</time>
      </trkpt>
      <trkpt lat="41.9429880" lon="2.7101130">
        <ele>270.8</ele>
        <time>2022-05-27T05:16:01Z</time>
      </trkpt>
      <trkpt lat="41.9429840" lon="2.7102540">
        <ele>271.2</ele>
        <time>2022-05-27T05:16:02Z</time>
      </trkpt>
      <trkpt lat="41.9429760" lon="2.7103860">
        <ele>271.6</ele>
        <time>2022-05-27T05:16:03Z</time>
      </trkpt>
      <trkpt lat="41.9429620" lon="2.7105110">
        <ele>272.0</ele>
        <time>2022-05-27T05:16:04Z</time>
      </trkpt>
      <trkpt lat="41.9429440" lon="2.7106220">
        <ele>272.6</ele>
        <time>2022-05-27T05:16:05Z</time>
      </trkpt>
      <trkpt lat="41.9429230" lon="2.7107380">
        <ele>273.2</ele>
        <time>2022-05-27T05:16:06Z</time>
      </trkpt>
      <trkpt lat="41.9429120" lon="2.7108670">
        <ele>273.6</ele>
        <time>2022-05-27T05:16:07Z</time>
      </trkpt>
      <trkpt lat="41.9429100" lon="2.7109860">
        <ele>274.4</ele>
        <time>2022-05-27T05:16:08Z</time>
      </trkpt>
      <trkpt lat="41.9429230" lon="2.7110950">
        <ele>275.4</ele>
        <time>2022-05-27T05:16:09Z</time>
      </trkpt>
      <trkpt lat="41.9429420" lon="2.7112050">
        <ele>276.4</ele>
        <time>2022-05-27T05:16:10Z</time>
      </trkpt>
      <trkpt lat="41.9429590" lon="2.7113180">
        <ele>277.4</ele>
        <time>2022-05-27T05:16:11Z</time>
      </trkpt>
      <trkpt lat="41.9429650" lon="2.7114250">
        <ele>278.4</ele>
        <time>2022-05-27T05:16:12Z</time>
      </trkpt>
      <trkpt lat="41.9429690" lon="2.7115210">
        <ele>279.4</ele>
        <time>2022-05-27T05:16:13Z</time>
      </trkpt>
      <trkpt lat="41.9429700" lon="2.7116250">
        <ele>280.2</ele>
        <time>2022-05-27T05:16:14Z</time>
      </trkpt>
      <trkpt lat="41.9429670" lon="2.7117430">
        <ele>281.2</ele>
        <time>2022-05-27T05:16:15Z</time>
      </trkpt>
      <trkpt lat="41.9429630" lon="2.7118480">
        <ele>281.8</ele>
        <time>2022-05-27T05:16:16Z</time>
      </trkpt>
      <trkpt lat="41.9429610" lon="2.7119390">
        <ele>282.6</ele>
        <time>2022-05-27T05:16:17Z</time>
      </trkpt>
      <trkpt lat="41.9429640" lon="2.7120120">
        <ele>283.2</ele>
        <time>2022-05-27T05:16:18Z</time>
      </trkpt>
      <trkpt lat="41.9429780" lon="2.7120860">
        <ele>284.0</ele>
        <time>2022-05-27T05:16:19Z</time>
      </trkpt>
      <trkpt lat="41.9430050" lon="2.7121550">
        <ele>284.8</ele>
        <time>2022-05-27T05:16:20Z</time>
      </trkpt>
      <trkpt lat="41.9430450" lon="2.7121830">
        <ele>285.8</ele>
        <time>2022-05-27T05:16:21Z</time>
      </trkpt>
      <trkpt lat="41.9430930" lon="2.7121860">
        <ele>286.8</ele>
        <time>2022-05-27T05:16:22Z</time>
      </trkpt>
      <trkpt lat="41.9431520" lon="2.7121510">
        <ele>287.8</ele>
        <time>2022-05-27T05:16:23Z</time>
      </trkpt>
      <trkpt lat="41.9432090" lon="2.7121030">
        <ele>289.0</ele>
        <time>2022-05-27T05:16:24Z</time>
      </trkpt>
      <trkpt lat="41.9432610" lon="2.7120500">
        <ele>290.0</ele>
        <time>2022-05-27T05:16:25Z</time>
      </trkpt>
      <trkpt lat="41.9433110" lon="2.7119930">
        <ele>291.0</ele>
        <time>2022-05-27T05:16:26Z</time>
      </trkpt>
      <trkpt lat="41.9433590" lon="2.7119280">
        <ele>292.2</ele>
        <time>2022-05-27T05:16:27Z</time>
      </trkpt>
      <trkpt lat="41.9434000" lon="2.7118650">
        <ele>293.2</ele>
        <time>2022-05-27T05:16:28Z</time>
      </trkpt>
      <trkpt lat="41.9434410" lon="2.7117950">
        <ele>294.2</ele>
        <time>2022-05-27T05:16:29Z</time>
      </trkpt>
      <trkpt lat="41.9434790" lon="2.7117190">
        <ele>295.0</ele>
        <time>2022-05-27T05:16:30Z</time>
      </trkpt>
      <trkpt lat="41.9435120" lon="2.7116390">
        <ele>296.0</ele>
        <time>2022-05-27T05:16:31Z</time>
      </trkpt>
      <trkpt lat="41.9435470" lon="2.7115530">
        <ele>296.8</ele>
        <time>2022-05-27T05:16:32Z</time>
      </trkpt>
      <trkpt lat="41.9435850" lon="2.7114590">
        <ele>297.6</ele>
        <time>2022-05-27T05:16:33Z</time>
      </trkpt>
      <trkpt lat="41.9436240" lon="2.7113620">
        <ele>298.2</ele>
        <time>2022-05-27T05:16:34Z</time>
      </trkpt>
      <trkpt lat="41.9436580" lon="2.7112630">
        <ele>298.8</ele>
        <time>2022-05-27T05:16:35Z</time>
      </trkpt>
      <trkpt lat="41.9436890" lon="2.7111570">
        <ele>299.4</ele>
        <time>2022-05-27T05:16:36Z</time>
      </trkpt>
      <trkpt lat="41.9437250" lon="2.7110500">
        <ele>299.8</ele>
        <time>2022-05-27T05:16:37Z</time>
      </trkpt>
      <trkpt lat="41.9437640" lon="2.7109480">
        <ele>300.2</ele>
        <time>2022-05-27T05:16:38Z</time>
      </trkpt>
      <trkpt lat="41.9438030" lon="2.7108660">
        <ele>300.4</ele>
        <time>2022-05-27T05:16:39Z</time>
      </trkpt>
      <trkpt lat="41.9438380" lon="2.7108140">
        <ele>300.8</ele>
        <time>2022-05-27T05:16:40Z</time>
      </trkpt>
      <trkpt lat="41.9438670" lon="2.7107880">
        <ele>301.2</ele>
        <time>2022-05-27T05:16:41Z</time>
      </trkpt>
      <trkpt lat="41.9438970" lon="2.7107770">
        <ele>301.4</ele>
        <time>2022-05-27T05:16:42Z</time>
      </trkpt>
      <trkpt lat="41.9439290" lon="2.7107840">
        <ele>301.8</ele>
        <time>2022-05-27T05:16:43Z</time>
      </trkpt>
      <trkpt lat="41.9439570" lon="2.7108030">
        <ele>302.2</ele>
        <time>2022-05-27T05:16:44Z</time>
      </trkpt>
      <trkpt lat="41.9439830" lon="2.7108270">
        <ele>302.6</ele>
        <time>2022-05-27T05:16:45Z</time>
      </trkpt>
      <trkpt lat="41.9440060" lon="2.7108560">
        <ele>303.0</ele>
        <time>2022-05-27T05:16:46Z</time>
      </trkpt>
      <trkpt lat="41.9440200" lon="2.7108960">
        <ele>303.6</ele>
        <time>2022-05-27T05:16:47Z</time>
      </trkpt>
      <trkpt lat="41.9440240" lon="2.7109460">
        <ele>304.2</ele>
        <time>2022-05-27T05:16:48Z</time>
      </trkpt>
      <trkpt lat="41.9440220" lon="2.7110110">
        <ele>304.8</ele>
        <time>2022-05-27T05:16:49Z</time>
      </trkpt>
      <trkpt lat="41.9440080" lon="2.7110860">
        <ele>305.4</ele>
        <time>2022-05-27T05:16:50Z</time>
      </trkpt>
      <trkpt lat="41.9439890" lon="2.7111620">
        <ele>305.8</ele>
        <time>2022-05-27T05:16:51Z</time>
      </trkpt>
      <trkpt lat="41.9439670" lon="2.7112360">
        <ele>306.4</ele>
        <time>2022-05-27T05:16:52Z</time>
      </trkpt>
      <trkpt lat="41.9439490" lon="2.7113080">
        <ele>307.2</ele>
        <time>2022-05-27T05:16:53Z</time>
      </trkpt>
      <trkpt lat="41.9439320" lon="2.7113810">
        <ele>307.8</ele>
        <time>2022-05-27T05:16:54Z</time>
      </trkpt>
      <trkpt lat="41.9439150" lon="2.7114570">
        <ele>308.4</ele>
        <time>2022-05-27T05:16:55Z</time>
      </trkpt>
      <trkpt lat="41.9438940" lon="2.7115340">
        <ele>309.2</ele>
        <time>2022-05-27T05:16:56Z</time>
      </trkpt>
      <trkpt lat="41.9438710" lon="2.7116080">
        <ele>309.6</ele>
        <time>2022-05-27T05:16:57Z</time>
      </trkpt>
      <trkpt lat="41.9438520" lon="2.7116840">
        <ele>310.0</ele>
        <time>2022-05-27T05:16:58Z</time>
      </trkpt>
      <trkpt lat="41.9438460" lon="2.7117540">
        <ele>310.4</ele>
        <time>2022-05-27T05:16:59Z</time>
      </trkpt>
      <trkpt lat="41.9438500" lon="2.7118080">
        <ele>310.8</ele>
        <time>2022-05-27T05:17:00Z</time>
      </trkpt>
      <trkpt lat="41.9438640" lon="2.7118450">
        <ele>311.2</ele>
        <time>2022-05-27T05:17:01Z</time>
      </trkpt>
      <trkpt lat="41.9438810" lon="2.7118710">
        <ele>311.6</ele>
        <time>2022-05-27T05:17:02Z</time>
      </trkpt>
      <trkpt lat="41.9438960" lon="2.7118990">
        <ele>311.8</ele>
        <time>2022-05-27T05:17:03Z</time>
      </trkpt>
      <trkpt lat="41.9438990" lon="2.7119310">
        <ele>312.0</ele>
        <time>2022-05-27T05:17:04Z</time>
      </trkpt>
      <trkpt lat="41.9439020" lon="2.7119630">
        <ele>312.4</ele>
        <time>2022-05-27T05:17:05Z</time>
      </trkpt>
      <trkpt lat="41.9438990" lon="2.7119910">
        <ele>312.6</ele>
        <time>2022-05-27T05:17:06Z</time>
      </trkpt>
      <trkpt lat="41.9438930" lon="2.7120150">
        <ele>312.6</ele>
        <time>2022-05-27T05:17:07Z</time>
      </trkpt>
      <trkpt lat="41.9438830" lon="2.7120390">
        <ele>312.8</ele>
        <time>2022-05-27T05:17:08Z</time>
      </trkpt>
      <trkpt lat="41.9438740" lon="2.7120670">
        <ele>312.8</ele>
        <time>2022-05-27T05:17:09Z</time>
      </trkpt>
      <trkpt lat="41.9438590" lon="2.7121040">
        <ele>313.0</ele>
        <time>2022-05-27T05:17:10Z</time>
      </trkpt>
      <trkpt lat="41.9438430" lon="2.7121370">
        <ele>313.2</ele>
        <time>2022-05-27T05:17:11Z</time>
      </trkpt>
      <trkpt lat="41.9438290" lon="2.7121610">
        <ele>313.2</ele>
        <time>2022-05-27T05:17:12Z</time>
      </trkpt>
      <trkpt lat="41.9438180" lon="2.7121800">
        <ele>313.4</ele>
        <time>2022-05-27T05:17:13Z</time>
      </trkpt>
      <trkpt lat="41.9438110" lon="2.7122000">
        <ele>313.4</ele>
        <time>2022-05-27T05:17:14Z</time>
      </trkpt>
      <trkpt lat="41.9438060" lon="2.7122260">
        <ele>313.6</ele>
        <time>2022-05-27T05:17:15Z</time>
      </trkpt>
      <trkpt lat="41.9438010" lon="2.7122570">
        <ele>313.6</ele>
        <time>2022-05-27T05:17:16Z</time>
      </trkpt>
      <trkpt lat="41.9437950" lon="2.7122900">
        <ele>313.6</ele>
        <time>2022-05-27T05:17:17Z</time>
      </trkpt>
      <trkpt lat="41.9437910" lon="2.7123240">
        <ele>313.4</ele>
        <time>2022-05-27T05:17:18Z</time>
      </trkpt>
      <trkpt lat="41.9437870" lon="2.7123610">
        <ele>313.4</ele>
        <time>2022-05-27T05:17:19Z</time>
      </trkpt>
      <trkpt lat="41.9437760" lon="2.7123970">
        <ele>313.4</ele>
        <time>2022-05-27T05:17:20Z</time>
      </trkpt>
      <trkpt lat="41.9437610" lon="2.7124230">
        <ele>313.4</ele>
        <time>2022-05-27T05:17:21Z</time>
      </trkpt>
      <trkpt lat="41.9437390" lon="2.7124510">
        <ele>313.4</ele>
        <time>2022-05-27T05:17:22Z</time>
      </trkpt>
      <trkpt lat="41.9437150" lon="2.7124870">
        <ele>313.2</ele>
        <time>2022-05-27T05:17:23Z</time>
      </trkpt>
      <trkpt lat="41.9436950" lon="2.7125150">
        <ele>313.2</ele>
        <time>2022-05-27T05:17:24Z</time>
      </trkpt>
      <trkpt lat="41.9436800" lon="2.7125360">
        <ele>313.0</ele>
        <time>2022-05-27T05:17:25Z</time>
      </trkpt>
      <trkpt lat="41.9436710" lon="2.7125530">
        <ele>312.8</ele>
        <time>2022-05-27T05:17:26Z</time>
      </trkpt>
      <trkpt lat="41.9436620" lon="2.7125700">
        <ele>312.6</ele>
        <time>2022-05-27T05:17:27Z</time>
      </trkpt>
      <trkpt lat="41.9436470" lon="2.7125860">
        <ele>312.2</ele>
        <time>2022-05-27T05:17:28Z</time>
      </trkpt>
      <trkpt lat="41.9436200" lon="2.7126060">
        <ele>311.8</ele>
        <time>2022-05-27T05:17:29Z</time>
      </trkpt>
      <trkpt lat="41.9435870" lon="2.7126310">
        <ele>311.4</ele>
        <time>2022-05-27T05:17:30Z</time>
      </trkpt>
      <trkpt lat="41.9435510" lon="2.7126610">
        <ele>310.8</ele>
        <time>2022-05-27T05:17:31Z</time>
      </trkpt>
      <trkpt lat="41.9435270" lon="2.7126890">
        <ele>310.2</ele>
        <time>2022-05-27T05:17:32Z</time>
      </trkpt>
      <trkpt lat="41.9435090" lon="2.7127220">
        <ele>309.4</ele>
        <time>2022-05-27T05:17:33Z</time>
      </trkpt>
      <trkpt lat="41.9434930" lon="2.7127580">
        <ele>308.8</ele>
        <time>2022-05-27T05:17:34Z</time>
      </trkpt>
      <trkpt lat="41.9434820" lon="2.7127930">
        <ele>308.0</ele>
        <time>2022-05-27T05:17:35Z</time>
      </trkpt>
      <trkpt lat="41.9434750" lon="2.7128270">
        <ele>307.2</ele>
        <time>2022-05-27T05:17:36Z</time>
      </trkpt>
      <trkpt lat="41.9434680" lon="2.7128590">
        <ele>306.4</ele>
        <time>2022-05-27T05:17:37Z</time>
      </trkpt>
      <trkpt lat="41.9434630" lon="2.7128950">
        <ele>305.6</ele>
        <time>2022-05-27T05:17:38Z</time>
      </trkpt>
      <trkpt lat="41.9434640" lon="2.7129350">
        <ele>304.8</ele>
        <time>2022-05-27T05:17:39Z</time>
      </trkpt>
      <trkpt lat="41.9434720" lon="2.7129710">
        <ele>303.8</ele>
        <time>2022-05-27T05:17:40Z</time>
      </trkpt>
      <trkpt lat="41.9434780" lon="2.7130010">
        <ele>303.0</ele>
        <time>2022-05-27T05:17:41Z</time>
      </trkpt>
      <trkpt lat="41.9434750" lon="2.7130250">
        <ele>302.2</ele>
        <time>2022-05-27T05:17:42Z</time>
      </trkpt>
      <trkpt lat="41.9434700" lon="2.7130410">
        <ele>301.4</ele>
        <time>2022-05-27T05:17:43Z</time>
      </trkpt>
      <trkpt lat="41.9434620" lon="2.7130560">
        <ele>300.6</ele>
        <time>2022-05-27T05:17:44Z</time>
      </trkpt>
      <trkpt lat="41.9434590" lon="2.7130810">
        <ele>299.6</ele>
        <time>2022-05-27T05:17:45Z</time>
      </trkpt>
      <trkpt lat="41.9434590" lon="2.7131120">
        <ele>298.8</ele>
        <time>2022-05-27T05:17:46Z</time>
      </trkpt>
      <trkpt lat="41.9434650" lon="2.7131440">
        <ele>298.0</ele>
        <time>2022-05-27T05:17:47Z</time>
      </trkpt>
      <trkpt lat="41.9434770" lon="2.7131750">
        <ele>297.2</ele>
        <time>2022-05-27T05:17:48Z</time>
      </trkpt>
      <trkpt lat="41.9434890" lon="2.7132130">
        <ele>296.4</ele>
        <time>2022-05-27T05:17:49Z</time>
      </trkpt>
      <trkpt lat="41.9434990" lon="2.7132550">
        <ele>295.4</ele>
        <time>2022-05-27T05:17:50Z</time>
      </trkpt>
      <trkpt lat="41.9435130" lon="2.7132950">
        <ele>294.6</ele>
        <time>2022-05-27T05:17:51Z</time>
      </trkpt>
      <trkpt lat="41.9435270" lon="2.7133320">
        <ele>293.6</ele>
        <time>2022-05-27T05:17:52Z</time>
      </trkpt>
      <trkpt lat="41.9435360" lon="2.7133670">
        <ele>292.6</ele>
        <time>2022-05-27T05:17:53Z</time>
      </trkpt>
      <trkpt lat="41.9435330" lon="2.7134100">
        <ele>291.6</ele>
        <time>2022-05-27T05:17:54Z</time>
      </trkpt>
      <trkpt lat="41.9435260" lon="2.7134540">
        <ele>290.6</ele>
        <time>2022-05-27T05:17:55Z</time>
      </trkpt>
      <trkpt lat="41.9435120" lon="2.7134950">
        <ele>289.6</ele>
        <time>2022-05-27T05:17:56Z</time>
      </trkpt>
      <trkpt lat="41.9435020" lon="2.7135300">
        <ele>288.4</ele>
        <time>2022-05-27T05:17:57Z</time>
      </trkpt>
      <trkpt lat="41.9434890" lon="2.7135660">
        <ele>287.6</ele>
        <time>2022-05-27T05:17:58Z</time>
      </trkpt>
      <trkpt lat="41.9434750" lon="2.7135970">
        <ele>286.4</ele>
        <time>2022-05-27T05:17:59Z</time>
      </trkpt>
      <trkpt lat="41.9434640" lon="2.7136210">
        <ele>285.4</ele>
        <time>2022-05-27T05:18:00Z</time>
      </trkpt>
      <trkpt lat="41.9434520" lon="2.7136460">
        <ele>284.2</ele>
        <time>2022-05-27T05:18:01Z</time>
      </trkpt>
      <trkpt lat="41.9434410" lon="2.7136760">
        <ele>283.2</ele>
        <time>2022-05-27T05:18:02Z</time>
      </trkpt>
      <trkpt lat="41.9434310" lon="2.7137150">
        <ele>282.0</ele>
        <time>2022-05-27T05:18:03Z</time>
      </trkpt>
      <trkpt lat="41.9434220" lon="2.7137470">
        <ele>280.8</ele>
        <time>2022-05-27T05:18:04Z</time>
      </trkpt>
      <trkpt lat="41.9434100" lon="2.7137660">
        <ele>279.6</ele>
        <time>2022-05-27T05:18:05Z</time>
      </trkpt>
      <trkpt lat="41.9433900" lon="2.7137820">
        <ele>278.6</ele>
        <time>2022-05-27T05:18:06Z</time>
      </trkpt>
      <trkpt lat="41.9433630" lon="2.7138010">
        <ele>277.6</ele>
        <time>2022-05-27T05:18:07Z</time>
      </trkpt>
      <trkpt lat="41.9433380" lon="2.7138250">
        <ele>276.6</ele>
        <time>2022-05-27T05:18:08Z</time>
      </trkpt>
      <trkpt lat="41.9433250" lon="2.7138540">
        <ele>275.6</ele>
        <time>2022-05-27T05:18:09Z</time>
      </trkpt>
      <trkpt lat="41.9433210" lon="2.7138860">
        <ele>274.4</ele>
        <time>2022-05-27T05:18:10Z</time>
      </trkpt>
      <trkpt lat="41.9433300" lon="2.7139150">
        <ele>273.4</ele>
        <time>2022-05-27T05:18:11Z</time>
      </trkpt>
      <trkpt lat="41.9433310" lon="2.7139430">
        <ele>272.4</ele>
        <time>2022-05-27T05:18:12Z</time>
      </trkpt>
      <trkpt lat="41.9433270" lon="2.7139660">
        <ele>271.4</ele>
        <time>2022-05-27T05:18:13Z</time>
      </trkpt>
      <trkpt lat="41.9433140" lon="2.7139850">
        <ele>270.6</ele>
        <time>2022-05-27T05:18:14Z</time>
      </trkpt>
      <trkpt lat="41.9432960" lon="2.7140060">
        <ele>269.6</ele>
        <time>2022-05-27T05:18:15Z</time>
      </trkpt>
      <trkpt lat="41.9432900" lon="2.7140310">
        <ele>268.8</ele>
        <time>2022-05-27T05:18:16Z</time>
      </trkpt>
      <trkpt lat="41.9432920" lon="2.7140600">
        <ele>267.8</ele>
        <time>2022-05-27T05:18:17Z</time>
      </trkpt>
      <trkpt lat="41.9433060" lon="2.7140890">
        <ele>266.8</ele>
        <time>2022-05-27T05:18:18Z</time>
      </trkpt>
      <trkpt lat="41.9433220" lon="2.7141210">
        <ele>266.0</ele>
        <time>2022-05-27T05:18:19Z</time>
      </trkpt>
      <trkpt lat="41.9433390" lon="2.7141530">
        <ele>265.2</ele>
        <time>2022-05-27T05:18:20Z</time>
      </trkpt>
      <trkpt lat="41.9433570" lon="2.7141860">
        <ele>264.2</ele>
        <time>2022-05-27T05:18:21Z</time>
      </trkpt>
      <trkpt lat="41.9433780" lon="2.7142210">
        <ele>263.4</ele>
        <time>2022-05-27T05:18:22Z</time>
      </trkpt>
      <trkpt lat="41.9433960" lon="2.7142540">
        <ele>262.6</ele>
        <time>2022-05-27T05:18:23Z</time>
      </trkpt>
      <trkpt lat="41.9434160" lon="2.7142790">
        <ele>261.8</ele>
        <time>2022-05-27T05:18:24Z</time>
      </trkpt>
      <trkpt lat="41.9434390" lon="2.7142970">
        <ele>261.0</ele>
        <time>2022-05-27T05:18:25Z</time>
      </trkpt>
      <trkpt lat="41.9434670" lon="2.7143130">
        <ele>260.2</ele>
        <time>2022-05-27T05:18:26Z</time>
      </trkpt>
      <trkpt lat="41.9434950" lon="2.7143320">
        <ele>259.6</ele>
        <time>2022-05-27T05:18:27Z</time>
      </trkpt>
      <trkpt lat="41.9435150" lon="2.7143580">
        <ele>258.8</ele>
        <time>2022-05-27T05:18:28Z</time>
      </trkpt>
      <trkpt lat="41.9435220" lon="2.7143980">
        <ele>258.2</ele>
        <time>2022-05-27T05:18:29Z</time>
      </trkpt>
      <trkpt lat="41.9435230" lon="2.7144350">
        <ele>257.4</ele>
        <time>2022-05-27T05:18:30Z</time>
      </trkpt>
      <trkpt lat="41.9435100" lon="2.7144650">
        <ele>257.0</ele>
        <time>2022-05-27T05:18:31Z</time>
      </trkpt>
      <trkpt lat="41.9434910" lon="2.7144940">
        <ele>256.4</ele>
        <time>2022-05-27T05:18:32Z</time>
      </trkpt>
      <trkpt lat="41.9434590" lon="2.7145300">
        <ele>255.6</ele>
        <time>2022-05-27T05:18:33Z</time>
      </trkpt>
      <trkpt lat="41.9434100" lon="2.7145900">
        <ele>254.8</ele>
        <time>2022-05-27T05:18:34Z</time>
      </trkpt>
      <trkpt lat="41.9433480" lon="2.7146650">
        <ele>254.0</ele>
        <time>2022-05-27T05:18:35Z</time>
      </trkpt>
      <trkpt lat="41.9432620" lon="2.7147390">
        <ele>253.2</ele>
        <time>2022-05-27T05:18:36Z</time>
      </trkpt>
      <trkpt lat="41.9431650" lon="2.7147980">
        <ele>252.4</ele>
        <time>2022-05-27T05:18:37Z</time>
      </trkpt>
      <trkpt lat="41.9430730" lon="2.7148360">
        <ele>251.6</ele>
        <time>2022-05-27T05:18:38Z</time>
      </trkpt>
      <trkpt lat="41.9429980" lon="2.7148640">
        <ele>250.8</ele>
        <time>2022-05-27T05:18:39Z</time>
      </trkpt>
      <trkpt lat="41.9429380" lon="2.7148790">
        <ele>250.2</ele>
        <time>2022-05-27T05:18:40Z</time>
      </trkpt>
      <trkpt lat="41.9428870" lon="2.7148770">
        <ele>249.4</ele>
        <time>2022-05-27T05:18:41Z</time>
      </trkpt>
      <trkpt lat="41.9428500" lon="2.7148580">
        <ele>248.8</ele>
        <time>2022-05-27T05:18:42Z</time>
      </trkpt>
      <trkpt lat="41.9428240" lon="2.7148500">
        <ele>248.0</ele>
        <time>2022-05-27T05:18:43Z</time>
      </trkpt>
      <trkpt lat="41.9427990" lon="2.7148530">
        <ele>247.4</ele>
        <time>2022-05-27T05:18:44Z</time>
      </trkpt>
      <trkpt lat="41.9427650" lon="2.7148700">
        <ele>246.6</ele>
        <time>2022-05-27T05:18:45Z</time>
      </trkpt>
      <trkpt lat="41.9427230" lon="2.7148970">
        <ele>246.0</ele>
        <time>2022-05-27T05:18:46Z</time>
      </trkpt>
      <trkpt lat="41.9426890" lon="2.7149100">
        <ele>245.2</ele>
        <time>2022-05-27T05:18:47Z</time>
      </trkpt>
      <trkpt lat="41.9426620" lon="2.7149110">
        <ele>244.6</ele>
        <time>2022-05-27T05:18:48Z</time>
      </trkpt>
      <trkpt lat="41.9426400" lon="2.7149090">
        <ele>244.0</ele>
        <time>2022-05-27T05:18:49Z</time>
      </trkpt>
      <trkpt lat="41.9426150" lon="2.7149150">
        <ele>243.2</ele>
        <time>2022-05-27T05:18:50Z</time>
      </trkpt>
      <trkpt lat="41.9425730" lon="2.7149240">
        <ele>242.6</ele>
        <time>2022-05-27T05:18:51Z</time>
      </trkpt>
      <trkpt lat="41.9425340" lon="2.7149370">
        <ele>242.0</ele>
        <time>2022-05-27T05:18:52Z</time>
      </trkpt>
      <trkpt lat="41.9425060" lon="2.7149550">
        <ele>241.6</ele>
        <time>2022-05-27T05:18:53Z</time>
      </trkpt>
      <trkpt lat="41.9424880" lon="2.7149760">
        <ele>241.0</ele>
        <time>2022-05-27T05:18:54Z</time>
      </trkpt>
      <trkpt lat="41.9424710" lon="2.7149980">
        <ele>240.6</ele>
        <time>2022-05-27T05:18:55Z</time>
      </trkpt>
      <trkpt lat="41.9424510" lon="2.7150150">
        <ele>240.2</ele>
        <time>2022-05-27T05:18:56Z</time>
      </trkpt>
      <trkpt lat="41.9424200" lon="2.7150140">
        <ele>239.8</ele>
        <time>2022-05-27T05:18:57Z</time>
      </trkpt>
      <trkpt lat="41.9423750" lon="2.7150120">
        <ele>239.4</ele>
        <time>2022-05-27T05:18:58Z</time>
      </trkpt>
      <trkpt lat="41.9423260" lon="2.7150130">
        <ele>239.0</ele>
        <time>2022-05-27T05:18:59Z</time>
      </trkpt>
      <trkpt lat="41.9422890" lon="2.7150230">
        <ele>238.6</ele>
        <time>2022-05-27T05:19:00Z</time>
      </trkpt>
      <trkpt lat="41.9422610" lon="2.7150420">
        <ele>238.2</ele>
        <time>2022-05-27T05:19:01Z</time>
      </trkpt>
      <trkpt lat="41.9422280" lon="2.7150600">
        <ele>237.8</ele>
        <time>2022-05-27T05:19:02Z</time>
      </trkpt>
      <trkpt lat="41.9421900" lon="2.7150780">
        <ele>237.4</ele>
        <time>2022-05-27T05:19:03Z</time>
      </trkpt>
      <trkpt lat="41.9421520" lon="2.7150930">
        <ele>237.2</ele>
        <time>2022-05-27T05:19:04Z</time>
      </trkpt>
      <trkpt lat="41.9421210" lon="2.7151010">
        <ele>236.8</ele>
        <time>2022-05-27T05:19:05Z</time>
      </trkpt>
      <trkpt lat="41.9420930" lon="2.7151040">
        <ele>236.4</ele>
        <time>2022-05-27T05:19:06Z</time>
      </trkpt>
      <trkpt lat="41.9420620" lon="2.7151120">
        <ele>236.0</ele>
        <time>2022-05-27T05:19:07Z</time>
      </trkpt>
      <trkpt lat="41.9420340" lon="2.7151280">
        <ele>235.6</ele>
        <time>2022-05-27T05:19:08Z</time>
      </trkpt>
      <trkpt lat="41.9420120" lon="2.7151450">
        <ele>235.4</ele>
        <time>2022-05-27T05:19:09Z</time>
      </trkpt>
      <trkpt lat="41.9419920" lon="2.7151680">
        <ele>235.0</ele>
        <time>2022-05-27T05:19:10Z</time>
      </trkpt>
      <trkpt lat="41.9419780" lon="2.7152000">
        <ele>234.6</ele>
        <time>2022-05-27T05:19:11Z</time>
      </trkpt>
      <trkpt lat="41.9419690" lon="2.7152350">
        <ele>234.2</ele>
        <time>2022-05-27T05:19:12Z</time>
      </trkpt>
      <trkpt lat="41.9419580" lon="2.7152650">
        <ele>234.0</ele>
        <time>2022-05-27T05:19:13Z</time>
      </trkpt>
      <trkpt lat="41.9419350" lon="2.7153000">
        <ele>233.8</ele>
        <time>2022-05-27T05:19:14Z</time>
      </trkpt>
      <trkpt lat="41.9419040" lon="2.7153350">
        <ele>233.4</ele>
        <time>2022-05-27T05:19:15Z</time>
      </trkpt>
      <trkpt lat="41.9418700" lon="2.7153650">
        <ele>233.0</ele>
        <time>2022-05-27T05:19:16Z</time>
      </trkpt>
      <trkpt lat="41.9418340" lon="2.7153900">
        <ele>232.8</ele>
        <time>2022-05-27T05:19:17Z</time>
      </trkpt>
      <trkpt lat="41.9417930" lon="2.7154110">
        <ele>232.6</ele>
        <time>2022-05-27T05:19:18Z</time>
      </trkpt>
      <trkpt lat="41.9417510" lon="2.7154310">
        <ele>232.4</ele>
        <time>2022-05-27T05:19:19Z</time>
      </trkpt>
      <trkpt lat="41.9417200" lon="2.7154450">
        <ele>232.2</ele>
        <time>2022-05-27T05:19:20Z</time>
      </trkpt>
      <trkpt lat="41.9416930" lon="2.7154640">
        <ele>232.0</ele>
        <time>2022-05-27T05:19:21Z</time>
      </trkpt>
      <trkpt lat="41.9416580" lon="2.7155050">
        <ele>231.6</ele>
        <time>2022-05-27T05:19:22Z</time>
      </trkpt>
      <trkpt lat="41.9416150" lon="2.7155600">
        <ele>231.4</ele>
        <time>2022-05-27T05:19:23Z</time>
      </trkpt>
      <trkpt lat="41.9415660" lon="2.7156210">
        <ele>231.0</ele>
        <time>2022-05-27T05:19:24Z</time>
      </trkpt>
      <trkpt lat="41.9415120" lon="2.7156820">
        <ele>230.8</ele>
        <time>2022-05-27T05:19:25Z</time>
      </trkpt>
      <trkpt lat="41.9414550" lon="2.7157400">
        <ele>230.4</ele>
        <time>2022-05-27T05:19:26Z</time>
      </trkpt>
      <trkpt lat="41.9413890" lon="2.7157950">
        <ele>230.0</ele>
        <time>2022-05-27T05:19:27Z</time>
      </trkpt>
      <trkpt lat="41.9413160" lon="2.7158500">
        <ele>229.6</ele>
        <time>2022-05-27T05:19:28Z</time>
      </trkpt>
      <trkpt lat="41.9412560" lon="2.7158960">
        <ele>229.0</ele>
        <time>2022-05-27T05:19:29Z</time>
      </trkpt>
      <trkpt lat="41.9412040" lon="2.7159370">
        <ele>228.6</ele>
        <time>2022-05-27T05:19:30Z</time>
      </trkpt>
      <trkpt lat="41.9411600" lon="2.7159650">
        <ele>228.2</ele>
        <time>2022-05-27T05:19:31Z</time>
      </trkpt>
      <trkpt lat="41.9411140" lon="2.7159810">
        <ele>227.6</ele>
        <time>2022-05-27T05:19:32Z</time>
      </trkpt>
      <trkpt lat="41.9410500" lon="2.7159950">
        <ele>227.0</ele>
        <time>2022-05-27T05:19:33Z</time>
      </trkpt>
      <trkpt lat="41.9409870" lon="2.7160030">
        <ele>226.2</ele>
        <time>2022-05-27T05:19:34Z</time>
      </trkpt>
      <trkpt lat="41.9409220" lon="2.7160080">
        <ele>225.2</ele>
        <time>2022-05-27T05:19:35Z</time>
      </trkpt>
      <trkpt lat="41.9408680" lon="2.7160150">
        <ele>224.2</ele>
        <time>2022-05-27T05:19:36Z</time>
      </trkpt>
      <trkpt lat="41.9408180" lon="2.7160280">
        <ele>223.2</ele>
        <time>2022-05-27T05:19:37Z</time>
      </trkpt>
      <trkpt lat="41.9407680" lon="2.7160500">
        <ele>222.4</ele>
        <time>2022-05-27T05:19:38Z</time>
      </trkpt>
      <trkpt lat="41.9407200" lon="2.7160790">
        <ele>221.4</ele>
        <time>2022-05-27T05:19:39Z</time>
      </trkpt>
      <trkpt lat="41.9406740" lon="2.7160970">
        <ele>220.6</ele>
        <time>2022-05-27T05:19:40Z</time>
      </trkpt>
      <trkpt lat="41.9406210" lon="2.7161030">
        <ele>220.0</ele>
        <time>2022-05-27T05:19:41Z</time>
      </trkpt>
      <trkpt lat="41.9405720" lon="2.7161070">
        <ele>219.4</ele>
        <time>2022-05-27T05:19:42Z</time>
      </trkpt>
      <trkpt lat="41.9405300" lon="2.7161090">
        <ele>218.6</ele>
        <time>2022-05-27T05:19:43Z</time>
      </trkpt>
      <trkpt lat="41.9404890" lon="2.7161120">
        <ele>218.2</ele>
        <time>2022-05-27T05:19:44Z</time>
      </trkpt>
      <trkpt lat="41.9404400" lon="2.7161170">
        <ele>217.4</ele>
        <time>2022-05-27T05:19:45Z</time>
      </trkpt>
      <trkpt lat="41.9403890" lon="2.7161230">
        <ele>216.6</ele>
        <time>2022-05-27T05:19:46Z</time>
      </trkpt>
      <trkpt lat="41.9403370" lon="2.7161300">
        <ele>216.2</ele>
        <time>2022-05-27T05:19:47Z</time>
      </trkpt>
      <trkpt lat="41.9402770" lon="2.7161330">
        <ele>215.6</ele>
        <time>2022-05-27T05:19:48Z</time>
      </trkpt>
      <trkpt lat="41.9402190" lon="2.7161310">
        <ele>215.2</ele>
        <time>2022-05-27T05:19:49Z</time>
      </trkpt>
      <trkpt lat="41.9401520" lon="2.7161180">
        <ele>214.6</ele>
        <time>2022-05-27T05:19:50Z</time>
      </trkpt>
      <trkpt lat="41.9400680" lon="2.7161050">
        <ele>214.2</ele>
        <time>2022-05-27T05:19:51Z</time>
      </trkpt>
      <trkpt lat="41.9400020" lon="2.7160940">
        <ele>213.8</ele>
        <time>2022-05-27T05:19:52Z</time>
      </trkpt>
      <trkpt lat="41.9399450" lon="2.7160800">
        <ele>213.6</ele>
        <time>2022-05-27T05:19:53Z</time>
      </trkpt>
      <trkpt lat="41.9398810" lon="2.7160600">
        <ele>213.0</ele>
        <time>2022-05-27T05:19:54Z</time>
      </trkpt>
      <trkpt lat="41.9398180" lon="2.7160140">
        <ele>212.6</ele>
        <time>2022-05-27T05:19:55Z</time>
      </trkpt>
      <trkpt lat="41.9397580" lon="2.7159580">
        <ele>212.0</ele>
        <time>2022-05-27T05:19:56Z</time>
      </trkpt>
      <trkpt lat="41.9397100" lon="2.7159200">
        <ele>211.4</ele>
        <time>2022-05-27T05:19:57Z</time>
      </trkpt>
      <trkpt lat="41.9396680" lon="2.7158940">
        <ele>211.0</ele>
        <time>2022-05-27T05:19:58Z</time>
      </trkpt>
      <trkpt lat="41.9396290" lon="2.7158720">
        <ele>210.6</ele>
        <time>2022-05-27T05:19:59Z</time>
      </trkpt>
      <trkpt lat="41.9395930" lon="2.7158660">
        <ele>210.2</ele>
        <time>2022-05-27T05:20:00Z</time>
      </trkpt>
      <trkpt lat="41.9395590" lon="2.7158750">
        <ele>209.8</ele>
        <time>2022-05-27T05:20:01Z</time>
      </trkpt>
      <trkpt lat="41.9395240" lon="2.7159070">
        <ele>209.6</ele>
        <time>2022-05-27T05:20:02Z</time>
      </trkpt>
      <trkpt lat="41.9394870" lon="2.7159450">
        <ele>209.4</ele>
        <time>2022-05-27T05:20:03Z</time>
      </trkpt>
      <trkpt lat="41.9394460" lon="2.7159780">
        <ele>209.0</ele>
        <time>2022-05-27T05:20:04Z</time>
      </trkpt>
      <trkpt lat="41.9394010" lon="2.7159970">
        <ele>208.6</ele>
        <time>2022-05-27T05:20:05Z</time>
      </trkpt>
      <trkpt lat="41.9393550" lon="2.7160120">
        <ele>208.2</ele>
        <time>2022-05-27T05:20:06Z</time>
      </trkpt>
      <trkpt lat="41.9392950" lon="2.7160210">
        <ele>207.8</ele>
        <time>2022-05-27T05:20:07Z</time>
      </trkpt>
      <trkpt lat="41.9392340" lon="2.7160240">
        <ele>207.4</ele>
        <time>2022-05-27T05:20:08Z</time>
      </trkpt>
      <trkpt lat="41.9391780" lon="2.7160240">
        <ele>207.2</ele>
        <time>2022-05-27T05:20:09Z</time>
      </trkpt>
      <trkpt lat="41.9391300" lon="2.7160280">
        <ele>206.8</ele>
        <time>2022-05-27T05:20:10Z</time>
      </trkpt>
      <trkpt lat="41.9390900" lon="2.7160370">
        <ele>206.4</ele>
        <time>2022-05-27T05:20:11Z</time>
      </trkpt>
      <trkpt lat="41.9390380" lon="2.7160380">
        <ele>206.2</ele>
        <time>2022-05-27T05:20:12Z</time>
      </trkpt>
      <trkpt lat="41.9389810" lon="2.7160320">
        <ele>205.8</ele>
        <time>2022-05-27T05:20:13Z</time>
      </trkpt>
      <trkpt lat="41.9389370" lon="2.7160050">
        <ele>205.4</ele>
        <time>2022-05-27T05:20:14Z</time>
      </trkpt>
      <trkpt lat="41.9389090" lon="2.7159680">
        <ele>205.2</ele>
        <time>2022-05-27T05:20:15Z</time>
      </trkpt>
      <trkpt lat="41.9388910" lon="2.7159410">
        <ele>204.8</ele>
        <time>2022-05-27T05:20:16Z</time>
      </trkpt>
      <trkpt lat="41.9388770" lon="2.7159400">
        <ele>204.6</ele>
        <time>2022-05-27T05:20:17Z</time>
      </trkpt>
      <trkpt lat="41.9388640" lon="2.7159520">
        <ele>204.4</ele>
        <time>2022-05-27T05:20:18Z</time>
      </trkpt>
      <trkpt lat="41.9388460" lon="2.7159900">
        <ele>204.2</ele>
        <time>2022-05-27T05:20:19Z</time>
      </trkpt>
      <trkpt lat="41.9388210" lon="2.7160330">
        <ele>204.2</ele>
        <time>2022-05-27T05:20:20Z</time>
      </trkpt>
      <trkpt lat="41.9387900" lon="2.7160720">
        <ele>204.0</ele>
        <time>2022-05-27T05:20:21Z</time>
      </trkpt>
      <trkpt lat="41.9387500" lon="2.7161100">
        <ele>203.8</ele>
        <time>2022-05-27T05:20:22Z</time>
      </trkpt>
      <trkpt lat="41.9387150" lon="2.7161480">
        <ele>203.8</ele>
        <time>2022-05-27T05:20:23Z</time>
      </trkpt>
      <trkpt lat="41.9386980" lon="2.7161770">
        <ele>203.8</ele>
        <time>2022-05-27T05:20:24Z</time>
      </trkpt>
      <trkpt lat="41.9386920" lon="2.7162050">
        <ele>203.8</ele>
        <time>2022-05-27T05:20:25Z</time>
      </trkpt>
      <trkpt lat="41.9386840" lon="2.7162360">
        <ele>203.8</ele>
        <time>2022-05-27T05:20:26Z</time>
      </trkpt>
      <trkpt lat="41.9386740" lon="2.7162650">
        <ele>203.8</ele>
        <time>2022-05-27T05:20:27Z</time>
      </trkpt>
      <trkpt lat="41.9386670" lon="2.7162910">
        <ele>204.0</ele>
        <time>2022-05-27T05:20:28Z</time>
      </trkpt>
      <trkpt lat="41.9386580" lon="2.7163170">
        <ele>204.2</ele>
        <time>2022-05-27T05:20:29Z</time>
      </trkpt>
      <trkpt lat="41.9386410" lon="2.7163490">
        <ele>204.4</ele>
        <time>2022-05-27T05:20:30Z</time>
      </trkpt>
      <trkpt lat="41.9386120" lon="2.7163900">
        <ele>204.8</ele>
        <time>2022-05-27T05:20:31Z</time>
      </trkpt>
      <trkpt lat="41.9385750" lon="2.7164330">
        <ele>205.0</ele>
        <time>2022-05-27T05:20:32Z</time>
      </trkpt>
      <trkpt lat="41.9385450" lon="2.7164660">
        <ele>205.2</ele>
        <time>2022-05-27T05:20:33Z</time>
      </trkpt>
      <trkpt lat="41.9385190" lon="2.7164910">
        <ele>205.6</ele>
        <time>2022-05-27T05:20:34Z</time>
      </trkpt>
      <trkpt lat="41.9384960" lon="2.7165090">
        <ele>205.8</ele>
        <time>2022-05-27T05:20:35Z</time>
      </trkpt>
      <trkpt lat="41.9384690" lon="2.7165190">
        <ele>206.0</ele>
        <time>2022-05-27T05:20:36Z</time>
      </trkpt>
      <trkpt lat="41.9384340" lon="2.7165310">
        <ele>206.4</ele>
        <time>2022-05-27T05:20:37Z</time>
      </trkpt>
      <trkpt lat="41.9383900" lon="2.7165570">
        <ele>206.6</ele>
        <time>2022-05-27T05:20:38Z</time>
      </trkpt>
      <trkpt lat="41.9383530" lon="2.7165920">
        <ele>206.8</ele>
        <time>2022-05-27T05:20:39Z</time>
      </trkpt>
      <trkpt lat="41.9383300" lon="2.7166350">
        <ele>207.0</ele>
        <time>2022-05-27T05:20:40Z</time>
      </trkpt>
      <trkpt lat="41.9383210" lon="2.7166810">
        <ele>207.0</ele>
        <time>2022-05-27T05:20:41Z</time>
      </trkpt>
      <trkpt lat="41.9383230" lon="2.7167380">
        <ele>207.0</ele>
        <time>2022-05-27T05:20:42Z</time>
      </trkpt>
      <trkpt lat="41.9383320" lon="2.7167930">
        <ele>207.2</ele>
        <time>2022-05-27T05:20:43Z</time>
      </trkpt>
      <trkpt lat="41.9383500" lon="2.7168420">
        <ele>207.2</ele>
        <time>2022-05-27T05:20:44Z</time>
      </trkpt>
      <trkpt lat="41.9383760" lon="2.7168850">
        <ele>207.2</ele>
        <time>2022-05-27T05:20:45Z</time>
      </trkpt>
      <trkpt lat="41.9383920" lon="2.7169120">
        <ele>207.2</ele>
        <time>2022-05-27T05:20:46Z</time>
      </trkpt>
      <trkpt lat="41.9384080" lon="2.7169220">
        <ele>207.2</ele>
        <time>2022-05-27T05:20:47Z</time>
      </trkpt>
      <trkpt lat="41.9384210" lon="2.7169180">
        <ele>207.2</ele>
        <time>2022-05-27T05:20:48Z</time>
      </trkpt>
      <trkpt lat="41.9384340" lon="2.7169140">
        <ele>207.2</ele>
        <time>2022-05-27T05:20:49Z</time>
      </trkpt>
      <trkpt lat="41.9384480" lon="2.7169100">
        <ele>207.2</ele>
        <time>2022-05-27T05:20:50Z</time>
      </trkpt>
      <trkpt lat="41.9384610" lon="2.7169070">
        <ele>207.2</ele>
        <time>2022-05-27T05:20:51Z</time>
      </trkpt>
      <trkpt lat="41.9384740" lon="2.7169030">
        <ele>207.2</ele>
        <time>2022-05-27T05:20:52Z</time>
      </trkpt>
      <trkpt lat="41.9384870" lon="2.7168990">
        <ele>207.2</ele>
        <time>2022-05-27T05:20:53Z</time>
      </trkpt>
      <trkpt lat="41.9385000" lon="2.7168950">
        <ele>207.2</ele>
        <time>2022-05-27T05:20:54Z</time>
      </trkpt>
      <trkpt lat="41.9385130" lon="2.7168910">
        <ele>207.2</ele>
        <time>2022-05-27T05:20:55Z</time>
      </trkpt>
      <trkpt lat="41.9385260" lon="2.7168880">
        <ele>207.2</ele>
        <time>2022-05-27T05:20:56Z</time>
      </trkpt>
      <trkpt lat="41.9385390" lon="2.7168840">
        <ele>207.2</ele>
        <time>2022-05-27T05:20:57Z</time>
      </trkpt>
      <trkpt lat="41.9385520" lon="2.7168800">
        <ele>207.2</ele>
        <time>2022-05-27T05:20:58Z</time>
      </trkpt>
      <trkpt lat="41.9385650" lon="2.7168760">
        <ele>207.2</ele>
        <time>2022-05-27T05:20:59Z</time>
      </trkpt>
      <trkpt lat="41.9385790" lon="2.7168720">
        <ele>207.2</ele>
        <time>2022-05-27T05:21:00Z</time>
      </trkpt>
      <trkpt lat="41.9385920" lon="2.7168690">
        <ele>207.8</ele>
        <time>2022-05-27T05:22:55Z</time>
      </trkpt>
      <trkpt lat="41.9386050" lon="2.7168650">
        <ele>208.2</ele>
        <time>2022-05-27T05:22:56Z</time>
      </trkpt>
      <trkpt lat="41.9386540" lon="2.7168710">
        <ele>208.6</ele>
        <time>2022-05-27T05:22:57Z</time>
      </trkpt>
      <trkpt lat="41.9387070" lon="2.7168800">
        <ele>209.0</ele>
        <time>2022-05-27T05:22:58Z</time>
      </trkpt>
      <trkpt lat="41.9387720" lon="2.7168930">
        <ele>209.6</ele>
        <time>2022-05-27T05:22:59Z</time>
      </trkpt>
      <trkpt lat="41.9388420" lon="2.7168980">
        <ele>210.2</ele>
        <time>2022-05-27T05:23:00Z</time>
      </trkpt>
      <trkpt lat="41.9389160" lon="2.7169010">
        <ele>211.0</ele>
        <time>2022-05-27T05:23:01Z</time>
      </trkpt>
      <trkpt lat="41.9389950" lon="2.7169040">
        <ele>211.4</ele>
        <time>2022-05-27T05:23:02Z</time>
      </trkpt>
      <trkpt lat="41.9390700" lon="2.7169110">
        <ele>212.2</ele>
        <time>2022-05-27T05:23:03Z</time>
      </trkpt>
      <trkpt lat="41.9391500" lon="2.7169240">
        <ele>212.8</ele>
        <time>2022-05-27T05:23:04Z</time>
      </trkpt>
      <trkpt lat="41.9392240" lon="2.7169350">
        <ele>213.4</ele>
        <time>2022-05-27T05:23:05Z</time>
      </trkpt>
      <trkpt lat="41.9392900" lon="2.7169410">
        <ele>214.0</ele>
        <time>2022-05-27T05:23:06Z</time>
      </trkpt>
      <trkpt lat="41.9393510" lon="2.7169390">
        <ele>214.4</ele>
        <time>2022-05-27T05:23:07Z</time>
      </trkpt>
      <trkpt lat="41.9394090" lon="2.7169280">
        <ele>214.8</ele>
        <time>2022-05-27T05:23:08Z</time>
      </trkpt>
      <trkpt lat="41.9394730" lon="2.7168930">
        <ele>215.4</ele>
        <time>2022-05-27T05:23:09Z</time>
      </trkpt>
      <trkpt lat="41.9395250" lon="2.7168490">
        <ele>215.8</ele>
        <time>2022-05-27T05:23:10Z</time>
      </trkpt>
      <trkpt lat="41.9395620" lon="2.7168150">
        <ele>216.4</ele>
        <time>2022-05-27T05:23:11Z</time>
      </trkpt>
      <trkpt lat="41.9396030" lon="2.7167820">
        <ele>217.0</ele>
        <time>2022-05-27T05:23:12Z</time>
      </trkpt>
      <trkpt lat="41.9396480" lon="2.7167490">
        <ele>217.8</ele>
        <time>2022-05-27T05:23:13Z</time>
      </trkpt>
      <trkpt lat="41.9397000" lon="2.7167200">
        <ele>218.6</ele>
        <time>2022-05-27T05:23:14Z</time>
      </trkpt>
      <trkpt lat="41.9397630" lon="2.7167040">
        <ele>219.2</ele>
        <time>2022-05-27T05:23:15Z</time>
      </trkpt>
      <trkpt lat="41.9398390" lon="2.7166960">
        <ele>220.2</ele>
        <time>2022-05-27T05:23:16Z</time>
      </trkpt>
      <trkpt lat="41.9399220" lon="2.7166930">
        <ele>220.8</ele>
        <time>2022-05-27T05:23:17Z</time>
      </trkpt>
      <trkpt lat="41.9400230" lon="2.7166880">
        <ele>221.6</ele>
        <time>2022-05-27T05:23:18Z</time>
      </trkpt>
      <trkpt lat="41.9401250" lon="2.7166850">
        <ele>222.2</ele>
        <time>2022-05-27T05:23:19Z</time>
      </trkpt>
      <trkpt lat="41.9402180" lon="2.7166880">
        <ele>223.0</ele>
        <time>2022-05-27T05:23:20Z</time>
      </trkpt>
      <trkpt lat="41.9403020" lon="2.7167010">
        <ele>223.8</ele>
        <time>2022-05-27T05:23:21Z</time>
      </trkpt>
      <trkpt lat="41.9403840" lon="2.7167260">
        <ele>224.2</ele>
        <time>2022-05-27T05:23:22Z</time>
      </trkpt>
      <trkpt lat="41.9404680" lon="2.7167590">
        <ele>224.4</ele>
        <time>2022-05-27T05:23:23Z</time>
      </trkpt>
      <trkpt lat="41.9405450" lon="2.7167970">
        <ele>225.0</ele>
        <time>2022-05-27T05:23:24Z</time>
      </trkpt>
      <trkpt lat="41.9406330" lon="2.7168440">
        <ele>225.8</ele>
        <time>2022-05-27T05:23:25Z</time>
      </trkpt>
      <trkpt lat="41.9407130" lon="2.7168940">
        <ele>226.6</ele>
        <time>2022-05-27T05:23:26Z</time>
      </trkpt>
      <trkpt lat="41.9407820" lon="2.7169360">
        <ele>227.6</ele>
        <time>2022-05-27T05:23:27Z</time>
      </trkpt>
      <trkpt lat="41.9408710" lon="2.7169740">
        <ele>228.0</ele>
        <time>2022-05-27T05:23:28Z</time>
      </trkpt>
      <trkpt lat="41.9409690" lon="2.7169940">
        <ele>228.8</ele>
        <time>2022-05-27T05:23:29Z</time>
      </trkpt>
      <trkpt lat="41.9410570" lon="2.7170070">
        <ele>229.6</ele>
        <time>2022-05-27T05:23:30Z</time>
      </trkpt>
      <trkpt lat="41.9411530" lon="2.7170240">
        <ele>230.0</ele>
        <time>2022-05-27T05:23:31Z</time>
      </trkpt>
      <trkpt lat="41.9412620" lon="2.7170490">
        <ele>230.4</ele>
        <time>2022-05-27T05:23:32Z</time>
      </trkpt>
      <trkpt lat="41.9413550" lon="2.7170760">
        <ele>230.6</ele>
        <time>2022-05-27T05:23:33Z</time>
      </trkpt>
      <trkpt lat="41.9414240" lon="2.7170980">
        <ele>230.8</ele>
        <time>2022-05-27T05:23:34Z</time>
      </trkpt>
      <trkpt lat="41.9414720" lon="2.7171120">
        <ele>231.2</ele>
        <time>2022-05-27T05:23:35Z</time>
      </trkpt>
      <trkpt lat="41.9415020" lon="2.7171220">
        <ele>231.2</ele>
        <time>2022-05-27T05:23:36Z</time>
      </trkpt>
      <trkpt lat="41.9415120" lon="2.7171290">
        <ele>231.6</ele>
        <time>2022-05-27T05:23:37Z</time>
      </trkpt>
      <trkpt lat="41.9415140" lon="2.7171320">
        <ele>231.8</ele>
        <time>2022-05-27T05:23:38Z</time>
      </trkpt>
      <trkpt lat="41.9415260" lon="2.7171350">
        <ele>232.2</ele>
        <time>2022-05-27T05:23:39Z</time>
      </trkpt>
      <trkpt lat="41.9415570" lon="2.7171350">
        <ele>232.4</ele>
        <time>2022-05-27T05:23:40Z</time>
      </trkpt>
      <trkpt lat="41.9415950" lon="2.7171320">
        <ele>232.8</ele>
        <time>2022-05-27T05:23:41Z</time>
      </trkpt>
      <trkpt lat="41.9416290" lon="2.7171250">
        <ele>233.2</ele>
        <time>2022-05-27T05:23:42Z</time>
      </trkpt>
      <trkpt lat="41.9416650" lon="2.7171090">
        <ele>233.6</ele>
        <time>2022-05-27T05:23:43Z</time>
      </trkpt>
      <trkpt lat="41.9416980" lon="2.7170950">
        <ele>234.0</ele>
        <time>2022-05-27T05:23:44Z</time>
      </trkpt>
      <trkpt lat="41.9417260" lon="2.7170810">
        <ele>234.4</ele>
        <time>2022-05-27T05:23:45Z</time>
      </trkpt>
      <trkpt lat="41.9417580" lon="2.7170590">
        <ele>235.0</ele>
        <time>2022-05-27T05:23:46Z</time>
      </trkpt>
      <trkpt lat="41.9417930" lon="2.7170300">
        <ele>235.8</ele>
        <time>2022-05-27T05:23:47Z</time>
      </trkpt>
      <trkpt lat="41.9418270" lon="2.7169940">
        <ele>236.2</ele>
        <time>2022-05-27T05:23:48Z</time>
      </trkpt>
      <trkpt lat="41.9418570" lon="2.7169600">
        <ele>237.0</ele>
        <time>2022-05-27T05:23:49Z</time>
      </trkpt>
      <trkpt lat="41.9418900" lon="2.7169240">
        <ele>237.6</ele>
        <time>2022-05-27T05:23:50Z</time>
      </trkpt>
      <trkpt lat="41.9419270" lon="2.7168930">
        <ele>238.4</ele>
        <time>2022-05-27T05:23:51Z</time>
      </trkpt>
      <trkpt lat="41.9419640" lon="2.7168650">
        <ele>239.0</ele>
        <time>2022-05-27T05:23:52Z</time>
      </trkpt>
      <trkpt lat="41.9420000" lon="2.7168310">
        <ele>239.8</ele>
        <time>2022-05-27T05:23:53Z</time>
      </trkpt>
      <trkpt lat="41.9420340" lon="2.7167900">
        <ele>240.4</ele>
        <time>2022-05-27T05:23:54Z</time>
      </trkpt>
      <trkpt lat="41.9420670" lon="2.7167490">
        <ele>241.2</ele>
        <time>2022-05-27T05:23:55Z</time>
      </trkpt>
      <trkpt lat="41.9421020" lon="2.7167100">
        <ele>242.0</ele>
        <time>2022-05-27T05:23:56Z</time>
      </trkpt>
      <trkpt lat="41.9421370" lon="2.7166730">
        <ele>242.6</ele>
        <time>2022-05-27T05:23:57Z</time>
      </trkpt>
      <trkpt lat="41.9421720" lon="2.7166340">
        <ele>243.6</ele>
        <time>2022-05-27T05:23:58Z</time>
      </trkpt>
      <trkpt lat="41.9422020" lon="2.7165920">
        <ele>244.4</ele>
        <time>2022-05-27T05:23:59Z</time>
      </trkpt>
      <trkpt lat="41.9422360" lon="2.7165450">
        <ele>245.2</ele>
        <time>2022-05-27T05:24:00Z</time>
      </trkpt>
      <trkpt lat="41.9422770" lon="2.7164990">
        <ele>246.2</ele>
        <time>2022-05-27T05:24:01Z</time>
      </trkpt>
      <trkpt lat="41.9423190" lon="2.7164600">
        <ele>247.0</ele>
        <time>2022-05-27T05:24:02Z</time>
      </trkpt>
      <trkpt lat="41.9423730" lon="2.7164280">
        <ele>248.0</ele>
        <time>2022-05-27T05:24:03Z</time>
      </trkpt>
      <trkpt lat="41.9424410" lon="2.7164030">
        <ele>249.2</ele>
        <time>2022-05-27T05:24:04Z</time>
      </trkpt>
      <trkpt lat="41.9425120" lon="2.7163910">
        <ele>250.0</ele>
        <time>2022-05-27T05:24:05Z</time>
      </trkpt>
      <trkpt lat="41.9425770" lon="2.7163900">
        <ele>251.2</ele>
        <time>2022-05-27T05:24:06Z</time>
      </trkpt>
      <trkpt lat="41.9426310" lon="2.7163980">
        <ele>252.4</ele>
        <time>2022-05-27T05:24:07Z</time>
      </trkpt>
      <trkpt lat="41.9426960" lon="2.7164120">
        <ele>253.4</ele>
        <time>2022-05-27T05:24:08Z</time>
      </trkpt>
      <trkpt lat="41.9427760" lon="2.7164180">
        <ele>254.4</ele>
        <time>2022-05-27T05:24:09Z</time>
      </trkpt>
      <trkpt lat="41.9428550" lon="2.7164160">
        <ele>255.4</ele>
        <time>2022-05-27T05:24:10Z</time>
      </trkpt>
      <trkpt lat="41.9429240" lon="2.7164090">
        <ele>256.4</ele>
        <time>2022-05-27T05:24:11Z</time>
      </trkpt>
      <trkpt lat="41.9429850" lon="2.7163940">
        <ele>257.2</ele>
        <time>2022-05-27T05:24:12Z</time>
      </trkpt>
      <trkpt lat="41.9430500" lon="2.7163760">
        <ele>258.0</ele>
        <time>2022-05-27T05:24:13Z</time>
      </trkpt>
      <trkpt lat="41.9431080" lon="2.7163550">
        <ele>258.8</ele>
        <time>2022-05-27T05:24:14Z</time>
      </trkpt>
      <trkpt lat="41.9431550" lon="2.7163320">
        <ele>259.6</ele>
        <time>2022-05-27T05:24:15Z</time>
      </trkpt>
      <trkpt lat="41.9432020" lon="2.7162990">
        <ele>260.4</ele>
        <time>2022-05-27T05:24:16Z</time>
      </trkpt>
      <trkpt lat="41.9432520" lon="2.7162460">
        <ele>261.2</ele>
        <time>2022-05-27T05:24:17Z</time>
      </trkpt>
      <trkpt lat="41.9433020" lon="2.7161680">
        <ele>262.0</ele>
        <time>2022-05-27T05:24:18Z</time>
      </trkpt>
      <trkpt lat="41.9433540" lon="2.7160730">
        <ele>262.8</ele>
        <time>2022-05-27T05:24:19Z</time>
      </trkpt>
      <trkpt lat="41.9433990" lon="2.7159840">
        <ele>263.6</ele>
        <time>2022-05-27T05:24:20Z</time>
      </trkpt>
      <trkpt lat="41.9434360" lon="2.7159110">
        <ele>264.2</ele>
        <time>2022-05-27T05:24:21Z</time>
      </trkpt>
      <trkpt lat="41.9434730" lon="2.7158350">
        <ele>264.8</ele>
        <time>2022-05-27T05:24:22Z</time>
      </trkpt>
      <trkpt lat="41.9435120" lon="2.7157530">
        <ele>265.4</ele>
        <time>2022-05-27T05:24:23Z</time>
      </trkpt>
      <trkpt lat="41.9435550" lon="2.7156680">
        <ele>266.2</ele>
        <time>2022-05-27T05:24:24Z</time>
      </trkpt>
      <trkpt lat="41.9435920" lon="2.7155970">
        <ele>266.8</ele>
        <time>2022-05-27T05:24:25Z</time>
      </trkpt>
      <trkpt lat="41.9436310" lon="2.7155230">
        <ele>267.2</ele>
        <time>2022-05-27T05:24:26Z</time>
      </trkpt>
      <trkpt lat="41.9436760" lon="2.7154420">
        <ele>267.8</ele>
        <time>2022-05-27T05:24:27Z</time>
      </trkpt>
      <trkpt lat="41.9437160" lon="2.7153710">
        <ele>268.4</ele>
        <time>2022-05-27T05:24:28Z</time>
      </trkpt>
      <trkpt lat="41.9437590" lon="2.7152990">
        <ele>268.8</ele>
        <time>2022-05-27T05:24:29Z</time>
      </trkpt>
      <trkpt lat="41.9438060" lon="2.7152210">
        <ele>269.6</ele>
        <time>2022-05-27T05:24:30Z</time>
      </trkpt>
      <trkpt lat="41.9438550" lon="2.7151380">
        <ele>270.2</ele>
        <time>2022-05-27T05:24:31Z</time>
      </trkpt>
      <trkpt lat="41.9439140" lon="2.7150540">
        <ele>271.0</ele>
        <time>2022-05-27T05:24:32Z</time>
      </trkpt>
      <trkpt lat="41.9439710" lon="2.7149850">
        <ele>271.8</ele>
        <time>2022-05-27T05:24:33Z</time>
      </trkpt>
      <trkpt lat="41.9440280" lon="2.7149140">
        <ele>272.8</ele>
        <time>2022-05-27T05:24:34Z</time>
      </trkpt>
      <trkpt lat="41.9440840" lon="2.7148300">
        <ele>273.4</ele>
        <time>2022-05-27T05:24:35Z</time>
      </trkpt>
      <trkpt lat="41.9441300" lon="2.7147350">
        <ele>274.2</ele>
        <time>2022-05-27T05:24:36Z</time>
      </trkpt>
      <trkpt lat="41.9441750" lon="2.7146260">
        <ele>274.6</ele>
        <time>2022-05-27T05:24:37Z</time>
      </trkpt>
      <trkpt lat="41.9442280" lon="2.7145100">
        <ele>274.8</ele>
        <time>2022-05-27T05:24:38Z</time>
      </trkpt>
      <trkpt lat="41.9442780" lon="2.7144110">
        <ele>275.4</ele>
        <time>2022-05-27T05:24:39Z</time>
      </trkpt>
      <trkpt lat="41.9443140" lon="2.7143380">
        <ele>275.8</ele>
        <time>2022-05-27T05:24:40Z</time>
      </trkpt>
      <trkpt lat="41.9443310" lon="2.7142860">
        <ele>276.2</ele>
        <time>2022-05-27T05:24:41Z</time>
      </trkpt>
      <trkpt lat="41.9443300" lon="2.7142350">
        <ele>276.6</ele>
        <time>2022-05-27T05:24:42Z</time>
      </trkpt>
      <trkpt lat="41.9443200" lon="2.7141750">
        <ele>276.8</ele>
        <time>2022-05-27T05:24:43Z</time>
      </trkpt>
      <trkpt lat="41.9443030" lon="2.7141020">
        <ele>277.2</ele>
        <time>2022-05-27T05:24:44Z</time>
      </trkpt>
      <trkpt lat="41.9442860" lon="2.7140220">
        <ele>277.4</ele>
        <time>2022-05-27T05:24:45Z</time>
      </trkpt>
      <trkpt lat="41.9442670" lon="2.7139420">
        <ele>277.6</ele>
        <time>2022-05-27T05:24:46Z</time>
      </trkpt>
      <trkpt lat="41.9442410" lon="2.7138620">
        <ele>277.8</ele>
        <time>2022-05-27T05:24:47Z</time>
      </trkpt>
      <trkpt lat="41.9442140" lon="2.7137830">
        <ele>278.0</ele>
        <time>2022-05-27T05:24:48Z</time>
      </trkpt>
      <trkpt lat="41.9441830" lon="2.7137090">
        <ele>278.0</ele>
        <time>2022-05-27T05:24:49Z</time>
      </trkpt>
      <trkpt lat="41.9441560" lon="2.7136410">
        <ele>278.2</ele>
        <time>2022-05-27T05:24:50Z</time>
      </trkpt>
      <trkpt lat="41.9441290" lon="2.7135860">
        <ele>278.2</ele>
        <time>2022-05-27T05:24:51Z</time>
      </trkpt>
      <trkpt lat="41.9441040" lon="2.7135520">
        <ele>278.4</ele>
        <time>2022-05-27T05:24:52Z</time>
      </trkpt>
      <trkpt lat="41.9440800" lon="2.7135330">
        <ele>278.4</ele>
        <time>2022-05-27T05:24:53Z</time>
      </trkpt>
      <trkpt lat="41.9440580" lon="2.7135240">
        <ele>278.4</ele>
        <time>2022-05-27T05:24:54Z</time>
      </trkpt>
      <trkpt lat="41.9440350" lon="2.7135180">
        <ele>278.6</ele>
        <time>2022-05-27T05:24:55Z</time>
      </trkpt>
      <trkpt lat="41.9440190" lon="2.7135100">
        <ele>279.0</ele>
        <time>2022-05-27T05:24:56Z</time>
      </trkpt>
      <trkpt lat="41.9440140" lon="2.7134950">
        <ele>279.2</ele>
        <time>2022-05-27T05:24:57Z</time>
      </trkpt>
      <trkpt lat="41.9440210" lon="2.7134750">
        <ele>279.4</ele>
        <time>2022-05-27T05:24:58Z</time>
      </trkpt>
      <trkpt lat="41.9440400" lon="2.7134430">
        <ele>279.8</ele>
        <time>2022-05-27T05:24:59Z</time>
      </trkpt>
      <trkpt lat="41.9440690" lon="2.7133960">
        <ele>280.0</ele>
        <time>2022-05-27T05:25:00Z</time>
      </trkpt>
      <trkpt lat="41.9440990" lon="2.7133310">
        <ele>280.4</ele>
        <time>2022-05-27T05:25:01Z</time>
      </trkpt>
      <trkpt lat="41.9441240" lon="2.7132500">
        <ele>280.8</ele>
        <time>2022-05-27T05:25:02Z</time>
      </trkpt>
      <trkpt lat="41.9441520" lon="2.7131620">
        <ele>281.2</ele>
        <time>2022-05-27T05:25:03Z</time>
      </trkpt>
      <trkpt lat="41.9441690" lon="2.7130710">
        <ele>281.8</ele>
        <time>2022-05-27T05:25:04Z</time>
      </trkpt>
      <trkpt lat="41.9441820" lon="2.7129750">
        <ele>282.2</ele>
        <time>2022-05-27T05:25:05Z</time>
      </trkpt>
      <trkpt lat="41.9441890" lon="2.7128800">
        <ele>283.2</ele>
        <time>2022-05-27T05:25:06Z</time>
      </trkpt>
      <trkpt lat="41.9441920" lon="2.7127860">
        <ele>284.0</ele>
        <time>2022-05-27T05:25:07Z</time>
      </trkpt>
      <trkpt lat="41.9441970" lon="2.7126920">
        <ele>284.4</ele>
        <time>2022-05-27T05:25:08Z</time>
      </trkpt>
      <trkpt lat="41.9442100" lon="2.7125990">
        <ele>284.8</ele>
        <time>2022-05-27T05:25:09Z</time>
      </trkpt>
      <trkpt lat="41.9442340" lon="2.7125130">
        <ele>285.2</ele>
        <time>2022-05-27T05:25:10Z</time>
      </trkpt>
      <trkpt lat="41.9442720" lon="2.7124370">
        <ele>285.4</ele>
        <time>2022-05-27T05:25:11Z</time>
      </trkpt>
      <trkpt lat="41.9443230" lon="2.7123620">
        <ele>285.6</ele>
        <time>2022-05-27T05:25:12Z</time>
      </trkpt>
      <trkpt lat="41.9443760" lon="2.7122990">
        <ele>285.6</ele>
        <time>2022-05-27T05:25:13Z</time>
      </trkpt>
      <trkpt lat="41.9444370" lon="2.7122380">
        <ele>285.4</ele>
        <time>2022-05-27T05:25:14Z</time>
      </trkpt>
      <trkpt lat="41.9445060" lon="2.7121750">
        <ele>285.2</ele>
        <time>2022-05-27T05:25:15Z</time>
      </trkpt>
      <trkpt lat="41.9445740" lon="2.7121220">
        <ele>285.0</ele>
        <time>2022-05-27T05:25:16Z</time>
      </trkpt>
      <trkpt lat="41.9446350" lon="2.7120870">
        <ele>284.6</ele>
        <time>2022-05-27T05:25:17Z</time>
      </trkpt>
      <trkpt lat="41.9446960" lon="2.7120580">
        <ele>284.2</ele>
        <time>2022-05-27T05:25:18Z</time>
      </trkpt>
      <trkpt lat="41.9447600" lon="2.7120350">
        <ele>283.6</ele>
        <time>2022-05-27T05:25:19Z</time>
      </trkpt>
      <trkpt lat="41.9448220" lon="2.7120250">
        <ele>283.0</ele>
        <time>2022-05-27T05:25:20Z</time>
      </trkpt>
      <trkpt lat="41.9448790" lon="2.7120190">
        <ele>282.4</ele>
        <time>2022-05-27T05:25:21Z</time>
      </trkpt>
      <trkpt lat="41.9449240" lon="2.7120100">
        <ele>281.8</ele>
        <time>2022-05-27T05:25:22Z</time>
      </trkpt>
      <trkpt lat="41.9449610" lon="2.7119910">
        <ele>281.4</ele>
        <time>2022-05-27T05:25:23Z</time>
      </trkpt>
      <trkpt lat="41.9449800" lon="2.7119590">
        <ele>281.0</ele>
        <time>2022-05-27T05:25:24Z</time>
      </trkpt>
      <trkpt lat="41.9449820" lon="2.7119150">
        <ele>280.4</ele>
        <time>2022-05-27T05:25:25Z</time>
      </trkpt>
      <trkpt lat="41.9449750" lon="2.7118500">
        <ele>280.0</ele>
        <time>2022-05-27T05:25:26Z</time>
      </trkpt>
      <trkpt lat="41.9449640" lon="2.7117640">
        <ele>279.4</ele>
        <time>2022-05-27T05:25:27Z</time>
      </trkpt>
      <trkpt lat="41.9449530" lon="2.7116480">
        <ele>279.0</ele>
        <time>2022-05-27T05:25:28Z</time>
      </trkpt>
      <trkpt lat="41.9449480" lon="2.7115430">
        <ele>278.6</ele>
        <time>2022-05-27T05:25:29Z</time>
      </trkpt>
      <trkpt lat="41.9449480" lon="2.7114610">
        <ele>278.2</ele>
        <time>2022-05-27T05:25:30Z</time>
      </trkpt>
      <trkpt lat="41.9449590" lon="2.7113920">
        <ele>277.8</ele>
        <time>2022-05-27T05:25:31Z</time>
      </trkpt>
      <trkpt lat="41.9449940" lon="2.7113180">
        <ele>277.4</ele>
        <time>2022-05-27T05:25:32Z</time>
      </trkpt>
      <trkpt lat="41.9450510" lon="2.7112490">
        <ele>276.6</ele>
        <time>2022-05-27T05:25:33Z</time>
      </trkpt>
      <trkpt lat="41.9451020" lon="2.7111880">
        <ele>276.0</ele>
        <time>2022-05-27T05:25:34Z</time>
      </trkpt>
      <trkpt lat="41.9451570" lon="2.7111240">
        <ele>275.2</ele>
        <time>2022-05-27T05:25:35Z</time>
      </trkpt>
      <trkpt lat="41.9451830" lon="2.7110590">
        <ele>274.4</ele>
        <time>2022-05-27T05:25:36Z</time>
      </trkpt>
      <trkpt lat="41.9451940" lon="2.7110000">
        <ele>273.6</ele>
        <time>2022-05-27T05:25:37Z</time>
      </trkpt>
      <trkpt lat="41.9451990" lon="2.7109540">
        <ele>272.8</ele>
        <time>2022-05-27T05:25:38Z</time>
      </trkpt>
      <trkpt lat="41.9452070" lon="2.7109340">
        <ele>272.2</ele>
        <time>2022-05-27T05:25:39Z</time>
      </trkpt>
      <trkpt lat="41.9452220" lon="2.7109310">
        <ele>271.4</ele>
        <time>2022-05-27T05:25:40Z</time>
      </trkpt>
      <trkpt lat="41.9452490" lon="2.7109520">
        <ele>270.6</ele>
        <time>2022-05-27T05:25:41Z</time>
      </trkpt>
      <trkpt lat="41.9453070" lon="2.7109650">
        <ele>269.8</ele>
        <time>2022-05-27T05:25:42Z</time>
      </trkpt>
      <trkpt lat="41.9453980" lon="2.7109730">
        <ele>268.8</ele>
        <time>2022-05-27T05:25:43Z</time>
      </trkpt>
      <trkpt lat="41.9454950" lon="2.7109680">
        <ele>267.8</ele>
        <time>2022-05-27T05:25:44Z</time>
      </trkpt>
      <trkpt lat="41.9455820" lon="2.7109620">
        <ele>267.0</ele>
        <time>2022-05-27T05:25:45Z</time>
      </trkpt>
      <trkpt lat="41.9456550" lon="2.7109620">
        <ele>266.2</ele>
        <time>2022-05-27T05:25:46Z</time>
      </trkpt>
      <trkpt lat="41.9457240" lon="2.7109660">
        <ele>265.4</ele>
        <time>2022-05-27T05:25:47Z</time>
      </trkpt>
      <trkpt lat="41.9457960" lon="2.7109650">
        <ele>264.6</ele>
        <time>2022-05-27T05:25:48Z</time>
      </trkpt>
      <trkpt lat="41.9458620" lon="2.7109540">
        <ele>264.0</ele>
        <time>2022-05-27T05:25:49Z</time>
      </trkpt>
      <trkpt lat="41.9459030" lon="2.7109350">
        <ele>263.4</ele>
        <time>2022-05-27T05:25:50Z</time>
      </trkpt>
      <trkpt lat="41.9459080" lon="2.7109080">
        <ele>263.0</ele>
        <time>2022-05-27T05:25:51Z</time>
      </trkpt>
      <trkpt lat="41.9458920" lon="2.7108870">
        <ele>262.8</ele>
        <time>2022-05-27T05:25:52Z</time>
      </trkpt>
      <trkpt lat="41.9458430" lon="2.7108630">
        <ele>262.8</ele>
        <time>2022-05-27T05:25:53Z</time>
      </trkpt>
      <trkpt lat="41.9457850" lon="2.7108450">
        <ele>262.4</ele>
        <time>2022-05-27T05:25:54Z</time>
      </trkpt>
      <trkpt lat="41.9457230" lon="2.7108300">
        <ele>262.4</ele>
        <time>2022-05-27T05:25:55Z</time>
      </trkpt>
      <trkpt lat="41.9456680" lon="2.7107970">
        <ele>262.4</ele>
        <time>2022-05-27T05:25:56Z</time>
      </trkpt>
      <trkpt lat="41.9456180" lon="2.7107330">
        <ele>262.8</ele>
        <time>2022-05-27T05:25:57Z</time>
      </trkpt>
      <trkpt lat="41.9455960" lon="2.7106500">
        <ele>263.2</ele>
        <time>2022-05-27T05:25:58Z</time>
      </trkpt>
      <trkpt lat="41.9455890" lon="2.7105460">
        <ele>263.8</ele>
        <time>2022-05-27T05:25:59Z</time>
      </trkpt>
      <trkpt lat="41.9455880" lon="2.7104310">
        <ele>264.4</ele>
        <time>2022-05-27T05:26:00Z</time>
      </trkpt>
      <trkpt lat="41.9455890" lon="2.7103240">
        <ele>265.0</ele>
        <time>2022-05-27T05:26:01Z</time>
      </trkpt>
      <trkpt lat="41.9455860" lon="2.7102290">
        <ele>265.6</ele>
        <time>2022-05-27T05:26:02Z</time>
      </trkpt>
      <trkpt lat="41.9455780" lon="2.7101380">
        <ele>266.0</ele>
        <time>2022-05-27T05:26:03Z</time>
      </trkpt>
      <trkpt lat="41.9455670" lon="2.7100600">
        <ele>266.4</ele>
        <time>2022-05-27T05:26:04Z</time>
      </trkpt>
      <trkpt lat="41.9455510" lon="2.7100100">
        <ele>267.0</ele>
        <time>2022-05-27T05:26:05Z</time>
      </trkpt>
      <trkpt lat="41.9455300" lon="2.7099740">
        <ele>267.6</ele>
        <time>2022-05-27T05:26:06Z</time>
      </trkpt>
      <trkpt lat="41.9454830" lon="2.7099490">
        <ele>268.2</ele>
        <time>2022-05-27T05:26:07Z</time>
      </trkpt>
      <trkpt lat="41.9454270" lon="2.7099370">
        <ele>268.6</ele>
        <time>2022-05-27T05:26:08Z</time>
      </trkpt>
      <trkpt lat="41.9453590" lon="2.7099340">
        <ele>269.0</ele>
        <time>2022-05-27T05:26:09Z</time>
      </trkpt>
      <trkpt lat="41.9452870" lon="2.7099400">
        <ele>269.4</ele>
        <time>2022-05-27T05:26:10Z</time>
      </trkpt>
      <trkpt lat="41.9452230" lon="2.7099360">
        <ele>269.8</ele>
        <time>2022-05-27T05:26:11Z</time>
      </trkpt>
      <trkpt lat="41.9451630" lon="2.7099310">
        <ele>270.2</ele>
        <time>2022-05-27T05:26:12Z</time>
      </trkpt>
      <trkpt lat="41.9451180" lon="2.7099260">
        <ele>270.4</ele>
        <time>2022-05-27T05:26:13Z</time>
      </trkpt>
      <trkpt lat="41.9451020" lon="2.7099210">
        <ele>270.8</ele>
        <time>2022-05-27T05:26:14Z</time>
      </trkpt>
      <trkpt lat="41.9451050" lon="2.7099170">
        <ele>271.0</ele>
        <time>2022-05-27T05:26:15Z</time>
      </trkpt>
      <trkpt lat="41.9451180" lon="2.7099090">
        <ele>271.2</ele>
        <time>2022-05-27T05:26:16Z</time>
      </trkpt>
      <trkpt lat="41.9451270" lon="2.7099020">
        <ele>271.4</ele>
        <time>2022-05-27T05:26:17Z</time>
      </trkpt>
      <trkpt lat="41.9451330" lon="2.7099010">
        <ele>271.4</ele>
        <time>2022-05-27T05:26:18Z</time>
      </trkpt>
      <trkpt lat="41.9451350" lon="2.7099000">
        <ele>271.6</ele>
        <time>2022-05-27T05:26:19Z</time>
      </trkpt>
      <trkpt lat="41.9451360" lon="2.7098980">
        <ele>271.6</ele>
        <time>2022-05-27T05:26:20Z</time>
      </trkpt>
      <trkpt lat="41.9451350" lon="2.7098940">
        <ele>271.6</ele>
        <time>2022-05-27T05:26:21Z</time>
      </trkpt>
      <trkpt lat="41.9451280" lon="2.7098880">
        <ele>271.6</ele>
        <time>2022-05-27T05:26:22Z</time>
      </trkpt>
      <trkpt lat="41.9451280" lon="2.7098880">
        <ele>271.6</ele>
        <time>2022-05-27T05:26:23Z</time>
      </trkpt>
      <trkpt lat="41.9451340" lon="2.7098870">
        <ele>271.6</ele>
        <time>2022-05-27T05:26:24Z</time>
      </trkpt>
      <trkpt lat="41.9451470" lon="2.7098820">
        <ele>271.6</ele>
        <time>2022-05-27T05:26:25Z</time>
      </trkpt>
      <trkpt lat="41.9451530" lon="2.7098770">
        <ele>271.6</ele>
        <time>2022-05-27T05:26:26Z</time>
      </trkpt>
      <trkpt lat="41.9451870" lon="2.7097420">
        <ele>271.2</ele>
        <time>2022-05-27T05:27:01Z</time>
      </trkpt>
      <trkpt lat="41.9451870" lon="2.7096970">
        <ele>271.0</ele>
        <time>2022-05-27T05:27:02Z</time>
      </trkpt>
      <trkpt lat="41.9451930" lon="2.7096520">
        <ele>270.8</ele>
        <time>2022-05-27T05:27:03Z</time>
      </trkpt>
      <trkpt lat="41.9452010" lon="2.7096130">
        <ele>270.6</ele>
        <time>2022-05-27T05:27:04Z</time>
      </trkpt>
      <trkpt lat="41.9452080" lon="2.7095820">
        <ele>270.4</ele>
        <time>2022-05-27T05:27:05Z</time>
      </trkpt>
      <trkpt lat="41.9452100" lon="2.7095490">
        <ele>270.2</ele>
        <time>2022-05-27T05:27:06Z</time>
      </trkpt>
      <trkpt lat="41.9452090" lon="2.7095140">
        <ele>269.8</ele>
        <time>2022-05-27T05:27:07Z</time>
      </trkpt>
      <trkpt lat="41.9452070" lon="2.7094850">
        <ele>269.6</ele>
        <time>2022-05-27T05:27:08Z</time>
      </trkpt>
      <trkpt lat="41.9452120" lon="2.7094670">
        <ele>269.4</ele>
        <time>2022-05-27T05:27:09Z</time>
      </trkpt>
      <trkpt lat="41.9452260" lon="2.7094540">
        <ele>269.0</ele>
        <time>2022-05-27T05:27:10Z</time>
      </trkpt>
      <trkpt lat="41.9452500" lon="2.7094350">
        <ele>268.4</ele>
        <time>2022-05-27T05:27:11Z</time>
      </trkpt>
      <trkpt lat="41.9452830" lon="2.7094050">
        <ele>268.0</ele>
        <time>2022-05-27T05:27:12Z</time>
      </trkpt>
      <trkpt lat="41.9453100" lon="2.7093750">
        <ele>267.4</ele>
        <time>2022-05-27T05:27:13Z</time>
      </trkpt>
      <trkpt lat="41.9453420" lon="2.7093500">
        <ele>267.0</ele>
        <time>2022-05-27T05:27:14Z</time>
      </trkpt>
      <trkpt lat="41.9453670" lon="2.7093240">
        <ele>266.4</ele>
        <time>2022-05-27T05:27:15Z</time>
      </trkpt>
      <trkpt lat="41.9453890" lon="2.7092960">
        <ele>265.8</ele>
        <time>2022-05-27T05:27:16Z</time>
      </trkpt>
      <trkpt lat="41.9454130" lon="2.7092740">
        <ele>265.2</ele>
        <time>2022-05-27T05:27:17Z</time>
      </trkpt>
      <trkpt lat="41.9454350" lon="2.7092600">
        <ele>264.6</ele>
        <time>2022-05-27T05:27:18Z</time>
      </trkpt>
      <trkpt lat="41.9454530" lon="2.7092450">
        <ele>264.0</ele>
        <time>2022-05-27T05:27:19Z</time>
      </trkpt>
      <trkpt lat="41.9454690" lon="2.7092210">
        <ele>263.6</ele>
        <time>2022-05-27T05:27:20Z</time>
      </trkpt>
      <trkpt lat="41.9454920" lon="2.7091900">
        <ele>263.0</ele>
        <time>2022-05-27T05:27:21Z</time>
      </trkpt>
      <trkpt lat="41.9455200" lon="2.7091550">
        <ele>262.2</ele>
        <time>2022-05-27T05:27:22Z</time>
      </trkpt>
      <trkpt lat="41.9455500" lon="2.7091160">
        <ele>261.8</ele>
        <time>2022-05-27T05:27:23Z</time>
      </trkpt>
      <trkpt lat="41.9455790" lon="2.7090760">
        <ele>261.0</ele>
        <time>2022-05-27T05:27:24Z</time>
      </trkpt>
      <trkpt lat="41.9456080" lon="2.7090300">
        <ele>260.4</ele>
        <time>2022-05-27T05:27:25Z</time>
      </trkpt>
      <trkpt lat="41.9456410" lon="2.7089940">
        <ele>259.8</ele>
        <time>2022-05-27T05:27:26Z</time>
      </trkpt>
      <trkpt lat="41.9456730" lon="2.7089790">
        <ele>259.2</ele>
        <time>2022-05-27T05:27:27Z</time>
      </trkpt>
      <trkpt lat="41.9457050" lon="2.7089750">
        <ele>258.6</ele>
        <time>2022-05-27T05:27:28Z</time>
      </trkpt>
      <trkpt lat="41.9457360" lon="2.7089620">
        <ele>258.2</ele>
        <time>2022-05-27T05:27:29Z</time>
      </trkpt>
      <trkpt lat="41.9457600" lon="2.7089320">
        <ele>257.6</ele>
        <time>2022-05-27T05:27:30Z</time>
      </trkpt>
      <trkpt lat="41.9457640" lon="2.7088930">
        <ele>257.2</ele>
        <time>2022-05-27T05:27:31Z</time>
      </trkpt>
      <trkpt lat="41.9457640" lon="2.7088510">
        <ele>256.8</ele>
        <time>2022-05-27T05:27:32Z</time>
      </trkpt>
      <trkpt lat="41.9457620" lon="2.7088080">
        <ele>256.4</ele>
        <time>2022-05-27T05:27:33Z</time>
      </trkpt>
      <trkpt lat="41.9457640" lon="2.7087600">
        <ele>256.0</ele>
        <time>2022-05-27T05:27:34Z</time>
      </trkpt>
      <trkpt lat="41.9457760" lon="2.7087120">
        <ele>255.4</ele>
        <time>2022-05-27T05:27:35Z</time>
      </trkpt>
      <trkpt lat="41.9457970" lon="2.7086710">
        <ele>255.0</ele>
        <time>2022-05-27T05:27:36Z</time>
      </trkpt>
      <trkpt lat="41.9458270" lon="2.7086310">
        <ele>254.6</ele>
        <time>2022-05-27T05:27:37Z</time>
      </trkpt>
      <trkpt lat="41.9458440" lon="2.7086010">
        <ele>254.2</ele>
        <time>2022-05-27T05:27:38Z</time>
      </trkpt>
      <trkpt lat="41.9458640" lon="2.7085800">
        <ele>253.8</ele>
        <time>2022-05-27T05:27:39Z</time>
      </trkpt>
      <trkpt lat="41.9458740" lon="2.7085590">
        <ele>253.6</ele>
        <time>2022-05-27T05:27:40Z</time>
      </trkpt>
      <trkpt lat="41.9458800" lon="2.7085340">
        <ele>253.2</ele>
        <time>2022-05-27T05:27:41Z</time>
      </trkpt>
      <trkpt lat="41.9458760" lon="2.7085000">
        <ele>253.0</ele>
        <time>2022-05-27T05:27:42Z</time>
      </trkpt>
      <trkpt lat="41.9458670" lon="2.7084660">
        <ele>252.6</ele>
        <time>2022-05-27T05:27:43Z</time>
      </trkpt>
      <trkpt lat="41.9458470" lon="2.7084380">
        <ele>252.4</ele>
        <time>2022-05-27T05:27:44Z</time>
      </trkpt>
      <trkpt lat="41.9458360" lon="2.7084100">
        <ele>252.2</ele>
        <time>2022-05-27T05:27:45Z</time>
      </trkpt>
      <trkpt lat="41.9458270" lon="2.7083790">
        <ele>252.0</ele>
        <time>2022-05-27T05:27:46Z</time>
      </trkpt>
      <trkpt lat="41.9458180" lon="2.7083380">
        <ele>251.8</ele>
        <time>2022-05-27T05:27:47Z</time>
      </trkpt>
      <trkpt lat="41.9458060" lon="2.7082890">
        <ele>251.6</ele>
        <time>2022-05-27T05:27:48Z</time>
      </trkpt>
      <trkpt lat="41.9457890" lon="2.7082370">
        <ele>251.4</ele>
        <time>2022-05-27T05:27:49Z</time>
      </trkpt>
      <trkpt lat="41.9457670" lon="2.7081830">
        <ele>251.2</ele>
        <time>2022-05-27T05:27:50Z</time>
      </trkpt>
      <trkpt lat="41.9457410" lon="2.7081210">
        <ele>251.2</ele>
        <time>2022-05-27T05:27:51Z</time>
      </trkpt>
      <trkpt lat="41.9457150" lon="2.7080640">
        <ele>251.0</ele>
        <time>2022-05-27T05:27:52Z</time>
      </trkpt>
      <trkpt lat="41.9456900" lon="2.7080090">
        <ele>251.4</ele>
        <time>2022-05-27T05:27:53Z</time>
      </trkpt>
      <trkpt lat="41.9456670" lon="2.7079440">
        <ele>251.6</ele>
        <time>2022-05-27T05:27:54Z</time>
      </trkpt>
      <trkpt lat="41.9456440" lon="2.7078640">
        <ele>251.6</ele>
        <time>2022-05-27T05:27:55Z</time>
      </trkpt>
      <trkpt lat="41.9456220" lon="2.7077730">
        <ele>251.8</ele>
        <time>2022-05-27T05:27:56Z</time>
      </trkpt>
      <trkpt lat="41.9456010" lon="2.7076860">
        <ele>251.8</ele>
        <time>2022-05-27T05:27:57Z</time>
      </trkpt>
      <trkpt lat="41.9455710" lon="2.7076070">
        <ele>251.8</ele>
        <time>2022-05-27T05:27:58Z</time>
      </trkpt>
      <trkpt lat="41.9455210" lon="2.7075160">
        <ele>251.8</ele>
        <time>2022-05-27T05:27:59Z</time>
      </trkpt>
      <trkpt lat="41.9454710" lon="2.7074310">
        <ele>252.2</ele>
        <time>2022-05-27T05:28:00Z</time>
      </trkpt>
      <trkpt lat="41.9454310" lon="2.7073510">
        <ele>252.6</ele>
        <time>2022-05-27T05:28:01Z</time>
      </trkpt>
      <trkpt lat="41.9454010" lon="2.7072700">
        <ele>253.0</ele>
        <time>2022-05-27T05:28:02Z</time>
      </trkpt>
      <trkpt lat="41.9453710" lon="2.7071910">
        <ele>253.2</ele>
        <time>2022-05-27T05:28:03Z</time>
      </trkpt>
      <trkpt lat="41.9453330" lon="2.7071060">
        <ele>253.6</ele>
        <time>2022-05-27T05:28:04Z</time>
      </trkpt>
      <trkpt lat="41.9452960" lon="2.7070130">
        <ele>253.8</ele>
        <time>2022-05-27T05:28:05Z</time>
      </trkpt>
      <trkpt lat="41.9452600" lon="2.7069100">
        <ele>253.6</ele>
        <time>2022-05-27T05:28:06Z</time>
      </trkpt>
      <trkpt lat="41.9452300" lon="2.7067970">
        <ele>253.8</ele>
        <time>2022-05-27T05:28:07Z</time>
      </trkpt>
      <trkpt lat="41.9452110" lon="2.7066900">
        <ele>254.0</ele>
        <time>2022-05-27T05:28:08Z</time>
      </trkpt>
      <trkpt lat="41.9451960" lon="2.7065970">
        <ele>254.2</ele>
        <time>2022-05-27T05:28:09Z</time>
      </trkpt>
      <trkpt lat="41.9451800" lon="2.7065120">
        <ele>254.4</ele>
        <time>2022-05-27T05:28:10Z</time>
      </trkpt>
      <trkpt lat="41.9451630" lon="2.7064340">
        <ele>254.8</ele>
        <time>2022-05-27T05:28:11Z</time>
      </trkpt>
      <trkpt lat="41.9451420" lon="2.7063610">
        <ele>255.0</ele>
        <time>2022-05-27T05:28:12Z</time>
      </trkpt>
      <trkpt lat="41.9451180" lon="2.7062740">
        <ele>255.4</ele>
        <time>2022-05-27T05:28:13Z</time>
      </trkpt>
      <trkpt lat="41.9450910" lon="2.7061670">
        <ele>255.6</ele>
        <time>2022-05-27T05:28:14Z</time>
      </trkpt>
      <trkpt lat="41.9450700" lon="2.7060630">
        <ele>256.0</ele>
        <time>2022-05-27T05:28:15Z</time>
      </trkpt>
      <trkpt lat="41.9450550" lon="2.7059670">
        <ele>256.0</ele>
        <time>2022-05-27T05:28:16Z</time>
      </trkpt>
      <trkpt lat="41.9450450" lon="2.7058800">
        <ele>256.0</ele>
        <time>2022-05-27T05:28:17Z</time>
      </trkpt>
      <trkpt lat="41.9450350" lon="2.7057810">
        <ele>256.0</ele>
        <time>2022-05-27T05:28:18Z</time>
      </trkpt>
      <trkpt lat="41.9450290" lon="2.7056900">
        <ele>255.8</ele>
        <time>2022-05-27T05:28:19Z</time>
      </trkpt>
      <trkpt lat="41.9450230" lon="2.7056120">
        <ele>255.8</ele>
        <time>2022-05-27T05:28:20Z</time>
      </trkpt>
      <trkpt lat="41.9450170" lon="2.7055400">
        <ele>256.0</ele>
        <time>2022-05-27T05:28:21Z</time>
      </trkpt>
      <trkpt lat="41.9450120" lon="2.7054730">
        <ele>256.0</ele>
        <time>2022-05-27T05:28:22Z</time>
      </trkpt>
      <trkpt lat="41.9450110" lon="2.7053950">
        <ele>256.0</ele>
        <time>2022-05-27T05:28:23Z</time>
      </trkpt>
      <trkpt lat="41.9450100" lon="2.7053050">
        <ele>255.8</ele>
        <time>2022-05-27T05:28:24Z</time>
      </trkpt>
      <trkpt lat="41.9450110" lon="2.7052210">
        <ele>255.6</ele>
        <time>2022-05-27T05:28:25Z</time>
      </trkpt>
      <trkpt lat="41.9450120" lon="2.7051500">
        <ele>255.4</ele>
        <time>2022-05-27T05:28:26Z</time>
      </trkpt>
      <trkpt lat="41.9450140" lon="2.7050900">
        <ele>255.0</ele>
        <time>2022-05-27T05:28:27Z</time>
      </trkpt>
      <trkpt lat="41.9450170" lon="2.7050220">
        <ele>254.8</ele>
        <time>2022-05-27T05:28:28Z</time>
      </trkpt>
      <trkpt lat="41.9450210" lon="2.7049390">
        <ele>254.4</ele>
        <time>2022-05-27T05:28:29Z</time>
      </trkpt>
      <trkpt lat="41.9450250" lon="2.7048470">
        <ele>254.2</ele>
        <time>2022-05-27T05:28:30Z</time>
      </trkpt>
      <trkpt lat="41.9450310" lon="2.7047570">
        <ele>254.0</ele>
        <time>2022-05-27T05:28:31Z</time>
      </trkpt>
      <trkpt lat="41.9450360" lon="2.7046790">
        <ele>253.6</ele>
        <time>2022-05-27T05:28:32Z</time>
      </trkpt>
      <trkpt lat="41.9450350" lon="2.7045950">
        <ele>253.2</ele>
        <time>2022-05-27T05:28:33Z</time>
      </trkpt>
      <trkpt lat="41.9450350" lon="2.7045050">
        <ele>252.8</ele>
        <time>2022-05-27T05:28:34Z</time>
      </trkpt>
      <trkpt lat="41.9450330" lon="2.7044320">
        <ele>252.4</ele>
        <time>2022-05-27T05:28:35Z</time>
      </trkpt>
      <trkpt lat="41.9450330" lon="2.7043790">
        <ele>252.0</ele>
        <time>2022-05-27T05:28:36Z</time>
      </trkpt>
      <trkpt lat="41.9450300" lon="2.7043330">
        <ele>251.6</ele>
        <time>2022-05-27T05:28:37Z</time>
      </trkpt>
      <trkpt lat="41.9450200" lon="2.7042940">
        <ele>251.2</ele>
        <time>2022-05-27T05:28:38Z</time>
      </trkpt>
      <trkpt lat="41.9450020" lon="2.7042600">
        <ele>250.8</ele>
        <time>2022-05-27T05:28:39Z</time>
      </trkpt>
      <trkpt lat="41.9449810" lon="2.7042240">
        <ele>250.4</ele>
        <time>2022-05-27T05:28:40Z</time>
      </trkpt>
      <trkpt lat="41.9449580" lon="2.7041820">
        <ele>250.0</ele>
        <time>2022-05-27T05:28:41Z</time>
      </trkpt>
      <trkpt lat="41.9449390" lon="2.7041270">
        <ele>249.4</ele>
        <time>2022-05-27T05:28:42Z</time>
      </trkpt>
      <trkpt lat="41.9449230" lon="2.7040680">
        <ele>248.8</ele>
        <time>2022-05-27T05:28:43Z</time>
      </trkpt>
      <trkpt lat="41.9449120" lon="2.7040120">
        <ele>248.4</ele>
        <time>2022-05-27T05:28:44Z</time>
      </trkpt>
      <trkpt lat="41.9449010" lon="2.7039630">
        <ele>248.0</ele>
        <time>2022-05-27T05:28:45Z</time>
      </trkpt>
      <trkpt lat="41.9448880" lon="2.7039210">
        <ele>247.4</ele>
        <time>2022-05-27T05:28:46Z</time>
      </trkpt>
      <trkpt lat="41.9448680" lon="2.7038780">
        <ele>246.8</ele>
        <time>2022-05-27T05:28:47Z</time>
      </trkpt>
      <trkpt lat="41.9448470" lon="2.7038290">
        <ele>246.2</ele>
        <time>2022-05-27T05:28:48Z</time>
      </trkpt>
      <trkpt lat="41.9448250" lon="2.7037820">
        <ele>245.8</ele>
        <time>2022-05-27T05:28:49Z</time>
      </trkpt>
      <trkpt lat="41.9447980" lon="2.7037410">
        <ele>245.2</ele>
        <time>2022-05-27T05:28:50Z</time>
      </trkpt>
      <trkpt lat="41.9447660" lon="2.7037080">
        <ele>244.6</ele>
        <time>2022-05-27T05:28:51Z</time>
      </trkpt>
      <trkpt lat="41.9447330" lon="2.7036750">
        <ele>244.2</ele>
        <time>2022-05-27T05:28:52Z</time>
      </trkpt>
      <trkpt lat="41.9446970" lon="2.7036400">
        <ele>243.6</ele>
        <time>2022-05-27T05:28:53Z</time>
      </trkpt>
      <trkpt lat="41.9446540" lon="2.7036040">
        <ele>242.8</ele>
        <time>2022-05-27T05:28:54Z</time>
      </trkpt>
      <trkpt lat="41.9446060" lon="2.7035720">
        <ele>242.0</ele>
        <time>2022-05-27T05:28:55Z</time>
      </trkpt>
      <trkpt lat="41.9445600" lon="2.7035470">
        <ele>241.4</ele>
        <time>2022-05-27T05:28:56Z</time>
      </trkpt>
      <trkpt lat="41.9445250" lon="2.7035210">
        <ele>240.6</ele>
        <time>2022-05-27T05:28:57Z</time>
      </trkpt>
      <trkpt lat="41.9445020" lon="2.7034860">
        <ele>239.8</ele>
        <time>2022-05-27T05:28:58Z</time>
      </trkpt>
      <trkpt lat="41.9444880" lon="2.7034400">
        <ele>239.0</ele>
        <time>2022-05-27T05:28:59Z</time>
      </trkpt>
      <trkpt lat="41.9444750" lon="2.7033920">
        <ele>238.2</ele>
        <time>2022-05-27T05:29:00Z</time>
      </trkpt>
      <trkpt lat="41.9444550" lon="2.7033400">
        <ele>237.2</ele>
        <time>2022-05-27T05:29:01Z</time>
      </trkpt>
      <trkpt lat="41.9444370" lon="2.7032860">
        <ele>236.4</ele>
        <time>2022-05-27T05:29:02Z</time>
      </trkpt>
      <trkpt lat="41.9444300" lon="2.7032300">
        <ele>235.6</ele>
        <time>2022-05-27T05:29:03Z</time>
      </trkpt>
      <trkpt lat="41.9444260" lon="2.7031750">
        <ele>234.8</ele>
        <time>2022-05-27T05:29:04Z</time>
      </trkpt>
      <trkpt lat="41.9444250" lon="2.7031250">
        <ele>234.0</ele>
        <time>2022-05-27T05:29:05Z</time>
      </trkpt>
      <trkpt lat="41.9444280" lon="2.7030700">
        <ele>233.2</ele>
        <time>2022-05-27T05:29:06Z</time>
      </trkpt>
      <trkpt lat="41.9444360" lon="2.7030190">
        <ele>232.4</ele>
        <time>2022-05-27T05:29:07Z</time>
      </trkpt>
      <trkpt lat="41.9444470" lon="2.7029730">
        <ele>231.6</ele>
        <time>2022-05-27T05:29:08Z</time>
      </trkpt>
      <trkpt lat="41.9444570" lon="2.7029270">
        <ele>230.8</ele>
        <time>2022-05-27T05:29:09Z</time>
      </trkpt>
      <trkpt lat="41.9444650" lon="2.7028810">
        <ele>230.0</ele>
        <time>2022-05-27T05:29:10Z</time>
      </trkpt>
      <trkpt lat="41.9444710" lon="2.7028400">
        <ele>229.2</ele>
        <time>2022-05-27T05:29:11Z</time>
      </trkpt>
      <trkpt lat="41.9444750" lon="2.7028010">
        <ele>228.4</ele>
        <time>2022-05-27T05:29:12Z</time>
      </trkpt>
      <trkpt lat="41.9444770" lon="2.7027700">
        <ele>227.6</ele>
        <time>2022-05-27T05:29:13Z</time>
      </trkpt>
      <trkpt lat="41.9444760" lon="2.7027450">
        <ele>226.8</ele>
        <time>2022-05-27T05:29:14Z</time>
      </trkpt>
      <trkpt lat="41.9444750" lon="2.7027150">
        <ele>226.2</ele>
        <time>2022-05-27T05:29:15Z</time>
      </trkpt>
      <trkpt lat="41.9444690" lon="2.7026820">
        <ele>225.4</ele>
        <time>2022-05-27T05:29:16Z</time>
      </trkpt>
      <trkpt lat="41.9444620" lon="2.7026570">
        <ele>224.8</ele>
        <time>2022-05-27T05:29:17Z</time>
      </trkpt>
      <trkpt lat="41.9444610" lon="2.7026380">
        <ele>224.2</ele>
        <time>2022-05-27T05:29:18Z</time>
      </trkpt>
      <trkpt lat="41.9444610" lon="2.7026140">
        <ele>223.6</ele>
        <time>2022-05-27T05:29:19Z</time>
      </trkpt>
      <trkpt lat="41.9444660" lon="2.7025820">
        <ele>223.0</ele>
        <time>2022-05-27T05:29:20Z</time>
      </trkpt>
      <trkpt lat="41.9444770" lon="2.7025390">
        <ele>222.6</ele>
        <time>2022-05-27T05:29:21Z</time>
      </trkpt>
      <trkpt lat="41.9444890" lon="2.7024980">
        <ele>222.0</ele>
        <time>2022-05-27T05:29:22Z</time>
      </trkpt>
      <trkpt lat="41.9444990" lon="2.7024550">
        <ele>221.6</ele>
        <time>2022-05-27T05:29:23Z</time>
      </trkpt>
      <trkpt lat="41.9445120" lon="2.7024200">
        <ele>221.2</ele>
        <time>2022-05-27T05:29:24Z</time>
      </trkpt>
      <trkpt lat="41.9445340" lon="2.7023980">
        <ele>220.8</ele>
        <time>2022-05-27T05:29:25Z</time>
      </trkpt>
      <trkpt lat="41.9445680" lon="2.7023780">
        <ele>220.4</ele>
        <time>2022-05-27T05:29:26Z</time>
      </trkpt>
      <trkpt lat="41.9446090" lon="2.7023470">
        <ele>220.2</ele>
        <time>2022-05-27T05:29:27Z</time>
      </trkpt>
      <trkpt lat="41.9446430" lon="2.7023170">
        <ele>220.0</ele>
        <time>2022-05-27T05:29:28Z</time>
      </trkpt>
      <trkpt lat="41.9446700" lon="2.7022890">
        <ele>219.6</ele>
        <time>2022-05-27T05:29:29Z</time>
      </trkpt>
      <trkpt lat="41.9446980" lon="2.7022580">
        <ele>219.4</ele>
        <time>2022-05-27T05:29:30Z</time>
      </trkpt>
      <trkpt lat="41.9447240" lon="2.7022270">
        <ele>219.4</ele>
        <time>2022-05-27T05:29:31Z</time>
      </trkpt>
      <trkpt lat="41.9447490" lon="2.7021870">
        <ele>219.2</ele>
        <time>2022-05-27T05:29:32Z</time>
      </trkpt>
      <trkpt lat="41.9447730" lon="2.7021310">
        <ele>219.0</ele>
        <time>2022-05-27T05:29:33Z</time>
      </trkpt>
      <trkpt lat="41.9447900" lon="2.7020700">
        <ele>218.8</ele>
        <time>2022-05-27T05:29:34Z</time>
      </trkpt>
      <trkpt lat="41.9448180" lon="2.7020050">
        <ele>219.0</ele>
        <time>2022-05-27T05:29:35Z</time>
      </trkpt>
      <trkpt lat="41.9448580" lon="2.7019460">
        <ele>219.0</ele>
        <time>2022-05-27T05:29:36Z</time>
      </trkpt>
      <trkpt lat="41.9448940" lon="2.7018960">
        <ele>219.2</ele>
        <time>2022-05-27T05:29:37Z</time>
      </trkpt>
      <trkpt lat="41.9449310" lon="2.7018410">
        <ele>219.2</ele>
        <time>2022-05-27T05:29:38Z</time>
      </trkpt>
      <trkpt lat="41.9449710" lon="2.7017790">
        <ele>219.4</ele>
        <time>2022-05-27T05:29:39Z</time>
      </trkpt>
      <trkpt lat="41.9450070" lon="2.7017250">
        <ele>219.4</ele>
        <time>2022-05-27T05:29:40Z</time>
      </trkpt>
      <trkpt lat="41.9450410" lon="2.7016810">
        <ele>219.4</ele>
        <time>2022-05-27T05:29:41Z</time>
      </trkpt>
      <trkpt lat="41.9450790" lon="2.7016340">
        <ele>219.2</ele>
        <time>2022-05-27T05:29:42Z</time>
      </trkpt>
      <trkpt lat="41.9451330" lon="2.7015720">
        <ele>219.2</ele>
        <time>2022-05-27T05:29:43Z</time>
      </trkpt>
      <trkpt lat="41.9451760" lon="2.7015160">
        <ele>219.0</ele>
        <time>2022-05-27T05:29:44Z</time>
      </trkpt>
      <trkpt lat="41.9452230" lon="2.7014600">
        <ele>219.0</ele>
        <time>2022-05-27T05:29:45Z</time>
      </trkpt>
      <trkpt lat="41.9452790" lon="2.7013960">
        <ele>218.6</ele>
        <time>2022-05-27T05:29:46Z</time>
      </trkpt>
      <trkpt lat="41.9453290" lon="2.7013380">
        <ele>218.4</ele>
        <time>2022-05-27T05:29:47Z</time>
      </trkpt>
      <trkpt lat="41.9453730" lon="2.7012920">
        <ele>218.2</ele>
        <time>2022-05-27T05:29:48Z</time>
      </trkpt>
      <trkpt lat="41.9454140" lon="2.7012560">
        <ele>218.0</ele>
        <time>2022-05-27T05:29:49Z</time>
      </trkpt>
      <trkpt lat="41.9454550" lon="2.7012250">
        <ele>217.6</ele>
        <time>2022-05-27T05:29:50Z</time>
      </trkpt>
      <trkpt lat="41.9454950" lon="2.7011980">
        <ele>217.4</ele>
        <time>2022-05-27T05:29:51Z</time>
      </trkpt>
      <trkpt lat="41.9455410" lon="2.7011670">
        <ele>217.2</ele>
        <time>2022-05-27T05:29:52Z</time>
      </trkpt>
      <trkpt lat="41.9455900" lon="2.7011390">
        <ele>217.2</ele>
        <time>2022-05-27T05:29:53Z</time>
      </trkpt>
      <trkpt lat="41.9456500" lon="2.7011100">
        <ele>217.4</ele>
        <time>2022-05-27T05:29:54Z</time>
      </trkpt>
      <trkpt lat="41.9457150" lon="2.7010820">
        <ele>217.4</ele>
        <time>2022-05-27T05:29:55Z</time>
      </trkpt>
      <trkpt lat="41.9457850" lon="2.7010540">
        <ele>217.4</ele>
        <time>2022-05-27T05:29:56Z</time>
      </trkpt>
      <trkpt lat="41.9458390" lon="2.7010300">
        <ele>217.6</ele>
        <time>2022-05-27T05:29:57Z</time>
      </trkpt>
      <trkpt lat="41.9458810" lon="2.7010150">
        <ele>217.8</ele>
        <time>2022-05-27T05:29:58Z</time>
      </trkpt>
      <trkpt lat="41.9459300" lon="2.7010060">
        <ele>218.2</ele>
        <time>2022-05-27T05:29:59Z</time>
      </trkpt>
      <trkpt lat="41.9459830" lon="2.7009990">
        <ele>218.4</ele>
        <time>2022-05-27T05:30:00Z</time>
      </trkpt>
      <trkpt lat="41.9460390" lon="2.7009890">
        <ele>218.6</ele>
        <time>2022-05-27T05:30:01Z</time>
      </trkpt>
      <trkpt lat="41.9460960" lon="2.7009790">
        <ele>219.0</ele>
        <time>2022-05-27T05:30:02Z</time>
      </trkpt>
      <trkpt lat="41.9461500" lon="2.7009660">
        <ele>219.2</ele>
        <time>2022-05-27T05:30:03Z</time>
      </trkpt>
      <trkpt lat="41.9461980" lon="2.7009600">
        <ele>219.2</ele>
        <time>2022-05-27T05:30:04Z</time>
      </trkpt>
      <trkpt lat="41.9462520" lon="2.7009570">
        <ele>219.4</ele>
        <time>2022-05-27T05:30:05Z</time>
      </trkpt>
      <trkpt lat="41.9462990" lon="2.7009580">
        <ele>219.6</ele>
        <time>2022-05-27T05:30:06Z</time>
      </trkpt>
      <trkpt lat="41.9463320" lon="2.7009640">
        <ele>219.8</ele>
        <time>2022-05-27T05:30:07Z</time>
      </trkpt>
      <trkpt lat="41.9463570" lon="2.7009670">
        <ele>220.0</ele>
        <time>2022-05-27T05:30:08Z</time>
      </trkpt>
      <trkpt lat="41.9463830" lon="2.7009600">
        <ele>220.0</ele>
        <time>2022-05-27T05:30:09Z</time>
      </trkpt>
      <trkpt lat="41.9464060" lon="2.7009370">
        <ele>220.0</ele>
        <time>2022-05-27T05:30:10Z</time>
      </trkpt>
      <trkpt lat="41.9464250" lon="2.7009000">
        <ele>219.8</ele>
        <time>2022-05-27T05:30:11Z</time>
      </trkpt>
      <trkpt lat="41.9464390" lon="2.7008520">
        <ele>219.6</ele>
        <time>2022-05-27T05:30:12Z</time>
      </trkpt>
      <trkpt lat="41.9464520" lon="2.7008140">
        <ele>219.4</ele>
        <time>2022-05-27T05:30:13Z</time>
      </trkpt>
      <trkpt lat="41.9464730" lon="2.7007770">
        <ele>219.2</ele>
        <time>2022-05-27T05:30:14Z</time>
      </trkpt>
      <trkpt lat="41.9464990" lon="2.7007560">
        <ele>218.8</ele>
        <time>2022-05-27T05:30:15Z</time>
      </trkpt>
      <trkpt lat="41.9465300" lon="2.7007330">
        <ele>218.2</ele>
        <time>2022-05-27T05:30:16Z</time>
      </trkpt>
      <trkpt lat="41.9465640" lon="2.7007030">
        <ele>217.8</ele>
        <time>2022-05-27T05:30:17Z</time>
      </trkpt>
      <trkpt lat="41.9466010" lon="2.7006700">
        <ele>217.2</ele>
        <time>2022-05-27T05:30:18Z</time>
      </trkpt>
      <trkpt lat="41.9466300" lon="2.7006390">
        <ele>216.6</ele>
        <time>2022-05-27T05:30:19Z</time>
      </trkpt>
      <trkpt lat="41.9466420" lon="2.7006060">
        <ele>216.0</ele>
        <time>2022-05-27T05:30:20Z</time>
      </trkpt>
      <trkpt lat="41.9466410" lon="2.7005690">
        <ele>215.4</ele>
        <time>2022-05-27T05:30:21Z</time>
      </trkpt>
      <trkpt lat="41.9466400" lon="2.7005270">
        <ele>214.6</ele>
        <time>2022-05-27T05:30:22Z</time>
      </trkpt>
      <trkpt lat="41.9466440" lon="2.7004860">
        <ele>214.0</ele>
        <time>2022-05-27T05:30:23Z</time>
      </trkpt>
      <trkpt lat="41.9466550" lon="2.7004560">
        <ele>213.6</ele>
        <time>2022-05-27T05:30:24Z</time>
      </trkpt>
      <trkpt lat="41.9466710" lon="2.7004470">
        <ele>213.0</ele>
        <time>2022-05-27T05:30:25Z</time>
      </trkpt>
      <trkpt lat="41.9466860" lon="2.7004480">
        <ele>212.8</ele>
        <time>2022-05-27T05:30:26Z</time>
      </trkpt>
      <trkpt lat="41.9467020" lon="2.7004580">
        <ele>212.4</ele>
        <time>2022-05-27T05:30:27Z</time>
      </trkpt>
      <trkpt lat="41.9467170" lon="2.7004580">
        <ele>212.2</ele>
        <time>2022-05-27T05:30:28Z</time>
      </trkpt>
      <trkpt lat="41.9467300" lon="2.7004600">
        <ele>212.0</ele>
        <time>2022-05-27T05:30:29Z</time>
      </trkpt>
      <trkpt lat="41.9467310" lon="2.7004610">
        <ele>212.0</ele>
        <time>2022-05-27T05:30:30Z</time>
      </trkpt>
      <trkpt lat="41.9467340" lon="2.7004650">
        <ele>212.0</ele>
        <time>2022-05-27T05:30:31Z</time>
      </trkpt>
      <trkpt lat="41.9467390" lon="2.7004670">
        <ele>211.8</ele>
        <time>2022-05-27T05:30:32Z</time>
      </trkpt>
      <trkpt lat="41.9467460" lon="2.7004610">
        <ele>211.6</ele>
        <time>2022-05-27T05:30:33Z</time>
      </trkpt>
      <trkpt lat="41.9467560" lon="2.7004410">
        <ele>211.6</ele>
        <time>2022-05-27T05:30:34Z</time>
      </trkpt>
      <trkpt lat="41.9467670" lon="2.7004140">
        <ele>211.4</ele>
        <time>2022-05-27T05:30:35Z</time>
      </trkpt>
      <trkpt lat="41.9467770" lon="2.7003830">
        <ele>211.4</ele>
        <time>2022-05-27T05:30:36Z</time>
      </trkpt>
      <trkpt lat="41.9467890" lon="2.7003710">
        <ele>211.2</ele>
        <time>2022-05-27T05:30:37Z</time>
      </trkpt>
      <trkpt lat="41.9468050" lon="2.7003610">
        <ele>211.2</ele>
        <time>2022-05-27T05:30:38Z</time>
      </trkpt>
      <trkpt lat="41.9468280" lon="2.7003550">
        <ele>211.4</ele>
        <time>2022-05-27T05:30:39Z</time>
      </trkpt>
      <trkpt lat="41.9468510" lon="2.7003500">
        <ele>211.4</ele>
        <time>2022-05-27T05:30:40Z</time>
      </trkpt>
      <trkpt lat="41.9468750" lon="2.7003500">
        <ele>211.6</ele>
        <time>2022-05-27T05:30:41Z</time>
      </trkpt>
      <trkpt lat="41.9468990" lon="2.7003580">
        <ele>211.8</ele>
        <time>2022-05-27T05:30:42Z</time>
      </trkpt>
      <trkpt lat="41.9469280" lon="2.7003710">
        <ele>212.2</ele>
        <time>2022-05-27T05:30:43Z</time>
      </trkpt>
      <trkpt lat="41.9469660" lon="2.7003930">
        <ele>212.2</ele>
        <time>2022-05-27T05:30:44Z</time>
      </trkpt>
      <trkpt lat="41.9470080" lon="2.7004110">
        <ele>212.6</ele>
        <time>2022-05-27T05:30:45Z</time>
      </trkpt>
      <trkpt lat="41.9470490" lon="2.7004290">
        <ele>212.8</ele>
        <time>2022-05-27T05:30:46Z</time>
      </trkpt>
      <trkpt lat="41.9470950" lon="2.7004380">
        <ele>213.0</ele>
        <time>2022-05-27T05:30:47Z</time>
      </trkpt>
      <trkpt lat="41.9471400" lon="2.7004390">
        <ele>213.0</ele>
        <time>2022-05-27T05:30:48Z</time>
      </trkpt>
      <trkpt lat="41.9471780" lon="2.7004380">
        <ele>213.2</ele>
        <time>2022-05-27T05:30:49Z</time>
      </trkpt>
      <trkpt lat="41.9472140" lon="2.7004430">
        <ele>213.2</ele>
        <time>2022-05-27T05:30:50Z</time>
      </trkpt>
      <trkpt lat="41.9472570" lon="2.7004590">
        <ele>213.4</ele>
        <time>2022-05-27T05:30:51Z</time>
      </trkpt>
      <trkpt lat="41.9473020" lon="2.7004830">
        <ele>213.4</ele>
        <time>2022-05-27T05:30:52Z</time>
      </trkpt>
      <trkpt lat="41.9473440" lon="2.7005070">
        <ele>213.6</ele>
        <time>2022-05-27T05:30:53Z</time>
      </trkpt>
      <trkpt lat="41.9473810" lon="2.7005370">
        <ele>213.6</ele>
        <time>2022-05-27T05:30:54Z</time>
      </trkpt>
      <trkpt lat="41.9474190" lon="2.7005690">
        <ele>213.6</ele>
        <time>2022-05-27T05:30:55Z</time>
      </trkpt>
      <trkpt lat="41.9474640" lon="2.7006080">
        <ele>213.4</ele>
        <time>2022-05-27T05:30:56Z</time>
      </trkpt>
      <trkpt lat="41.9475100" lon="2.7006230">
        <ele>213.0</ele>
        <time>2022-05-27T05:30:57Z</time>
      </trkpt>
      <trkpt lat="41.9475540" lon="2.7006260">
        <ele>212.8</ele>
        <time>2022-05-27T05:30:58Z</time>
      </trkpt>
      <trkpt lat="41.9476010" lon="2.7005960">
        <ele>212.4</ele>
        <time>2022-05-27T05:30:59Z</time>
      </trkpt>
      <trkpt lat="41.9476290" lon="2.7005590">
        <ele>212.0</ele>
        <time>2022-05-27T05:31:00Z</time>
      </trkpt>
      <trkpt lat="41.9476440" lon="2.7005280">
        <ele>211.6</ele>
        <time>2022-05-27T05:31:01Z</time>
      </trkpt>
      <trkpt lat="41.9476580" lon="2.7004990">
        <ele>211.2</ele>
        <time>2022-05-27T05:31:02Z</time>
      </trkpt>
      <trkpt lat="41.9476780" lon="2.7004640">
        <ele>210.8</ele>
        <time>2022-05-27T05:31:03Z</time>
      </trkpt>
      <trkpt lat="41.9476800" lon="2.7004210">
        <ele>210.4</ele>
        <time>2022-05-27T05:31:04Z</time>
      </trkpt>
      <trkpt lat="41.9476800" lon="2.7003830">
        <ele>210.0</ele>
        <time>2022-05-27T05:31:05Z</time>
      </trkpt>
      <trkpt lat="41.9476820" lon="2.7003510">
        <ele>209.4</ele>
        <time>2022-05-27T05:31:06Z</time>
      </trkpt>
      <trkpt lat="41.9476850" lon="2.7003160">
        <ele>208.8</ele>
        <time>2022-05-27T05:31:07Z</time>
      </trkpt>
      <trkpt lat="41.9476920" lon="2.7002770">
        <ele>208.2</ele>
        <time>2022-05-27T05:31:08Z</time>
      </trkpt>
      <trkpt lat="41.9477010" lon="2.7002390">
        <ele>207.6</ele>
        <time>2022-05-27T05:31:09Z</time>
      </trkpt>
      <trkpt lat="41.9477100" lon="2.7002070">
        <ele>207.4</ele>
        <time>2022-05-27T05:31:10Z</time>
      </trkpt>
      <trkpt lat="41.9477190" lon="2.7001850">
        <ele>207.0</ele>
        <time>2022-05-27T05:31:11Z</time>
      </trkpt>
      <trkpt lat="41.9477240" lon="2.7001740">
        <ele>206.8</ele>
        <time>2022-05-27T05:31:12Z</time>
      </trkpt>
      <trkpt lat="41.9477340" lon="2.7001670">
        <ele>206.6</ele>
        <time>2022-05-27T05:31:13Z</time>
      </trkpt>
      <trkpt lat="41.9477510" lon="2.7001570">
        <ele>206.2</ele>
        <time>2022-05-27T05:31:14Z</time>
      </trkpt>
      <trkpt lat="41.9477680" lon="2.7001500">
        <ele>206.0</ele>
        <time>2022-05-27T05:31:15Z</time>
      </trkpt>
      <trkpt lat="41.9477870" lon="2.7001480">
        <ele>205.8</ele>
        <time>2022-05-27T05:31:16Z</time>
      </trkpt>
      <trkpt lat="41.9478130" lon="2.7001480">
        <ele>205.6</ele>
        <time>2022-05-27T05:31:17Z</time>
      </trkpt>
      <trkpt lat="41.9478430" lon="2.7001450">
        <ele>205.6</ele>
        <time>2022-05-27T05:31:18Z</time>
      </trkpt>
      <trkpt lat="41.9478650" lon="2.7001330">
        <ele>205.6</ele>
        <time>2022-05-27T05:31:19Z</time>
      </trkpt>
      <trkpt lat="41.9478760" lon="2.7001110">
        <ele>205.6</ele>
        <time>2022-05-27T05:31:20Z</time>
      </trkpt>
      <trkpt lat="41.9478760" lon="2.7000810">
        <ele>205.4</ele>
        <time>2022-05-27T05:31:21Z</time>
      </trkpt>
      <trkpt lat="41.9478730" lon="2.7000560">
        <ele>205.4</ele>
        <time>2022-05-27T05:31:22Z</time>
      </trkpt>
      <trkpt lat="41.9478730" lon="2.7000280">
        <ele>205.4</ele>
        <time>2022-05-27T05:31:23Z</time>
      </trkpt>
      <trkpt lat="41.9478800" lon="2.7000040">
        <ele>205.4</ele>
        <time>2022-05-27T05:31:24Z</time>
      </trkpt>
      <trkpt lat="41.9478960" lon="2.6999780">
        <ele>205.4</ele>
        <time>2022-05-27T05:31:25Z</time>
      </trkpt>
      <trkpt lat="41.9479160" lon="2.6999480">
        <ele>205.2</ele>
        <time>2022-05-27T05:31:26Z</time>
      </trkpt>
      <trkpt lat="41.9479400" lon="2.6999060">
        <ele>205.2</ele>
        <time>2022-05-27T05:31:27Z</time>
      </trkpt>
      <trkpt lat="41.9479550" lon="2.6998510">
        <ele>205.0</ele>
        <time>2022-05-27T05:31:28Z</time>
      </trkpt>
      <trkpt lat="41.9479760" lon="2.6997840">
        <ele>204.8</ele>
        <time>2022-05-27T05:31:29Z</time>
      </trkpt>
      <trkpt lat="41.9479940" lon="2.6997190">
        <ele>204.6</ele>
        <time>2022-05-27T05:31:30Z</time>
      </trkpt>
      <trkpt lat="41.9480080" lon="2.6996640">
        <ele>204.4</ele>
        <time>2022-05-27T05:31:31Z</time>
      </trkpt>
      <trkpt lat="41.9480220" lon="2.6996130">
        <ele>204.2</ele>
        <time>2022-05-27T05:31:32Z</time>
      </trkpt>
      <trkpt lat="41.9480380" lon="2.6995600">
        <ele>204.0</ele>
        <time>2022-05-27T05:31:33Z</time>
      </trkpt>
      <trkpt lat="41.9480560" lon="2.6995010">
        <ele>204.0</ele>
        <time>2022-05-27T05:31:34Z</time>
      </trkpt>
      <trkpt lat="41.9480740" lon="2.6994350">
        <ele>203.8</ele>
        <time>2022-05-27T05:31:35Z</time>
      </trkpt>
      <trkpt lat="41.9480790" lon="2.6993580">
        <ele>203.8</ele>
        <time>2022-05-27T05:31:36Z</time>
      </trkpt>
      <trkpt lat="41.9480800" lon="2.6992810">
        <ele>203.6</ele>
        <time>2022-05-27T05:31:37Z</time>
      </trkpt>
      <trkpt lat="41.9480670" lon="2.6992080">
        <ele>203.4</ele>
        <time>2022-05-27T05:31:38Z</time>
      </trkpt>
      <trkpt lat="41.9480490" lon="2.6991400">
        <ele>203.4</ele>
        <time>2022-05-27T05:31:39Z</time>
      </trkpt>
      <trkpt lat="41.9480410" lon="2.6990810">
        <ele>203.4</ele>
        <time>2022-05-27T05:31:40Z</time>
      </trkpt>
      <trkpt lat="41.9480360" lon="2.6990220">
        <ele>203.2</ele>
        <time>2022-05-27T05:31:41Z</time>
      </trkpt>
      <trkpt lat="41.9480330" lon="2.6989560">
        <ele>203.0</ele>
        <time>2022-05-27T05:31:42Z</time>
      </trkpt>
      <trkpt lat="41.9480260" lon="2.6988840">
        <ele>203.0</ele>
        <time>2022-05-27T05:31:43Z</time>
      </trkpt>
      <trkpt lat="41.9480130" lon="2.6988070">
        <ele>202.8</ele>
        <time>2022-05-27T05:31:44Z</time>
      </trkpt>
      <trkpt lat="41.9479920" lon="2.6987350">
        <ele>202.6</ele>
        <time>2022-05-27T05:31:45Z</time>
      </trkpt>
      <trkpt lat="41.9479670" lon="2.6986730">
        <ele>202.6</ele>
        <time>2022-05-27T05:31:46Z</time>
      </trkpt>
      <trkpt lat="41.9479440" lon="2.6986200">
        <ele>202.4</ele>
        <time>2022-05-27T05:31:47Z</time>
      </trkpt>
      <trkpt lat="41.9479240" lon="2.6985700">
        <ele>202.0</ele>
        <time>2022-05-27T05:31:48Z</time>
      </trkpt>
      <trkpt lat="41.9479120" lon="2.6985270">
        <ele>202.0</ele>
        <time>2022-05-27T05:31:49Z</time>
      </trkpt>
      <trkpt lat="41.9479050" lon="2.6984930">
        <ele>201.8</ele>
        <time>2022-05-27T05:31:50Z</time>
      </trkpt>
      <trkpt lat="41.9479080" lon="2.6984580">
        <ele>201.8</ele>
        <time>2022-05-27T05:31:51Z</time>
      </trkpt>
      <trkpt lat="41.9479180" lon="2.6984190">
        <ele>201.8</ele>
        <time>2022-05-27T05:31:52Z</time>
      </trkpt>
      <trkpt lat="41.9479280" lon="2.6983870">
        <ele>201.8</ele>
        <time>2022-05-27T05:31:53Z</time>
      </trkpt>
      <trkpt lat="41.9479320" lon="2.6983570">
        <ele>201.8</ele>
        <time>2022-05-27T05:31:54Z</time>
      </trkpt>
      <trkpt lat="41.9479350" lon="2.6983140">
        <ele>201.8</ele>
        <time>2022-05-27T05:31:55Z</time>
      </trkpt>
      <trkpt lat="41.9479420" lon="2.6982570">
        <ele>202.0</ele>
        <time>2022-05-27T05:31:56Z</time>
      </trkpt>
      <trkpt lat="41.9479420" lon="2.6981950">
        <ele>202.0</ele>
        <time>2022-05-27T05:31:57Z</time>
      </trkpt>
      <trkpt lat="41.9479380" lon="2.6981450">
        <ele>202.2</ele>
        <time>2022-05-27T05:31:58Z</time>
      </trkpt>
      <trkpt lat="41.9479280" lon="2.6981100">
        <ele>202.2</ele>
        <time>2022-05-27T05:31:59Z</time>
      </trkpt>
      <trkpt lat="41.9479170" lon="2.6980800">
        <ele>202.4</ele>
        <time>2022-05-27T05:32:00Z</time>
      </trkpt>
      <trkpt lat="41.9478980" lon="2.6980570">
        <ele>202.4</ele>
        <time>2022-05-27T05:32:01Z</time>
      </trkpt>
      <trkpt lat="41.9478750" lon="2.6980410">
        <ele>202.6</ele>
        <time>2022-05-27T05:32:02Z</time>
      </trkpt>
      <trkpt lat="41.9478540" lon="2.6980200">
        <ele>202.6</ele>
        <time>2022-05-27T05:32:03Z</time>
      </trkpt>
      <trkpt lat="41.9478380" lon="2.6979860">
        <ele>202.6</ele>
        <time>2022-05-27T05:32:04Z</time>
      </trkpt>
      <trkpt lat="41.9478310" lon="2.6979370">
        <ele>202.6</ele>
        <time>2022-05-27T05:32:05Z</time>
      </trkpt>
      <trkpt lat="41.9478330" lon="2.6978820">
        <ele>202.8</ele>
        <time>2022-05-27T05:32:06Z</time>
      </trkpt>
      <trkpt lat="41.9478340" lon="2.6978320">
        <ele>202.8</ele>
        <time>2022-05-27T05:32:07Z</time>
      </trkpt>
      <trkpt lat="41.9478320" lon="2.6977850">
        <ele>202.8</ele>
        <time>2022-05-27T05:32:08Z</time>
      </trkpt>
      <trkpt lat="41.9478220" lon="2.6977360">
        <ele>203.0</ele>
        <time>2022-05-27T05:32:09Z</time>
      </trkpt>
      <trkpt lat="41.9478110" lon="2.6976840">
        <ele>203.0</ele>
        <time>2022-05-27T05:32:10Z</time>
      </trkpt>
      <trkpt lat="41.9478000" lon="2.6976300">
        <ele>203.0</ele>
        <time>2022-05-27T05:32:11Z</time>
      </trkpt>
      <trkpt lat="41.9477960" lon="2.6975800">
        <ele>203.0</ele>
        <time>2022-05-27T05:32:12Z</time>
      </trkpt>
      <trkpt lat="41.9477920" lon="2.6975360">
        <ele>202.8</ele>
        <time>2022-05-27T05:32:13Z</time>
      </trkpt>
      <trkpt lat="41.9477810" lon="2.6974980">
        <ele>202.8</ele>
        <time>2022-05-27T05:32:14Z</time>
      </trkpt>
      <trkpt lat="41.9477660" lon="2.6974650">
        <ele>202.6</ele>
        <time>2022-05-27T05:32:15Z</time>
      </trkpt>
      <trkpt lat="41.9477530" lon="2.6974350">
        <ele>202.6</ele>
        <time>2022-05-27T05:32:16Z</time>
      </trkpt>
      <trkpt lat="41.9477490" lon="2.6974090">
        <ele>202.4</ele>
        <time>2022-05-27T05:32:17Z</time>
      </trkpt>
      <trkpt lat="41.9477500" lon="2.6973810">
        <ele>202.4</ele>
        <time>2022-05-27T05:32:18Z</time>
      </trkpt>
      <trkpt lat="41.9477520" lon="2.6973650">
        <ele>202.2</ele>
        <time>2022-05-27T05:32:19Z</time>
      </trkpt>
      <trkpt lat="41.9477530" lon="2.6973570">
        <ele>202.0</ele>
        <time>2022-05-27T05:32:20Z</time>
      </trkpt>
      <trkpt lat="41.9477500" lon="2.6973400">
        <ele>202.0</ele>
        <time>2022-05-27T05:32:21Z</time>
      </trkpt>
      <trkpt lat="41.9477430" lon="2.6973150">
        <ele>201.8</ele>
        <time>2022-05-27T05:32:22Z</time>
      </trkpt>
      <trkpt lat="41.9477300" lon="2.6972880">
        <ele>201.4</ele>
        <time>2022-05-27T05:32:23Z</time>
      </trkpt>
      <trkpt lat="41.9477090" lon="2.6972620">
        <ele>201.2</ele>
        <time>2022-05-27T05:32:24Z</time>
      </trkpt>
      <trkpt lat="41.9476910" lon="2.6972340">
        <ele>201.2</ele>
        <time>2022-05-27T05:32:25Z</time>
      </trkpt>
      <trkpt lat="41.9476830" lon="2.6972090">
        <ele>201.0</ele>
        <time>2022-05-27T05:32:26Z</time>
      </trkpt>
      <trkpt lat="41.9476850" lon="2.6971810">
        <ele>201.0</ele>
        <time>2022-05-27T05:32:27Z</time>
      </trkpt>
      <trkpt lat="41.9477030" lon="2.6971420">
        <ele>201.0</ele>
        <time>2022-05-27T05:32:28Z</time>
      </trkpt>
      <trkpt lat="41.9477170" lon="2.6970850">
        <ele>201.0</ele>
        <time>2022-05-27T05:32:29Z</time>
      </trkpt>
      <trkpt lat="41.9477170" lon="2.6970250">
        <ele>201.0</ele>
        <time>2022-05-27T05:32:30Z</time>
      </trkpt>
      <trkpt lat="41.9477160" lon="2.6969750">
        <ele>201.0</ele>
        <time>2022-05-27T05:32:31Z</time>
      </trkpt>
      <trkpt lat="41.9477070" lon="2.6969340">
        <ele>201.0</ele>
        <time>2022-05-27T05:32:32Z</time>
      </trkpt>
      <trkpt lat="41.9476830" lon="2.6968950">
        <ele>201.0</ele>
        <time>2022-05-27T05:32:33Z</time>
      </trkpt>
      <trkpt lat="41.9476530" lon="2.6968530">
        <ele>200.8</ele>
        <time>2022-05-27T05:32:34Z</time>
      </trkpt>
      <trkpt lat="41.9476280" lon="2.6968180">
        <ele>200.8</ele>
        <time>2022-05-27T05:32:35Z</time>
      </trkpt>
      <trkpt lat="41.9476060" lon="2.6967880">
        <ele>200.6</ele>
        <time>2022-05-27T05:32:36Z</time>
      </trkpt>
      <trkpt lat="41.9475900" lon="2.6967580">
        <ele>200.4</ele>
        <time>2022-05-27T05:32:37Z</time>
      </trkpt>
      <trkpt lat="41.9475730" lon="2.6967340">
        <ele>200.4</ele>
        <time>2022-05-27T05:32:38Z</time>
      </trkpt>
      <trkpt lat="41.9475480" lon="2.6967060">
        <ele>200.2</ele>
        <time>2022-05-27T05:32:39Z</time>
      </trkpt>
      <trkpt lat="41.9475240" lon="2.6966640">
        <ele>200.0</ele>
        <time>2022-05-27T05:32:40Z</time>
      </trkpt>
      <trkpt lat="41.9475020" lon="2.6965990">
        <ele>199.8</ele>
        <time>2022-05-27T05:32:41Z</time>
      </trkpt>
      <trkpt lat="41.9474850" lon="2.6965260">
        <ele>199.6</ele>
        <time>2022-05-27T05:32:42Z</time>
      </trkpt>
      <trkpt lat="41.9474770" lon="2.6964610">
        <ele>199.4</ele>
        <time>2022-05-27T05:32:43Z</time>
      </trkpt>
      <trkpt lat="41.9474820" lon="2.6964190">
        <ele>199.4</ele>
        <time>2022-05-27T05:32:44Z</time>
      </trkpt>
      <trkpt lat="41.9474890" lon="2.6963840">
        <ele>199.2</ele>
        <time>2022-05-27T05:32:45Z</time>
      </trkpt>
      <trkpt lat="41.9474880" lon="2.6963400">
        <ele>199.2</ele>
        <time>2022-05-27T05:32:46Z</time>
      </trkpt>
      <trkpt lat="41.9474800" lon="2.6962910">
        <ele>199.0</ele>
        <time>2022-05-27T05:32:47Z</time>
      </trkpt>
      <trkpt lat="41.9474650" lon="2.6962410">
        <ele>198.8</ele>
        <time>2022-05-27T05:32:48Z</time>
      </trkpt>
      <trkpt lat="41.9474470" lon="2.6961980">
        <ele>198.8</ele>
        <time>2022-05-27T05:32:49Z</time>
      </trkpt>
      <trkpt lat="41.9474380" lon="2.6961690">
        <ele>198.6</ele>
        <time>2022-05-27T05:32:50Z</time>
      </trkpt>
      <trkpt lat="41.9474300" lon="2.6961490">
        <ele>198.4</ele>
        <time>2022-05-27T05:32:51Z</time>
      </trkpt>
      <trkpt lat="41.9474290" lon="2.6961280">
        <ele>198.4</ele>
        <time>2022-05-27T05:32:52Z</time>
      </trkpt>
      <trkpt lat="41.9474340" lon="2.6961010">
        <ele>198.4</ele>
        <time>2022-05-27T05:32:53Z</time>
      </trkpt>
      <trkpt lat="41.9474430" lon="2.6960680">
        <ele>198.4</ele>
        <time>2022-05-27T05:32:54Z</time>
      </trkpt>
      <trkpt lat="41.9474450" lon="2.6960300">
        <ele>198.6</ele>
        <time>2022-05-27T05:32:55Z</time>
      </trkpt>
      <trkpt lat="41.9474420" lon="2.6959910">
        <ele>198.8</ele>
        <time>2022-05-27T05:32:56Z</time>
      </trkpt>
      <trkpt lat="41.9474310" lon="2.6959560">
        <ele>198.8</ele>
        <time>2022-05-27T05:32:57Z</time>
      </trkpt>
      <trkpt lat="41.9474110" lon="2.6959270">
        <ele>199.0</ele>
        <time>2022-05-27T05:32:58Z</time>
      </trkpt>
      <trkpt lat="41.9473810" lon="2.6959030">
        <ele>199.0</ele>
        <time>2022-05-27T05:32:59Z</time>
      </trkpt>
      <trkpt lat="41.9473440" lon="2.6958810">
        <ele>199.2</ele>
        <time>2022-05-27T05:33:00Z</time>
      </trkpt>
      <trkpt lat="41.9473050" lon="2.6958580">
        <ele>199.2</ele>
        <time>2022-05-27T05:33:01Z</time>
      </trkpt>
      <trkpt lat="41.9472630" lon="2.6958320">
        <ele>199.4</ele>
        <time>2022-05-27T05:33:02Z</time>
      </trkpt>
      <trkpt lat="41.9472180" lon="2.6958010">
        <ele>199.4</ele>
        <time>2022-05-27T05:33:03Z</time>
      </trkpt>
      <trkpt lat="41.9471740" lon="2.6957710">
        <ele>199.4</ele>
        <time>2022-05-27T05:33:04Z</time>
      </trkpt>
      <trkpt lat="41.9471260" lon="2.6957440">
        <ele>199.4</ele>
        <time>2022-05-27T05:33:05Z</time>
      </trkpt>
      <trkpt lat="41.9470690" lon="2.6957220">
        <ele>199.2</ele>
        <time>2022-05-27T05:33:06Z</time>
      </trkpt>
      <trkpt lat="41.9469960" lon="2.6956990">
        <ele>199.4</ele>
        <time>2022-05-27T05:33:07Z</time>
      </trkpt>
      <trkpt lat="41.9469320" lon="2.6956850">
        <ele>199.2</ele>
        <time>2022-05-27T05:33:08Z</time>
      </trkpt>
      <trkpt lat="41.9468700" lon="2.6956750">
        <ele>199.2</ele>
        <time>2022-05-27T05:33:09Z</time>
      </trkpt>
      <trkpt lat="41.9467980" lon="2.6956610">
        <ele>199.0</ele>
        <time>2022-05-27T05:33:10Z</time>
      </trkpt>
      <trkpt lat="41.9467010" lon="2.6956330">
        <ele>198.8</ele>
        <time>2022-05-27T05:33:11Z</time>
      </trkpt>
      <trkpt lat="41.9466280" lon="2.6956040">
        <ele>198.8</ele>
        <time>2022-05-27T05:33:12Z</time>
      </trkpt>
      <trkpt lat="41.9465710" lon="2.6955720">
        <ele>198.8</ele>
        <time>2022-05-27T05:33:13Z</time>
      </trkpt>
      <trkpt lat="41.9465110" lon="2.6955440">
        <ele>198.6</ele>
        <time>2022-05-27T05:33:14Z</time>
      </trkpt>
      <trkpt lat="41.9464580" lon="2.6955240">
        <ele>198.4</ele>
        <time>2022-05-27T05:33:15Z</time>
      </trkpt>
      <trkpt lat="41.9463980" lon="2.6955060">
        <ele>198.2</ele>
        <time>2022-05-27T05:33:16Z</time>
      </trkpt>
      <trkpt lat="41.9463350" lon="2.6954910">
        <ele>198.0</ele>
        <time>2022-05-27T05:33:17Z</time>
      </trkpt>
      <trkpt lat="41.9462690" lon="2.6954680">
        <ele>197.8</ele>
        <time>2022-05-27T05:33:18Z</time>
      </trkpt>
      <trkpt lat="41.9462070" lon="2.6954360">
        <ele>197.4</ele>
        <time>2022-05-27T05:33:19Z</time>
      </trkpt>
      <trkpt lat="41.9461480" lon="2.6954040">
        <ele>197.0</ele>
        <time>2022-05-27T05:33:20Z</time>
      </trkpt>
      <trkpt lat="41.9460960" lon="2.6953730">
        <ele>196.4</ele>
        <time>2022-05-27T05:33:21Z</time>
      </trkpt>
      <trkpt lat="41.9460530" lon="2.6953370">
        <ele>196.0</ele>
        <time>2022-05-27T05:33:22Z</time>
      </trkpt>
      <trkpt lat="41.9460340" lon="2.6953080">
        <ele>195.6</ele>
        <time>2022-05-27T05:33:23Z</time>
      </trkpt>
      <trkpt lat="41.9460240" lon="2.6952880">
        <ele>195.2</ele>
        <time>2022-05-27T05:33:24Z</time>
      </trkpt>
      <trkpt lat="41.9460110" lon="2.6952700">
        <ele>194.8</ele>
        <time>2022-05-27T05:33:25Z</time>
      </trkpt>
      <trkpt lat="41.9459820" lon="2.6952550">
        <ele>194.2</ele>
        <time>2022-05-27T05:33:26Z</time>
      </trkpt>
      <trkpt lat="41.9459510" lon="2.6952420">
        <ele>194.0</ele>
        <time>2022-05-27T05:33:27Z</time>
      </trkpt>
      <trkpt lat="41.9459250" lon="2.6952240">
        <ele>193.6</ele>
        <time>2022-05-27T05:33:28Z</time>
      </trkpt>
      <trkpt lat="41.9459030" lon="2.6951930">
        <ele>193.2</ele>
        <time>2022-05-27T05:33:29Z</time>
      </trkpt>
      <trkpt lat="41.9458840" lon="2.6951510">
        <ele>193.0</ele>
        <time>2022-05-27T05:33:30Z</time>
      </trkpt>
      <trkpt lat="41.9458680" lon="2.6951010">
        <ele>192.8</ele>
        <time>2022-05-27T05:33:31Z</time>
      </trkpt>
      <trkpt lat="41.9458530" lon="2.6950470">
        <ele>192.6</ele>
        <time>2022-05-27T05:33:32Z</time>
      </trkpt>
      <trkpt lat="41.9458360" lon="2.6950010">
        <ele>192.4</ele>
        <time>2022-05-27T05:33:33Z</time>
      </trkpt>
      <trkpt lat="41.9458110" lon="2.6949640">
        <ele>192.2</ele>
        <time>2022-05-27T05:33:34Z</time>
      </trkpt>
      <trkpt lat="41.9457830" lon="2.6949400">
        <ele>192.2</ele>
        <time>2022-05-27T05:33:35Z</time>
      </trkpt>
      <trkpt lat="41.9457550" lon="2.6949260">
        <ele>192.0</ele>
        <time>2022-05-27T05:33:36Z</time>
      </trkpt>
      <trkpt lat="41.9457180" lon="2.6949080">
        <ele>191.8</ele>
        <time>2022-05-27T05:33:37Z</time>
      </trkpt>
      <trkpt lat="41.9456880" lon="2.6948840">
        <ele>191.6</ele>
        <time>2022-05-27T05:33:38Z</time>
      </trkpt>
      <trkpt lat="41.9456730" lon="2.6948650">
        <ele>191.4</ele>
        <time>2022-05-27T05:33:39Z</time>
      </trkpt>
      <trkpt lat="41.9456660" lon="2.6948590">
        <ele>191.4</ele>
        <time>2022-05-27T05:33:40Z</time>
      </trkpt>
      <trkpt lat="41.9456690" lon="2.6948550">
        <ele>191.2</ele>
        <time>2022-05-27T05:33:41Z</time>
      </trkpt>
      <trkpt lat="41.9456650" lon="2.6948340">
        <ele>191.2</ele>
        <time>2022-05-27T05:33:42Z</time>
      </trkpt>
      <trkpt lat="41.9456650" lon="2.6947950">
        <ele>191.0</ele>
        <time>2022-05-27T05:33:43Z</time>
      </trkpt>
      <trkpt lat="41.9456670" lon="2.6947470">
        <ele>191.0</ele>
        <time>2022-05-27T05:33:44Z</time>
      </trkpt>
      <trkpt lat="41.9456710" lon="2.6946960">
        <ele>190.8</ele>
        <time>2022-05-27T05:33:45Z</time>
      </trkpt>
      <trkpt lat="41.9456790" lon="2.6946450">
        <ele>190.8</ele>
        <time>2022-05-27T05:33:46Z</time>
      </trkpt>
      <trkpt lat="41.9456910" lon="2.6945960">
        <ele>190.8</ele>
        <time>2022-05-27T05:33:47Z</time>
      </trkpt>
      <trkpt lat="41.9457070" lon="2.6945540">
        <ele>191.0</ele>
        <time>2022-05-27T05:33:48Z</time>
      </trkpt>
      <trkpt lat="41.9457280" lon="2.6945270">
        <ele>191.0</ele>
        <time>2022-05-27T05:33:49Z</time>
      </trkpt>
      <trkpt lat="41.9457520" lon="2.6945100">
        <ele>191.2</ele>
        <time>2022-05-27T05:33:50Z</time>
      </trkpt>
      <trkpt lat="41.9457780" lon="2.6944880">
        <ele>191.4</ele>
        <time>2022-05-27T05:33:51Z</time>
      </trkpt>
      <trkpt lat="41.9458070" lon="2.6944650">
        <ele>191.8</ele>
        <time>2022-05-27T05:33:52Z</time>
      </trkpt>
      <trkpt lat="41.9458360" lon="2.6944470">
        <ele>192.2</ele>
        <time>2022-05-27T05:33:53Z</time>
      </trkpt>
      <trkpt lat="41.9458680" lon="2.6944280">
        <ele>192.6</ele>
        <time>2022-05-27T05:33:54Z</time>
      </trkpt>
      <trkpt lat="41.9459010" lon="2.6944090">
        <ele>193.0</ele>
        <time>2022-05-27T05:33:55Z</time>
      </trkpt>
      <trkpt lat="41.9459350" lon="2.6943930">
        <ele>193.4</ele>
        <time>2022-05-27T05:33:56Z</time>
      </trkpt>
      <trkpt lat="41.9459730" lon="2.6943810">
        <ele>194.0</ele>
        <time>2022-05-27T05:33:57Z</time>
      </trkpt>
      <trkpt lat="41.9460150" lon="2.6943720">
        <ele>194.6</ele>
        <time>2022-05-27T05:33:58Z</time>
      </trkpt>
      <trkpt lat="41.9460740" lon="2.6943650">
        <ele>195.2</ele>
        <time>2022-05-27T05:33:59Z</time>
      </trkpt>
      <trkpt lat="41.9461360" lon="2.6943550">
        <ele>195.8</ele>
        <time>2022-05-27T05:34:00Z</time>
      </trkpt>
      <trkpt lat="41.9461770" lon="2.6943280">
        <ele>196.4</ele>
        <time>2022-05-27T05:34:01Z</time>
      </trkpt>
      <trkpt lat="41.9462060" lon="2.6942800">
        <ele>196.8</ele>
        <time>2022-05-27T05:34:02Z</time>
      </trkpt>
      <trkpt lat="41.9462360" lon="2.6942140">
        <ele>197.2</ele>
        <time>2022-05-27T05:34:03Z</time>
      </trkpt>
      <trkpt lat="41.9462860" lon="2.6941220">
        <ele>197.6</ele>
        <time>2022-05-27T05:34:04Z</time>
      </trkpt>
      <trkpt lat="41.9463420" lon="2.6940350">
        <ele>197.8</ele>
        <time>2022-05-27T05:34:05Z</time>
      </trkpt>
      <trkpt lat="41.9464030" lon="2.6939420">
        <ele>198.0</ele>
        <time>2022-05-27T05:34:06Z</time>
      </trkpt>
      <trkpt lat="41.9464710" lon="2.6938420">
        <ele>198.4</ele>
        <time>2022-05-27T05:34:07Z</time>
      </trkpt>
      <trkpt lat="41.9465450" lon="2.6937490">
        <ele>198.6</ele>
        <time>2022-05-27T05:34:08Z</time>
      </trkpt>
      <trkpt lat="41.9466310" lon="2.6936570">
        <ele>199.0</ele>
        <time>2022-05-27T05:34:09Z</time>
      </trkpt>
      <trkpt lat="41.9467150" lon="2.6935790">
        <ele>199.2</ele>
        <time>2022-05-27T05:34:10Z</time>
      </trkpt>
      <trkpt lat="41.9467890" lon="2.6935190">
        <ele>199.4</ele>
        <time>2022-05-27T05:34:11Z</time>
      </trkpt>
      <trkpt lat="41.9468710" lon="2.6934610">
        <ele>199.6</ele>
        <time>2022-05-27T05:34:12Z</time>
      </trkpt>
      <trkpt lat="41.9469650" lon="2.6934080">
        <ele>200.0</ele>
        <time>2022-05-27T05:34:13Z</time>
      </trkpt>
      <trkpt lat="41.9470650" lon="2.6933690">
        <ele>200.2</ele>
        <time>2022-05-27T05:34:14Z</time>
      </trkpt>
      <trkpt lat="41.9471690" lon="2.6933460">
        <ele>200.8</ele>
        <time>2022-05-27T05:34:15Z</time>
      </trkpt>
      <trkpt lat="41.9472710" lon="2.6933430">
        <ele>201.8</ele>
        <time>2022-05-27T05:34:16Z</time>
      </trkpt>
      <trkpt lat="41.9473690" lon="2.6933580">
        <ele>202.4</ele>
        <time>2022-05-27T05:34:17Z</time>
      </trkpt>
      <trkpt lat="41.9474590" lon="2.6933910">
        <ele>202.8</ele>
        <time>2022-05-27T05:34:18Z</time>
      </trkpt>
      <trkpt lat="41.9475470" lon="2.6934250">
        <ele>203.2</ele>
        <time>2022-05-27T05:34:19Z</time>
      </trkpt>
      <trkpt lat="41.9476360" lon="2.6934500">
        <ele>204.0</ele>
        <time>2022-05-27T05:34:20Z</time>
      </trkpt>
      <trkpt lat="41.9477280" lon="2.6934720">
        <ele>204.6</ele>
        <time>2022-05-27T05:34:21Z</time>
      </trkpt>
      <trkpt lat="41.9478270" lon="2.6934920">
        <ele>205.4</ele>
        <time>2022-05-27T05:34:22Z</time>
      </trkpt>
      <trkpt lat="41.9479260" lon="2.6935080">
        <ele>206.2</ele>
        <time>2022-05-27T05:34:23Z</time>
      </trkpt>
      <trkpt lat="41.9480160" lon="2.6935240">
        <ele>206.6</ele>
        <time>2022-05-27T05:34:24Z</time>
      </trkpt>
      <trkpt lat="41.9480980" lon="2.6935400">
        <ele>207.4</ele>
        <time>2022-05-27T05:34:25Z</time>
      </trkpt>
      <trkpt lat="41.9481710" lon="2.6935540">
        <ele>208.0</ele>
        <time>2022-05-27T05:34:26Z</time>
      </trkpt>
      <trkpt lat="41.9482470" lon="2.6935620">
        <ele>208.0</ele>
        <time>2022-05-27T05:34:27Z</time>
      </trkpt>
      <trkpt lat="41.9483290" lon="2.6935640">
        <ele>208.4</ele>
        <time>2022-05-27T05:34:28Z</time>
      </trkpt>
      <trkpt lat="41.9484080" lon="2.6935610">
        <ele>208.8</ele>
        <time>2022-05-27T05:34:29Z</time>
      </trkpt>
      <trkpt lat="41.9484830" lon="2.6935610">
        <ele>209.0</ele>
        <time>2022-05-27T05:34:30Z</time>
      </trkpt>
      <trkpt lat="41.9485550" lon="2.6935640">
        <ele>209.2</ele>
        <time>2022-05-27T05:34:31Z</time>
      </trkpt>
      <trkpt lat="41.9486260" lon="2.6935740">
        <ele>209.4</ele>
        <time>2022-05-27T05:34:32Z</time>
      </trkpt>
      <trkpt lat="41.9487010" lon="2.6935910">
        <ele>209.6</ele>
        <time>2022-05-27T05:34:33Z</time>
      </trkpt>
      <trkpt lat="41.9487820" lon="2.6936200">
        <ele>209.4</ele>
        <time>2022-05-27T05:34:34Z</time>
      </trkpt>
      <trkpt lat="41.9488670" lon="2.6936590">
        <ele>209.4</ele>
        <time>2022-05-27T05:34:35Z</time>
      </trkpt>
      <trkpt lat="41.9489550" lon="2.6937060">
        <ele>209.4</ele>
        <time>2022-05-27T05:34:36Z</time>
      </trkpt>
      <trkpt lat="41.9490420" lon="2.6937550">
        <ele>209.4</ele>
        <time>2022-05-27T05:34:37Z</time>
      </trkpt>
      <trkpt lat="41.9491200" lon="2.6938050">
        <ele>209.6</ele>
        <time>2022-05-27T05:34:38Z</time>
      </trkpt>
      <trkpt lat="41.9491860" lon="2.6938500">
        <ele>209.4</ele>
        <time>2022-05-27T05:34:39Z</time>
      </trkpt>
      <trkpt lat="41.9492470" lon="2.6938840">
        <ele>209.2</ele>
        <time>2022-05-27T05:34:40Z</time>
      </trkpt>
      <trkpt lat="41.9493020" lon="2.6939040">
        <ele>209.0</ele>
        <time>2022-05-27T05:34:41Z</time>
      </trkpt>
      <trkpt lat="41.9493490" lon="2.6939070">
        <ele>208.8</ele>
        <time>2022-05-27T05:34:42Z</time>
      </trkpt>
      <trkpt lat="41.9493900" lon="2.6938940">
        <ele>208.6</ele>
        <time>2022-05-27T05:34:43Z</time>
      </trkpt>
      <trkpt lat="41.9494200" lon="2.6938570">
        <ele>208.6</ele>
        <time>2022-05-27T05:34:44Z</time>
      </trkpt>
      <trkpt lat="41.9494280" lon="2.6938100">
        <ele>208.4</ele>
        <time>2022-05-27T05:34:45Z</time>
      </trkpt>
      <trkpt lat="41.9494240" lon="2.6937660">
        <ele>208.6</ele>
        <time>2022-05-27T05:34:46Z</time>
      </trkpt>
      <trkpt lat="41.9494060" lon="2.6937250">
        <ele>208.8</ele>
        <time>2022-05-27T05:34:47Z</time>
      </trkpt>
      <trkpt lat="41.9493800" lon="2.6936760">
        <ele>209.0</ele>
        <time>2022-05-27T05:34:48Z</time>
      </trkpt>
      <trkpt lat="41.9493420" lon="2.6936130">
        <ele>209.4</ele>
        <time>2022-05-27T05:34:49Z</time>
      </trkpt>
      <trkpt lat="41.9492900" lon="2.6935540">
        <ele>209.6</ele>
        <time>2022-05-27T05:34:50Z</time>
      </trkpt>
      <trkpt lat="41.9492320" lon="2.6934860">
        <ele>209.8</ele>
        <time>2022-05-27T05:34:51Z</time>
      </trkpt>
      <trkpt lat="41.9491670" lon="2.6934050">
        <ele>210.2</ele>
        <time>2022-05-27T05:34:52Z</time>
      </trkpt>
      <trkpt lat="41.9491070" lon="2.6933350">
        <ele>210.6</ele>
        <time>2022-05-27T05:34:53Z</time>
      </trkpt>
      <trkpt lat="41.9490410" lon="2.6932630">
        <ele>211.0</ele>
        <time>2022-05-27T05:34:54Z</time>
      </trkpt>
      <trkpt lat="41.9489720" lon="2.6931790">
        <ele>211.4</ele>
        <time>2022-05-27T05:34:55Z</time>
      </trkpt>
      <trkpt lat="41.9489000" lon="2.6930790">
        <ele>211.8</ele>
        <time>2022-05-27T05:34:56Z</time>
      </trkpt>
      <trkpt lat="41.9488370" lon="2.6929860">
        <ele>212.2</ele>
        <time>2022-05-27T05:34:57Z</time>
      </trkpt>
      <trkpt lat="41.9487890" lon="2.6929030">
        <ele>212.6</ele>
        <time>2022-05-27T05:34:58Z</time>
      </trkpt>
      <trkpt lat="41.9487540" lon="2.6928090">
        <ele>213.0</ele>
        <time>2022-05-27T05:34:59Z</time>
      </trkpt>
      <trkpt lat="41.9487420" lon="2.6927030">
        <ele>213.4</ele>
        <time>2022-05-27T05:35:00Z</time>
      </trkpt>
      <trkpt lat="41.9487520" lon="2.6925900">
        <ele>214.2</ele>
        <time>2022-05-27T05:35:01Z</time>
      </trkpt>
      <trkpt lat="41.9487870" lon="2.6924940">
        <ele>214.8</ele>
        <time>2022-05-27T05:35:02Z</time>
      </trkpt>
      <trkpt lat="41.9488410" lon="2.6924030">
        <ele>215.4</ele>
        <time>2022-05-27T05:35:03Z</time>
      </trkpt>
      <trkpt lat="41.9489110" lon="2.6923130">
        <ele>216.0</ele>
        <time>2022-05-27T05:35:04Z</time>
      </trkpt>
      <trkpt lat="41.9489880" lon="2.6922350">
        <ele>216.6</ele>
        <time>2022-05-27T05:35:05Z</time>
      </trkpt>
      <trkpt lat="41.9490800" lon="2.6921710">
        <ele>217.2</ele>
        <time>2022-05-27T05:35:06Z</time>
      </trkpt>
      <trkpt lat="41.9491710" lon="2.6921190">
        <ele>217.8</ele>
        <time>2022-05-27T05:35:07Z</time>
      </trkpt>
      <trkpt lat="41.9492650" lon="2.6920840">
        <ele>218.4</ele>
        <time>2022-05-27T05:35:08Z</time>
      </trkpt>
      <trkpt lat="41.9493620" lon="2.6920660">
        <ele>219.0</ele>
        <time>2022-05-27T05:35:09Z</time>
      </trkpt>
      <trkpt lat="41.9494590" lon="2.6920640">
        <ele>219.2</ele>
        <time>2022-05-27T05:35:10Z</time>
      </trkpt>
      <trkpt lat="41.9495540" lon="2.6920750">
        <ele>219.4</ele>
        <time>2022-05-27T05:35:11Z</time>
      </trkpt>
      <trkpt lat="41.9496380" lon="2.6920900">
        <ele>219.4</ele>
        <time>2022-05-27T05:35:12Z</time>
      </trkpt>
      <trkpt lat="41.9497050" lon="2.6921050">
        <ele>219.6</ele>
        <time>2022-05-27T05:35:13Z</time>
      </trkpt>
      <trkpt lat="41.9497510" lon="2.6921230">
        <ele>219.6</ele>
        <time>2022-05-27T05:35:14Z</time>
      </trkpt>
      <trkpt lat="41.9497730" lon="2.6921350">
        <ele>219.6</ele>
        <time>2022-05-27T05:35:15Z</time>
      </trkpt>
      <trkpt lat="41.9497790" lon="2.6921440">
        <ele>219.6</ele>
        <time>2022-05-27T05:35:16Z</time>
      </trkpt>
      <trkpt lat="41.9497780" lon="2.6921440">
        <ele>219.8</ele>
        <time>2022-05-27T05:35:17Z</time>
      </trkpt>
      <trkpt lat="41.9497770" lon="2.6921440">
        <ele>219.8</ele>
        <time>2022-05-27T05:35:18Z</time>
      </trkpt>
      <trkpt lat="41.9497770" lon="2.6921430">
        <ele>219.8</ele>
        <time>2022-05-27T05:35:19Z</time>
      </trkpt>
      <trkpt lat="41.9497770" lon="2.6921430">
        <ele>219.8</ele>
        <time>2022-05-27T05:35:20Z</time>
      </trkpt>
      <trkpt lat="41.9497770" lon="2.6921430">
        <ele>219.8</ele>
        <time>2022-05-27T05:35:21Z</time>
      </trkpt>
      <trkpt lat="41.9497770" lon="2.6921430">
        <ele>219.8</ele>
        <time>2022-05-27T05:35:22Z</time>
      </trkpt>
      <trkpt lat="41.9497770" lon="2.6921430">
        <ele>219.8</ele>
        <time>2022-05-27T05:35:23Z</time>
      </trkpt>
      <trkpt lat="41.9497770" lon="2.6921430">
        <ele>219.8</ele>
        <time>2022-05-27T05:35:24Z</time>
      </trkpt>
      <trkpt lat="41.9497780" lon="2.6921430">
        <ele>219.8</ele>
        <time>2022-05-27T05:35:25Z</time>
      </trkpt>
      <trkpt lat="41.9497820" lon="2.6921430">
        <ele>219.8</ele>
        <time>2022-05-27T05:35:26Z</time>
      </trkpt>
      <trkpt lat="41.9497990" lon="2.6921400">
        <ele>219.8</ele>
        <time>2022-05-27T05:35:27Z</time>
      </trkpt>
      <trkpt lat="41.9498310" lon="2.6921320">
        <ele>220.0</ele>
        <time>2022-05-27T05:35:28Z</time>
      </trkpt>
      <trkpt lat="41.9498800" lon="2.6921220">
        <ele>220.0</ele>
        <time>2022-05-27T05:35:29Z</time>
      </trkpt>
      <trkpt lat="41.9499430" lon="2.6921110">
        <ele>220.2</ele>
        <time>2022-05-27T05:35:30Z</time>
      </trkpt>
      <trkpt lat="41.9500130" lon="2.6920970">
        <ele>220.4</ele>
        <time>2022-05-27T05:35:31Z</time>
      </trkpt>
      <trkpt lat="41.9500840" lon="2.6920770">
        <ele>220.6</ele>
        <time>2022-05-27T05:35:32Z</time>
      </trkpt>
      <trkpt lat="41.9501530" lon="2.6920490">
        <ele>220.8</ele>
        <time>2022-05-27T05:35:33Z</time>
      </trkpt>
      <trkpt lat="41.9502220" lon="2.6920240">
        <ele>221.2</ele>
        <time>2022-05-27T05:35:34Z</time>
      </trkpt>
      <trkpt lat="41.9502900" lon="2.6920050">
        <ele>221.6</ele>
        <time>2022-05-27T05:35:35Z</time>
      </trkpt>
      <trkpt lat="41.9503520" lon="2.6919970">
        <ele>221.8</ele>
        <time>2022-05-27T05:35:36Z</time>
      </trkpt>
      <trkpt lat="41.9504030" lon="2.6920000">
        <ele>222.4</ele>
        <time>2022-05-27T05:35:37Z</time>
      </trkpt>
      <trkpt lat="41.9504400" lon="2.6920280">
        <ele>223.0</ele>
        <time>2022-05-27T05:35:38Z</time>
      </trkpt>
      <trkpt lat="41.9504610" lon="2.6920790">
        <ele>223.8</ele>
        <time>2022-05-27T05:35:39Z</time>
      </trkpt>
      <trkpt lat="41.9504660" lon="2.6921520">
        <ele>224.2</ele>
        <time>2022-05-27T05:35:40Z</time>
      </trkpt>
      <trkpt lat="41.9504630" lon="2.6922380">
        <ele>224.8</ele>
        <time>2022-05-27T05:35:41Z</time>
      </trkpt>
      <trkpt lat="41.9504580" lon="2.6923360">
        <ele>225.2</ele>
        <time>2022-05-27T05:35:42Z</time>
      </trkpt>
      <trkpt lat="41.9504540" lon="2.6924310">
        <ele>225.4</ele>
        <time>2022-05-27T05:35:43Z</time>
      </trkpt>
      <trkpt lat="41.9504520" lon="2.6925270">
        <ele>226.0</ele>
        <time>2022-05-27T05:35:44Z</time>
      </trkpt>
      <trkpt lat="41.9504530" lon="2.6926260">
        <ele>226.4</ele>
        <time>2022-05-27T05:35:45Z</time>
      </trkpt>
      <trkpt lat="41.9504570" lon="2.6927340">
        <ele>226.8</ele>
        <time>2022-05-27T05:35:46Z</time>
      </trkpt>
      <trkpt lat="41.9504630" lon="2.6928290">
        <ele>227.2</ele>
        <time>2022-05-27T05:35:47Z</time>
      </trkpt>
      <trkpt lat="41.9504740" lon="2.6929250">
        <ele>227.4</ele>
        <time>2022-05-27T05:35:48Z</time>
      </trkpt>
      <trkpt lat="41.9504840" lon="2.6930300">
        <ele>227.6</ele>
        <time>2022-05-27T05:35:49Z</time>
      </trkpt>
      <trkpt lat="41.9505010" lon="2.6931310">
        <ele>227.8</ele>
        <time>2022-05-27T05:35:50Z</time>
      </trkpt>
      <trkpt lat="41.9505230" lon="2.6932290">
        <ele>228.0</ele>
        <time>2022-05-27T05:35:51Z</time>
      </trkpt>
      <trkpt lat="41.9505440" lon="2.6933300">
        <ele>228.4</ele>
        <time>2022-05-27T05:35:52Z</time>
      </trkpt>
      <trkpt lat="41.9505550" lon="2.6934340">
        <ele>228.8</ele>
        <time>2022-05-27T05:35:53Z</time>
      </trkpt>
      <trkpt lat="41.9505660" lon="2.6935350">
        <ele>229.2</ele>
        <time>2022-05-27T05:35:54Z</time>
      </trkpt>
      <trkpt lat="41.9505840" lon="2.6936300">
        <ele>229.6</ele>
        <time>2022-05-27T05:35:55Z</time>
      </trkpt>
      <trkpt lat="41.9506080" lon="2.6937220">
        <ele>229.8</ele>
        <time>2022-05-27T05:35:56Z</time>
      </trkpt>
      <trkpt lat="41.9506390" lon="2.6938070">
        <ele>230.0</ele>
        <time>2022-05-27T05:35:57Z</time>
      </trkpt>
      <trkpt lat="41.9506740" lon="2.6938840">
        <ele>230.2</ele>
        <time>2022-05-27T05:35:58Z</time>
      </trkpt>
      <trkpt lat="41.9507110" lon="2.6939660">
        <ele>230.0</ele>
        <time>2022-05-27T05:35:59Z</time>
      </trkpt>
      <trkpt lat="41.9507570" lon="2.6940560">
        <ele>229.8</ele>
        <time>2022-05-27T05:36:00Z</time>
      </trkpt>
      <trkpt lat="41.9508090" lon="2.6941480">
        <ele>229.8</ele>
        <time>2022-05-27T05:36:01Z</time>
      </trkpt>
      <trkpt lat="41.9508590" lon="2.6942430">
        <ele>229.6</ele>
        <time>2022-05-27T05:36:02Z</time>
      </trkpt>
      <trkpt lat="41.9508960" lon="2.6943400">
        <ele>229.6</ele>
        <time>2022-05-27T05:36:03Z</time>
      </trkpt>
      <trkpt lat="41.9509220" lon="2.6944400">
        <ele>229.8</ele>
        <time>2022-05-27T05:36:04Z</time>
      </trkpt>
      <trkpt lat="41.9509460" lon="2.6945350">
        <ele>229.8</ele>
        <time>2022-05-27T05:36:05Z</time>
      </trkpt>
      <trkpt lat="41.9509740" lon="2.6946210">
        <ele>230.0</ele>
        <time>2022-05-27T05:36:06Z</time>
      </trkpt>
      <trkpt lat="41.9510050" lon="2.6947020">
        <ele>230.4</ele>
        <time>2022-05-27T05:36:07Z</time>
      </trkpt>
      <trkpt lat="41.9510400" lon="2.6947830">
        <ele>230.6</ele>
        <time>2022-05-27T05:36:08Z</time>
      </trkpt>
      <trkpt lat="41.9510790" lon="2.6948650">
        <ele>230.8</ele>
        <time>2022-05-27T05:36:09Z</time>
      </trkpt>
      <trkpt lat="41.9511240" lon="2.6949460">
        <ele>230.8</ele>
        <time>2022-05-27T05:36:10Z</time>
      </trkpt>
      <trkpt lat="41.9511720" lon="2.6950240">
        <ele>230.8</ele>
        <time>2022-05-27T05:36:11Z</time>
      </trkpt>
      <trkpt lat="41.9512220" lon="2.6951030">
        <ele>231.0</ele>
        <time>2022-05-27T05:36:12Z</time>
      </trkpt>
      <trkpt lat="41.9512730" lon="2.6951790">
        <ele>231.0</ele>
        <time>2022-05-27T05:36:13Z</time>
      </trkpt>
      <trkpt lat="41.9513260" lon="2.6952510">
        <ele>231.2</ele>
        <time>2022-05-27T05:36:14Z</time>
      </trkpt>
      <trkpt lat="41.9513790" lon="2.6953210">
        <ele>231.4</ele>
        <time>2022-05-27T05:36:15Z</time>
      </trkpt>
      <trkpt lat="41.9514320" lon="2.6953900">
        <ele>231.4</ele>
        <time>2022-05-27T05:36:16Z</time>
      </trkpt>
      <trkpt lat="41.9514840" lon="2.6954580">
        <ele>231.2</ele>
        <time>2022-05-27T05:36:17Z</time>
      </trkpt>
      <trkpt lat="41.9515390" lon="2.6955220">
        <ele>231.0</ele>
        <time>2022-05-27T05:36:18Z</time>
      </trkpt>
      <trkpt lat="41.9515970" lon="2.6955790">
        <ele>230.6</ele>
        <time>2022-05-27T05:36:19Z</time>
      </trkpt>
      <trkpt lat="41.9516550" lon="2.6956280">
        <ele>230.4</ele>
        <time>2022-05-27T05:36:20Z</time>
      </trkpt>
      <trkpt lat="41.9517080" lon="2.6956680">
        <ele>230.2</ele>
        <time>2022-05-27T05:36:21Z</time>
      </trkpt>
      <trkpt lat="41.9517500" lon="2.6956940">
        <ele>230.0</ele>
        <time>2022-05-27T05:36:22Z</time>
      </trkpt>
      <trkpt lat="41.9517830" lon="2.6957010">
        <ele>229.8</ele>
        <time>2022-05-27T05:36:23Z</time>
      </trkpt>
      <trkpt lat="41.9518110" lon="2.6956920">
        <ele>229.8</ele>
        <time>2022-05-27T05:36:24Z</time>
      </trkpt>
      <trkpt lat="41.9518360" lon="2.6956610">
        <ele>229.8</ele>
        <time>2022-05-27T05:36:25Z</time>
      </trkpt>
      <trkpt lat="41.9518590" lon="2.6956200">
        <ele>230.0</ele>
        <time>2022-05-27T05:36:26Z</time>
      </trkpt>
      <trkpt lat="41.9518820" lon="2.6955840">
        <ele>230.0</ele>
        <time>2022-05-27T05:36:27Z</time>
      </trkpt>
      <trkpt lat="41.9519140" lon="2.6955550">
        <ele>230.2</ele>
        <time>2022-05-27T05:36:28Z</time>
      </trkpt>
      <trkpt lat="41.9519540" lon="2.6955250">
        <ele>230.2</ele>
        <time>2022-05-27T05:36:29Z</time>
      </trkpt>
      <trkpt lat="41.9519920" lon="2.6954980">
        <ele>230.4</ele>
        <time>2022-05-27T05:36:30Z</time>
      </trkpt>
      <trkpt lat="41.9520220" lon="2.6954860">
        <ele>230.4</ele>
        <time>2022-05-27T05:36:31Z</time>
      </trkpt>
      <trkpt lat="41.9520450" lon="2.6954850">
        <ele>230.4</ele>
        <time>2022-05-27T05:36:32Z</time>
      </trkpt>
      <trkpt lat="41.9520690" lon="2.6954980">
        <ele>230.4</ele>
        <time>2022-05-27T05:36:33Z</time>
      </trkpt>
      <trkpt lat="41.9520930" lon="2.6955120">
        <ele>230.4</ele>
        <time>2022-05-27T05:36:34Z</time>
      </trkpt>
      <trkpt lat="41.9521140" lon="2.6955270">
        <ele>230.6</ele>
        <time>2022-05-27T05:36:35Z</time>
      </trkpt>
      <trkpt lat="41.9521300" lon="2.6955530">
        <ele>230.8</ele>
        <time>2022-05-27T05:36:36Z</time>
      </trkpt>
      <trkpt lat="41.9521380" lon="2.6955850">
        <ele>231.0</ele>
        <time>2022-05-27T05:36:37Z</time>
      </trkpt>
      <trkpt lat="41.9521370" lon="2.6956280">
        <ele>231.4</ele>
        <time>2022-05-27T05:36:38Z</time>
      </trkpt>
      <trkpt lat="41.9521320" lon="2.6956780">
        <ele>231.6</ele>
        <time>2022-05-27T05:36:39Z</time>
      </trkpt>
      <trkpt lat="41.9521260" lon="2.6957350">
        <ele>232.0</ele>
        <time>2022-05-27T05:36:40Z</time>
      </trkpt>
      <trkpt lat="41.9521240" lon="2.6957960">
        <ele>232.2</ele>
        <time>2022-05-27T05:36:41Z</time>
      </trkpt>
      <trkpt lat="41.9521280" lon="2.6958600">
        <ele>232.4</ele>
        <time>2022-05-27T05:36:42Z</time>
      </trkpt>
      <trkpt lat="41.9521370" lon="2.6959300">
        <ele>232.8</ele>
        <time>2022-05-27T05:36:43Z</time>
      </trkpt>
      <trkpt lat="41.9521520" lon="2.6960020">
        <ele>233.0</ele>
        <time>2022-05-27T05:36:44Z</time>
      </trkpt>
      <trkpt lat="41.9521640" lon="2.6960730">
        <ele>233.2</ele>
        <time>2022-05-27T05:36:45Z</time>
      </trkpt>
      <trkpt lat="41.9521800" lon="2.6961400">
        <ele>233.6</ele>
        <time>2022-05-27T05:36:46Z</time>
      </trkpt>
      <trkpt lat="41.9521910" lon="2.6962080">
        <ele>233.8</ele>
        <time>2022-05-27T05:36:47Z</time>
      </trkpt>
      <trkpt lat="41.9522010" lon="2.6962710">
        <ele>234.0</ele>
        <time>2022-05-27T05:36:48Z</time>
      </trkpt>
      <trkpt lat="41.9522160" lon="2.6963220">
        <ele>234.0</ele>
        <time>2022-05-27T05:36:49Z</time>
      </trkpt>
      <trkpt lat="41.9522410" lon="2.6963610">
        <ele>234.0</ele>
        <time>2022-05-27T05:36:50Z</time>
      </trkpt>
      <trkpt lat="41.9522800" lon="2.6963880">
        <ele>234.0</ele>
        <time>2022-05-27T05:36:51Z</time>
      </trkpt>
      <trkpt lat="41.9523310" lon="2.6964000">
        <ele>234.0</ele>
        <time>2022-05-27T05:36:52Z</time>
      </trkpt>
      <trkpt lat="41.9523860" lon="2.6963990">
        <ele>234.2</ele>
        <time>2022-05-27T05:36:53Z</time>
      </trkpt>
      <trkpt lat="41.9524410" lon="2.6963930">
        <ele>234.6</ele>
        <time>2022-05-27T05:36:54Z</time>
      </trkpt>
      <trkpt lat="41.9525010" lon="2.6963830">
        <ele>234.8</ele>
        <time>2022-05-27T05:36:55Z</time>
      </trkpt>
      <trkpt lat="41.9525620" lon="2.6963640">
        <ele>235.0</ele>
        <time>2022-05-27T05:36:56Z</time>
      </trkpt>
      <trkpt lat="41.9526250" lon="2.6963410">
        <ele>235.2</ele>
        <time>2022-05-27T05:36:57Z</time>
      </trkpt>
      <trkpt lat="41.9526860" lon="2.6963190">
        <ele>235.2</ele>
        <time>2022-05-27T05:36:58Z</time>
      </trkpt>
      <trkpt lat="41.9527460" lon="2.6963130">
        <ele>234.8</ele>
        <time>2022-05-27T05:36:59Z</time>
      </trkpt>
      <trkpt lat="41.9528080" lon="2.6963130">
        <ele>234.6</ele>
        <time>2022-05-27T05:37:00Z</time>
      </trkpt>
      <trkpt lat="41.9528750" lon="2.6963130">
        <ele>234.6</ele>
        <time>2022-05-27T05:37:01Z</time>
      </trkpt>
      <trkpt lat="41.9529450" lon="2.6963030">
        <ele>234.6</ele>
        <time>2022-05-27T05:37:02Z</time>
      </trkpt>
      <trkpt lat="41.9530130" lon="2.6962800">
        <ele>234.6</ele>
        <time>2022-05-27T05:37:03Z</time>
      </trkpt>
      <trkpt lat="41.9530690" lon="2.6962400">
        <ele>234.8</ele>
        <time>2022-05-27T05:37:04Z</time>
      </trkpt>
      <trkpt lat="41.9531290" lon="2.6961870">
        <ele>234.8</ele>
        <time>2022-05-27T05:37:05Z</time>
      </trkpt>
      <trkpt lat="41.9531850" lon="2.6961330">
        <ele>235.0</ele>
        <time>2022-05-27T05:37:06Z</time>
      </trkpt>
      <trkpt lat="41.9532170" lon="2.6960700">
        <ele>235.0</ele>
        <time>2022-05-27T05:37:07Z</time>
      </trkpt>
      <trkpt lat="41.9532300" lon="2.6960100">
        <ele>235.0</ele>
        <time>2022-05-27T05:37:08Z</time>
      </trkpt>
      <trkpt lat="41.9532330" lon="2.6959540">
        <ele>235.2</ele>
        <time>2022-05-27T05:37:09Z</time>
      </trkpt>
      <trkpt lat="41.9532400" lon="2.6959220">
        <ele>235.4</ele>
        <time>2022-05-27T05:37:10Z</time>
      </trkpt>
      <trkpt lat="41.9532550" lon="2.6959010">
        <ele>235.6</ele>
        <time>2022-05-27T05:37:11Z</time>
      </trkpt>
      <trkpt lat="41.9532750" lon="2.6958730">
        <ele>235.6</ele>
        <time>2022-05-27T05:37:12Z</time>
      </trkpt>
      <trkpt lat="41.9532750" lon="2.6958730">
        <ele>235.8</ele>
        <time>2022-05-27T05:37:13Z</time>
      </trkpt>
      <trkpt lat="41.9532980" lon="2.6958470">
        <ele>236.0</ele>
        <time>2022-05-27T05:37:14Z</time>
      </trkpt>
      <trkpt lat="41.9533210" lon="2.6958220">
        <ele>236.2</ele>
        <time>2022-05-27T05:37:15Z</time>
      </trkpt>
      <trkpt lat="41.9533450" lon="2.6957960">
        <ele>236.4</ele>
        <time>2022-05-27T05:37:16Z</time>
      </trkpt>
      <trkpt lat="41.9533680" lon="2.6957710">
        <ele>236.8</ele>
        <time>2022-05-27T05:37:17Z</time>
      </trkpt>
      <trkpt lat="41.9533920" lon="2.6957450">
        <ele>237.0</ele>
        <time>2022-05-27T05:37:18Z</time>
      </trkpt>
      <trkpt lat="41.9534120" lon="2.6957370">
        <ele>237.4</ele>
        <time>2022-05-27T05:37:19Z</time>
      </trkpt>
      <trkpt lat="41.9534360" lon="2.6957220">
        <ele>238.0</ele>
        <time>2022-05-27T05:37:20Z</time>
      </trkpt>
      <trkpt lat="41.9534560" lon="2.6957080">
        <ele>238.4</ele>
        <time>2022-05-27T05:37:21Z</time>
      </trkpt>
      <trkpt lat="41.9534670" lon="2.6957050">
        <ele>238.8</ele>
        <time>2022-05-27T05:37:22Z</time>
      </trkpt>
      <trkpt lat="41.9534880" lon="2.6957080">
        <ele>239.4</ele>
        <time>2022-05-27T05:37:23Z</time>
      </trkpt>
      <trkpt lat="41.9535030" lon="2.6957270">
        <ele>239.8</ele>
        <time>2022-05-27T05:37:24Z</time>
      </trkpt>
      <trkpt lat="41.9535170" lon="2.6957610">
        <ele>240.4</ele>
        <time>2022-05-27T05:37:25Z</time>
      </trkpt>
      <trkpt lat="41.9535280" lon="2.6957970">
        <ele>241.0</ele>
        <time>2022-05-27T05:37:26Z</time>
      </trkpt>
      <trkpt lat="41.9535310" lon="2.6958370">
        <ele>241.4</ele>
        <time>2022-05-27T05:37:27Z</time>
      </trkpt>
      <trkpt lat="41.9535300" lon="2.6958860">
        <ele>241.8</ele>
        <time>2022-05-27T05:37:28Z</time>
      </trkpt>
      <trkpt lat="41.9535180" lon="2.6959500">
        <ele>242.4</ele>
        <time>2022-05-27T05:37:29Z</time>
      </trkpt>
      <trkpt lat="41.9535020" lon="2.6960250">
        <ele>243.0</ele>
        <time>2022-05-27T05:37:30Z</time>
      </trkpt>
      <trkpt lat="41.9534920" lon="2.6961030">
        <ele>243.2</ele>
        <time>2022-05-27T05:37:31Z</time>
      </trkpt>
      <trkpt lat="41.9534810" lon="2.6961910">
        <ele>243.4</ele>
        <time>2022-05-27T05:37:32Z</time>
      </trkpt>
      <trkpt lat="41.9534740" lon="2.6962880">
        <ele>243.4</ele>
        <time>2022-05-27T05:37:33Z</time>
      </trkpt>
      <trkpt lat="41.9534650" lon="2.6963760">
        <ele>243.4</ele>
        <time>2022-05-27T05:37:34Z</time>
      </trkpt>
      <trkpt lat="41.9534450" lon="2.6964680">
        <ele>243.4</ele>
        <time>2022-05-27T05:37:35Z</time>
      </trkpt>
      <trkpt lat="41.9534200" lon="2.6965710">
        <ele>243.4</ele>
        <time>2022-05-27T05:37:36Z</time>
      </trkpt>
      <trkpt lat="41.9533950" lon="2.6966710">
        <ele>243.2</ele>
        <time>2022-05-27T05:37:37Z</time>
      </trkpt>
      <trkpt lat="41.9533700" lon="2.6967720">
        <ele>243.2</ele>
        <time>2022-05-27T05:37:38Z</time>
      </trkpt>
      <trkpt lat="41.9533500" lon="2.6968790">
        <ele>243.2</ele>
        <time>2022-05-27T05:37:39Z</time>
      </trkpt>
      <trkpt lat="41.9533430" lon="2.6969860">
        <ele>243.2</ele>
        <time>2022-05-27T05:37:40Z</time>
      </trkpt>
      <trkpt lat="41.9533460" lon="2.6970920">
        <ele>243.4</ele>
        <time>2022-05-27T05:37:41Z</time>
      </trkpt>
      <trkpt lat="41.9533580" lon="2.6971940">
        <ele>243.2</ele>
        <time>2022-05-27T05:37:42Z</time>
      </trkpt>
      <trkpt lat="41.9533740" lon="2.6972870">
        <ele>243.2</ele>
        <time>2022-05-27T05:37:43Z</time>
      </trkpt>
      <trkpt lat="41.9534060" lon="2.6973620">
        <ele>243.0</ele>
        <time>2022-05-27T05:37:44Z</time>
      </trkpt>
      <trkpt lat="41.9534420" lon="2.6974180">
        <ele>243.0</ele>
        <time>2022-05-27T05:37:45Z</time>
      </trkpt>
      <trkpt lat="41.9534850" lon="2.6974590">
        <ele>242.8</ele>
        <time>2022-05-27T05:37:46Z</time>
      </trkpt>
      <trkpt lat="41.9535330" lon="2.6975000">
        <ele>242.6</ele>
        <time>2022-05-27T05:37:47Z</time>
      </trkpt>
      <trkpt lat="41.9536080" lon="2.6975420">
        <ele>242.4</ele>
        <time>2022-05-27T05:37:48Z</time>
      </trkpt>
      <trkpt lat="41.9536960" lon="2.6975830">
        <ele>242.0</ele>
        <time>2022-05-27T05:37:49Z</time>
      </trkpt>
      <trkpt lat="41.9537730" lon="2.6976030">
        <ele>241.6</ele>
        <time>2022-05-27T05:37:50Z</time>
      </trkpt>
      <trkpt lat="41.9538330" lon="2.6976090">
        <ele>241.2</ele>
        <time>2022-05-27T05:37:51Z</time>
      </trkpt>
      <trkpt lat="41.9538740" lon="2.6975880">
        <ele>240.8</ele>
        <time>2022-05-27T05:37:52Z</time>
      </trkpt>
      <trkpt lat="41.9539000" lon="2.6975490">
        <ele>240.4</ele>
        <time>2022-05-27T05:37:53Z</time>
      </trkpt>
      <trkpt lat="41.9539260" lon="2.6974870">
        <ele>240.2</ele>
        <time>2022-05-27T05:37:54Z</time>
      </trkpt>
      <trkpt lat="41.9539610" lon="2.6974300">
        <ele>239.8</ele>
        <time>2022-05-27T05:37:55Z</time>
      </trkpt>
      <trkpt lat="41.9539940" lon="2.6973780">
        <ele>239.4</ele>
        <time>2022-05-27T05:37:56Z</time>
      </trkpt>
      <trkpt lat="41.9540320" lon="2.6973640">
        <ele>239.0</ele>
        <time>2022-05-27T05:37:57Z</time>
      </trkpt>
      <trkpt lat="41.9540830" lon="2.6973510">
        <ele>238.6</ele>
        <time>2022-05-27T05:37:58Z</time>
      </trkpt>
      <trkpt lat="41.9541280" lon="2.6973230">
        <ele>238.2</ele>
        <time>2022-05-27T05:37:59Z</time>
      </trkpt>
      <trkpt lat="41.9541630" lon="2.6972790">
        <ele>238.0</ele>
        <time>2022-05-27T05:38:00Z</time>
      </trkpt>
      <trkpt lat="41.9542020" lon="2.6972230">
        <ele>237.6</ele>
        <time>2022-05-27T05:38:01Z</time>
      </trkpt>
      <trkpt lat="41.9542490" lon="2.6971620">
        <ele>237.2</ele>
        <time>2022-05-27T05:38:02Z</time>
      </trkpt>
      <trkpt lat="41.9542980" lon="2.6971050">
        <ele>237.0</ele>
        <time>2022-05-27T05:38:03Z</time>
      </trkpt>
      <trkpt lat="41.9543510" lon="2.6970670">
        <ele>236.6</ele>
        <time>2022-05-27T05:38:04Z</time>
      </trkpt>
      <trkpt lat="41.9544120" lon="2.6970530">
        <ele>236.2</ele>
        <time>2022-05-27T05:38:05Z</time>
      </trkpt>
      <trkpt lat="41.9544750" lon="2.6970550">
        <ele>235.8</ele>
        <time>2022-05-27T05:38:06Z</time>
      </trkpt>
      <trkpt lat="41.9545380" lon="2.6970700">
        <ele>235.4</ele>
        <time>2022-05-27T05:38:07Z</time>
      </trkpt>
      <trkpt lat="41.9545970" lon="2.6970880">
        <ele>235.0</ele>
        <time>2022-05-27T05:38:08Z</time>
      </trkpt>
      <trkpt lat="41.9546660" lon="2.6971050">
        <ele>234.6</ele>
        <time>2022-05-27T05:38:09Z</time>
      </trkpt>
      <trkpt lat="41.9547520" lon="2.6971150">
        <ele>234.2</ele>
        <time>2022-05-27T05:38:10Z</time>
      </trkpt>
      <trkpt lat="41.9548250" lon="2.6971190">
        <ele>233.6</ele>
        <time>2022-05-27T05:38:11Z</time>
      </trkpt>
      <trkpt lat="41.9548760" lon="2.6971110">
        <ele>233.2</ele>
        <time>2022-05-27T05:38:12Z</time>
      </trkpt>
      <trkpt lat="41.9549250" lon="2.6970830">
        <ele>232.8</ele>
        <time>2022-05-27T05:38:13Z</time>
      </trkpt>
      <trkpt lat="41.9549730" lon="2.6970360">
        <ele>232.4</ele>
        <time>2022-05-27T05:38:14Z</time>
      </trkpt>
      <trkpt lat="41.9550070" lon="2.6969750">
        <ele>232.2</ele>
        <time>2022-05-27T05:38:15Z</time>
      </trkpt>
      <trkpt lat="41.9550230" lon="2.6969100">
        <ele>232.0</ele>
        <time>2022-05-27T05:38:16Z</time>
      </trkpt>
      <trkpt lat="41.9550330" lon="2.6968320">
        <ele>231.8</ele>
        <time>2022-05-27T05:38:17Z</time>
      </trkpt>
      <trkpt lat="41.9550350" lon="2.6967420">
        <ele>231.8</ele>
        <time>2022-05-27T05:38:18Z</time>
      </trkpt>
      <trkpt lat="41.9550370" lon="2.6966510">
        <ele>231.8</ele>
        <time>2022-05-27T05:38:19Z</time>
      </trkpt>
      <trkpt lat="41.9550370" lon="2.6965570">
        <ele>231.8</ele>
        <time>2022-05-27T05:38:20Z</time>
      </trkpt>
      <trkpt lat="41.9550340" lon="2.6964560">
        <ele>231.8</ele>
        <time>2022-05-27T05:38:21Z</time>
      </trkpt>
      <trkpt lat="41.9550230" lon="2.6963570">
        <ele>232.0</ele>
        <time>2022-05-27T05:38:22Z</time>
      </trkpt>
      <trkpt lat="41.9550110" lon="2.6962670">
        <ele>232.2</ele>
        <time>2022-05-27T05:38:23Z</time>
      </trkpt>
      <trkpt lat="41.9549940" lon="2.6961700">
        <ele>232.2</ele>
        <time>2022-05-27T05:38:24Z</time>
      </trkpt>
      <trkpt lat="41.9549750" lon="2.6960800">
        <ele>232.4</ele>
        <time>2022-05-27T05:38:25Z</time>
      </trkpt>
      <trkpt lat="41.9549580" lon="2.6959810">
        <ele>232.6</ele>
        <time>2022-05-27T05:38:26Z</time>
      </trkpt>
      <trkpt lat="41.9549430" lon="2.6958930">
        <ele>232.8</ele>
        <time>2022-05-27T05:38:27Z</time>
      </trkpt>
      <trkpt lat="41.9549300" lon="2.6958260">
        <ele>233.0</ele>
        <time>2022-05-27T05:38:28Z</time>
      </trkpt>
      <trkpt lat="41.9549230" lon="2.6957750">
        <ele>233.0</ele>
        <time>2022-05-27T05:38:29Z</time>
      </trkpt>
      <trkpt lat="41.9549260" lon="2.6957340">
        <ele>233.2</ele>
        <time>2022-05-27T05:38:30Z</time>
      </trkpt>
      <trkpt lat="41.9549380" lon="2.6956920">
        <ele>233.2</ele>
        <time>2022-05-27T05:38:31Z</time>
      </trkpt>
      <trkpt lat="41.9549540" lon="2.6956430">
        <ele>233.2</ele>
        <time>2022-05-27T05:38:32Z</time>
      </trkpt>
      <trkpt lat="41.9549690" lon="2.6955750">
        <ele>233.2</ele>
        <time>2022-05-27T05:38:33Z</time>
      </trkpt>
      <trkpt lat="41.9549810" lon="2.6955000">
        <ele>233.2</ele>
        <time>2022-05-27T05:38:34Z</time>
      </trkpt>
      <trkpt lat="41.9549920" lon="2.6954220">
        <ele>233.2</ele>
        <time>2022-05-27T05:38:35Z</time>
      </trkpt>
      <trkpt lat="41.9550070" lon="2.6953370">
        <ele>233.2</ele>
        <time>2022-05-27T05:38:36Z</time>
      </trkpt>
      <trkpt lat="41.9550210" lon="2.6952440">
        <ele>233.2</ele>
        <time>2022-05-27T05:38:37Z</time>
      </trkpt>
      <trkpt lat="41.9550330" lon="2.6951460">
        <ele>233.2</ele>
        <time>2022-05-27T05:38:38Z</time>
      </trkpt>
      <trkpt lat="41.9550420" lon="2.6950480">
        <ele>233.0</ele>
        <time>2022-05-27T05:38:39Z</time>
      </trkpt>
      <trkpt lat="41.9550480" lon="2.6949600">
        <ele>233.0</ele>
        <time>2022-05-27T05:38:40Z</time>
      </trkpt>
      <trkpt lat="41.9550580" lon="2.6948830">
        <ele>232.8</ele>
        <time>2022-05-27T05:38:41Z</time>
      </trkpt>
      <trkpt lat="41.9550720" lon="2.6948080">
        <ele>232.8</ele>
        <time>2022-05-27T05:38:42Z</time>
      </trkpt>
      <trkpt lat="41.9550870" lon="2.6947310">
        <ele>232.6</ele>
        <time>2022-05-27T05:38:43Z</time>
      </trkpt>
      <trkpt lat="41.9550990" lon="2.6946570">
        <ele>232.6</ele>
        <time>2022-05-27T05:38:44Z</time>
      </trkpt>
      <trkpt lat="41.9550970" lon="2.6945880">
        <ele>232.6</ele>
        <time>2022-05-27T05:38:45Z</time>
      </trkpt>
      <trkpt lat="41.9550890" lon="2.6945280">
        <ele>232.6</ele>
        <time>2022-05-27T05:38:46Z</time>
      </trkpt>
      <trkpt lat="41.9550600" lon="2.6944820">
        <ele>232.8</ele>
        <time>2022-05-27T05:38:47Z</time>
      </trkpt>
      <trkpt lat="41.9550130" lon="2.6944490">
        <ele>233.0</ele>
        <time>2022-05-27T05:38:48Z</time>
      </trkpt>
      <trkpt lat="41.9549550" lon="2.6944200">
        <ele>233.2</ele>
        <time>2022-05-27T05:38:49Z</time>
      </trkpt>
      <trkpt lat="41.9549030" lon="2.6943920">
        <ele>233.4</ele>
        <time>2022-05-27T05:38:50Z</time>
      </trkpt>
      <trkpt lat="41.9548510" lon="2.6943620">
        <ele>233.6</ele>
        <time>2022-05-27T05:38:51Z</time>
      </trkpt>
      <trkpt lat="41.9548100" lon="2.6943340">
        <ele>233.8</ele>
        <time>2022-05-27T05:38:52Z</time>
      </trkpt>
      <trkpt lat="41.9547840" lon="2.6943090">
        <ele>234.0</ele>
        <time>2022-05-27T05:38:53Z</time>
      </trkpt>
      <trkpt lat="41.9547690" lon="2.6942860">
        <ele>234.2</ele>
        <time>2022-05-27T05:38:54Z</time>
      </trkpt>
      <trkpt lat="41.9547630" lon="2.6942600">
        <ele>234.4</ele>
        <time>2022-05-27T05:38:55Z</time>
      </trkpt>
      <trkpt lat="41.9547740" lon="2.6942310">
        <ele>234.8</ele>
        <time>2022-05-27T05:38:56Z</time>
      </trkpt>
      <trkpt lat="41.9547990" lon="2.6942040">
        <ele>235.2</ele>
        <time>2022-05-27T05:38:57Z</time>
      </trkpt>
      <trkpt lat="41.9548400" lon="2.6941830">
        <ele>235.6</ele>
        <time>2022-05-27T05:38:58Z</time>
      </trkpt>
      <trkpt lat="41.9548950" lon="2.6941720">
        <ele>235.8</ele>
        <time>2022-05-27T05:38:59Z</time>
      </trkpt>
      <trkpt lat="41.9549490" lon="2.6941580">
        <ele>236.2</ele>
        <time>2022-05-27T05:39:00Z</time>
      </trkpt>
      <trkpt lat="41.9550080" lon="2.6941230">
        <ele>236.6</ele>
        <time>2022-05-27T05:39:01Z</time>
      </trkpt>
      <trkpt lat="41.9550470" lon="2.6940630">
        <ele>237.0</ele>
        <time>2022-05-27T05:39:02Z</time>
      </trkpt>
      <trkpt lat="41.9550750" lon="2.6939920">
        <ele>237.2</ele>
        <time>2022-05-27T05:39:03Z</time>
      </trkpt>
      <trkpt lat="41.9551000" lon="2.6939130">
        <ele>237.2</ele>
        <time>2022-05-27T05:39:04Z</time>
      </trkpt>
      <trkpt lat="41.9551200" lon="2.6938430">
        <ele>237.4</ele>
        <time>2022-05-27T05:39:05Z</time>
      </trkpt>
      <trkpt lat="41.9551280" lon="2.6937790">
        <ele>237.6</ele>
        <time>2022-05-27T05:39:06Z</time>
      </trkpt>
      <trkpt lat="41.9551300" lon="2.6937150">
        <ele>237.8</ele>
        <time>2022-05-27T05:39:07Z</time>
      </trkpt>
      <trkpt lat="41.9551220" lon="2.6936460">
        <ele>237.8</ele>
        <time>2022-05-27T05:39:08Z</time>
      </trkpt>
      <trkpt lat="41.9551150" lon="2.6935700">
        <ele>238.0</ele>
        <time>2022-05-27T05:39:09Z</time>
      </trkpt>
      <trkpt lat="41.9551070" lon="2.6934870">
        <ele>238.2</ele>
        <time>2022-05-27T05:39:10Z</time>
      </trkpt>
      <trkpt lat="41.9551050" lon="2.6933990">
        <ele>238.4</ele>
        <time>2022-05-27T05:39:11Z</time>
      </trkpt>
      <trkpt lat="41.9551100" lon="2.6933110">
        <ele>238.6</ele>
        <time>2022-05-27T05:39:12Z</time>
      </trkpt>
      <trkpt lat="41.9551230" lon="2.6932290">
        <ele>238.8</ele>
        <time>2022-05-27T05:39:13Z</time>
      </trkpt>
      <trkpt lat="41.9551330" lon="2.6931510">
        <ele>239.0</ele>
        <time>2022-05-27T05:39:14Z</time>
      </trkpt>
      <trkpt lat="41.9551400" lon="2.6930740">
        <ele>239.2</ele>
        <time>2022-05-27T05:39:15Z</time>
      </trkpt>
      <trkpt lat="41.9551510" lon="2.6929980">
        <ele>239.4</ele>
        <time>2022-05-27T05:39:16Z</time>
      </trkpt>
      <trkpt lat="41.9551660" lon="2.6929140">
        <ele>239.6</ele>
        <time>2022-05-27T05:39:17Z</time>
      </trkpt>
      <trkpt lat="41.9551820" lon="2.6928360">
        <ele>239.8</ele>
        <time>2022-05-27T05:39:18Z</time>
      </trkpt>
      <trkpt lat="41.9551960" lon="2.6927610">
        <ele>240.0</ele>
        <time>2022-05-27T05:39:19Z</time>
      </trkpt>
      <trkpt lat="41.9552010" lon="2.6926860">
        <ele>240.2</ele>
        <time>2022-05-27T05:39:20Z</time>
      </trkpt>
      <trkpt lat="41.9552020" lon="2.6926170">
        <ele>240.2</ele>
        <time>2022-05-27T05:39:21Z</time>
      </trkpt>
      <trkpt lat="41.9551890" lon="2.6925500">
        <ele>240.4</ele>
        <time>2022-05-27T05:39:22Z</time>
      </trkpt>
      <trkpt lat="41.9551810" lon="2.6924790">
        <ele>240.4</ele>
        <time>2022-05-27T05:39:23Z</time>
      </trkpt>
      <trkpt lat="41.9551750" lon="2.6924060">
        <ele>240.6</ele>
        <time>2022-05-27T05:39:24Z</time>
      </trkpt>
      <trkpt lat="41.9551750" lon="2.6923290">
        <ele>240.6</ele>
        <time>2022-05-27T05:39:25Z</time>
      </trkpt>
      <trkpt lat="41.9551780" lon="2.6922590">
        <ele>241.0</ele>
        <time>2022-05-27T05:39:26Z</time>
      </trkpt>
      <trkpt lat="41.9551840" lon="2.6921950">
        <ele>241.0</ele>
        <time>2022-05-27T05:39:27Z</time>
      </trkpt>
      <trkpt lat="41.9551930" lon="2.6921300">
        <ele>241.2</ele>
        <time>2022-05-27T05:39:28Z</time>
      </trkpt>
      <trkpt lat="41.9552070" lon="2.6920570">
        <ele>241.2</ele>
        <time>2022-05-27T05:39:29Z</time>
      </trkpt>
      <trkpt lat="41.9552200" lon="2.6919820">
        <ele>241.4</ele>
        <time>2022-05-27T05:39:30Z</time>
      </trkpt>
      <trkpt lat="41.9552340" lon="2.6919230">
        <ele>241.6</ele>
        <time>2022-05-27T05:39:31Z</time>
      </trkpt>
      <trkpt lat="41.9552390" lon="2.6918790">
        <ele>241.6</ele>
        <time>2022-05-27T05:39:32Z</time>
      </trkpt>
      <trkpt lat="41.9552400" lon="2.6918480">
        <ele>241.6</ele>
        <time>2022-05-27T05:39:33Z</time>
      </trkpt>
      <trkpt lat="41.9552390" lon="2.6918320">
        <ele>241.8</ele>
        <time>2022-05-27T05:39:34Z</time>
      </trkpt>
      <trkpt lat="41.9552320" lon="2.6918260">
        <ele>241.8</ele>
        <time>2022-05-27T05:39:35Z</time>
      </trkpt>
      <trkpt lat="41.9552240" lon="2.6918300">
        <ele>241.8</ele>
        <time>2022-05-27T05:39:36Z</time>
      </trkpt>
      <trkpt lat="41.9552200" lon="2.6918350">
        <ele>241.8</ele>
        <time>2022-05-27T05:39:37Z</time>
      </trkpt>
      <trkpt lat="41.9552180" lon="2.6918350">
        <ele>241.8</ele>
        <time>2022-05-27T05:39:38Z</time>
      </trkpt>
      <trkpt lat="41.9552200" lon="2.6918350">
        <ele>241.8</ele>
        <time>2022-05-27T05:39:39Z</time>
      </trkpt>
      <trkpt lat="41.9552220" lon="2.6918330">
        <ele>241.8</ele>
        <time>2022-05-27T05:39:40Z</time>
      </trkpt>
      <trkpt lat="41.9552270" lon="2.6918120">
        <ele>241.8</ele>
        <time>2022-05-27T05:39:41Z</time>
      </trkpt>
      <trkpt lat="41.9552330" lon="2.6917710">
        <ele>242.0</ele>
        <time>2022-05-27T05:39:42Z</time>
      </trkpt>
      <trkpt lat="41.9552400" lon="2.6917270">
        <ele>242.0</ele>
        <time>2022-05-27T05:39:43Z</time>
      </trkpt>
      <trkpt lat="41.9552410" lon="2.6916860">
        <ele>242.2</ele>
        <time>2022-05-27T05:39:44Z</time>
      </trkpt>
      <trkpt lat="41.9552340" lon="2.6916620">
        <ele>242.4</ele>
        <time>2022-05-27T05:39:45Z</time>
      </trkpt>
      <trkpt lat="41.9551980" lon="2.6916050">
        <ele>242.6</ele>
        <time>2022-05-27T05:39:46Z</time>
      </trkpt>
      <trkpt lat="41.9551540" lon="2.6915460">
        <ele>242.8</ele>
        <time>2022-05-27T05:39:47Z</time>
      </trkpt>
      <trkpt lat="41.9551310" lon="2.6914920">
        <ele>243.0</ele>
        <time>2022-05-27T05:39:48Z</time>
      </trkpt>
      <trkpt lat="41.9551260" lon="2.6914400">
        <ele>243.2</ele>
        <time>2022-05-27T05:39:49Z</time>
      </trkpt>
      <trkpt lat="41.9551290" lon="2.6913920">
        <ele>243.4</ele>
        <time>2022-05-27T05:39:50Z</time>
      </trkpt>
      <trkpt lat="41.9551320" lon="2.6913490">
        <ele>243.6</ele>
        <time>2022-05-27T05:39:51Z</time>
      </trkpt>
      <trkpt lat="41.9551330" lon="2.6913010">
        <ele>244.0</ele>
        <time>2022-05-27T05:39:52Z</time>
      </trkpt>
      <trkpt lat="41.9551340" lon="2.6912560">
        <ele>244.2</ele>
        <time>2022-05-27T05:39:53Z</time>
      </trkpt>
      <trkpt lat="41.9551330" lon="2.6912140">
        <ele>244.4</ele>
        <time>2022-05-27T05:39:54Z</time>
      </trkpt>
      <trkpt lat="41.9551310" lon="2.6911720">
        <ele>244.8</ele>
        <time>2022-05-27T05:39:55Z</time>
      </trkpt>
      <trkpt lat="41.9551300" lon="2.6911260">
        <ele>245.0</ele>
        <time>2022-05-27T05:39:56Z</time>
      </trkpt>
      <trkpt lat="41.9551310" lon="2.6910740">
        <ele>245.4</ele>
        <time>2022-05-27T05:39:57Z</time>
      </trkpt>
      <trkpt lat="41.9551380" lon="2.6910210">
        <ele>245.6</ele>
        <time>2022-05-27T05:39:58Z</time>
      </trkpt>
      <trkpt lat="41.9551510" lon="2.6909620">
        <ele>245.8</ele>
        <time>2022-05-27T05:39:59Z</time>
      </trkpt>
      <trkpt lat="41.9551640" lon="2.6909070">
        <ele>246.2</ele>
        <time>2022-05-27T05:40:00Z</time>
      </trkpt>
      <trkpt lat="41.9551860" lon="2.6908610">
        <ele>246.4</ele>
        <time>2022-05-27T05:40:01Z</time>
      </trkpt>
      <trkpt lat="41.9552170" lon="2.6908210">
        <ele>246.8</ele>
        <time>2022-05-27T05:40:02Z</time>
      </trkpt>
      <trkpt lat="41.9552490" lon="2.6907880">
        <ele>247.0</ele>
        <time>2022-05-27T05:40:03Z</time>
      </trkpt>
      <trkpt lat="41.9552800" lon="2.6907510">
        <ele>247.4</ele>
        <time>2022-05-27T05:40:04Z</time>
      </trkpt>
      <trkpt lat="41.9553020" lon="2.6907040">
        <ele>247.8</ele>
        <time>2022-05-27T05:40:05Z</time>
      </trkpt>
      <trkpt lat="41.9553230" lon="2.6906500">
        <ele>248.0</ele>
        <time>2022-05-27T05:40:06Z</time>
      </trkpt>
      <trkpt lat="41.9553570" lon="2.6906000">
        <ele>248.4</ele>
        <time>2022-05-27T05:40:07Z</time>
      </trkpt>
      <trkpt lat="41.9553930" lon="2.6905580">
        <ele>248.8</ele>
        <time>2022-05-27T05:40:08Z</time>
      </trkpt>
      <trkpt lat="41.9554120" lon="2.6905230">
        <ele>249.2</ele>
        <time>2022-05-27T05:40:09Z</time>
      </trkpt>
      <trkpt lat="41.9554300" lon="2.6904950">
        <ele>249.4</ele>
        <time>2022-05-27T05:40:10Z</time>
      </trkpt>
      <trkpt lat="41.9554610" lon="2.6904830">
        <ele>249.8</ele>
        <time>2022-05-27T05:40:11Z</time>
      </trkpt>
      <trkpt lat="41.9555020" lon="2.6904860">
        <ele>250.2</ele>
        <time>2022-05-27T05:40:12Z</time>
      </trkpt>
      <trkpt lat="41.9555480" lon="2.6905100">
        <ele>250.4</ele>
        <time>2022-05-27T05:40:13Z</time>
      </trkpt>
      <trkpt lat="41.9556010" lon="2.6905500">
        <ele>250.8</ele>
        <time>2022-05-27T05:40:14Z</time>
      </trkpt>
      <trkpt lat="41.9556500" lon="2.6906010">
        <ele>251.0</ele>
        <time>2022-05-27T05:40:15Z</time>
      </trkpt>
      <trkpt lat="41.9556890" lon="2.6906600">
        <ele>251.0</ele>
        <time>2022-05-27T05:40:16Z</time>
      </trkpt>
      <trkpt lat="41.9557170" lon="2.6907280">
        <ele>251.0</ele>
        <time>2022-05-27T05:40:17Z</time>
      </trkpt>
      <trkpt lat="41.9557360" lon="2.6907910">
        <ele>250.8</ele>
        <time>2022-05-27T05:40:18Z</time>
      </trkpt>
      <trkpt lat="41.9557410" lon="2.6908400">
        <ele>250.8</ele>
        <time>2022-05-27T05:40:19Z</time>
      </trkpt>
      <trkpt lat="41.9557390" lon="2.6908700">
        <ele>250.8</ele>
        <time>2022-05-27T05:40:20Z</time>
      </trkpt>
      <trkpt lat="41.9557280" lon="2.6908950">
        <ele>250.6</ele>
        <time>2022-05-27T05:40:21Z</time>
      </trkpt>
      <trkpt lat="41.9557150" lon="2.6909200">
        <ele>250.4</ele>
        <time>2022-05-27T05:40:22Z</time>
      </trkpt>
      <trkpt lat="41.9556960" lon="2.6909550">
        <ele>250.2</ele>
        <time>2022-05-27T05:40:23Z</time>
      </trkpt>
      <trkpt lat="41.9556670" lon="2.6909950">
        <ele>250.0</ele>
        <time>2022-05-27T05:40:24Z</time>
      </trkpt>
      <trkpt lat="41.9556380" lon="2.6910240">
        <ele>249.6</ele>
        <time>2022-05-27T05:40:25Z</time>
      </trkpt>
      <trkpt lat="41.9556120" lon="2.6910420">
        <ele>249.2</ele>
        <time>2022-05-27T05:40:26Z</time>
      </trkpt>
      <trkpt lat="41.9555880" lon="2.6910580">
        <ele>249.0</ele>
        <time>2022-05-27T05:40:27Z</time>
      </trkpt>
      <trkpt lat="41.9555650" lon="2.6910820">
        <ele>248.6</ele>
        <time>2022-05-27T05:40:28Z</time>
      </trkpt>
      <trkpt lat="41.9555490" lon="2.6911140">
        <ele>248.2</ele>
        <time>2022-05-27T05:40:29Z</time>
      </trkpt>
      <trkpt lat="41.9555430" lon="2.6911490">
        <ele>247.8</ele>
        <time>2022-05-27T05:40:30Z</time>
      </trkpt>
      <trkpt lat="41.9555410" lon="2.6911770">
        <ele>247.6</ele>
        <time>2022-05-27T05:40:31Z</time>
      </trkpt>
      <trkpt lat="41.9555370" lon="2.6912000">
        <ele>247.4</ele>
        <time>2022-05-27T05:40:32Z</time>
      </trkpt>
      <trkpt lat="41.9555280" lon="2.6912300">
        <ele>247.0</ele>
        <time>2022-05-27T05:40:33Z</time>
      </trkpt>
      <trkpt lat="41.9555150" lon="2.6912760">
        <ele>246.8</ele>
        <time>2022-05-27T05:40:34Z</time>
      </trkpt>
      <trkpt lat="41.9555000" lon="2.6913290">
        <ele>246.6</ele>
        <time>2022-05-27T05:40:35Z</time>
      </trkpt>
      <trkpt lat="41.9554860" lon="2.6913750">
        <ele>246.2</ele>
        <time>2022-05-27T05:40:36Z</time>
      </trkpt>
      <trkpt lat="41.9554760" lon="2.6914200">
        <ele>246.0</ele>
        <time>2022-05-27T05:40:37Z</time>
      </trkpt>
      <trkpt lat="41.9554720" lon="2.6914710">
        <ele>245.6</ele>
        <time>2022-05-27T05:40:38Z</time>
      </trkpt>
      <trkpt lat="41.9554700" lon="2.6915250">
        <ele>245.2</ele>
        <time>2022-05-27T05:40:39Z</time>
      </trkpt>
      <trkpt lat="41.9554650" lon="2.6915670">
        <ele>245.0</ele>
        <time>2022-05-27T05:40:40Z</time>
      </trkpt>
      <trkpt lat="41.9554470" lon="2.6916020">
        <ele>244.8</ele>
        <time>2022-05-27T05:40:41Z</time>
      </trkpt>
      <trkpt lat="41.9554280" lon="2.6916440">
        <ele>244.4</ele>
        <time>2022-05-27T05:40:42Z</time>
      </trkpt>
      <trkpt lat="41.9554190" lon="2.6916930">
        <ele>244.2</ele>
        <time>2022-05-27T05:40:43Z</time>
      </trkpt>
      <trkpt lat="41.9554230" lon="2.6917340">
        <ele>243.8</ele>
        <time>2022-05-27T05:40:44Z</time>
      </trkpt>
      <trkpt lat="41.9554400" lon="2.6917670">
        <ele>243.4</ele>
        <time>2022-05-27T05:40:45Z</time>
      </trkpt>
      <trkpt lat="41.9554510" lon="2.6918080">
        <ele>243.2</ele>
        <time>2022-05-27T05:40:46Z</time>
      </trkpt>
      <trkpt lat="41.9554510" lon="2.6918530">
        <ele>242.8</ele>
        <time>2022-05-27T05:40:47Z</time>
      </trkpt>
      <trkpt lat="41.9554510" lon="2.6918890">
        <ele>242.2</ele>
        <time>2022-05-27T05:40:48Z</time>
      </trkpt>
      <trkpt lat="41.9554460" lon="2.6919260">
        <ele>241.8</ele>
        <time>2022-05-27T05:40:49Z</time>
      </trkpt>
      <trkpt lat="41.9554370" lon="2.6919680">
        <ele>241.2</ele>
        <time>2022-05-27T05:40:50Z</time>
      </trkpt>
      <trkpt lat="41.9554340" lon="2.6920150">
        <ele>240.8</ele>
        <time>2022-05-27T05:40:51Z</time>
      </trkpt>
      <trkpt lat="41.9554290" lon="2.6920630">
        <ele>240.2</ele>
        <time>2022-05-27T05:40:52Z</time>
      </trkpt>
      <trkpt lat="41.9554270" lon="2.6921190">
        <ele>239.6</ele>
        <time>2022-05-27T05:40:53Z</time>
      </trkpt>
      <trkpt lat="41.9554340" lon="2.6921920">
        <ele>239.0</ele>
        <time>2022-05-27T05:40:54Z</time>
      </trkpt>
      <trkpt lat="41.9554490" lon="2.6922620">
        <ele>238.4</ele>
        <time>2022-05-27T05:40:55Z</time>
      </trkpt>
      <trkpt lat="41.9554540" lon="2.6923420">
        <ele>238.0</ele>
        <time>2022-05-27T05:40:56Z</time>
      </trkpt>
      <trkpt lat="41.9554440" lon="2.6924310">
        <ele>237.4</ele>
        <time>2022-05-27T05:40:57Z</time>
      </trkpt>
      <trkpt lat="41.9554250" lon="2.6925240">
        <ele>237.0</ele>
        <time>2022-05-27T05:40:58Z</time>
      </trkpt>
      <trkpt lat="41.9554010" lon="2.6926160">
        <ele>236.4</ele>
        <time>2022-05-27T05:40:59Z</time>
      </trkpt>
      <trkpt lat="41.9553900" lon="2.6927090">
        <ele>236.0</ele>
        <time>2022-05-27T05:41:00Z</time>
      </trkpt>
      <trkpt lat="41.9553800" lon="2.6928000">
        <ele>235.4</ele>
        <time>2022-05-27T05:41:01Z</time>
      </trkpt>
      <trkpt lat="41.9553800" lon="2.6928840">
        <ele>235.0</ele>
        <time>2022-05-27T05:41:02Z</time>
      </trkpt>
      <trkpt lat="41.9553920" lon="2.6929610">
        <ele>234.6</ele>
        <time>2022-05-27T05:41:03Z</time>
      </trkpt>
      <trkpt lat="41.9554140" lon="2.6930400">
        <ele>234.2</ele>
        <time>2022-05-27T05:41:04Z</time>
      </trkpt>
      <trkpt lat="41.9554300" lon="2.6931130">
        <ele>233.6</ele>
        <time>2022-05-27T05:41:05Z</time>
      </trkpt>
      <trkpt lat="41.9554440" lon="2.6931970">
        <ele>233.2</ele>
        <time>2022-05-27T05:41:06Z</time>
      </trkpt>
      <trkpt lat="41.9554570" lon="2.6932790">
        <ele>233.0</ele>
        <time>2022-05-27T05:41:07Z</time>
      </trkpt>
      <trkpt lat="41.9554720" lon="2.6933520">
        <ele>232.6</ele>
        <time>2022-05-27T05:41:08Z</time>
      </trkpt>
      <trkpt lat="41.9554750" lon="2.6934420">
        <ele>232.2</ele>
        <time>2022-05-27T05:41:09Z</time>
      </trkpt>
      <trkpt lat="41.9554580" lon="2.6935260">
        <ele>231.8</ele>
        <time>2022-05-27T05:41:10Z</time>
      </trkpt>
      <trkpt lat="41.9554220" lon="2.6935860">
        <ele>231.4</ele>
        <time>2022-05-27T05:41:11Z</time>
      </trkpt>
      <trkpt lat="41.9553680" lon="2.6936450">
        <ele>231.0</ele>
        <time>2022-05-27T05:41:12Z</time>
      </trkpt>
      <trkpt lat="41.9553230" lon="2.6937190">
        <ele>230.6</ele>
        <time>2022-05-27T05:41:13Z</time>
      </trkpt>
      <trkpt lat="41.9553120" lon="2.6937970">
        <ele>230.2</ele>
        <time>2022-05-27T05:41:14Z</time>
      </trkpt>
      <trkpt lat="41.9553040" lon="2.6938680">
        <ele>229.8</ele>
        <time>2022-05-27T05:41:15Z</time>
      </trkpt>
      <trkpt lat="41.9553010" lon="2.6939460">
        <ele>229.2</ele>
        <time>2022-05-27T05:41:16Z</time>
      </trkpt>
      <trkpt lat="41.9552960" lon="2.6940310">
        <ele>228.4</ele>
        <time>2022-05-27T05:41:17Z</time>
      </trkpt>
      <trkpt lat="41.9552870" lon="2.6941010">
        <ele>227.8</ele>
        <time>2022-05-27T05:41:18Z</time>
      </trkpt>
      <trkpt lat="41.9552790" lon="2.6941520">
        <ele>227.4</ele>
        <time>2022-05-27T05:41:19Z</time>
      </trkpt>
      <trkpt lat="41.9552740" lon="2.6941910">
        <ele>227.0</ele>
        <time>2022-05-27T05:41:20Z</time>
      </trkpt>
      <trkpt lat="41.9552720" lon="2.6942340">
        <ele>226.6</ele>
        <time>2022-05-27T05:41:21Z</time>
      </trkpt>
      <trkpt lat="41.9552700" lon="2.6942890">
        <ele>226.4</ele>
        <time>2022-05-27T05:41:22Z</time>
      </trkpt>
      <trkpt lat="41.9552720" lon="2.6943500">
        <ele>226.0</ele>
        <time>2022-05-27T05:41:23Z</time>
      </trkpt>
      <trkpt lat="41.9552800" lon="2.6944080">
        <ele>225.8</ele>
        <time>2022-05-27T05:41:24Z</time>
      </trkpt>
      <trkpt lat="41.9552880" lon="2.6944640">
        <ele>225.4</ele>
        <time>2022-05-27T05:41:25Z</time>
      </trkpt>
      <trkpt lat="41.9552940" lon="2.6945210">
        <ele>225.2</ele>
        <time>2022-05-27T05:41:26Z</time>
      </trkpt>
      <trkpt lat="41.9552930" lon="2.6945880">
        <ele>225.0</ele>
        <time>2022-05-27T05:41:27Z</time>
      </trkpt>
      <trkpt lat="41.9552800" lon="2.6946390">
        <ele>224.6</ele>
        <time>2022-05-27T05:41:28Z</time>
      </trkpt>
      <trkpt lat="41.9552580" lon="2.6946830">
        <ele>224.4</ele>
        <time>2022-05-27T05:41:29Z</time>
      </trkpt>
      <trkpt lat="41.9552280" lon="2.6947380">
        <ele>224.2</ele>
        <time>2022-05-27T05:41:30Z</time>
      </trkpt>
      <trkpt lat="41.9552010" lon="2.6948010">
        <ele>223.8</ele>
        <time>2022-05-27T05:41:31Z</time>
      </trkpt>
      <trkpt lat="41.9551900" lon="2.6948640">
        <ele>223.6</ele>
        <time>2022-05-27T05:41:32Z</time>
      </trkpt>
      <trkpt lat="41.9551890" lon="2.6949310">
        <ele>223.4</ele>
        <time>2022-05-27T05:41:33Z</time>
      </trkpt>
      <trkpt lat="41.9552010" lon="2.6950000">
        <ele>223.0</ele>
        <time>2022-05-27T05:41:34Z</time>
      </trkpt>
      <trkpt lat="41.9552020" lon="2.6950680">
        <ele>222.8</ele>
        <time>2022-05-27T05:41:35Z</time>
      </trkpt>
      <trkpt lat="41.9552040" lon="2.6951380">
        <ele>222.6</ele>
        <time>2022-05-27T05:41:36Z</time>
      </trkpt>
      <trkpt lat="41.9552000" lon="2.6951970">
        <ele>222.4</ele>
        <time>2022-05-27T05:41:37Z</time>
      </trkpt>
      <trkpt lat="41.9551960" lon="2.6952470">
        <ele>222.6</ele>
        <time>2022-05-27T05:41:38Z</time>
      </trkpt>
      <trkpt lat="41.9551970" lon="2.6952990">
        <ele>222.4</ele>
        <time>2022-05-27T05:41:39Z</time>
      </trkpt>
      <trkpt lat="41.9551980" lon="2.6953710">
        <ele>222.0</ele>
        <time>2022-05-27T05:41:40Z</time>
      </trkpt>
      <trkpt lat="41.9551980" lon="2.6954590">
        <ele>221.8</ele>
        <time>2022-05-27T05:41:41Z</time>
      </trkpt>
      <trkpt lat="41.9551970" lon="2.6955590">
        <ele>221.4</ele>
        <time>2022-05-27T05:41:42Z</time>
      </trkpt>
      <trkpt lat="41.9551970" lon="2.6956720">
        <ele>221.0</ele>
        <time>2022-05-27T05:41:43Z</time>
      </trkpt>
      <trkpt lat="41.9551980" lon="2.6957970">
        <ele>220.8</ele>
        <time>2022-05-27T05:41:44Z</time>
      </trkpt>
      <trkpt lat="41.9551920" lon="2.6959070">
        <ele>220.6</ele>
        <time>2022-05-27T05:41:45Z</time>
      </trkpt>
      <trkpt lat="41.9551860" lon="2.6960130">
        <ele>220.2</ele>
        <time>2022-05-27T05:41:46Z</time>
      </trkpt>
      <trkpt lat="41.9551840" lon="2.6961210">
        <ele>220.0</ele>
        <time>2022-05-27T05:41:47Z</time>
      </trkpt>
      <trkpt lat="41.9551890" lon="2.6962130">
        <ele>219.6</ele>
        <time>2022-05-27T05:41:48Z</time>
      </trkpt>
      <trkpt lat="41.9551910" lon="2.6962970">
        <ele>219.2</ele>
        <time>2022-05-27T05:41:49Z</time>
      </trkpt>
      <trkpt lat="41.9551950" lon="2.6963730">
        <ele>219.0</ele>
        <time>2022-05-27T05:41:50Z</time>
      </trkpt>
      <trkpt lat="41.9551990" lon="2.6964500">
        <ele>218.6</ele>
        <time>2022-05-27T05:41:51Z</time>
      </trkpt>
      <trkpt lat="41.9552110" lon="2.6965320">
        <ele>218.2</ele>
        <time>2022-05-27T05:41:52Z</time>
      </trkpt>
      <trkpt lat="41.9552330" lon="2.6966240">
        <ele>217.8</ele>
        <time>2022-05-27T05:41:53Z</time>
      </trkpt>
      <trkpt lat="41.9552650" lon="2.6967200">
        <ele>217.4</ele>
        <time>2022-05-27T05:41:54Z</time>
      </trkpt>
      <trkpt lat="41.9552980" lon="2.6968000">
        <ele>217.0</ele>
        <time>2022-05-27T05:41:55Z</time>
      </trkpt>
      <trkpt lat="41.9553350" lon="2.6968540">
        <ele>216.8</ele>
        <time>2022-05-27T05:41:56Z</time>
      </trkpt>
      <trkpt lat="41.9553290" lon="2.6968950">
        <ele>216.4</ele>
        <time>2022-05-27T05:41:57Z</time>
      </trkpt>
      <trkpt lat="41.9552990" lon="2.6969340">
        <ele>216.0</ele>
        <time>2022-05-27T05:41:58Z</time>
      </trkpt>
      <trkpt lat="41.9552350" lon="2.6969690">
        <ele>215.8</ele>
        <time>2022-05-27T05:41:59Z</time>
      </trkpt>
      <trkpt lat="41.9551920" lon="2.6970150">
        <ele>215.6</ele>
        <time>2022-05-27T05:42:00Z</time>
      </trkpt>
      <trkpt lat="41.9551720" lon="2.6970790">
        <ele>215.2</ele>
        <time>2022-05-27T05:42:01Z</time>
      </trkpt>
      <trkpt lat="41.9551700" lon="2.6971490">
        <ele>215.0</ele>
        <time>2022-05-27T05:42:02Z</time>
      </trkpt>
      <trkpt lat="41.9551720" lon="2.6972010">
        <ele>214.8</ele>
        <time>2022-05-27T05:42:03Z</time>
      </trkpt>
      <trkpt lat="41.9551760" lon="2.6972230">
        <ele>214.6</ele>
        <time>2022-05-27T05:42:04Z</time>
      </trkpt>
      <trkpt lat="41.9551780" lon="2.6972280">
        <ele>214.6</ele>
        <time>2022-05-27T05:42:05Z</time>
      </trkpt>
      <trkpt lat="41.9551780" lon="2.6972280">
        <ele>214.4</ele>
        <time>2022-05-27T05:42:06Z</time>
      </trkpt>
      <trkpt lat="41.9551780" lon="2.6972250">
        <ele>214.4</ele>
        <time>2022-05-27T05:42:07Z</time>
      </trkpt>
      <trkpt lat="41.9551770" lon="2.6972230">
        <ele>214.2</ele>
        <time>2022-05-27T05:42:08Z</time>
      </trkpt>
      <trkpt lat="41.9551780" lon="2.6972220">
        <ele>214.2</ele>
        <time>2022-05-27T05:42:09Z</time>
      </trkpt>
      <trkpt lat="41.9551770" lon="2.6972230">
        <ele>214.0</ele>
        <time>2022-05-27T05:42:10Z</time>
      </trkpt>
      <trkpt lat="41.9551770" lon="2.6972250">
        <ele>214.0</ele>
        <time>2022-05-27T05:42:11Z</time>
      </trkpt>
      <trkpt lat="41.9551780" lon="2.6972250">
        <ele>214.0</ele>
        <time>2022-05-27T05:42:12Z</time>
      </trkpt>
      <trkpt lat="41.9551830" lon="2.6972270">
        <ele>214.0</ele>
        <time>2022-05-27T05:42:13Z</time>
      </trkpt>
      <trkpt lat="41.9551870" lon="2.6972280">
        <ele>214.0</ele>
        <time>2022-05-27T05:42:14Z</time>
      </trkpt>
      <trkpt lat="41.9551870" lon="2.6972280">
        <ele>214.0</ele>
        <time>2022-05-27T05:42:15Z</time>
      </trkpt>
      <trkpt lat="41.9551850" lon="2.6972270">
        <ele>214.0</ele>
        <time>2022-05-27T05:42:16Z</time>
      </trkpt>
      <trkpt lat="41.9551850" lon="2.6972280">
        <ele>214.0</ele>
        <time>2022-05-27T05:42:17Z</time>
      </trkpt>
      <trkpt lat="41.9551860" lon="2.6972310">
        <ele>214.0</ele>
        <time>2022-05-27T05:42:18Z</time>
      </trkpt>
      <trkpt lat="41.9551790" lon="2.6973520">
        <ele>213.8</ele>
        <time>2022-05-27T05:42:24Z</time>
      </trkpt>
      <trkpt lat="41.9551820" lon="2.6973520">
        <ele>213.8</ele>
        <time>2022-05-27T05:42:25Z</time>
      </trkpt>
      <trkpt lat="41.9551800" lon="2.6973520">
        <ele>213.8</ele>
        <time>2022-05-27T05:42:26Z</time>
      </trkpt>
      <trkpt lat="41.9551780" lon="2.6973600">
        <ele>213.6</ele>
        <time>2022-05-27T05:42:27Z</time>
      </trkpt>
      <trkpt lat="41.9551800" lon="2.6973820">
        <ele>213.6</ele>
        <time>2022-05-27T05:42:28Z</time>
      </trkpt>
      <trkpt lat="41.9551740" lon="2.6974290">
        <ele>213.6</ele>
        <time>2022-05-27T05:42:29Z</time>
      </trkpt>
      <trkpt lat="41.9551590" lon="2.6974860">
        <ele>213.6</ele>
        <time>2022-05-27T05:42:30Z</time>
      </trkpt>
      <trkpt lat="41.9551340" lon="2.6975390">
        <ele>213.6</ele>
        <time>2022-05-27T05:42:31Z</time>
      </trkpt>
      <trkpt lat="41.9551020" lon="2.6975940">
        <ele>213.4</ele>
        <time>2022-05-27T05:42:32Z</time>
      </trkpt>
      <trkpt lat="41.9550720" lon="2.6976520">
        <ele>213.6</ele>
        <time>2022-05-27T05:42:33Z</time>
      </trkpt>
      <trkpt lat="41.9550520" lon="2.6977050">
        <ele>213.6</ele>
        <time>2022-05-27T05:42:34Z</time>
      </trkpt>
      <trkpt lat="41.9550430" lon="2.6977610">
        <ele>213.8</ele>
        <time>2022-05-27T05:42:35Z</time>
      </trkpt>
      <trkpt lat="41.9550340" lon="2.6978120">
        <ele>213.8</ele>
        <time>2022-05-27T05:42:36Z</time>
      </trkpt>
      <trkpt lat="41.9550200" lon="2.6978500">
        <ele>214.0</ele>
        <time>2022-05-27T05:42:37Z</time>
      </trkpt>
      <trkpt lat="41.9549980" lon="2.6978770">
        <ele>214.0</ele>
        <time>2022-05-27T05:42:38Z</time>
      </trkpt>
      <trkpt lat="41.9549740" lon="2.6979080">
        <ele>214.0</ele>
        <time>2022-05-27T05:42:39Z</time>
      </trkpt>
      <trkpt lat="41.9549590" lon="2.6979450">
        <ele>214.0</ele>
        <time>2022-05-27T05:42:40Z</time>
      </trkpt>
      <trkpt lat="41.9549560" lon="2.6979860">
        <ele>214.0</ele>
        <time>2022-05-27T05:42:41Z</time>
      </trkpt>
      <trkpt lat="41.9549660" lon="2.6980240">
        <ele>214.0</ele>
        <time>2022-05-27T05:42:42Z</time>
      </trkpt>
      <trkpt lat="41.9549780" lon="2.6980570">
        <ele>214.0</ele>
        <time>2022-05-27T05:42:43Z</time>
      </trkpt>
      <trkpt lat="41.9549770" lon="2.6980930">
        <ele>214.0</ele>
        <time>2022-05-27T05:42:44Z</time>
      </trkpt>
      <trkpt lat="41.9549680" lon="2.6981350">
        <ele>214.0</ele>
        <time>2022-05-27T05:42:45Z</time>
      </trkpt>
      <trkpt lat="41.9549450" lon="2.6981770">
        <ele>214.0</ele>
        <time>2022-05-27T05:42:46Z</time>
      </trkpt>
      <trkpt lat="41.9548960" lon="2.6982160">
        <ele>214.0</ele>
        <time>2022-05-27T05:42:47Z</time>
      </trkpt>
      <trkpt lat="41.9548310" lon="2.6982610">
        <ele>213.8</ele>
        <time>2022-05-27T05:42:48Z</time>
      </trkpt>
      <trkpt lat="41.9547600" lon="2.6983250">
        <ele>213.8</ele>
        <time>2022-05-27T05:42:49Z</time>
      </trkpt>
      <trkpt lat="41.9546910" lon="2.6983910">
        <ele>213.6</ele>
        <time>2022-05-27T05:42:50Z</time>
      </trkpt>
      <trkpt lat="41.9546500" lon="2.6984440">
        <ele>213.6</ele>
        <time>2022-05-27T05:42:51Z</time>
      </trkpt>
      <trkpt lat="41.9546290" lon="2.6984860">
        <ele>213.4</ele>
        <time>2022-05-27T05:42:52Z</time>
      </trkpt>
      <trkpt lat="41.9546150" lon="2.6985240">
        <ele>213.2</ele>
        <time>2022-05-27T05:42:53Z</time>
      </trkpt>
      <trkpt lat="41.9545950" lon="2.6985640">
        <ele>213.0</ele>
        <time>2022-05-27T05:42:54Z</time>
      </trkpt>
      <trkpt lat="41.9545670" lon="2.6986190">
        <ele>212.8</ele>
        <time>2022-05-27T05:42:55Z</time>
      </trkpt>
      <trkpt lat="41.9545280" lon="2.6987030">
        <ele>212.6</ele>
        <time>2022-05-27T05:42:56Z</time>
      </trkpt>
      <trkpt lat="41.9544790" lon="2.6988130">
        <ele>212.2</ele>
        <time>2022-05-27T05:42:57Z</time>
      </trkpt>
      <trkpt lat="41.9544460" lon="2.6989160">
        <ele>212.0</ele>
        <time>2022-05-27T05:42:58Z</time>
      </trkpt>
      <trkpt lat="41.9544320" lon="2.6989790">
        <ele>211.8</ele>
        <time>2022-05-27T05:42:59Z</time>
      </trkpt>
      <trkpt lat="41.9544090" lon="2.6989990">
        <ele>211.6</ele>
        <time>2022-05-27T05:43:00Z</time>
      </trkpt>
      <trkpt lat="41.9543550" lon="2.6990250">
        <ele>211.6</ele>
        <time>2022-05-27T05:43:01Z</time>
      </trkpt>
      <trkpt lat="41.9542980" lon="2.6990680">
        <ele>211.4</ele>
        <time>2022-05-27T05:43:02Z</time>
      </trkpt>
      <trkpt lat="41.9542750" lon="2.6991180">
        <ele>211.4</ele>
        <time>2022-05-27T05:43:03Z</time>
      </trkpt>
      <trkpt lat="41.9542670" lon="2.6991720">
        <ele>211.4</ele>
        <time>2022-05-27T05:43:04Z</time>
      </trkpt>
      <trkpt lat="41.9542530" lon="2.6992280">
        <ele>211.6</ele>
        <time>2022-05-27T05:43:05Z</time>
      </trkpt>
      <trkpt lat="41.9542220" lon="2.6992930">
        <ele>211.8</ele>
        <time>2022-05-27T05:43:06Z</time>
      </trkpt>
      <trkpt lat="41.9541600" lon="2.6993640">
        <ele>211.8</ele>
        <time>2022-05-27T05:43:07Z</time>
      </trkpt>
      <trkpt lat="41.9540880" lon="2.6994360">
        <ele>212.0</ele>
        <time>2022-05-27T05:43:08Z</time>
      </trkpt>
      <trkpt lat="41.9540210" lon="2.6995030">
        <ele>212.2</ele>
        <time>2022-05-27T05:43:09Z</time>
      </trkpt>
      <trkpt lat="41.9539550" lon="2.6995640">
        <ele>212.6</ele>
        <time>2022-05-27T05:43:10Z</time>
      </trkpt>
      <trkpt lat="41.9538880" lon="2.6996320">
        <ele>213.0</ele>
        <time>2022-05-27T05:43:11Z</time>
      </trkpt>
      <trkpt lat="41.9538240" lon="2.6997070">
        <ele>213.2</ele>
        <time>2022-05-27T05:43:12Z</time>
      </trkpt>
      <trkpt lat="41.9537560" lon="2.6997840">
        <ele>213.4</ele>
        <time>2022-05-27T05:43:13Z</time>
      </trkpt>
      <trkpt lat="41.9536900" lon="2.6998550">
        <ele>213.2</ele>
        <time>2022-05-27T05:43:14Z</time>
      </trkpt>
      <trkpt lat="41.9536260" lon="2.6999230">
        <ele>213.2</ele>
        <time>2022-05-27T05:43:15Z</time>
      </trkpt>
      <trkpt lat="41.9535720" lon="2.6999870">
        <ele>213.2</ele>
        <time>2022-05-27T05:43:16Z</time>
      </trkpt>
      <trkpt lat="41.9535340" lon="2.7000410">
        <ele>213.0</ele>
        <time>2022-05-27T05:43:17Z</time>
      </trkpt>
      <trkpt lat="41.9535060" lon="2.7000780">
        <ele>212.8</ele>
        <time>2022-05-27T05:43:18Z</time>
      </trkpt>
      <trkpt lat="41.9534790" lon="2.7000960">
        <ele>212.6</ele>
        <time>2022-05-27T05:43:19Z</time>
      </trkpt>
      <trkpt lat="41.9534470" lon="2.7001000">
        <ele>212.2</ele>
        <time>2022-05-27T05:43:20Z</time>
      </trkpt>
      <trkpt lat="41.9534130" lon="2.7000900">
        <ele>211.8</ele>
        <time>2022-05-27T05:43:21Z</time>
      </trkpt>
      <trkpt lat="41.9533770" lon="2.7000710">
        <ele>211.0</ele>
        <time>2022-05-27T05:43:22Z</time>
      </trkpt>
      <trkpt lat="41.9533370" lon="2.7000640">
        <ele>210.4</ele>
        <time>2022-05-27T05:43:23Z</time>
      </trkpt>
      <trkpt lat="41.9532960" lon="2.7000670">
        <ele>210.0</ele>
        <time>2022-05-27T05:43:24Z</time>
      </trkpt>
      <trkpt lat="41.9532590" lon="2.7000910">
        <ele>209.6</ele>
        <time>2022-05-27T05:43:25Z</time>
      </trkpt>
      <trkpt lat="41.9532320" lon="2.7001350">
        <ele>209.0</ele>
        <time>2022-05-27T05:43:26Z</time>
      </trkpt>
      <trkpt lat="41.9532040" lon="2.7001950">
        <ele>208.4</ele>
        <time>2022-05-27T05:43:27Z</time>
      </trkpt>
      <trkpt lat="41.9531660" lon="2.7002330">
        <ele>208.0</ele>
        <time>2022-05-27T05:43:28Z</time>
      </trkpt>
      <trkpt lat="41.9531280" lon="2.7002540">
        <ele>207.8</ele>
        <time>2022-05-27T05:43:29Z</time>
      </trkpt>
      <trkpt lat="41.9530790" lon="2.7002520">
        <ele>207.8</ele>
        <time>2022-05-27T05:43:30Z</time>
      </trkpt>
      <trkpt lat="41.9530100" lon="2.7002370">
        <ele>207.8</ele>
        <time>2022-05-27T05:43:31Z</time>
      </trkpt>
      <trkpt lat="41.9529240" lon="2.7002280">
        <ele>207.8</ele>
        <time>2022-05-27T05:43:32Z</time>
      </trkpt>
      <trkpt lat="41.9528390" lon="2.7002260">
        <ele>207.6</ele>
        <time>2022-05-27T05:43:33Z</time>
      </trkpt>
      <trkpt lat="41.9527770" lon="2.7002270">
        <ele>208.0</ele>
        <time>2022-05-27T05:43:34Z</time>
      </trkpt>
      <trkpt lat="41.9527250" lon="2.7002260">
        <ele>208.4</ele>
        <time>2022-05-27T05:43:35Z</time>
      </trkpt>
      <trkpt lat="41.9526730" lon="2.7002080">
        <ele>209.2</ele>
        <time>2022-05-27T05:43:36Z</time>
      </trkpt>
      <trkpt lat="41.9526220" lon="2.7001640">
        <ele>209.8</ele>
        <time>2022-05-27T05:43:37Z</time>
      </trkpt>
      <trkpt lat="41.9525660" lon="2.7000920">
        <ele>210.2</ele>
        <time>2022-05-27T05:43:38Z</time>
      </trkpt>
      <trkpt lat="41.9525080" lon="2.7000000">
        <ele>210.4</ele>
        <time>2022-05-27T05:43:39Z</time>
      </trkpt>
      <trkpt lat="41.9524440" lon="2.6999230">
        <ele>210.8</ele>
        <time>2022-05-27T05:43:40Z</time>
      </trkpt>
      <trkpt lat="41.9523680" lon="2.6998450">
        <ele>211.6</ele>
        <time>2022-05-27T05:43:41Z</time>
      </trkpt>
      <trkpt lat="41.9522820" lon="2.6997940">
        <ele>212.8</ele>
        <time>2022-05-27T05:43:42Z</time>
      </trkpt>
      <trkpt lat="41.9521920" lon="2.6997640">
        <ele>213.8</ele>
        <time>2022-05-27T05:43:43Z</time>
      </trkpt>
      <trkpt lat="41.9520980" lon="2.6997500">
        <ele>214.8</ele>
        <time>2022-05-27T05:43:44Z</time>
      </trkpt>
      <trkpt lat="41.9519940" lon="2.6997500">
        <ele>215.6</ele>
        <time>2022-05-27T05:43:45Z</time>
      </trkpt>
      <trkpt lat="41.9518990" lon="2.6997550">
        <ele>216.4</ele>
        <time>2022-05-27T05:43:46Z</time>
      </trkpt>
      <trkpt lat="41.9518200" lon="2.6997670">
        <ele>217.4</ele>
        <time>2022-05-27T05:43:47Z</time>
      </trkpt>
      <trkpt lat="41.9517300" lon="2.6997930">
        <ele>218.4</ele>
        <time>2022-05-27T05:43:48Z</time>
      </trkpt>
      <trkpt lat="41.9516380" lon="2.6998180">
        <ele>219.4</ele>
        <time>2022-05-27T05:43:49Z</time>
      </trkpt>
      <trkpt lat="41.9515480" lon="2.6998470">
        <ele>220.4</ele>
        <time>2022-05-27T05:43:50Z</time>
      </trkpt>
      <trkpt lat="41.9514560" lon="2.6998730">
        <ele>221.4</ele>
        <time>2022-05-27T05:43:51Z</time>
      </trkpt>
      <trkpt lat="41.9513630" lon="2.6998920">
        <ele>222.4</ele>
        <time>2022-05-27T05:43:52Z</time>
      </trkpt>
      <trkpt lat="41.9512460" lon="2.6999010">
        <ele>223.6</ele>
        <time>2022-05-27T05:43:53Z</time>
      </trkpt>
      <trkpt lat="41.9511260" lon="2.6999000">
        <ele>224.6</ele>
        <time>2022-05-27T05:43:54Z</time>
      </trkpt>
      <trkpt lat="41.9510320" lon="2.6998820">
        <ele>225.6</ele>
        <time>2022-05-27T05:43:55Z</time>
      </trkpt>
      <trkpt lat="41.9509570" lon="2.6998530">
        <ele>226.4</ele>
        <time>2022-05-27T05:43:56Z</time>
      </trkpt>
      <trkpt lat="41.9508960" lon="2.6998100">
        <ele>227.4</ele>
        <time>2022-05-27T05:43:57Z</time>
      </trkpt>
      <trkpt lat="41.9508690" lon="2.6997430">
        <ele>228.2</ele>
        <time>2022-05-27T05:43:58Z</time>
      </trkpt>
      <trkpt lat="41.9508610" lon="2.6996720">
        <ele>228.8</ele>
        <time>2022-05-27T05:43:59Z</time>
      </trkpt>
      <trkpt lat="41.9508640" lon="2.6996320">
        <ele>229.6</ele>
        <time>2022-05-27T05:44:00Z</time>
      </trkpt>
      <trkpt lat="41.9508670" lon="2.6996210">
        <ele>230.2</ele>
        <time>2022-05-27T05:44:01Z</time>
      </trkpt>
      <trkpt lat="41.9508670" lon="2.6996230">
        <ele>230.8</ele>
        <time>2022-05-27T05:44:02Z</time>
      </trkpt>
      <trkpt lat="41.9508660" lon="2.6996380">
        <ele>231.6</ele>
        <time>2022-05-27T05:44:03Z</time>
      </trkpt>
      <trkpt lat="41.9508640" lon="2.6996700">
        <ele>232.0</ele>
        <time>2022-05-27T05:44:04Z</time>
      </trkpt>
      <trkpt lat="41.9508580" lon="2.6997080">
        <ele>232.6</ele>
        <time>2022-05-27T05:44:05Z</time>
      </trkpt>
      <trkpt lat="41.9508490" lon="2.6997300">
        <ele>233.2</ele>
        <time>2022-05-27T05:44:06Z</time>
      </trkpt>
      <trkpt lat="41.9508330" lon="2.6997430">
        <ele>233.8</ele>
        <time>2022-05-27T05:44:07Z</time>
      </trkpt>
      <trkpt lat="41.9508130" lon="2.6997470">
        <ele>234.2</ele>
        <time>2022-05-27T05:44:08Z</time>
      </trkpt>
      <trkpt lat="41.9507950" lon="2.6997530">
        <ele>234.8</ele>
        <time>2022-05-27T05:44:09Z</time>
      </trkpt>
      <trkpt lat="41.9507820" lon="2.6997680">
        <ele>235.0</ele>
        <time>2022-05-27T05:44:10Z</time>
      </trkpt>
      <trkpt lat="41.9507780" lon="2.6997940">
        <ele>235.4</ele>
        <time>2022-05-27T05:44:11Z</time>
      </trkpt>
      <trkpt lat="41.9507750" lon="2.6998260">
        <ele>235.8</ele>
        <time>2022-05-27T05:44:12Z</time>
      </trkpt>
      <trkpt lat="41.9507710" lon="2.6998600">
        <ele>236.2</ele>
        <time>2022-05-27T05:44:13Z</time>
      </trkpt>
      <trkpt lat="41.9507640" lon="2.6998940">
        <ele>236.6</ele>
        <time>2022-05-27T05:44:14Z</time>
      </trkpt>
      <trkpt lat="41.9507560" lon="2.6999300">
        <ele>237.0</ele>
        <time>2022-05-27T05:44:15Z</time>
      </trkpt>
      <trkpt lat="41.9507530" lon="2.6999680">
        <ele>237.4</ele>
        <time>2022-05-27T05:44:16Z</time>
      </trkpt>
      <trkpt lat="41.9507500" lon="2.7000240">
        <ele>237.8</ele>
        <time>2022-05-27T05:44:17Z</time>
      </trkpt>
      <trkpt lat="41.9507490" lon="2.7000860">
        <ele>238.2</ele>
        <time>2022-05-27T05:44:18Z</time>
      </trkpt>
      <trkpt lat="41.9507470" lon="2.7001300">
        <ele>238.6</ele>
        <time>2022-05-27T05:44:19Z</time>
      </trkpt>
      <trkpt lat="41.9507490" lon="2.7001660">
        <ele>239.0</ele>
        <time>2022-05-27T05:44:20Z</time>
      </trkpt>
      <trkpt lat="41.9507560" lon="2.7002030">
        <ele>239.4</ele>
        <time>2022-05-27T05:44:21Z</time>
      </trkpt>
      <trkpt lat="41.9507730" lon="2.7002460">
        <ele>240.0</ele>
        <time>2022-05-27T05:44:22Z</time>
      </trkpt>
      <trkpt lat="41.9507990" lon="2.7002830">
        <ele>240.4</ele>
        <time>2022-05-27T05:44:23Z</time>
      </trkpt>
      <trkpt lat="41.9508320" lon="2.7003080">
        <ele>241.0</ele>
        <time>2022-05-27T05:44:24Z</time>
      </trkpt>
      <trkpt lat="41.9508670" lon="2.7003360">
        <ele>241.6</ele>
        <time>2022-05-27T05:44:25Z</time>
      </trkpt>
      <trkpt lat="41.9509020" lon="2.7003760">
        <ele>242.0</ele>
        <time>2022-05-27T05:44:26Z</time>
      </trkpt>
      <trkpt lat="41.9509260" lon="2.7004250">
        <ele>242.6</ele>
        <time>2022-05-27T05:44:27Z</time>
      </trkpt>
      <trkpt lat="41.9509450" lon="2.7004810">
        <ele>243.2</ele>
        <time>2022-05-27T05:44:28Z</time>
      </trkpt>
      <trkpt lat="41.9509690" lon="2.7005450">
        <ele>243.6</ele>
        <time>2022-05-27T05:44:29Z</time>
      </trkpt>
      <trkpt lat="41.9509920" lon="2.7006160">
        <ele>244.2</ele>
        <time>2022-05-27T05:44:30Z</time>
      </trkpt>
      <trkpt lat="41.9510080" lon="2.7006930">
        <ele>244.6</ele>
        <time>2022-05-27T05:44:31Z</time>
      </trkpt>
      <trkpt lat="41.9510130" lon="2.7007830">
        <ele>245.0</ele>
        <time>2022-05-27T05:44:32Z</time>
      </trkpt>
      <trkpt lat="41.9510130" lon="2.7008920">
        <ele>245.6</ele>
        <time>2022-05-27T05:44:33Z</time>
      </trkpt>
      <trkpt lat="41.9510000" lon="2.7010170">
        <ele>246.0</ele>
        <time>2022-05-27T05:44:34Z</time>
      </trkpt>
      <trkpt lat="41.9509850" lon="2.7011520">
        <ele>246.0</ele>
        <time>2022-05-27T05:44:35Z</time>
      </trkpt>
      <trkpt lat="41.9509770" lon="2.7012920">
        <ele>245.8</ele>
        <time>2022-05-27T05:44:36Z</time>
      </trkpt>
      <trkpt lat="41.9509710" lon="2.7014280">
        <ele>245.6</ele>
        <time>2022-05-27T05:44:37Z</time>
      </trkpt>
      <trkpt lat="41.9509660" lon="2.7015540">
        <ele>245.4</ele>
        <time>2022-05-27T05:44:38Z</time>
      </trkpt>
      <trkpt lat="41.9509520" lon="2.7016700">
        <ele>245.2</ele>
        <time>2022-05-27T05:44:39Z</time>
      </trkpt>
      <trkpt lat="41.9509330" lon="2.7017820">
        <ele>244.8</ele>
        <time>2022-05-27T05:44:40Z</time>
      </trkpt>
      <trkpt lat="41.9509070" lon="2.7018950">
        <ele>244.2</ele>
        <time>2022-05-27T05:44:41Z</time>
      </trkpt>
      <trkpt lat="41.9508750" lon="2.7020080">
        <ele>243.6</ele>
        <time>2022-05-27T05:44:42Z</time>
      </trkpt>
      <trkpt lat="41.9508430" lon="2.7021250">
        <ele>243.0</ele>
        <time>2022-05-27T05:44:43Z</time>
      </trkpt>
      <trkpt lat="41.9508120" lon="2.7022450">
        <ele>242.2</ele>
        <time>2022-05-27T05:44:44Z</time>
      </trkpt>
      <trkpt lat="41.9507830" lon="2.7023600">
        <ele>241.6</ele>
        <time>2022-05-27T05:44:45Z</time>
      </trkpt>
      <trkpt lat="41.9507580" lon="2.7024540">
        <ele>240.8</ele>
        <time>2022-05-27T05:44:46Z</time>
      </trkpt>
      <trkpt lat="41.9507350" lon="2.7025160">
        <ele>240.2</ele>
        <time>2022-05-27T05:44:47Z</time>
      </trkpt>
      <trkpt lat="41.9507110" lon="2.7025460">
        <ele>239.8</ele>
        <time>2022-05-27T05:44:48Z</time>
      </trkpt>
      <trkpt lat="41.9506860" lon="2.7025580">
        <ele>239.4</ele>
        <time>2022-05-27T05:44:49Z</time>
      </trkpt>
      <trkpt lat="41.9506570" lon="2.7025650">
        <ele>239.2</ele>
        <time>2022-05-27T05:44:50Z</time>
      </trkpt>
      <trkpt lat="41.9506180" lon="2.7025770">
        <ele>239.0</ele>
        <time>2022-05-27T05:44:51Z</time>
      </trkpt>
      <trkpt lat="41.9505640" lon="2.7025990">
        <ele>238.8</ele>
        <time>2022-05-27T05:44:52Z</time>
      </trkpt>
      <trkpt lat="41.9505110" lon="2.7026320">
        <ele>238.6</ele>
        <time>2022-05-27T05:44:53Z</time>
      </trkpt>
      <trkpt lat="41.9504680" lon="2.7026730">
        <ele>238.4</ele>
        <time>2022-05-27T05:44:54Z</time>
      </trkpt>
      <trkpt lat="41.9504270" lon="2.7027200">
        <ele>238.2</ele>
        <time>2022-05-27T05:44:55Z</time>
      </trkpt>
      <trkpt lat="41.9504140" lon="2.7027770">
        <ele>238.2</ele>
        <time>2022-05-27T05:44:56Z</time>
      </trkpt>
      <trkpt lat="41.9504180" lon="2.7028480">
        <ele>238.2</ele>
        <time>2022-05-27T05:44:57Z</time>
      </trkpt>
      <trkpt lat="41.9504380" lon="2.7029120">
        <ele>238.4</ele>
        <time>2022-05-27T05:44:58Z</time>
      </trkpt>
      <trkpt lat="41.9504660" lon="2.7029580">
        <ele>238.8</ele>
        <time>2022-05-27T05:44:59Z</time>
      </trkpt>
      <trkpt lat="41.9505000" lon="2.7030000">
        <ele>238.6</ele>
        <time>2022-05-27T05:45:00Z</time>
      </trkpt>
      <trkpt lat="41.9505290" lon="2.7030500">
        <ele>238.6</ele>
        <time>2022-05-27T05:45:01Z</time>
      </trkpt>
      <trkpt lat="41.9505290" lon="2.7030500">
        <ele>238.4</ele>
        <time>2022-05-27T05:45:02Z</time>
      </trkpt>
      <trkpt lat="41.9505830" lon="2.7031580">
        <ele>238.4</ele>
        <time>2022-05-27T05:45:03Z</time>
      </trkpt>
      <trkpt lat="41.9505910" lon="2.7032150">
        <ele>238.2</ele>
        <time>2022-05-27T05:45:04Z</time>
      </trkpt>
      <trkpt lat="41.9505930" lon="2.7032670">
        <ele>238.2</ele>
        <time>2022-05-27T05:45:05Z</time>
      </trkpt>
      <trkpt lat="41.9505920" lon="2.7033310">
        <ele>238.0</ele>
        <time>2022-05-27T05:45:06Z</time>
      </trkpt>
      <trkpt lat="41.9505900" lon="2.7034030">
        <ele>238.0</ele>
        <time>2022-05-27T05:45:07Z</time>
      </trkpt>
      <trkpt lat="41.9505840" lon="2.7034710">
        <ele>238.0</ele>
        <time>2022-05-27T05:45:08Z</time>
      </trkpt>
      <trkpt lat="41.9505780" lon="2.7035410">
        <ele>237.8</ele>
        <time>2022-05-27T05:45:09Z</time>
      </trkpt>
      <trkpt lat="41.9505720" lon="2.7036160">
        <ele>237.4</ele>
        <time>2022-05-27T05:45:10Z</time>
      </trkpt>
      <trkpt lat="41.9505640" lon="2.7036930">
        <ele>237.0</ele>
        <time>2022-05-27T05:45:11Z</time>
      </trkpt>
      <trkpt lat="41.9505500" lon="2.7037650">
        <ele>237.0</ele>
        <time>2022-05-27T05:45:12Z</time>
      </trkpt>
      <trkpt lat="41.9505350" lon="2.7038540">
        <ele>236.6</ele>
        <time>2022-05-27T05:45:13Z</time>
      </trkpt>
      <trkpt lat="41.9505220" lon="2.7039590">
        <ele>236.4</ele>
        <time>2022-05-27T05:45:14Z</time>
      </trkpt>
      <trkpt lat="41.9505160" lon="2.7040630">
        <ele>236.2</ele>
        <time>2022-05-27T05:45:15Z</time>
      </trkpt>
      <trkpt lat="41.9505140" lon="2.7041630">
        <ele>236.2</ele>
        <time>2022-05-27T05:45:16Z</time>
      </trkpt>
      <trkpt lat="41.9505140" lon="2.7042630">
        <ele>236.4</ele>
        <time>2022-05-27T05:45:17Z</time>
      </trkpt>
      <trkpt lat="41.9505160" lon="2.7043530">
        <ele>236.4</ele>
        <time>2022-05-27T05:45:18Z</time>
      </trkpt>
      <trkpt lat="41.9505170" lon="2.7044310">
        <ele>236.8</ele>
        <time>2022-05-27T05:45:19Z</time>
      </trkpt>
      <trkpt lat="41.9505160" lon="2.7045030">
        <ele>237.4</ele>
        <time>2022-05-27T05:45:20Z</time>
      </trkpt>
      <trkpt lat="41.9505110" lon="2.7045760">
        <ele>238.0</ele>
        <time>2022-05-27T05:45:21Z</time>
      </trkpt>
      <trkpt lat="41.9505040" lon="2.7046530">
        <ele>238.8</ele>
        <time>2022-05-27T05:45:22Z</time>
      </trkpt>
      <trkpt lat="41.9504940" lon="2.7047290">
        <ele>239.4</ele>
        <time>2022-05-27T05:45:23Z</time>
      </trkpt>
      <trkpt lat="41.9504860" lon="2.7048200">
        <ele>240.4</ele>
        <time>2022-05-27T05:45:24Z</time>
      </trkpt>
      <trkpt lat="41.9504820" lon="2.7049350">
        <ele>241.2</ele>
        <time>2022-05-27T05:45:25Z</time>
      </trkpt>
      <trkpt lat="41.9504790" lon="2.7050530">
        <ele>242.2</ele>
        <time>2022-05-27T05:45:26Z</time>
      </trkpt>
      <trkpt lat="41.9504740" lon="2.7051650">
        <ele>243.2</ele>
        <time>2022-05-27T05:45:27Z</time>
      </trkpt>
      <trkpt lat="41.9504630" lon="2.7052940">
        <ele>244.2</ele>
        <time>2022-05-27T05:45:28Z</time>
      </trkpt>
      <trkpt lat="41.9504530" lon="2.7054150">
        <ele>245.0</ele>
        <time>2022-05-27T05:45:29Z</time>
      </trkpt>
      <trkpt lat="41.9504460" lon="2.7055150">
        <ele>245.6</ele>
        <time>2022-05-27T05:45:30Z</time>
      </trkpt>
      <trkpt lat="41.9504410" lon="2.7056170">
        <ele>246.0</ele>
        <time>2022-05-27T05:45:31Z</time>
      </trkpt>
      <trkpt lat="41.9504360" lon="2.7057280">
        <ele>246.0</ele>
        <time>2022-05-27T05:45:32Z</time>
      </trkpt>
      <trkpt lat="41.9504350" lon="2.7058430">
        <ele>246.2</ele>
        <time>2022-05-27T05:45:33Z</time>
      </trkpt>
      <trkpt lat="41.9504390" lon="2.7059590">
        <ele>246.2</ele>
        <time>2022-05-27T05:45:34Z</time>
      </trkpt>
      <trkpt lat="41.9504510" lon="2.7060760">
        <ele>246.2</ele>
        <time>2022-05-27T05:45:35Z</time>
      </trkpt>
      <trkpt lat="41.9504670" lon="2.7061930">
        <ele>246.2</ele>
        <time>2022-05-27T05:45:36Z</time>
      </trkpt>
      <trkpt lat="41.9504870" lon="2.7063010">
        <ele>246.2</ele>
        <time>2022-05-27T05:45:37Z</time>
      </trkpt>
      <trkpt lat="41.9505000" lon="2.7063920">
        <ele>246.2</ele>
        <time>2022-05-27T05:45:38Z</time>
      </trkpt>
      <trkpt lat="41.9505160" lon="2.7064710">
        <ele>246.0</ele>
        <time>2022-05-27T05:45:39Z</time>
      </trkpt>
      <trkpt lat="41.9505290" lon="2.7065380">
        <ele>246.0</ele>
        <time>2022-05-27T05:45:40Z</time>
      </trkpt>
      <trkpt lat="41.9505360" lon="2.7065920">
        <ele>246.0</ele>
        <time>2022-05-27T05:45:41Z</time>
      </trkpt>
      <trkpt lat="41.9505360" lon="2.7066500">
        <ele>246.2</ele>
        <time>2022-05-27T05:45:42Z</time>
      </trkpt>
      <trkpt lat="41.9505350" lon="2.7067240">
        <ele>246.4</ele>
        <time>2022-05-27T05:45:43Z</time>
      </trkpt>
      <trkpt lat="41.9505300" lon="2.7068190">
        <ele>246.6</ele>
        <time>2022-05-27T05:45:44Z</time>
      </trkpt>
      <trkpt lat="41.9505270" lon="2.7069160">
        <ele>246.6</ele>
        <time>2022-05-27T05:45:45Z</time>
      </trkpt>
      <trkpt lat="41.9505250" lon="2.7070030">
        <ele>246.6</ele>
        <time>2022-05-27T05:45:46Z</time>
      </trkpt>
      <trkpt lat="41.9505170" lon="2.7071020">
        <ele>247.2</ele>
        <time>2022-05-27T05:45:47Z</time>
      </trkpt>
      <trkpt lat="41.9505100" lon="2.7072200">
        <ele>247.6</ele>
        <time>2022-05-27T05:45:48Z</time>
      </trkpt>
      <trkpt lat="41.9504930" lon="2.7073620">
        <ele>248.0</ele>
        <time>2022-05-27T05:45:49Z</time>
      </trkpt>
      <trkpt lat="41.9504670" lon="2.7075020">
        <ele>248.4</ele>
        <time>2022-05-27T05:45:50Z</time>
      </trkpt>
      <trkpt lat="41.9504360" lon="2.7076260">
        <ele>248.4</ele>
        <time>2022-05-27T05:45:51Z</time>
      </trkpt>
      <trkpt lat="41.9504030" lon="2.7077560">
        <ele>248.8</ele>
        <time>2022-05-27T05:45:52Z</time>
      </trkpt>
      <trkpt lat="41.9503730" lon="2.7078900">
        <ele>249.2</ele>
        <time>2022-05-27T05:45:53Z</time>
      </trkpt>
      <trkpt lat="41.9503490" lon="2.7080190">
        <ele>249.8</ele>
        <time>2022-05-27T05:45:54Z</time>
      </trkpt>
      <trkpt lat="41.9503290" lon="2.7081430">
        <ele>250.4</ele>
        <time>2022-05-27T05:45:55Z</time>
      </trkpt>
      <trkpt lat="41.9503130" lon="2.7082630">
        <ele>251.0</ele>
        <time>2022-05-27T05:45:56Z</time>
      </trkpt>
      <trkpt lat="41.9502960" lon="2.7083830">
        <ele>251.8</ele>
        <time>2022-05-27T05:45:57Z</time>
      </trkpt>
      <trkpt lat="41.9502790" lon="2.7085040">
        <ele>252.6</ele>
        <time>2022-05-27T05:45:58Z</time>
      </trkpt>
      <trkpt lat="41.9502700" lon="2.7086180">
        <ele>253.6</ele>
        <time>2022-05-27T05:45:59Z</time>
      </trkpt>
      <trkpt lat="41.9502630" lon="2.7087240">
        <ele>254.4</ele>
        <time>2022-05-27T05:46:00Z</time>
      </trkpt>
      <trkpt lat="41.9502440" lon="2.7088280">
        <ele>255.4</ele>
        <time>2022-05-27T05:46:01Z</time>
      </trkpt>
      <trkpt lat="41.9502200" lon="2.7089390">
        <ele>256.2</ele>
        <time>2022-05-27T05:46:02Z</time>
      </trkpt>
      <trkpt lat="41.9501960" lon="2.7090600">
        <ele>257.0</ele>
        <time>2022-05-27T05:46:03Z</time>
      </trkpt>
      <trkpt lat="41.9501760" lon="2.7091820">
        <ele>257.4</ele>
        <time>2022-05-27T05:46:04Z</time>
      </trkpt>
      <trkpt lat="41.9501560" lon="2.7092980">
        <ele>257.8</ele>
        <time>2022-05-27T05:46:05Z</time>
      </trkpt>
      <trkpt lat="41.9501430" lon="2.7094000">
        <ele>258.0</ele>
        <time>2022-05-27T05:46:06Z</time>
      </trkpt>
      <trkpt lat="41.9501400" lon="2.7094850">
        <ele>258.2</ele>
        <time>2022-05-27T05:46:07Z</time>
      </trkpt>
      <trkpt lat="41.9501500" lon="2.7095590">
        <ele>258.4</ele>
        <time>2022-05-27T05:46:08Z</time>
      </trkpt>
      <trkpt lat="41.9501630" lon="2.7096250">
        <ele>258.8</ele>
        <time>2022-05-27T05:46:09Z</time>
      </trkpt>
      <trkpt lat="41.9501800" lon="2.7096920">
        <ele>259.0</ele>
        <time>2022-05-27T05:46:10Z</time>
      </trkpt>
      <trkpt lat="41.9501970" lon="2.7097650">
        <ele>259.0</ele>
        <time>2022-05-27T05:46:11Z</time>
      </trkpt>
      <trkpt lat="41.9502190" lon="2.7098440">
        <ele>260.0</ele>
        <time>2022-05-27T05:46:12Z</time>
      </trkpt>
      <trkpt lat="41.9502370" lon="2.7099270">
        <ele>260.0</ele>
        <time>2022-05-27T05:46:13Z</time>
      </trkpt>
      <trkpt lat="41.9502570" lon="2.7100180">
        <ele>260.0</ele>
        <time>2022-05-27T05:46:14Z</time>
      </trkpt>
      <trkpt lat="41.9502810" lon="2.7101090">
        <ele>260.2</ele>
        <time>2022-05-27T05:46:15Z</time>
      </trkpt>
      <trkpt lat="41.9503070" lon="2.7101950">
        <ele>260.0</ele>
        <time>2022-05-27T05:46:16Z</time>
      </trkpt>
      <trkpt lat="41.9503250" lon="2.7102720">
        <ele>259.8</ele>
        <time>2022-05-27T05:46:17Z</time>
      </trkpt>
      <trkpt lat="41.9503270" lon="2.7103410">
        <ele>260.0</ele>
        <time>2022-05-27T05:46:18Z</time>
      </trkpt>
      <trkpt lat="41.9503230" lon="2.7104020">
        <ele>260.0</ele>
        <time>2022-05-27T05:46:19Z</time>
      </trkpt>
      <trkpt lat="41.9502940" lon="2.7104600">
        <ele>259.8</ele>
        <time>2022-05-27T05:46:20Z</time>
      </trkpt>
      <trkpt lat="41.9502470" lon="2.7105230">
        <ele>259.6</ele>
        <time>2022-05-27T05:46:21Z</time>
      </trkpt>
      <trkpt lat="41.9501940" lon="2.7105940">
        <ele>259.2</ele>
        <time>2022-05-27T05:46:22Z</time>
      </trkpt>
      <trkpt lat="41.9501630" lon="2.7106630">
        <ele>258.8</ele>
        <time>2022-05-27T05:46:23Z</time>
      </trkpt>
      <trkpt lat="41.9501370" lon="2.7107270">
        <ele>258.4</ele>
        <time>2022-05-27T05:46:24Z</time>
      </trkpt>
      <trkpt lat="41.9501240" lon="2.7107900">
        <ele>258.0</ele>
        <time>2022-05-27T05:46:25Z</time>
      </trkpt>
      <trkpt lat="41.9501080" lon="2.7108590">
        <ele>257.6</ele>
        <time>2022-05-27T05:46:26Z</time>
      </trkpt>
      <trkpt lat="41.9500850" lon="2.7109330">
        <ele>257.2</ele>
        <time>2022-05-27T05:46:27Z</time>
      </trkpt>
      <trkpt lat="41.9500560" lon="2.7110100">
        <ele>256.8</ele>
        <time>2022-05-27T05:46:28Z</time>
      </trkpt>
      <trkpt lat="41.9500280" lon="2.7110910">
        <ele>256.2</ele>
        <time>2022-05-27T05:46:29Z</time>
      </trkpt>
      <trkpt lat="41.9500060" lon="2.7111750">
        <ele>255.8</ele>
        <time>2022-05-27T05:46:30Z</time>
      </trkpt>
      <trkpt lat="41.9499990" lon="2.7112590">
        <ele>255.2</ele>
        <time>2022-05-27T05:46:31Z</time>
      </trkpt>
      <trkpt lat="41.9500090" lon="2.7113380">
        <ele>254.6</ele>
        <time>2022-05-27T05:46:32Z</time>
      </trkpt>
      <trkpt lat="41.9500460" lon="2.7114110">
        <ele>253.8</ele>
        <time>2022-05-27T05:46:33Z</time>
      </trkpt>
      <trkpt lat="41.9500950" lon="2.7114820">
        <ele>253.4</ele>
        <time>2022-05-27T05:46:34Z</time>
      </trkpt>
      <trkpt lat="41.9501420" lon="2.7115550">
        <ele>252.8</ele>
        <time>2022-05-27T05:46:35Z</time>
      </trkpt>
      <trkpt lat="41.9501730" lon="2.7116290">
        <ele>252.4</ele>
        <time>2022-05-27T05:46:36Z</time>
      </trkpt>
      <trkpt lat="41.9502050" lon="2.7117080">
        <ele>251.8</ele>
        <time>2022-05-27T05:46:37Z</time>
      </trkpt>
      <trkpt lat="41.9502280" lon="2.7117970">
        <ele>251.2</ele>
        <time>2022-05-27T05:46:38Z</time>
      </trkpt>
      <trkpt lat="41.9502510" lon="2.7118890">
        <ele>250.6</ele>
        <time>2022-05-27T05:46:39Z</time>
      </trkpt>
      <trkpt lat="41.9502680" lon="2.7119830">
        <ele>250.2</ele>
        <time>2022-05-27T05:46:40Z</time>
      </trkpt>
      <trkpt lat="41.9502770" lon="2.7120810">
        <ele>249.4</ele>
        <time>2022-05-27T05:46:41Z</time>
      </trkpt>
      <trkpt lat="41.9502800" lon="2.7121840">
        <ele>248.6</ele>
        <time>2022-05-27T05:46:42Z</time>
      </trkpt>
      <trkpt lat="41.9502870" lon="2.7122840">
        <ele>248.2</ele>
        <time>2022-05-27T05:46:43Z</time>
      </trkpt>
      <trkpt lat="41.9503030" lon="2.7123780">
        <ele>247.6</ele>
        <time>2022-05-27T05:46:44Z</time>
      </trkpt>
      <trkpt lat="41.9503270" lon="2.7124700">
        <ele>246.8</ele>
        <time>2022-05-27T05:46:45Z</time>
      </trkpt>
      <trkpt lat="41.9503500" lon="2.7125680">
        <ele>246.2</ele>
        <time>2022-05-27T05:46:46Z</time>
      </trkpt>
      <trkpt lat="41.9503650" lon="2.7126680">
        <ele>245.6</ele>
        <time>2022-05-27T05:46:47Z</time>
      </trkpt>
      <trkpt lat="41.9503660" lon="2.7127660">
        <ele>245.2</ele>
        <time>2022-05-27T05:46:48Z</time>
      </trkpt>
      <trkpt lat="41.9503620" lon="2.7128610">
        <ele>244.6</ele>
        <time>2022-05-27T05:46:49Z</time>
      </trkpt>
      <trkpt lat="41.9503390" lon="2.7129340">
        <ele>244.0</ele>
        <time>2022-05-27T05:46:50Z</time>
      </trkpt>
      <trkpt lat="41.9503000" lon="2.7129860">
        <ele>243.6</ele>
        <time>2022-05-27T05:46:51Z</time>
      </trkpt>
      <trkpt lat="41.9502530" lon="2.7130300">
        <ele>243.0</ele>
        <time>2022-05-27T05:46:52Z</time>
      </trkpt>
      <trkpt lat="41.9502120" lon="2.7130800">
        <ele>242.6</ele>
        <time>2022-05-27T05:46:53Z</time>
      </trkpt>
      <trkpt lat="41.9501720" lon="2.7131420">
        <ele>242.2</ele>
        <time>2022-05-27T05:46:54Z</time>
      </trkpt>
      <trkpt lat="41.9501400" lon="2.7132120">
        <ele>242.0</ele>
        <time>2022-05-27T05:46:55Z</time>
      </trkpt>
      <trkpt lat="41.9501190" lon="2.7132840">
        <ele>241.8</ele>
        <time>2022-05-27T05:46:56Z</time>
      </trkpt>
      <trkpt lat="41.9501080" lon="2.7133510">
        <ele>241.6</ele>
        <time>2022-05-27T05:46:57Z</time>
      </trkpt>
      <trkpt lat="41.9501000" lon="2.7134260">
        <ele>241.6</ele>
        <time>2022-05-27T05:46:58Z</time>
      </trkpt>
      <trkpt lat="41.9501060" lon="2.7135160">
        <ele>241.6</ele>
        <time>2022-05-27T05:46:59Z</time>
      </trkpt>
      <trkpt lat="41.9501290" lon="2.7136000">
        <ele>241.6</ele>
        <time>2022-05-27T05:47:00Z</time>
      </trkpt>
      <trkpt lat="41.9501720" lon="2.7136710">
        <ele>241.8</ele>
        <time>2022-05-27T05:47:01Z</time>
      </trkpt>
      <trkpt lat="41.9502270" lon="2.7137340">
        <ele>242.2</ele>
        <time>2022-05-27T05:47:02Z</time>
      </trkpt>
      <trkpt lat="41.9502780" lon="2.7137900">
        <ele>242.4</ele>
        <time>2022-05-27T05:47:03Z</time>
      </trkpt>
      <trkpt lat="41.9503350" lon="2.7138410">
        <ele>242.4</ele>
        <time>2022-05-27T05:47:04Z</time>
      </trkpt>
      <trkpt lat="41.9503810" lon="2.7138820">
        <ele>242.4</ele>
        <time>2022-05-27T05:47:05Z</time>
      </trkpt>
      <trkpt lat="41.9504150" lon="2.7138970">
        <ele>242.4</ele>
        <time>2022-05-27T05:47:06Z</time>
      </trkpt>
      <trkpt lat="41.9504360" lon="2.7138970">
        <ele>242.4</ele>
        <time>2022-05-27T05:47:07Z</time>
      </trkpt>
      <trkpt lat="41.9504600" lon="2.7138820">
        <ele>242.2</ele>
        <time>2022-05-27T05:47:08Z</time>
      </trkpt>
      <trkpt lat="41.9504900" lon="2.7138620">
        <ele>241.8</ele>
        <time>2022-05-27T05:47:09Z</time>
      </trkpt>
      <trkpt lat="41.9505030" lon="2.7138420">
        <ele>241.4</ele>
        <time>2022-05-27T05:47:10Z</time>
      </trkpt>
      <trkpt lat="41.9505070" lon="2.7138170">
        <ele>241.0</ele>
        <time>2022-05-27T05:47:11Z</time>
      </trkpt>
      <trkpt lat="41.9505140" lon="2.7137880">
        <ele>240.4</ele>
        <time>2022-05-27T05:47:12Z</time>
      </trkpt>
      <trkpt lat="41.9505280" lon="2.7137560">
        <ele>239.8</ele>
        <time>2022-05-27T05:47:13Z</time>
      </trkpt>
      <trkpt lat="41.9505470" lon="2.7137410">
        <ele>239.4</ele>
        <time>2022-05-27T05:47:14Z</time>
      </trkpt>
      <trkpt lat="41.9505690" lon="2.7137350">
        <ele>238.8</ele>
        <time>2022-05-27T05:47:15Z</time>
      </trkpt>
      <trkpt lat="41.9505910" lon="2.7137500">
        <ele>238.6</ele>
        <time>2022-05-27T05:47:16Z</time>
      </trkpt>
      <trkpt lat="41.9506160" lon="2.7137800">
        <ele>238.2</ele>
        <time>2022-05-27T05:47:17Z</time>
      </trkpt>
      <trkpt lat="41.9506370" lon="2.7138160">
        <ele>238.0</ele>
        <time>2022-05-27T05:47:18Z</time>
      </trkpt>
      <trkpt lat="41.9506510" lon="2.7138510">
        <ele>237.8</ele>
        <time>2022-05-27T05:47:19Z</time>
      </trkpt>
      <trkpt lat="41.9506650" lon="2.7138920">
        <ele>237.6</ele>
        <time>2022-05-27T05:47:20Z</time>
      </trkpt>
      <trkpt lat="41.9506900" lon="2.7139360">
        <ele>237.4</ele>
        <time>2022-05-27T05:47:21Z</time>
      </trkpt>
      <trkpt lat="41.9507110" lon="2.7139730">
        <ele>237.2</ele>
        <time>2022-05-27T05:47:22Z</time>
      </trkpt>
      <trkpt lat="41.9507310" lon="2.7140030">
        <ele>237.0</ele>
        <time>2022-05-27T05:47:23Z</time>
      </trkpt>
      <trkpt lat="41.9507590" lon="2.7140270">
        <ele>237.0</ele>
        <time>2022-05-27T05:47:24Z</time>
      </trkpt>
      <trkpt lat="41.9507930" lon="2.7140570">
        <ele>237.0</ele>
        <time>2022-05-27T05:47:25Z</time>
      </trkpt>
      <trkpt lat="41.9508230" lon="2.7140990">
        <ele>237.2</ele>
        <time>2022-05-27T05:47:26Z</time>
      </trkpt>
      <trkpt lat="41.9508500" lon="2.7141480">
        <ele>237.2</ele>
        <time>2022-05-27T05:47:27Z</time>
      </trkpt>
      <trkpt lat="41.9508760" lon="2.7141970">
        <ele>237.2</ele>
        <time>2022-05-27T05:47:28Z</time>
      </trkpt>
      <trkpt lat="41.9508950" lon="2.7142410">
        <ele>237.4</ele>
        <time>2022-05-27T05:47:29Z</time>
      </trkpt>
      <trkpt lat="41.9509060" lon="2.7142900">
        <ele>237.4</ele>
        <time>2022-05-27T05:47:30Z</time>
      </trkpt>
      <trkpt lat="41.9509130" lon="2.7143370">
        <ele>237.4</ele>
        <time>2022-05-27T05:47:31Z</time>
      </trkpt>
      <trkpt lat="41.9509140" lon="2.7143980">
        <ele>237.4</ele>
        <time>2022-05-27T05:47:32Z</time>
      </trkpt>
      <trkpt lat="41.9509130" lon="2.7144610">
        <ele>237.2</ele>
        <time>2022-05-27T05:47:33Z</time>
      </trkpt>
      <trkpt lat="41.9509110" lon="2.7145290">
        <ele>237.2</ele>
        <time>2022-05-27T05:47:34Z</time>
      </trkpt>
      <trkpt lat="41.9509140" lon="2.7145900">
        <ele>237.0</ele>
        <time>2022-05-27T05:47:35Z</time>
      </trkpt>
      <trkpt lat="41.9509220" lon="2.7146320">
        <ele>236.8</ele>
        <time>2022-05-27T05:47:36Z</time>
      </trkpt>
      <trkpt lat="41.9509350" lon="2.7146600">
        <ele>236.6</ele>
        <time>2022-05-27T05:47:37Z</time>
      </trkpt>
      <trkpt lat="41.9509500" lon="2.7146930">
        <ele>236.4</ele>
        <time>2022-05-27T05:47:38Z</time>
      </trkpt>
      <trkpt lat="41.9509550" lon="2.7147480">
        <ele>236.2</ele>
        <time>2022-05-27T05:47:39Z</time>
      </trkpt>
      <trkpt lat="41.9509570" lon="2.7148140">
        <ele>236.0</ele>
        <time>2022-05-27T05:47:40Z</time>
      </trkpt>
      <trkpt lat="41.9509480" lon="2.7148880">
        <ele>235.6</ele>
        <time>2022-05-27T05:47:41Z</time>
      </trkpt>
      <trkpt lat="41.9509110" lon="2.7149650">
        <ele>235.2</ele>
        <time>2022-05-27T05:47:42Z</time>
      </trkpt>
      <trkpt lat="41.9508880" lon="2.7150420">
        <ele>234.8</ele>
        <time>2022-05-27T05:47:43Z</time>
      </trkpt>
      <trkpt lat="41.9508820" lon="2.7150990">
        <ele>234.4</ele>
        <time>2022-05-27T05:47:44Z</time>
      </trkpt>
      <trkpt lat="41.9508960" lon="2.7151390">
        <ele>234.0</ele>
        <time>2022-05-27T05:47:45Z</time>
      </trkpt>
      <trkpt lat="41.9509300" lon="2.7151740">
        <ele>233.6</ele>
        <time>2022-05-27T05:47:46Z</time>
      </trkpt>
      <trkpt lat="41.9509610" lon="2.7152080">
        <ele>233.0</ele>
        <time>2022-05-27T05:47:47Z</time>
      </trkpt>
      <trkpt lat="41.9509900" lon="2.7152440">
        <ele>232.6</ele>
        <time>2022-05-27T05:47:48Z</time>
      </trkpt>
      <trkpt lat="41.9510230" lon="2.7152800">
        <ele>232.0</ele>
        <time>2022-05-27T05:47:49Z</time>
      </trkpt>
      <trkpt lat="41.9510430" lon="2.7153160">
        <ele>231.4</ele>
        <time>2022-05-27T05:47:50Z</time>
      </trkpt>
      <trkpt lat="41.9510450" lon="2.7153550">
        <ele>231.0</ele>
        <time>2022-05-27T05:47:51Z</time>
      </trkpt>
      <trkpt lat="41.9510520" lon="2.7153860">
        <ele>230.4</ele>
        <time>2022-05-27T05:47:52Z</time>
      </trkpt>
      <trkpt lat="41.9510680" lon="2.7154070">
        <ele>229.8</ele>
        <time>2022-05-27T05:47:53Z</time>
      </trkpt>
      <trkpt lat="41.9510960" lon="2.7154240">
        <ele>229.4</ele>
        <time>2022-05-27T05:47:54Z</time>
      </trkpt>
      <trkpt lat="41.9511380" lon="2.7154420">
        <ele>229.0</ele>
        <time>2022-05-27T05:47:55Z</time>
      </trkpt>
      <trkpt lat="41.9511820" lon="2.7154470">
        <ele>228.8</ele>
        <time>2022-05-27T05:47:56Z</time>
      </trkpt>
      <trkpt lat="41.9512260" lon="2.7154490">
        <ele>228.6</ele>
        <time>2022-05-27T05:47:57Z</time>
      </trkpt>
      <trkpt lat="41.9512710" lon="2.7154620">
        <ele>228.6</ele>
        <time>2022-05-27T05:47:58Z</time>
      </trkpt>
      <trkpt lat="41.9513240" lon="2.7154840">
        <ele>228.6</ele>
        <time>2022-05-27T05:47:59Z</time>
      </trkpt>
      <trkpt lat="41.9513860" lon="2.7155110">
        <ele>228.8</ele>
        <time>2022-05-27T05:48:00Z</time>
      </trkpt>
      <trkpt lat="41.9514560" lon="2.7155510">
        <ele>228.8</ele>
        <time>2022-05-27T05:48:01Z</time>
      </trkpt>
      <trkpt lat="41.9515380" lon="2.7156000">
        <ele>229.0</ele>
        <time>2022-05-27T05:48:02Z</time>
      </trkpt>
      <trkpt lat="41.9516280" lon="2.7156490">
        <ele>229.0</ele>
        <time>2022-05-27T05:48:03Z</time>
      </trkpt>
      <trkpt lat="41.9517050" lon="2.7156990">
        <ele>229.2</ele>
        <time>2022-05-27T05:48:04Z</time>
      </trkpt>
      <trkpt lat="41.9517550" lon="2.7157610">
        <ele>229.4</ele>
        <time>2022-05-27T05:48:05Z</time>
      </trkpt>
      <trkpt lat="41.9517650" lon="2.7158430">
        <ele>229.6</ele>
        <time>2022-05-27T05:48:06Z</time>
      </trkpt>
      <trkpt lat="41.9517550" lon="2.7159440">
        <ele>230.0</ele>
        <time>2022-05-27T05:48:07Z</time>
      </trkpt>
      <trkpt lat="41.9517250" lon="2.7160470">
        <ele>230.8</ele>
        <time>2022-05-27T05:48:08Z</time>
      </trkpt>
      <trkpt lat="41.9516990" lon="2.7161510">
        <ele>231.0</ele>
        <time>2022-05-27T05:48:09Z</time>
      </trkpt>
      <trkpt lat="41.9516780" lon="2.7162550">
        <ele>231.4</ele>
        <time>2022-05-27T05:48:10Z</time>
      </trkpt>
      <trkpt lat="41.9516800" lon="2.7163500">
        <ele>231.8</ele>
        <time>2022-05-27T05:48:11Z</time>
      </trkpt>
      <trkpt lat="41.9516950" lon="2.7164330">
        <ele>232.2</ele>
        <time>2022-05-27T05:48:12Z</time>
      </trkpt>
      <trkpt lat="41.9517210" lon="2.7165070">
        <ele>232.6</ele>
        <time>2022-05-27T05:48:13Z</time>
      </trkpt>
      <trkpt lat="41.9517400" lon="2.7165700">
        <ele>232.8</ele>
        <time>2022-05-27T05:48:14Z</time>
      </trkpt>
      <trkpt lat="41.9517550" lon="2.7166200">
        <ele>233.0</ele>
        <time>2022-05-27T05:48:15Z</time>
      </trkpt>
      <trkpt lat="41.9517660" lon="2.7166630">
        <ele>233.4</ele>
        <time>2022-05-27T05:48:16Z</time>
      </trkpt>
      <trkpt lat="41.9517790" lon="2.7167110">
        <ele>233.6</ele>
        <time>2022-05-27T05:48:17Z</time>
      </trkpt>
      <trkpt lat="41.9517940" lon="2.7167670">
        <ele>233.8</ele>
        <time>2022-05-27T05:48:18Z</time>
      </trkpt>
      <trkpt lat="41.9518100" lon="2.7168110">
        <ele>233.8</ele>
        <time>2022-05-27T05:48:19Z</time>
      </trkpt>
      <trkpt lat="41.9518230" lon="2.7168520">
        <ele>234.0</ele>
        <time>2022-05-27T05:48:20Z</time>
      </trkpt>
      <trkpt lat="41.9518260" lon="2.7168950">
        <ele>234.2</ele>
        <time>2022-05-27T05:48:21Z</time>
      </trkpt>
      <trkpt lat="41.9518250" lon="2.7169440">
        <ele>234.4</ele>
        <time>2022-05-27T05:48:22Z</time>
      </trkpt>
      <trkpt lat="41.9518130" lon="2.7170070">
        <ele>234.4</ele>
        <time>2022-05-27T05:48:23Z</time>
      </trkpt>
      <trkpt lat="41.9517970" lon="2.7170880">
        <ele>234.4</ele>
        <time>2022-05-27T05:48:24Z</time>
      </trkpt>
      <trkpt lat="41.9517840" lon="2.7171700">
        <ele>234.4</ele>
        <time>2022-05-27T05:48:25Z</time>
      </trkpt>
      <trkpt lat="41.9517770" lon="2.7172450">
        <ele>234.2</ele>
        <time>2022-05-27T05:48:26Z</time>
      </trkpt>
      <trkpt lat="41.9517740" lon="2.7173190">
        <ele>234.0</ele>
        <time>2022-05-27T05:48:27Z</time>
      </trkpt>
      <trkpt lat="41.9517740" lon="2.7173930">
        <ele>234.0</ele>
        <time>2022-05-27T05:48:28Z</time>
      </trkpt>
      <trkpt lat="41.9517810" lon="2.7174600">
        <ele>233.6</ele>
        <time>2022-05-27T05:48:29Z</time>
      </trkpt>
      <trkpt lat="41.9517910" lon="2.7175320">
        <ele>233.2</ele>
        <time>2022-05-27T05:48:30Z</time>
      </trkpt>
      <trkpt lat="41.9517900" lon="2.7175990">
        <ele>233.0</ele>
        <time>2022-05-27T05:48:31Z</time>
      </trkpt>
      <trkpt lat="41.9517890" lon="2.7176590">
        <ele>232.6</ele>
        <time>2022-05-27T05:48:32Z</time>
      </trkpt>
      <trkpt lat="41.9517870" lon="2.7177050">
        <ele>232.2</ele>
        <time>2022-05-27T05:48:33Z</time>
      </trkpt>
      <trkpt lat="41.9517840" lon="2.7177480">
        <ele>231.8</ele>
        <time>2022-05-27T05:48:34Z</time>
      </trkpt>
      <trkpt lat="41.9517760" lon="2.7177880">
        <ele>231.4</ele>
        <time>2022-05-27T05:48:35Z</time>
      </trkpt>
      <trkpt lat="41.9517570" lon="2.7178340">
        <ele>231.0</ele>
        <time>2022-05-27T05:48:36Z</time>
      </trkpt>
      <trkpt lat="41.9517410" lon="2.7178900">
        <ele>230.6</ele>
        <time>2022-05-27T05:48:37Z</time>
      </trkpt>
      <trkpt lat="41.9517360" lon="2.7179470">
        <ele>230.2</ele>
        <time>2022-05-27T05:48:38Z</time>
      </trkpt>
      <trkpt lat="41.9517360" lon="2.7179990">
        <ele>229.8</ele>
        <time>2022-05-27T05:48:39Z</time>
      </trkpt>
      <trkpt lat="41.9517370" lon="2.7180420">
        <ele>229.4</ele>
        <time>2022-05-27T05:48:40Z</time>
      </trkpt>
      <trkpt lat="41.9517320" lon="2.7180810">
        <ele>229.0</ele>
        <time>2022-05-27T05:48:41Z</time>
      </trkpt>
      <trkpt lat="41.9517260" lon="2.7181230">
        <ele>228.6</ele>
        <time>2022-05-27T05:48:42Z</time>
      </trkpt>
      <trkpt lat="41.9517160" lon="2.7181660">
        <ele>228.2</ele>
        <time>2022-05-27T05:48:43Z</time>
      </trkpt>
      <trkpt lat="41.9517070" lon="2.7182050">
        <ele>227.8</ele>
        <time>2022-05-27T05:48:44Z</time>
      </trkpt>
      <trkpt lat="41.9517010" lon="2.7182430">
        <ele>227.4</ele>
        <time>2022-05-27T05:48:45Z</time>
      </trkpt>
      <trkpt lat="41.9516870" lon="2.7182860">
        <ele>226.8</ele>
        <time>2022-05-27T05:48:46Z</time>
      </trkpt>
      <trkpt lat="41.9516740" lon="2.7183330">
        <ele>226.4</ele>
        <time>2022-05-27T05:48:47Z</time>
      </trkpt>
      <trkpt lat="41.9516590" lon="2.7183760">
        <ele>226.0</ele>
        <time>2022-05-27T05:48:48Z</time>
      </trkpt>
      <trkpt lat="41.9516480" lon="2.7184090">
        <ele>225.4</ele>
        <time>2022-05-27T05:48:49Z</time>
      </trkpt>
      <trkpt lat="41.9516430" lon="2.7184360">
        <ele>224.8</ele>
        <time>2022-05-27T05:48:50Z</time>
      </trkpt>
      <trkpt lat="41.9516440" lon="2.7184640">
        <ele>224.2</ele>
        <time>2022-05-27T05:48:51Z</time>
      </trkpt>
      <trkpt lat="41.9516420" lon="2.7185030">
        <ele>223.6</ele>
        <time>2022-05-27T05:48:52Z</time>
      </trkpt>
      <trkpt lat="41.9516420" lon="2.7185540">
        <ele>222.8</ele>
        <time>2022-05-27T05:48:53Z</time>
      </trkpt>
      <trkpt lat="41.9516410" lon="2.7186050">
        <ele>222.2</ele>
        <time>2022-05-27T05:48:54Z</time>
      </trkpt>
      <trkpt lat="41.9516380" lon="2.7186450">
        <ele>221.4</ele>
        <time>2022-05-27T05:48:55Z</time>
      </trkpt>
      <trkpt lat="41.9516330" lon="2.7186810">
        <ele>220.8</ele>
        <time>2022-05-27T05:48:56Z</time>
      </trkpt>
      <trkpt lat="41.9516280" lon="2.7187150">
        <ele>220.0</ele>
        <time>2022-05-27T05:48:57Z</time>
      </trkpt>
      <trkpt lat="41.9516240" lon="2.7187440">
        <ele>219.2</ele>
        <time>2022-05-27T05:48:58Z</time>
      </trkpt>
      <trkpt lat="41.9516220" lon="2.7187730">
        <ele>218.4</ele>
        <time>2022-05-27T05:48:59Z</time>
      </trkpt>
      <trkpt lat="41.9516210" lon="2.7188040">
        <ele>217.4</ele>
        <time>2022-05-27T05:49:00Z</time>
      </trkpt>
      <trkpt lat="41.9516190" lon="2.7188330">
        <ele>216.6</ele>
        <time>2022-05-27T05:49:01Z</time>
      </trkpt>
      <trkpt lat="41.9516140" lon="2.7188620">
        <ele>215.6</ele>
        <time>2022-05-27T05:49:02Z</time>
      </trkpt>
      <trkpt lat="41.9516060" lon="2.7188990">
        <ele>214.6</ele>
        <time>2022-05-27T05:49:03Z</time>
      </trkpt>
      <trkpt lat="41.9515970" lon="2.7189420">
        <ele>213.4</ele>
        <time>2022-05-27T05:49:04Z</time>
      </trkpt>
      <trkpt lat="41.9515880" lon="2.7189810">
        <ele>212.4</ele>
        <time>2022-05-27T05:49:05Z</time>
      </trkpt>
      <trkpt lat="41.9515840" lon="2.7190120">
        <ele>211.4</ele>
        <time>2022-05-27T05:49:06Z</time>
      </trkpt>
      <trkpt lat="41.9515860" lon="2.7190340">
        <ele>210.4</ele>
        <time>2022-05-27T05:49:07Z</time>
      </trkpt>
      <trkpt lat="41.9515920" lon="2.7190600">
        <ele>209.4</ele>
        <time>2022-05-27T05:49:08Z</time>
      </trkpt>
      <trkpt lat="41.9515890" lon="2.7190940">
        <ele>208.4</ele>
        <time>2022-05-27T05:49:09Z</time>
      </trkpt>
      <trkpt lat="41.9515850" lon="2.7191290">
        <ele>207.4</ele>
        <time>2022-05-27T05:49:10Z</time>
      </trkpt>
      <trkpt lat="41.9515780" lon="2.7191530">
        <ele>206.4</ele>
        <time>2022-05-27T05:49:11Z</time>
      </trkpt>
      <trkpt lat="41.9515690" lon="2.7191720">
        <ele>205.4</ele>
        <time>2022-05-27T05:49:12Z</time>
      </trkpt>
      <trkpt lat="41.9515570" lon="2.7191880">
        <ele>204.2</ele>
        <time>2022-05-27T05:49:13Z</time>
      </trkpt>
      <trkpt lat="41.9515400" lon="2.7192090">
        <ele>203.2</ele>
        <time>2022-05-27T05:49:14Z</time>
      </trkpt>
      <trkpt lat="41.9515230" lon="2.7192350">
        <ele>202.0</ele>
        <time>2022-05-27T05:49:15Z</time>
      </trkpt>
      <trkpt lat="41.9515070" lon="2.7192590">
        <ele>201.0</ele>
        <time>2022-05-27T05:49:16Z</time>
      </trkpt>
      <trkpt lat="41.9514940" lon="2.7192740">
        <ele>199.8</ele>
        <time>2022-05-27T05:49:17Z</time>
      </trkpt>
      <trkpt lat="41.9514670" lon="2.7192860">
        <ele>198.8</ele>
        <time>2022-05-27T05:49:18Z</time>
      </trkpt>
      <trkpt lat="41.9514260" lon="2.7192970">
        <ele>197.8</ele>
        <time>2022-05-27T05:49:19Z</time>
      </trkpt>
      <trkpt lat="41.9513830" lon="2.7192990">
        <ele>197.0</ele>
        <time>2022-05-27T05:49:20Z</time>
      </trkpt>
      <trkpt lat="41.9513400" lon="2.7192960">
        <ele>196.4</ele>
        <time>2022-05-27T05:49:21Z</time>
      </trkpt>
      <trkpt lat="41.9513170" lon="2.7192860">
        <ele>195.8</ele>
        <time>2022-05-27T05:49:22Z</time>
      </trkpt>
      <trkpt lat="41.9513050" lon="2.7192690">
        <ele>195.2</ele>
        <time>2022-05-27T05:49:23Z</time>
      </trkpt>
      <trkpt lat="41.9512970" lon="2.7192470">
        <ele>194.8</ele>
        <time>2022-05-27T05:49:24Z</time>
      </trkpt>
      <trkpt lat="41.9512830" lon="2.7192240">
        <ele>194.4</ele>
        <time>2022-05-27T05:49:25Z</time>
      </trkpt>
      <trkpt lat="41.9512580" lon="2.7191980">
        <ele>193.8</ele>
        <time>2022-05-27T05:49:26Z</time>
      </trkpt>
      <trkpt lat="41.9512250" lon="2.7191770">
        <ele>193.4</ele>
        <time>2022-05-27T05:49:27Z</time>
      </trkpt>
      <trkpt lat="41.9511920" lon="2.7191640">
        <ele>193.0</ele>
        <time>2022-05-27T05:49:28Z</time>
      </trkpt>
      <trkpt lat="41.9511610" lon="2.7191520">
        <ele>192.8</ele>
        <time>2022-05-27T05:49:29Z</time>
      </trkpt>
      <trkpt lat="41.9511410" lon="2.7191440">
        <ele>192.4</ele>
        <time>2022-05-27T05:49:30Z</time>
      </trkpt>
      <trkpt lat="41.9511310" lon="2.7191310">
        <ele>192.4</ele>
        <time>2022-05-27T05:49:31Z</time>
      </trkpt>
      <trkpt lat="41.9511240" lon="2.7191040">
        <ele>192.2</ele>
        <time>2022-05-27T05:49:32Z</time>
      </trkpt>
      <trkpt lat="41.9511160" lon="2.7190670">
        <ele>192.2</ele>
        <time>2022-05-27T05:49:33Z</time>
      </trkpt>
      <trkpt lat="41.9511020" lon="2.7190200">
        <ele>192.2</ele>
        <time>2022-05-27T05:49:34Z</time>
      </trkpt>
      <trkpt lat="41.9510790" lon="2.7189620">
        <ele>192.2</ele>
        <time>2022-05-27T05:49:35Z</time>
      </trkpt>
      <trkpt lat="41.9510480" lon="2.7189150">
        <ele>192.2</ele>
        <time>2022-05-27T05:49:36Z</time>
      </trkpt>
      <trkpt lat="41.9510210" lon="2.7188790">
        <ele>192.2</ele>
        <time>2022-05-27T05:49:37Z</time>
      </trkpt>
      <trkpt lat="41.9509980" lon="2.7188390">
        <ele>192.2</ele>
        <time>2022-05-27T05:49:38Z</time>
      </trkpt>
      <trkpt lat="41.9509670" lon="2.7188020">
        <ele>192.4</ele>
        <time>2022-05-27T05:49:39Z</time>
      </trkpt>
      <trkpt lat="41.9509320" lon="2.7187770">
        <ele>192.4</ele>
        <time>2022-05-27T05:49:40Z</time>
      </trkpt>
      <trkpt lat="41.9508980" lon="2.7187590">
        <ele>192.6</ele>
        <time>2022-05-27T05:49:41Z</time>
      </trkpt>
      <trkpt lat="41.9508610" lon="2.7187290">
        <ele>192.4</ele>
        <time>2022-05-27T05:49:42Z</time>
      </trkpt>
      <trkpt lat="41.9508220" lon="2.7186840">
        <ele>192.4</ele>
        <time>2022-05-27T05:49:43Z</time>
      </trkpt>
      <trkpt lat="41.9507810" lon="2.7186350">
        <ele>192.4</ele>
        <time>2022-05-27T05:49:44Z</time>
      </trkpt>
      <trkpt lat="41.9507410" lon="2.7185990">
        <ele>192.2</ele>
        <time>2022-05-27T05:49:45Z</time>
      </trkpt>
      <trkpt lat="41.9507040" lon="2.7185820">
        <ele>192.0</ele>
        <time>2022-05-27T05:49:46Z</time>
      </trkpt>
      <trkpt lat="41.9506610" lon="2.7185760">
        <ele>192.0</ele>
        <time>2022-05-27T05:49:47Z</time>
      </trkpt>
      <trkpt lat="41.9506200" lon="2.7185700">
        <ele>192.0</ele>
        <time>2022-05-27T05:49:48Z</time>
      </trkpt>
      <trkpt lat="41.9505830" lon="2.7185540">
        <ele>192.0</ele>
        <time>2022-05-27T05:49:49Z</time>
      </trkpt>
      <trkpt lat="41.9505450" lon="2.7185270">
        <ele>192.0</ele>
        <time>2022-05-27T05:49:50Z</time>
      </trkpt>
      <trkpt lat="41.9504970" lon="2.7184850">
        <ele>191.8</ele>
        <time>2022-05-27T05:49:51Z</time>
      </trkpt>
      <trkpt lat="41.9504440" lon="2.7184360">
        <ele>191.8</ele>
        <time>2022-05-27T05:49:52Z</time>
      </trkpt>
      <trkpt lat="41.9503940" lon="2.7183870">
        <ele>191.8</ele>
        <time>2022-05-27T05:49:53Z</time>
      </trkpt>
      <trkpt lat="41.9503510" lon="2.7183480">
        <ele>191.8</ele>
        <time>2022-05-27T05:49:54Z</time>
      </trkpt>
      <trkpt lat="41.9503150" lon="2.7183220">
        <ele>191.6</ele>
        <time>2022-05-27T05:49:55Z</time>
      </trkpt>
      <trkpt lat="41.9502840" lon="2.7183080">
        <ele>191.6</ele>
        <time>2022-05-27T05:49:56Z</time>
      </trkpt>
      <trkpt lat="41.9502520" lon="2.7183030">
        <ele>191.8</ele>
        <time>2022-05-27T05:49:57Z</time>
      </trkpt>
      <trkpt lat="41.9502200" lon="2.7183090">
        <ele>191.8</ele>
        <time>2022-05-27T05:49:58Z</time>
      </trkpt>
      <trkpt lat="41.9501860" lon="2.7183180">
        <ele>192.0</ele>
        <time>2022-05-27T05:49:59Z</time>
      </trkpt>
      <trkpt lat="41.9501500" lon="2.7183210">
        <ele>192.2</ele>
        <time>2022-05-27T05:50:00Z</time>
      </trkpt>
      <trkpt lat="41.9501140" lon="2.7183210">
        <ele>192.2</ele>
        <time>2022-05-27T05:50:01Z</time>
      </trkpt>
      <trkpt lat="41.9500800" lon="2.7183200">
        <ele>192.2</ele>
        <time>2022-05-27T05:50:02Z</time>
      </trkpt>
      <trkpt lat="41.9500440" lon="2.7183200">
        <ele>192.4</ele>
        <time>2022-05-27T05:50:03Z</time>
      </trkpt>
      <trkpt lat="41.9500000" lon="2.7183190">
        <ele>192.4</ele>
        <time>2022-05-27T05:50:04Z</time>
      </trkpt>
      <trkpt lat="41.9499560" lon="2.7183160">
        <ele>192.4</ele>
        <time>2022-05-27T05:50:05Z</time>
      </trkpt>
      <trkpt lat="41.9499240" lon="2.7183150">
        <ele>192.6</ele>
        <time>2022-05-27T05:50:06Z</time>
      </trkpt>
      <trkpt lat="41.9498990" lon="2.7183180">
        <ele>192.8</ele>
        <time>2022-05-27T05:50:07Z</time>
      </trkpt>
      <trkpt lat="41.9498720" lon="2.7183200">
        <ele>192.8</ele>
        <time>2022-05-27T05:50:08Z</time>
      </trkpt>
      <trkpt lat="41.9498450" lon="2.7183190">
        <ele>193.0</ele>
        <time>2022-05-27T05:50:09Z</time>
      </trkpt>
      <trkpt lat="41.9498150" lon="2.7183200">
        <ele>193.4</ele>
        <time>2022-05-27T05:50:10Z</time>
      </trkpt>
      <trkpt lat="41.9497820" lon="2.7183310">
        <ele>193.6</ele>
        <time>2022-05-27T05:50:11Z</time>
      </trkpt>
      <trkpt lat="41.9497540" lon="2.7183560">
        <ele>194.0</ele>
        <time>2022-05-27T05:50:12Z</time>
      </trkpt>
      <trkpt lat="41.9497250" lon="2.7183890">
        <ele>194.4</ele>
        <time>2022-05-27T05:50:13Z</time>
      </trkpt>
      <trkpt lat="41.9496980" lon="2.7184300">
        <ele>195.0</ele>
        <time>2022-05-27T05:50:14Z</time>
      </trkpt>
      <trkpt lat="41.9496760" lon="2.7184710">
        <ele>195.6</ele>
        <time>2022-05-27T05:50:15Z</time>
      </trkpt>
      <trkpt lat="41.9496670" lon="2.7185180">
        <ele>196.0</ele>
        <time>2022-05-27T05:50:16Z</time>
      </trkpt>
      <trkpt lat="41.9496700" lon="2.7185620">
        <ele>196.4</ele>
        <time>2022-05-27T05:50:17Z</time>
      </trkpt>
      <trkpt lat="41.9496860" lon="2.7185950">
        <ele>197.0</ele>
        <time>2022-05-27T05:50:18Z</time>
      </trkpt>
      <trkpt lat="41.9497030" lon="2.7186200">
        <ele>197.4</ele>
        <time>2022-05-27T05:50:19Z</time>
      </trkpt>
      <trkpt lat="41.9497160" lon="2.7186420">
        <ele>198.0</ele>
        <time>2022-05-27T05:50:20Z</time>
      </trkpt>
      <trkpt lat="41.9497120" lon="2.7186680">
        <ele>198.6</ele>
        <time>2022-05-27T05:50:21Z</time>
      </trkpt>
      <trkpt lat="41.9497050" lon="2.7186970">
        <ele>199.0</ele>
        <time>2022-05-27T05:50:22Z</time>
      </trkpt>
      <trkpt lat="41.9496890" lon="2.7187230">
        <ele>199.6</ele>
        <time>2022-05-27T05:50:23Z</time>
      </trkpt>
      <trkpt lat="41.9496770" lon="2.7187490">
        <ele>200.2</ele>
        <time>2022-05-27T05:50:24Z</time>
      </trkpt>
      <trkpt lat="41.9496700" lon="2.7187760">
        <ele>200.8</ele>
        <time>2022-05-27T05:50:25Z</time>
      </trkpt>
      <trkpt lat="41.9496600" lon="2.7188020">
        <ele>201.4</ele>
        <time>2022-05-27T05:50:26Z</time>
      </trkpt>
      <trkpt lat="41.9496480" lon="2.7188160">
        <ele>202.0</ele>
        <time>2022-05-27T05:50:27Z</time>
      </trkpt>
      <trkpt lat="41.9496210" lon="2.7188220">
        <ele>202.6</ele>
        <time>2022-05-27T05:50:28Z</time>
      </trkpt>
      <trkpt lat="41.9495910" lon="2.7188230">
        <ele>203.2</ele>
        <time>2022-05-27T05:50:29Z</time>
      </trkpt>
      <trkpt lat="41.9495670" lon="2.7188280">
        <ele>203.8</ele>
        <time>2022-05-27T05:50:30Z</time>
      </trkpt>
      <trkpt lat="41.9495480" lon="2.7188480">
        <ele>204.4</ele>
        <time>2022-05-27T05:50:31Z</time>
      </trkpt>
      <trkpt lat="41.9495400" lon="2.7188810">
        <ele>205.0</ele>
        <time>2022-05-27T05:50:32Z</time>
      </trkpt>
      <trkpt lat="41.9495420" lon="2.7189200">
        <ele>205.6</ele>
        <time>2022-05-27T05:50:33Z</time>
      </trkpt>
      <trkpt lat="41.9495470" lon="2.7189310">
        <ele>206.0</ele>
        <time>2022-05-27T05:50:34Z</time>
      </trkpt>
      <trkpt lat="41.9495470" lon="2.7189380">
        <ele>206.6</ele>
        <time>2022-05-27T05:50:35Z</time>
      </trkpt>
      <trkpt lat="41.9495470" lon="2.7189410">
        <ele>207.0</ele>
        <time>2022-05-27T05:50:36Z</time>
      </trkpt>
      <trkpt lat="41.9495500" lon="2.7189580">
        <ele>207.4</ele>
        <time>2022-05-27T05:50:37Z</time>
      </trkpt>
      <trkpt lat="41.9495560" lon="2.7189810">
        <ele>207.8</ele>
        <time>2022-05-27T05:50:38Z</time>
      </trkpt>
      <trkpt lat="41.9495540" lon="2.7190030">
        <ele>208.2</ele>
        <time>2022-05-27T05:50:39Z</time>
      </trkpt>
      <trkpt lat="41.9495480" lon="2.7190250">
        <ele>208.8</ele>
        <time>2022-05-27T05:50:40Z</time>
      </trkpt>
      <trkpt lat="41.9495260" lon="2.7190430">
        <ele>209.2</ele>
        <time>2022-05-27T05:50:41Z</time>
      </trkpt>
      <trkpt lat="41.9495050" lon="2.7190500">
        <ele>209.6</ele>
        <time>2022-05-27T05:50:42Z</time>
      </trkpt>
      <trkpt lat="41.9494910" lon="2.7190510">
        <ele>210.0</ele>
        <time>2022-05-27T05:50:43Z</time>
      </trkpt>
      <trkpt lat="41.9494840" lon="2.7190460">
        <ele>210.4</ele>
        <time>2022-05-27T05:50:44Z</time>
      </trkpt>
      <trkpt lat="41.9494810" lon="2.7190360">
        <ele>210.6</ele>
        <time>2022-05-27T05:50:45Z</time>
      </trkpt>
      <trkpt lat="41.9494770" lon="2.7190170">
        <ele>210.8</ele>
        <time>2022-05-27T05:50:46Z</time>
      </trkpt>
      <trkpt lat="41.9494720" lon="2.7190000">
        <ele>210.8</ele>
        <time>2022-05-27T05:50:47Z</time>
      </trkpt>
      <trkpt lat="41.9494690" lon="2.7189840">
        <ele>211.0</ele>
        <time>2022-05-27T05:50:48Z</time>
      </trkpt>
      <trkpt lat="41.9494620" lon="2.7189750">
        <ele>211.2</ele>
        <time>2022-05-27T05:50:49Z</time>
      </trkpt>
      <trkpt lat="41.9494450" lon="2.7189590">
        <ele>211.2</ele>
        <time>2022-05-27T05:50:50Z</time>
      </trkpt>
      <trkpt lat="41.9494210" lon="2.7189400">
        <ele>211.4</ele>
        <time>2022-05-27T05:50:51Z</time>
      </trkpt>
      <trkpt lat="41.9493930" lon="2.7189250">
        <ele>211.6</ele>
        <time>2022-05-27T05:50:52Z</time>
      </trkpt>
      <trkpt lat="41.9493660" lon="2.7189190">
        <ele>212.0</ele>
        <time>2022-05-27T05:50:53Z</time>
      </trkpt>
      <trkpt lat="41.9493440" lon="2.7189330">
        <ele>212.2</ele>
        <time>2022-05-27T05:50:54Z</time>
      </trkpt>
      <trkpt lat="41.9493260" lon="2.7189380">
        <ele>212.4</ele>
        <time>2022-05-27T05:50:55Z</time>
      </trkpt>
      <trkpt lat="41.9493010" lon="2.7189320">
        <ele>212.4</ele>
        <time>2022-05-27T05:50:56Z</time>
      </trkpt>
      <trkpt lat="41.9492630" lon="2.7189100">
        <ele>212.4</ele>
        <time>2022-05-27T05:50:57Z</time>
      </trkpt>
      <trkpt lat="41.9492270" lon="2.7188740">
        <ele>212.4</ele>
        <time>2022-05-27T05:50:58Z</time>
      </trkpt>
      <trkpt lat="41.9492000" lon="2.7188440">
        <ele>212.2</ele>
        <time>2022-05-27T05:50:59Z</time>
      </trkpt>
      <trkpt lat="41.9491800" lon="2.7188350">
        <ele>212.2</ele>
        <time>2022-05-27T05:51:00Z</time>
      </trkpt>
      <trkpt lat="41.9491620" lon="2.7188310">
        <ele>212.0</ele>
        <time>2022-05-27T05:51:01Z</time>
      </trkpt>
      <trkpt lat="41.9491380" lon="2.7188400">
        <ele>212.0</ele>
        <time>2022-05-27T05:51:02Z</time>
      </trkpt>
      <trkpt lat="41.9491060" lon="2.7188510">
        <ele>211.8</ele>
        <time>2022-05-27T05:51:03Z</time>
      </trkpt>
      <trkpt lat="41.9490690" lon="2.7188660">
        <ele>211.6</ele>
        <time>2022-05-27T05:51:04Z</time>
      </trkpt>
      <trkpt lat="41.9490380" lon="2.7188870">
        <ele>211.2</ele>
        <time>2022-05-27T05:51:05Z</time>
      </trkpt>
      <trkpt lat="41.9490160" lon="2.7189140">
        <ele>211.2</ele>
        <time>2022-05-27T05:51:06Z</time>
      </trkpt>
      <trkpt lat="41.9489980" lon="2.7189460">
        <ele>211.2</ele>
        <time>2022-05-27T05:51:07Z</time>
      </trkpt>
      <trkpt lat="41.9489840" lon="2.7189710">
        <ele>211.0</ele>
        <time>2022-05-27T05:51:08Z</time>
      </trkpt>
      <trkpt lat="41.9489690" lon="2.7190010">
        <ele>211.0</ele>
        <time>2022-05-27T05:51:09Z</time>
      </trkpt>
      <trkpt lat="41.9489410" lon="2.7190550">
        <ele>211.2</ele>
        <time>2022-05-27T05:51:10Z</time>
      </trkpt>
      <trkpt lat="41.9489160" lon="2.7191220">
        <ele>211.2</ele>
        <time>2022-05-27T05:51:11Z</time>
      </trkpt>
      <trkpt lat="41.9489130" lon="2.7191750">
        <ele>211.4</ele>
        <time>2022-05-27T05:51:12Z</time>
      </trkpt>
      <trkpt lat="41.9489170" lon="2.7192150">
        <ele>211.6</ele>
        <time>2022-05-27T05:51:13Z</time>
      </trkpt>
      <trkpt lat="41.9489220" lon="2.7192490">
        <ele>211.8</ele>
        <time>2022-05-27T05:51:14Z</time>
      </trkpt>
      <trkpt lat="41.9489140" lon="2.7192870">
        <ele>212.0</ele>
        <time>2022-05-27T05:51:15Z</time>
      </trkpt>
      <trkpt lat="41.9489000" lon="2.7193320">
        <ele>212.2</ele>
        <time>2022-05-27T05:51:16Z</time>
      </trkpt>
      <trkpt lat="41.9488790" lon="2.7193730">
        <ele>212.4</ele>
        <time>2022-05-27T05:51:17Z</time>
      </trkpt>
      <trkpt lat="41.9488530" lon="2.7194100">
        <ele>212.8</ele>
        <time>2022-05-27T05:51:18Z</time>
      </trkpt>
      <trkpt lat="41.9488240" lon="2.7194550">
        <ele>213.0</ele>
        <time>2022-05-27T05:51:19Z</time>
      </trkpt>
      <trkpt lat="41.9487920" lon="2.7195130">
        <ele>213.4</ele>
        <time>2022-05-27T05:51:20Z</time>
      </trkpt>
      <trkpt lat="41.9487680" lon="2.7195570">
        <ele>213.6</ele>
        <time>2022-05-27T05:51:21Z</time>
      </trkpt>
      <trkpt lat="41.9487590" lon="2.7195970">
        <ele>214.0</ele>
        <time>2022-05-27T05:51:22Z</time>
      </trkpt>
      <trkpt lat="41.9487600" lon="2.7196300">
        <ele>214.4</ele>
        <time>2022-05-27T05:51:23Z</time>
      </trkpt>
      <trkpt lat="41.9487730" lon="2.7196530">
        <ele>214.8</ele>
        <time>2022-05-27T05:51:24Z</time>
      </trkpt>
      <trkpt lat="41.9487900" lon="2.7196660">
        <ele>215.2</ele>
        <time>2022-05-27T05:51:25Z</time>
      </trkpt>
      <trkpt lat="41.9488020" lon="2.7196770">
        <ele>215.6</ele>
        <time>2022-05-27T05:51:26Z</time>
      </trkpt>
      <trkpt lat="41.9488050" lon="2.7196900">
        <ele>216.0</ele>
        <time>2022-05-27T05:51:27Z</time>
      </trkpt>
      <trkpt lat="41.9488100" lon="2.7197050">
        <ele>216.2</ele>
        <time>2022-05-27T05:51:28Z</time>
      </trkpt>
      <trkpt lat="41.9488140" lon="2.7197220">
        <ele>216.6</ele>
        <time>2022-05-27T05:51:29Z</time>
      </trkpt>
      <trkpt lat="41.9488260" lon="2.7197480">
        <ele>217.0</ele>
        <time>2022-05-27T05:51:30Z</time>
      </trkpt>
      <trkpt lat="41.9488440" lon="2.7197690">
        <ele>217.4</ele>
        <time>2022-05-27T05:51:31Z</time>
      </trkpt>
      <trkpt lat="41.9488630" lon="2.7197720">
        <ele>217.8</ele>
        <time>2022-05-27T05:51:32Z</time>
      </trkpt>
      <trkpt lat="41.9488820" lon="2.7197700">
        <ele>218.4</ele>
        <time>2022-05-27T05:51:33Z</time>
      </trkpt>
      <trkpt lat="41.9488990" lon="2.7197750">
        <ele>218.8</ele>
        <time>2022-05-27T05:51:34Z</time>
      </trkpt>
      <trkpt lat="41.9489170" lon="2.7197850">
        <ele>219.4</ele>
        <time>2022-05-27T05:51:35Z</time>
      </trkpt>
      <trkpt lat="41.9489360" lon="2.7197980">
        <ele>219.8</ele>
        <time>2022-05-27T05:51:36Z</time>
      </trkpt>
      <trkpt lat="41.9489620" lon="2.7198060">
        <ele>220.2</ele>
        <time>2022-05-27T05:51:37Z</time>
      </trkpt>
      <trkpt lat="41.9489980" lon="2.7198030">
        <ele>220.8</ele>
        <time>2022-05-27T05:51:38Z</time>
      </trkpt>
      <trkpt lat="41.9490400" lon="2.7197880">
        <ele>221.0</ele>
        <time>2022-05-27T05:51:39Z</time>
      </trkpt>
      <trkpt lat="41.9490890" lon="2.7197620">
        <ele>221.4</ele>
        <time>2022-05-27T05:51:40Z</time>
      </trkpt>
      <trkpt lat="41.9491320" lon="2.7197350">
        <ele>221.6</ele>
        <time>2022-05-27T05:51:41Z</time>
      </trkpt>
      <trkpt lat="41.9491790" lon="2.7197060">
        <ele>221.8</ele>
        <time>2022-05-27T05:51:42Z</time>
      </trkpt>
      <trkpt lat="41.9492350" lon="2.7196780">
        <ele>222.0</ele>
        <time>2022-05-27T05:51:43Z</time>
      </trkpt>
      <trkpt lat="41.9492950" lon="2.7196640">
        <ele>222.2</ele>
        <time>2022-05-27T05:51:44Z</time>
      </trkpt>
      <trkpt lat="41.9493630" lon="2.7196620">
        <ele>222.2</ele>
        <time>2022-05-27T05:51:45Z</time>
      </trkpt>
      <trkpt lat="41.9494400" lon="2.7196680">
        <ele>222.4</ele>
        <time>2022-05-27T05:51:46Z</time>
      </trkpt>
      <trkpt lat="41.9495210" lon="2.7196830">
        <ele>222.6</ele>
        <time>2022-05-27T05:51:47Z</time>
      </trkpt>
      <trkpt lat="41.9496040" lon="2.7196980">
        <ele>222.6</ele>
        <time>2022-05-27T05:51:48Z</time>
      </trkpt>
      <trkpt lat="41.9496890" lon="2.7196980">
        <ele>222.8</ele>
        <time>2022-05-27T05:51:49Z</time>
      </trkpt>
      <trkpt lat="41.9497640" lon="2.7196940">
        <ele>223.0</ele>
        <time>2022-05-27T05:51:50Z</time>
      </trkpt>
      <trkpt lat="41.9498440" lon="2.7196840">
        <ele>223.2</ele>
        <time>2022-05-27T05:51:51Z</time>
      </trkpt>
      <trkpt lat="41.9499280" lon="2.7196730">
        <ele>223.6</ele>
        <time>2022-05-27T05:51:52Z</time>
      </trkpt>
      <trkpt lat="41.9500130" lon="2.7196620">
        <ele>223.8</ele>
        <time>2022-05-27T05:51:53Z</time>
      </trkpt>
      <trkpt lat="41.9501050" lon="2.7196530">
        <ele>224.2</ele>
        <time>2022-05-27T05:51:54Z</time>
      </trkpt>
      <trkpt lat="41.9501860" lon="2.7196530">
        <ele>224.6</ele>
        <time>2022-05-27T05:51:55Z</time>
      </trkpt>
      <trkpt lat="41.9502540" lon="2.7196640">
        <ele>225.4</ele>
        <time>2022-05-27T05:51:56Z</time>
      </trkpt>
      <trkpt lat="41.9503250" lon="2.7197010">
        <ele>226.0</ele>
        <time>2022-05-27T05:51:57Z</time>
      </trkpt>
      <trkpt lat="41.9504050" lon="2.7197600">
        <ele>226.4</ele>
        <time>2022-05-27T05:51:58Z</time>
      </trkpt>
      <trkpt lat="41.9504750" lon="2.7198200">
        <ele>226.4</ele>
        <time>2022-05-27T05:51:59Z</time>
      </trkpt>
      <trkpt lat="41.9505370" lon="2.7198630">
        <ele>226.6</ele>
        <time>2022-05-27T05:52:00Z</time>
      </trkpt>
      <trkpt lat="41.9505970" lon="2.7199100">
        <ele>226.6</ele>
        <time>2022-05-27T05:52:01Z</time>
      </trkpt>
      <trkpt lat="41.9506690" lon="2.7199620">
        <ele>226.6</ele>
        <time>2022-05-27T05:52:02Z</time>
      </trkpt>
      <trkpt lat="41.9507550" lon="2.7200310">
        <ele>226.6</ele>
        <time>2022-05-27T05:52:03Z</time>
      </trkpt>
      <trkpt lat="41.9508310" lon="2.7200990">
        <ele>226.6</ele>
        <time>2022-05-27T05:52:04Z</time>
      </trkpt>
      <trkpt lat="41.9508860" lon="2.7201660">
        <ele>226.4</ele>
        <time>2022-05-27T05:52:05Z</time>
      </trkpt>
      <trkpt lat="41.9509260" lon="2.7202360">
        <ele>226.2</ele>
        <time>2022-05-27T05:52:06Z</time>
      </trkpt>
      <trkpt lat="41.9509680" lon="2.7203230">
        <ele>226.0</ele>
        <time>2022-05-27T05:52:07Z</time>
      </trkpt>
      <trkpt lat="41.9510210" lon="2.7204290">
        <ele>226.0</ele>
        <time>2022-05-27T05:52:08Z</time>
      </trkpt>
      <trkpt lat="41.9510720" lon="2.7205220">
        <ele>226.0</ele>
        <time>2022-05-27T05:52:09Z</time>
      </trkpt>
      <trkpt lat="41.9511350" lon="2.7206130">
        <ele>226.2</ele>
        <time>2022-05-27T05:52:10Z</time>
      </trkpt>
      <trkpt lat="41.9512080" lon="2.7207070">
        <ele>226.2</ele>
        <time>2022-05-27T05:52:11Z</time>
      </trkpt>
      <trkpt lat="41.9512780" lon="2.7208040">
        <ele>227.0</ele>
        <time>2022-05-27T05:52:12Z</time>
      </trkpt>
      <trkpt lat="41.9513500" lon="2.7208980">
        <ele>227.6</ele>
        <time>2022-05-27T05:52:13Z</time>
      </trkpt>
      <trkpt lat="41.9514250" lon="2.7209800">
        <ele>228.4</ele>
        <time>2022-05-27T05:52:14Z</time>
      </trkpt>
      <trkpt lat="41.9514980" lon="2.7210480">
        <ele>229.2</ele>
        <time>2022-05-27T05:52:15Z</time>
      </trkpt>
      <trkpt lat="41.9515690" lon="2.7210920">
        <ele>229.8</ele>
        <time>2022-05-27T05:52:16Z</time>
      </trkpt>
      <trkpt lat="41.9516370" lon="2.7211130">
        <ele>230.6</ele>
        <time>2022-05-27T05:52:17Z</time>
      </trkpt>
      <trkpt lat="41.9516860" lon="2.7211310">
        <ele>231.2</ele>
        <time>2022-05-27T05:52:18Z</time>
      </trkpt>
      <trkpt lat="41.9517210" lon="2.7211590">
        <ele>231.8</ele>
        <time>2022-05-27T05:52:19Z</time>
      </trkpt>
      <trkpt lat="41.9517510" lon="2.7211940">
        <ele>232.4</ele>
        <time>2022-05-27T05:52:20Z</time>
      </trkpt>
      <trkpt lat="41.9517750" lon="2.7212320">
        <ele>233.0</ele>
        <time>2022-05-27T05:52:21Z</time>
      </trkpt>
      <trkpt lat="41.9517870" lon="2.7212700">
        <ele>233.6</ele>
        <time>2022-05-27T05:52:22Z</time>
      </trkpt>
      <trkpt lat="41.9517890" lon="2.7213070">
        <ele>234.2</ele>
        <time>2022-05-27T05:52:23Z</time>
      </trkpt>
      <trkpt lat="41.9517710" lon="2.7213380">
        <ele>234.6</ele>
        <time>2022-05-27T05:52:24Z</time>
      </trkpt>
      <trkpt lat="41.9517480" lon="2.7213590">
        <ele>235.0</ele>
        <time>2022-05-27T05:52:25Z</time>
      </trkpt>
      <trkpt lat="41.9517410" lon="2.7213700">
        <ele>235.4</ele>
        <time>2022-05-27T05:52:26Z</time>
      </trkpt>
      <trkpt lat="41.9517360" lon="2.7213720">
        <ele>235.6</ele>
        <time>2022-05-27T05:52:27Z</time>
      </trkpt>
      <trkpt lat="41.9517380" lon="2.7213700">
        <ele>235.8</ele>
        <time>2022-05-27T05:52:28Z</time>
      </trkpt>
      <trkpt lat="41.9517380" lon="2.7213700">
        <ele>235.8</ele>
        <time>2022-05-27T05:52:29Z</time>
      </trkpt>
      <trkpt lat="41.9517380" lon="2.7213700">
        <ele>235.8</ele>
        <time>2022-05-27T05:52:30Z</time>
      </trkpt>
      <trkpt lat="41.9517380" lon="2.7213700">
        <ele>235.8</ele>
        <time>2022-05-27T05:52:31Z</time>
      </trkpt>
      <trkpt lat="41.9516850" lon="2.7214380">
        <ele>235.6</ele>
        <time>2022-05-27T05:53:46Z</time>
      </trkpt>
      <trkpt lat="41.9516670" lon="2.7214560">
        <ele>235.4</ele>
        <time>2022-05-27T05:53:47Z</time>
      </trkpt>
      <trkpt lat="41.9516450" lon="2.7214680">
        <ele>235.2</ele>
        <time>2022-05-27T05:53:48Z</time>
      </trkpt>
      <trkpt lat="41.9516290" lon="2.7214850">
        <ele>235.2</ele>
        <time>2022-05-27T05:53:49Z</time>
      </trkpt>
      <trkpt lat="41.9516190" lon="2.7215060">
        <ele>235.0</ele>
        <time>2022-05-27T05:53:50Z</time>
      </trkpt>
      <trkpt lat="41.9516180" lon="2.7215270">
        <ele>235.0</ele>
        <time>2022-05-27T05:53:51Z</time>
      </trkpt>
      <trkpt lat="41.9516160" lon="2.7215470">
        <ele>234.8</ele>
        <time>2022-05-27T05:53:52Z</time>
      </trkpt>
      <trkpt lat="41.9516130" lon="2.7215780">
        <ele>234.6</ele>
        <time>2022-05-27T05:53:53Z</time>
      </trkpt>
      <trkpt lat="41.9516100" lon="2.7216290">
        <ele>234.6</ele>
        <time>2022-05-27T05:53:54Z</time>
      </trkpt>
      <trkpt lat="41.9516120" lon="2.7216870">
        <ele>234.4</ele>
        <time>2022-05-27T05:53:55Z</time>
      </trkpt>
      <trkpt lat="41.9516190" lon="2.7217330">
        <ele>234.4</ele>
        <time>2022-05-27T05:53:56Z</time>
      </trkpt>
      <trkpt lat="41.9516320" lon="2.7217620">
        <ele>234.2</ele>
        <time>2022-05-27T05:53:57Z</time>
      </trkpt>
      <trkpt lat="41.9516540" lon="2.7217640">
        <ele>234.0</ele>
        <time>2022-05-27T05:53:58Z</time>
      </trkpt>
      <trkpt lat="41.9516840" lon="2.7217480">
        <ele>233.8</ele>
        <time>2022-05-27T05:53:59Z</time>
      </trkpt>
      <trkpt lat="41.9517220" lon="2.7217090">
        <ele>233.6</ele>
        <time>2022-05-27T05:54:00Z</time>
      </trkpt>
      <trkpt lat="41.9517590" lon="2.7216600">
        <ele>233.6</ele>
        <time>2022-05-27T05:54:01Z</time>
      </trkpt>
      <trkpt lat="41.9517870" lon="2.7216140">
        <ele>233.2</ele>
        <time>2022-05-27T05:54:02Z</time>
      </trkpt>
      <trkpt lat="41.9518090" lon="2.7215880">
        <ele>233.0</ele>
        <time>2022-05-27T05:54:03Z</time>
      </trkpt>
      <trkpt lat="41.9518310" lon="2.7215750">
        <ele>232.6</ele>
        <time>2022-05-27T05:54:04Z</time>
      </trkpt>
      <trkpt lat="41.9518610" lon="2.7215830">
        <ele>232.2</ele>
        <time>2022-05-27T05:54:05Z</time>
      </trkpt>
      <trkpt lat="41.9518960" lon="2.7216140">
        <ele>231.8</ele>
        <time>2022-05-27T05:54:06Z</time>
      </trkpt>
      <trkpt lat="41.9519190" lon="2.7216430">
        <ele>231.6</ele>
        <time>2022-05-27T05:54:07Z</time>
      </trkpt>
      <trkpt lat="41.9519190" lon="2.7216710">
        <ele>231.4</ele>
        <time>2022-05-27T05:54:08Z</time>
      </trkpt>
      <trkpt lat="41.9519140" lon="2.7217020">
        <ele>231.0</ele>
        <time>2022-05-27T05:54:09Z</time>
      </trkpt>
      <trkpt lat="41.9519120" lon="2.7217350">
        <ele>230.6</ele>
        <time>2022-05-27T05:54:10Z</time>
      </trkpt>
      <trkpt lat="41.9519170" lon="2.7217640">
        <ele>230.0</ele>
        <time>2022-05-27T05:54:11Z</time>
      </trkpt>
      <trkpt lat="41.9519340" lon="2.7217830">
        <ele>229.6</ele>
        <time>2022-05-27T05:54:12Z</time>
      </trkpt>
      <trkpt lat="41.9519570" lon="2.7217840">
        <ele>229.4</ele>
        <time>2022-05-27T05:54:13Z</time>
      </trkpt>
      <trkpt lat="41.9519850" lon="2.7217770">
        <ele>229.0</ele>
        <time>2022-05-27T05:54:14Z</time>
      </trkpt>
      <trkpt lat="41.9519970" lon="2.7217600">
        <ele>228.8</ele>
        <time>2022-05-27T05:54:15Z</time>
      </trkpt>
      <trkpt lat="41.9520020" lon="2.7217360">
        <ele>228.6</ele>
        <time>2022-05-27T05:54:16Z</time>
      </trkpt>
      <trkpt lat="41.9520000" lon="2.7217140">
        <ele>228.2</ele>
        <time>2022-05-27T05:54:17Z</time>
      </trkpt>
      <trkpt lat="41.9519990" lon="2.7217080">
        <ele>227.8</ele>
        <time>2022-05-27T05:54:18Z</time>
      </trkpt>
      <trkpt lat="41.9520010" lon="2.7217090">
        <ele>227.4</ele>
        <time>2022-05-27T05:54:19Z</time>
      </trkpt>
      <trkpt lat="41.9520090" lon="2.7217310">
        <ele>226.8</ele>
        <time>2022-05-27T05:54:20Z</time>
      </trkpt>
      <trkpt lat="41.9520190" lon="2.7217670">
        <ele>226.2</ele>
        <time>2022-05-27T05:54:21Z</time>
      </trkpt>
      <trkpt lat="41.9520320" lon="2.7218200">
        <ele>225.4</ele>
        <time>2022-05-27T05:54:22Z</time>
      </trkpt>
      <trkpt lat="41.9520390" lon="2.7218810">
        <ele>224.8</ele>
        <time>2022-05-27T05:54:23Z</time>
      </trkpt>
      <trkpt lat="41.9520400" lon="2.7219500">
        <ele>224.0</ele>
        <time>2022-05-27T05:54:24Z</time>
      </trkpt>
      <trkpt lat="41.9520350" lon="2.7220120">
        <ele>223.2</ele>
        <time>2022-05-27T05:54:25Z</time>
      </trkpt>
      <trkpt lat="41.9520250" lon="2.7220800">
        <ele>222.6</ele>
        <time>2022-05-27T05:54:26Z</time>
      </trkpt>
      <trkpt lat="41.9520290" lon="2.7221360">
        <ele>222.0</ele>
        <time>2022-05-27T05:54:27Z</time>
      </trkpt>
      <trkpt lat="41.9520470" lon="2.7221590">
        <ele>221.4</ele>
        <time>2022-05-27T05:54:28Z</time>
      </trkpt>
      <trkpt lat="41.9520750" lon="2.7221660">
        <ele>220.8</ele>
        <time>2022-05-27T05:54:29Z</time>
      </trkpt>
      <trkpt lat="41.9521110" lon="2.7221510">
        <ele>220.2</ele>
        <time>2022-05-27T05:54:30Z</time>
      </trkpt>
      <trkpt lat="41.9521320" lon="2.7221280">
        <ele>219.8</ele>
        <time>2022-05-27T05:54:31Z</time>
      </trkpt>
      <trkpt lat="41.9521580" lon="2.7221050">
        <ele>219.4</ele>
        <time>2022-05-27T05:54:32Z</time>
      </trkpt>
      <trkpt lat="41.9521890" lon="2.7220910">
        <ele>219.0</ele>
        <time>2022-05-27T05:54:33Z</time>
      </trkpt>
      <trkpt lat="41.9522320" lon="2.7220740">
        <ele>218.6</ele>
        <time>2022-05-27T05:54:34Z</time>
      </trkpt>
      <trkpt lat="41.9522750" lon="2.7220500">
        <ele>218.2</ele>
        <time>2022-05-27T05:54:35Z</time>
      </trkpt>
      <trkpt lat="41.9523150" lon="2.7220220">
        <ele>217.6</ele>
        <time>2022-05-27T05:54:36Z</time>
      </trkpt>
      <trkpt lat="41.9523430" lon="2.7220090">
        <ele>217.0</ele>
        <time>2022-05-27T05:54:37Z</time>
      </trkpt>
      <trkpt lat="41.9523600" lon="2.7220050">
        <ele>216.4</ele>
        <time>2022-05-27T05:54:38Z</time>
      </trkpt>
      <trkpt lat="41.9523730" lon="2.7220150">
        <ele>216.0</ele>
        <time>2022-05-27T05:54:39Z</time>
      </trkpt>
      <trkpt lat="41.9523790" lon="2.7220230">
        <ele>215.4</ele>
        <time>2022-05-27T05:54:40Z</time>
      </trkpt>
      <trkpt lat="41.9523840" lon="2.7220360">
        <ele>214.8</ele>
        <time>2022-05-27T05:54:41Z</time>
      </trkpt>
      <trkpt lat="41.9523910" lon="2.7220650">
        <ele>214.4</ele>
        <time>2022-05-27T05:54:42Z</time>
      </trkpt>
      <trkpt lat="41.9524000" lon="2.7220990">
        <ele>213.8</ele>
        <time>2022-05-27T05:54:43Z</time>
      </trkpt>
      <trkpt lat="41.9524100" lon="2.7221350">
        <ele>213.2</ele>
        <time>2022-05-27T05:54:44Z</time>
      </trkpt>
      <trkpt lat="41.9524100" lon="2.7221700">
        <ele>212.8</ele>
        <time>2022-05-27T05:54:45Z</time>
      </trkpt>
      <trkpt lat="41.9524070" lon="2.7221950">
        <ele>212.4</ele>
        <time>2022-05-27T05:54:46Z</time>
      </trkpt>
      <trkpt lat="41.9523920" lon="2.7222120">
        <ele>212.0</ele>
        <time>2022-05-27T05:54:47Z</time>
      </trkpt>
      <trkpt lat="41.9523720" lon="2.7222360">
        <ele>211.6</ele>
        <time>2022-05-27T05:54:48Z</time>
      </trkpt>
      <trkpt lat="41.9523520" lon="2.7222750">
        <ele>211.2</ele>
        <time>2022-05-27T05:54:49Z</time>
      </trkpt>
      <trkpt lat="41.9523390" lon="2.7223220">
        <ele>211.0</ele>
        <time>2022-05-27T05:54:50Z</time>
      </trkpt>
      <trkpt lat="41.9523310" lon="2.7223690">
        <ele>210.8</ele>
        <time>2022-05-27T05:54:51Z</time>
      </trkpt>
      <trkpt lat="41.9523300" lon="2.7224120">
        <ele>210.8</ele>
        <time>2022-05-27T05:54:52Z</time>
      </trkpt>
      <trkpt lat="41.9523250" lon="2.7224460">
        <ele>210.8</ele>
        <time>2022-05-27T05:54:53Z</time>
      </trkpt>
      <trkpt lat="41.9523180" lon="2.7224750">
        <ele>210.8</ele>
        <time>2022-05-27T05:54:54Z</time>
      </trkpt>
      <trkpt lat="41.9523120" lon="2.7225070">
        <ele>210.8</ele>
        <time>2022-05-27T05:54:55Z</time>
      </trkpt>
      <trkpt lat="41.9523040" lon="2.7225530">
        <ele>210.6</ele>
        <time>2022-05-27T05:54:56Z</time>
      </trkpt>
      <trkpt lat="41.9523020" lon="2.7226140">
        <ele>210.6</ele>
        <time>2022-05-27T05:54:57Z</time>
      </trkpt>
      <trkpt lat="41.9523100" lon="2.7226630">
        <ele>210.4</ele>
        <time>2022-05-27T05:54:58Z</time>
      </trkpt>
      <trkpt lat="41.9523310" lon="2.7226890">
        <ele>210.0</ele>
        <time>2022-05-27T05:54:59Z</time>
      </trkpt>
      <trkpt lat="41.9523660" lon="2.7226920">
        <ele>209.8</ele>
        <time>2022-05-27T05:55:00Z</time>
      </trkpt>
      <trkpt lat="41.9524010" lon="2.7226780">
        <ele>209.6</ele>
        <time>2022-05-27T05:55:01Z</time>
      </trkpt>
      <trkpt lat="41.9524210" lon="2.7226480">
        <ele>209.2</ele>
        <time>2022-05-27T05:55:02Z</time>
      </trkpt>
      <trkpt lat="41.9524460" lon="2.7226380">
        <ele>209.0</ele>
        <time>2022-05-27T05:55:03Z</time>
      </trkpt>
      <trkpt lat="41.9524790" lon="2.7226410">
        <ele>208.6</ele>
        <time>2022-05-27T05:55:04Z</time>
      </trkpt>
      <trkpt lat="41.9525090" lon="2.7226580">
        <ele>208.4</ele>
        <time>2022-05-27T05:55:05Z</time>
      </trkpt>
      <trkpt lat="41.9525240" lon="2.7226900">
        <ele>208.2</ele>
        <time>2022-05-27T05:55:06Z</time>
      </trkpt>
      <trkpt lat="41.9525240" lon="2.7227170">
        <ele>208.0</ele>
        <time>2022-05-27T05:55:07Z</time>
      </trkpt>
      <trkpt lat="41.9525180" lon="2.7227510">
        <ele>207.8</ele>
        <time>2022-05-27T05:55:08Z</time>
      </trkpt>
      <trkpt lat="41.9525070" lon="2.7227920">
        <ele>207.8</ele>
        <time>2022-05-27T05:55:09Z</time>
      </trkpt>
      <trkpt lat="41.9525010" lon="2.7228430">
        <ele>207.6</ele>
        <time>2022-05-27T05:55:10Z</time>
      </trkpt>
      <trkpt lat="41.9525020" lon="2.7229030">
        <ele>207.6</ele>
        <time>2022-05-27T05:55:11Z</time>
      </trkpt>
      <trkpt lat="41.9525080" lon="2.7229670">
        <ele>207.6</ele>
        <time>2022-05-27T05:55:12Z</time>
      </trkpt>
      <trkpt lat="41.9525210" lon="2.7230310">
        <ele>207.6</ele>
        <time>2022-05-27T05:55:13Z</time>
      </trkpt>
      <trkpt lat="41.9525330" lon="2.7231040">
        <ele>207.8</ele>
        <time>2022-05-27T05:55:14Z</time>
      </trkpt>
      <trkpt lat="41.9525500" lon="2.7231710">
        <ele>207.8</ele>
        <time>2022-05-27T05:55:15Z</time>
      </trkpt>
      <trkpt lat="41.9525540" lon="2.7232290">
        <ele>208.0</ele>
        <time>2022-05-27T05:55:16Z</time>
      </trkpt>
      <trkpt lat="41.9525570" lon="2.7232840">
        <ele>208.2</ele>
        <time>2022-05-27T05:55:17Z</time>
      </trkpt>
      <trkpt lat="41.9525550" lon="2.7233280">
        <ele>208.4</ele>
        <time>2022-05-27T05:55:18Z</time>
      </trkpt>
      <trkpt lat="41.9525610" lon="2.7233710">
        <ele>208.6</ele>
        <time>2022-05-27T05:55:19Z</time>
      </trkpt>
      <trkpt lat="41.9525830" lon="2.7234070">
        <ele>208.8</ele>
        <time>2022-05-27T05:55:20Z</time>
      </trkpt>
      <trkpt lat="41.9526200" lon="2.7234470">
        <ele>209.0</ele>
        <time>2022-05-27T05:55:21Z</time>
      </trkpt>
      <trkpt lat="41.9526700" lon="2.7234930">
        <ele>209.4</ele>
        <time>2022-05-27T05:55:22Z</time>
      </trkpt>
      <trkpt lat="41.9527150" lon="2.7235430">
        <ele>209.8</ele>
        <time>2022-05-27T05:55:23Z</time>
      </trkpt>
      <trkpt lat="41.9527680" lon="2.7235970">
        <ele>210.0</ele>
        <time>2022-05-27T05:55:24Z</time>
      </trkpt>
      <trkpt lat="41.9528160" lon="2.7236460">
        <ele>210.2</ele>
        <time>2022-05-27T05:55:25Z</time>
      </trkpt>
      <trkpt lat="41.9528630" lon="2.7236990">
        <ele>210.4</ele>
        <time>2022-05-27T05:55:26Z</time>
      </trkpt>
      <trkpt lat="41.9529110" lon="2.7237690">
        <ele>210.4</ele>
        <time>2022-05-27T05:55:27Z</time>
      </trkpt>
      <trkpt lat="41.9529600" lon="2.7238490">
        <ele>210.4</ele>
        <time>2022-05-27T05:55:28Z</time>
      </trkpt>
      <trkpt lat="41.9530120" lon="2.7239120">
        <ele>210.4</ele>
        <time>2022-05-27T05:55:29Z</time>
      </trkpt>
      <trkpt lat="41.9530850" lon="2.7239690">
        <ele>210.4</ele>
        <time>2022-05-27T05:55:30Z</time>
      </trkpt>
      <trkpt lat="41.9531750" lon="2.7240240">
        <ele>210.4</ele>
        <time>2022-05-27T05:55:31Z</time>
      </trkpt>
      <trkpt lat="41.9532720" lon="2.7240820">
        <ele>210.2</ele>
        <time>2022-05-27T05:55:32Z</time>
      </trkpt>
      <trkpt lat="41.9533440" lon="2.7241350">
        <ele>210.2</ele>
        <time>2022-05-27T05:55:33Z</time>
      </trkpt>
      <trkpt lat="41.9533990" lon="2.7241920">
        <ele>210.0</ele>
        <time>2022-05-27T05:55:34Z</time>
      </trkpt>
      <trkpt lat="41.9534380" lon="2.7242540">
        <ele>210.0</ele>
        <time>2022-05-27T05:55:35Z</time>
      </trkpt>
      <trkpt lat="41.9534600" lon="2.7243150">
        <ele>210.0</ele>
        <time>2022-05-27T05:55:36Z</time>
      </trkpt>
      <trkpt lat="41.9534800" lon="2.7243940">
        <ele>209.8</ele>
        <time>2022-05-27T05:55:37Z</time>
      </trkpt>
      <trkpt lat="41.9534970" lon="2.7244900">
        <ele>209.8</ele>
        <time>2022-05-27T05:55:38Z</time>
      </trkpt>
      <trkpt lat="41.9535100" lon="2.7245940">
        <ele>209.8</ele>
        <time>2022-05-27T05:55:39Z</time>
      </trkpt>
      <trkpt lat="41.9535240" lon="2.7247070">
        <ele>209.4</ele>
        <time>2022-05-27T05:55:40Z</time>
      </trkpt>
      <trkpt lat="41.9535450" lon="2.7248260">
        <ele>209.2</ele>
        <time>2022-05-27T05:55:41Z</time>
      </trkpt>
      <trkpt lat="41.9535630" lon="2.7249520">
        <ele>208.6</ele>
        <time>2022-05-27T05:55:42Z</time>
      </trkpt>
      <trkpt lat="41.9535700" lon="2.7250850">
        <ele>208.4</ele>
        <time>2022-05-27T05:55:43Z</time>
      </trkpt>
      <trkpt lat="41.9535760" lon="2.7252080">
        <ele>208.0</ele>
        <time>2022-05-27T05:55:44Z</time>
      </trkpt>
      <trkpt lat="41.9535840" lon="2.7253060">
        <ele>207.6</ele>
        <time>2022-05-27T05:55:45Z</time>
      </trkpt>
      <trkpt lat="41.9536040" lon="2.7253840">
        <ele>207.0</ele>
        <time>2022-05-27T05:55:46Z</time>
      </trkpt>
      <trkpt lat="41.9536360" lon="2.7254510">
        <ele>206.4</ele>
        <time>2022-05-27T05:55:47Z</time>
      </trkpt>
      <trkpt lat="41.9536720" lon="2.7254970">
        <ele>205.6</ele>
        <time>2022-05-27T05:55:48Z</time>
      </trkpt>
      <trkpt lat="41.9537150" lon="2.7255090">
        <ele>205.0</ele>
        <time>2022-05-27T05:55:49Z</time>
      </trkpt>
      <trkpt lat="41.9537640" lon="2.7254870">
        <ele>204.0</ele>
        <time>2022-05-27T05:55:50Z</time>
      </trkpt>
      <trkpt lat="41.9538180" lon="2.7254140">
        <ele>203.2</ele>
        <time>2022-05-27T05:55:51Z</time>
      </trkpt>
      <trkpt lat="41.9538590" lon="2.7253410">
        <ele>202.4</ele>
        <time>2022-05-27T05:55:52Z</time>
      </trkpt>
      <trkpt lat="41.9538920" lon="2.7252710">
        <ele>201.6</ele>
        <time>2022-05-27T05:55:53Z</time>
      </trkpt>
      <trkpt lat="41.9539250" lon="2.7252090">
        <ele>201.0</ele>
        <time>2022-05-27T05:55:54Z</time>
      </trkpt>
      <trkpt lat="41.9539630" lon="2.7251530">
        <ele>200.2</ele>
        <time>2022-05-27T05:55:55Z</time>
      </trkpt>
      <trkpt lat="41.9540120" lon="2.7251260">
        <ele>199.4</ele>
        <time>2022-05-27T05:55:56Z</time>
      </trkpt>
      <trkpt lat="41.9540810" lon="2.7251130">
        <ele>198.8</ele>
        <time>2022-05-27T05:55:57Z</time>
      </trkpt>
      <trkpt lat="41.9541530" lon="2.7251020">
        <ele>198.0</ele>
        <time>2022-05-27T05:55:58Z</time>
      </trkpt>
      <trkpt lat="41.9542140" lon="2.7250980">
        <ele>197.2</ele>
        <time>2022-05-27T05:55:59Z</time>
      </trkpt>
      <trkpt lat="41.9542870" lon="2.7251070">
        <ele>196.8</ele>
        <time>2022-05-27T05:56:00Z</time>
      </trkpt>
      <trkpt lat="41.9543650" lon="2.7251330">
        <ele>196.2</ele>
        <time>2022-05-27T05:56:01Z</time>
      </trkpt>
      <trkpt lat="41.9544380" lon="2.7251630">
        <ele>195.6</ele>
        <time>2022-05-27T05:56:02Z</time>
      </trkpt>
      <trkpt lat="41.9545000" lon="2.7251910">
        <ele>194.8</ele>
        <time>2022-05-27T05:56:03Z</time>
      </trkpt>
      <trkpt lat="41.9545530" lon="2.7252210">
        <ele>194.4</ele>
        <time>2022-05-27T05:56:04Z</time>
      </trkpt>
      <trkpt lat="41.9546050" lon="2.7252600">
        <ele>193.6</ele>
        <time>2022-05-27T05:56:05Z</time>
      </trkpt>
      <trkpt lat="41.9546560" lon="2.7253220">
        <ele>192.8</ele>
        <time>2022-05-27T05:56:06Z</time>
      </trkpt>
      <trkpt lat="41.9546960" lon="2.7254050">
        <ele>192.0</ele>
        <time>2022-05-27T05:56:07Z</time>
      </trkpt>
      <trkpt lat="41.9547290" lon="2.7254990">
        <ele>191.2</ele>
        <time>2022-05-27T05:56:08Z</time>
      </trkpt>
      <trkpt lat="41.9547680" lon="2.7255940">
        <ele>190.4</ele>
        <time>2022-05-27T05:56:09Z</time>
      </trkpt>
      <trkpt lat="41.9548120" lon="2.7256880">
        <ele>189.6</ele>
        <time>2022-05-27T05:56:10Z</time>
      </trkpt>
      <trkpt lat="41.9548360" lon="2.7257770">
        <ele>188.8</ele>
        <time>2022-05-27T05:56:11Z</time>
      </trkpt>
      <trkpt lat="41.9548490" lon="2.7258490">
        <ele>187.8</ele>
        <time>2022-05-27T05:56:12Z</time>
      </trkpt>
      <trkpt lat="41.9548350" lon="2.7259210">
        <ele>186.8</ele>
        <time>2022-05-27T05:56:13Z</time>
      </trkpt>
      <trkpt lat="41.9548260" lon="2.7259940">
        <ele>185.8</ele>
        <time>2022-05-27T05:56:14Z</time>
      </trkpt>
      <trkpt lat="41.9548220" lon="2.7260650">
        <ele>184.8</ele>
        <time>2022-05-27T05:56:15Z</time>
      </trkpt>
      <trkpt lat="41.9548270" lon="2.7261420">
        <ele>184.0</ele>
        <time>2022-05-27T05:56:16Z</time>
      </trkpt>
      <trkpt lat="41.9548420" lon="2.7262340">
        <ele>183.2</ele>
        <time>2022-05-27T05:56:17Z</time>
      </trkpt>
      <trkpt lat="41.9548560" lon="2.7263430">
        <ele>182.4</ele>
        <time>2022-05-27T05:56:18Z</time>
      </trkpt>
      <trkpt lat="41.9548790" lon="2.7264590">
        <ele>181.6</ele>
        <time>2022-05-27T05:56:19Z</time>
      </trkpt>
      <trkpt lat="41.9549060" lon="2.7265610">
        <ele>180.6</ele>
        <time>2022-05-27T05:56:20Z</time>
      </trkpt>
      <trkpt lat="41.9549220" lon="2.7266520">
        <ele>179.8</ele>
        <time>2022-05-27T05:56:21Z</time>
      </trkpt>
      <trkpt lat="41.9549160" lon="2.7267370">
        <ele>179.0</ele>
        <time>2022-05-27T05:56:22Z</time>
      </trkpt>
      <trkpt lat="41.9549040" lon="2.7268210">
        <ele>178.2</ele>
        <time>2022-05-27T05:56:23Z</time>
      </trkpt>
      <trkpt lat="41.9548870" lon="2.7268950">
        <ele>177.4</ele>
        <time>2022-05-27T05:56:24Z</time>
      </trkpt>
      <trkpt lat="41.9548830" lon="2.7269580">
        <ele>176.8</ele>
        <time>2022-05-27T05:56:25Z</time>
      </trkpt>
      <trkpt lat="41.9548820" lon="2.7270180">
        <ele>176.0</ele>
        <time>2022-05-27T05:56:26Z</time>
      </trkpt>
      <trkpt lat="41.9548790" lon="2.7270790">
        <ele>175.2</ele>
        <time>2022-05-27T05:56:27Z</time>
      </trkpt>
      <trkpt lat="41.9548690" lon="2.7271500">
        <ele>174.2</ele>
        <time>2022-05-27T05:56:28Z</time>
      </trkpt>
      <trkpt lat="41.9548530" lon="2.7272160">
        <ele>173.4</ele>
        <time>2022-05-27T05:56:29Z</time>
      </trkpt>
      <trkpt lat="41.9548400" lon="2.7272620">
        <ele>172.6</ele>
        <time>2022-05-27T05:56:30Z</time>
      </trkpt>
      <trkpt lat="41.9548400" lon="2.7272880">
        <ele>172.0</ele>
        <time>2022-05-27T05:56:31Z</time>
      </trkpt>
      <trkpt lat="41.9548630" lon="2.7272970">
        <ele>171.2</ele>
        <time>2022-05-27T05:56:32Z</time>
      </trkpt>
      <trkpt lat="41.9549100" lon="2.7272910">
        <ele>170.6</ele>
        <time>2022-05-27T05:56:33Z</time>
      </trkpt>
      <trkpt lat="41.9549750" lon="2.7272790">
        <ele>170.0</ele>
        <time>2022-05-27T05:56:34Z</time>
      </trkpt>
      <trkpt lat="41.9550410" lon="2.7272680">
        <ele>169.2</ele>
        <time>2022-05-27T05:56:35Z</time>
      </trkpt>
      <trkpt lat="41.9550960" lon="2.7272600">
        <ele>168.4</ele>
        <time>2022-05-27T05:56:36Z</time>
      </trkpt>
      <trkpt lat="41.9551540" lon="2.7272530">
        <ele>167.6</ele>
        <time>2022-05-27T05:56:37Z</time>
      </trkpt>
      <trkpt lat="41.9552020" lon="2.7272480">
        <ele>167.0</ele>
        <time>2022-05-27T05:56:38Z</time>
      </trkpt>
      <trkpt lat="41.9552430" lon="2.7272460">
        <ele>166.4</ele>
        <time>2022-05-27T05:56:39Z</time>
      </trkpt>
      <trkpt lat="41.9552430" lon="2.7272460">
        <ele>165.6</ele>
        <time>2022-05-27T05:56:40Z</time>
      </trkpt>
      <trkpt lat="41.9553120" lon="2.7272330">
        <ele>165.2</ele>
        <time>2022-05-27T05:56:41Z</time>
      </trkpt>
      <trkpt lat="41.9553460" lon="2.7272250">
        <ele>164.8</ele>
        <time>2022-05-27T05:56:42Z</time>
      </trkpt>
      <trkpt lat="41.9553800" lon="2.7272170">
        <ele>164.4</ele>
        <time>2022-05-27T05:56:43Z</time>
      </trkpt>
      <trkpt lat="41.9554180" lon="2.7272090">
        <ele>164.0</ele>
        <time>2022-05-27T05:56:44Z</time>
      </trkpt>
      <trkpt lat="41.9554570" lon="2.7272040">
        <ele>163.6</ele>
        <time>2022-05-27T05:56:45Z</time>
      </trkpt>
      <trkpt lat="41.9554810" lon="2.7272010">
        <ele>163.0</ele>
        <time>2022-05-27T05:56:46Z</time>
      </trkpt>
      <trkpt lat="41.9555000" lon="2.7271990">
        <ele>162.6</ele>
        <time>2022-05-27T05:56:47Z</time>
      </trkpt>
      <trkpt lat="41.9555220" lon="2.7272020">
        <ele>162.4</ele>
        <time>2022-05-27T05:56:48Z</time>
      </trkpt>
      <trkpt lat="41.9555420" lon="2.7272150">
        <ele>162.0</ele>
        <time>2022-05-27T05:56:49Z</time>
      </trkpt>
      <trkpt lat="41.9555590" lon="2.7272400">
        <ele>161.6</ele>
        <time>2022-05-27T05:56:50Z</time>
      </trkpt>
      <trkpt lat="41.9555740" lon="2.7272760">
        <ele>161.2</ele>
        <time>2022-05-27T05:56:51Z</time>
      </trkpt>
      <trkpt lat="41.9555830" lon="2.7273200">
        <ele>160.8</ele>
        <time>2022-05-27T05:56:52Z</time>
      </trkpt>
      <trkpt lat="41.9555970" lon="2.7273560">
        <ele>160.6</ele>
        <time>2022-05-27T05:56:53Z</time>
      </trkpt>
      <trkpt lat="41.9556170" lon="2.7273930">
        <ele>160.4</ele>
        <time>2022-05-27T05:56:54Z</time>
      </trkpt>
      <trkpt lat="41.9556350" lon="2.7274240">
        <ele>160.2</ele>
        <time>2022-05-27T05:56:55Z</time>
      </trkpt>
      <trkpt lat="41.9556380" lon="2.7274640">
        <ele>160.0</ele>
        <time>2022-05-27T05:56:56Z</time>
      </trkpt>
      <trkpt lat="41.9556390" lon="2.7275110">
        <ele>159.6</ele>
        <time>2022-05-27T05:56:57Z</time>
      </trkpt>
      <trkpt lat="41.9556280" lon="2.7275590">
        <ele>159.4</ele>
        <time>2022-05-27T05:56:58Z</time>
      </trkpt>
      <trkpt lat="41.9556130" lon="2.7276000">
        <ele>159.2</ele>
        <time>2022-05-27T05:56:59Z</time>
      </trkpt>
      <trkpt lat="41.9555970" lon="2.7276380">
        <ele>159.0</ele>
        <time>2022-05-27T05:57:00Z</time>
      </trkpt>
      <trkpt lat="41.9555810" lon="2.7276730">
        <ele>158.8</ele>
        <time>2022-05-27T05:57:01Z</time>
      </trkpt>
      <trkpt lat="41.9555680" lon="2.7277080">
        <ele>158.8</ele>
        <time>2022-05-27T05:57:02Z</time>
      </trkpt>
      <trkpt lat="41.9555570" lon="2.7277430">
        <ele>158.8</ele>
        <time>2022-05-27T05:57:03Z</time>
      </trkpt>
      <trkpt lat="41.9555540" lon="2.7277800">
        <ele>158.8</ele>
        <time>2022-05-27T05:57:04Z</time>
      </trkpt>
      <trkpt lat="41.9555540" lon="2.7278230">
        <ele>159.0</ele>
        <time>2022-05-27T05:57:05Z</time>
      </trkpt>
      <trkpt lat="41.9555490" lon="2.7278660">
        <ele>159.2</ele>
        <time>2022-05-27T05:57:06Z</time>
      </trkpt>
      <trkpt lat="41.9555390" lon="2.7279020">
        <ele>159.4</ele>
        <time>2022-05-27T05:57:07Z</time>
      </trkpt>
      <trkpt lat="41.9555270" lon="2.7279390">
        <ele>159.6</ele>
        <time>2022-05-27T05:57:08Z</time>
      </trkpt>
      <trkpt lat="41.9555180" lon="2.7279790">
        <ele>159.8</ele>
        <time>2022-05-27T05:57:09Z</time>
      </trkpt>
      <trkpt lat="41.9555140" lon="2.7280290">
        <ele>160.2</ele>
        <time>2022-05-27T05:57:10Z</time>
      </trkpt>
      <trkpt lat="41.9555170" lon="2.7280790">
        <ele>160.6</ele>
        <time>2022-05-27T05:57:11Z</time>
      </trkpt>
      <trkpt lat="41.9555220" lon="2.7281230">
        <ele>160.8</ele>
        <time>2022-05-27T05:57:12Z</time>
      </trkpt>
      <trkpt lat="41.9555340" lon="2.7281590">
        <ele>161.2</ele>
        <time>2022-05-27T05:57:13Z</time>
      </trkpt>
      <trkpt lat="41.9555510" lon="2.7281880">
        <ele>161.6</ele>
        <time>2022-05-27T05:57:14Z</time>
      </trkpt>
      <trkpt lat="41.9555720" lon="2.7282170">
        <ele>161.8</ele>
        <time>2022-05-27T05:57:15Z</time>
      </trkpt>
      <trkpt lat="41.9555970" lon="2.7282440">
        <ele>162.2</ele>
        <time>2022-05-27T05:57:16Z</time>
      </trkpt>
      <trkpt lat="41.9556120" lon="2.7282710">
        <ele>162.4</ele>
        <time>2022-05-27T05:57:17Z</time>
      </trkpt>
      <trkpt lat="41.9556330" lon="2.7282950">
        <ele>162.8</ele>
        <time>2022-05-27T05:57:18Z</time>
      </trkpt>
      <trkpt lat="41.9556720" lon="2.7283140">
        <ele>163.2</ele>
        <time>2022-05-27T05:57:19Z</time>
      </trkpt>
      <trkpt lat="41.9557190" lon="2.7283240">
        <ele>163.6</ele>
        <time>2022-05-27T05:57:20Z</time>
      </trkpt>
      <trkpt lat="41.9557580" lon="2.7283300">
        <ele>163.8</ele>
        <time>2022-05-27T05:57:21Z</time>
      </trkpt>
      <trkpt lat="41.9557760" lon="2.7283460">
        <ele>163.8</ele>
        <time>2022-05-27T05:57:22Z</time>
      </trkpt>
      <trkpt lat="41.9557840" lon="2.7283760">
        <ele>163.6</ele>
        <time>2022-05-27T05:57:23Z</time>
      </trkpt>
      <trkpt lat="41.9557840" lon="2.7283760">
        <ele>163.4</ele>
        <time>2022-05-27T05:57:24Z</time>
      </trkpt>
      <trkpt lat="41.9558210" lon="2.7284420">
        <ele>163.2</ele>
        <time>2022-05-27T05:57:25Z</time>
      </trkpt>
      <trkpt lat="41.9558520" lon="2.7284550">
        <ele>162.8</ele>
        <time>2022-05-27T05:57:26Z</time>
      </trkpt>
      <trkpt lat="41.9558840" lon="2.7284630">
        <ele>162.4</ele>
        <time>2022-05-27T05:57:27Z</time>
      </trkpt>
      <trkpt lat="41.9559100" lon="2.7284740">
        <ele>161.8</ele>
        <time>2022-05-27T05:57:28Z</time>
      </trkpt>
      <trkpt lat="41.9559300" lon="2.7284920">
        <ele>161.4</ele>
        <time>2022-05-27T05:57:29Z</time>
      </trkpt>
      <trkpt lat="41.9559350" lon="2.7285160">
        <ele>160.8</ele>
        <time>2022-05-27T05:57:30Z</time>
      </trkpt>
      <trkpt lat="41.9559330" lon="2.7285450">
        <ele>160.2</ele>
        <time>2022-05-27T05:57:31Z</time>
      </trkpt>
      <trkpt lat="41.9559190" lon="2.7285810">
        <ele>159.6</ele>
        <time>2022-05-27T05:57:32Z</time>
      </trkpt>
      <trkpt lat="41.9559000" lon="2.7286230">
        <ele>158.8</ele>
        <time>2022-05-27T05:57:33Z</time>
      </trkpt>
      <trkpt lat="41.9558790" lon="2.7286660">
        <ele>158.0</ele>
        <time>2022-05-27T05:57:34Z</time>
      </trkpt>
      <trkpt lat="41.9558580" lon="2.7287070">
        <ele>157.2</ele>
        <time>2022-05-27T05:57:35Z</time>
      </trkpt>
      <trkpt lat="41.9558390" lon="2.7287320">
        <ele>156.4</ele>
        <time>2022-05-27T05:57:36Z</time>
      </trkpt>
      <trkpt lat="41.9558160" lon="2.7287380">
        <ele>155.8</ele>
        <time>2022-05-27T05:57:37Z</time>
      </trkpt>
      <trkpt lat="41.9557870" lon="2.7287350">
        <ele>155.4</ele>
        <time>2022-05-27T05:57:38Z</time>
      </trkpt>
      <trkpt lat="41.9557610" lon="2.7287240">
        <ele>155.0</ele>
        <time>2022-05-27T05:57:39Z</time>
      </trkpt>
      <trkpt lat="41.9557430" lon="2.7287140">
        <ele>154.6</ele>
        <time>2022-05-27T05:57:40Z</time>
      </trkpt>
      <trkpt lat="41.9557310" lon="2.7287070">
        <ele>154.2</ele>
        <time>2022-05-27T05:57:41Z</time>
      </trkpt>
      <trkpt lat="41.9557240" lon="2.7287050">
        <ele>153.8</ele>
        <time>2022-05-27T05:57:42Z</time>
      </trkpt>
      <trkpt lat="41.9557240" lon="2.7287050">
        <ele>153.6</ele>
        <time>2022-05-27T05:57:43Z</time>
      </trkpt>
      <trkpt lat="41.9557210" lon="2.7287060">
        <ele>153.2</ele>
        <time>2022-05-27T05:57:44Z</time>
      </trkpt>
      <trkpt lat="41.9557160" lon="2.7287110">
        <ele>152.8</ele>
        <time>2022-05-27T05:57:45Z</time>
      </trkpt>
      <trkpt lat="41.9557070" lon="2.7287240">
        <ele>152.4</ele>
        <time>2022-05-27T05:57:46Z</time>
      </trkpt>
      <trkpt lat="41.9556970" lon="2.7287420">
        <ele>152.0</ele>
        <time>2022-05-27T05:57:47Z</time>
      </trkpt>
      <trkpt lat="41.9556940" lon="2.7287640">
        <ele>151.8</ele>
        <time>2022-05-27T05:57:48Z</time>
      </trkpt>
      <trkpt lat="41.9557010" lon="2.7287840">
        <ele>151.4</ele>
        <time>2022-05-27T05:57:49Z</time>
      </trkpt>
      <trkpt lat="41.9557190" lon="2.7288000">
        <ele>151.2</ele>
        <time>2022-05-27T05:57:50Z</time>
      </trkpt>
      <trkpt lat="41.9557370" lon="2.7288100">
        <ele>150.8</ele>
        <time>2022-05-27T05:57:51Z</time>
      </trkpt>
      <trkpt lat="41.9557530" lon="2.7288190">
        <ele>150.6</ele>
        <time>2022-05-27T05:57:52Z</time>
      </trkpt>
      <trkpt lat="41.9557770" lon="2.7288270">
        <ele>150.4</ele>
        <time>2022-05-27T05:57:53Z</time>
      </trkpt>
      <trkpt lat="41.9558070" lon="2.7288310">
        <ele>150.0</ele>
        <time>2022-05-27T05:57:54Z</time>
      </trkpt>
      <trkpt lat="41.9558330" lon="2.7288350">
        <ele>149.8</ele>
        <time>2022-05-27T05:57:55Z</time>
      </trkpt>
      <trkpt lat="41.9558540" lon="2.7288510">
        <ele>149.2</ele>
        <time>2022-05-27T05:57:56Z</time>
      </trkpt>
      <trkpt lat="41.9558730" lon="2.7288730">
        <ele>148.8</ele>
        <time>2022-05-27T05:57:57Z</time>
      </trkpt>
      <trkpt lat="41.9558980" lon="2.7288890">
        <ele>148.2</ele>
        <time>2022-05-27T05:57:58Z</time>
      </trkpt>
      <trkpt lat="41.9559270" lon="2.7288970">
        <ele>147.6</ele>
        <time>2022-05-27T05:57:59Z</time>
      </trkpt>
      <trkpt lat="41.9559530" lon="2.7288990">
        <ele>147.0</ele>
        <time>2022-05-27T05:58:00Z</time>
      </trkpt>
      <trkpt lat="41.9559730" lon="2.7289010">
        <ele>146.4</ele>
        <time>2022-05-27T05:58:01Z</time>
      </trkpt>
      <trkpt lat="41.9559910" lon="2.7289090">
        <ele>145.6</ele>
        <time>2022-05-27T05:58:02Z</time>
      </trkpt>
      <trkpt lat="41.9560050" lon="2.7289310">
        <ele>144.6</ele>
        <time>2022-05-27T05:58:03Z</time>
      </trkpt>
      <trkpt lat="41.9560050" lon="2.7289700">
        <ele>143.6</ele>
        <time>2022-05-27T05:58:04Z</time>
      </trkpt>
      <trkpt lat="41.9560020" lon="2.7290220">
        <ele>142.8</ele>
        <time>2022-05-27T05:58:05Z</time>
      </trkpt>
      <trkpt lat="41.9559920" lon="2.7290690">
        <ele>142.0</ele>
        <time>2022-05-27T05:58:06Z</time>
      </trkpt>
      <trkpt lat="41.9559800" lon="2.7291050">
        <ele>141.0</ele>
        <time>2022-05-27T05:58:07Z</time>
      </trkpt>
      <trkpt lat="41.9559800" lon="2.7291050">
        <ele>140.2</ele>
        <time>2022-05-27T05:58:08Z</time>
      </trkpt>
      <trkpt lat="41.9559360" lon="2.7291760">
        <ele>139.2</ele>
        <time>2022-05-27T05:58:09Z</time>
      </trkpt>
      <trkpt lat="41.9559360" lon="2.7291760">
        <ele>138.4</ele>
        <time>2022-05-27T05:58:10Z</time>
      </trkpt>
      <trkpt lat="41.9558690" lon="2.7292180">
        <ele>137.6</ele>
        <time>2022-05-27T05:58:11Z</time>
      </trkpt>
      <trkpt lat="41.9558430" lon="2.7292350">
        <ele>136.8</ele>
        <time>2022-05-27T05:58:12Z</time>
      </trkpt>
      <trkpt lat="41.9558360" lon="2.7292600">
        <ele>135.8</ele>
        <time>2022-05-27T05:58:13Z</time>
      </trkpt>
      <trkpt lat="41.9558320" lon="2.7292800">
        <ele>135.0</ele>
        <time>2022-05-27T05:58:14Z</time>
      </trkpt>
      <trkpt lat="41.9558370" lon="2.7292940">
        <ele>134.4</ele>
        <time>2022-05-27T05:58:15Z</time>
      </trkpt>
      <trkpt lat="41.9558330" lon="2.7293020">
        <ele>133.6</ele>
        <time>2022-05-27T05:58:16Z</time>
      </trkpt>
      <trkpt lat="41.9558250" lon="2.7293090">
        <ele>132.8</ele>
        <time>2022-05-27T05:58:17Z</time>
      </trkpt>
      <trkpt lat="41.9558120" lon="2.7293230">
        <ele>132.2</ele>
        <time>2022-05-27T05:58:18Z</time>
      </trkpt>
      <trkpt lat="41.9558040" lon="2.7293420">
        <ele>131.4</ele>
        <time>2022-05-27T05:58:19Z</time>
      </trkpt>
      <trkpt lat="41.9558070" lon="2.7293600">
        <ele>130.8</ele>
        <time>2022-05-27T05:58:20Z</time>
      </trkpt>
      <trkpt lat="41.9558240" lon="2.7293750">
        <ele>130.2</ele>
        <time>2022-05-27T05:58:21Z</time>
      </trkpt>
      <trkpt lat="41.9558550" lon="2.7293900">
        <ele>129.6</ele>
        <time>2022-05-27T05:58:22Z</time>
      </trkpt>
      <trkpt lat="41.9558880" lon="2.7294010">
        <ele>129.0</ele>
        <time>2022-05-27T05:58:23Z</time>
      </trkpt>
      <trkpt lat="41.9559180" lon="2.7294080">
        <ele>128.4</ele>
        <time>2022-05-27T05:58:24Z</time>
      </trkpt>
      <trkpt lat="41.9559550" lon="2.7294130">
        <ele>127.8</ele>
        <time>2022-05-27T05:58:25Z</time>
      </trkpt>
      <trkpt lat="41.9559890" lon="2.7294200">
        <ele>127.0</ele>
        <time>2022-05-27T05:58:26Z</time>
      </trkpt>
      <trkpt lat="41.9560140" lon="2.7294300">
        <ele>126.4</ele>
        <time>2022-05-27T05:58:27Z</time>
      </trkpt>
      <trkpt lat="41.9560240" lon="2.7294420">
        <ele>125.8</ele>
        <time>2022-05-27T05:58:28Z</time>
      </trkpt>
      <trkpt lat="41.9560220" lon="2.7294590">
        <ele>125.4</ele>
        <time>2022-05-27T05:58:29Z</time>
      </trkpt>
      <trkpt lat="41.9560140" lon="2.7294730">
        <ele>125.0</ele>
        <time>2022-05-27T05:58:30Z</time>
      </trkpt>
      <trkpt lat="41.9559990" lon="2.7294870">
        <ele>124.4</ele>
        <time>2022-05-27T05:58:31Z</time>
      </trkpt>
      <trkpt lat="41.9559990" lon="2.7294870">
        <ele>123.8</ele>
        <time>2022-05-27T05:58:32Z</time>
      </trkpt>
      <trkpt lat="41.9559740" lon="2.7295450">
        <ele>123.2</ele>
        <time>2022-05-27T05:58:33Z</time>
      </trkpt>
      <trkpt lat="41.9559670" lon="2.7295680">
        <ele>122.6</ele>
        <time>2022-05-27T05:58:34Z</time>
      </trkpt>
      <trkpt lat="41.9559700" lon="2.7295840">
        <ele>122.2</ele>
        <time>2022-05-27T05:58:35Z</time>
      </trkpt>
      <trkpt lat="41.9559890" lon="2.7295960">
        <ele>121.6</ele>
        <time>2022-05-27T05:58:36Z</time>
      </trkpt>
      <trkpt lat="41.9560140" lon="2.7296010">
        <ele>121.2</ele>
        <time>2022-05-27T05:58:37Z</time>
      </trkpt>
      <trkpt lat="41.9560380" lon="2.7296130">
        <ele>120.6</ele>
        <time>2022-05-27T05:58:38Z</time>
      </trkpt>
      <trkpt lat="41.9560440" lon="2.7296200">
        <ele>120.2</ele>
        <time>2022-05-27T05:58:39Z</time>
      </trkpt>
      <trkpt lat="41.9560500" lon="2.7296280">
        <ele>119.6</ele>
        <time>2022-05-27T05:58:40Z</time>
      </trkpt>
      <trkpt lat="41.9560560" lon="2.7296350">
        <ele>119.0</ele>
        <time>2022-05-27T05:58:41Z</time>
      </trkpt>
      <trkpt lat="41.9560610" lon="2.7296420">
        <ele>118.4</ele>
        <time>2022-05-27T05:58:42Z</time>
      </trkpt>
      <trkpt lat="41.9560670" lon="2.7296490">
        <ele>118.0</ele>
        <time>2022-05-27T05:58:43Z</time>
      </trkpt>
      <trkpt lat="41.9560730" lon="2.7296570">
        <ele>117.6</ele>
        <time>2022-05-27T05:58:44Z</time>
      </trkpt>
      <trkpt lat="41.9560790" lon="2.7296640">
        <ele>117.2</ele>
        <time>2022-05-27T05:58:45Z</time>
      </trkpt>
      <trkpt lat="41.9560850" lon="2.7296710">
        <ele>117.2</ele>
        <time>2022-05-27T05:58:46Z</time>
      </trkpt>
      <trkpt lat="41.9560910" lon="2.7296780">
        <ele>117.2</ele>
        <time>2022-05-27T05:58:47Z</time>
      </trkpt>
      <trkpt lat="41.9560960" lon="2.7296860">
        <ele>117.2</ele>
        <time>2022-05-27T05:58:48Z</time>
      </trkpt>
      <trkpt lat="41.9561020" lon="2.7296930">
        <ele>117.2</ele>
        <time>2022-05-27T05:58:49Z</time>
      </trkpt>
      <trkpt lat="41.9561080" lon="2.7297000">
        <ele>117.2</ele>
        <time>2022-05-27T05:58:50Z</time>
      </trkpt>
      <trkpt lat="41.9561140" lon="2.7297070">
        <ele>117.2</ele>
        <time>2022-05-27T05:58:51Z</time>
      </trkpt>
      <trkpt lat="41.9561200" lon="2.7297150">
        <ele>117.8</ele>
        <time>2022-05-27T05:59:23Z</time>
      </trkpt>
      <trkpt lat="41.9561250" lon="2.7297220">
        <ele>117.6</ele>
        <time>2022-05-27T05:59:24Z</time>
      </trkpt>
      <trkpt lat="41.9561490" lon="2.7297230">
        <ele>117.4</ele>
        <time>2022-05-27T05:59:25Z</time>
      </trkpt>
      <trkpt lat="41.9561690" lon="2.7297240">
        <ele>117.4</ele>
        <time>2022-05-27T05:59:26Z</time>
      </trkpt>
      <trkpt lat="41.9561870" lon="2.7297240">
        <ele>117.2</ele>
        <time>2022-05-27T05:59:27Z</time>
      </trkpt>
      <trkpt lat="41.9562020" lon="2.7297240">
        <ele>117.0</ele>
        <time>2022-05-27T05:59:28Z</time>
      </trkpt>
      <trkpt lat="41.9562130" lon="2.7297290">
        <ele>117.0</ele>
        <time>2022-05-27T05:59:29Z</time>
      </trkpt>
      <trkpt lat="41.9562280" lon="2.7297450">
        <ele>117.0</ele>
        <time>2022-05-27T05:59:30Z</time>
      </trkpt>
      <trkpt lat="41.9562540" lon="2.7297670">
        <ele>116.8</ele>
        <time>2022-05-27T05:59:31Z</time>
      </trkpt>
      <trkpt lat="41.9562800" lon="2.7297930">
        <ele>116.8</ele>
        <time>2022-05-27T05:59:32Z</time>
      </trkpt>
      <trkpt lat="41.9562900" lon="2.7298030">
        <ele>116.6</ele>
        <time>2022-05-27T05:59:33Z</time>
      </trkpt>
      <trkpt lat="41.9562960" lon="2.7298100">
        <ele>116.6</ele>
        <time>2022-05-27T05:59:34Z</time>
      </trkpt>
      <trkpt lat="41.9562830" lon="2.7298100">
        <ele>116.6</ele>
        <time>2022-05-27T05:59:35Z</time>
      </trkpt>
      <trkpt lat="41.9562770" lon="2.7298100">
        <ele>116.4</ele>
        <time>2022-05-27T05:59:36Z</time>
      </trkpt>
      <trkpt lat="41.9562730" lon="2.7298100">
        <ele>116.4</ele>
        <time>2022-05-27T05:59:37Z</time>
      </trkpt>
      <trkpt lat="41.9562710" lon="2.7298100">
        <ele>116.4</ele>
        <time>2022-05-27T05:59:38Z</time>
      </trkpt>
      <trkpt lat="41.9562710" lon="2.7298080">
        <ele>116.4</ele>
        <time>2022-05-27T05:59:39Z</time>
      </trkpt>
      <trkpt lat="41.9562710" lon="2.7298070">
        <ele>116.4</ele>
        <time>2022-05-27T05:59:40Z</time>
      </trkpt>
      <trkpt lat="41.9562710" lon="2.7298060">
        <ele>116.4</ele>
        <time>2022-05-27T05:59:41Z</time>
      </trkpt>
      <trkpt lat="41.9562700" lon="2.7298060">
        <ele>116.2</ele>
        <time>2022-05-27T05:59:42Z</time>
      </trkpt>
      <trkpt lat="41.9562680" lon="2.7298050">
        <ele>116.2</ele>
        <time>2022-05-27T05:59:43Z</time>
      </trkpt>
      <trkpt lat="41.9562670" lon="2.7298030">
        <ele>116.2</ele>
        <time>2022-05-27T05:59:44Z</time>
      </trkpt>
      <trkpt lat="41.9562650" lon="2.7298020">
        <ele>116.2</ele>
        <time>2022-05-27T05:59:45Z</time>
      </trkpt>
      <trkpt lat="41.9562620" lon="2.7298000">
        <ele>116.2</ele>
        <time>2022-05-27T05:59:46Z</time>
      </trkpt>
      <trkpt lat="41.9562600" lon="2.7297990">
        <ele>116.2</ele>
        <time>2022-05-27T05:59:47Z</time>
      </trkpt>
      <trkpt lat="41.9562580" lon="2.7297990">
        <ele>116.2</ele>
        <time>2022-05-27T05:59:48Z</time>
      </trkpt>
      <trkpt lat="41.9562580" lon="2.7298010">
        <ele>116.4</ele>
        <time>2022-05-27T05:59:49Z</time>
      </trkpt>
      <trkpt lat="41.9562600" lon="2.7298060">
        <ele>116.2</ele>
        <time>2022-05-27T05:59:50Z</time>
      </trkpt>
      <trkpt lat="41.9563870" lon="2.7298880">
        <ele>116.2</ele>
        <time>2022-05-27T06:00:17Z</time>
      </trkpt>
      <trkpt lat="41.9564080" lon="2.7298930">
        <ele>116.2</ele>
        <time>2022-05-27T06:00:18Z</time>
      </trkpt>
      <trkpt lat="41.9564400" lon="2.7298980">
        <ele>116.2</ele>
        <time>2022-05-27T06:00:19Z</time>
      </trkpt>
      <trkpt lat="41.9564760" lon="2.7299050">
        <ele>116.0</ele>
        <time>2022-05-27T06:00:20Z</time>
      </trkpt>
      <trkpt lat="41.9565130" lon="2.7299140">
        <ele>116.0</ele>
        <time>2022-05-27T06:00:21Z</time>
      </trkpt>
      <trkpt lat="41.9565480" lon="2.7299210">
        <ele>116.0</ele>
        <time>2022-05-27T06:00:22Z</time>
      </trkpt>
      <trkpt lat="41.9565800" lon="2.7299270">
        <ele>116.0</ele>
        <time>2022-05-27T06:00:23Z</time>
      </trkpt>
      <trkpt lat="41.9566140" lon="2.7299340">
        <ele>116.0</ele>
        <time>2022-05-27T06:00:24Z</time>
      </trkpt>
      <trkpt lat="41.9566440" lon="2.7299410">
        <ele>115.8</ele>
        <time>2022-05-27T06:00:25Z</time>
      </trkpt>
      <trkpt lat="41.9566710" lon="2.7299440">
        <ele>115.8</ele>
        <time>2022-05-27T06:00:26Z</time>
      </trkpt>
      <trkpt lat="41.9567020" lon="2.7299450">
        <ele>115.6</ele>
        <time>2022-05-27T06:00:27Z</time>
      </trkpt>
      <trkpt lat="41.9567370" lon="2.7299490">
        <ele>115.6</ele>
        <time>2022-05-27T06:00:28Z</time>
      </trkpt>
      <trkpt lat="41.9567800" lon="2.7299580">
        <ele>115.6</ele>
        <time>2022-05-27T06:00:29Z</time>
      </trkpt>
      <trkpt lat="41.9568220" lon="2.7299690">
        <ele>115.6</ele>
        <time>2022-05-27T06:00:30Z</time>
      </trkpt>
      <trkpt lat="41.9568600" lon="2.7299810">
        <ele>115.6</ele>
        <time>2022-05-27T06:00:31Z</time>
      </trkpt>
      <trkpt lat="41.9569040" lon="2.7299950">
        <ele>115.8</ele>
        <time>2022-05-27T06:00:32Z</time>
      </trkpt>
      <trkpt lat="41.9569500" lon="2.7300110">
        <ele>115.8</ele>
        <time>2022-05-27T06:00:33Z</time>
      </trkpt>
      <trkpt lat="41.9570070" lon="2.7300320">
        <ele>116.0</ele>
        <time>2022-05-27T06:00:34Z</time>
      </trkpt>
      <trkpt lat="41.9570680" lon="2.7300630">
        <ele>116.2</ele>
        <time>2022-05-27T06:00:35Z</time>
      </trkpt>
      <trkpt lat="41.9571230" lon="2.7300950">
        <ele>116.4</ele>
        <time>2022-05-27T06:00:36Z</time>
      </trkpt>
      <trkpt lat="41.9571800" lon="2.7301250">
        <ele>116.8</ele>
        <time>2022-05-27T06:00:37Z</time>
      </trkpt>
      <trkpt lat="41.9572450" lon="2.7301480">
        <ele>117.4</ele>
        <time>2022-05-27T06:00:38Z</time>
      </trkpt>
      <trkpt lat="41.9573210" lon="2.7301690">
        <ele>118.0</ele>
        <time>2022-05-27T06:00:39Z</time>
      </trkpt>
      <trkpt lat="41.9574010" lon="2.7301940">
        <ele>118.2</ele>
        <time>2022-05-27T06:00:40Z</time>
      </trkpt>
      <trkpt lat="41.9574840" lon="2.7302360">
        <ele>118.6</ele>
        <time>2022-05-27T06:00:41Z</time>
      </trkpt>
      <trkpt lat="41.9575710" lon="2.7302980">
        <ele>119.4</ele>
        <time>2022-05-27T06:00:42Z</time>
      </trkpt>
      <trkpt lat="41.9576550" lon="2.7303690">
        <ele>120.0</ele>
        <time>2022-05-27T06:00:43Z</time>
      </trkpt>
      <trkpt lat="41.9577290" lon="2.7304430">
        <ele>120.8</ele>
        <time>2022-05-27T06:00:44Z</time>
      </trkpt>
      <trkpt lat="41.9577920" lon="2.7305170">
        <ele>121.8</ele>
        <time>2022-05-27T06:00:45Z</time>
      </trkpt>
      <trkpt lat="41.9578500" lon="2.7305900">
        <ele>122.6</ele>
        <time>2022-05-27T06:00:46Z</time>
      </trkpt>
      <trkpt lat="41.9579080" lon="2.7306590">
        <ele>123.6</ele>
        <time>2022-05-27T06:00:47Z</time>
      </trkpt>
      <trkpt lat="41.9579670" lon="2.7307240">
        <ele>124.4</ele>
        <time>2022-05-27T06:00:48Z</time>
      </trkpt>
      <trkpt lat="41.9580240" lon="2.7307850">
        <ele>125.4</ele>
        <time>2022-05-27T06:00:49Z</time>
      </trkpt>
      <trkpt lat="41.9580810" lon="2.7308470">
        <ele>126.2</ele>
        <time>2022-05-27T06:00:50Z</time>
      </trkpt>
      <trkpt lat="41.9581380" lon="2.7309080">
        <ele>127.0</ele>
        <time>2022-05-27T06:00:51Z</time>
      </trkpt>
      <trkpt lat="41.9581930" lon="2.7309640">
        <ele>128.0</ele>
        <time>2022-05-27T06:00:52Z</time>
      </trkpt>
      <trkpt lat="41.9582420" lon="2.7310170">
        <ele>128.8</ele>
        <time>2022-05-27T06:00:53Z</time>
      </trkpt>
      <trkpt lat="41.9582810" lon="2.7310740">
        <ele>129.6</ele>
        <time>2022-05-27T06:00:54Z</time>
      </trkpt>
      <trkpt lat="41.9583060" lon="2.7311400">
        <ele>130.4</ele>
        <time>2022-05-27T06:00:55Z</time>
      </trkpt>
      <trkpt lat="41.9583360" lon="2.7312060">
        <ele>131.2</ele>
        <time>2022-05-27T06:00:56Z</time>
      </trkpt>
      <trkpt lat="41.9583710" lon="2.7312710">
        <ele>131.8</ele>
        <time>2022-05-27T06:00:57Z</time>
      </trkpt>
      <trkpt lat="41.9584020" lon="2.7313380">
        <ele>132.6</ele>
        <time>2022-05-27T06:00:58Z</time>
      </trkpt>
      <trkpt lat="41.9584190" lon="2.7313930">
        <ele>133.2</ele>
        <time>2022-05-27T06:00:59Z</time>
      </trkpt>
      <trkpt lat="41.9584260" lon="2.7314190">
        <ele>133.6</ele>
        <time>2022-05-27T06:01:00Z</time>
      </trkpt>
      <trkpt lat="41.9584350" lon="2.7314300">
        <ele>134.2</ele>
        <time>2022-05-27T06:01:01Z</time>
      </trkpt>
      <trkpt lat="41.9584390" lon="2.7314460">
        <ele>134.6</ele>
        <time>2022-05-27T06:01:02Z</time>
      </trkpt>
      <trkpt lat="41.9584440" lon="2.7314740">
        <ele>135.0</ele>
        <time>2022-05-27T06:01:03Z</time>
      </trkpt>
      <trkpt lat="41.9584490" lon="2.7315030">
        <ele>135.4</ele>
        <time>2022-05-27T06:01:04Z</time>
      </trkpt>
      <trkpt lat="41.9584530" lon="2.7315270">
        <ele>135.6</ele>
        <time>2022-05-27T06:01:05Z</time>
      </trkpt>
      <trkpt lat="41.9584540" lon="2.7315430">
        <ele>135.8</ele>
        <time>2022-05-27T06:01:06Z</time>
      </trkpt>
      <trkpt lat="41.9584560" lon="2.7315630">
        <ele>136.0</ele>
        <time>2022-05-27T06:01:07Z</time>
      </trkpt>
      <trkpt lat="41.9584660" lon="2.7315910">
        <ele>136.2</ele>
        <time>2022-05-27T06:01:08Z</time>
      </trkpt>
      <trkpt lat="41.9584850" lon="2.7316190">
        <ele>136.2</ele>
        <time>2022-05-27T06:01:09Z</time>
      </trkpt>
      <trkpt lat="41.9585130" lon="2.7316460">
        <ele>136.2</ele>
        <time>2022-05-27T06:01:10Z</time>
      </trkpt>
      <trkpt lat="41.9585420" lon="2.7316740">
        <ele>136.2</ele>
        <time>2022-05-27T06:01:11Z</time>
      </trkpt>
      <trkpt lat="41.9585760" lon="2.7317020">
        <ele>136.2</ele>
        <time>2022-05-27T06:01:12Z</time>
      </trkpt>
      <trkpt lat="41.9586200" lon="2.7317270">
        <ele>136.2</ele>
        <time>2022-05-27T06:01:13Z</time>
      </trkpt>
      <trkpt lat="41.9586740" lon="2.7317560">
        <ele>136.0</ele>
        <time>2022-05-27T06:01:14Z</time>
      </trkpt>
      <trkpt lat="41.9587340" lon="2.7317920">
        <ele>135.8</ele>
        <time>2022-05-27T06:01:15Z</time>
      </trkpt>
      <trkpt lat="41.9587960" lon="2.7318300">
        <ele>135.4</ele>
        <time>2022-05-27T06:01:16Z</time>
      </trkpt>
      <trkpt lat="41.9588570" lon="2.7318620">
        <ele>135.2</ele>
        <time>2022-05-27T06:01:17Z</time>
      </trkpt>
      <trkpt lat="41.9589110" lon="2.7318860">
        <ele>134.6</ele>
        <time>2022-05-27T06:01:18Z</time>
      </trkpt>
      <trkpt lat="41.9589700" lon="2.7319140">
        <ele>134.2</ele>
        <time>2022-05-27T06:01:19Z</time>
      </trkpt>
      <trkpt lat="41.9590410" lon="2.7319500">
        <ele>133.8</ele>
        <time>2022-05-27T06:01:20Z</time>
      </trkpt>
      <trkpt lat="41.9591060" lon="2.7319780">
        <ele>133.2</ele>
        <time>2022-05-27T06:01:21Z</time>
      </trkpt>
      <trkpt lat="41.9591590" lon="2.7319960">
        <ele>132.8</ele>
        <time>2022-05-27T06:01:22Z</time>
      </trkpt>
      <trkpt lat="41.9591940" lon="2.7320060">
        <ele>132.4</ele>
        <time>2022-05-27T06:01:23Z</time>
      </trkpt>
      <trkpt lat="41.9592180" lon="2.7320120">
        <ele>132.0</ele>
        <time>2022-05-27T06:01:24Z</time>
      </trkpt>
      <trkpt lat="41.9592430" lon="2.7320180">
        <ele>131.4</ele>
        <time>2022-05-27T06:01:25Z</time>
      </trkpt>
      <trkpt lat="41.9592730" lon="2.7320290">
        <ele>131.0</ele>
        <time>2022-05-27T06:01:26Z</time>
      </trkpt>
      <trkpt lat="41.9592950" lon="2.7320440">
        <ele>130.4</ele>
        <time>2022-05-27T06:01:27Z</time>
      </trkpt>
      <trkpt lat="41.9593120" lon="2.7320550">
        <ele>130.0</ele>
        <time>2022-05-27T06:01:28Z</time>
      </trkpt>
      <trkpt lat="41.9593460" lon="2.7320650">
        <ele>129.6</ele>
        <time>2022-05-27T06:01:29Z</time>
      </trkpt>
      <trkpt lat="41.9593910" lon="2.7320840">
        <ele>129.0</ele>
        <time>2022-05-27T06:01:30Z</time>
      </trkpt>
      <trkpt lat="41.9594330" lon="2.7321140">
        <ele>128.4</ele>
        <time>2022-05-27T06:01:31Z</time>
      </trkpt>
      <trkpt lat="41.9594730" lon="2.7321520">
        <ele>127.8</ele>
        <time>2022-05-27T06:01:32Z</time>
      </trkpt>
      <trkpt lat="41.9595110" lon="2.7321890">
        <ele>127.2</ele>
        <time>2022-05-27T06:01:33Z</time>
      </trkpt>
      <trkpt lat="41.9595450" lon="2.7322180">
        <ele>126.8</ele>
        <time>2022-05-27T06:01:34Z</time>
      </trkpt>
      <trkpt lat="41.9595870" lon="2.7322420">
        <ele>126.2</ele>
        <time>2022-05-27T06:01:35Z</time>
      </trkpt>
      <trkpt lat="41.9596370" lon="2.7322670">
        <ele>125.6</ele>
        <time>2022-05-27T06:01:36Z</time>
      </trkpt>
      <trkpt lat="41.9596740" lon="2.7322900">
        <ele>125.0</ele>
        <time>2022-05-27T06:01:37Z</time>
      </trkpt>
      <trkpt lat="41.9596830" lon="2.7323080">
        <ele>124.6</ele>
        <time>2022-05-27T06:01:38Z</time>
      </trkpt>
      <trkpt lat="41.9596840" lon="2.7323260">
        <ele>124.0</ele>
        <time>2022-05-27T06:01:39Z</time>
      </trkpt>
      <trkpt lat="41.9596650" lon="2.7323620">
        <ele>123.6</ele>
        <time>2022-05-27T06:01:40Z</time>
      </trkpt>
      <trkpt lat="41.9596350" lon="2.7324180">
        <ele>123.0</ele>
        <time>2022-05-27T06:01:41Z</time>
      </trkpt>
      <trkpt lat="41.9596260" lon="2.7324810">
        <ele>122.4</ele>
        <time>2022-05-27T06:01:42Z</time>
      </trkpt>
      <trkpt lat="41.9596200" lon="2.7325360">
        <ele>122.0</ele>
        <time>2022-05-27T06:01:43Z</time>
      </trkpt>
      <trkpt lat="41.9596200" lon="2.7325690">
        <ele>121.6</ele>
        <time>2022-05-27T06:01:44Z</time>
      </trkpt>
      <trkpt lat="41.9596220" lon="2.7325810">
        <ele>121.2</ele>
        <time>2022-05-27T06:01:45Z</time>
      </trkpt>
      <trkpt lat="41.9596240" lon="2.7325830">
        <ele>120.8</ele>
        <time>2022-05-27T06:01:46Z</time>
      </trkpt>
      <trkpt lat="41.9596240" lon="2.7325820">
        <ele>120.6</ele>
        <time>2022-05-27T06:01:47Z</time>
      </trkpt>
      <trkpt lat="41.9596290" lon="2.7325840">
        <ele>120.6</ele>
        <time>2022-05-27T06:01:48Z</time>
      </trkpt>
      <trkpt lat="41.9596390" lon="2.7325960">
        <ele>120.6</ele>
        <time>2022-05-27T06:01:49Z</time>
      </trkpt>
      <trkpt lat="41.9596540" lon="2.7326190">
        <ele>120.2</ele>
        <time>2022-05-27T06:01:50Z</time>
      </trkpt>
      <trkpt lat="41.9596680" lon="2.7326450">
        <ele>119.8</ele>
        <time>2022-05-27T06:01:51Z</time>
      </trkpt>
      <trkpt lat="41.9596760" lon="2.7326750">
        <ele>119.2</ele>
        <time>2022-05-27T06:01:52Z</time>
      </trkpt>
      <trkpt lat="41.9596760" lon="2.7327140">
        <ele>118.8</ele>
        <time>2022-05-27T06:01:53Z</time>
      </trkpt>
      <trkpt lat="41.9596640" lon="2.7327510">
        <ele>118.4</ele>
        <time>2022-05-27T06:01:54Z</time>
      </trkpt>
      <trkpt lat="41.9596480" lon="2.7327860">
        <ele>118.0</ele>
        <time>2022-05-27T06:01:55Z</time>
      </trkpt>
      <trkpt lat="41.9596380" lon="2.7328200">
        <ele>117.4</ele>
        <time>2022-05-27T06:01:56Z</time>
      </trkpt>
      <trkpt lat="41.9596370" lon="2.7328490">
        <ele>117.0</ele>
        <time>2022-05-27T06:01:57Z</time>
      </trkpt>
      <trkpt lat="41.9596500" lon="2.7328700">
        <ele>116.4</ele>
        <time>2022-05-27T06:01:58Z</time>
      </trkpt>
      <trkpt lat="41.9596770" lon="2.7328860">
        <ele>115.8</ele>
        <time>2022-05-27T06:01:59Z</time>
      </trkpt>
      <trkpt lat="41.9597040" lon="2.7329030">
        <ele>115.2</ele>
        <time>2022-05-27T06:02:00Z</time>
      </trkpt>
      <trkpt lat="41.9597290" lon="2.7329270">
        <ele>114.6</ele>
        <time>2022-05-27T06:02:01Z</time>
      </trkpt>
      <trkpt lat="41.9597600" lon="2.7329570">
        <ele>114.0</ele>
        <time>2022-05-27T06:02:02Z</time>
      </trkpt>
      <trkpt lat="41.9597910" lon="2.7329950">
        <ele>113.2</ele>
        <time>2022-05-27T06:02:03Z</time>
      </trkpt>
      <trkpt lat="41.9598150" lon="2.7330340">
        <ele>112.6</ele>
        <time>2022-05-27T06:02:04Z</time>
      </trkpt>
      <trkpt lat="41.9598250" lon="2.7330630">
        <ele>112.2</ele>
        <time>2022-05-27T06:02:05Z</time>
      </trkpt>
      <trkpt lat="41.9598250" lon="2.7330870">
        <ele>111.4</ele>
        <time>2022-05-27T06:02:06Z</time>
      </trkpt>
      <trkpt lat="41.9598210" lon="2.7331100">
        <ele>111.0</ele>
        <time>2022-05-27T06:02:07Z</time>
      </trkpt>
      <trkpt lat="41.9598190" lon="2.7331330">
        <ele>110.4</ele>
        <time>2022-05-27T06:02:08Z</time>
      </trkpt>
      <trkpt lat="41.9598230" lon="2.7331540">
        <ele>110.0</ele>
        <time>2022-05-27T06:02:09Z</time>
      </trkpt>
      <trkpt lat="41.9598420" lon="2.7331710">
        <ele>109.8</ele>
        <time>2022-05-27T06:02:10Z</time>
      </trkpt>
      <trkpt lat="41.9598760" lon="2.7331850">
        <ele>109.4</ele>
        <time>2022-05-27T06:02:11Z</time>
      </trkpt>
      <trkpt lat="41.9599280" lon="2.7331940">
        <ele>109.0</ele>
        <time>2022-05-27T06:02:12Z</time>
      </trkpt>
      <trkpt lat="41.9599820" lon="2.7332010">
        <ele>108.6</ele>
        <time>2022-05-27T06:02:13Z</time>
      </trkpt>
      <trkpt lat="41.9600470" lon="2.7332110">
        <ele>108.4</ele>
        <time>2022-05-27T06:02:14Z</time>
      </trkpt>
      <trkpt lat="41.9601140" lon="2.7332280">
        <ele>108.0</ele>
        <time>2022-05-27T06:02:15Z</time>
      </trkpt>
      <trkpt lat="41.9601850" lon="2.7332500">
        <ele>107.6</ele>
        <time>2022-05-27T06:02:16Z</time>
      </trkpt>
      <trkpt lat="41.9602470" lon="2.7332540">
        <ele>107.2</ele>
        <time>2022-05-27T06:02:17Z</time>
      </trkpt>
      <trkpt lat="41.9603010" lon="2.7332490">
        <ele>106.8</ele>
        <time>2022-05-27T06:02:18Z</time>
      </trkpt>
      <trkpt lat="41.9603550" lon="2.7332170">
        <ele>106.4</ele>
        <time>2022-05-27T06:02:19Z</time>
      </trkpt>
      <trkpt lat="41.9604090" lon="2.7331630">
        <ele>106.2</ele>
        <time>2022-05-27T06:02:20Z</time>
      </trkpt>
      <trkpt lat="41.9604460" lon="2.7331020">
        <ele>105.8</ele>
        <time>2022-05-27T06:02:21Z</time>
      </trkpt>
      <trkpt lat="41.9604740" lon="2.7330390">
        <ele>105.4</ele>
        <time>2022-05-27T06:02:22Z</time>
      </trkpt>
      <trkpt lat="41.9604980" lon="2.7329680">
        <ele>105.2</ele>
        <time>2022-05-27T06:02:23Z</time>
      </trkpt>
      <trkpt lat="41.9605230" lon="2.7329030">
        <ele>104.8</ele>
        <time>2022-05-27T06:02:24Z</time>
      </trkpt>
      <trkpt lat="41.9605500" lon="2.7328310">
        <ele>104.4</ele>
        <time>2022-05-27T06:02:25Z</time>
      </trkpt>
      <trkpt lat="41.9605770" lon="2.7327490">
        <ele>104.2</ele>
        <time>2022-05-27T06:02:26Z</time>
      </trkpt>
      <trkpt lat="41.9605990" lon="2.7326610">
        <ele>104.0</ele>
        <time>2022-05-27T06:02:27Z</time>
      </trkpt>
      <trkpt lat="41.9606140" lon="2.7325690">
        <ele>103.8</ele>
        <time>2022-05-27T06:02:28Z</time>
      </trkpt>
      <trkpt lat="41.9606260" lon="2.7324720">
        <ele>103.6</ele>
        <time>2022-05-27T06:02:29Z</time>
      </trkpt>
      <trkpt lat="41.9606340" lon="2.7323720">
        <ele>103.4</ele>
        <time>2022-05-27T06:02:30Z</time>
      </trkpt>
      <trkpt lat="41.9606370" lon="2.7322750">
        <ele>103.4</ele>
        <time>2022-05-27T06:02:31Z</time>
      </trkpt>
      <trkpt lat="41.9606460" lon="2.7321830">
        <ele>103.4</ele>
        <time>2022-05-27T06:02:32Z</time>
      </trkpt>
      <trkpt lat="41.9606710" lon="2.7320910">
        <ele>103.2</ele>
        <time>2022-05-27T06:02:33Z</time>
      </trkpt>
      <trkpt lat="41.9607050" lon="2.7319960">
        <ele>103.2</ele>
        <time>2022-05-27T06:02:34Z</time>
      </trkpt>
      <trkpt lat="41.9607420" lon="2.7318940">
        <ele>103.0</ele>
        <time>2022-05-27T06:02:35Z</time>
      </trkpt>
      <trkpt lat="41.9607740" lon="2.7318080">
        <ele>103.0</ele>
        <time>2022-05-27T06:02:36Z</time>
      </trkpt>
      <trkpt lat="41.9608040" lon="2.7317160">
        <ele>103.0</ele>
        <time>2022-05-27T06:02:37Z</time>
      </trkpt>
      <trkpt lat="41.9608410" lon="2.7316130">
        <ele>102.8</ele>
        <time>2022-05-27T06:02:38Z</time>
      </trkpt>
      <trkpt lat="41.9608810" lon="2.7314990">
        <ele>102.8</ele>
        <time>2022-05-27T06:02:39Z</time>
      </trkpt>
      <trkpt lat="41.9609170" lon="2.7313970">
        <ele>102.6</ele>
        <time>2022-05-27T06:02:40Z</time>
      </trkpt>
      <trkpt lat="41.9609510" lon="2.7313170">
        <ele>102.4</ele>
        <time>2022-05-27T06:02:41Z</time>
      </trkpt>
      <trkpt lat="41.9609880" lon="2.7312590">
        <ele>102.2</ele>
        <time>2022-05-27T06:02:42Z</time>
      </trkpt>
      <trkpt lat="41.9610320" lon="2.7312000">
        <ele>102.2</ele>
        <time>2022-05-27T06:02:43Z</time>
      </trkpt>
      <trkpt lat="41.9610760" lon="2.7311260">
        <ele>102.0</ele>
        <time>2022-05-27T06:02:44Z</time>
      </trkpt>
      <trkpt lat="41.9611150" lon="2.7310390">
        <ele>101.8</ele>
        <time>2022-05-27T06:02:45Z</time>
      </trkpt>
      <trkpt lat="41.9611390" lon="2.7309620">
        <ele>101.6</ele>
        <time>2022-05-27T06:02:46Z</time>
      </trkpt>
      <trkpt lat="41.9611540" lon="2.7308990">
        <ele>101.4</ele>
        <time>2022-05-27T06:02:47Z</time>
      </trkpt>
      <trkpt lat="41.9611690" lon="2.7308330">
        <ele>101.4</ele>
        <time>2022-05-27T06:02:48Z</time>
      </trkpt>
      <trkpt lat="41.9611960" lon="2.7307540">
        <ele>101.2</ele>
        <time>2022-05-27T06:02:49Z</time>
      </trkpt>
      <trkpt lat="41.9612330" lon="2.7306610">
        <ele>101.0</ele>
        <time>2022-05-27T06:02:50Z</time>
      </trkpt>
      <trkpt lat="41.9612720" lon="2.7305650">
        <ele>101.0</ele>
        <time>2022-05-27T06:02:51Z</time>
      </trkpt>
      <trkpt lat="41.9613090" lon="2.7304720">
        <ele>101.0</ele>
        <time>2022-05-27T06:02:52Z</time>
      </trkpt>
      <trkpt lat="41.9613450" lon="2.7303800">
        <ele>101.0</ele>
        <time>2022-05-27T06:02:53Z</time>
      </trkpt>
      <trkpt lat="41.9613820" lon="2.7302900">
        <ele>101.0</ele>
        <time>2022-05-27T06:02:54Z</time>
      </trkpt>
      <trkpt lat="41.9614170" lon="2.7302040">
        <ele>101.0</ele>
        <time>2022-05-27T06:02:55Z</time>
      </trkpt>
      <trkpt lat="41.9614520" lon="2.7301270">
        <ele>100.8</ele>
        <time>2022-05-27T06:02:56Z</time>
      </trkpt>
      <trkpt lat="41.9614900" lon="2.7300440">
        <ele>100.8</ele>
        <time>2022-05-27T06:02:57Z</time>
      </trkpt>
      <trkpt lat="41.9615290" lon="2.7299550">
        <ele>100.8</ele>
        <time>2022-05-27T06:02:58Z</time>
      </trkpt>
      <trkpt lat="41.9615700" lon="2.7298620">
        <ele>100.8</ele>
        <time>2022-05-27T06:02:59Z</time>
      </trkpt>
      <trkpt lat="41.9616120" lon="2.7297630">
        <ele>100.8</ele>
        <time>2022-05-27T06:03:00Z</time>
      </trkpt>
      <trkpt lat="41.9616430" lon="2.7296810">
        <ele>100.8</ele>
        <time>2022-05-27T06:03:01Z</time>
      </trkpt>
      <trkpt lat="41.9616680" lon="2.7296080">
        <ele>100.6</ele>
        <time>2022-05-27T06:03:02Z</time>
      </trkpt>
      <trkpt lat="41.9616920" lon="2.7295380">
        <ele>100.4</ele>
        <time>2022-05-27T06:03:03Z</time>
      </trkpt>
      <trkpt lat="41.9617160" lon="2.7294870">
        <ele>100.2</ele>
        <time>2022-05-27T06:03:04Z</time>
      </trkpt>
      <trkpt lat="41.9617450" lon="2.7294550">
        <ele>100.0</ele>
        <time>2022-05-27T06:03:05Z</time>
      </trkpt>
      <trkpt lat="41.9617800" lon="2.7294360">
        <ele>100.0</ele>
        <time>2022-05-27T06:03:06Z</time>
      </trkpt>
      <trkpt lat="41.9618280" lon="2.7294130">
        <ele>99.8</ele>
        <time>2022-05-27T06:03:07Z</time>
      </trkpt>
      <trkpt lat="41.9618770" lon="2.7293810">
        <ele>99.8</ele>
        <time>2022-05-27T06:03:08Z</time>
      </trkpt>
      <trkpt lat="41.9619220" lon="2.7293470">
        <ele>99.8</ele>
        <time>2022-05-27T06:03:09Z</time>
      </trkpt>
      <trkpt lat="41.9619630" lon="2.7293210">
        <ele>99.8</ele>
        <time>2022-05-27T06:03:10Z</time>
      </trkpt>
      <trkpt lat="41.9620030" lon="2.7292940">
        <ele>99.6</ele>
        <time>2022-05-27T06:03:11Z</time>
      </trkpt>
      <trkpt lat="41.9620240" lon="2.7292640">
        <ele>99.6</ele>
        <time>2022-05-27T06:03:12Z</time>
      </trkpt>
      <trkpt lat="41.9620200" lon="2.7292220">
        <ele>99.6</ele>
        <time>2022-05-27T06:03:13Z</time>
      </trkpt>
      <trkpt lat="41.9620050" lon="2.7291740">
        <ele>99.6</ele>
        <time>2022-05-27T06:03:14Z</time>
      </trkpt>
      <trkpt lat="41.9619790" lon="2.7291310">
        <ele>99.6</ele>
        <time>2022-05-27T06:03:15Z</time>
      </trkpt>
      <trkpt lat="41.9619450" lon="2.7290820">
        <ele>99.6</ele>
        <time>2022-05-27T06:03:16Z</time>
      </trkpt>
      <trkpt lat="41.9619090" lon="2.7290320">
        <ele>99.6</ele>
        <time>2022-05-27T06:03:17Z</time>
      </trkpt>
      <trkpt lat="41.9618730" lon="2.7289840">
        <ele>99.6</ele>
        <time>2022-05-27T06:03:18Z</time>
      </trkpt>
      <trkpt lat="41.9618380" lon="2.7289400">
        <ele>99.6</ele>
        <time>2022-05-27T06:03:19Z</time>
      </trkpt>
      <trkpt lat="41.9618070" lon="2.7289000">
        <ele>99.6</ele>
        <time>2022-05-27T06:03:20Z</time>
      </trkpt>
      <trkpt lat="41.9617840" lon="2.7288710">
        <ele>99.6</ele>
        <time>2022-05-27T06:03:21Z</time>
      </trkpt>
      <trkpt lat="41.9617660" lon="2.7288450">
        <ele>99.8</ele>
        <time>2022-05-27T06:03:22Z</time>
      </trkpt>
      <trkpt lat="41.9617480" lon="2.7288230">
        <ele>99.8</ele>
        <time>2022-05-27T06:03:23Z</time>
      </trkpt>
      <trkpt lat="41.9617360" lon="2.7287990">
        <ele>100.0</ele>
        <time>2022-05-27T06:03:24Z</time>
      </trkpt>
      <trkpt lat="41.9617250" lon="2.7287570">
        <ele>100.0</ele>
        <time>2022-05-27T06:03:25Z</time>
      </trkpt>
      <trkpt lat="41.9617150" lon="2.7287030">
        <ele>100.2</ele>
        <time>2022-05-27T06:03:26Z</time>
      </trkpt>
      <trkpt lat="41.9617030" lon="2.7286520">
        <ele>100.2</ele>
        <time>2022-05-27T06:03:27Z</time>
      </trkpt>
      <trkpt lat="41.9616940" lon="2.7286140">
        <ele>100.4</ele>
        <time>2022-05-27T06:03:28Z</time>
      </trkpt>
      <trkpt lat="41.9616860" lon="2.7285920">
        <ele>100.6</ele>
        <time>2022-05-27T06:03:29Z</time>
      </trkpt>
      <trkpt lat="41.9616820" lon="2.7285820">
        <ele>100.6</ele>
        <time>2022-05-27T06:03:30Z</time>
      </trkpt>
      <trkpt lat="41.9616810" lon="2.7285770">
        <ele>100.6</ele>
        <time>2022-05-27T06:03:31Z</time>
      </trkpt>
      <trkpt lat="41.9616770" lon="2.7285710">
        <ele>100.8</ele>
        <time>2022-05-27T06:03:32Z</time>
      </trkpt>
      <trkpt lat="41.9616700" lon="2.7285600">
        <ele>100.8</ele>
        <time>2022-05-27T06:03:33Z</time>
      </trkpt>
      <trkpt lat="41.9616570" lon="2.7285370">
        <ele>101.0</ele>
        <time>2022-05-27T06:03:34Z</time>
      </trkpt>
      <trkpt lat="41.9616390" lon="2.7285050">
        <ele>101.4</ele>
        <time>2022-05-27T06:03:35Z</time>
      </trkpt>
      <trkpt lat="41.9616170" lon="2.7284620">
        <ele>101.8</ele>
        <time>2022-05-27T06:03:36Z</time>
      </trkpt>
      <trkpt lat="41.9615950" lon="2.7284090">
        <ele>102.2</ele>
        <time>2022-05-27T06:03:37Z</time>
      </trkpt>
      <trkpt lat="41.9615760" lon="2.7283440">
        <ele>102.8</ele>
        <time>2022-05-27T06:03:38Z</time>
      </trkpt>
      <trkpt lat="41.9615660" lon="2.7282760">
        <ele>103.4</ele>
        <time>2022-05-27T06:03:39Z</time>
      </trkpt>
      <trkpt lat="41.9615620" lon="2.7281930">
        <ele>104.4</ele>
        <time>2022-05-27T06:03:40Z</time>
      </trkpt>
      <trkpt lat="41.9615580" lon="2.7281090">
        <ele>105.2</ele>
        <time>2022-05-27T06:03:41Z</time>
      </trkpt>
      <trkpt lat="41.9615610" lon="2.7280310">
        <ele>106.0</ele>
        <time>2022-05-27T06:03:42Z</time>
      </trkpt>
      <trkpt lat="41.9615660" lon="2.7279420">
        <ele>106.8</ele>
        <time>2022-05-27T06:03:43Z</time>
      </trkpt>
      <trkpt lat="41.9615790" lon="2.7278410">
        <ele>107.6</ele>
        <time>2022-05-27T06:03:44Z</time>
      </trkpt>
      <trkpt lat="41.9615930" lon="2.7277520">
        <ele>108.4</ele>
        <time>2022-05-27T06:03:45Z</time>
      </trkpt>
      <trkpt lat="41.9616060" lon="2.7276790">
        <ele>109.2</ele>
        <time>2022-05-27T06:03:46Z</time>
      </trkpt>
      <trkpt lat="41.9616240" lon="2.7275940">
        <ele>110.0</ele>
        <time>2022-05-27T06:03:47Z</time>
      </trkpt>
      <trkpt lat="41.9616450" lon="2.7274930">
        <ele>110.8</ele>
        <time>2022-05-27T06:03:48Z</time>
      </trkpt>
      <trkpt lat="41.9616640" lon="2.7274020">
        <ele>111.6</ele>
        <time>2022-05-27T06:03:49Z</time>
      </trkpt>
      <trkpt lat="41.9616850" lon="2.7273070">
        <ele>112.6</ele>
        <time>2022-05-27T06:03:50Z</time>
      </trkpt>
      <trkpt lat="41.9617120" lon="2.7272220">
        <ele>113.2</ele>
        <time>2022-05-27T06:03:51Z</time>
      </trkpt>
      <trkpt lat="41.9617500" lon="2.7271350">
        <ele>114.0</ele>
        <time>2022-05-27T06:03:52Z</time>
      </trkpt>
      <trkpt lat="41.9618080" lon="2.7270450">
        <ele>114.6</ele>
        <time>2022-05-27T06:03:53Z</time>
      </trkpt>
      <trkpt lat="41.9618580" lon="2.7269510">
        <ele>115.2</ele>
        <time>2022-05-27T06:03:54Z</time>
      </trkpt>
      <trkpt lat="41.9618820" lon="2.7268640">
        <ele>116.0</ele>
        <time>2022-05-27T06:03:55Z</time>
      </trkpt>
      <trkpt lat="41.9618850" lon="2.7267830">
        <ele>116.8</ele>
        <time>2022-05-27T06:03:56Z</time>
      </trkpt>
      <trkpt lat="41.9618850" lon="2.7266920">
        <ele>117.6</ele>
        <time>2022-05-27T06:03:57Z</time>
      </trkpt>
      <trkpt lat="41.9618790" lon="2.7266030">
        <ele>118.2</ele>
        <time>2022-05-27T06:03:58Z</time>
      </trkpt>
      <trkpt lat="41.9618640" lon="2.7265240">
        <ele>119.0</ele>
        <time>2022-05-27T06:03:59Z</time>
      </trkpt>
      <trkpt lat="41.9618390" lon="2.7264700">
        <ele>120.0</ele>
        <time>2022-05-27T06:04:00Z</time>
      </trkpt>
      <trkpt lat="41.9618000" lon="2.7264390">
        <ele>121.0</ele>
        <time>2022-05-27T06:04:01Z</time>
      </trkpt>
      <trkpt lat="41.9617450" lon="2.7264190">
        <ele>122.0</ele>
        <time>2022-05-27T06:04:02Z</time>
      </trkpt>
      <trkpt lat="41.9616790" lon="2.7264070">
        <ele>123.2</ele>
        <time>2022-05-27T06:04:03Z</time>
      </trkpt>
      <trkpt lat="41.9616080" lon="2.7263990">
        <ele>124.2</ele>
        <time>2022-05-27T06:04:04Z</time>
      </trkpt>
      <trkpt lat="41.9615490" lon="2.7263920">
        <ele>125.2</ele>
        <time>2022-05-27T06:04:05Z</time>
      </trkpt>
      <trkpt lat="41.9614990" lon="2.7263820">
        <ele>126.2</ele>
        <time>2022-05-27T06:04:06Z</time>
      </trkpt>
      <trkpt lat="41.9614550" lon="2.7263600">
        <ele>127.4</ele>
        <time>2022-05-27T06:04:07Z</time>
      </trkpt>
      <trkpt lat="41.9614240" lon="2.7263140">
        <ele>128.4</ele>
        <time>2022-05-27T06:04:08Z</time>
      </trkpt>
      <trkpt lat="41.9614090" lon="2.7262500">
        <ele>129.4</ele>
        <time>2022-05-27T06:04:09Z</time>
      </trkpt>
      <trkpt lat="41.9613990" lon="2.7261840">
        <ele>130.2</ele>
        <time>2022-05-27T06:04:10Z</time>
      </trkpt>
      <trkpt lat="41.9613760" lon="2.7261300">
        <ele>131.2</ele>
        <time>2022-05-27T06:04:11Z</time>
      </trkpt>
      <trkpt lat="41.9613420" lon="2.7261100">
        <ele>132.2</ele>
        <time>2022-05-27T06:04:12Z</time>
      </trkpt>
      <trkpt lat="41.9613080" lon="2.7261080">
        <ele>133.4</ele>
        <time>2022-05-27T06:04:13Z</time>
      </trkpt>
      <trkpt lat="41.9612850" lon="2.7261430">
        <ele>134.4</ele>
        <time>2022-05-27T06:04:14Z</time>
      </trkpt>
      <trkpt lat="41.9612670" lon="2.7261990">
        <ele>135.4</ele>
        <time>2022-05-27T06:04:15Z</time>
      </trkpt>
      <trkpt lat="41.9612530" lon="2.7262760">
        <ele>136.6</ele>
        <time>2022-05-27T06:04:16Z</time>
      </trkpt>
      <trkpt lat="41.9612440" lon="2.7263620">
        <ele>137.6</ele>
        <time>2022-05-27T06:04:17Z</time>
      </trkpt>
      <trkpt lat="41.9612330" lon="2.7264590">
        <ele>138.6</ele>
        <time>2022-05-27T06:04:18Z</time>
      </trkpt>
      <trkpt lat="41.9612220" lon="2.7265470">
        <ele>139.6</ele>
        <time>2022-05-27T06:04:19Z</time>
      </trkpt>
      <trkpt lat="41.9612110" lon="2.7266300">
        <ele>140.4</ele>
        <time>2022-05-27T06:04:20Z</time>
      </trkpt>
      <trkpt lat="41.9612010" lon="2.7267130">
        <ele>141.6</ele>
        <time>2022-05-27T06:04:21Z</time>
      </trkpt>
      <trkpt lat="41.9611880" lon="2.7268040">
        <ele>142.4</ele>
        <time>2022-05-27T06:04:22Z</time>
      </trkpt>
      <trkpt lat="41.9611670" lon="2.7269080">
        <ele>143.2</ele>
        <time>2022-05-27T06:04:23Z</time>
      </trkpt>
      <trkpt lat="41.9611390" lon="2.7270180">
        <ele>144.0</ele>
        <time>2022-05-27T06:04:24Z</time>
      </trkpt>
      <trkpt lat="41.9611120" lon="2.7271160">
        <ele>144.8</ele>
        <time>2022-05-27T06:04:25Z</time>
      </trkpt>
      <trkpt lat="41.9610850" lon="2.7271940">
        <ele>145.4</ele>
        <time>2022-05-27T06:04:26Z</time>
      </trkpt>
      <trkpt lat="41.9610570" lon="2.7272450">
        <ele>146.0</ele>
        <time>2022-05-27T06:04:27Z</time>
      </trkpt>
      <trkpt lat="41.9610280" lon="2.7272610">
        <ele>146.6</ele>
        <time>2022-05-27T06:04:28Z</time>
      </trkpt>
      <trkpt lat="41.9609930" lon="2.7272520">
        <ele>147.0</ele>
        <time>2022-05-27T06:04:29Z</time>
      </trkpt>
      <trkpt lat="41.9609550" lon="2.7272150">
        <ele>147.6</ele>
        <time>2022-05-27T06:04:30Z</time>
      </trkpt>
      <trkpt lat="41.9609160" lon="2.7271660">
        <ele>148.2</ele>
        <time>2022-05-27T06:04:31Z</time>
      </trkpt>
      <trkpt lat="41.9608580" lon="2.7271100">
        <ele>149.0</ele>
        <time>2022-05-27T06:04:32Z</time>
      </trkpt>
      <trkpt lat="41.9607760" lon="2.7270730">
        <ele>149.6</ele>
        <time>2022-05-27T06:04:33Z</time>
      </trkpt>
      <trkpt lat="41.9606870" lon="2.7270470">
        <ele>150.2</ele>
        <time>2022-05-27T06:04:34Z</time>
      </trkpt>
      <trkpt lat="41.9606000" lon="2.7270320">
        <ele>150.8</ele>
        <time>2022-05-27T06:04:35Z</time>
      </trkpt>
      <trkpt lat="41.9605080" lon="2.7270160">
        <ele>151.2</ele>
        <time>2022-05-27T06:04:36Z</time>
      </trkpt>
      <trkpt lat="41.9604190" lon="2.7270010">
        <ele>151.6</ele>
        <time>2022-05-27T06:04:37Z</time>
      </trkpt>
      <trkpt lat="41.9603430" lon="2.7269910">
        <ele>152.0</ele>
        <time>2022-05-27T06:04:38Z</time>
      </trkpt>
      <trkpt lat="41.9602570" lon="2.7269910">
        <ele>152.0</ele>
        <time>2022-05-27T06:04:39Z</time>
      </trkpt>
      <trkpt lat="41.9601710" lon="2.7270050">
        <ele>152.0</ele>
        <time>2022-05-27T06:04:40Z</time>
      </trkpt>
      <trkpt lat="41.9600890" lon="2.7270270">
        <ele>152.0</ele>
        <time>2022-05-27T06:04:41Z</time>
      </trkpt>
      <trkpt lat="41.9600030" lon="2.7270470">
        <ele>152.2</ele>
        <time>2022-05-27T06:04:42Z</time>
      </trkpt>
      <trkpt lat="41.9599140" lon="2.7270580">
        <ele>152.2</ele>
        <time>2022-05-27T06:04:43Z</time>
      </trkpt>
      <trkpt lat="41.9598410" lon="2.7270600">
        <ele>152.8</ele>
        <time>2022-05-27T06:04:44Z</time>
      </trkpt>
      <trkpt lat="41.9597840" lon="2.7270490">
        <ele>153.2</ele>
        <time>2022-05-27T06:04:45Z</time>
      </trkpt>
      <trkpt lat="41.9597370" lon="2.7270190">
        <ele>153.8</ele>
        <time>2022-05-27T06:04:46Z</time>
      </trkpt>
      <trkpt lat="41.9596960" lon="2.7269800">
        <ele>154.6</ele>
        <time>2022-05-27T06:04:47Z</time>
      </trkpt>
      <trkpt lat="41.9596620" lon="2.7269280">
        <ele>155.2</ele>
        <time>2022-05-27T06:04:48Z</time>
      </trkpt>
      <trkpt lat="41.9596390" lon="2.7268610">
        <ele>156.0</ele>
        <time>2022-05-27T06:04:49Z</time>
      </trkpt>
      <trkpt lat="41.9596290" lon="2.7267820">
        <ele>156.6</ele>
        <time>2022-05-27T06:04:50Z</time>
      </trkpt>
      <trkpt lat="41.9596330" lon="2.7266950">
        <ele>157.2</ele>
        <time>2022-05-27T06:04:51Z</time>
      </trkpt>
      <trkpt lat="41.9596450" lon="2.7266080">
        <ele>158.0</ele>
        <time>2022-05-27T06:04:52Z</time>
      </trkpt>
      <trkpt lat="41.9596540" lon="2.7265310">
        <ele>158.4</ele>
        <time>2022-05-27T06:04:53Z</time>
      </trkpt>
      <trkpt lat="41.9596600" lon="2.7264550">
        <ele>159.0</ele>
        <time>2022-05-27T06:04:54Z</time>
      </trkpt>
      <trkpt lat="41.9596600" lon="2.7263980">
        <ele>159.6</ele>
        <time>2022-05-27T06:04:55Z</time>
      </trkpt>
      <trkpt lat="41.9596610" lon="2.7263700">
        <ele>160.0</ele>
        <time>2022-05-27T06:04:56Z</time>
      </trkpt>
      <trkpt lat="41.9596580" lon="2.7263570">
        <ele>160.4</ele>
        <time>2022-05-27T06:04:57Z</time>
      </trkpt>
      <trkpt lat="41.9596550" lon="2.7263410">
        <ele>160.8</ele>
        <time>2022-05-27T06:04:58Z</time>
      </trkpt>
      <trkpt lat="41.9596500" lon="2.7263140">
        <ele>161.2</ele>
        <time>2022-05-27T06:04:59Z</time>
      </trkpt>
      <trkpt lat="41.9596400" lon="2.7262750">
        <ele>161.8</ele>
        <time>2022-05-27T06:05:00Z</time>
      </trkpt>
      <trkpt lat="41.9596290" lon="2.7262150">
        <ele>162.4</ele>
        <time>2022-05-27T06:05:01Z</time>
      </trkpt>
      <trkpt lat="41.9596180" lon="2.7261410">
        <ele>162.8</ele>
        <time>2022-05-27T06:05:02Z</time>
      </trkpt>
      <trkpt lat="41.9596100" lon="2.7260570">
        <ele>163.4</ele>
        <time>2022-05-27T06:05:03Z</time>
      </trkpt>
      <trkpt lat="41.9596090" lon="2.7259660">
        <ele>163.8</ele>
        <time>2022-05-27T06:05:04Z</time>
      </trkpt>
      <trkpt lat="41.9596180" lon="2.7258700">
        <ele>164.4</ele>
        <time>2022-05-27T06:05:05Z</time>
      </trkpt>
      <trkpt lat="41.9596430" lon="2.7257720">
        <ele>164.8</ele>
        <time>2022-05-27T06:05:06Z</time>
      </trkpt>
      <trkpt lat="41.9596690" lon="2.7256680">
        <ele>165.2</ele>
        <time>2022-05-27T06:05:07Z</time>
      </trkpt>
      <trkpt lat="41.9596710" lon="2.7255550">
        <ele>165.8</ele>
        <time>2022-05-27T06:05:08Z</time>
      </trkpt>
      <trkpt lat="41.9596580" lon="2.7254400">
        <ele>166.4</ele>
        <time>2022-05-27T06:05:09Z</time>
      </trkpt>
      <trkpt lat="41.9596260" lon="2.7253360">
        <ele>167.2</ele>
        <time>2022-05-27T06:05:10Z</time>
      </trkpt>
      <trkpt lat="41.9595850" lon="2.7252320">
        <ele>167.8</ele>
        <time>2022-05-27T06:05:11Z</time>
      </trkpt>
      <trkpt lat="41.9595610" lon="2.7251350">
        <ele>168.4</ele>
        <time>2022-05-27T06:05:12Z</time>
      </trkpt>
      <trkpt lat="41.9595470" lon="2.7250360">
        <ele>169.0</ele>
        <time>2022-05-27T06:05:13Z</time>
      </trkpt>
      <trkpt lat="41.9595380" lon="2.7249230">
        <ele>169.8</ele>
        <time>2022-05-27T06:05:14Z</time>
      </trkpt>
      <trkpt lat="41.9595250" lon="2.7248140">
        <ele>170.4</ele>
        <time>2022-05-27T06:05:15Z</time>
      </trkpt>
      <trkpt lat="41.9595050" lon="2.7247180">
        <ele>171.0</ele>
        <time>2022-05-27T06:05:16Z</time>
      </trkpt>
      <trkpt lat="41.9594760" lon="2.7246280">
        <ele>171.6</ele>
        <time>2022-05-27T06:05:17Z</time>
      </trkpt>
      <trkpt lat="41.9594380" lon="2.7245440">
        <ele>172.2</ele>
        <time>2022-05-27T06:05:18Z</time>
      </trkpt>
      <trkpt lat="41.9593890" lon="2.7244590">
        <ele>173.0</ele>
        <time>2022-05-27T06:05:19Z</time>
      </trkpt>
      <trkpt lat="41.9593330" lon="2.7243730">
        <ele>173.8</ele>
        <time>2022-05-27T06:05:20Z</time>
      </trkpt>
      <trkpt lat="41.9592820" lon="2.7242930">
        <ele>174.6</ele>
        <time>2022-05-27T06:05:21Z</time>
      </trkpt>
      <trkpt lat="41.9592280" lon="2.7242040">
        <ele>175.4</ele>
        <time>2022-05-27T06:05:22Z</time>
      </trkpt>
      <trkpt lat="41.9591760" lon="2.7241200">
        <ele>176.2</ele>
        <time>2022-05-27T06:05:23Z</time>
      </trkpt>
      <trkpt lat="41.9591260" lon="2.7240480">
        <ele>177.0</ele>
        <time>2022-05-27T06:05:24Z</time>
      </trkpt>
      <trkpt lat="41.9590740" lon="2.7239760">
        <ele>177.8</ele>
        <time>2022-05-27T06:05:25Z</time>
      </trkpt>
      <trkpt lat="41.9590290" lon="2.7239020">
        <ele>178.8</ele>
        <time>2022-05-27T06:05:26Z</time>
      </trkpt>
      <trkpt lat="41.9590070" lon="2.7238330">
        <ele>179.4</ele>
        <time>2022-05-27T06:05:27Z</time>
      </trkpt>
      <trkpt lat="41.9590010" lon="2.7237760">
        <ele>180.2</ele>
        <time>2022-05-27T06:05:28Z</time>
      </trkpt>
      <trkpt lat="41.9590160" lon="2.7237180">
        <ele>181.4</ele>
        <time>2022-05-27T06:05:29Z</time>
      </trkpt>
      <trkpt lat="41.9590420" lon="2.7236360">
        <ele>182.0</ele>
        <time>2022-05-27T06:05:30Z</time>
      </trkpt>
      <trkpt lat="41.9590790" lon="2.7235470">
        <ele>183.0</ele>
        <time>2022-05-27T06:05:31Z</time>
      </trkpt>
      <trkpt lat="41.9591280" lon="2.7234660">
        <ele>184.0</ele>
        <time>2022-05-27T06:05:32Z</time>
      </trkpt>
      <trkpt lat="41.9591920" lon="2.7233880">
        <ele>185.0</ele>
        <time>2022-05-27T06:05:33Z</time>
      </trkpt>
      <trkpt lat="41.9592650" lon="2.7233150">
        <ele>185.8</ele>
        <time>2022-05-27T06:05:34Z</time>
      </trkpt>
      <trkpt lat="41.9593460" lon="2.7232490">
        <ele>186.6</ele>
        <time>2022-05-27T06:05:35Z</time>
      </trkpt>
      <trkpt lat="41.9594190" lon="2.7232020">
        <ele>187.2</ele>
        <time>2022-05-27T06:05:36Z</time>
      </trkpt>
      <trkpt lat="41.9594670" lon="2.7231710">
        <ele>187.6</ele>
        <time>2022-05-27T06:05:37Z</time>
      </trkpt>
      <trkpt lat="41.9594970" lon="2.7231470">
        <ele>188.2</ele>
        <time>2022-05-27T06:05:38Z</time>
      </trkpt>
      <trkpt lat="41.9595150" lon="2.7231300">
        <ele>188.6</ele>
        <time>2022-05-27T06:05:39Z</time>
      </trkpt>
      <trkpt lat="41.9595220" lon="2.7231210">
        <ele>188.8</ele>
        <time>2022-05-27T06:05:40Z</time>
      </trkpt>
      <trkpt lat="41.9595290" lon="2.7230520">
        <ele>189.2</ele>
        <time>2022-05-27T06:05:41Z</time>
      </trkpt>
      <trkpt lat="41.9595360" lon="2.7229890">
        <ele>189.6</ele>
        <time>2022-05-27T06:05:42Z</time>
      </trkpt>
      <trkpt lat="41.9595430" lon="2.7229260">
        <ele>189.6</ele>
        <time>2022-05-27T06:05:43Z</time>
      </trkpt>
      <trkpt lat="41.9595490" lon="2.7228640">
        <ele>189.6</ele>
        <time>2022-05-27T06:05:44Z</time>
      </trkpt>
      <trkpt lat="41.9595560" lon="2.7228010">
        <ele>189.6</ele>
        <time>2022-05-27T06:05:45Z</time>
      </trkpt>
      <trkpt lat="41.9595630" lon="2.7227380">
        <ele>190.8</ele>
        <time>2022-05-27T06:05:50Z</time>
      </trkpt>
      <trkpt lat="41.9595690" lon="2.7226760">
        <ele>191.2</ele>
        <time>2022-05-27T06:05:51Z</time>
      </trkpt>
      <trkpt lat="41.9595610" lon="2.7225990">
        <ele>191.6</ele>
        <time>2022-05-27T06:05:52Z</time>
      </trkpt>
      <trkpt lat="41.9595410" lon="2.7225150">
        <ele>192.0</ele>
        <time>2022-05-27T06:05:53Z</time>
      </trkpt>
      <trkpt lat="41.9595050" lon="2.7224120">
        <ele>192.4</ele>
        <time>2022-05-27T06:05:54Z</time>
      </trkpt>
      <trkpt lat="41.9594640" lon="2.7222990">
        <ele>192.6</ele>
        <time>2022-05-27T06:05:55Z</time>
      </trkpt>
      <trkpt lat="41.9594240" lon="2.7221880">
        <ele>192.6</ele>
        <time>2022-05-27T06:05:56Z</time>
      </trkpt>
      <trkpt lat="41.9593820" lon="2.7220880">
        <ele>192.8</ele>
        <time>2022-05-27T06:05:57Z</time>
      </trkpt>
      <trkpt lat="41.9593430" lon="2.7220000">
        <ele>193.2</ele>
        <time>2022-05-27T06:05:58Z</time>
      </trkpt>
      <trkpt lat="41.9593090" lon="2.7219100">
        <ele>193.6</ele>
        <time>2022-05-27T06:05:59Z</time>
      </trkpt>
      <trkpt lat="41.9592770" lon="2.7218120">
        <ele>193.8</ele>
        <time>2022-05-27T06:06:00Z</time>
      </trkpt>
      <trkpt lat="41.9592440" lon="2.7217100">
        <ele>194.0</ele>
        <time>2022-05-27T06:06:01Z</time>
      </trkpt>
      <trkpt lat="41.9592150" lon="2.7216100">
        <ele>194.2</ele>
        <time>2022-05-27T06:06:02Z</time>
      </trkpt>
      <trkpt lat="41.9591870" lon="2.7215140">
        <ele>194.0</ele>
        <time>2022-05-27T06:06:03Z</time>
      </trkpt>
      <trkpt lat="41.9591600" lon="2.7214260">
        <ele>194.2</ele>
        <time>2022-05-27T06:06:04Z</time>
      </trkpt>
      <trkpt lat="41.9591330" lon="2.7213490">
        <ele>194.2</ele>
        <time>2022-05-27T06:06:05Z</time>
      </trkpt>
      <trkpt lat="41.9591090" lon="2.7212910">
        <ele>194.2</ele>
        <time>2022-05-27T06:06:06Z</time>
      </trkpt>
      <trkpt lat="41.9590960" lon="2.7212560">
        <ele>194.2</ele>
        <time>2022-05-27T06:06:07Z</time>
      </trkpt>
      <trkpt lat="41.9590930" lon="2.7212380">
        <ele>194.2</ele>
        <time>2022-05-27T06:06:08Z</time>
      </trkpt>
      <trkpt lat="41.9591010" lon="2.7212160">
        <ele>194.2</ele>
        <time>2022-05-27T06:06:09Z</time>
      </trkpt>
      <trkpt lat="41.9591150" lon="2.7211840">
        <ele>194.2</ele>
        <time>2022-05-27T06:06:10Z</time>
      </trkpt>
      <trkpt lat="41.9591230" lon="2.7211590">
        <ele>194.4</ele>
        <time>2022-05-27T06:06:11Z</time>
      </trkpt>
      <trkpt lat="41.9591250" lon="2.7211500">
        <ele>194.4</ele>
        <time>2022-05-27T06:06:12Z</time>
      </trkpt>
      <trkpt lat="41.9591300" lon="2.7211370">
        <ele>194.2</ele>
        <time>2022-05-27T06:06:13Z</time>
      </trkpt>
      <trkpt lat="41.9591360" lon="2.7211110">
        <ele>194.2</ele>
        <time>2022-05-27T06:06:14Z</time>
      </trkpt>
      <trkpt lat="41.9591460" lon="2.7210760">
        <ele>194.4</ele>
        <time>2022-05-27T06:06:15Z</time>
      </trkpt>
      <trkpt lat="41.9591560" lon="2.7210370">
        <ele>194.4</ele>
        <time>2022-05-27T06:06:16Z</time>
      </trkpt>
      <trkpt lat="41.9591670" lon="2.7209980">
        <ele>194.4</ele>
        <time>2022-05-27T06:06:17Z</time>
      </trkpt>
      <trkpt lat="41.9591820" lon="2.7209660">
        <ele>194.4</ele>
        <time>2022-05-27T06:06:18Z</time>
      </trkpt>
      <trkpt lat="41.9592060" lon="2.7209410">
        <ele>194.4</ele>
        <time>2022-05-27T06:06:19Z</time>
      </trkpt>
      <trkpt lat="41.9592390" lon="2.7209140">
        <ele>194.4</ele>
        <time>2022-05-27T06:06:20Z</time>
      </trkpt>
      <trkpt lat="41.9592800" lon="2.7208830">
        <ele>194.2</ele>
        <time>2022-05-27T06:06:21Z</time>
      </trkpt>
      <trkpt lat="41.9593260" lon="2.7208540">
        <ele>194.0</ele>
        <time>2022-05-27T06:06:22Z</time>
      </trkpt>
      <trkpt lat="41.9593720" lon="2.7208310">
        <ele>194.0</ele>
        <time>2022-05-27T06:06:23Z</time>
      </trkpt>
      <trkpt lat="41.9594090" lon="2.7208120">
        <ele>193.8</ele>
        <time>2022-05-27T06:06:24Z</time>
      </trkpt>
      <trkpt lat="41.9594430" lon="2.7207930">
        <ele>193.6</ele>
        <time>2022-05-27T06:06:25Z</time>
      </trkpt>
      <trkpt lat="41.9594790" lon="2.7207740">
        <ele>193.4</ele>
        <time>2022-05-27T06:06:26Z</time>
      </trkpt>
      <trkpt lat="41.9595110" lon="2.7207580">
        <ele>193.2</ele>
        <time>2022-05-27T06:06:27Z</time>
      </trkpt>
      <trkpt lat="41.9595460" lon="2.7207450">
        <ele>193.0</ele>
        <time>2022-05-27T06:06:28Z</time>
      </trkpt>
      <trkpt lat="41.9595940" lon="2.7207350">
        <ele>192.8</ele>
        <time>2022-05-27T06:06:29Z</time>
      </trkpt>
      <trkpt lat="41.9596480" lon="2.7207220">
        <ele>192.6</ele>
        <time>2022-05-27T06:06:30Z</time>
      </trkpt>
      <trkpt lat="41.9596900" lon="2.7207040">
        <ele>192.6</ele>
        <time>2022-05-27T06:06:31Z</time>
      </trkpt>
      <trkpt lat="41.9597230" lon="2.7206800">
        <ele>192.6</ele>
        <time>2022-05-27T06:06:32Z</time>
      </trkpt>
      <trkpt lat="41.9597460" lon="2.7206560">
        <ele>192.4</ele>
        <time>2022-05-27T06:06:33Z</time>
      </trkpt>
      <trkpt lat="41.9597620" lon="2.7206300">
        <ele>192.2</ele>
        <time>2022-05-27T06:06:34Z</time>
      </trkpt>
      <trkpt lat="41.9597840" lon="2.7206010">
        <ele>192.0</ele>
        <time>2022-05-27T06:06:35Z</time>
      </trkpt>
      <trkpt lat="41.9598140" lon="2.7205700">
        <ele>191.8</ele>
        <time>2022-05-27T06:06:36Z</time>
      </trkpt>
      <trkpt lat="41.9598470" lon="2.7205350">
        <ele>191.6</ele>
        <time>2022-05-27T06:06:37Z</time>
      </trkpt>
      <trkpt lat="41.9598700" lon="2.7204970">
        <ele>191.4</ele>
        <time>2022-05-27T06:06:38Z</time>
      </trkpt>
      <trkpt lat="41.9598750" lon="2.7204580">
        <ele>191.4</ele>
        <time>2022-05-27T06:06:39Z</time>
      </trkpt>
      <trkpt lat="41.9598730" lon="2.7204220">
        <ele>191.4</ele>
        <time>2022-05-27T06:06:40Z</time>
      </trkpt>
      <trkpt lat="41.9598570" lon="2.7203950">
        <ele>191.4</ele>
        <time>2022-05-27T06:06:41Z</time>
      </trkpt>
      <trkpt lat="41.9598250" lon="2.7203650">
        <ele>191.6</ele>
        <time>2022-05-27T06:06:42Z</time>
      </trkpt>
      <trkpt lat="41.9597890" lon="2.7203340">
        <ele>191.8</ele>
        <time>2022-05-27T06:06:43Z</time>
      </trkpt>
      <trkpt lat="41.9597670" lon="2.7203070">
        <ele>192.0</ele>
        <time>2022-05-27T06:06:44Z</time>
      </trkpt>
      <trkpt lat="41.9597470" lon="2.7202810">
        <ele>192.2</ele>
        <time>2022-05-27T06:06:45Z</time>
      </trkpt>
      <trkpt lat="41.9597310" lon="2.7202590">
        <ele>192.4</ele>
        <time>2022-05-27T06:06:46Z</time>
      </trkpt>
      <trkpt lat="41.9597190" lon="2.7202380">
        <ele>192.6</ele>
        <time>2022-05-27T06:06:47Z</time>
      </trkpt>
      <trkpt lat="41.9597110" lon="2.7202220">
        <ele>192.6</ele>
        <time>2022-05-27T06:06:48Z</time>
      </trkpt>
      <trkpt lat="41.9597030" lon="2.7202120">
        <ele>192.8</ele>
        <time>2022-05-27T06:06:49Z</time>
      </trkpt>
      <trkpt lat="41.9596910" lon="2.7202020">
        <ele>193.0</ele>
        <time>2022-05-27T06:06:50Z</time>
      </trkpt>
      <trkpt lat="41.9596750" lon="2.7201890">
        <ele>193.4</ele>
        <time>2022-05-27T06:06:51Z</time>
      </trkpt>
      <trkpt lat="41.9596570" lon="2.7201730">
        <ele>193.6</ele>
        <time>2022-05-27T06:06:52Z</time>
      </trkpt>
      <trkpt lat="41.9596310" lon="2.7201470">
        <ele>193.6</ele>
        <time>2022-05-27T06:06:53Z</time>
      </trkpt>
      <trkpt lat="41.9595950" lon="2.7201080">
        <ele>193.6</ele>
        <time>2022-05-27T06:06:54Z</time>
      </trkpt>
      <trkpt lat="41.9595590" lon="2.7200680">
        <ele>193.8</ele>
        <time>2022-05-27T06:06:55Z</time>
      </trkpt>
      <trkpt lat="41.9595300" lon="2.7200300">
        <ele>193.8</ele>
        <time>2022-05-27T06:06:56Z</time>
      </trkpt>
      <trkpt lat="41.9595040" lon="2.7199920">
        <ele>194.0</ele>
        <time>2022-05-27T06:06:57Z</time>
      </trkpt>
      <trkpt lat="41.9594740" lon="2.7199570">
        <ele>194.0</ele>
        <time>2022-05-27T06:06:58Z</time>
      </trkpt>
      <trkpt lat="41.9594350" lon="2.7199210">
        <ele>194.0</ele>
        <time>2022-05-27T06:06:59Z</time>
      </trkpt>
      <trkpt lat="41.9593950" lon="2.7198890">
        <ele>194.2</ele>
        <time>2022-05-27T06:07:00Z</time>
      </trkpt>
      <trkpt lat="41.9593630" lon="2.7198610">
        <ele>194.2</ele>
        <time>2022-05-27T06:07:01Z</time>
      </trkpt>
      <trkpt lat="41.9593380" lon="2.7198330">
        <ele>194.2</ele>
        <time>2022-05-27T06:07:02Z</time>
      </trkpt>
      <trkpt lat="41.9593150" lon="2.7198100">
        <ele>194.4</ele>
        <time>2022-05-27T06:07:03Z</time>
      </trkpt>
      <trkpt lat="41.9592910" lon="2.7197890">
        <ele>194.6</ele>
        <time>2022-05-27T06:07:04Z</time>
      </trkpt>
      <trkpt lat="41.9592670" lon="2.7197690">
        <ele>194.8</ele>
        <time>2022-05-27T06:07:05Z</time>
      </trkpt>
      <trkpt lat="41.9592400" lon="2.7197410">
        <ele>194.8</ele>
        <time>2022-05-27T06:07:06Z</time>
      </trkpt>
      <trkpt lat="41.9592130" lon="2.7197080">
        <ele>195.0</ele>
        <time>2022-05-27T06:07:07Z</time>
      </trkpt>
      <trkpt lat="41.9591850" lon="2.7196840">
        <ele>195.0</ele>
        <time>2022-05-27T06:07:08Z</time>
      </trkpt>
      <trkpt lat="41.9591530" lon="2.7196670">
        <ele>195.0</ele>
        <time>2022-05-27T06:07:09Z</time>
      </trkpt>
      <trkpt lat="41.9591420" lon="2.7196600">
        <ele>195.2</ele>
        <time>2022-05-27T06:07:10Z</time>
      </trkpt>
      <trkpt lat="41.9591380" lon="2.7196590">
        <ele>195.2</ele>
        <time>2022-05-27T06:07:11Z</time>
      </trkpt>
      <trkpt lat="41.9591400" lon="2.7196600">
        <ele>195.2</ele>
        <time>2022-05-27T06:07:12Z</time>
      </trkpt>
      <trkpt lat="41.9591400" lon="2.7196600">
        <ele>195.4</ele>
        <time>2022-05-27T06:07:13Z</time>
      </trkpt>
      <trkpt lat="41.9591380" lon="2.7196580">
        <ele>195.4</ele>
        <time>2022-05-27T06:07:14Z</time>
      </trkpt>
      <trkpt lat="41.9591370" lon="2.7196530">
        <ele>195.4</ele>
        <time>2022-05-27T06:07:15Z</time>
      </trkpt>
      <trkpt lat="41.9591370" lon="2.7196520">
        <ele>195.4</ele>
        <time>2022-05-27T06:07:16Z</time>
      </trkpt>
      <trkpt lat="41.9591370" lon="2.7196520">
        <ele>195.4</ele>
        <time>2022-05-27T06:07:17Z</time>
      </trkpt>
      <trkpt lat="41.9591370" lon="2.7196520">
        <ele>195.4</ele>
        <time>2022-05-27T06:07:18Z</time>
      </trkpt>
      <trkpt lat="41.9591340" lon="2.7196510">
        <ele>195.4</ele>
        <time>2022-05-27T06:07:19Z</time>
      </trkpt>
      <trkpt lat="41.9591310" lon="2.7196500">
        <ele>195.4</ele>
        <time>2022-05-27T06:07:20Z</time>
      </trkpt>
      <trkpt lat="41.9591180" lon="2.7196470">
        <ele>195.4</ele>
        <time>2022-05-27T06:07:21Z</time>
      </trkpt>
      <trkpt lat="41.9590990" lon="2.7196380">
        <ele>195.4</ele>
        <time>2022-05-27T06:07:22Z</time>
      </trkpt>
      <trkpt lat="41.9590790" lon="2.7196230">
        <ele>195.6</ele>
        <time>2022-05-27T06:07:23Z</time>
      </trkpt>
      <trkpt lat="41.9590680" lon="2.7196120">
        <ele>195.8</ele>
        <time>2022-05-27T06:07:24Z</time>
      </trkpt>
      <trkpt lat="41.9590610" lon="2.7196050">
        <ele>195.8</ele>
        <time>2022-05-27T06:07:25Z</time>
      </trkpt>
      <trkpt lat="41.9590610" lon="2.7196020">
        <ele>196.0</ele>
        <time>2022-05-27T06:07:26Z</time>
      </trkpt>
      <trkpt lat="41.9590620" lon="2.7196030">
        <ele>196.2</ele>
        <time>2022-05-27T06:07:27Z</time>
      </trkpt>
      <trkpt lat="41.9590620" lon="2.7196030">
        <ele>196.2</ele>
        <time>2022-05-27T06:07:28Z</time>
      </trkpt>
      <trkpt lat="41.9590620" lon="2.7196030">
        <ele>196.2</ele>
        <time>2022-05-27T06:07:29Z</time>
      </trkpt>
      <trkpt lat="41.9590610" lon="2.7196030">
        <ele>196.2</ele>
        <time>2022-05-27T06:07:30Z</time>
      </trkpt>
      <trkpt lat="41.9590590" lon="2.7196030">
        <ele>196.2</ele>
        <time>2022-05-27T06:07:31Z</time>
      </trkpt>
      <trkpt lat="41.9590570" lon="2.7196040">
        <ele>196.2</ele>
        <time>2022-05-27T06:07:32Z</time>
      </trkpt>
      <trkpt lat="41.9590490" lon="2.7196090">
        <ele>196.2</ele>
        <time>2022-05-27T06:07:33Z</time>
      </trkpt>
      <trkpt lat="41.9590430" lon="2.7196200">
        <ele>196.2</ele>
        <time>2022-05-27T06:07:34Z</time>
      </trkpt>
      <trkpt lat="41.9590400" lon="2.7196270">
        <ele>196.2</ele>
        <time>2022-05-27T06:07:35Z</time>
      </trkpt>
      <trkpt lat="41.9590360" lon="2.7196230">
        <ele>196.4</ele>
        <time>2022-05-27T06:07:36Z</time>
      </trkpt>
      <trkpt lat="41.9590340" lon="2.7196170">
        <ele>196.4</ele>
        <time>2022-05-27T06:07:37Z</time>
      </trkpt>
      <trkpt lat="41.9590350" lon="2.7196110">
        <ele>196.4</ele>
        <time>2022-05-27T06:07:38Z</time>
      </trkpt>
      <trkpt lat="41.9590320" lon="2.7196100">
        <ele>196.6</ele>
        <time>2022-05-27T06:07:39Z</time>
      </trkpt>
      <trkpt lat="41.9590300" lon="2.7196200">
        <ele>196.6</ele>
        <time>2022-05-27T06:07:40Z</time>
      </trkpt>
      <trkpt lat="41.9590280" lon="2.7196400">
        <ele>196.8</ele>
        <time>2022-05-27T06:07:41Z</time>
      </trkpt>
      <trkpt lat="41.9590210" lon="2.7196670">
        <ele>197.2</ele>
        <time>2022-05-27T06:07:42Z</time>
      </trkpt>
      <trkpt lat="41.9590130" lon="2.7196860">
        <ele>197.4</ele>
        <time>2022-05-27T06:07:43Z</time>
      </trkpt>
      <trkpt lat="41.9589990" lon="2.7197100">
        <ele>197.8</ele>
        <time>2022-05-27T06:07:44Z</time>
      </trkpt>
      <trkpt lat="41.9589860" lon="2.7197420">
        <ele>198.2</ele>
        <time>2022-05-27T06:07:45Z</time>
      </trkpt>
      <trkpt lat="41.9589750" lon="2.7197850">
        <ele>198.4</ele>
        <time>2022-05-27T06:07:46Z</time>
      </trkpt>
      <trkpt lat="41.9589650" lon="2.7198230">
        <ele>198.8</ele>
        <time>2022-05-27T06:07:47Z</time>
      </trkpt>
      <trkpt lat="41.9589460" lon="2.7198370">
        <ele>199.0</ele>
        <time>2022-05-27T06:07:48Z</time>
      </trkpt>
      <trkpt lat="41.9589160" lon="2.7198430">
        <ele>199.2</ele>
        <time>2022-05-27T06:07:49Z</time>
      </trkpt>
      <trkpt lat="41.9588940" lon="2.7198330">
        <ele>199.4</ele>
        <time>2022-05-27T06:07:50Z</time>
      </trkpt>
      <trkpt lat="41.9588890" lon="2.7198270">
        <ele>199.6</ele>
        <time>2022-05-27T06:07:51Z</time>
      </trkpt>
      <trkpt lat="41.9588960" lon="2.7198150">
        <ele>199.8</ele>
        <time>2022-05-27T06:07:52Z</time>
      </trkpt>
      <trkpt lat="41.9589030" lon="2.7198090">
        <ele>200.0</ele>
        <time>2022-05-27T06:07:53Z</time>
      </trkpt>
      <trkpt lat="41.9589100" lon="2.7198030">
        <ele>200.0</ele>
        <time>2022-05-27T06:07:54Z</time>
      </trkpt>
      <trkpt lat="41.9589170" lon="2.7197970">
        <ele>200.0</ele>
        <time>2022-05-27T06:07:55Z</time>
      </trkpt>
      <trkpt lat="41.9589230" lon="2.7197910">
        <ele>200.0</ele>
        <time>2022-05-27T06:07:56Z</time>
      </trkpt>
      <trkpt lat="41.9589300" lon="2.7197850">
        <ele>200.0</ele>
        <time>2022-05-27T06:07:57Z</time>
      </trkpt>
      <trkpt lat="41.9589370" lon="2.7197780">
        <ele>200.0</ele>
        <time>2022-05-27T06:07:58Z</time>
      </trkpt>
      <trkpt lat="41.9589440" lon="2.7197720">
        <ele>200.0</ele>
        <time>2022-05-27T06:07:59Z</time>
      </trkpt>
      <trkpt lat="41.9589510" lon="2.7197660">
        <ele>200.0</ele>
        <time>2022-05-27T06:08:00Z</time>
      </trkpt>
      <trkpt lat="41.9589580" lon="2.7197600">
        <ele>200.0</ele>
        <time>2022-05-27T06:08:01Z</time>
      </trkpt>
      <trkpt lat="41.9589650" lon="2.7197540">
        <ele>199.8</ele>
        <time>2022-05-27T06:08:06Z</time>
      </trkpt>
      <trkpt lat="41.9589710" lon="2.7197470">
        <ele>199.6</ele>
        <time>2022-05-27T06:08:07Z</time>
      </trkpt>
      <trkpt lat="41.9589800" lon="2.7197200">
        <ele>199.2</ele>
        <time>2022-05-27T06:08:08Z</time>
      </trkpt>
      <trkpt lat="41.9589900" lon="2.7196900">
        <ele>199.0</ele>
        <time>2022-05-27T06:08:09Z</time>
      </trkpt>
      <trkpt lat="41.9589960" lon="2.7196610">
        <ele>198.6</ele>
        <time>2022-05-27T06:08:10Z</time>
      </trkpt>
      <trkpt lat="41.9590020" lon="2.7196350">
        <ele>198.2</ele>
        <time>2022-05-27T06:08:11Z</time>
      </trkpt>
      <trkpt lat="41.9590130" lon="2.7196270">
        <ele>197.8</ele>
        <time>2022-05-27T06:08:12Z</time>
      </trkpt>
      <trkpt lat="41.9590310" lon="2.7196260">
        <ele>197.4</ele>
        <time>2022-05-27T06:08:13Z</time>
      </trkpt>
      <trkpt lat="41.9590570" lon="2.7196350">
        <ele>197.0</ele>
        <time>2022-05-27T06:08:14Z</time>
      </trkpt>
      <trkpt lat="41.9590820" lon="2.7196520">
        <ele>196.8</ele>
        <time>2022-05-27T06:08:15Z</time>
      </trkpt>
      <trkpt lat="41.9591020" lon="2.7196730">
        <ele>196.4</ele>
        <time>2022-05-27T06:08:16Z</time>
      </trkpt>
      <trkpt lat="41.9591240" lon="2.7196970">
        <ele>196.2</ele>
        <time>2022-05-27T06:08:17Z</time>
      </trkpt>
      <trkpt lat="41.9591430" lon="2.7197210">
        <ele>195.8</ele>
        <time>2022-05-27T06:08:18Z</time>
      </trkpt>
      <trkpt lat="41.9591650" lon="2.7197410">
        <ele>195.6</ele>
        <time>2022-05-27T06:08:19Z</time>
      </trkpt>
      <trkpt lat="41.9591890" lon="2.7197620">
        <ele>195.4</ele>
        <time>2022-05-27T06:08:20Z</time>
      </trkpt>
      <trkpt lat="41.9592020" lon="2.7197710">
        <ele>195.2</ele>
        <time>2022-05-27T06:08:21Z</time>
      </trkpt>
      <trkpt lat="41.9592040" lon="2.7197720">
        <ele>195.0</ele>
        <time>2022-05-27T06:08:22Z</time>
      </trkpt>
      <trkpt lat="41.9592050" lon="2.7197720">
        <ele>194.8</ele>
        <time>2022-05-27T06:08:23Z</time>
      </trkpt>
      <trkpt lat="41.9592160" lon="2.7197780">
        <ele>194.6</ele>
        <time>2022-05-27T06:08:24Z</time>
      </trkpt>
      <trkpt lat="41.9592350" lon="2.7197900">
        <ele>194.4</ele>
        <time>2022-05-27T06:08:25Z</time>
      </trkpt>
      <trkpt lat="41.9592540" lon="2.7198030">
        <ele>194.2</ele>
        <time>2022-05-27T06:08:26Z</time>
      </trkpt>
      <trkpt lat="41.9592720" lon="2.7198140">
        <ele>194.0</ele>
        <time>2022-05-27T06:08:27Z</time>
      </trkpt>
      <trkpt lat="41.9592900" lon="2.7198260">
        <ele>193.8</ele>
        <time>2022-05-27T06:08:28Z</time>
      </trkpt>
      <trkpt lat="41.9593120" lon="2.7198500">
        <ele>193.8</ele>
        <time>2022-05-27T06:08:29Z</time>
      </trkpt>
      <trkpt lat="41.9593380" lon="2.7198810">
        <ele>193.6</ele>
        <time>2022-05-27T06:08:30Z</time>
      </trkpt>
      <trkpt lat="41.9593650" lon="2.7199110">
        <ele>193.4</ele>
        <time>2022-05-27T06:08:31Z</time>
      </trkpt>
      <trkpt lat="41.9593940" lon="2.7199460">
        <ele>193.4</ele>
        <time>2022-05-27T06:08:32Z</time>
      </trkpt>
      <trkpt lat="41.9594260" lon="2.7199880">
        <ele>193.2</ele>
        <time>2022-05-27T06:08:33Z</time>
      </trkpt>
      <trkpt lat="41.9594570" lon="2.7200310">
        <ele>193.2</ele>
        <time>2022-05-27T06:08:34Z</time>
      </trkpt>
      <trkpt lat="41.9594830" lon="2.7200660">
        <ele>193.2</ele>
        <time>2022-05-27T06:08:35Z</time>
      </trkpt>
      <trkpt lat="41.9595130" lon="2.7201010">
        <ele>193.2</ele>
        <time>2022-05-27T06:08:36Z</time>
      </trkpt>
      <trkpt lat="41.9595420" lon="2.7201340">
        <ele>193.0</ele>
        <time>2022-05-27T06:08:37Z</time>
      </trkpt>
      <trkpt lat="41.9595730" lon="2.7201700">
        <ele>193.0</ele>
        <time>2022-05-27T06:08:38Z</time>
      </trkpt>
      <trkpt lat="41.9596010" lon="2.7201960">
        <ele>193.0</ele>
        <time>2022-05-27T06:08:39Z</time>
      </trkpt>
      <trkpt lat="41.9596210" lon="2.7202100">
        <ele>192.8</ele>
        <time>2022-05-27T06:08:40Z</time>
      </trkpt>
      <trkpt lat="41.9596370" lon="2.7202180">
        <ele>192.8</ele>
        <time>2022-05-27T06:08:41Z</time>
      </trkpt>
      <trkpt lat="41.9596520" lon="2.7202280">
        <ele>192.6</ele>
        <time>2022-05-27T06:08:42Z</time>
      </trkpt>
      <trkpt lat="41.9596740" lon="2.7202460">
        <ele>192.6</ele>
        <time>2022-05-27T06:08:43Z</time>
      </trkpt>
      <trkpt lat="41.9597000" lon="2.7202700">
        <ele>192.4</ele>
        <time>2022-05-27T06:08:44Z</time>
      </trkpt>
      <trkpt lat="41.9597230" lon="2.7202860">
        <ele>192.2</ele>
        <time>2022-05-27T06:08:45Z</time>
      </trkpt>
      <trkpt lat="41.9597460" lon="2.7202910">
        <ele>192.0</ele>
        <time>2022-05-27T06:08:46Z</time>
      </trkpt>
      <trkpt lat="41.9597780" lon="2.7202990">
        <ele>191.6</ele>
        <time>2022-05-27T06:08:47Z</time>
      </trkpt>
      <trkpt lat="41.9598070" lon="2.7203140">
        <ele>191.2</ele>
        <time>2022-05-27T06:08:48Z</time>
      </trkpt>
      <trkpt lat="41.9598290" lon="2.7203390">
        <ele>191.0</ele>
        <time>2022-05-27T06:08:49Z</time>
      </trkpt>
      <trkpt lat="41.9598430" lon="2.7203740">
        <ele>190.6</ele>
        <time>2022-05-27T06:08:50Z</time>
      </trkpt>
      <trkpt lat="41.9598510" lon="2.7203990">
        <ele>190.4</ele>
        <time>2022-05-27T06:08:51Z</time>
      </trkpt>
      <trkpt lat="41.9598560" lon="2.7204090">
        <ele>190.0</ele>
        <time>2022-05-27T06:08:52Z</time>
      </trkpt>
      <trkpt lat="41.9598590" lon="2.7204100">
        <ele>189.8</ele>
        <time>2022-05-27T06:08:53Z</time>
      </trkpt>
      <trkpt lat="41.9598640" lon="2.7204120">
        <ele>189.6</ele>
        <time>2022-05-27T06:08:54Z</time>
      </trkpt>
      <trkpt lat="41.9598670" lon="2.7204110">
        <ele>189.6</ele>
        <time>2022-05-27T06:08:55Z</time>
      </trkpt>
      <trkpt lat="41.9598620" lon="2.7204030">
        <ele>189.6</ele>
        <time>2022-05-27T06:08:56Z</time>
      </trkpt>
      <trkpt lat="41.9598510" lon="2.7203790">
        <ele>189.6</ele>
        <time>2022-05-27T06:08:57Z</time>
      </trkpt>
      <trkpt lat="41.9598180" lon="2.7203440">
        <ele>189.6</ele>
        <time>2022-05-27T06:08:58Z</time>
      </trkpt>
      <trkpt lat="41.9597860" lon="2.7203120">
        <ele>189.8</ele>
        <time>2022-05-27T06:08:59Z</time>
      </trkpt>
      <trkpt lat="41.9597640" lon="2.7202950">
        <ele>189.8</ele>
        <time>2022-05-27T06:09:00Z</time>
      </trkpt>
      <trkpt lat="41.9597490" lon="2.7202810">
        <ele>190.0</ele>
        <time>2022-05-27T06:09:01Z</time>
      </trkpt>
      <trkpt lat="41.9597420" lon="2.7202770">
        <ele>190.0</ele>
        <time>2022-05-27T06:09:02Z</time>
      </trkpt>
      <trkpt lat="41.9597390" lon="2.7202780">
        <ele>190.0</ele>
        <time>2022-05-27T06:09:03Z</time>
      </trkpt>
      <trkpt lat="41.9597380" lon="2.7202740">
        <ele>190.2</ele>
        <time>2022-05-27T06:09:04Z</time>
      </trkpt>
      <trkpt lat="41.9597330" lon="2.7202670">
        <ele>190.4</ele>
        <time>2022-05-27T06:09:05Z</time>
      </trkpt>
      <trkpt lat="41.9597230" lon="2.7202520">
        <ele>190.4</ele>
        <time>2022-05-27T06:09:06Z</time>
      </trkpt>
      <trkpt lat="41.9597090" lon="2.7202330">
        <ele>190.4</ele>
        <time>2022-05-27T06:09:07Z</time>
      </trkpt>
      <trkpt lat="41.9596960" lon="2.7202110">
        <ele>190.6</ele>
        <time>2022-05-27T06:09:08Z</time>
      </trkpt>
      <trkpt lat="41.9596870" lon="2.7201970">
        <ele>190.8</ele>
        <time>2022-05-27T06:09:09Z</time>
      </trkpt>
      <trkpt lat="41.9596820" lon="2.7201850">
        <ele>190.8</ele>
        <time>2022-05-27T06:09:10Z</time>
      </trkpt>
      <trkpt lat="41.9596800" lon="2.7201810">
        <ele>191.0</ele>
        <time>2022-05-27T06:09:11Z</time>
      </trkpt>
      <trkpt lat="41.9596750" lon="2.7201760">
        <ele>191.2</ele>
        <time>2022-05-27T06:09:12Z</time>
      </trkpt>
      <trkpt lat="41.9596590" lon="2.7201650">
        <ele>191.4</ele>
        <time>2022-05-27T06:09:13Z</time>
      </trkpt>
      <trkpt lat="41.9596370" lon="2.7201460">
        <ele>191.4</ele>
        <time>2022-05-27T06:09:14Z</time>
      </trkpt>
      <trkpt lat="41.9596130" lon="2.7201190">
        <ele>191.6</ele>
        <time>2022-05-27T06:09:15Z</time>
      </trkpt>
      <trkpt lat="41.9595870" lon="2.7200870">
        <ele>191.6</ele>
        <time>2022-05-27T06:09:16Z</time>
      </trkpt>
      <trkpt lat="41.9595520" lon="2.7200510">
        <ele>191.8</ele>
        <time>2022-05-27T06:09:17Z</time>
      </trkpt>
      <trkpt lat="41.9595140" lon="2.7200130">
        <ele>191.8</ele>
        <time>2022-05-27T06:09:18Z</time>
      </trkpt>
      <trkpt lat="41.9594710" lon="2.7199740">
        <ele>191.8</ele>
        <time>2022-05-27T06:09:19Z</time>
      </trkpt>
      <trkpt lat="41.9594230" lon="2.7199310">
        <ele>192.0</ele>
        <time>2022-05-27T06:09:20Z</time>
      </trkpt>
      <trkpt lat="41.9593790" lon="2.7198910">
        <ele>192.0</ele>
        <time>2022-05-27T06:09:21Z</time>
      </trkpt>
      <trkpt lat="41.9593420" lon="2.7198550">
        <ele>192.0</ele>
        <time>2022-05-27T06:09:22Z</time>
      </trkpt>
      <trkpt lat="41.9593150" lon="2.7198260">
        <ele>192.2</ele>
        <time>2022-05-27T06:09:23Z</time>
      </trkpt>
      <trkpt lat="41.9592930" lon="2.7198040">
        <ele>192.4</ele>
        <time>2022-05-27T06:09:24Z</time>
      </trkpt>
      <trkpt lat="41.9592720" lon="2.7197830">
        <ele>192.4</ele>
        <time>2022-05-27T06:09:25Z</time>
      </trkpt>
      <trkpt lat="41.9592560" lon="2.7197700">
        <ele>192.6</ele>
        <time>2022-05-27T06:09:26Z</time>
      </trkpt>
      <trkpt lat="41.9592400" lon="2.7197630">
        <ele>192.6</ele>
        <time>2022-05-27T06:09:27Z</time>
      </trkpt>
      <trkpt lat="41.9592200" lon="2.7197510">
        <ele>192.8</ele>
        <time>2022-05-27T06:09:28Z</time>
      </trkpt>
      <trkpt lat="41.9591970" lon="2.7197210">
        <ele>192.8</ele>
        <time>2022-05-27T06:09:29Z</time>
      </trkpt>
      <trkpt lat="41.9591720" lon="2.7196800">
        <ele>193.0</ele>
        <time>2022-05-27T06:09:30Z</time>
      </trkpt>
      <trkpt lat="41.9591470" lon="2.7196540">
        <ele>193.0</ele>
        <time>2022-05-27T06:09:31Z</time>
      </trkpt>
      <trkpt lat="41.9591200" lon="2.7196440">
        <ele>193.2</ele>
        <time>2022-05-27T06:09:32Z</time>
      </trkpt>
      <trkpt lat="41.9590920" lon="2.7196380">
        <ele>193.2</ele>
        <time>2022-05-27T06:09:33Z</time>
      </trkpt>
      <trkpt lat="41.9590790" lon="2.7196390">
        <ele>193.4</ele>
        <time>2022-05-27T06:09:34Z</time>
      </trkpt>
      <trkpt lat="41.9590750" lon="2.7196400">
        <ele>193.4</ele>
        <time>2022-05-27T06:09:35Z</time>
      </trkpt>
      <trkpt lat="41.9590760" lon="2.7196400">
        <ele>193.6</ele>
        <time>2022-05-27T06:09:36Z</time>
      </trkpt>
      <trkpt lat="41.9590770" lon="2.7196400">
        <ele>193.8</ele>
        <time>2022-05-27T06:09:37Z</time>
      </trkpt>
      <trkpt lat="41.9590770" lon="2.7196400">
        <ele>193.8</ele>
        <time>2022-05-27T06:09:38Z</time>
      </trkpt>
      <trkpt lat="41.9590770" lon="2.7196400">
        <ele>193.8</ele>
        <time>2022-05-27T06:09:39Z</time>
      </trkpt>
      <trkpt lat="41.9590770" lon="2.7196400">
        <ele>193.8</ele>
        <time>2022-05-27T06:09:40Z</time>
      </trkpt>
      <trkpt lat="41.9590780" lon="2.7196380">
        <ele>193.8</ele>
        <time>2022-05-27T06:09:41Z</time>
      </trkpt>
      <trkpt lat="41.9590810" lon="2.7196370">
        <ele>193.8</ele>
        <time>2022-05-27T06:09:42Z</time>
      </trkpt>
      <trkpt lat="41.9590820" lon="2.7196360">
        <ele>193.8</ele>
        <time>2022-05-27T06:09:43Z</time>
      </trkpt>
      <trkpt lat="41.9590840" lon="2.7196350">
        <ele>193.8</ele>
        <time>2022-05-27T06:09:44Z</time>
      </trkpt>
      <trkpt lat="41.9590890" lon="2.7196330">
        <ele>193.8</ele>
        <time>2022-05-27T06:09:45Z</time>
      </trkpt>
      <trkpt lat="41.9590220" lon="2.7195890">
        <ele>194.2</ele>
        <time>2022-05-27T06:09:59Z</time>
      </trkpt>
      <trkpt lat="41.9590080" lon="2.7195960">
        <ele>194.4</ele>
        <time>2022-05-27T06:10:00Z</time>
      </trkpt>
      <trkpt lat="41.9590020" lon="2.7196120">
        <ele>194.6</ele>
        <time>2022-05-27T06:10:01Z</time>
      </trkpt>
      <trkpt lat="41.9589970" lon="2.7196200">
        <ele>194.6</ele>
        <time>2022-05-27T06:10:02Z</time>
      </trkpt>
      <trkpt lat="41.9589980" lon="2.7196210">
        <ele>194.8</ele>
        <time>2022-05-27T06:10:03Z</time>
      </trkpt>
      <trkpt lat="41.9589960" lon="2.7196190">
        <ele>194.8</ele>
        <time>2022-05-27T06:10:04Z</time>
      </trkpt>
      <trkpt lat="41.9589950" lon="2.7196130">
        <ele>194.8</ele>
        <time>2022-05-27T06:10:05Z</time>
      </trkpt>
      <trkpt lat="41.9589930" lon="2.7196020">
        <ele>194.8</ele>
        <time>2022-05-27T06:10:06Z</time>
      </trkpt>
      <trkpt lat="41.9589910" lon="2.7195990">
        <ele>194.8</ele>
        <time>2022-05-27T06:10:07Z</time>
      </trkpt>
      <trkpt lat="41.9589890" lon="2.7196020">
        <ele>194.8</ele>
        <time>2022-05-27T06:10:08Z</time>
      </trkpt>
      <trkpt lat="41.9589890" lon="2.7196090">
        <ele>194.8</ele>
        <time>2022-05-27T06:10:09Z</time>
      </trkpt>
      <trkpt lat="41.9589920" lon="2.7196210">
        <ele>194.8</ele>
        <time>2022-05-27T06:10:10Z</time>
      </trkpt>
      <trkpt lat="41.9589900" lon="2.7196310">
        <ele>194.8</ele>
        <time>2022-05-27T06:10:11Z</time>
      </trkpt>
      <trkpt lat="41.9589850" lon="2.7196440">
        <ele>194.8</ele>
        <time>2022-05-27T06:10:12Z</time>
      </trkpt>
      <trkpt lat="41.9589760" lon="2.7196660">
        <ele>195.0</ele>
        <time>2022-05-27T06:10:13Z</time>
      </trkpt>
      <trkpt lat="41.9589640" lon="2.7197040">
        <ele>195.4</ele>
        <time>2022-05-27T06:10:14Z</time>
      </trkpt>
      <trkpt lat="41.9589490" lon="2.7197430">
        <ele>195.8</ele>
        <time>2022-05-27T06:10:15Z</time>
      </trkpt>
      <trkpt lat="41.9589330" lon="2.7197770">
        <ele>196.0</ele>
        <time>2022-05-27T06:10:16Z</time>
      </trkpt>
      <trkpt lat="41.9589150" lon="2.7197940">
        <ele>196.2</ele>
        <time>2022-05-27T06:10:17Z</time>
      </trkpt>
      <trkpt lat="41.9588940" lon="2.7198020">
        <ele>196.4</ele>
        <time>2022-05-27T06:10:18Z</time>
      </trkpt>
      <trkpt lat="41.9588880" lon="2.7197950">
        <ele>196.6</ele>
        <time>2022-05-27T06:10:19Z</time>
      </trkpt>
      <trkpt lat="41.9588880" lon="2.7197880">
        <ele>196.8</ele>
        <time>2022-05-27T06:10:20Z</time>
      </trkpt>
      <trkpt lat="41.9588920" lon="2.7197910">
        <ele>197.0</ele>
        <time>2022-05-27T06:10:21Z</time>
      </trkpt>
      <trkpt lat="41.9588950" lon="2.7198010">
        <ele>197.2</ele>
        <time>2022-05-27T06:10:22Z</time>
      </trkpt>
      <trkpt lat="41.9589030" lon="2.7198190">
        <ele>197.4</ele>
        <time>2022-05-27T06:10:23Z</time>
      </trkpt>
      <trkpt lat="41.9589180" lon="2.7198270">
        <ele>197.4</ele>
        <time>2022-05-27T06:10:24Z</time>
      </trkpt>
      <trkpt lat="41.9589390" lon="2.7198260">
        <ele>197.4</ele>
        <time>2022-05-27T06:10:25Z</time>
      </trkpt>
      <trkpt lat="41.9589530" lon="2.7198050">
        <ele>197.4</ele>
        <time>2022-05-27T06:10:26Z</time>
      </trkpt>
      <trkpt lat="41.9589600" lon="2.7197700">
        <ele>197.2</ele>
        <time>2022-05-27T06:10:27Z</time>
      </trkpt>
      <trkpt lat="41.9589660" lon="2.7197360">
        <ele>197.2</ele>
        <time>2022-05-27T06:10:28Z</time>
      </trkpt>
      <trkpt lat="41.9589760" lon="2.7197120">
        <ele>197.0</ele>
        <time>2022-05-27T06:10:29Z</time>
      </trkpt>
      <trkpt lat="41.9589890" lon="2.7196870">
        <ele>196.8</ele>
        <time>2022-05-27T06:10:30Z</time>
      </trkpt>
      <trkpt lat="41.9589990" lon="2.7196640">
        <ele>196.4</ele>
        <time>2022-05-27T06:10:31Z</time>
      </trkpt>
      <trkpt lat="41.9590050" lon="2.7196390">
        <ele>196.2</ele>
        <time>2022-05-27T06:10:32Z</time>
      </trkpt>
      <trkpt lat="41.9590100" lon="2.7196180">
        <ele>195.8</ele>
        <time>2022-05-27T06:10:33Z</time>
      </trkpt>
      <trkpt lat="41.9590170" lon="2.7196090">
        <ele>195.6</ele>
        <time>2022-05-27T06:10:34Z</time>
      </trkpt>
      <trkpt lat="41.9590300" lon="2.7196070">
        <ele>195.4</ele>
        <time>2022-05-27T06:10:35Z</time>
      </trkpt>
      <trkpt lat="41.9590510" lon="2.7196200">
        <ele>195.0</ele>
        <time>2022-05-27T06:10:36Z</time>
      </trkpt>
      <trkpt lat="41.9590790" lon="2.7196390">
        <ele>194.6</ele>
        <time>2022-05-27T06:10:37Z</time>
      </trkpt>
      <trkpt lat="41.9591030" lon="2.7196540">
        <ele>194.2</ele>
        <time>2022-05-27T06:10:38Z</time>
      </trkpt>
      <trkpt lat="41.9591170" lon="2.7196620">
        <ele>194.0</ele>
        <time>2022-05-27T06:10:39Z</time>
      </trkpt>
      <trkpt lat="41.9591220" lon="2.7196680">
        <ele>193.6</ele>
        <time>2022-05-27T06:10:40Z</time>
      </trkpt>
      <trkpt lat="41.9591230" lon="2.7196690">
        <ele>193.4</ele>
        <time>2022-05-27T06:10:41Z</time>
      </trkpt>
      <trkpt lat="41.9591220" lon="2.7196690">
        <ele>193.2</ele>
        <time>2022-05-27T06:10:42Z</time>
      </trkpt>
      <trkpt lat="41.9591230" lon="2.7196690">
        <ele>193.2</ele>
        <time>2022-05-27T06:10:43Z</time>
      </trkpt>
      <trkpt lat="41.9591280" lon="2.7196730">
        <ele>193.2</ele>
        <time>2022-05-27T06:10:44Z</time>
      </trkpt>
      <trkpt lat="41.9591280" lon="2.7196710">
        <ele>193.2</ele>
        <time>2022-05-27T06:10:45Z</time>
      </trkpt>
      <trkpt lat="41.9591180" lon="2.7196620">
        <ele>193.2</ele>
        <time>2022-05-27T06:10:46Z</time>
      </trkpt>
      <trkpt lat="41.9590920" lon="2.7196490">
        <ele>193.2</ele>
        <time>2022-05-27T06:10:47Z</time>
      </trkpt>
      <trkpt lat="41.9590570" lon="2.7196330">
        <ele>193.4</ele>
        <time>2022-05-27T06:10:48Z</time>
      </trkpt>
      <trkpt lat="41.9590250" lon="2.7196200">
        <ele>193.4</ele>
        <time>2022-05-27T06:10:49Z</time>
      </trkpt>
      <trkpt lat="41.9590130" lon="2.7196160">
        <ele>193.6</ele>
        <time>2022-05-27T06:10:50Z</time>
      </trkpt>
      <trkpt lat="41.9589960" lon="2.7196190">
        <ele>193.8</ele>
        <time>2022-05-27T06:10:51Z</time>
      </trkpt>
      <trkpt lat="41.9589870" lon="2.7196340">
        <ele>194.0</ele>
        <time>2022-05-27T06:10:52Z</time>
      </trkpt>
      <trkpt lat="41.9589800" lon="2.7196540">
        <ele>194.4</ele>
        <time>2022-05-27T06:10:53Z</time>
      </trkpt>
      <trkpt lat="41.9589680" lon="2.7196730">
        <ele>194.6</ele>
        <time>2022-05-27T06:10:54Z</time>
      </trkpt>
      <trkpt lat="41.9589510" lon="2.7196890">
        <ele>195.0</ele>
        <time>2022-05-27T06:10:55Z</time>
      </trkpt>
      <trkpt lat="41.9589390" lon="2.7197060">
        <ele>195.2</ele>
        <time>2022-05-27T06:10:56Z</time>
      </trkpt>
      <trkpt lat="41.9589310" lon="2.7197290">
        <ele>195.6</ele>
        <time>2022-05-27T06:10:57Z</time>
      </trkpt>
      <trkpt lat="41.9589270" lon="2.7197560">
        <ele>196.0</ele>
        <time>2022-05-27T06:10:58Z</time>
      </trkpt>
      <trkpt lat="41.9589280" lon="2.7197840">
        <ele>196.2</ele>
        <time>2022-05-27T06:10:59Z</time>
      </trkpt>
      <trkpt lat="41.9589300" lon="2.7198040">
        <ele>196.4</ele>
        <time>2022-05-27T06:11:00Z</time>
      </trkpt>
      <trkpt lat="41.9589300" lon="2.7198100">
        <ele>196.6</ele>
        <time>2022-05-27T06:11:01Z</time>
      </trkpt>
      <trkpt lat="41.9589300" lon="2.7198090">
        <ele>196.8</ele>
        <time>2022-05-27T06:11:02Z</time>
      </trkpt>
      <trkpt lat="41.9589290" lon="2.7198080">
        <ele>197.0</ele>
        <time>2022-05-27T06:11:03Z</time>
      </trkpt>
      <trkpt lat="41.9589300" lon="2.7198020">
        <ele>197.0</ele>
        <time>2022-05-27T06:11:04Z</time>
      </trkpt>
      <trkpt lat="41.9589310" lon="2.7197920">
        <ele>197.0</ele>
        <time>2022-05-27T06:11:05Z</time>
      </trkpt>
      <trkpt lat="41.9589290" lon="2.7197830">
        <ele>197.0</ele>
        <time>2022-05-27T06:11:06Z</time>
      </trkpt>
      <trkpt lat="41.9589280" lon="2.7197780">
        <ele>197.0</ele>
        <time>2022-05-27T06:11:07Z</time>
      </trkpt>
      <trkpt lat="41.9589280" lon="2.7197720">
        <ele>197.0</ele>
        <time>2022-05-27T06:11:08Z</time>
      </trkpt>
      <trkpt lat="41.9589270" lon="2.7197680">
        <ele>197.0</ele>
        <time>2022-05-27T06:11:09Z</time>
      </trkpt>
      <trkpt lat="41.9589260" lon="2.7197640">
        <ele>197.0</ele>
        <time>2022-05-27T06:11:10Z</time>
      </trkpt>
      <trkpt lat="41.9589250" lon="2.7197570">
        <ele>197.0</ele>
        <time>2022-05-27T06:11:11Z</time>
      </trkpt>
      <trkpt lat="41.9589070" lon="2.7197970">
        <ele>198.2</ele>
        <time>2022-05-27T06:12:14Z</time>
      </trkpt>
      <trkpt lat="41.9589060" lon="2.7198080">
        <ele>198.4</ele>
        <time>2022-05-27T06:12:15Z</time>
      </trkpt>
      <trkpt lat="41.9589060" lon="2.7198120">
        <ele>198.6</ele>
        <time>2022-05-27T06:12:16Z</time>
      </trkpt>
      <trkpt lat="41.9589060" lon="2.7198120">
        <ele>198.6</ele>
        <time>2022-05-27T06:12:17Z</time>
      </trkpt>
      <trkpt lat="41.9589060" lon="2.7198120">
        <ele>198.8</ele>
        <time>2022-05-27T06:12:18Z</time>
      </trkpt>
      <trkpt lat="41.9589060" lon="2.7198120">
        <ele>198.8</ele>
        <time>2022-05-27T06:12:19Z</time>
      </trkpt>
      <trkpt lat="41.9589060" lon="2.7198110">
        <ele>198.8</ele>
        <time>2022-05-27T06:12:20Z</time>
      </trkpt>
      <trkpt lat="41.9589080" lon="2.7198120">
        <ele>198.8</ele>
        <time>2022-05-27T06:12:21Z</time>
      </trkpt>
      <trkpt lat="41.9589090" lon="2.7198160">
        <ele>198.8</ele>
        <time>2022-05-27T06:12:22Z</time>
      </trkpt>
      <trkpt lat="41.9589100" lon="2.7198260">
        <ele>198.8</ele>
        <time>2022-05-27T06:12:23Z</time>
      </trkpt>
      <trkpt lat="41.9588970" lon="2.7198330">
        <ele>198.8</ele>
        <time>2022-05-27T06:12:24Z</time>
      </trkpt>
      <trkpt lat="41.9588740" lon="2.7198310">
        <ele>198.8</ele>
        <time>2022-05-27T06:12:25Z</time>
      </trkpt>
      <trkpt lat="41.9588530" lon="2.7198200">
        <ele>199.0</ele>
        <time>2022-05-27T06:12:26Z</time>
      </trkpt>
      <trkpt lat="41.9588380" lon="2.7198020">
        <ele>199.0</ele>
        <time>2022-05-27T06:12:27Z</time>
      </trkpt>
      <trkpt lat="41.9588250" lon="2.7197860">
        <ele>199.0</ele>
        <time>2022-05-27T06:12:28Z</time>
      </trkpt>
      <trkpt lat="41.9588130" lon="2.7197760">
        <ele>199.2</ele>
        <time>2022-05-27T06:12:29Z</time>
      </trkpt>
      <trkpt lat="41.9587930" lon="2.7197660">
        <ele>199.2</ele>
        <time>2022-05-27T06:12:30Z</time>
      </trkpt>
      <trkpt lat="41.9587570" lon="2.7197510">
        <ele>199.2</ele>
        <time>2022-05-27T06:12:31Z</time>
      </trkpt>
      <trkpt lat="41.9587090" lon="2.7197300">
        <ele>199.4</ele>
        <time>2022-05-27T06:12:32Z</time>
      </trkpt>
      <trkpt lat="41.9586580" lon="2.7196980">
        <ele>199.4</ele>
        <time>2022-05-27T06:12:33Z</time>
      </trkpt>
      <trkpt lat="41.9586130" lon="2.7196650">
        <ele>199.4</ele>
        <time>2022-05-27T06:12:34Z</time>
      </trkpt>
      <trkpt lat="41.9585770" lon="2.7196390">
        <ele>199.6</ele>
        <time>2022-05-27T06:12:35Z</time>
      </trkpt>
      <trkpt lat="41.9585360" lon="2.7196130">
        <ele>199.8</ele>
        <time>2022-05-27T06:12:36Z</time>
      </trkpt>
      <trkpt lat="41.9584860" lon="2.7195870">
        <ele>200.0</ele>
        <time>2022-05-27T06:12:37Z</time>
      </trkpt>
      <trkpt lat="41.9584350" lon="2.7195590">
        <ele>200.4</ele>
        <time>2022-05-27T06:12:38Z</time>
      </trkpt>
      <trkpt lat="41.9583740" lon="2.7195220">
        <ele>200.6</ele>
        <time>2022-05-27T06:12:39Z</time>
      </trkpt>
      <trkpt lat="41.9583020" lon="2.7194750">
        <ele>201.0</ele>
        <time>2022-05-27T06:12:40Z</time>
      </trkpt>
      <trkpt lat="41.9582250" lon="2.7194240">
        <ele>201.0</ele>
        <time>2022-05-27T06:12:41Z</time>
      </trkpt>
      <trkpt lat="41.9581610" lon="2.7193870">
        <ele>201.0</ele>
        <time>2022-05-27T06:12:42Z</time>
      </trkpt>
      <trkpt lat="41.9581030" lon="2.7193560">
        <ele>201.0</ele>
        <time>2022-05-27T06:12:43Z</time>
      </trkpt>
      <trkpt lat="41.9580600" lon="2.7193250">
        <ele>201.0</ele>
        <time>2022-05-27T06:12:44Z</time>
      </trkpt>
      <trkpt lat="41.9580220" lon="2.7192820">
        <ele>201.0</ele>
        <time>2022-05-27T06:12:45Z</time>
      </trkpt>
      <trkpt lat="41.9579900" lon="2.7192250">
        <ele>201.0</ele>
        <time>2022-05-27T06:12:46Z</time>
      </trkpt>
      <trkpt lat="41.9579700" lon="2.7191570">
        <ele>200.8</ele>
        <time>2022-05-27T06:12:47Z</time>
      </trkpt>
      <trkpt lat="41.9579590" lon="2.7190660">
        <ele>200.4</ele>
        <time>2022-05-27T06:12:48Z</time>
      </trkpt>
      <trkpt lat="41.9579590" lon="2.7189710">
        <ele>200.2</ele>
        <time>2022-05-27T06:12:49Z</time>
      </trkpt>
      <trkpt lat="41.9579610" lon="2.7188640">
        <ele>200.4</ele>
        <time>2022-05-27T06:12:50Z</time>
      </trkpt>
      <trkpt lat="41.9579620" lon="2.7187400">
        <ele>200.6</ele>
        <time>2022-05-27T06:12:51Z</time>
      </trkpt>
      <trkpt lat="41.9579600" lon="2.7186260">
        <ele>200.4</ele>
        <time>2022-05-27T06:12:52Z</time>
      </trkpt>
      <trkpt lat="41.9579530" lon="2.7184970">
        <ele>200.2</ele>
        <time>2022-05-27T06:12:53Z</time>
      </trkpt>
      <trkpt lat="41.9579380" lon="2.7183640">
        <ele>200.2</ele>
        <time>2022-05-27T06:12:54Z</time>
      </trkpt>
      <trkpt lat="41.9579070" lon="2.7182190">
        <ele>200.2</ele>
        <time>2022-05-27T06:12:55Z</time>
      </trkpt>
      <trkpt lat="41.9578720" lon="2.7180600">
        <ele>200.4</ele>
        <time>2022-05-27T06:12:56Z</time>
      </trkpt>
      <trkpt lat="41.9578540" lon="2.7179250">
        <ele>200.4</ele>
        <time>2022-05-27T06:12:57Z</time>
      </trkpt>
      <trkpt lat="41.9578400" lon="2.7178180">
        <ele>200.6</ele>
        <time>2022-05-27T06:12:58Z</time>
      </trkpt>
      <trkpt lat="41.9578250" lon="2.7177090">
        <ele>200.6</ele>
        <time>2022-05-27T06:12:59Z</time>
      </trkpt>
      <trkpt lat="41.9577950" lon="2.7176060">
        <ele>200.8</ele>
        <time>2022-05-27T06:13:00Z</time>
      </trkpt>
      <trkpt lat="41.9577520" lon="2.7175280">
        <ele>201.0</ele>
        <time>2022-05-27T06:13:01Z</time>
      </trkpt>
      <trkpt lat="41.9577120" lon="2.7174920">
        <ele>201.2</ele>
        <time>2022-05-27T06:13:02Z</time>
      </trkpt>
      <trkpt lat="41.9576560" lon="2.7174730">
        <ele>201.6</ele>
        <time>2022-05-27T06:13:03Z</time>
      </trkpt>
      <trkpt lat="41.9575840" lon="2.7174480">
        <ele>201.8</ele>
        <time>2022-05-27T06:13:04Z</time>
      </trkpt>
      <trkpt lat="41.9575060" lon="2.7174220">
        <ele>202.0</ele>
        <time>2022-05-27T06:13:05Z</time>
      </trkpt>
      <trkpt lat="41.9574340" lon="2.7174070">
        <ele>202.2</ele>
        <time>2022-05-27T06:13:06Z</time>
      </trkpt>
      <trkpt lat="41.9573730" lon="2.7174030">
        <ele>202.4</ele>
        <time>2022-05-27T06:13:07Z</time>
      </trkpt>
      <trkpt lat="41.9573190" lon="2.7174290">
        <ele>202.6</ele>
        <time>2022-05-27T06:13:08Z</time>
      </trkpt>
      <trkpt lat="41.9572640" lon="2.7174970">
        <ele>202.6</ele>
        <time>2022-05-27T06:13:09Z</time>
      </trkpt>
      <trkpt lat="41.9572130" lon="2.7175870">
        <ele>202.8</ele>
        <time>2022-05-27T06:13:10Z</time>
      </trkpt>
      <trkpt lat="41.9571560" lon="2.7176900">
        <ele>203.4</ele>
        <time>2022-05-27T06:13:11Z</time>
      </trkpt>
      <trkpt lat="41.9570990" lon="2.7177970">
        <ele>204.0</ele>
        <time>2022-05-27T06:13:12Z</time>
      </trkpt>
      <trkpt lat="41.9570490" lon="2.7178640">
        <ele>204.4</ele>
        <time>2022-05-27T06:13:13Z</time>
      </trkpt>
      <trkpt lat="41.9569860" lon="2.7179160">
        <ele>204.8</ele>
        <time>2022-05-27T06:13:14Z</time>
      </trkpt>
      <trkpt lat="41.9569120" lon="2.7179640">
        <ele>205.0</ele>
        <time>2022-05-27T06:13:15Z</time>
      </trkpt>
      <trkpt lat="41.9568370" lon="2.7179710">
        <ele>205.6</ele>
        <time>2022-05-27T06:13:16Z</time>
      </trkpt>
      <trkpt lat="41.9567640" lon="2.7179500">
        <ele>205.8</ele>
        <time>2022-05-27T06:13:17Z</time>
      </trkpt>
      <trkpt lat="41.9566850" lon="2.7178820">
        <ele>205.8</ele>
        <time>2022-05-27T06:13:18Z</time>
      </trkpt>
      <trkpt lat="41.9566850" lon="2.7178820">
        <ele>206.0</ele>
        <time>2022-05-27T06:13:19Z</time>
      </trkpt>
      <trkpt lat="41.9565270" lon="2.7177190">
        <ele>206.4</ele>
        <time>2022-05-27T06:13:20Z</time>
      </trkpt>
      <trkpt lat="41.9564660" lon="2.7176480">
        <ele>206.8</ele>
        <time>2022-05-27T06:13:21Z</time>
      </trkpt>
      <trkpt lat="41.9564660" lon="2.7176480">
        <ele>207.6</ele>
        <time>2022-05-27T06:13:22Z</time>
      </trkpt>
      <trkpt lat="41.9563700" lon="2.7175010">
        <ele>207.8</ele>
        <time>2022-05-27T06:13:23Z</time>
      </trkpt>
      <trkpt lat="41.9563300" lon="2.7174190">
        <ele>208.6</ele>
        <time>2022-05-27T06:13:24Z</time>
      </trkpt>
      <trkpt lat="41.9562940" lon="2.7173250">
        <ele>209.4</ele>
        <time>2022-05-27T06:13:25Z</time>
      </trkpt>
      <trkpt lat="41.9562630" lon="2.7172230">
        <ele>210.0</ele>
        <time>2022-05-27T06:13:26Z</time>
      </trkpt>
      <trkpt lat="41.9562420" lon="2.7171390">
        <ele>210.8</ele>
        <time>2022-05-27T06:13:27Z</time>
      </trkpt>
      <trkpt lat="41.9562200" lon="2.7170860">
        <ele>211.6</ele>
        <time>2022-05-27T06:13:28Z</time>
      </trkpt>
      <trkpt lat="41.9561890" lon="2.7170530">
        <ele>212.2</ele>
        <time>2022-05-27T06:13:29Z</time>
      </trkpt>
      <trkpt lat="41.9561540" lon="2.7170350">
        <ele>212.8</ele>
        <time>2022-05-27T06:13:30Z</time>
      </trkpt>
      <trkpt lat="41.9561230" lon="2.7170210">
        <ele>213.4</ele>
        <time>2022-05-27T06:13:31Z</time>
      </trkpt>
      <trkpt lat="41.9561140" lon="2.7170030">
        <ele>214.0</ele>
        <time>2022-05-27T06:13:32Z</time>
      </trkpt>
      <trkpt lat="41.9561190" lon="2.7169830">
        <ele>214.6</ele>
        <time>2022-05-27T06:13:33Z</time>
      </trkpt>
      <trkpt lat="41.9561490" lon="2.7169640">
        <ele>215.0</ele>
        <time>2022-05-27T06:13:34Z</time>
      </trkpt>
      <trkpt lat="41.9561970" lon="2.7169520">
        <ele>215.4</ele>
        <time>2022-05-27T06:13:35Z</time>
      </trkpt>
      <trkpt lat="41.9562490" lon="2.7169460">
        <ele>215.8</ele>
        <time>2022-05-27T06:13:36Z</time>
      </trkpt>
      <trkpt lat="41.9563100" lon="2.7169390">
        <ele>216.2</ele>
        <time>2022-05-27T06:13:37Z</time>
      </trkpt>
      <trkpt lat="41.9563830" lon="2.7169330">
        <ele>216.8</ele>
        <time>2022-05-27T06:13:38Z</time>
      </trkpt>
      <trkpt lat="41.9564530" lon="2.7169250">
        <ele>217.6</ele>
        <time>2022-05-27T06:13:39Z</time>
      </trkpt>
      <trkpt lat="41.9565170" lon="2.7169120">
        <ele>218.0</ele>
        <time>2022-05-27T06:13:40Z</time>
      </trkpt>
      <trkpt lat="41.9565870" lon="2.7168840">
        <ele>218.4</ele>
        <time>2022-05-27T06:13:41Z</time>
      </trkpt>
      <trkpt lat="41.9566690" lon="2.7168440">
        <ele>218.8</ele>
        <time>2022-05-27T06:13:42Z</time>
      </trkpt>
      <trkpt lat="41.9567570" lon="2.7167990">
        <ele>218.8</ele>
        <time>2022-05-27T06:13:43Z</time>
      </trkpt>
      <trkpt lat="41.9568220" lon="2.7167620">
        <ele>219.0</ele>
        <time>2022-05-27T06:13:44Z</time>
      </trkpt>
      <trkpt lat="41.9568710" lon="2.7167340">
        <ele>219.2</ele>
        <time>2022-05-27T06:13:45Z</time>
      </trkpt>
      <trkpt lat="41.9569060" lon="2.7167130">
        <ele>219.4</ele>
        <time>2022-05-27T06:13:46Z</time>
      </trkpt>
      <trkpt lat="41.9569320" lon="2.7167000">
        <ele>219.4</ele>
        <time>2022-05-27T06:13:47Z</time>
      </trkpt>
      <trkpt lat="41.9569570" lon="2.7166840">
        <ele>219.6</ele>
        <time>2022-05-27T06:13:48Z</time>
      </trkpt>
      <trkpt lat="41.9569860" lon="2.7166590">
        <ele>219.8</ele>
        <time>2022-05-27T06:13:49Z</time>
      </trkpt>
      <trkpt lat="41.9570060" lon="2.7166330">
        <ele>219.8</ele>
        <time>2022-05-27T06:13:50Z</time>
      </trkpt>
      <trkpt lat="41.9570310" lon="2.7165960">
        <ele>220.0</ele>
        <time>2022-05-27T06:13:51Z</time>
      </trkpt>
      <trkpt lat="41.9570460" lon="2.7165800">
        <ele>220.0</ele>
        <time>2022-05-27T06:13:52Z</time>
      </trkpt>
      <trkpt lat="41.9570610" lon="2.7165630">
        <ele>220.2</ele>
        <time>2022-05-27T06:13:53Z</time>
      </trkpt>
      <trkpt lat="41.9570760" lon="2.7165460">
        <ele>220.2</ele>
        <time>2022-05-27T06:13:54Z</time>
      </trkpt>
      <trkpt lat="41.9570900" lon="2.7165300">
        <ele>220.2</ele>
        <time>2022-05-27T06:13:55Z</time>
      </trkpt>
      <trkpt lat="41.9571050" lon="2.7165130">
        <ele>220.2</ele>
        <time>2022-05-27T06:13:56Z</time>
      </trkpt>
      <trkpt lat="41.9571200" lon="2.7164960">
        <ele>220.2</ele>
        <time>2022-05-27T06:13:57Z</time>
      </trkpt>
      <trkpt lat="41.9571350" lon="2.7164800">
        <ele>220.2</ele>
        <time>2022-05-27T06:13:58Z</time>
      </trkpt>
      <trkpt lat="41.9571500" lon="2.7164630">
        <ele>220.2</ele>
        <time>2022-05-27T06:13:59Z</time>
      </trkpt>
      <trkpt lat="41.9571650" lon="2.7164460">
        <ele>220.2</ele>
        <time>2022-05-27T06:14:00Z</time>
      </trkpt>
      <trkpt lat="41.9571790" lon="2.7164300">
        <ele>220.2</ele>
        <time>2022-05-27T06:14:01Z</time>
      </trkpt>
      <trkpt lat="41.9571940" lon="2.7164130">
        <ele>220.2</ele>
        <time>2022-05-27T06:14:02Z</time>
      </trkpt>
      <trkpt lat="41.9572090" lon="2.7163960">
        <ele>220.2</ele>
        <time>2022-05-27T06:14:49Z</time>
      </trkpt>
      <trkpt lat="41.9572240" lon="2.7163800">
        <ele>220.0</ele>
        <time>2022-05-27T06:14:50Z</time>
      </trkpt>
      <trkpt lat="41.9572440" lon="2.7163310">
        <ele>219.6</ele>
        <time>2022-05-27T06:14:51Z</time>
      </trkpt>
      <trkpt lat="41.9572550" lon="2.7162860">
        <ele>219.4</ele>
        <time>2022-05-27T06:14:52Z</time>
      </trkpt>
      <trkpt lat="41.9572660" lon="2.7162510">
        <ele>219.0</ele>
        <time>2022-05-27T06:14:53Z</time>
      </trkpt>
      <trkpt lat="41.9572810" lon="2.7162300">
        <ele>218.4</ele>
        <time>2022-05-27T06:14:54Z</time>
      </trkpt>
      <trkpt lat="41.9573030" lon="2.7162210">
        <ele>218.0</ele>
        <time>2022-05-27T06:14:55Z</time>
      </trkpt>
      <trkpt lat="41.9573280" lon="2.7162160">
        <ele>217.4</ele>
        <time>2022-05-27T06:14:56Z</time>
      </trkpt>
      <trkpt lat="41.9573520" lon="2.7162080">
        <ele>216.8</ele>
        <time>2022-05-27T06:14:57Z</time>
      </trkpt>
      <trkpt lat="41.9573720" lon="2.7161920">
        <ele>216.0</ele>
        <time>2022-05-27T06:14:58Z</time>
      </trkpt>
      <trkpt lat="41.9573870" lon="2.7161690">
        <ele>215.4</ele>
        <time>2022-05-27T06:14:59Z</time>
      </trkpt>
      <trkpt lat="41.9574010" lon="2.7161530">
        <ele>214.6</ele>
        <time>2022-05-27T06:15:00Z</time>
      </trkpt>
      <trkpt lat="41.9574180" lon="2.7161480">
        <ele>214.0</ele>
        <time>2022-05-27T06:15:01Z</time>
      </trkpt>
      <trkpt lat="41.9574430" lon="2.7161450">
        <ele>213.2</ele>
        <time>2022-05-27T06:15:02Z</time>
      </trkpt>
      <trkpt lat="41.9574700" lon="2.7161370">
        <ele>212.4</ele>
        <time>2022-05-27T06:15:03Z</time>
      </trkpt>
      <trkpt lat="41.9574930" lon="2.7161220">
        <ele>211.6</ele>
        <time>2022-05-27T06:15:04Z</time>
      </trkpt>
      <trkpt lat="41.9575100" lon="2.7161010">
        <ele>210.6</ele>
        <time>2022-05-27T06:15:05Z</time>
      </trkpt>
      <trkpt lat="41.9575240" lon="2.7160790">
        <ele>209.8</ele>
        <time>2022-05-27T06:15:06Z</time>
      </trkpt>
      <trkpt lat="41.9575380" lon="2.7160630">
        <ele>208.8</ele>
        <time>2022-05-27T06:15:07Z</time>
      </trkpt>
      <trkpt lat="41.9575540" lon="2.7160580">
        <ele>208.0</ele>
        <time>2022-05-27T06:15:08Z</time>
      </trkpt>
      <trkpt lat="41.9575720" lon="2.7160590">
        <ele>207.0</ele>
        <time>2022-05-27T06:15:09Z</time>
      </trkpt>
      <trkpt lat="41.9575890" lon="2.7160630">
        <ele>206.2</ele>
        <time>2022-05-27T06:15:10Z</time>
      </trkpt>
      <trkpt lat="41.9576030" lon="2.7160690">
        <ele>205.2</ele>
        <time>2022-05-27T06:15:11Z</time>
      </trkpt>
      <trkpt lat="41.9576150" lon="2.7160850">
        <ele>204.4</ele>
        <time>2022-05-27T06:15:12Z</time>
      </trkpt>
      <trkpt lat="41.9576330" lon="2.7161100">
        <ele>203.4</ele>
        <time>2022-05-27T06:15:13Z</time>
      </trkpt>
      <trkpt lat="41.9576610" lon="2.7161390">
        <ele>202.4</ele>
        <time>2022-05-27T06:15:14Z</time>
      </trkpt>
      <trkpt lat="41.9576890" lon="2.7161630">
        <ele>201.6</ele>
        <time>2022-05-27T06:15:15Z</time>
      </trkpt>
      <trkpt lat="41.9577080" lon="2.7161830">
        <ele>200.8</ele>
        <time>2022-05-27T06:15:16Z</time>
      </trkpt>
      <trkpt lat="41.9577220" lon="2.7162050">
        <ele>200.0</ele>
        <time>2022-05-27T06:15:17Z</time>
      </trkpt>
      <trkpt lat="41.9577370" lon="2.7162250">
        <ele>199.0</ele>
        <time>2022-05-27T06:15:18Z</time>
      </trkpt>
      <trkpt lat="41.9577620" lon="2.7162450">
        <ele>198.2</ele>
        <time>2022-05-27T06:15:19Z</time>
      </trkpt>
      <trkpt lat="41.9578010" lon="2.7162670">
        <ele>197.2</ele>
        <time>2022-05-27T06:15:20Z</time>
      </trkpt>
      <trkpt lat="41.9578400" lon="2.7162770">
        <ele>196.2</ele>
        <time>2022-05-27T06:15:21Z</time>
      </trkpt>
      <trkpt lat="41.9578750" lon="2.7162820">
        <ele>195.0</ele>
        <time>2022-05-27T06:15:22Z</time>
      </trkpt>
      <trkpt lat="41.9579110" lon="2.7162780">
        <ele>194.0</ele>
        <time>2022-05-27T06:15:23Z</time>
      </trkpt>
      <trkpt lat="41.9579410" lon="2.7162640">
        <ele>192.8</ele>
        <time>2022-05-27T06:15:24Z</time>
      </trkpt>
      <trkpt lat="41.9579680" lon="2.7162450">
        <ele>191.6</ele>
        <time>2022-05-27T06:15:25Z</time>
      </trkpt>
      <trkpt lat="41.9579970" lon="2.7162320">
        <ele>190.6</ele>
        <time>2022-05-27T06:15:26Z</time>
      </trkpt>
      <trkpt lat="41.9580370" lon="2.7162310">
        <ele>189.8</ele>
        <time>2022-05-27T06:15:27Z</time>
      </trkpt>
      <trkpt lat="41.9580740" lon="2.7162460">
        <ele>189.0</ele>
        <time>2022-05-27T06:15:28Z</time>
      </trkpt>
      <trkpt lat="41.9581030" lon="2.7162790">
        <ele>188.4</ele>
        <time>2022-05-27T06:15:29Z</time>
      </trkpt>
      <trkpt lat="41.9581260" lon="2.7163280">
        <ele>187.8</ele>
        <time>2022-05-27T06:15:30Z</time>
      </trkpt>
      <trkpt lat="41.9581400" lon="2.7163650">
        <ele>187.2</ele>
        <time>2022-05-27T06:15:31Z</time>
      </trkpt>
      <trkpt lat="41.9581500" lon="2.7164000">
        <ele>186.4</ele>
        <time>2022-05-27T06:15:32Z</time>
      </trkpt>
      <trkpt lat="41.9581620" lon="2.7164100">
        <ele>185.8</ele>
        <time>2022-05-27T06:15:33Z</time>
      </trkpt>
      <trkpt lat="41.9581880" lon="2.7164130">
        <ele>185.0</ele>
        <time>2022-05-27T06:15:34Z</time>
      </trkpt>
      <trkpt lat="41.9582290" lon="2.7164170">
        <ele>184.2</ele>
        <time>2022-05-27T06:15:35Z</time>
      </trkpt>
      <trkpt lat="41.9582740" lon="2.7163990">
        <ele>183.6</ele>
        <time>2022-05-27T06:15:36Z</time>
      </trkpt>
      <trkpt lat="41.9583100" lon="2.7163590">
        <ele>183.0</ele>
        <time>2022-05-27T06:15:37Z</time>
      </trkpt>
      <trkpt lat="41.9583110" lon="2.7162890">
        <ele>182.4</ele>
        <time>2022-05-27T06:15:38Z</time>
      </trkpt>
      <trkpt lat="41.9582990" lon="2.7162190">
        <ele>182.0</ele>
        <time>2022-05-27T06:15:39Z</time>
      </trkpt>
      <trkpt lat="41.9582580" lon="2.7161480">
        <ele>181.4</ele>
        <time>2022-05-27T06:15:40Z</time>
      </trkpt>
      <trkpt lat="41.9582130" lon="2.7160930">
        <ele>181.2</ele>
        <time>2022-05-27T06:15:41Z</time>
      </trkpt>
      <trkpt lat="41.9581760" lon="2.7160400">
        <ele>181.0</ele>
        <time>2022-05-27T06:15:42Z</time>
      </trkpt>
      <trkpt lat="41.9581610" lon="2.7159890">
        <ele>180.8</ele>
        <time>2022-05-27T06:15:43Z</time>
      </trkpt>
      <trkpt lat="41.9581600" lon="2.7159360">
        <ele>180.6</ele>
        <time>2022-05-27T06:15:44Z</time>
      </trkpt>
      <trkpt lat="41.9581810" lon="2.7158880">
        <ele>180.2</ele>
        <time>2022-05-27T06:15:45Z</time>
      </trkpt>
      <trkpt lat="41.9582130" lon="2.7158310">
        <ele>179.8</ele>
        <time>2022-05-27T06:15:46Z</time>
      </trkpt>
      <trkpt lat="41.9582490" lon="2.7157660">
        <ele>179.6</ele>
        <time>2022-05-27T06:15:47Z</time>
      </trkpt>
      <trkpt lat="41.9582750" lon="2.7156970">
        <ele>179.4</ele>
        <time>2022-05-27T06:15:48Z</time>
      </trkpt>
      <trkpt lat="41.9583040" lon="2.7156170">
        <ele>179.2</ele>
        <time>2022-05-27T06:15:49Z</time>
      </trkpt>
      <trkpt lat="41.9583230" lon="2.7155260">
        <ele>179.0</ele>
        <time>2022-05-27T06:15:50Z</time>
      </trkpt>
      <trkpt lat="41.9583400" lon="2.7154400">
        <ele>178.6</ele>
        <time>2022-05-27T06:15:51Z</time>
      </trkpt>
      <trkpt lat="41.9583510" lon="2.7153620">
        <ele>178.2</ele>
        <time>2022-05-27T06:15:52Z</time>
      </trkpt>
      <trkpt lat="41.9583500" lon="2.7152880">
        <ele>177.8</ele>
        <time>2022-05-27T06:15:53Z</time>
      </trkpt>
      <trkpt lat="41.9583460" lon="2.7152160">
        <ele>177.4</ele>
        <time>2022-05-27T06:15:54Z</time>
      </trkpt>
      <trkpt lat="41.9583320" lon="2.7151540">
        <ele>176.8</ele>
        <time>2022-05-27T06:15:55Z</time>
      </trkpt>
      <trkpt lat="41.9583060" lon="2.7151020">
        <ele>176.4</ele>
        <time>2022-05-27T06:15:56Z</time>
      </trkpt>
      <trkpt lat="41.9582630" lon="2.7150530">
        <ele>176.0</ele>
        <time>2022-05-27T06:15:57Z</time>
      </trkpt>
      <trkpt lat="41.9582130" lon="2.7150100">
        <ele>175.6</ele>
        <time>2022-05-27T06:15:58Z</time>
      </trkpt>
      <trkpt lat="41.9581600" lon="2.7149810">
        <ele>175.0</ele>
        <time>2022-05-27T06:15:59Z</time>
      </trkpt>
      <trkpt lat="41.9581150" lon="2.7149630">
        <ele>174.4</ele>
        <time>2022-05-27T06:16:00Z</time>
      </trkpt>
      <trkpt lat="41.9580870" lon="2.7149540">
        <ele>174.0</ele>
        <time>2022-05-27T06:16:01Z</time>
      </trkpt>
      <trkpt lat="41.9580810" lon="2.7149470">
        <ele>173.2</ele>
        <time>2022-05-27T06:16:02Z</time>
      </trkpt>
      <trkpt lat="41.9580900" lon="2.7149370">
        <ele>172.6</ele>
        <time>2022-05-27T06:16:03Z</time>
      </trkpt>
      <trkpt lat="41.9581080" lon="2.7149140">
        <ele>171.8</ele>
        <time>2022-05-27T06:16:04Z</time>
      </trkpt>
      <trkpt lat="41.9581280" lon="2.7148850">
        <ele>171.2</ele>
        <time>2022-05-27T06:16:05Z</time>
      </trkpt>
      <trkpt lat="41.9581490" lon="2.7148640">
        <ele>170.6</ele>
        <time>2022-05-27T06:16:06Z</time>
      </trkpt>
      <trkpt lat="41.9581730" lon="2.7148460">
        <ele>169.8</ele>
        <time>2022-05-27T06:16:07Z</time>
      </trkpt>
      <trkpt lat="41.9581990" lon="2.7148210">
        <ele>169.2</ele>
        <time>2022-05-27T06:16:08Z</time>
      </trkpt>
      <trkpt lat="41.9582140" lon="2.7147920">
        <ele>168.4</ele>
        <time>2022-05-27T06:16:09Z</time>
      </trkpt>
      <trkpt lat="41.9582140" lon="2.7147650">
        <ele>167.6</ele>
        <time>2022-05-27T06:16:10Z</time>
      </trkpt>
      <trkpt lat="41.9582080" lon="2.7147430">
        <ele>166.8</ele>
        <time>2022-05-27T06:16:11Z</time>
      </trkpt>
      <trkpt lat="41.9581910" lon="2.7147240">
        <ele>166.0</ele>
        <time>2022-05-27T06:16:12Z</time>
      </trkpt>
      <trkpt lat="41.9581790" lon="2.7147060">
        <ele>165.2</ele>
        <time>2022-05-27T06:16:13Z</time>
      </trkpt>
      <trkpt lat="41.9581760" lon="2.7146900">
        <ele>164.6</ele>
        <time>2022-05-27T06:16:14Z</time>
      </trkpt>
      <trkpt lat="41.9581720" lon="2.7146840">
        <ele>164.0</ele>
        <time>2022-05-27T06:16:15Z</time>
      </trkpt>
      <trkpt lat="41.9581730" lon="2.7146820">
        <ele>163.4</ele>
        <time>2022-05-27T06:16:16Z</time>
      </trkpt>
      <trkpt lat="41.9581730" lon="2.7146830">
        <ele>163.0</ele>
        <time>2022-05-27T06:16:17Z</time>
      </trkpt>
      <trkpt lat="41.9581740" lon="2.7146830">
        <ele>162.8</ele>
        <time>2022-05-27T06:16:18Z</time>
      </trkpt>
      <trkpt lat="41.9581720" lon="2.7146870">
        <ele>162.8</ele>
        <time>2022-05-27T06:16:19Z</time>
      </trkpt>
      <trkpt lat="41.9581740" lon="2.7146950">
        <ele>162.8</ele>
        <time>2022-05-27T06:16:20Z</time>
      </trkpt>
      <trkpt lat="41.9581760" lon="2.7146980">
        <ele>162.8</ele>
        <time>2022-05-27T06:16:21Z</time>
      </trkpt>
      <trkpt lat="41.9581770" lon="2.7147020">
        <ele>162.8</ele>
        <time>2022-05-27T06:16:22Z</time>
      </trkpt>
      <trkpt lat="41.9581820" lon="2.7147130">
        <ele>162.8</ele>
        <time>2022-05-27T06:16:23Z</time>
      </trkpt>
      <trkpt lat="41.9581890" lon="2.7147230">
        <ele>162.8</ele>
        <time>2022-05-27T06:16:24Z</time>
      </trkpt>
      <trkpt lat="41.9581930" lon="2.7147280">
        <ele>162.8</ele>
        <time>2022-05-27T06:16:25Z</time>
      </trkpt>
      <trkpt lat="41.9582000" lon="2.7147380">
        <ele>162.8</ele>
        <time>2022-05-27T06:16:26Z</time>
      </trkpt>
      <trkpt lat="41.9582020" lon="2.7147430">
        <ele>162.8</ele>
        <time>2022-05-27T06:16:27Z</time>
      </trkpt>
      <trkpt lat="41.9582020" lon="2.7147440">
        <ele>162.8</ele>
        <time>2022-05-27T06:16:28Z</time>
      </trkpt>
      <trkpt lat="41.9582020" lon="2.7147440">
        <ele>162.8</ele>
        <time>2022-05-27T06:16:29Z</time>
      </trkpt>
      <trkpt lat="41.9582020" lon="2.7147430">
        <ele>162.8</ele>
        <time>2022-05-27T06:16:30Z</time>
      </trkpt>
      <trkpt lat="41.9582040" lon="2.7147400">
        <ele>162.8</ele>
        <time>2022-05-27T06:16:31Z</time>
      </trkpt>
      <trkpt lat="41.9582050" lon="2.7147380">
        <ele>162.8</ele>
        <time>2022-05-27T06:16:32Z</time>
      </trkpt>
      <trkpt lat="41.9582040" lon="2.7147370">
        <ele>162.8</ele>
        <time>2022-05-27T06:16:33Z</time>
      </trkpt>
      <trkpt lat="41.9582040" lon="2.7147390">
        <ele>162.8</ele>
        <time>2022-05-27T06:16:34Z</time>
      </trkpt>
      <trkpt lat="41.9582040" lon="2.7147430">
        <ele>162.8</ele>
        <time>2022-05-27T06:16:35Z</time>
      </trkpt>
      <trkpt lat="41.9582040" lon="2.7147480">
        <ele>162.8</ele>
        <time>2022-05-27T06:16:36Z</time>
      </trkpt>
      <trkpt lat="41.9582040" lon="2.7147480">
        <ele>162.8</ele>
        <time>2022-05-27T06:16:37Z</time>
      </trkpt>
      <trkpt lat="41.9581640" lon="2.7146730">
        <ele>161.6</ele>
        <time>2022-05-27T06:17:01Z</time>
      </trkpt>
      <trkpt lat="41.9581630" lon="2.7146730">
        <ele>161.4</ele>
        <time>2022-05-27T06:17:02Z</time>
      </trkpt>
      <trkpt lat="41.9581630" lon="2.7146730">
        <ele>161.2</ele>
        <time>2022-05-27T06:17:03Z</time>
      </trkpt>
      <trkpt lat="41.9581640" lon="2.7146710">
        <ele>161.2</ele>
        <time>2022-05-27T06:17:04Z</time>
      </trkpt>
      <trkpt lat="41.9581600" lon="2.7146690">
        <ele>161.2</ele>
        <time>2022-05-27T06:17:05Z</time>
      </trkpt>
      <trkpt lat="41.9581530" lon="2.7146670">
        <ele>161.2</ele>
        <time>2022-05-27T06:17:06Z</time>
      </trkpt>
      <trkpt lat="41.9581410" lon="2.7146630">
        <ele>161.2</ele>
        <time>2022-05-27T06:17:07Z</time>
      </trkpt>
      <trkpt lat="41.9581110" lon="2.7146600">
        <ele>161.2</ele>
        <time>2022-05-27T06:17:08Z</time>
      </trkpt>
      <trkpt lat="41.9580700" lon="2.7146580">
        <ele>161.2</ele>
        <time>2022-05-27T06:17:09Z</time>
      </trkpt>
      <trkpt lat="41.9580210" lon="2.7146550">
        <ele>161.2</ele>
        <time>2022-05-27T06:17:10Z</time>
      </trkpt>
      <trkpt lat="41.9579660" lon="2.7146430">
        <ele>161.4</ele>
        <time>2022-05-27T06:17:11Z</time>
      </trkpt>
      <trkpt lat="41.9579070" lon="2.7146230">
        <ele>161.4</ele>
        <time>2022-05-27T06:17:12Z</time>
      </trkpt>
      <trkpt lat="41.9578450" lon="2.7145980">
        <ele>161.6</ele>
        <time>2022-05-27T06:17:13Z</time>
      </trkpt>
      <trkpt lat="41.9577890" lon="2.7145740">
        <ele>161.6</ele>
        <time>2022-05-27T06:17:14Z</time>
      </trkpt>
      <trkpt lat="41.9577350" lon="2.7145480">
        <ele>161.4</ele>
        <time>2022-05-27T06:17:15Z</time>
      </trkpt>
      <trkpt lat="41.9576790" lon="2.7145160">
        <ele>161.4</ele>
        <time>2022-05-27T06:17:16Z</time>
      </trkpt>
      <trkpt lat="41.9576190" lon="2.7144800">
        <ele>161.0</ele>
        <time>2022-05-27T06:17:17Z</time>
      </trkpt>
      <trkpt lat="41.9575590" lon="2.7144380">
        <ele>160.8</ele>
        <time>2022-05-27T06:17:18Z</time>
      </trkpt>
      <trkpt lat="41.9574960" lon="2.7143910">
        <ele>160.4</ele>
        <time>2022-05-27T06:17:19Z</time>
      </trkpt>
      <trkpt lat="41.9574250" lon="2.7143410">
        <ele>160.2</ele>
        <time>2022-05-27T06:17:20Z</time>
      </trkpt>
      <trkpt lat="41.9573480" lon="2.7142960">
        <ele>160.0</ele>
        <time>2022-05-27T06:17:21Z</time>
      </trkpt>
      <trkpt lat="41.9572740" lon="2.7142580">
        <ele>159.6</ele>
        <time>2022-05-27T06:17:22Z</time>
      </trkpt>
      <trkpt lat="41.9572030" lon="2.7142320">
        <ele>159.4</ele>
        <time>2022-05-27T06:17:23Z</time>
      </trkpt>
      <trkpt lat="41.9571320" lon="2.7142280">
        <ele>159.0</ele>
        <time>2022-05-27T06:17:24Z</time>
      </trkpt>
      <trkpt lat="41.9570530" lon="2.7142370">
        <ele>158.6</ele>
        <time>2022-05-27T06:17:25Z</time>
      </trkpt>
      <trkpt lat="41.9569730" lon="2.7142660">
        <ele>158.2</ele>
        <time>2022-05-27T06:17:26Z</time>
      </trkpt>
      <trkpt lat="41.9568970" lon="2.7143150">
        <ele>157.8</ele>
        <time>2022-05-27T06:17:27Z</time>
      </trkpt>
      <trkpt lat="41.9568270" lon="2.7143760">
        <ele>157.4</ele>
        <time>2022-05-27T06:17:28Z</time>
      </trkpt>
      <trkpt lat="41.9567510" lon="2.7144210">
        <ele>157.0</ele>
        <time>2022-05-27T06:17:29Z</time>
      </trkpt>
      <trkpt lat="41.9566660" lon="2.7144500">
        <ele>156.8</ele>
        <time>2022-05-27T06:17:30Z</time>
      </trkpt>
      <trkpt lat="41.9565720" lon="2.7144540">
        <ele>156.4</ele>
        <time>2022-05-27T06:17:31Z</time>
      </trkpt>
      <trkpt lat="41.9564810" lon="2.7144200">
        <ele>156.0</ele>
        <time>2022-05-27T06:17:32Z</time>
      </trkpt>
      <trkpt lat="41.9564040" lon="2.7143840">
        <ele>155.8</ele>
        <time>2022-05-27T06:17:33Z</time>
      </trkpt>
      <trkpt lat="41.9563380" lon="2.7143590">
        <ele>155.4</ele>
        <time>2022-05-27T06:17:34Z</time>
      </trkpt>
      <trkpt lat="41.9562770" lon="2.7143390">
        <ele>155.0</ele>
        <time>2022-05-27T06:17:35Z</time>
      </trkpt>
      <trkpt lat="41.9562290" lon="2.7143160">
        <ele>154.6</ele>
        <time>2022-05-27T06:17:36Z</time>
      </trkpt>
      <trkpt lat="41.9562010" lon="2.7142910">
        <ele>154.4</ele>
        <time>2022-05-27T06:17:37Z</time>
      </trkpt>
      <trkpt lat="41.9561920" lon="2.7142820">
        <ele>154.2</ele>
        <time>2022-05-27T06:17:38Z</time>
      </trkpt>
      <trkpt lat="41.9561990" lon="2.7142770">
        <ele>154.2</ele>
        <time>2022-05-27T06:17:39Z</time>
      </trkpt>
      <trkpt lat="41.9562170" lon="2.7142710">
        <ele>154.4</ele>
        <time>2022-05-27T06:17:40Z</time>
      </trkpt>
      <trkpt lat="41.9562480" lon="2.7142570">
        <ele>154.8</ele>
        <time>2022-05-27T06:17:41Z</time>
      </trkpt>
      <trkpt lat="41.9562880" lon="2.7142260">
        <ele>155.2</ele>
        <time>2022-05-27T06:17:42Z</time>
      </trkpt>
      <trkpt lat="41.9563300" lon="2.7141780">
        <ele>155.8</ele>
        <time>2022-05-27T06:17:43Z</time>
      </trkpt>
      <trkpt lat="41.9563800" lon="2.7141250">
        <ele>156.4</ele>
        <time>2022-05-27T06:17:44Z</time>
      </trkpt>
      <trkpt lat="41.9564220" lon="2.7140680">
        <ele>157.0</ele>
        <time>2022-05-27T06:17:45Z</time>
      </trkpt>
      <trkpt lat="41.9564610" lon="2.7140230">
        <ele>157.6</ele>
        <time>2022-05-27T06:17:46Z</time>
      </trkpt>
      <trkpt lat="41.9565050" lon="2.7139820">
        <ele>158.2</ele>
        <time>2022-05-27T06:17:47Z</time>
      </trkpt>
      <trkpt lat="41.9565510" lon="2.7139400">
        <ele>158.8</ele>
        <time>2022-05-27T06:17:48Z</time>
      </trkpt>
      <trkpt lat="41.9566000" lon="2.7138900">
        <ele>159.4</ele>
        <time>2022-05-27T06:17:49Z</time>
      </trkpt>
      <trkpt lat="41.9566490" lon="2.7138270">
        <ele>160.0</ele>
        <time>2022-05-27T06:17:50Z</time>
      </trkpt>
      <trkpt lat="41.9567040" lon="2.7137550">
        <ele>160.8</ele>
        <time>2022-05-27T06:17:51Z</time>
      </trkpt>
      <trkpt lat="41.9567680" lon="2.7136720">
        <ele>162.0</ele>
        <time>2022-05-27T06:17:52Z</time>
      </trkpt>
      <trkpt lat="41.9568210" lon="2.7135870">
        <ele>163.0</ele>
        <time>2022-05-27T06:17:53Z</time>
      </trkpt>
      <trkpt lat="41.9568730" lon="2.7134920">
        <ele>164.0</ele>
        <time>2022-05-27T06:17:54Z</time>
      </trkpt>
      <trkpt lat="41.9569280" lon="2.7133930">
        <ele>165.0</ele>
        <time>2022-05-27T06:17:55Z</time>
      </trkpt>
      <trkpt lat="41.9569770" lon="2.7133130">
        <ele>165.8</ele>
        <time>2022-05-27T06:17:56Z</time>
      </trkpt>
      <trkpt lat="41.9570200" lon="2.7132650">
        <ele>166.6</ele>
        <time>2022-05-27T06:17:57Z</time>
      </trkpt>
      <trkpt lat="41.9570590" lon="2.7132330">
        <ele>167.4</ele>
        <time>2022-05-27T06:17:58Z</time>
      </trkpt>
      <trkpt lat="41.9570890" lon="2.7131930">
        <ele>168.0</ele>
        <time>2022-05-27T06:17:59Z</time>
      </trkpt>
      <trkpt lat="41.9571170" lon="2.7131410">
        <ele>168.6</ele>
        <time>2022-05-27T06:18:00Z</time>
      </trkpt>
      <trkpt lat="41.9571530" lon="2.7130910">
        <ele>169.2</ele>
        <time>2022-05-27T06:18:01Z</time>
      </trkpt>
      <trkpt lat="41.9571950" lon="2.7130470">
        <ele>169.8</ele>
        <time>2022-05-27T06:18:02Z</time>
      </trkpt>
      <trkpt lat="41.9572350" lon="2.7130030">
        <ele>170.4</ele>
        <time>2022-05-27T06:18:03Z</time>
      </trkpt>
      <trkpt lat="41.9572470" lon="2.7129640">
        <ele>170.8</ele>
        <time>2022-05-27T06:18:04Z</time>
      </trkpt>
      <trkpt lat="41.9572520" lon="2.7129390">
        <ele>171.2</ele>
        <time>2022-05-27T06:18:05Z</time>
      </trkpt>
      <trkpt lat="41.9572500" lon="2.7129320">
        <ele>171.6</ele>
        <time>2022-05-27T06:18:06Z</time>
      </trkpt>
      <trkpt lat="41.9572430" lon="2.7129330">
        <ele>172.0</ele>
        <time>2022-05-27T06:18:07Z</time>
      </trkpt>
      <trkpt lat="41.9572390" lon="2.7129370">
        <ele>172.4</ele>
        <time>2022-05-27T06:18:08Z</time>
      </trkpt>
      <trkpt lat="41.9572380" lon="2.7129370">
        <ele>172.6</ele>
        <time>2022-05-27T06:18:09Z</time>
      </trkpt>
      <trkpt lat="41.9572400" lon="2.7129380">
        <ele>173.0</ele>
        <time>2022-05-27T06:18:10Z</time>
      </trkpt>
      <trkpt lat="41.9572420" lon="2.7129390">
        <ele>173.2</ele>
        <time>2022-05-27T06:18:11Z</time>
      </trkpt>
      <trkpt lat="41.9572440" lon="2.7129380">
        <ele>173.2</ele>
        <time>2022-05-27T06:18:12Z</time>
      </trkpt>
      <trkpt lat="41.9572420" lon="2.7129380">
        <ele>173.2</ele>
        <time>2022-05-27T06:18:13Z</time>
      </trkpt>
      <trkpt lat="41.9572440" lon="2.7129380">
        <ele>173.2</ele>
        <time>2022-05-27T06:18:14Z</time>
      </trkpt>
      <trkpt lat="41.9572440" lon="2.7129380">
        <ele>173.2</ele>
        <time>2022-05-27T06:18:15Z</time>
      </trkpt>
      <trkpt lat="41.9572390" lon="2.7129390">
        <ele>173.2</ele>
        <time>2022-05-27T06:18:16Z</time>
      </trkpt>
      <trkpt lat="41.9572360" lon="2.7129400">
        <ele>173.2</ele>
        <time>2022-05-27T06:18:17Z</time>
      </trkpt>
      <trkpt lat="41.9572330" lon="2.7129420">
        <ele>173.2</ele>
        <time>2022-05-27T06:18:18Z</time>
      </trkpt>
      <trkpt lat="41.9572320" lon="2.7129430">
        <ele>173.2</ele>
        <time>2022-05-27T06:18:19Z</time>
      </trkpt>
      <trkpt lat="41.9572320" lon="2.7129440">
        <ele>173.2</ele>
        <time>2022-05-27T06:18:20Z</time>
      </trkpt>
      <trkpt lat="41.9572320" lon="2.7129430">
        <ele>173.2</ele>
        <time>2022-05-27T06:18:21Z</time>
      </trkpt>
      <trkpt lat="41.9572340" lon="2.7129430">
        <ele>173.2</ele>
        <time>2022-05-27T06:18:22Z</time>
      </trkpt>
      <trkpt lat="41.9572320" lon="2.7129430">
        <ele>173.2</ele>
        <time>2022-05-27T06:18:23Z</time>
      </trkpt>
      <trkpt lat="41.9572330" lon="2.7129430">
        <ele>173.2</ele>
        <time>2022-05-27T06:18:24Z</time>
      </trkpt>
      <trkpt lat="41.9572330" lon="2.7129430">
        <ele>173.2</ele>
        <time>2022-05-27T06:18:25Z</time>
      </trkpt>
      <trkpt lat="41.9572330" lon="2.7129430">
        <ele>173.2</ele>
        <time>2022-05-27T06:18:26Z</time>
      </trkpt>
      <trkpt lat="41.9572350" lon="2.7129430">
        <ele>173.2</ele>
        <time>2022-05-27T06:18:27Z</time>
      </trkpt>
      <trkpt lat="41.9572350" lon="2.7129400">
        <ele>173.2</ele>
        <time>2022-05-27T06:18:28Z</time>
      </trkpt>
      <trkpt lat="41.9572930" lon="2.7127900">
        <ele>173.4</ele>
        <time>2022-05-27T06:18:54Z</time>
      </trkpt>
      <trkpt lat="41.9572920" lon="2.7127570">
        <ele>173.6</ele>
        <time>2022-05-27T06:18:55Z</time>
      </trkpt>
      <trkpt lat="41.9572840" lon="2.7127220">
        <ele>173.8</ele>
        <time>2022-05-27T06:18:56Z</time>
      </trkpt>
      <trkpt lat="41.9572810" lon="2.7126820">
        <ele>174.2</ele>
        <time>2022-05-27T06:18:57Z</time>
      </trkpt>
      <trkpt lat="41.9572800" lon="2.7126290">
        <ele>174.8</ele>
        <time>2022-05-27T06:18:58Z</time>
      </trkpt>
      <trkpt lat="41.9572820" lon="2.7125650">
        <ele>175.4</ele>
        <time>2022-05-27T06:18:59Z</time>
      </trkpt>
      <trkpt lat="41.9572910" lon="2.7124960">
        <ele>176.0</ele>
        <time>2022-05-27T06:19:00Z</time>
      </trkpt>
      <trkpt lat="41.9573060" lon="2.7124300">
        <ele>176.6</ele>
        <time>2022-05-27T06:19:01Z</time>
      </trkpt>
      <trkpt lat="41.9573170" lon="2.7123630">
        <ele>177.2</ele>
        <time>2022-05-27T06:19:02Z</time>
      </trkpt>
      <trkpt lat="41.9573240" lon="2.7122970">
        <ele>177.8</ele>
        <time>2022-05-27T06:19:03Z</time>
      </trkpt>
      <trkpt lat="41.9573210" lon="2.7122380">
        <ele>178.6</ele>
        <time>2022-05-27T06:19:04Z</time>
      </trkpt>
      <trkpt lat="41.9572900" lon="2.7121860">
        <ele>179.2</ele>
        <time>2022-05-27T06:19:05Z</time>
      </trkpt>
      <trkpt lat="41.9572520" lon="2.7121360">
        <ele>179.8</ele>
        <time>2022-05-27T06:19:06Z</time>
      </trkpt>
      <trkpt lat="41.9572260" lon="2.7120910">
        <ele>180.4</ele>
        <time>2022-05-27T06:19:07Z</time>
      </trkpt>
      <trkpt lat="41.9572020" lon="2.7120380">
        <ele>181.2</ele>
        <time>2022-05-27T06:19:08Z</time>
      </trkpt>
      <trkpt lat="41.9571780" lon="2.7119820">
        <ele>182.0</ele>
        <time>2022-05-27T06:19:09Z</time>
      </trkpt>
      <trkpt lat="41.9571520" lon="2.7119290">
        <ele>182.6</ele>
        <time>2022-05-27T06:19:10Z</time>
      </trkpt>
      <trkpt lat="41.9571410" lon="2.7118780">
        <ele>183.2</ele>
        <time>2022-05-27T06:19:11Z</time>
      </trkpt>
      <trkpt lat="41.9571410" lon="2.7118290">
        <ele>184.0</ele>
        <time>2022-05-27T06:19:12Z</time>
      </trkpt>
      <trkpt lat="41.9571600" lon="2.7117900">
        <ele>184.6</ele>
        <time>2022-05-27T06:19:13Z</time>
      </trkpt>
      <trkpt lat="41.9571910" lon="2.7117640">
        <ele>185.2</ele>
        <time>2022-05-27T06:19:14Z</time>
      </trkpt>
      <trkpt lat="41.9572320" lon="2.7117540">
        <ele>185.8</ele>
        <time>2022-05-27T06:19:15Z</time>
      </trkpt>
      <trkpt lat="41.9572680" lon="2.7117570">
        <ele>186.4</ele>
        <time>2022-05-27T06:19:16Z</time>
      </trkpt>
      <trkpt lat="41.9573130" lon="2.7117730">
        <ele>187.2</ele>
        <time>2022-05-27T06:19:17Z</time>
      </trkpt>
      <trkpt lat="41.9573570" lon="2.7117970">
        <ele>187.8</ele>
        <time>2022-05-27T06:19:18Z</time>
      </trkpt>
      <trkpt lat="41.9574090" lon="2.7118050">
        <ele>188.6</ele>
        <time>2022-05-27T06:19:19Z</time>
      </trkpt>
      <trkpt lat="41.9574540" lon="2.7118060">
        <ele>189.2</ele>
        <time>2022-05-27T06:19:20Z</time>
      </trkpt>
      <trkpt lat="41.9574920" lon="2.7117940">
        <ele>189.6</ele>
        <time>2022-05-27T06:19:21Z</time>
      </trkpt>
      <trkpt lat="41.9575190" lon="2.7117700">
        <ele>190.4</ele>
        <time>2022-05-27T06:19:22Z</time>
      </trkpt>
      <trkpt lat="41.9575340" lon="2.7117410">
        <ele>191.0</ele>
        <time>2022-05-27T06:19:23Z</time>
      </trkpt>
      <trkpt lat="41.9575390" lon="2.7117070">
        <ele>191.8</ele>
        <time>2022-05-27T06:19:24Z</time>
      </trkpt>
      <trkpt lat="41.9575400" lon="2.7116680">
        <ele>192.4</ele>
        <time>2022-05-27T06:19:25Z</time>
      </trkpt>
      <trkpt lat="41.9575370" lon="2.7116290">
        <ele>193.2</ele>
        <time>2022-05-27T06:19:26Z</time>
      </trkpt>
      <trkpt lat="41.9575300" lon="2.7115890">
        <ele>193.8</ele>
        <time>2022-05-27T06:19:27Z</time>
      </trkpt>
      <trkpt lat="41.9575250" lon="2.7115410">
        <ele>194.4</ele>
        <time>2022-05-27T06:19:28Z</time>
      </trkpt>
      <trkpt lat="41.9575200" lon="2.7114890">
        <ele>195.0</ele>
        <time>2022-05-27T06:19:29Z</time>
      </trkpt>
      <trkpt lat="41.9575190" lon="2.7114480">
        <ele>195.4</ele>
        <time>2022-05-27T06:19:30Z</time>
      </trkpt>
      <trkpt lat="41.9575260" lon="2.7114180">
        <ele>195.8</ele>
        <time>2022-05-27T06:19:31Z</time>
      </trkpt>
      <trkpt lat="41.9575370" lon="2.7113870">
        <ele>196.0</ele>
        <time>2022-05-27T06:19:32Z</time>
      </trkpt>
      <trkpt lat="41.9575490" lon="2.7113460">
        <ele>196.4</ele>
        <time>2022-05-27T06:19:33Z</time>
      </trkpt>
      <trkpt lat="41.9575610" lon="2.7112990">
        <ele>196.6</ele>
        <time>2022-05-27T06:19:34Z</time>
      </trkpt>
      <trkpt lat="41.9575620" lon="2.7112520">
        <ele>197.0</ele>
        <time>2022-05-27T06:19:35Z</time>
      </trkpt>
      <trkpt lat="41.9575610" lon="2.7112010">
        <ele>197.4</ele>
        <time>2022-05-27T06:19:36Z</time>
      </trkpt>
      <trkpt lat="41.9575540" lon="2.7111500">
        <ele>197.8</ele>
        <time>2022-05-27T06:19:37Z</time>
      </trkpt>
      <trkpt lat="41.9575420" lon="2.7111020">
        <ele>198.2</ele>
        <time>2022-05-27T06:19:38Z</time>
      </trkpt>
      <trkpt lat="41.9575400" lon="2.7110550">
        <ele>198.6</ele>
        <time>2022-05-27T06:19:39Z</time>
      </trkpt>
      <trkpt lat="41.9575410" lon="2.7110090">
        <ele>199.0</ele>
        <time>2022-05-27T06:19:40Z</time>
      </trkpt>
      <trkpt lat="41.9575490" lon="2.7109710">
        <ele>199.4</ele>
        <time>2022-05-27T06:19:41Z</time>
      </trkpt>
      <trkpt lat="41.9575630" lon="2.7109470">
        <ele>199.8</ele>
        <time>2022-05-27T06:19:42Z</time>
      </trkpt>
      <trkpt lat="41.9575760" lon="2.7109190">
        <ele>200.0</ele>
        <time>2022-05-27T06:19:43Z</time>
      </trkpt>
      <trkpt lat="41.9575890" lon="2.7108760">
        <ele>200.4</ele>
        <time>2022-05-27T06:19:44Z</time>
      </trkpt>
      <trkpt lat="41.9576070" lon="2.7108220">
        <ele>200.6</ele>
        <time>2022-05-27T06:19:45Z</time>
      </trkpt>
      <trkpt lat="41.9576230" lon="2.7107610">
        <ele>201.0</ele>
        <time>2022-05-27T06:19:46Z</time>
      </trkpt>
      <trkpt lat="41.9576340" lon="2.7106950">
        <ele>201.4</ele>
        <time>2022-05-27T06:19:47Z</time>
      </trkpt>
      <trkpt lat="41.9576400" lon="2.7106320">
        <ele>201.8</ele>
        <time>2022-05-27T06:19:48Z</time>
      </trkpt>
      <trkpt lat="41.9576500" lon="2.7105720">
        <ele>202.4</ele>
        <time>2022-05-27T06:19:49Z</time>
      </trkpt>
      <trkpt lat="41.9576600" lon="2.7105140">
        <ele>202.8</ele>
        <time>2022-05-27T06:19:50Z</time>
      </trkpt>
      <trkpt lat="41.9576630" lon="2.7104830">
        <ele>203.2</ele>
        <time>2022-05-27T06:19:51Z</time>
      </trkpt>
      <trkpt lat="41.9576650" lon="2.7104700">
        <ele>203.6</ele>
        <time>2022-05-27T06:19:52Z</time>
      </trkpt>
      <trkpt lat="41.9576610" lon="2.7104560">
        <ele>203.8</ele>
        <time>2022-05-27T06:19:53Z</time>
      </trkpt>
      <trkpt lat="41.9576640" lon="2.7104310">
        <ele>204.2</ele>
        <time>2022-05-27T06:19:54Z</time>
      </trkpt>
      <trkpt lat="41.9576650" lon="2.7103990">
        <ele>204.4</ele>
        <time>2022-05-27T06:19:55Z</time>
      </trkpt>
      <trkpt lat="41.9576650" lon="2.7103630">
        <ele>204.6</ele>
        <time>2022-05-27T06:19:56Z</time>
      </trkpt>
      <trkpt lat="41.9576590" lon="2.7103280">
        <ele>204.8</ele>
        <time>2022-05-27T06:19:57Z</time>
      </trkpt>
      <trkpt lat="41.9576550" lon="2.7103020">
        <ele>205.0</ele>
        <time>2022-05-27T06:19:58Z</time>
      </trkpt>
      <trkpt lat="41.9576590" lon="2.7102840">
        <ele>205.4</ele>
        <time>2022-05-27T06:19:59Z</time>
      </trkpt>
      <trkpt lat="41.9576740" lon="2.7102760">
        <ele>205.6</ele>
        <time>2022-05-27T06:20:00Z</time>
      </trkpt>
      <trkpt lat="41.9577020" lon="2.7102740">
        <ele>205.8</ele>
        <time>2022-05-27T06:20:01Z</time>
      </trkpt>
      <trkpt lat="41.9577350" lon="2.7102720">
        <ele>206.0</ele>
        <time>2022-05-27T06:20:02Z</time>
      </trkpt>
      <trkpt lat="41.9577600" lon="2.7102700">
        <ele>206.2</ele>
        <time>2022-05-27T06:20:03Z</time>
      </trkpt>
      <trkpt lat="41.9577870" lon="2.7102760">
        <ele>206.6</ele>
        <time>2022-05-27T06:20:04Z</time>
      </trkpt>
      <trkpt lat="41.9578030" lon="2.7102950">
        <ele>206.8</ele>
        <time>2022-05-27T06:20:05Z</time>
      </trkpt>
      <trkpt lat="41.9578220" lon="2.7103210">
        <ele>207.2</ele>
        <time>2022-05-27T06:20:06Z</time>
      </trkpt>
      <trkpt lat="41.9578470" lon="2.7103520">
        <ele>207.4</ele>
        <time>2022-05-27T06:20:07Z</time>
      </trkpt>
      <trkpt lat="41.9578730" lon="2.7103870">
        <ele>207.6</ele>
        <time>2022-05-27T06:20:08Z</time>
      </trkpt>
      <trkpt lat="41.9579030" lon="2.7104250">
        <ele>207.8</ele>
        <time>2022-05-27T06:20:09Z</time>
      </trkpt>
      <trkpt lat="41.9579340" lon="2.7104620">
        <ele>208.2</ele>
        <time>2022-05-27T06:20:10Z</time>
      </trkpt>
      <trkpt lat="41.9579690" lon="2.7104990">
        <ele>208.4</ele>
        <time>2022-05-27T06:20:11Z</time>
      </trkpt>
      <trkpt lat="41.9580070" lon="2.7105350">
        <ele>208.6</ele>
        <time>2022-05-27T06:20:12Z</time>
      </trkpt>
      <trkpt lat="41.9580480" lon="2.7105800">
        <ele>208.8</ele>
        <time>2022-05-27T06:20:13Z</time>
      </trkpt>
      <trkpt lat="41.9580840" lon="2.7106230">
        <ele>209.2</ele>
        <time>2022-05-27T06:20:14Z</time>
      </trkpt>
      <trkpt lat="41.9581140" lon="2.7106590">
        <ele>209.6</ele>
        <time>2022-05-27T06:20:15Z</time>
      </trkpt>
      <trkpt lat="41.9581460" lon="2.7106990">
        <ele>210.0</ele>
        <time>2022-05-27T06:20:16Z</time>
      </trkpt>
      <trkpt lat="41.9581810" lon="2.7107450">
        <ele>210.2</ele>
        <time>2022-05-27T06:20:17Z</time>
      </trkpt>
      <trkpt lat="41.9582150" lon="2.7107860">
        <ele>210.6</ele>
        <time>2022-05-27T06:20:18Z</time>
      </trkpt>
      <trkpt lat="41.9582470" lon="2.7108160">
        <ele>210.8</ele>
        <time>2022-05-27T06:20:19Z</time>
      </trkpt>
      <trkpt lat="41.9582810" lon="2.7108400">
        <ele>211.2</ele>
        <time>2022-05-27T06:20:20Z</time>
      </trkpt>
      <trkpt lat="41.9583250" lon="2.7108620">
        <ele>211.4</ele>
        <time>2022-05-27T06:20:21Z</time>
      </trkpt>
      <trkpt lat="41.9583630" lon="2.7108780">
        <ele>211.6</ele>
        <time>2022-05-27T06:20:22Z</time>
      </trkpt>
      <trkpt lat="41.9583910" lon="2.7108830">
        <ele>211.8</ele>
        <time>2022-05-27T06:20:23Z</time>
      </trkpt>
      <trkpt lat="41.9584150" lon="2.7108780">
        <ele>212.2</ele>
        <time>2022-05-27T06:20:24Z</time>
      </trkpt>
      <trkpt lat="41.9584410" lon="2.7108500">
        <ele>212.4</ele>
        <time>2022-05-27T06:20:25Z</time>
      </trkpt>
      <trkpt lat="41.9584690" lon="2.7108060">
        <ele>212.6</ele>
        <time>2022-05-27T06:20:26Z</time>
      </trkpt>
      <trkpt lat="41.9584920" lon="2.7107520">
        <ele>212.8</ele>
        <time>2022-05-27T06:20:27Z</time>
      </trkpt>
      <trkpt lat="41.9585130" lon="2.7106960">
        <ele>212.8</ele>
        <time>2022-05-27T06:20:28Z</time>
      </trkpt>
      <trkpt lat="41.9585360" lon="2.7106350">
        <ele>213.0</ele>
        <time>2022-05-27T06:20:29Z</time>
      </trkpt>
      <trkpt lat="41.9585650" lon="2.7105820">
        <ele>213.4</ele>
        <time>2022-05-27T06:20:30Z</time>
      </trkpt>
      <trkpt lat="41.9585980" lon="2.7105320">
        <ele>213.6</ele>
        <time>2022-05-27T06:20:31Z</time>
      </trkpt>
      <trkpt lat="41.9586350" lon="2.7104880">
        <ele>213.8</ele>
        <time>2022-05-27T06:20:32Z</time>
      </trkpt>
      <trkpt lat="41.9586740" lon="2.7104380">
        <ele>214.0</ele>
        <time>2022-05-27T06:20:33Z</time>
      </trkpt>
      <trkpt lat="41.9587080" lon="2.7103750">
        <ele>214.4</ele>
        <time>2022-05-27T06:20:34Z</time>
      </trkpt>
      <trkpt lat="41.9587290" lon="2.7103050">
        <ele>214.6</ele>
        <time>2022-05-27T06:20:35Z</time>
      </trkpt>
      <trkpt lat="41.9587420" lon="2.7102400">
        <ele>214.8</ele>
        <time>2022-05-27T06:20:36Z</time>
      </trkpt>
      <trkpt lat="41.9587590" lon="2.7101830">
        <ele>214.8</ele>
        <time>2022-05-27T06:20:37Z</time>
      </trkpt>
      <trkpt lat="41.9587890" lon="2.7101360">
        <ele>215.0</ele>
        <time>2022-05-27T06:20:38Z</time>
      </trkpt>
      <trkpt lat="41.9588360" lon="2.7100920">
        <ele>215.2</ele>
        <time>2022-05-27T06:20:39Z</time>
      </trkpt>
      <trkpt lat="41.9588880" lon="2.7100500">
        <ele>215.4</ele>
        <time>2022-05-27T06:20:40Z</time>
      </trkpt>
      <trkpt lat="41.9589380" lon="2.7100110">
        <ele>215.8</ele>
        <time>2022-05-27T06:20:41Z</time>
      </trkpt>
      <trkpt lat="41.9589920" lon="2.7099760">
        <ele>216.2</ele>
        <time>2022-05-27T06:20:42Z</time>
      </trkpt>
      <trkpt lat="41.9590540" lon="2.7099440">
        <ele>216.8</ele>
        <time>2022-05-27T06:20:43Z</time>
      </trkpt>
      <trkpt lat="41.9591160" lon="2.7099100">
        <ele>217.4</ele>
        <time>2022-05-27T06:20:44Z</time>
      </trkpt>
      <trkpt lat="41.9591730" lon="2.7098740">
        <ele>218.0</ele>
        <time>2022-05-27T06:20:45Z</time>
      </trkpt>
      <trkpt lat="41.9592260" lon="2.7098440">
        <ele>218.6</ele>
        <time>2022-05-27T06:20:46Z</time>
      </trkpt>
      <trkpt lat="41.9592730" lon="2.7098120">
        <ele>219.2</ele>
        <time>2022-05-27T06:20:47Z</time>
      </trkpt>
      <trkpt lat="41.9593150" lon="2.7097710">
        <ele>220.0</ele>
        <time>2022-05-27T06:20:48Z</time>
      </trkpt>
      <trkpt lat="41.9593530" lon="2.7097220">
        <ele>220.6</ele>
        <time>2022-05-27T06:20:49Z</time>
      </trkpt>
      <trkpt lat="41.9593900" lon="2.7096640">
        <ele>221.2</ele>
        <time>2022-05-27T06:20:50Z</time>
      </trkpt>
      <trkpt lat="41.9594260" lon="2.7096000">
        <ele>221.8</ele>
        <time>2022-05-27T06:20:51Z</time>
      </trkpt>
      <trkpt lat="41.9594600" lon="2.7095330">
        <ele>222.6</ele>
        <time>2022-05-27T06:20:52Z</time>
      </trkpt>
      <trkpt lat="41.9594940" lon="2.7094670">
        <ele>223.2</ele>
        <time>2022-05-27T06:20:53Z</time>
      </trkpt>
      <trkpt lat="41.9595290" lon="2.7094120">
        <ele>223.8</ele>
        <time>2022-05-27T06:20:54Z</time>
      </trkpt>
      <trkpt lat="41.9595680" lon="2.7093710">
        <ele>224.6</ele>
        <time>2022-05-27T06:20:55Z</time>
      </trkpt>
      <trkpt lat="41.9596070" lon="2.7093370">
        <ele>225.2</ele>
        <time>2022-05-27T06:20:56Z</time>
      </trkpt>
      <trkpt lat="41.9596380" lon="2.7093140">
        <ele>225.6</ele>
        <time>2022-05-27T06:20:57Z</time>
      </trkpt>
      <trkpt lat="41.9596660" lon="2.7093130">
        <ele>226.0</ele>
        <time>2022-05-27T06:20:58Z</time>
      </trkpt>
      <trkpt lat="41.9596960" lon="2.7093270">
        <ele>226.4</ele>
        <time>2022-05-27T06:20:59Z</time>
      </trkpt>
      <trkpt lat="41.9597220" lon="2.7093510">
        <ele>226.6</ele>
        <time>2022-05-27T06:21:00Z</time>
      </trkpt>
      <trkpt lat="41.9597450" lon="2.7093770">
        <ele>226.8</ele>
        <time>2022-05-27T06:21:01Z</time>
      </trkpt>
      <trkpt lat="41.9597680" lon="2.7094080">
        <ele>227.0</ele>
        <time>2022-05-27T06:21:02Z</time>
      </trkpt>
      <trkpt lat="41.9597920" lon="2.7094440">
        <ele>227.0</ele>
        <time>2022-05-27T06:21:03Z</time>
      </trkpt>
      <trkpt lat="41.9598110" lon="2.7094840">
        <ele>227.0</ele>
        <time>2022-05-27T06:21:04Z</time>
      </trkpt>
      <trkpt lat="41.9598260" lon="2.7095260">
        <ele>226.8</ele>
        <time>2022-05-27T06:21:05Z</time>
      </trkpt>
      <trkpt lat="41.9598390" lon="2.7095670">
        <ele>226.6</ele>
        <time>2022-05-27T06:21:06Z</time>
      </trkpt>
      <trkpt lat="41.9598510" lon="2.7096040">
        <ele>226.6</ele>
        <time>2022-05-27T06:21:07Z</time>
      </trkpt>
      <trkpt lat="41.9598610" lon="2.7096320">
        <ele>226.4</ele>
        <time>2022-05-27T06:21:08Z</time>
      </trkpt>
      <trkpt lat="41.9598680" lon="2.7096560">
        <ele>226.2</ele>
        <time>2022-05-27T06:21:09Z</time>
      </trkpt>
      <trkpt lat="41.9598720" lon="2.7096760">
        <ele>226.0</ele>
        <time>2022-05-27T06:21:10Z</time>
      </trkpt>
      <trkpt lat="41.9598760" lon="2.7096950">
        <ele>225.8</ele>
        <time>2022-05-27T06:21:11Z</time>
      </trkpt>
      <trkpt lat="41.9598810" lon="2.7097160">
        <ele>225.6</ele>
        <time>2022-05-27T06:21:12Z</time>
      </trkpt>
      <trkpt lat="41.9598880" lon="2.7097340">
        <ele>225.4</ele>
        <time>2022-05-27T06:21:13Z</time>
      </trkpt>
      <trkpt lat="41.9598990" lon="2.7097470">
        <ele>225.4</ele>
        <time>2022-05-27T06:21:14Z</time>
      </trkpt>
      <trkpt lat="41.9599160" lon="2.7097570">
        <ele>225.2</ele>
        <time>2022-05-27T06:21:15Z</time>
      </trkpt>
      <trkpt lat="41.9599340" lon="2.7097630">
        <ele>225.2</ele>
        <time>2022-05-27T06:21:16Z</time>
      </trkpt>
      <trkpt lat="41.9599440" lon="2.7097650">
        <ele>225.0</ele>
        <time>2022-05-27T06:21:17Z</time>
      </trkpt>
      <trkpt lat="41.9599450" lon="2.7097650">
        <ele>225.0</ele>
        <time>2022-05-27T06:21:18Z</time>
      </trkpt>
      <trkpt lat="41.9599440" lon="2.7097650">
        <ele>224.8</ele>
        <time>2022-05-27T06:21:19Z</time>
      </trkpt>
      <trkpt lat="41.9599450" lon="2.7097620">
        <ele>224.8</ele>
        <time>2022-05-27T06:21:20Z</time>
      </trkpt>
      <trkpt lat="41.9599480" lon="2.7097570">
        <ele>224.8</ele>
        <time>2022-05-27T06:21:21Z</time>
      </trkpt>
      <trkpt lat="41.9599480" lon="2.7097570">
        <ele>224.8</ele>
        <time>2022-05-27T06:21:22Z</time>
      </trkpt>
      <trkpt lat="41.9599480" lon="2.7097570">
        <ele>224.8</ele>
        <time>2022-05-27T06:21:23Z</time>
      </trkpt>
      <trkpt lat="41.9599480" lon="2.7097570">
        <ele>224.8</ele>
        <time>2022-05-27T06:21:24Z</time>
      </trkpt>
      <trkpt lat="41.9599460" lon="2.7097530">
        <ele>224.8</ele>
        <time>2022-05-27T06:21:25Z</time>
      </trkpt>
      <trkpt lat="41.9599370" lon="2.7097390">
        <ele>224.8</ele>
        <time>2022-05-27T06:21:26Z</time>
      </trkpt>
      <trkpt lat="41.9599310" lon="2.7097320">
        <ele>224.8</ele>
        <time>2022-05-27T06:21:27Z</time>
      </trkpt>
      <trkpt lat="41.9599160" lon="2.7097160">
        <ele>224.8</ele>
        <time>2022-05-27T06:21:28Z</time>
      </trkpt>
      <trkpt lat="41.9599060" lon="2.7097000">
        <ele>224.8</ele>
        <time>2022-05-27T06:21:29Z</time>
      </trkpt>
      <trkpt lat="41.9599060" lon="2.7096880">
        <ele>224.8</ele>
        <time>2022-05-27T06:21:30Z</time>
      </trkpt>
      <trkpt lat="41.9599100" lon="2.7096800">
        <ele>225.0</ele>
        <time>2022-05-27T06:21:31Z</time>
      </trkpt>
      <trkpt lat="41.9599100" lon="2.7096770">
        <ele>225.0</ele>
        <time>2022-05-27T06:21:32Z</time>
      </trkpt>
      <trkpt lat="41.9599100" lon="2.7096780">
        <ele>225.0</ele>
        <time>2022-05-27T06:21:33Z</time>
      </trkpt>
      <trkpt lat="41.9599100" lon="2.7096750">
        <ele>225.0</ele>
        <time>2022-05-27T06:21:34Z</time>
      </trkpt>
      <trkpt lat="41.9599130" lon="2.7096720">
        <ele>225.0</ele>
        <time>2022-05-27T06:21:35Z</time>
      </trkpt>
      <trkpt lat="41.9599150" lon="2.7096690">
        <ele>225.0</ele>
        <time>2022-05-27T06:21:36Z</time>
      </trkpt>
      <trkpt lat="41.9599150" lon="2.7096680">
        <ele>225.0</ele>
        <time>2022-05-27T06:21:37Z</time>
      </trkpt>
      <trkpt lat="41.9599150" lon="2.7096680">
        <ele>225.0</ele>
        <time>2022-05-27T06:21:38Z</time>
      </trkpt>
      <trkpt lat="41.9599150" lon="2.7096680">
        <ele>225.0</ele>
        <time>2022-05-27T06:21:39Z</time>
      </trkpt>
      <trkpt lat="41.9599150" lon="2.7096680">
        <ele>225.0</ele>
        <time>2022-05-27T06:21:40Z</time>
      </trkpt>
      <trkpt lat="41.9603550" lon="2.7102510">
        <ele>212.8</ele>
        <time>2022-05-27T06:23:01Z</time>
      </trkpt>
      <trkpt lat="41.9603550" lon="2.7102510">
        <ele>212.8</ele>
        <time>2022-05-27T06:23:02Z</time>
      </trkpt>
      <trkpt lat="41.9603550" lon="2.7102530">
        <ele>212.8</ele>
        <time>2022-05-27T06:23:03Z</time>
      </trkpt>
      <trkpt lat="41.9603560" lon="2.7102530">
        <ele>212.8</ele>
        <time>2022-05-27T06:23:04Z</time>
      </trkpt>
      <trkpt lat="41.9603550" lon="2.7102520">
        <ele>212.8</ele>
        <time>2022-05-27T06:23:05Z</time>
      </trkpt>
      <trkpt lat="41.9603550" lon="2.7102540">
        <ele>212.8</ele>
        <time>2022-05-27T06:23:06Z</time>
      </trkpt>
      <trkpt lat="41.9603560" lon="2.7102600">
        <ele>212.8</ele>
        <time>2022-05-27T06:23:07Z</time>
      </trkpt>
      <trkpt lat="41.9603580" lon="2.7102660">
        <ele>212.8</ele>
        <time>2022-05-27T06:23:08Z</time>
      </trkpt>
      <trkpt lat="41.9603570" lon="2.7102680">
        <ele>212.8</ele>
        <time>2022-05-27T06:23:09Z</time>
      </trkpt>
      <trkpt lat="41.9603580" lon="2.7102680">
        <ele>212.8</ele>
        <time>2022-05-27T06:23:10Z</time>
      </trkpt>
      <trkpt lat="41.9603680" lon="2.7102710">
        <ele>212.8</ele>
        <time>2022-05-27T06:23:11Z</time>
      </trkpt>
      <trkpt lat="41.9603680" lon="2.7102710">
        <ele>212.8</ele>
        <time>2022-05-27T06:23:12Z</time>
      </trkpt>
      <trkpt lat="41.9604110" lon="2.7102990">
        <ele>212.8</ele>
        <time>2022-05-27T06:23:13Z</time>
      </trkpt>
      <trkpt lat="41.9604380" lon="2.7103260">
        <ele>212.6</ele>
        <time>2022-05-27T06:23:14Z</time>
      </trkpt>
      <trkpt lat="41.9604640" lon="2.7103600">
        <ele>212.4</ele>
        <time>2022-05-27T06:23:15Z</time>
      </trkpt>
      <trkpt lat="41.9604910" lon="2.7103930">
        <ele>212.2</ele>
        <time>2022-05-27T06:23:16Z</time>
      </trkpt>
      <trkpt lat="41.9605130" lon="2.7104300">
        <ele>212.2</ele>
        <time>2022-05-27T06:23:17Z</time>
      </trkpt>
      <trkpt lat="41.9605350" lon="2.7104640">
        <ele>212.0</ele>
        <time>2022-05-27T06:23:18Z</time>
      </trkpt>
      <trkpt lat="41.9605570" lon="2.7104940">
        <ele>212.0</ele>
        <time>2022-05-27T06:23:19Z</time>
      </trkpt>
      <trkpt lat="41.9605860" lon="2.7105230">
        <ele>211.8</ele>
        <time>2022-05-27T06:23:20Z</time>
      </trkpt>
      <trkpt lat="41.9606260" lon="2.7105480">
        <ele>211.6</ele>
        <time>2022-05-27T06:23:21Z</time>
      </trkpt>
      <trkpt lat="41.9606670" lon="2.7105600">
        <ele>211.4</ele>
        <time>2022-05-27T06:23:22Z</time>
      </trkpt>
      <trkpt lat="41.9607000" lon="2.7105640">
        <ele>211.0</ele>
        <time>2022-05-27T06:23:23Z</time>
      </trkpt>
      <trkpt lat="41.9607240" lon="2.7105620">
        <ele>210.8</ele>
        <time>2022-05-27T06:23:24Z</time>
      </trkpt>
      <trkpt lat="41.9607480" lon="2.7105630">
        <ele>210.4</ele>
        <time>2022-05-27T06:23:25Z</time>
      </trkpt>
      <trkpt lat="41.9607860" lon="2.7105700">
        <ele>210.2</ele>
        <time>2022-05-27T06:23:26Z</time>
      </trkpt>
      <trkpt lat="41.9608370" lon="2.7105850">
        <ele>210.0</ele>
        <time>2022-05-27T06:23:27Z</time>
      </trkpt>
      <trkpt lat="41.9608910" lon="2.7106080">
        <ele>209.8</ele>
        <time>2022-05-27T06:23:28Z</time>
      </trkpt>
      <trkpt lat="41.9609400" lon="2.7106280">
        <ele>209.4</ele>
        <time>2022-05-27T06:23:29Z</time>
      </trkpt>
      <trkpt lat="41.9609830" lon="2.7106490">
        <ele>209.2</ele>
        <time>2022-05-27T06:23:30Z</time>
      </trkpt>
      <trkpt lat="41.9610250" lon="2.7106650">
        <ele>208.8</ele>
        <time>2022-05-27T06:23:31Z</time>
      </trkpt>
      <trkpt lat="41.9610680" lon="2.7106770">
        <ele>208.6</ele>
        <time>2022-05-27T06:23:32Z</time>
      </trkpt>
      <trkpt lat="41.9611090" lon="2.7106970">
        <ele>208.2</ele>
        <time>2022-05-27T06:23:33Z</time>
      </trkpt>
      <trkpt lat="41.9611440" lon="2.7107240">
        <ele>208.0</ele>
        <time>2022-05-27T06:23:34Z</time>
      </trkpt>
      <trkpt lat="41.9611740" lon="2.7107560">
        <ele>207.8</ele>
        <time>2022-05-27T06:23:35Z</time>
      </trkpt>
      <trkpt lat="41.9612110" lon="2.7107940">
        <ele>207.4</ele>
        <time>2022-05-27T06:23:36Z</time>
      </trkpt>
      <trkpt lat="41.9612560" lon="2.7108240">
        <ele>207.2</ele>
        <time>2022-05-27T06:23:37Z</time>
      </trkpt>
      <trkpt lat="41.9612920" lon="2.7108360">
        <ele>206.8</ele>
        <time>2022-05-27T06:23:38Z</time>
      </trkpt>
      <trkpt lat="41.9613260" lon="2.7108380">
        <ele>206.4</ele>
        <time>2022-05-27T06:23:39Z</time>
      </trkpt>
      <trkpt lat="41.9613630" lon="2.7108380">
        <ele>206.0</ele>
        <time>2022-05-27T06:23:40Z</time>
      </trkpt>
      <trkpt lat="41.9614070" lon="2.7108400">
        <ele>205.6</ele>
        <time>2022-05-27T06:23:41Z</time>
      </trkpt>
      <trkpt lat="41.9614520" lon="2.7108460">
        <ele>205.2</ele>
        <time>2022-05-27T06:23:42Z</time>
      </trkpt>
      <trkpt lat="41.9614920" lon="2.7108520">
        <ele>204.8</ele>
        <time>2022-05-27T06:23:43Z</time>
      </trkpt>
      <trkpt lat="41.9615300" lon="2.7108610">
        <ele>204.4</ele>
        <time>2022-05-27T06:23:44Z</time>
      </trkpt>
      <trkpt lat="41.9615710" lon="2.7108770">
        <ele>204.0</ele>
        <time>2022-05-27T06:23:45Z</time>
      </trkpt>
      <trkpt lat="41.9616120" lon="2.7109020">
        <ele>203.6</ele>
        <time>2022-05-27T06:23:46Z</time>
      </trkpt>
      <trkpt lat="41.9616480" lon="2.7109370">
        <ele>203.4</ele>
        <time>2022-05-27T06:23:47Z</time>
      </trkpt>
      <trkpt lat="41.9616830" lon="2.7109660">
        <ele>202.8</ele>
        <time>2022-05-27T06:23:48Z</time>
      </trkpt>
      <trkpt lat="41.9617230" lon="2.7109870">
        <ele>202.4</ele>
        <time>2022-05-27T06:23:49Z</time>
      </trkpt>
      <trkpt lat="41.9617750" lon="2.7110160">
        <ele>201.8</ele>
        <time>2022-05-27T06:23:50Z</time>
      </trkpt>
      <trkpt lat="41.9618260" lon="2.7110270">
        <ele>201.2</ele>
        <time>2022-05-27T06:23:51Z</time>
      </trkpt>
      <trkpt lat="41.9618740" lon="2.7110290">
        <ele>200.6</ele>
        <time>2022-05-27T06:23:52Z</time>
      </trkpt>
      <trkpt lat="41.9619220" lon="2.7110160">
        <ele>200.0</ele>
        <time>2022-05-27T06:23:53Z</time>
      </trkpt>
      <trkpt lat="41.9619730" lon="2.7110030">
        <ele>199.6</ele>
        <time>2022-05-27T06:23:54Z</time>
      </trkpt>
      <trkpt lat="41.9620300" lon="2.7109990">
        <ele>199.2</ele>
        <time>2022-05-27T06:23:55Z</time>
      </trkpt>
      <trkpt lat="41.9620940" lon="2.7110040">
        <ele>199.0</ele>
        <time>2022-05-27T06:23:56Z</time>
      </trkpt>
      <trkpt lat="41.9621590" lon="2.7110210">
        <ele>198.6</ele>
        <time>2022-05-27T06:23:57Z</time>
      </trkpt>
      <trkpt lat="41.9622120" lon="2.7110500">
        <ele>198.4</ele>
        <time>2022-05-27T06:23:58Z</time>
      </trkpt>
      <trkpt lat="41.9622570" lon="2.7110840">
        <ele>198.2</ele>
        <time>2022-05-27T06:23:59Z</time>
      </trkpt>
      <trkpt lat="41.9622950" lon="2.7111200">
        <ele>198.2</ele>
        <time>2022-05-27T06:24:00Z</time>
      </trkpt>
      <trkpt lat="41.9623290" lon="2.7111610">
        <ele>198.2</ele>
        <time>2022-05-27T06:24:01Z</time>
      </trkpt>
      <trkpt lat="41.9623720" lon="2.7112050">
        <ele>198.0</ele>
        <time>2022-05-27T06:24:02Z</time>
      </trkpt>
      <trkpt lat="41.9624200" lon="2.7112550">
        <ele>198.2</ele>
        <time>2022-05-27T06:24:03Z</time>
      </trkpt>
      <trkpt lat="41.9624690" lon="2.7113070">
        <ele>198.2</ele>
        <time>2022-05-27T06:24:04Z</time>
      </trkpt>
      <trkpt lat="41.9625140" lon="2.7113590">
        <ele>198.2</ele>
        <time>2022-05-27T06:24:05Z</time>
      </trkpt>
      <trkpt lat="41.9625550" lon="2.7114130">
        <ele>198.2</ele>
        <time>2022-05-27T06:24:06Z</time>
      </trkpt>
      <trkpt lat="41.9625940" lon="2.7114710">
        <ele>198.4</ele>
        <time>2022-05-27T06:24:07Z</time>
      </trkpt>
      <trkpt lat="41.9626340" lon="2.7115350">
        <ele>198.4</ele>
        <time>2022-05-27T06:24:08Z</time>
      </trkpt>
      <trkpt lat="41.9626700" lon="2.7116030">
        <ele>198.6</ele>
        <time>2022-05-27T06:24:09Z</time>
      </trkpt>
      <trkpt lat="41.9626970" lon="2.7116720">
        <ele>198.8</ele>
        <time>2022-05-27T06:24:10Z</time>
      </trkpt>
      <trkpt lat="41.9627090" lon="2.7117360">
        <ele>199.0</ele>
        <time>2022-05-27T06:24:11Z</time>
      </trkpt>
      <trkpt lat="41.9627150" lon="2.7118110">
        <ele>199.4</ele>
        <time>2022-05-27T06:24:12Z</time>
      </trkpt>
      <trkpt lat="41.9627200" lon="2.7118870">
        <ele>199.8</ele>
        <time>2022-05-27T06:24:13Z</time>
      </trkpt>
      <trkpt lat="41.9627260" lon="2.7119560">
        <ele>200.4</ele>
        <time>2022-05-27T06:24:14Z</time>
      </trkpt>
      <trkpt lat="41.9627280" lon="2.7120200">
        <ele>200.8</ele>
        <time>2022-05-27T06:24:15Z</time>
      </trkpt>
      <trkpt lat="41.9627280" lon="2.7120770">
        <ele>201.2</ele>
        <time>2022-05-27T06:24:16Z</time>
      </trkpt>
      <trkpt lat="41.9627150" lon="2.7121200">
        <ele>201.6</ele>
        <time>2022-05-27T06:24:17Z</time>
      </trkpt>
      <trkpt lat="41.9626930" lon="2.7121510">
        <ele>202.0</ele>
        <time>2022-05-27T06:24:18Z</time>
      </trkpt>
      <trkpt lat="41.9626660" lon="2.7121840">
        <ele>202.4</ele>
        <time>2022-05-27T06:24:19Z</time>
      </trkpt>
      <trkpt lat="41.9626440" lon="2.7122260">
        <ele>202.6</ele>
        <time>2022-05-27T06:24:20Z</time>
      </trkpt>
      <trkpt lat="41.9626320" lon="2.7122700">
        <ele>202.6</ele>
        <time>2022-05-27T06:24:21Z</time>
      </trkpt>
      <trkpt lat="41.9626340" lon="2.7123180">
        <ele>202.8</ele>
        <time>2022-05-27T06:24:22Z</time>
      </trkpt>
      <trkpt lat="41.9626550" lon="2.7123810">
        <ele>202.8</ele>
        <time>2022-05-27T06:24:23Z</time>
      </trkpt>
      <trkpt lat="41.9626840" lon="2.7124640">
        <ele>203.0</ele>
        <time>2022-05-27T06:24:24Z</time>
      </trkpt>
      <trkpt lat="41.9627150" lon="2.7125560">
        <ele>203.0</ele>
        <time>2022-05-27T06:24:25Z</time>
      </trkpt>
      <trkpt lat="41.9627390" lon="2.7126430">
        <ele>203.0</ele>
        <time>2022-05-27T06:24:26Z</time>
      </trkpt>
      <trkpt lat="41.9627710" lon="2.7127200">
        <ele>203.0</ele>
        <time>2022-05-27T06:24:27Z</time>
      </trkpt>
      <trkpt lat="41.9628100" lon="2.7127930">
        <ele>203.0</ele>
        <time>2022-05-27T06:24:28Z</time>
      </trkpt>
      <trkpt lat="41.9628550" lon="2.7128650">
        <ele>203.0</ele>
        <time>2022-05-27T06:24:29Z</time>
      </trkpt>
      <trkpt lat="41.9629070" lon="2.7129300">
        <ele>203.2</ele>
        <time>2022-05-27T06:24:30Z</time>
      </trkpt>
      <trkpt lat="41.9629620" lon="2.7129790">
        <ele>203.2</ele>
        <time>2022-05-27T06:24:31Z</time>
      </trkpt>
      <trkpt lat="41.9630140" lon="2.7130160">
        <ele>203.4</ele>
        <time>2022-05-27T06:24:32Z</time>
      </trkpt>
      <trkpt lat="41.9630570" lon="2.7130470">
        <ele>203.6</ele>
        <time>2022-05-27T06:24:33Z</time>
      </trkpt>
      <trkpt lat="41.9630890" lon="2.7130670">
        <ele>203.6</ele>
        <time>2022-05-27T06:24:34Z</time>
      </trkpt>
      <trkpt lat="41.9631140" lon="2.7130730">
        <ele>203.6</ele>
        <time>2022-05-27T06:24:35Z</time>
      </trkpt>
      <trkpt lat="41.9631480" lon="2.7130700">
        <ele>203.8</ele>
        <time>2022-05-27T06:24:36Z</time>
      </trkpt>
      <trkpt lat="41.9632080" lon="2.7130620">
        <ele>203.6</ele>
        <time>2022-05-27T06:24:37Z</time>
      </trkpt>
      <trkpt lat="41.9632820" lon="2.7130510">
        <ele>203.6</ele>
        <time>2022-05-27T06:24:38Z</time>
      </trkpt>
      <trkpt lat="41.9633610" lon="2.7130380">
        <ele>203.8</ele>
        <time>2022-05-27T06:24:39Z</time>
      </trkpt>
      <trkpt lat="41.9634340" lon="2.7130230">
        <ele>203.8</ele>
        <time>2022-05-27T06:24:40Z</time>
      </trkpt>
      <trkpt lat="41.9634860" lon="2.7130060">
        <ele>203.8</ele>
        <time>2022-05-27T06:24:41Z</time>
      </trkpt>
      <trkpt lat="41.9635120" lon="2.7129850">
        <ele>203.6</ele>
        <time>2022-05-27T06:24:42Z</time>
      </trkpt>
      <trkpt lat="41.9635270" lon="2.7129540">
        <ele>203.2</ele>
        <time>2022-05-27T06:24:43Z</time>
      </trkpt>
      <trkpt lat="41.9635380" lon="2.7129140">
        <ele>202.8</ele>
        <time>2022-05-27T06:24:44Z</time>
      </trkpt>
      <trkpt lat="41.9635520" lon="2.7128640">
        <ele>202.2</ele>
        <time>2022-05-27T06:24:45Z</time>
      </trkpt>
      <trkpt lat="41.9635730" lon="2.7128210">
        <ele>201.6</ele>
        <time>2022-05-27T06:24:46Z</time>
      </trkpt>
      <trkpt lat="41.9636010" lon="2.7128020">
        <ele>201.0</ele>
        <time>2022-05-27T06:24:47Z</time>
      </trkpt>
      <trkpt lat="41.9636380" lon="2.7127960">
        <ele>200.2</ele>
        <time>2022-05-27T06:24:48Z</time>
      </trkpt>
      <trkpt lat="41.9636800" lon="2.7128140">
        <ele>199.4</ele>
        <time>2022-05-27T06:24:49Z</time>
      </trkpt>
      <trkpt lat="41.9637190" lon="2.7128390">
        <ele>198.6</ele>
        <time>2022-05-27T06:24:50Z</time>
      </trkpt>
      <trkpt lat="41.9637500" lon="2.7128590">
        <ele>197.8</ele>
        <time>2022-05-27T06:24:51Z</time>
      </trkpt>
      <trkpt lat="41.9637780" lon="2.7128580">
        <ele>197.0</ele>
        <time>2022-05-27T06:24:52Z</time>
      </trkpt>
      <trkpt lat="41.9637990" lon="2.7128480">
        <ele>196.2</ele>
        <time>2022-05-27T06:24:53Z</time>
      </trkpt>
      <trkpt lat="41.9638110" lon="2.7128170">
        <ele>195.4</ele>
        <time>2022-05-27T06:24:54Z</time>
      </trkpt>
      <trkpt lat="41.9638140" lon="2.7127830">
        <ele>194.8</ele>
        <time>2022-05-27T06:24:55Z</time>
      </trkpt>
      <trkpt lat="41.9638140" lon="2.7127580">
        <ele>194.2</ele>
        <time>2022-05-27T06:24:56Z</time>
      </trkpt>
      <trkpt lat="41.9638130" lon="2.7127510">
        <ele>193.6</ele>
        <time>2022-05-27T06:24:57Z</time>
      </trkpt>
      <trkpt lat="41.9638110" lon="2.7127490">
        <ele>193.0</ele>
        <time>2022-05-27T06:24:58Z</time>
      </trkpt>
      <trkpt lat="41.9638110" lon="2.7127500">
        <ele>192.4</ele>
        <time>2022-05-27T06:24:59Z</time>
      </trkpt>
      <trkpt lat="41.9638040" lon="2.7127300">
        <ele>192.2</ele>
        <time>2022-05-27T06:25:00Z</time>
      </trkpt>
      <trkpt lat="41.9637970" lon="2.7127100">
        <ele>192.2</ele>
        <time>2022-05-27T06:25:01Z</time>
      </trkpt>
      <trkpt lat="41.9637900" lon="2.7126900">
        <ele>192.2</ele>
        <time>2022-05-27T06:25:02Z</time>
      </trkpt>
      <trkpt lat="41.9637830" lon="2.7126700">
        <ele>192.2</ele>
        <time>2022-05-27T06:25:03Z</time>
      </trkpt>
      <trkpt lat="41.9637760" lon="2.7126500">
        <ele>192.2</ele>
        <time>2022-05-27T06:25:04Z</time>
      </trkpt>
      <trkpt lat="41.9637680" lon="2.7126300">
        <ele>192.2</ele>
        <time>2022-05-27T06:25:05Z</time>
      </trkpt>
      <trkpt lat="41.9637610" lon="2.7126100">
        <ele>192.0</ele>
        <time>2022-05-27T06:25:06Z</time>
      </trkpt>
      <trkpt lat="41.9637540" lon="2.7125900">
        <ele>191.6</ele>
        <time>2022-05-27T06:25:07Z</time>
      </trkpt>
      <trkpt lat="41.9637470" lon="2.7125700">
        <ele>191.2</ele>
        <time>2022-05-27T06:25:08Z</time>
      </trkpt>
      <trkpt lat="41.9637080" lon="2.7125070">
        <ele>190.6</ele>
        <time>2022-05-27T06:25:09Z</time>
      </trkpt>
      <trkpt lat="41.9636630" lon="2.7124380">
        <ele>190.2</ele>
        <time>2022-05-27T06:25:10Z</time>
      </trkpt>
      <trkpt lat="41.9636070" lon="2.7123750">
        <ele>189.6</ele>
        <time>2022-05-27T06:25:11Z</time>
      </trkpt>
      <trkpt lat="41.9635420" lon="2.7123160">
        <ele>189.0</ele>
        <time>2022-05-27T06:25:12Z</time>
      </trkpt>
      <trkpt lat="41.9634840" lon="2.7122720">
        <ele>188.2</ele>
        <time>2022-05-27T06:25:13Z</time>
      </trkpt>
      <trkpt lat="41.9634430" lon="2.7122450">
        <ele>187.6</ele>
        <time>2022-05-27T06:25:14Z</time>
      </trkpt>
      <trkpt lat="41.9634250" lon="2.7122240">
        <ele>186.8</ele>
        <time>2022-05-27T06:25:15Z</time>
      </trkpt>
      <trkpt lat="41.9634270" lon="2.7122040">
        <ele>186.6</ele>
        <time>2022-05-27T06:25:16Z</time>
      </trkpt>
      <trkpt lat="41.9634540" lon="2.7121900">
        <ele>185.8</ele>
        <time>2022-05-27T06:25:17Z</time>
      </trkpt>
      <trkpt lat="41.9635040" lon="2.7121870">
        <ele>185.0</ele>
        <time>2022-05-27T06:25:18Z</time>
      </trkpt>
      <trkpt lat="41.9635700" lon="2.7121920">
        <ele>184.2</ele>
        <time>2022-05-27T06:25:19Z</time>
      </trkpt>
      <trkpt lat="41.9636380" lon="2.7122010">
        <ele>183.6</ele>
        <time>2022-05-27T06:25:20Z</time>
      </trkpt>
      <trkpt lat="41.9637180" lon="2.7122090">
        <ele>182.6</ele>
        <time>2022-05-27T06:25:21Z</time>
      </trkpt>
      <trkpt lat="41.9637890" lon="2.7122160">
        <ele>181.6</ele>
        <time>2022-05-27T06:25:22Z</time>
      </trkpt>
      <trkpt lat="41.9638550" lon="2.7122240">
        <ele>180.6</ele>
        <time>2022-05-27T06:25:23Z</time>
      </trkpt>
      <trkpt lat="41.9639180" lon="2.7122370">
        <ele>179.6</ele>
        <time>2022-05-27T06:25:24Z</time>
      </trkpt>
      <trkpt lat="41.9639780" lon="2.7122650">
        <ele>178.4</ele>
        <time>2022-05-27T06:25:25Z</time>
      </trkpt>
      <trkpt lat="41.9640360" lon="2.7123080">
        <ele>177.4</ele>
        <time>2022-05-27T06:25:26Z</time>
      </trkpt>
      <trkpt lat="41.9640830" lon="2.7123510">
        <ele>176.4</ele>
        <time>2022-05-27T06:25:27Z</time>
      </trkpt>
      <trkpt lat="41.9641190" lon="2.7123630">
        <ele>175.4</ele>
        <time>2022-05-27T06:25:28Z</time>
      </trkpt>
      <trkpt lat="41.9641350" lon="2.7123580">
        <ele>174.4</ele>
        <time>2022-05-27T06:25:29Z</time>
      </trkpt>
      <trkpt lat="41.9641410" lon="2.7123100">
        <ele>173.4</ele>
        <time>2022-05-27T06:25:30Z</time>
      </trkpt>
      <trkpt lat="41.9641350" lon="2.7122430">
        <ele>172.4</ele>
        <time>2022-05-27T06:25:31Z</time>
      </trkpt>
      <trkpt lat="41.9641300" lon="2.7121730">
        <ele>171.2</ele>
        <time>2022-05-27T06:25:32Z</time>
      </trkpt>
      <trkpt lat="41.9641250" lon="2.7121090">
        <ele>170.2</ele>
        <time>2022-05-27T06:25:33Z</time>
      </trkpt>
      <trkpt lat="41.9641100" lon="2.7120430">
        <ele>169.2</ele>
        <time>2022-05-27T06:25:34Z</time>
      </trkpt>
      <trkpt lat="41.9640920" lon="2.7119910">
        <ele>168.0</ele>
        <time>2022-05-27T06:25:35Z</time>
      </trkpt>
      <trkpt lat="41.9640680" lon="2.7119440">
        <ele>167.0</ele>
        <time>2022-05-27T06:25:36Z</time>
      </trkpt>
      <trkpt lat="41.9640460" lon="2.7119010">
        <ele>166.0</ele>
        <time>2022-05-27T06:25:37Z</time>
      </trkpt>
      <trkpt lat="41.9640230" lon="2.7118510">
        <ele>164.8</ele>
        <time>2022-05-27T06:25:38Z</time>
      </trkpt>
      <trkpt lat="41.9639980" lon="2.7117990">
        <ele>163.8</ele>
        <time>2022-05-27T06:25:39Z</time>
      </trkpt>
      <trkpt lat="41.9639750" lon="2.7117530">
        <ele>162.8</ele>
        <time>2022-05-27T06:25:40Z</time>
      </trkpt>
      <trkpt lat="41.9639720" lon="2.7117270">
        <ele>162.0</ele>
        <time>2022-05-27T06:25:41Z</time>
      </trkpt>
      <trkpt lat="41.9639890" lon="2.7117190">
        <ele>161.4</ele>
        <time>2022-05-27T06:25:42Z</time>
      </trkpt>
      <trkpt lat="41.9640250" lon="2.7117220">
        <ele>160.8</ele>
        <time>2022-05-27T06:25:43Z</time>
      </trkpt>
      <trkpt lat="41.9640560" lon="2.7117350">
        <ele>160.4</ele>
        <time>2022-05-27T06:25:44Z</time>
      </trkpt>
      <trkpt lat="41.9640920" lon="2.7117640">
        <ele>160.2</ele>
        <time>2022-05-27T06:25:45Z</time>
      </trkpt>
      <trkpt lat="41.9641350" lon="2.7118110">
        <ele>160.0</ele>
        <time>2022-05-27T06:25:46Z</time>
      </trkpt>
      <trkpt lat="41.9641870" lon="2.7118560">
        <ele>159.8</ele>
        <time>2022-05-27T06:25:47Z</time>
      </trkpt>
      <trkpt lat="41.9642440" lon="2.7119070">
        <ele>159.6</ele>
        <time>2022-05-27T06:25:48Z</time>
      </trkpt>
      <trkpt lat="41.9643050" lon="2.7119550">
        <ele>159.6</ele>
        <time>2022-05-27T06:25:49Z</time>
      </trkpt>
      <trkpt lat="41.9643670" lon="2.7120110">
        <ele>159.6</ele>
        <time>2022-05-27T06:25:50Z</time>
      </trkpt>
      <trkpt lat="41.9644270" lon="2.7120670">
        <ele>159.6</ele>
        <time>2022-05-27T06:25:51Z</time>
      </trkpt>
      <trkpt lat="41.9644880" lon="2.7121200">
        <ele>159.8</ele>
        <time>2022-05-27T06:25:52Z</time>
      </trkpt>
      <trkpt lat="41.9645450" lon="2.7121580">
        <ele>160.2</ele>
        <time>2022-05-27T06:25:53Z</time>
      </trkpt>
      <trkpt lat="41.9646100" lon="2.7121850">
        <ele>160.6</ele>
        <time>2022-05-27T06:25:54Z</time>
      </trkpt>
      <trkpt lat="41.9646820" lon="2.7122100">
        <ele>160.8</ele>
        <time>2022-05-27T06:25:55Z</time>
      </trkpt>
      <trkpt lat="41.9647420" lon="2.7122390">
        <ele>161.0</ele>
        <time>2022-05-27T06:25:56Z</time>
      </trkpt>
      <trkpt lat="41.9648010" lon="2.7122820">
        <ele>161.2</ele>
        <time>2022-05-27T06:25:57Z</time>
      </trkpt>
      <trkpt lat="41.9648530" lon="2.7123330">
        <ele>161.6</ele>
        <time>2022-05-27T06:25:58Z</time>
      </trkpt>
      <trkpt lat="41.9649060" lon="2.7123780">
        <ele>162.0</ele>
        <time>2022-05-27T06:25:59Z</time>
      </trkpt>
      <trkpt lat="41.9649650" lon="2.7124080">
        <ele>162.2</ele>
        <time>2022-05-27T06:26:00Z</time>
      </trkpt>
      <trkpt lat="41.9650220" lon="2.7124130">
        <ele>162.6</ele>
        <time>2022-05-27T06:26:01Z</time>
      </trkpt>
      <trkpt lat="41.9650680" lon="2.7124040">
        <ele>163.0</ele>
        <time>2022-05-27T06:26:02Z</time>
      </trkpt>
      <trkpt lat="41.9651160" lon="2.7123760">
        <ele>163.2</ele>
        <time>2022-05-27T06:26:03Z</time>
      </trkpt>
      <trkpt lat="41.9651630" lon="2.7123340">
        <ele>163.4</ele>
        <time>2022-05-27T06:26:04Z</time>
      </trkpt>
      <trkpt lat="41.9652140" lon="2.7122800">
        <ele>163.2</ele>
        <time>2022-05-27T06:26:05Z</time>
      </trkpt>
      <trkpt lat="41.9652780" lon="2.7122250">
        <ele>163.0</ele>
        <time>2022-05-27T06:26:06Z</time>
      </trkpt>
      <trkpt lat="41.9653510" lon="2.7121620">
        <ele>162.6</ele>
        <time>2022-05-27T06:26:07Z</time>
      </trkpt>
      <trkpt lat="41.9654210" lon="2.7121030">
        <ele>162.2</ele>
        <time>2022-05-27T06:26:08Z</time>
      </trkpt>
      <trkpt lat="41.9654800" lon="2.7120650">
        <ele>162.0</ele>
        <time>2022-05-27T06:26:09Z</time>
      </trkpt>
      <trkpt lat="41.9655310" lon="2.7120600">
        <ele>161.8</ele>
        <time>2022-05-27T06:26:10Z</time>
      </trkpt>
      <trkpt lat="41.9655710" lon="2.7120770">
        <ele>161.6</ele>
        <time>2022-05-27T06:26:11Z</time>
      </trkpt>
      <trkpt lat="41.9656030" lon="2.7121300">
        <ele>161.4</ele>
        <time>2022-05-27T06:26:12Z</time>
      </trkpt>
      <trkpt lat="41.9656370" lon="2.7121990">
        <ele>161.2</ele>
        <time>2022-05-27T06:26:13Z</time>
      </trkpt>
      <trkpt lat="41.9656720" lon="2.7122760">
        <ele>161.2</ele>
        <time>2022-05-27T06:26:14Z</time>
      </trkpt>
      <trkpt lat="41.9657070" lon="2.7123470">
        <ele>161.0</ele>
        <time>2022-05-27T06:26:15Z</time>
      </trkpt>
      <trkpt lat="41.9657350" lon="2.7124260">
        <ele>160.8</ele>
        <time>2022-05-27T06:26:16Z</time>
      </trkpt>
      <trkpt lat="41.9657630" lon="2.7125060">
        <ele>160.8</ele>
        <time>2022-05-27T06:26:17Z</time>
      </trkpt>
      <trkpt lat="41.9657970" lon="2.7125770">
        <ele>160.8</ele>
        <time>2022-05-27T06:26:18Z</time>
      </trkpt>
      <trkpt lat="41.9658390" lon="2.7126280">
        <ele>161.0</ele>
        <time>2022-05-27T06:26:19Z</time>
      </trkpt>
      <trkpt lat="41.9658900" lon="2.7126730">
        <ele>161.4</ele>
        <time>2022-05-27T06:26:20Z</time>
      </trkpt>
      <trkpt lat="41.9659470" lon="2.7127220">
        <ele>162.0</ele>
        <time>2022-05-27T06:26:21Z</time>
      </trkpt>
      <trkpt lat="41.9660020" lon="2.7127730">
        <ele>162.6</ele>
        <time>2022-05-27T06:26:22Z</time>
      </trkpt>
      <trkpt lat="41.9660540" lon="2.7128230">
        <ele>163.2</ele>
        <time>2022-05-27T06:26:23Z</time>
      </trkpt>
      <trkpt lat="41.9661170" lon="2.7128800">
        <ele>164.0</ele>
        <time>2022-05-27T06:26:24Z</time>
      </trkpt>
      <trkpt lat="41.9661760" lon="2.7129290">
        <ele>164.8</ele>
        <time>2022-05-27T06:26:25Z</time>
      </trkpt>
      <trkpt lat="41.9662370" lon="2.7129620">
        <ele>165.8</ele>
        <time>2022-05-27T06:26:26Z</time>
      </trkpt>
      <trkpt lat="41.9663070" lon="2.7129800">
        <ele>166.8</ele>
        <time>2022-05-27T06:26:27Z</time>
      </trkpt>
      <trkpt lat="41.9663770" lon="2.7129940">
        <ele>167.8</ele>
        <time>2022-05-27T06:26:28Z</time>
      </trkpt>
      <trkpt lat="41.9664450" lon="2.7130030">
        <ele>169.0</ele>
        <time>2022-05-27T06:26:29Z</time>
      </trkpt>
      <trkpt lat="41.9665130" lon="2.7130020">
        <ele>169.8</ele>
        <time>2022-05-27T06:26:30Z</time>
      </trkpt>
      <trkpt lat="41.9665820" lon="2.7129950">
        <ele>170.8</ele>
        <time>2022-05-27T06:26:31Z</time>
      </trkpt>
      <trkpt lat="41.9666370" lon="2.7129850">
        <ele>171.4</ele>
        <time>2022-05-27T06:26:32Z</time>
      </trkpt>
      <trkpt lat="41.9666720" lon="2.7129840">
        <ele>172.0</ele>
        <time>2022-05-27T06:26:33Z</time>
      </trkpt>
      <trkpt lat="41.9666930" lon="2.7129870">
        <ele>172.4</ele>
        <time>2022-05-27T06:26:34Z</time>
      </trkpt>
      <trkpt lat="41.9667090" lon="2.7129910">
        <ele>172.6</ele>
        <time>2022-05-27T06:26:35Z</time>
      </trkpt>
      <trkpt lat="41.9667250" lon="2.7129940">
        <ele>173.0</ele>
        <time>2022-05-27T06:26:36Z</time>
      </trkpt>
      <trkpt lat="41.9667420" lon="2.7129930">
        <ele>173.2</ele>
        <time>2022-05-27T06:26:37Z</time>
      </trkpt>
      <trkpt lat="41.9667620" lon="2.7129830">
        <ele>173.2</ele>
        <time>2022-05-27T06:26:38Z</time>
      </trkpt>
      <trkpt lat="41.9667870" lon="2.7129660">
        <ele>173.2</ele>
        <time>2022-05-27T06:26:39Z</time>
      </trkpt>
      <trkpt lat="41.9668140" lon="2.7129440">
        <ele>173.2</ele>
        <time>2022-05-27T06:26:40Z</time>
      </trkpt>
      <trkpt lat="41.9668370" lon="2.7129230">
        <ele>173.2</ele>
        <time>2022-05-27T06:26:41Z</time>
      </trkpt>
      <trkpt lat="41.9668550" lon="2.7129000">
        <ele>173.0</ele>
        <time>2022-05-27T06:26:42Z</time>
      </trkpt>
      <trkpt lat="41.9668720" lon="2.7128780">
        <ele>173.0</ele>
        <time>2022-05-27T06:26:43Z</time>
      </trkpt>
      <trkpt lat="41.9668900" lon="2.7128610">
        <ele>172.8</ele>
        <time>2022-05-27T06:26:44Z</time>
      </trkpt>
      <trkpt lat="41.9669080" lon="2.7128540">
        <ele>172.6</ele>
        <time>2022-05-27T06:26:45Z</time>
      </trkpt>
      <trkpt lat="41.9669220" lon="2.7128520">
        <ele>172.2</ele>
        <time>2022-05-27T06:26:46Z</time>
      </trkpt>
      <trkpt lat="41.9669330" lon="2.7128560">
        <ele>171.8</ele>
        <time>2022-05-27T06:26:47Z</time>
      </trkpt>
      <trkpt lat="41.9669430" lon="2.7128620">
        <ele>171.2</ele>
        <time>2022-05-27T06:26:48Z</time>
      </trkpt>
      <trkpt lat="41.9669520" lon="2.7128720">
        <ele>170.4</ele>
        <time>2022-05-27T06:26:49Z</time>
      </trkpt>
      <trkpt lat="41.9669590" lon="2.7128910">
        <ele>169.6</ele>
        <time>2022-05-27T06:26:50Z</time>
      </trkpt>
      <trkpt lat="41.9669670" lon="2.7129150">
        <ele>168.6</ele>
        <time>2022-05-27T06:26:51Z</time>
      </trkpt>
      <trkpt lat="41.9669810" lon="2.7129430">
        <ele>167.8</ele>
        <time>2022-05-27T06:26:52Z</time>
      </trkpt>
      <trkpt lat="41.9669960" lon="2.7129610">
        <ele>166.8</ele>
        <time>2022-05-27T06:26:53Z</time>
      </trkpt>
      <trkpt lat="41.9670090" lon="2.7129740">
        <ele>165.8</ele>
        <time>2022-05-27T06:26:54Z</time>
      </trkpt>
      <trkpt lat="41.9670220" lon="2.7129890">
        <ele>165.0</ele>
        <time>2022-05-27T06:26:55Z</time>
      </trkpt>
      <trkpt lat="41.9670380" lon="2.7130060">
        <ele>164.0</ele>
        <time>2022-05-27T06:26:56Z</time>
      </trkpt>
      <trkpt lat="41.9670600" lon="2.7130190">
        <ele>163.2</ele>
        <time>2022-05-27T06:26:57Z</time>
      </trkpt>
      <trkpt lat="41.9670880" lon="2.7130180">
        <ele>162.6</ele>
        <time>2022-05-27T06:26:58Z</time>
      </trkpt>
      <trkpt lat="41.9671130" lon="2.7130070">
        <ele>162.0</ele>
        <time>2022-05-27T06:26:59Z</time>
      </trkpt>
      <trkpt lat="41.9671350" lon="2.7129750">
        <ele>161.4</ele>
        <time>2022-05-27T06:27:00Z</time>
      </trkpt>
      <trkpt lat="41.9671520" lon="2.7129330">
        <ele>161.0</ele>
        <time>2022-05-27T06:27:01Z</time>
      </trkpt>
      <trkpt lat="41.9671590" lon="2.7128790">
        <ele>160.8</ele>
        <time>2022-05-27T06:27:02Z</time>
      </trkpt>
      <trkpt lat="41.9671620" lon="2.7128210">
        <ele>160.8</ele>
        <time>2022-05-27T06:27:03Z</time>
      </trkpt>
      <trkpt lat="41.9671720" lon="2.7127580">
        <ele>160.8</ele>
        <time>2022-05-27T06:27:04Z</time>
      </trkpt>
      <trkpt lat="41.9671820" lon="2.7126990">
        <ele>161.0</ele>
        <time>2022-05-27T06:27:05Z</time>
      </trkpt>
      <trkpt lat="41.9671820" lon="2.7126430">
        <ele>161.2</ele>
        <time>2022-05-27T06:27:06Z</time>
      </trkpt>
      <trkpt lat="41.9671820" lon="2.7125860">
        <ele>161.6</ele>
        <time>2022-05-27T06:27:07Z</time>
      </trkpt>
      <trkpt lat="41.9671830" lon="2.7125260">
        <ele>162.0</ele>
        <time>2022-05-27T06:27:08Z</time>
      </trkpt>
      <trkpt lat="41.9671870" lon="2.7124560">
        <ele>162.2</ele>
        <time>2022-05-27T06:27:09Z</time>
      </trkpt>
      <trkpt lat="41.9671980" lon="2.7123870">
        <ele>162.8</ele>
        <time>2022-05-27T06:27:10Z</time>
      </trkpt>
      <trkpt lat="41.9672160" lon="2.7123240">
        <ele>163.4</ele>
        <time>2022-05-27T06:27:11Z</time>
      </trkpt>
      <trkpt lat="41.9672370" lon="2.7122590">
        <ele>164.0</ele>
        <time>2022-05-27T06:27:12Z</time>
      </trkpt>
      <trkpt lat="41.9672620" lon="2.7121950">
        <ele>164.6</ele>
        <time>2022-05-27T06:27:13Z</time>
      </trkpt>
      <trkpt lat="41.9672790" lon="2.7121300">
        <ele>165.0</ele>
        <time>2022-05-27T06:27:14Z</time>
      </trkpt>
      <trkpt lat="41.9672980" lon="2.7120700">
        <ele>165.6</ele>
        <time>2022-05-27T06:27:15Z</time>
      </trkpt>
      <trkpt lat="41.9673210" lon="2.7120160">
        <ele>166.0</ele>
        <time>2022-05-27T06:27:16Z</time>
      </trkpt>
      <trkpt lat="41.9673320" lon="2.7119670">
        <ele>166.2</ele>
        <time>2022-05-27T06:27:17Z</time>
      </trkpt>
      <trkpt lat="41.9673440" lon="2.7119250">
        <ele>166.6</ele>
        <time>2022-05-27T06:27:18Z</time>
      </trkpt>
      <trkpt lat="41.9673680" lon="2.7119040">
        <ele>166.8</ele>
        <time>2022-05-27T06:27:19Z</time>
      </trkpt>
      <trkpt lat="41.9674030" lon="2.7119020">
        <ele>167.2</ele>
        <time>2022-05-27T06:27:20Z</time>
      </trkpt>
      <trkpt lat="41.9674430" lon="2.7119150">
        <ele>167.4</ele>
        <time>2022-05-27T06:27:21Z</time>
      </trkpt>
      <trkpt lat="41.9674720" lon="2.7119410">
        <ele>167.8</ele>
        <time>2022-05-27T06:27:22Z</time>
      </trkpt>
      <trkpt lat="41.9674840" lon="2.7119820">
        <ele>168.0</ele>
        <time>2022-05-27T06:27:23Z</time>
      </trkpt>
      <trkpt lat="41.9674820" lon="2.7120360">
        <ele>168.2</ele>
        <time>2022-05-27T06:27:24Z</time>
      </trkpt>
      <trkpt lat="41.9674690" lon="2.7120960">
        <ele>168.4</ele>
        <time>2022-05-27T06:27:25Z</time>
      </trkpt>
      <trkpt lat="41.9674590" lon="2.7121650">
        <ele>168.6</ele>
        <time>2022-05-27T06:27:26Z</time>
      </trkpt>
      <trkpt lat="41.9674570" lon="2.7122370">
        <ele>168.6</ele>
        <time>2022-05-27T06:27:27Z</time>
      </trkpt>
      <trkpt lat="41.9674590" lon="2.7123140">
        <ele>168.8</ele>
        <time>2022-05-27T06:27:28Z</time>
      </trkpt>
      <trkpt lat="41.9674670" lon="2.7123910">
        <ele>168.8</ele>
        <time>2022-05-27T06:27:29Z</time>
      </trkpt>
      <trkpt lat="41.9674770" lon="2.7124690">
        <ele>169.0</ele>
        <time>2022-05-27T06:27:30Z</time>
      </trkpt>
      <trkpt lat="41.9674900" lon="2.7125680">
        <ele>169.2</ele>
        <time>2022-05-27T06:27:31Z</time>
      </trkpt>
      <trkpt lat="41.9675110" lon="2.7126710">
        <ele>169.6</ele>
        <time>2022-05-27T06:27:32Z</time>
      </trkpt>
      <trkpt lat="41.9675360" lon="2.7127610">
        <ele>169.8</ele>
        <time>2022-05-27T06:27:33Z</time>
      </trkpt>
      <trkpt lat="41.9675570" lon="2.7128370">
        <ele>170.0</ele>
        <time>2022-05-27T06:27:34Z</time>
      </trkpt>
      <trkpt lat="41.9675870" lon="2.7128760">
        <ele>170.2</ele>
        <time>2022-05-27T06:27:35Z</time>
      </trkpt>
      <trkpt lat="41.9676130" lon="2.7128860">
        <ele>170.6</ele>
        <time>2022-05-27T06:27:36Z</time>
      </trkpt>
      <trkpt lat="41.9676280" lon="2.7128500">
        <ele>170.8</ele>
        <time>2022-05-27T06:27:37Z</time>
      </trkpt>
      <trkpt lat="41.9676350" lon="2.7127920">
        <ele>171.4</ele>
        <time>2022-05-27T06:27:38Z</time>
      </trkpt>
      <trkpt lat="41.9676370" lon="2.7127210">
        <ele>172.0</ele>
        <time>2022-05-27T06:27:39Z</time>
      </trkpt>
      <trkpt lat="41.9676380" lon="2.7126450">
        <ele>172.8</ele>
        <time>2022-05-27T06:27:40Z</time>
      </trkpt>
      <trkpt lat="41.9676410" lon="2.7125580">
        <ele>173.6</ele>
        <time>2022-05-27T06:27:41Z</time>
      </trkpt>
      <trkpt lat="41.9676510" lon="2.7124770">
        <ele>174.6</ele>
        <time>2022-05-27T06:27:42Z</time>
      </trkpt>
      <trkpt lat="41.9676690" lon="2.7123860">
        <ele>175.8</ele>
        <time>2022-05-27T06:27:43Z</time>
      </trkpt>
      <trkpt lat="41.9676950" lon="2.7122960">
        <ele>176.8</ele>
        <time>2022-05-27T06:27:44Z</time>
      </trkpt>
      <trkpt lat="41.9677280" lon="2.7122130">
        <ele>177.8</ele>
        <time>2022-05-27T06:27:45Z</time>
      </trkpt>
      <trkpt lat="41.9677680" lon="2.7121370">
        <ele>178.6</ele>
        <time>2022-05-27T06:27:46Z</time>
      </trkpt>
      <trkpt lat="41.9678110" lon="2.7120690">
        <ele>179.4</ele>
        <time>2022-05-27T06:27:47Z</time>
      </trkpt>
      <trkpt lat="41.9678600" lon="2.7120090">
        <ele>180.4</ele>
        <time>2022-05-27T06:27:48Z</time>
      </trkpt>
      <trkpt lat="41.9679130" lon="2.7119530">
        <ele>181.2</ele>
        <time>2022-05-27T06:27:49Z</time>
      </trkpt>
      <trkpt lat="41.9679680" lon="2.7119000">
        <ele>182.0</ele>
        <time>2022-05-27T06:27:50Z</time>
      </trkpt>
      <trkpt lat="41.9680240" lon="2.7118500">
        <ele>182.8</ele>
        <time>2022-05-27T06:27:51Z</time>
      </trkpt>
      <trkpt lat="41.9680800" lon="2.7118020">
        <ele>183.6</ele>
        <time>2022-05-27T06:27:52Z</time>
      </trkpt>
      <trkpt lat="41.9681270" lon="2.7117520">
        <ele>184.2</ele>
        <time>2022-05-27T06:27:53Z</time>
      </trkpt>
      <trkpt lat="41.9681650" lon="2.7116970">
        <ele>185.0</ele>
        <time>2022-05-27T06:27:54Z</time>
      </trkpt>
      <trkpt lat="41.9682010" lon="2.7116350">
        <ele>185.6</ele>
        <time>2022-05-27T06:27:55Z</time>
      </trkpt>
      <trkpt lat="41.9682380" lon="2.7115690">
        <ele>186.4</ele>
        <time>2022-05-27T06:27:56Z</time>
      </trkpt>
      <trkpt lat="41.9682710" lon="2.7115000">
        <ele>187.0</ele>
        <time>2022-05-27T06:27:57Z</time>
      </trkpt>
      <trkpt lat="41.9682830" lon="2.7114310">
        <ele>187.6</ele>
        <time>2022-05-27T06:27:58Z</time>
      </trkpt>
      <trkpt lat="41.9682830" lon="2.7113710">
        <ele>188.4</ele>
        <time>2022-05-27T06:27:59Z</time>
      </trkpt>
      <trkpt lat="41.9682480" lon="2.7113160">
        <ele>189.2</ele>
        <time>2022-05-27T06:28:00Z</time>
      </trkpt>
      <trkpt lat="41.9681860" lon="2.7112850">
        <ele>190.2</ele>
        <time>2022-05-27T06:28:01Z</time>
      </trkpt>
      <trkpt lat="41.9681080" lon="2.7112760">
        <ele>191.0</ele>
        <time>2022-05-27T06:28:02Z</time>
      </trkpt>
      <trkpt lat="41.9680290" lon="2.7112720">
        <ele>191.6</ele>
        <time>2022-05-27T06:28:03Z</time>
      </trkpt>
      <trkpt lat="41.9679460" lon="2.7112590">
        <ele>192.6</ele>
        <time>2022-05-27T06:28:04Z</time>
      </trkpt>
      <trkpt lat="41.9678860" lon="2.7112290">
        <ele>193.4</ele>
        <time>2022-05-27T06:28:05Z</time>
      </trkpt>
      <trkpt lat="41.9678480" lon="2.7111770">
        <ele>194.2</ele>
        <time>2022-05-27T06:28:06Z</time>
      </trkpt>
      <trkpt lat="41.9678230" lon="2.7111120">
        <ele>195.0</ele>
        <time>2022-05-27T06:28:07Z</time>
      </trkpt>
      <trkpt lat="41.9678050" lon="2.7110310">
        <ele>195.8</ele>
        <time>2022-05-27T06:28:08Z</time>
      </trkpt>
      <trkpt lat="41.9677900" lon="2.7109320">
        <ele>196.6</ele>
        <time>2022-05-27T06:28:09Z</time>
      </trkpt>
      <trkpt lat="41.9677820" lon="2.7108330">
        <ele>197.6</ele>
        <time>2022-05-27T06:28:10Z</time>
      </trkpt>
      <trkpt lat="41.9677780" lon="2.7107380">
        <ele>198.6</ele>
        <time>2022-05-27T06:28:11Z</time>
      </trkpt>
      <trkpt lat="41.9677830" lon="2.7106450">
        <ele>199.4</ele>
        <time>2022-05-27T06:28:12Z</time>
      </trkpt>
      <trkpt lat="41.9677910" lon="2.7105550">
        <ele>200.0</ele>
        <time>2022-05-27T06:28:13Z</time>
      </trkpt>
      <trkpt lat="41.9678030" lon="2.7104690">
        <ele>200.6</ele>
        <time>2022-05-27T06:28:14Z</time>
      </trkpt>
      <trkpt lat="41.9678170" lon="2.7103960">
        <ele>201.2</ele>
        <time>2022-05-27T06:28:15Z</time>
      </trkpt>
      <trkpt lat="41.9678320" lon="2.7103480">
        <ele>201.8</ele>
        <time>2022-05-27T06:28:16Z</time>
      </trkpt>
      <trkpt lat="41.9678510" lon="2.7103380">
        <ele>202.2</ele>
        <time>2022-05-27T06:28:17Z</time>
      </trkpt>
      <trkpt lat="41.9678560" lon="2.7103540">
        <ele>202.6</ele>
        <time>2022-05-27T06:28:18Z</time>
      </trkpt>
      <trkpt lat="41.9678550" lon="2.7104030">
        <ele>203.0</ele>
        <time>2022-05-27T06:28:19Z</time>
      </trkpt>
      <trkpt lat="41.9678370" lon="2.7104740">
        <ele>203.4</ele>
        <time>2022-05-27T06:28:20Z</time>
      </trkpt>
      <trkpt lat="41.9678200" lon="2.7105580">
        <ele>204.0</ele>
        <time>2022-05-27T06:28:21Z</time>
      </trkpt>
      <trkpt lat="41.9678160" lon="2.7106500">
        <ele>204.4</ele>
        <time>2022-05-27T06:28:22Z</time>
      </trkpt>
      <trkpt lat="41.9678240" lon="2.7107580">
        <ele>204.4</ele>
        <time>2022-05-27T06:28:23Z</time>
      </trkpt>
      <trkpt lat="41.9678470" lon="2.7108770">
        <ele>204.8</ele>
        <time>2022-05-27T06:28:24Z</time>
      </trkpt>
      <trkpt lat="41.9678870" lon="2.7109830">
        <ele>205.0</ele>
        <time>2022-05-27T06:28:25Z</time>
      </trkpt>
      <trkpt lat="41.9679390" lon="2.7110560">
        <ele>205.0</ele>
        <time>2022-05-27T06:28:26Z</time>
      </trkpt>
      <trkpt lat="41.9680030" lon="2.7110890">
        <ele>205.0</ele>
        <time>2022-05-27T06:28:27Z</time>
      </trkpt>
      <trkpt lat="41.9680840" lon="2.7110960">
        <ele>205.2</ele>
        <time>2022-05-27T06:28:28Z</time>
      </trkpt>
      <trkpt lat="41.9681720" lon="2.7110960">
        <ele>205.4</ele>
        <time>2022-05-27T06:28:29Z</time>
      </trkpt>
      <trkpt lat="41.9682610" lon="2.7111000">
        <ele>205.4</ele>
        <time>2022-05-27T06:28:30Z</time>
      </trkpt>
      <trkpt lat="41.9683490" lon="2.7111070">
        <ele>205.4</ele>
        <time>2022-05-27T06:28:31Z</time>
      </trkpt>
      <trkpt lat="41.9684300" lon="2.7111220">
        <ele>205.4</ele>
        <time>2022-05-27T06:28:32Z</time>
      </trkpt>
      <trkpt lat="41.9684990" lon="2.7111530">
        <ele>205.2</ele>
        <time>2022-05-27T06:28:33Z</time>
      </trkpt>
      <trkpt lat="41.9685440" lon="2.7111990">
        <ele>205.2</ele>
        <time>2022-05-27T06:28:34Z</time>
      </trkpt>
      <trkpt lat="41.9685630" lon="2.7112510">
        <ele>205.0</ele>
        <time>2022-05-27T06:28:35Z</time>
      </trkpt>
      <trkpt lat="41.9685650" lon="2.7113100">
        <ele>205.0</ele>
        <time>2022-05-27T06:28:36Z</time>
      </trkpt>
      <trkpt lat="41.9685540" lon="2.7113870">
        <ele>204.8</ele>
        <time>2022-05-27T06:28:37Z</time>
      </trkpt>
      <trkpt lat="41.9685360" lon="2.7114780">
        <ele>204.6</ele>
        <time>2022-05-27T06:28:38Z</time>
      </trkpt>
      <trkpt lat="41.9685160" lon="2.7115730">
        <ele>204.6</ele>
        <time>2022-05-27T06:28:39Z</time>
      </trkpt>
      <trkpt lat="41.9685020" lon="2.7116620">
        <ele>204.6</ele>
        <time>2022-05-27T06:28:40Z</time>
      </trkpt>
      <trkpt lat="41.9685010" lon="2.7117400">
        <ele>204.8</ele>
        <time>2022-05-27T06:28:41Z</time>
      </trkpt>
      <trkpt lat="41.9685090" lon="2.7117990">
        <ele>204.8</ele>
        <time>2022-05-27T06:28:42Z</time>
      </trkpt>
      <trkpt lat="41.9685280" lon="2.7118340">
        <ele>204.8</ele>
        <time>2022-05-27T06:28:43Z</time>
      </trkpt>
      <trkpt lat="41.9685510" lon="2.7118420">
        <ele>205.0</ele>
        <time>2022-05-27T06:28:44Z</time>
      </trkpt>
      <trkpt lat="41.9685740" lon="2.7118280">
        <ele>205.2</ele>
        <time>2022-05-27T06:28:45Z</time>
      </trkpt>
      <trkpt lat="41.9685930" lon="2.7117890">
        <ele>205.4</ele>
        <time>2022-05-27T06:28:46Z</time>
      </trkpt>
      <trkpt lat="41.9686170" lon="2.7117300">
        <ele>205.8</ele>
        <time>2022-05-27T06:28:47Z</time>
      </trkpt>
      <trkpt lat="41.9686480" lon="2.7116510">
        <ele>206.4</ele>
        <time>2022-05-27T06:28:48Z</time>
      </trkpt>
      <trkpt lat="41.9686860" lon="2.7115460">
        <ele>207.2</ele>
        <time>2022-05-27T06:28:49Z</time>
      </trkpt>
      <trkpt lat="41.9687200" lon="2.7114250">
        <ele>207.8</ele>
        <time>2022-05-27T06:28:50Z</time>
      </trkpt>
      <trkpt lat="41.9687420" lon="2.7113080">
        <ele>208.2</ele>
        <time>2022-05-27T06:28:51Z</time>
      </trkpt>
      <trkpt lat="41.9687430" lon="2.7112060">
        <ele>209.0</ele>
        <time>2022-05-27T06:28:52Z</time>
      </trkpt>
      <trkpt lat="41.9687310" lon="2.7111150">
        <ele>209.8</ele>
        <time>2022-05-27T06:28:53Z</time>
      </trkpt>
      <trkpt lat="41.9686920" lon="2.7110330">
        <ele>210.4</ele>
        <time>2022-05-27T06:28:54Z</time>
      </trkpt>
      <trkpt lat="41.9686380" lon="2.7109520">
        <ele>211.2</ele>
        <time>2022-05-27T06:28:55Z</time>
      </trkpt>
      <trkpt lat="41.9685730" lon="2.7108790">
        <ele>212.0</ele>
        <time>2022-05-27T06:28:56Z</time>
      </trkpt>
      <trkpt lat="41.9685020" lon="2.7108180">
        <ele>212.8</ele>
        <time>2022-05-27T06:28:57Z</time>
      </trkpt>
      <trkpt lat="41.9684260" lon="2.7107700">
        <ele>213.8</ele>
        <time>2022-05-27T06:28:58Z</time>
      </trkpt>
      <trkpt lat="41.9683530" lon="2.7107290">
        <ele>214.4</ele>
        <time>2022-05-27T06:28:59Z</time>
      </trkpt>
      <trkpt lat="41.9682880" lon="2.7106860">
        <ele>215.2</ele>
        <time>2022-05-27T06:29:00Z</time>
      </trkpt>
      <trkpt lat="41.9682360" lon="2.7106280">
        <ele>216.0</ele>
        <time>2022-05-27T06:29:01Z</time>
      </trkpt>
      <trkpt lat="41.9681940" lon="2.7105570">
        <ele>217.0</ele>
        <time>2022-05-27T06:29:02Z</time>
      </trkpt>
      <trkpt lat="41.9681690" lon="2.7104780">
        <ele>218.0</ele>
        <time>2022-05-27T06:29:03Z</time>
      </trkpt>
      <trkpt lat="41.9681630" lon="2.7103950">
        <ele>219.0</ele>
        <time>2022-05-27T06:29:04Z</time>
      </trkpt>
      <trkpt lat="41.9681780" lon="2.7103060">
        <ele>219.8</ele>
        <time>2022-05-27T06:29:05Z</time>
      </trkpt>
      <trkpt lat="41.9682030" lon="2.7102130">
        <ele>220.6</ele>
        <time>2022-05-27T06:29:06Z</time>
      </trkpt>
      <trkpt lat="41.9682270" lon="2.7101150">
        <ele>221.4</ele>
        <time>2022-05-27T06:29:07Z</time>
      </trkpt>
      <trkpt lat="41.9682400" lon="2.7100130">
        <ele>222.2</ele>
        <time>2022-05-27T06:29:08Z</time>
      </trkpt>
      <trkpt lat="41.9682570" lon="2.7099140">
        <ele>222.8</ele>
        <time>2022-05-27T06:29:09Z</time>
      </trkpt>
      <trkpt lat="41.9682690" lon="2.7098360">
        <ele>223.4</ele>
        <time>2022-05-27T06:29:10Z</time>
      </trkpt>
      <trkpt lat="41.9682870" lon="2.7097900">
        <ele>224.0</ele>
        <time>2022-05-27T06:29:11Z</time>
      </trkpt>
      <trkpt lat="41.9683120" lon="2.7097780">
        <ele>224.8</ele>
        <time>2022-05-27T06:29:12Z</time>
      </trkpt>
      <trkpt lat="41.9683400" lon="2.7097910">
        <ele>225.6</ele>
        <time>2022-05-27T06:29:13Z</time>
      </trkpt>
      <trkpt lat="41.9683720" lon="2.7098280">
        <ele>226.6</ele>
        <time>2022-05-27T06:29:14Z</time>
      </trkpt>
      <trkpt lat="41.9684060" lon="2.7098950">
        <ele>227.4</ele>
        <time>2022-05-27T06:29:15Z</time>
      </trkpt>
      <trkpt lat="41.9684420" lon="2.7099820">
        <ele>228.4</ele>
        <time>2022-05-27T06:29:16Z</time>
      </trkpt>
      <trkpt lat="41.9684810" lon="2.7100700">
        <ele>229.4</ele>
        <time>2022-05-27T06:29:17Z</time>
      </trkpt>
      <trkpt lat="41.9685330" lon="2.7101630">
        <ele>230.6</ele>
        <time>2022-05-27T06:29:18Z</time>
      </trkpt>
      <trkpt lat="41.9685960" lon="2.7102260">
        <ele>231.6</ele>
        <time>2022-05-27T06:29:19Z</time>
      </trkpt>
      <trkpt lat="41.9686710" lon="2.7102640">
        <ele>232.8</ele>
        <time>2022-05-27T06:29:20Z</time>
      </trkpt>
      <trkpt lat="41.9687550" lon="2.7102850">
        <ele>234.0</ele>
        <time>2022-05-27T06:29:21Z</time>
      </trkpt>
      <trkpt lat="41.9688410" lon="2.7102960">
        <ele>235.4</ele>
        <time>2022-05-27T06:29:22Z</time>
      </trkpt>
      <trkpt lat="41.9689230" lon="2.7103110">
        <ele>236.4</ele>
        <time>2022-05-27T06:29:23Z</time>
      </trkpt>
      <trkpt lat="41.9690020" lon="2.7103350">
        <ele>237.6</ele>
        <time>2022-05-27T06:29:24Z</time>
      </trkpt>
      <trkpt lat="41.9690760" lon="2.7103590">
        <ele>238.6</ele>
        <time>2022-05-27T06:29:25Z</time>
      </trkpt>
      <trkpt lat="41.9691490" lon="2.7103800">
        <ele>239.8</ele>
        <time>2022-05-27T06:29:26Z</time>
      </trkpt>
      <trkpt lat="41.9692200" lon="2.7103990">
        <ele>240.6</ele>
        <time>2022-05-27T06:29:27Z</time>
      </trkpt>
      <trkpt lat="41.9692860" lon="2.7104200">
        <ele>241.6</ele>
        <time>2022-05-27T06:29:28Z</time>
      </trkpt>
      <trkpt lat="41.9693430" lon="2.7104270">
        <ele>242.4</ele>
        <time>2022-05-27T06:29:29Z</time>
      </trkpt>
      <trkpt lat="41.9693800" lon="2.7104240">
        <ele>243.0</ele>
        <time>2022-05-27T06:29:30Z</time>
      </trkpt>
      <trkpt lat="41.9694010" lon="2.7104030">
        <ele>243.6</ele>
        <time>2022-05-27T06:29:31Z</time>
      </trkpt>
      <trkpt lat="41.9694010" lon="2.7104030">
        <ele>244.0</ele>
        <time>2022-05-27T06:29:32Z</time>
      </trkpt>
      <trkpt lat="41.9694260" lon="2.7103590">
        <ele>244.4</ele>
        <time>2022-05-27T06:29:33Z</time>
      </trkpt>
      <trkpt lat="41.9694450" lon="2.7103550">
        <ele>245.0</ele>
        <time>2022-05-27T06:29:34Z</time>
      </trkpt>
      <trkpt lat="41.9694720" lon="2.7103530">
        <ele>245.4</ele>
        <time>2022-05-27T06:29:35Z</time>
      </trkpt>
      <trkpt lat="41.9695010" lon="2.7103500">
        <ele>245.8</ele>
        <time>2022-05-27T06:29:36Z</time>
      </trkpt>
      <trkpt lat="41.9695280" lon="2.7103390">
        <ele>246.0</ele>
        <time>2022-05-27T06:29:37Z</time>
      </trkpt>
      <trkpt lat="41.9695530" lon="2.7103170">
        <ele>246.0</ele>
        <time>2022-05-27T06:29:38Z</time>
      </trkpt>
      <trkpt lat="41.9695720" lon="2.7102840">
        <ele>246.0</ele>
        <time>2022-05-27T06:29:39Z</time>
      </trkpt>
      <trkpt lat="41.9695880" lon="2.7102500">
        <ele>245.8</ele>
        <time>2022-05-27T06:29:40Z</time>
      </trkpt>
      <trkpt lat="41.9696070" lon="2.7102160">
        <ele>245.8</ele>
        <time>2022-05-27T06:29:41Z</time>
      </trkpt>
      <trkpt lat="41.9696340" lon="2.7101980">
        <ele>245.6</ele>
        <time>2022-05-27T06:29:42Z</time>
      </trkpt>
      <trkpt lat="41.9696710" lon="2.7101750">
        <ele>245.4</ele>
        <time>2022-05-27T06:29:43Z</time>
      </trkpt>
      <trkpt lat="41.9697150" lon="2.7101410">
        <ele>245.2</ele>
        <time>2022-05-27T06:29:44Z</time>
      </trkpt>
      <trkpt lat="41.9697700" lon="2.7100940">
        <ele>245.0</ele>
        <time>2022-05-27T06:29:45Z</time>
      </trkpt>
      <trkpt lat="41.9698190" lon="2.7100430">
        <ele>244.8</ele>
        <time>2022-05-27T06:29:46Z</time>
      </trkpt>
      <trkpt lat="41.9698560" lon="2.7099960">
        <ele>244.6</ele>
        <time>2022-05-27T06:29:47Z</time>
      </trkpt>
      <trkpt lat="41.9698950" lon="2.7099500">
        <ele>244.4</ele>
        <time>2022-05-27T06:29:48Z</time>
      </trkpt>
      <trkpt lat="41.9699430" lon="2.7099010">
        <ele>244.2</ele>
        <time>2022-05-27T06:29:49Z</time>
      </trkpt>
      <trkpt lat="41.9699960" lon="2.7098520">
        <ele>244.2</ele>
        <time>2022-05-27T06:29:50Z</time>
      </trkpt>
      <trkpt lat="41.9700400" lon="2.7098060">
        <ele>244.0</ele>
        <time>2022-05-27T06:29:51Z</time>
      </trkpt>
      <trkpt lat="41.9700700" lon="2.7097610">
        <ele>244.0</ele>
        <time>2022-05-27T06:29:52Z</time>
      </trkpt>
      <trkpt lat="41.9700920" lon="2.7097160">
        <ele>244.0</ele>
        <time>2022-05-27T06:29:53Z</time>
      </trkpt>
      <trkpt lat="41.9701190" lon="2.7096820">
        <ele>244.0</ele>
        <time>2022-05-27T06:29:54Z</time>
      </trkpt>
      <trkpt lat="41.9701550" lon="2.7096600">
        <ele>244.0</ele>
        <time>2022-05-27T06:29:55Z</time>
      </trkpt>
      <trkpt lat="41.9701910" lon="2.7096380">
        <ele>244.0</ele>
        <time>2022-05-27T06:29:56Z</time>
      </trkpt>
      <trkpt lat="41.9702240" lon="2.7096080">
        <ele>243.8</ele>
        <time>2022-05-27T06:29:57Z</time>
      </trkpt>
      <trkpt lat="41.9702580" lon="2.7095740">
        <ele>243.6</ele>
        <time>2022-05-27T06:29:58Z</time>
      </trkpt>
      <trkpt lat="41.9703030" lon="2.7095460">
        <ele>243.2</ele>
        <time>2022-05-27T06:29:59Z</time>
      </trkpt>
      <trkpt lat="41.9703610" lon="2.7095190">
        <ele>242.8</ele>
        <time>2022-05-27T06:30:00Z</time>
      </trkpt>
      <trkpt lat="41.9704190" lon="2.7094870">
        <ele>242.0</ele>
        <time>2022-05-27T06:30:01Z</time>
      </trkpt>
      <trkpt lat="41.9704780" lon="2.7094520">
        <ele>241.4</ele>
        <time>2022-05-27T06:30:02Z</time>
      </trkpt>
      <trkpt lat="41.9705330" lon="2.7094260">
        <ele>240.6</ele>
        <time>2022-05-27T06:30:03Z</time>
      </trkpt>
      <trkpt lat="41.9705820" lon="2.7093990">
        <ele>240.0</ele>
        <time>2022-05-27T06:30:04Z</time>
      </trkpt>
      <trkpt lat="41.9706220" lon="2.7093640">
        <ele>239.2</ele>
        <time>2022-05-27T06:30:05Z</time>
      </trkpt>
      <trkpt lat="41.9706590" lon="2.7093340">
        <ele>238.6</ele>
        <time>2022-05-27T06:30:06Z</time>
      </trkpt>
      <trkpt lat="41.9707010" lon="2.7093200">
        <ele>238.0</ele>
        <time>2022-05-27T06:30:07Z</time>
      </trkpt>
      <trkpt lat="41.9707620" lon="2.7093160">
        <ele>237.0</ele>
        <time>2022-05-27T06:30:08Z</time>
      </trkpt>
      <trkpt lat="41.9708400" lon="2.7093090">
        <ele>236.2</ele>
        <time>2022-05-27T06:30:09Z</time>
      </trkpt>
      <trkpt lat="41.9709140" lon="2.7092960">
        <ele>235.4</ele>
        <time>2022-05-27T06:30:10Z</time>
      </trkpt>
      <trkpt lat="41.9709730" lon="2.7092840">
        <ele>234.8</ele>
        <time>2022-05-27T06:30:11Z</time>
      </trkpt>
      <trkpt lat="41.9710080" lon="2.7092800">
        <ele>234.2</ele>
        <time>2022-05-27T06:30:12Z</time>
      </trkpt>
      <trkpt lat="41.9710140" lon="2.7093030">
        <ele>233.4</ele>
        <time>2022-05-27T06:30:13Z</time>
      </trkpt>
      <trkpt lat="41.9710050" lon="2.7093450">
        <ele>232.8</ele>
        <time>2022-05-27T06:30:14Z</time>
      </trkpt>
      <trkpt lat="41.9709820" lon="2.7093930">
        <ele>232.0</ele>
        <time>2022-05-27T06:30:15Z</time>
      </trkpt>
      <trkpt lat="41.9709560" lon="2.7094300">
        <ele>231.4</ele>
        <time>2022-05-27T06:30:16Z</time>
      </trkpt>
      <trkpt lat="41.9709280" lon="2.7094690">
        <ele>230.6</ele>
        <time>2022-05-27T06:30:17Z</time>
      </trkpt>
      <trkpt lat="41.9709220" lon="2.7094990">
        <ele>229.8</ele>
        <time>2022-05-27T06:30:18Z</time>
      </trkpt>
      <trkpt lat="41.9709270" lon="2.7095210">
        <ele>229.0</ele>
        <time>2022-05-27T06:30:19Z</time>
      </trkpt>
      <trkpt lat="41.9709490" lon="2.7095320">
        <ele>228.0</ele>
        <time>2022-05-27T06:30:20Z</time>
      </trkpt>
      <trkpt lat="41.9709690" lon="2.7095370">
        <ele>227.2</ele>
        <time>2022-05-27T06:30:21Z</time>
      </trkpt>
      <trkpt lat="41.9709820" lon="2.7095450">
        <ele>226.4</ele>
        <time>2022-05-27T06:30:22Z</time>
      </trkpt>
      <trkpt lat="41.9709760" lon="2.7095580">
        <ele>225.6</ele>
        <time>2022-05-27T06:30:23Z</time>
      </trkpt>
      <trkpt lat="41.9709630" lon="2.7095780">
        <ele>224.6</ele>
        <time>2022-05-27T06:30:24Z</time>
      </trkpt>
      <trkpt lat="41.9709300" lon="2.7096120">
        <ele>223.8</ele>
        <time>2022-05-27T06:30:25Z</time>
      </trkpt>
      <trkpt lat="41.9708860" lon="2.7096580">
        <ele>223.2</ele>
        <time>2022-05-27T06:30:26Z</time>
      </trkpt>
      <trkpt lat="41.9708360" lon="2.7096990">
        <ele>222.6</ele>
        <time>2022-05-27T06:30:27Z</time>
      </trkpt>
      <trkpt lat="41.9707970" lon="2.7097330">
        <ele>221.8</ele>
        <time>2022-05-27T06:30:28Z</time>
      </trkpt>
      <trkpt lat="41.9707620" lon="2.7097660">
        <ele>221.2</ele>
        <time>2022-05-27T06:30:29Z</time>
      </trkpt>
      <trkpt lat="41.9707360" lon="2.7098030">
        <ele>220.6</ele>
        <time>2022-05-27T06:30:30Z</time>
      </trkpt>
      <trkpt lat="41.9707120" lon="2.7098430">
        <ele>220.0</ele>
        <time>2022-05-27T06:30:31Z</time>
      </trkpt>
      <trkpt lat="41.9706850" lon="2.7098790">
        <ele>219.6</ele>
        <time>2022-05-27T06:30:32Z</time>
      </trkpt>
      <trkpt lat="41.9706590" lon="2.7099110">
        <ele>219.0</ele>
        <time>2022-05-27T06:30:33Z</time>
      </trkpt>
      <trkpt lat="41.9706480" lon="2.7099480">
        <ele>218.4</ele>
        <time>2022-05-27T06:30:34Z</time>
      </trkpt>
      <trkpt lat="41.9706480" lon="2.7099940">
        <ele>217.6</ele>
        <time>2022-05-27T06:30:35Z</time>
      </trkpt>
      <trkpt lat="41.9706600" lon="2.7100440">
        <ele>217.0</ele>
        <time>2022-05-27T06:30:36Z</time>
      </trkpt>
      <trkpt lat="41.9706700" lon="2.7100870">
        <ele>216.4</ele>
        <time>2022-05-27T06:30:37Z</time>
      </trkpt>
      <trkpt lat="41.9706730" lon="2.7101220">
        <ele>215.6</ele>
        <time>2022-05-27T06:30:38Z</time>
      </trkpt>
      <trkpt lat="41.9706750" lon="2.7101610">
        <ele>215.0</ele>
        <time>2022-05-27T06:30:39Z</time>
      </trkpt>
      <trkpt lat="41.9706800" lon="2.7101970">
        <ele>214.4</ele>
        <time>2022-05-27T06:30:40Z</time>
      </trkpt>
      <trkpt lat="41.9706910" lon="2.7102120">
        <ele>213.6</ele>
        <time>2022-05-27T06:30:41Z</time>
      </trkpt>
      <trkpt lat="41.9707060" lon="2.7102180">
        <ele>213.0</ele>
        <time>2022-05-27T06:30:42Z</time>
      </trkpt>
      <trkpt lat="41.9707170" lon="2.7102140">
        <ele>212.4</ele>
        <time>2022-05-27T06:30:43Z</time>
      </trkpt>
      <trkpt lat="41.9707220" lon="2.7102140">
        <ele>212.0</ele>
        <time>2022-05-27T06:30:44Z</time>
      </trkpt>
      <trkpt lat="41.9707230" lon="2.7102110">
        <ele>211.4</ele>
        <time>2022-05-27T06:30:45Z</time>
      </trkpt>
      <trkpt lat="41.9707220" lon="2.7102100">
        <ele>211.2</ele>
        <time>2022-05-27T06:30:46Z</time>
      </trkpt>
      <trkpt lat="41.9707220" lon="2.7102100">
        <ele>211.2</ele>
        <time>2022-05-27T06:30:47Z</time>
      </trkpt>
      <trkpt lat="41.9707220" lon="2.7102100">
        <ele>211.2</ele>
        <time>2022-05-27T06:30:48Z</time>
      </trkpt>
      <trkpt lat="41.9707220" lon="2.7102100">
        <ele>211.2</ele>
        <time>2022-05-27T06:30:49Z</time>
      </trkpt>
      <trkpt lat="41.9707220" lon="2.7102100">
        <ele>211.2</ele>
        <time>2022-05-27T06:30:50Z</time>
      </trkpt>
      <trkpt lat="41.9707220" lon="2.7102100">
        <ele>211.2</ele>
        <time>2022-05-27T06:30:51Z</time>
      </trkpt>
      <trkpt lat="41.9707220" lon="2.7102100">
        <ele>211.2</ele>
        <time>2022-05-27T06:30:52Z</time>
      </trkpt>
      <trkpt lat="41.9707220" lon="2.7102100">
        <ele>211.2</ele>
        <time>2022-05-27T06:30:53Z</time>
      </trkpt>
      <trkpt lat="41.9708270" lon="2.7101880">
        <ele>209.4</ele>
        <time>2022-05-27T06:31:27Z</time>
      </trkpt>
      <trkpt lat="41.9708500" lon="2.7101670">
        <ele>209.2</ele>
        <time>2022-05-27T06:31:28Z</time>
      </trkpt>
      <trkpt lat="41.9708680" lon="2.7101380">
        <ele>209.0</ele>
        <time>2022-05-27T06:31:29Z</time>
      </trkpt>
      <trkpt lat="41.9708930" lon="2.7100960">
        <ele>208.8</ele>
        <time>2022-05-27T06:31:30Z</time>
      </trkpt>
      <trkpt lat="41.9709210" lon="2.7100560">
        <ele>208.6</ele>
        <time>2022-05-27T06:31:31Z</time>
      </trkpt>
      <trkpt lat="41.9709460" lon="2.7100130">
        <ele>208.6</ele>
        <time>2022-05-27T06:31:32Z</time>
      </trkpt>
      <trkpt lat="41.9709770" lon="2.7099740">
        <ele>208.4</ele>
        <time>2022-05-27T06:31:33Z</time>
      </trkpt>
      <trkpt lat="41.9710140" lon="2.7099330">
        <ele>208.4</ele>
        <time>2022-05-27T06:31:34Z</time>
      </trkpt>
      <trkpt lat="41.9710600" lon="2.7098940">
        <ele>208.4</ele>
        <time>2022-05-27T06:31:35Z</time>
      </trkpt>
      <trkpt lat="41.9711070" lon="2.7098610">
        <ele>208.4</ele>
        <time>2022-05-27T06:31:36Z</time>
      </trkpt>
      <trkpt lat="41.9711650" lon="2.7098250">
        <ele>208.6</ele>
        <time>2022-05-27T06:31:37Z</time>
      </trkpt>
      <trkpt lat="41.9712340" lon="2.7097810">
        <ele>208.6</ele>
        <time>2022-05-27T06:31:38Z</time>
      </trkpt>
      <trkpt lat="41.9713000" lon="2.7097270">
        <ele>208.6</ele>
        <time>2022-05-27T06:31:39Z</time>
      </trkpt>
      <trkpt lat="41.9713630" lon="2.7096640">
        <ele>208.4</ele>
        <time>2022-05-27T06:31:40Z</time>
      </trkpt>
      <trkpt lat="41.9714330" lon="2.7096010">
        <ele>208.4</ele>
        <time>2022-05-27T06:31:41Z</time>
      </trkpt>
      <trkpt lat="41.9715070" lon="2.7095380">
        <ele>208.2</ele>
        <time>2022-05-27T06:31:42Z</time>
      </trkpt>
      <trkpt lat="41.9715740" lon="2.7094610">
        <ele>208.2</ele>
        <time>2022-05-27T06:31:43Z</time>
      </trkpt>
      <trkpt lat="41.9716340" lon="2.7093680">
        <ele>208.0</ele>
        <time>2022-05-27T06:31:44Z</time>
      </trkpt>
      <trkpt lat="41.9716910" lon="2.7092680">
        <ele>207.8</ele>
        <time>2022-05-27T06:31:45Z</time>
      </trkpt>
      <trkpt lat="41.9717380" lon="2.7091770">
        <ele>207.8</ele>
        <time>2022-05-27T06:31:46Z</time>
      </trkpt>
      <trkpt lat="41.9717730" lon="2.7091010">
        <ele>207.6</ele>
        <time>2022-05-27T06:31:47Z</time>
      </trkpt>
      <trkpt lat="41.9717970" lon="2.7090480">
        <ele>207.6</ele>
        <time>2022-05-27T06:31:48Z</time>
      </trkpt>
      <trkpt lat="41.9718120" lon="2.7090270">
        <ele>207.4</ele>
        <time>2022-05-27T06:31:49Z</time>
      </trkpt>
      <trkpt lat="41.9718270" lon="2.7090260">
        <ele>207.0</ele>
        <time>2022-05-27T06:31:50Z</time>
      </trkpt>
      <trkpt lat="41.9718470" lon="2.7090440">
        <ele>206.6</ele>
        <time>2022-05-27T06:31:51Z</time>
      </trkpt>
      <trkpt lat="41.9718730" lon="2.7090690">
        <ele>206.0</ele>
        <time>2022-05-27T06:31:52Z</time>
      </trkpt>
      <trkpt lat="41.9718970" lon="2.7090990">
        <ele>205.6</ele>
        <time>2022-05-27T06:31:53Z</time>
      </trkpt>
      <trkpt lat="41.9719150" lon="2.7091370">
        <ele>205.2</ele>
        <time>2022-05-27T06:31:54Z</time>
      </trkpt>
      <trkpt lat="41.9719290" lon="2.7091800">
        <ele>205.0</ele>
        <time>2022-05-27T06:31:55Z</time>
      </trkpt>
      <trkpt lat="41.9719370" lon="2.7092250">
        <ele>204.6</ele>
        <time>2022-05-27T06:31:56Z</time>
      </trkpt>
      <trkpt lat="41.9719430" lon="2.7092620">
        <ele>204.4</ele>
        <time>2022-05-27T06:31:57Z</time>
      </trkpt>
      <trkpt lat="41.9719550" lon="2.7092950">
        <ele>204.0</ele>
        <time>2022-05-27T06:31:58Z</time>
      </trkpt>
      <trkpt lat="41.9719720" lon="2.7093220">
        <ele>203.8</ele>
        <time>2022-05-27T06:31:59Z</time>
      </trkpt>
      <trkpt lat="41.9719890" lon="2.7093500">
        <ele>203.6</ele>
        <time>2022-05-27T06:32:00Z</time>
      </trkpt>
      <trkpt lat="41.9720040" lon="2.7093740">
        <ele>203.4</ele>
        <time>2022-05-27T06:32:01Z</time>
      </trkpt>
      <trkpt lat="41.9720180" lon="2.7093920">
        <ele>203.4</ele>
        <time>2022-05-27T06:32:02Z</time>
      </trkpt>
      <trkpt lat="41.9720350" lon="2.7094110">
        <ele>203.4</ele>
        <time>2022-05-27T06:32:03Z</time>
      </trkpt>
      <trkpt lat="41.9720480" lon="2.7094290">
        <ele>203.2</ele>
        <time>2022-05-27T06:32:04Z</time>
      </trkpt>
      <trkpt lat="41.9720550" lon="2.7094380">
        <ele>203.2</ele>
        <time>2022-05-27T06:32:05Z</time>
      </trkpt>
      <trkpt lat="41.9720560" lon="2.7094400">
        <ele>203.2</ele>
        <time>2022-05-27T06:32:06Z</time>
      </trkpt>
      <trkpt lat="41.9720560" lon="2.7094390">
        <ele>203.2</ele>
        <time>2022-05-27T06:32:07Z</time>
      </trkpt>
      <trkpt lat="41.9720550" lon="2.7094380">
        <ele>203.0</ele>
        <time>2022-05-27T06:32:08Z</time>
      </trkpt>
      <trkpt lat="41.9720550" lon="2.7094380">
        <ele>203.0</ele>
        <time>2022-05-27T06:32:09Z</time>
      </trkpt>
      <trkpt lat="41.9720550" lon="2.7094380">
        <ele>203.0</ele>
        <time>2022-05-27T06:32:10Z</time>
      </trkpt>
      <trkpt lat="41.9720550" lon="2.7094380">
        <ele>203.0</ele>
        <time>2022-05-27T06:32:11Z</time>
      </trkpt>
      <trkpt lat="41.9720550" lon="2.7094380">
        <ele>203.0</ele>
        <time>2022-05-27T06:32:12Z</time>
      </trkpt>
      <trkpt lat="41.9720550" lon="2.7094380">
        <ele>203.0</ele>
        <time>2022-05-27T06:32:13Z</time>
      </trkpt>
      <trkpt lat="41.9720550" lon="2.7094380">
        <ele>203.0</ele>
        <time>2022-05-27T06:32:14Z</time>
      </trkpt>
      <trkpt lat="41.9720550" lon="2.7094380">
        <ele>203.0</ele>
        <time>2022-05-27T06:32:15Z</time>
      </trkpt>
      <trkpt lat="41.9720550" lon="2.7094390">
        <ele>203.0</ele>
        <time>2022-05-27T06:32:16Z</time>
      </trkpt>
      <trkpt lat="41.9721540" lon="2.7094730">
        <ele>202.6</ele>
        <time>2022-05-27T06:35:15Z</time>
      </trkpt>
      <trkpt lat="41.9721690" lon="2.7094730">
        <ele>202.4</ele>
        <time>2022-05-27T06:35:16Z</time>
      </trkpt>
      <trkpt lat="41.9721790" lon="2.7094760">
        <ele>202.4</ele>
        <time>2022-05-27T06:35:17Z</time>
      </trkpt>
      <trkpt lat="41.9721870" lon="2.7094820">
        <ele>202.2</ele>
        <time>2022-05-27T06:35:18Z</time>
      </trkpt>
      <trkpt lat="41.9721930" lon="2.7094950">
        <ele>202.2</ele>
        <time>2022-05-27T06:35:19Z</time>
      </trkpt>
      <trkpt lat="41.9721920" lon="2.7095080">
        <ele>202.2</ele>
        <time>2022-05-27T06:35:20Z</time>
      </trkpt>
      <trkpt lat="41.9721910" lon="2.7095190">
        <ele>202.2</ele>
        <time>2022-05-27T06:35:21Z</time>
      </trkpt>
      <trkpt lat="41.9721890" lon="2.7095200">
        <ele>202.2</ele>
        <time>2022-05-27T06:35:22Z</time>
      </trkpt>
      <trkpt lat="41.9721800" lon="2.7095180">
        <ele>202.4</ele>
        <time>2022-05-27T06:35:23Z</time>
      </trkpt>
      <trkpt lat="41.9721590" lon="2.7095130">
        <ele>202.4</ele>
        <time>2022-05-27T06:35:24Z</time>
      </trkpt>
      <trkpt lat="41.9721310" lon="2.7095080">
        <ele>202.4</ele>
        <time>2022-05-27T06:35:25Z</time>
      </trkpt>
      <trkpt lat="41.9721030" lon="2.7095080">
        <ele>202.6</ele>
        <time>2022-05-27T06:35:26Z</time>
      </trkpt>
      <trkpt lat="41.9720810" lon="2.7095150">
        <ele>202.4</ele>
        <time>2022-05-27T06:35:27Z</time>
      </trkpt>
      <trkpt lat="41.9720690" lon="2.7095290">
        <ele>202.4</ele>
        <time>2022-05-27T06:35:28Z</time>
      </trkpt>
      <trkpt lat="41.9720650" lon="2.7095430">
        <ele>202.2</ele>
        <time>2022-05-27T06:35:29Z</time>
      </trkpt>
      <trkpt lat="41.9720630" lon="2.7095550">
        <ele>201.8</ele>
        <time>2022-05-27T06:35:30Z</time>
      </trkpt>
      <trkpt lat="41.9720600" lon="2.7095680">
        <ele>201.6</ele>
        <time>2022-05-27T06:35:31Z</time>
      </trkpt>
      <trkpt lat="41.9720550" lon="2.7095790">
        <ele>201.2</ele>
        <time>2022-05-27T06:35:32Z</time>
      </trkpt>
      <trkpt lat="41.9720450" lon="2.7095840">
        <ele>201.0</ele>
        <time>2022-05-27T06:35:33Z</time>
      </trkpt>
      <trkpt lat="41.9720300" lon="2.7095830">
        <ele>200.8</ele>
        <time>2022-05-27T06:35:34Z</time>
      </trkpt>
      <trkpt lat="41.9720070" lon="2.7095730">
        <ele>200.4</ele>
        <time>2022-05-27T06:35:35Z</time>
      </trkpt>
      <trkpt lat="41.9719850" lon="2.7095600">
        <ele>200.2</ele>
        <time>2022-05-27T06:35:36Z</time>
      </trkpt>
      <trkpt lat="41.9719640" lon="2.7095470">
        <ele>200.0</ele>
        <time>2022-05-27T06:35:37Z</time>
      </trkpt>
      <trkpt lat="41.9719450" lon="2.7095370">
        <ele>199.8</ele>
        <time>2022-05-27T06:35:38Z</time>
      </trkpt>
      <trkpt lat="41.9719300" lon="2.7095270">
        <ele>199.6</ele>
        <time>2022-05-27T06:35:39Z</time>
      </trkpt>
      <trkpt lat="41.9719220" lon="2.7095250">
        <ele>199.4</ele>
        <time>2022-05-27T06:35:40Z</time>
      </trkpt>
      <trkpt lat="41.9719180" lon="2.7095250">
        <ele>199.2</ele>
        <time>2022-05-27T06:35:41Z</time>
      </trkpt>
      <trkpt lat="41.9719160" lon="2.7095250">
        <ele>199.0</ele>
        <time>2022-05-27T06:35:42Z</time>
      </trkpt>
      <trkpt lat="41.9719090" lon="2.7095270">
        <ele>198.8</ele>
        <time>2022-05-27T06:35:43Z</time>
      </trkpt>
      <trkpt lat="41.9718940" lon="2.7095360">
        <ele>198.8</ele>
        <time>2022-05-27T06:35:44Z</time>
      </trkpt>
      <trkpt lat="41.9718710" lon="2.7095570">
        <ele>198.6</ele>
        <time>2022-05-27T06:35:45Z</time>
      </trkpt>
      <trkpt lat="41.9718470" lon="2.7095840">
        <ele>198.4</ele>
        <time>2022-05-27T06:35:46Z</time>
      </trkpt>
      <trkpt lat="41.9718230" lon="2.7096150">
        <ele>198.0</ele>
        <time>2022-05-27T06:35:47Z</time>
      </trkpt>
      <trkpt lat="41.9718060" lon="2.7096460">
        <ele>197.6</ele>
        <time>2022-05-27T06:35:48Z</time>
      </trkpt>
      <trkpt lat="41.9717980" lon="2.7096780">
        <ele>197.2</ele>
        <time>2022-05-27T06:35:49Z</time>
      </trkpt>
      <trkpt lat="41.9717970" lon="2.7097090">
        <ele>196.6</ele>
        <time>2022-05-27T06:35:50Z</time>
      </trkpt>
      <trkpt lat="41.9718080" lon="2.7097300">
        <ele>196.0</ele>
        <time>2022-05-27T06:35:51Z</time>
      </trkpt>
      <trkpt lat="41.9718360" lon="2.7097440">
        <ele>195.4</ele>
        <time>2022-05-27T06:35:52Z</time>
      </trkpt>
      <trkpt lat="41.9718730" lon="2.7097530">
        <ele>194.8</ele>
        <time>2022-05-27T06:35:53Z</time>
      </trkpt>
      <trkpt lat="41.9719090" lon="2.7097570">
        <ele>194.4</ele>
        <time>2022-05-27T06:35:54Z</time>
      </trkpt>
      <trkpt lat="41.9719360" lon="2.7097600">
        <ele>193.8</ele>
        <time>2022-05-27T06:35:55Z</time>
      </trkpt>
      <trkpt lat="41.9719630" lon="2.7097660">
        <ele>193.2</ele>
        <time>2022-05-27T06:35:56Z</time>
      </trkpt>
      <trkpt lat="41.9719700" lon="2.7097730">
        <ele>192.6</ele>
        <time>2022-05-27T06:35:57Z</time>
      </trkpt>
      <trkpt lat="41.9719720" lon="2.7097810">
        <ele>192.0</ele>
        <time>2022-05-27T06:35:58Z</time>
      </trkpt>
      <trkpt lat="41.9719760" lon="2.7097950">
        <ele>191.4</ele>
        <time>2022-05-27T06:35:59Z</time>
      </trkpt>
      <trkpt lat="41.9719740" lon="2.7098140">
        <ele>190.6</ele>
        <time>2022-05-27T06:36:00Z</time>
      </trkpt>
      <trkpt lat="41.9719610" lon="2.7098370">
        <ele>189.8</ele>
        <time>2022-05-27T06:36:01Z</time>
      </trkpt>
      <trkpt lat="41.9719380" lon="2.7098700">
        <ele>189.0</ele>
        <time>2022-05-27T06:36:02Z</time>
      </trkpt>
      <trkpt lat="41.9719050" lon="2.7099200">
        <ele>188.2</ele>
        <time>2022-05-27T06:36:03Z</time>
      </trkpt>
      <trkpt lat="41.9718650" lon="2.7099780">
        <ele>187.6</ele>
        <time>2022-05-27T06:36:04Z</time>
      </trkpt>
      <trkpt lat="41.9718230" lon="2.7100400">
        <ele>187.2</ele>
        <time>2022-05-27T06:36:05Z</time>
      </trkpt>
      <trkpt lat="41.9717840" lon="2.7101020">
        <ele>186.8</ele>
        <time>2022-05-27T06:36:06Z</time>
      </trkpt>
      <trkpt lat="41.9717510" lon="2.7101450">
        <ele>186.6</ele>
        <time>2022-05-27T06:36:07Z</time>
      </trkpt>
      <trkpt lat="41.9717150" lon="2.7101900">
        <ele>186.4</ele>
        <time>2022-05-27T06:36:08Z</time>
      </trkpt>
      <trkpt lat="41.9716810" lon="2.7102480">
        <ele>186.2</ele>
        <time>2022-05-27T06:36:09Z</time>
      </trkpt>
      <trkpt lat="41.9716580" lon="2.7103030">
        <ele>186.0</ele>
        <time>2022-05-27T06:36:10Z</time>
      </trkpt>
      <trkpt lat="41.9716420" lon="2.7103490">
        <ele>185.8</ele>
        <time>2022-05-27T06:36:11Z</time>
      </trkpt>
      <trkpt lat="41.9716270" lon="2.7103820">
        <ele>185.6</ele>
        <time>2022-05-27T06:36:12Z</time>
      </trkpt>
      <trkpt lat="41.9716080" lon="2.7104010">
        <ele>185.4</ele>
        <time>2022-05-27T06:36:13Z</time>
      </trkpt>
      <trkpt lat="41.9715860" lon="2.7104090">
        <ele>185.2</ele>
        <time>2022-05-27T06:36:14Z</time>
      </trkpt>
      <trkpt lat="41.9715620" lon="2.7104170">
        <ele>184.6</ele>
        <time>2022-05-27T06:36:15Z</time>
      </trkpt>
      <trkpt lat="41.9715360" lon="2.7104340">
        <ele>184.2</ele>
        <time>2022-05-27T06:36:16Z</time>
      </trkpt>
      <trkpt lat="41.9715190" lon="2.7104610">
        <ele>183.8</ele>
        <time>2022-05-27T06:36:17Z</time>
      </trkpt>
      <trkpt lat="41.9715130" lon="2.7104930">
        <ele>183.4</ele>
        <time>2022-05-27T06:36:18Z</time>
      </trkpt>
      <trkpt lat="41.9715180" lon="2.7105210">
        <ele>182.8</ele>
        <time>2022-05-27T06:36:19Z</time>
      </trkpt>
      <trkpt lat="41.9715300" lon="2.7105520">
        <ele>182.2</ele>
        <time>2022-05-27T06:36:20Z</time>
      </trkpt>
      <trkpt lat="41.9715460" lon="2.7105970">
        <ele>181.6</ele>
        <time>2022-05-27T06:36:21Z</time>
      </trkpt>
      <trkpt lat="41.9715670" lon="2.7106450">
        <ele>181.2</ele>
        <time>2022-05-27T06:36:22Z</time>
      </trkpt>
      <trkpt lat="41.9715950" lon="2.7106850">
        <ele>180.6</ele>
        <time>2022-05-27T06:36:23Z</time>
      </trkpt>
      <trkpt lat="41.9716350" lon="2.7107150">
        <ele>180.2</ele>
        <time>2022-05-27T06:36:24Z</time>
      </trkpt>
      <trkpt lat="41.9716820" lon="2.7107330">
        <ele>179.8</ele>
        <time>2022-05-27T06:36:25Z</time>
      </trkpt>
      <trkpt lat="41.9717220" lon="2.7107490">
        <ele>179.2</ele>
        <time>2022-05-27T06:36:26Z</time>
      </trkpt>
      <trkpt lat="41.9717550" lon="2.7107740">
        <ele>178.6</ele>
        <time>2022-05-27T06:36:27Z</time>
      </trkpt>
      <trkpt lat="41.9717820" lon="2.7108060">
        <ele>178.0</ele>
        <time>2022-05-27T06:36:28Z</time>
      </trkpt>
      <trkpt lat="41.9718170" lon="2.7108380">
        <ele>177.4</ele>
        <time>2022-05-27T06:36:29Z</time>
      </trkpt>
      <trkpt lat="41.9718660" lon="2.7108650">
        <ele>176.8</ele>
        <time>2022-05-27T06:36:30Z</time>
      </trkpt>
      <trkpt lat="41.9719070" lon="2.7108810">
        <ele>176.0</ele>
        <time>2022-05-27T06:36:31Z</time>
      </trkpt>
      <trkpt lat="41.9719360" lon="2.7108910">
        <ele>175.4</ele>
        <time>2022-05-27T06:36:32Z</time>
      </trkpt>
      <trkpt lat="41.9719540" lon="2.7108960">
        <ele>174.8</ele>
        <time>2022-05-27T06:36:33Z</time>
      </trkpt>
      <trkpt lat="41.9719610" lon="2.7108990">
        <ele>174.4</ele>
        <time>2022-05-27T06:36:34Z</time>
      </trkpt>
      <trkpt lat="41.9719610" lon="2.7108990">
        <ele>173.8</ele>
        <time>2022-05-27T06:36:35Z</time>
      </trkpt>
      <trkpt lat="41.9719610" lon="2.7108970">
        <ele>173.4</ele>
        <time>2022-05-27T06:36:36Z</time>
      </trkpt>
      <trkpt lat="41.9719650" lon="2.7108840">
        <ele>173.0</ele>
        <time>2022-05-27T06:36:37Z</time>
      </trkpt>
      <trkpt lat="41.9719690" lon="2.7108730">
        <ele>173.0</ele>
        <time>2022-05-27T06:36:38Z</time>
      </trkpt>
      <trkpt lat="41.9719700" lon="2.7108680">
        <ele>173.0</ele>
        <time>2022-05-27T06:36:39Z</time>
      </trkpt>
      <trkpt lat="41.9719700" lon="2.7108680">
        <ele>173.0</ele>
        <time>2022-05-27T06:36:40Z</time>
      </trkpt>
      <trkpt lat="41.9719730" lon="2.7108670">
        <ele>173.0</ele>
        <time>2022-05-27T06:36:41Z</time>
      </trkpt>
      <trkpt lat="41.9719770" lon="2.7108550">
        <ele>173.0</ele>
        <time>2022-05-27T06:36:42Z</time>
      </trkpt>
      <trkpt lat="41.9719790" lon="2.7108410">
        <ele>173.0</ele>
        <time>2022-05-27T06:36:43Z</time>
      </trkpt>
      <trkpt lat="41.9719770" lon="2.7107900">
        <ele>173.0</ele>
        <time>2022-05-27T06:36:44Z</time>
      </trkpt>
      <trkpt lat="41.9719700" lon="2.7107280">
        <ele>173.0</ele>
        <time>2022-05-27T06:36:45Z</time>
      </trkpt>
      <trkpt lat="41.9719640" lon="2.7106840">
        <ele>173.0</ele>
        <time>2022-05-27T06:36:46Z</time>
      </trkpt>
      <trkpt lat="41.9719640" lon="2.7106410">
        <ele>172.8</ele>
        <time>2022-05-27T06:36:47Z</time>
      </trkpt>
      <trkpt lat="41.9719710" lon="2.7106180">
        <ele>172.6</ele>
        <time>2022-05-27T06:36:48Z</time>
      </trkpt>
      <trkpt lat="41.9719850" lon="2.7106030">
        <ele>172.2</ele>
        <time>2022-05-27T06:36:49Z</time>
      </trkpt>
      <trkpt lat="41.9720040" lon="2.7105990">
        <ele>171.8</ele>
        <time>2022-05-27T06:36:50Z</time>
      </trkpt>
      <trkpt lat="41.9720230" lon="2.7106050">
        <ele>171.2</ele>
        <time>2022-05-27T06:36:51Z</time>
      </trkpt>
      <trkpt lat="41.9720480" lon="2.7106240">
        <ele>170.6</ele>
        <time>2022-05-27T06:36:52Z</time>
      </trkpt>
      <trkpt lat="41.9720730" lon="2.7106550">
        <ele>170.0</ele>
        <time>2022-05-27T06:36:53Z</time>
      </trkpt>
      <trkpt lat="41.9720980" lon="2.7106970">
        <ele>169.4</ele>
        <time>2022-05-27T06:36:54Z</time>
      </trkpt>
      <trkpt lat="41.9721190" lon="2.7107360">
        <ele>168.8</ele>
        <time>2022-05-27T06:36:55Z</time>
      </trkpt>
      <trkpt lat="41.9721380" lon="2.7107770">
        <ele>168.2</ele>
        <time>2022-05-27T06:36:56Z</time>
      </trkpt>
      <trkpt lat="41.9721550" lon="2.7108100">
        <ele>167.8</ele>
        <time>2022-05-27T06:36:57Z</time>
      </trkpt>
      <trkpt lat="41.9721550" lon="2.7108100">
        <ele>167.2</ele>
        <time>2022-05-27T06:36:58Z</time>
      </trkpt>
      <trkpt lat="41.9721670" lon="2.7108790">
        <ele>166.8</ele>
        <time>2022-05-27T06:36:59Z</time>
      </trkpt>
      <trkpt lat="41.9721730" lon="2.7109100">
        <ele>166.4</ele>
        <time>2022-05-27T06:37:00Z</time>
      </trkpt>
      <trkpt lat="41.9721780" lon="2.7109420">
        <ele>166.0</ele>
        <time>2022-05-27T06:37:01Z</time>
      </trkpt>
      <trkpt lat="41.9721780" lon="2.7109800">
        <ele>165.8</ele>
        <time>2022-05-27T06:37:02Z</time>
      </trkpt>
      <trkpt lat="41.9721780" lon="2.7110210">
        <ele>165.6</ele>
        <time>2022-05-27T06:37:03Z</time>
      </trkpt>
      <trkpt lat="41.9721730" lon="2.7110650">
        <ele>165.2</ele>
        <time>2022-05-27T06:37:04Z</time>
      </trkpt>
      <trkpt lat="41.9721740" lon="2.7111120">
        <ele>165.0</ele>
        <time>2022-05-27T06:37:05Z</time>
      </trkpt>
      <trkpt lat="41.9721860" lon="2.7111640">
        <ele>164.6</ele>
        <time>2022-05-27T06:37:06Z</time>
      </trkpt>
      <trkpt lat="41.9722080" lon="2.7112190">
        <ele>164.2</ele>
        <time>2022-05-27T06:37:07Z</time>
      </trkpt>
      <trkpt lat="41.9722390" lon="2.7112610">
        <ele>163.8</ele>
        <time>2022-05-27T06:37:08Z</time>
      </trkpt>
      <trkpt lat="41.9722650" lon="2.7112770">
        <ele>163.4</ele>
        <time>2022-05-27T06:37:09Z</time>
      </trkpt>
      <trkpt lat="41.9722890" lon="2.7112800">
        <ele>163.0</ele>
        <time>2022-05-27T06:37:10Z</time>
      </trkpt>
      <trkpt lat="41.9723170" lon="2.7112840">
        <ele>162.4</ele>
        <time>2022-05-27T06:37:11Z</time>
      </trkpt>
      <trkpt lat="41.9723390" lon="2.7112770">
        <ele>161.8</ele>
        <time>2022-05-27T06:37:12Z</time>
      </trkpt>
      <trkpt lat="41.9723510" lon="2.7112580">
        <ele>161.4</ele>
        <time>2022-05-27T06:37:13Z</time>
      </trkpt>
      <trkpt lat="41.9723520" lon="2.7112220">
        <ele>161.0</ele>
        <time>2022-05-27T06:37:14Z</time>
      </trkpt>
      <trkpt lat="41.9723490" lon="2.7111740">
        <ele>160.6</ele>
        <time>2022-05-27T06:37:15Z</time>
      </trkpt>
      <trkpt lat="41.9723380" lon="2.7111270">
        <ele>160.4</ele>
        <time>2022-05-27T06:37:16Z</time>
      </trkpt>
      <trkpt lat="41.9723320" lon="2.7110750">
        <ele>160.0</ele>
        <time>2022-05-27T06:37:17Z</time>
      </trkpt>
      <trkpt lat="41.9723320" lon="2.7110240">
        <ele>159.6</ele>
        <time>2022-05-27T06:37:18Z</time>
      </trkpt>
      <trkpt lat="41.9723430" lon="2.7109740">
        <ele>159.2</ele>
        <time>2022-05-27T06:37:19Z</time>
      </trkpt>
      <trkpt lat="41.9723650" lon="2.7109340">
        <ele>159.2</ele>
        <time>2022-05-27T06:37:20Z</time>
      </trkpt>
      <trkpt lat="41.9723910" lon="2.7108930">
        <ele>159.0</ele>
        <time>2022-05-27T06:37:21Z</time>
      </trkpt>
      <trkpt lat="41.9724000" lon="2.7108310">
        <ele>158.8</ele>
        <time>2022-05-27T06:37:22Z</time>
      </trkpt>
      <trkpt lat="41.9724100" lon="2.7107510">
        <ele>158.6</ele>
        <time>2022-05-27T06:37:23Z</time>
      </trkpt>
      <trkpt lat="41.9724190" lon="2.7106680">
        <ele>158.6</ele>
        <time>2022-05-27T06:37:24Z</time>
      </trkpt>
      <trkpt lat="41.9724370" lon="2.7106030">
        <ele>158.6</ele>
        <time>2022-05-27T06:37:25Z</time>
      </trkpt>
      <trkpt lat="41.9724640" lon="2.7105690">
        <ele>158.8</ele>
        <time>2022-05-27T06:37:26Z</time>
      </trkpt>
      <trkpt lat="41.9724980" lon="2.7105530">
        <ele>159.2</ele>
        <time>2022-05-27T06:37:27Z</time>
      </trkpt>
      <trkpt lat="41.9725360" lon="2.7105380">
        <ele>159.6</ele>
        <time>2022-05-27T06:37:28Z</time>
      </trkpt>
      <trkpt lat="41.9725840" lon="2.7105200">
        <ele>160.0</ele>
        <time>2022-05-27T06:37:29Z</time>
      </trkpt>
      <trkpt lat="41.9726470" lon="2.7104950">
        <ele>160.4</ele>
        <time>2022-05-27T06:37:30Z</time>
      </trkpt>
      <trkpt lat="41.9727060" lon="2.7104640">
        <ele>161.0</ele>
        <time>2022-05-27T06:37:31Z</time>
      </trkpt>
      <trkpt lat="41.9727630" lon="2.7104350">
        <ele>161.4</ele>
        <time>2022-05-27T06:37:32Z</time>
      </trkpt>
      <trkpt lat="41.9728230" lon="2.7104190">
        <ele>162.0</ele>
        <time>2022-05-27T06:37:33Z</time>
      </trkpt>
      <trkpt lat="41.9728860" lon="2.7104110">
        <ele>162.6</ele>
        <time>2022-05-27T06:37:34Z</time>
      </trkpt>
      <trkpt lat="41.9729490" lon="2.7104210">
        <ele>163.2</ele>
        <time>2022-05-27T06:37:35Z</time>
      </trkpt>
      <trkpt lat="41.9730150" lon="2.7104400">
        <ele>164.0</ele>
        <time>2022-05-27T06:37:36Z</time>
      </trkpt>
      <trkpt lat="41.9730830" lon="2.7104620">
        <ele>164.8</ele>
        <time>2022-05-27T06:37:37Z</time>
      </trkpt>
      <trkpt lat="41.9731500" lon="2.7104970">
        <ele>165.4</ele>
        <time>2022-05-27T06:37:38Z</time>
      </trkpt>
      <trkpt lat="41.9732160" lon="2.7105440">
        <ele>166.4</ele>
        <time>2022-05-27T06:37:39Z</time>
      </trkpt>
      <trkpt lat="41.9732760" lon="2.7106010">
        <ele>167.2</ele>
        <time>2022-05-27T06:37:40Z</time>
      </trkpt>
      <trkpt lat="41.9733290" lon="2.7106600">
        <ele>168.0</ele>
        <time>2022-05-27T06:37:41Z</time>
      </trkpt>
      <trkpt lat="41.9733890" lon="2.7107280">
        <ele>168.8</ele>
        <time>2022-05-27T06:37:42Z</time>
      </trkpt>
      <trkpt lat="41.9734600" lon="2.7108000">
        <ele>169.6</ele>
        <time>2022-05-27T06:37:43Z</time>
      </trkpt>
      <trkpt lat="41.9735240" lon="2.7108580">
        <ele>170.4</ele>
        <time>2022-05-27T06:37:44Z</time>
      </trkpt>
      <trkpt lat="41.9735880" lon="2.7109120">
        <ele>171.2</ele>
        <time>2022-05-27T06:37:45Z</time>
      </trkpt>
      <trkpt lat="41.9736460" lon="2.7109430">
        <ele>171.8</ele>
        <time>2022-05-27T06:37:46Z</time>
      </trkpt>
      <trkpt lat="41.9736920" lon="2.7109450">
        <ele>172.4</ele>
        <time>2022-05-27T06:37:47Z</time>
      </trkpt>
      <trkpt lat="41.9737220" lon="2.7109340">
        <ele>172.8</ele>
        <time>2022-05-27T06:37:48Z</time>
      </trkpt>
      <trkpt lat="41.9737360" lon="2.7109230">
        <ele>173.2</ele>
        <time>2022-05-27T06:37:49Z</time>
      </trkpt>
      <trkpt lat="41.9737400" lon="2.7109060">
        <ele>173.6</ele>
        <time>2022-05-27T06:37:50Z</time>
      </trkpt>
      <trkpt lat="41.9737410" lon="2.7108900">
        <ele>174.0</ele>
        <time>2022-05-27T06:37:51Z</time>
      </trkpt>
      <trkpt lat="41.9737430" lon="2.7108740">
        <ele>174.4</ele>
        <time>2022-05-27T06:37:52Z</time>
      </trkpt>
      <trkpt lat="41.9737440" lon="2.7108590">
        <ele>174.6</ele>
        <time>2022-05-27T06:37:53Z</time>
      </trkpt>
      <trkpt lat="41.9737450" lon="2.7108430">
        <ele>174.8</ele>
        <time>2022-05-27T06:37:54Z</time>
      </trkpt>
      <trkpt lat="41.9737470" lon="2.7108270">
        <ele>174.8</ele>
        <time>2022-05-27T06:37:55Z</time>
      </trkpt>
      <trkpt lat="41.9737480" lon="2.7108110">
        <ele>174.8</ele>
        <time>2022-05-27T06:37:56Z</time>
      </trkpt>
      <trkpt lat="41.9737490" lon="2.7107960">
        <ele>174.8</ele>
        <time>2022-05-27T06:37:57Z</time>
      </trkpt>
      <trkpt lat="41.9737510" lon="2.7107800">
        <ele>174.8</ele>
        <time>2022-05-27T06:37:58Z</time>
      </trkpt>
      <trkpt lat="41.9737520" lon="2.7107640">
        <ele>174.8</ele>
        <time>2022-05-27T06:37:59Z</time>
      </trkpt>
      <trkpt lat="41.9737530" lon="2.7107490">
        <ele>174.8</ele>
        <time>2022-05-27T06:38:00Z</time>
      </trkpt>
      <trkpt lat="41.9737540" lon="2.7107330">
        <ele>174.8</ele>
        <time>2022-05-27T06:38:01Z</time>
      </trkpt>
      <trkpt lat="41.9737560" lon="2.7107170">
        <ele>176.0</ele>
        <time>2022-05-27T06:38:26Z</time>
      </trkpt>
      <trkpt lat="41.9737570" lon="2.7107010">
        <ele>176.2</ele>
        <time>2022-05-27T06:38:27Z</time>
      </trkpt>
      <trkpt lat="41.9737480" lon="2.7106450">
        <ele>176.6</ele>
        <time>2022-05-27T06:38:28Z</time>
      </trkpt>
      <trkpt lat="41.9737380" lon="2.7105900">
        <ele>176.8</ele>
        <time>2022-05-27T06:38:29Z</time>
      </trkpt>
      <trkpt lat="41.9737340" lon="2.7105700">
        <ele>177.0</ele>
        <time>2022-05-27T06:38:30Z</time>
      </trkpt>
      <trkpt lat="41.9737310" lon="2.7105570">
        <ele>177.4</ele>
        <time>2022-05-27T06:38:31Z</time>
      </trkpt>
      <trkpt lat="41.9737270" lon="2.7105440">
        <ele>177.6</ele>
        <time>2022-05-27T06:38:32Z</time>
      </trkpt>
      <trkpt lat="41.9737160" lon="2.7105140">
        <ele>178.0</ele>
        <time>2022-05-27T06:38:33Z</time>
      </trkpt>
      <trkpt lat="41.9736980" lon="2.7104610">
        <ele>178.4</ele>
        <time>2022-05-27T06:38:34Z</time>
      </trkpt>
      <trkpt lat="41.9736740" lon="2.7103880">
        <ele>178.8</ele>
        <time>2022-05-27T06:38:35Z</time>
      </trkpt>
      <trkpt lat="41.9736480" lon="2.7103090">
        <ele>179.4</ele>
        <time>2022-05-27T06:38:36Z</time>
      </trkpt>
      <trkpt lat="41.9736170" lon="2.7102240">
        <ele>180.0</ele>
        <time>2022-05-27T06:38:37Z</time>
      </trkpt>
      <trkpt lat="41.9735660" lon="2.7101450">
        <ele>180.8</ele>
        <time>2022-05-27T06:38:38Z</time>
      </trkpt>
      <trkpt lat="41.9734960" lon="2.7100780">
        <ele>181.2</ele>
        <time>2022-05-27T06:38:39Z</time>
      </trkpt>
      <trkpt lat="41.9734210" lon="2.7100260">
        <ele>181.8</ele>
        <time>2022-05-27T06:38:40Z</time>
      </trkpt>
      <trkpt lat="41.9733470" lon="2.7099810">
        <ele>182.6</ele>
        <time>2022-05-27T06:38:41Z</time>
      </trkpt>
      <trkpt lat="41.9732760" lon="2.7099370">
        <ele>183.4</ele>
        <time>2022-05-27T06:38:42Z</time>
      </trkpt>
      <trkpt lat="41.9732080" lon="2.7098920">
        <ele>184.2</ele>
        <time>2022-05-27T06:38:43Z</time>
      </trkpt>
      <trkpt lat="41.9731430" lon="2.7098460">
        <ele>185.2</ele>
        <time>2022-05-27T06:38:44Z</time>
      </trkpt>
      <trkpt lat="41.9730660" lon="2.7097940">
        <ele>186.2</ele>
        <time>2022-05-27T06:38:45Z</time>
      </trkpt>
      <trkpt lat="41.9729740" lon="2.7097400">
        <ele>187.2</ele>
        <time>2022-05-27T06:38:46Z</time>
      </trkpt>
      <trkpt lat="41.9728880" lon="2.7096980">
        <ele>188.2</ele>
        <time>2022-05-27T06:38:47Z</time>
      </trkpt>
      <trkpt lat="41.9728130" lon="2.7096620">
        <ele>189.0</ele>
        <time>2022-05-27T06:38:48Z</time>
      </trkpt>
      <trkpt lat="41.9727470" lon="2.7096220">
        <ele>189.6</ele>
        <time>2022-05-27T06:38:49Z</time>
      </trkpt>
      <trkpt lat="41.9726910" lon="2.7095800">
        <ele>190.2</ele>
        <time>2022-05-27T06:38:50Z</time>
      </trkpt>
      <trkpt lat="41.9726480" lon="2.7095410">
        <ele>190.8</ele>
        <time>2022-05-27T06:38:51Z</time>
      </trkpt>
      <trkpt lat="41.9726210" lon="2.7095060">
        <ele>191.4</ele>
        <time>2022-05-27T06:38:52Z</time>
      </trkpt>
      <trkpt lat="41.9726110" lon="2.7094760">
        <ele>192.0</ele>
        <time>2022-05-27T06:38:53Z</time>
      </trkpt>
      <trkpt lat="41.9726140" lon="2.7094590">
        <ele>192.4</ele>
        <time>2022-05-27T06:38:54Z</time>
      </trkpt>
      <trkpt lat="41.9726190" lon="2.7094530">
        <ele>192.8</ele>
        <time>2022-05-27T06:38:55Z</time>
      </trkpt>
      <trkpt lat="41.9726260" lon="2.7094490">
        <ele>193.2</ele>
        <time>2022-05-27T06:38:56Z</time>
      </trkpt>
      <trkpt lat="41.9726370" lon="2.7094400">
        <ele>193.4</ele>
        <time>2022-05-27T06:38:57Z</time>
      </trkpt>
      <trkpt lat="41.9726480" lon="2.7094320">
        <ele>193.6</ele>
        <time>2022-05-27T06:38:58Z</time>
      </trkpt>
      <trkpt lat="41.9726620" lon="2.7094270">
        <ele>193.8</ele>
        <time>2022-05-27T06:38:59Z</time>
      </trkpt>
      <trkpt lat="41.9726670" lon="2.7094240">
        <ele>194.0</ele>
        <time>2022-05-27T06:39:00Z</time>
      </trkpt>
      <trkpt lat="41.9726680" lon="2.7094220">
        <ele>194.2</ele>
        <time>2022-05-27T06:39:01Z</time>
      </trkpt>
      <trkpt lat="41.9726700" lon="2.7094210">
        <ele>194.4</ele>
        <time>2022-05-27T06:39:02Z</time>
      </trkpt>
      <trkpt lat="41.9726730" lon="2.7094210">
        <ele>194.4</ele>
        <time>2022-05-27T06:39:03Z</time>
      </trkpt>
      <trkpt lat="41.9726800" lon="2.7094190">
        <ele>194.4</ele>
        <time>2022-05-27T06:39:04Z</time>
      </trkpt>
      <trkpt lat="41.9726970" lon="2.7094150">
        <ele>194.4</ele>
        <time>2022-05-27T06:39:05Z</time>
      </trkpt>
      <trkpt lat="41.9727220" lon="2.7094090">
        <ele>194.4</ele>
        <time>2022-05-27T06:39:06Z</time>
      </trkpt>
      <trkpt lat="41.9727520" lon="2.7094050">
        <ele>194.4</ele>
        <time>2022-05-27T06:39:07Z</time>
      </trkpt>
      <trkpt lat="41.9727850" lon="2.7094000">
        <ele>194.6</ele>
        <time>2022-05-27T06:39:08Z</time>
      </trkpt>
      <trkpt lat="41.9728170" lon="2.7093940">
        <ele>194.6</ele>
        <time>2022-05-27T06:39:09Z</time>
      </trkpt>
      <trkpt lat="41.9728490" lon="2.7093900">
        <ele>195.0</ele>
        <time>2022-05-27T06:39:10Z</time>
      </trkpt>
      <trkpt lat="41.9728860" lon="2.7093900">
        <ele>195.4</ele>
        <time>2022-05-27T06:39:11Z</time>
      </trkpt>
      <trkpt lat="41.9729330" lon="2.7094010">
        <ele>195.8</ele>
        <time>2022-05-27T06:39:12Z</time>
      </trkpt>
      <trkpt lat="41.9729850" lon="2.7094060">
        <ele>196.0</ele>
        <time>2022-05-27T06:39:13Z</time>
      </trkpt>
      <trkpt lat="41.9730380" lon="2.7094130">
        <ele>196.4</ele>
        <time>2022-05-27T06:39:14Z</time>
      </trkpt>
      <trkpt lat="41.9730870" lon="2.7094170">
        <ele>197.0</ele>
        <time>2022-05-27T06:39:15Z</time>
      </trkpt>
      <trkpt lat="41.9731330" lon="2.7094160">
        <ele>197.4</ele>
        <time>2022-05-27T06:39:16Z</time>
      </trkpt>
      <trkpt lat="41.9731790" lon="2.7094090">
        <ele>197.8</ele>
        <time>2022-05-27T06:39:17Z</time>
      </trkpt>
      <trkpt lat="41.9732250" lon="2.7093970">
        <ele>198.2</ele>
        <time>2022-05-27T06:39:18Z</time>
      </trkpt>
      <trkpt lat="41.9732690" lon="2.7093860">
        <ele>198.8</ele>
        <time>2022-05-27T06:39:19Z</time>
      </trkpt>
      <trkpt lat="41.9733140" lon="2.7093760">
        <ele>199.2</ele>
        <time>2022-05-27T06:39:20Z</time>
      </trkpt>
      <trkpt lat="41.9733590" lon="2.7093680">
        <ele>199.6</ele>
        <time>2022-05-27T06:39:21Z</time>
      </trkpt>
      <trkpt lat="41.9734030" lon="2.7093550">
        <ele>199.8</ele>
        <time>2022-05-27T06:39:22Z</time>
      </trkpt>
      <trkpt lat="41.9734460" lon="2.7093280">
        <ele>200.2</ele>
        <time>2022-05-27T06:39:23Z</time>
      </trkpt>
      <trkpt lat="41.9735000" lon="2.7093030">
        <ele>200.6</ele>
        <time>2022-05-27T06:39:24Z</time>
      </trkpt>
      <trkpt lat="41.9735540" lon="2.7092880">
        <ele>201.0</ele>
        <time>2022-05-27T06:39:25Z</time>
      </trkpt>
      <trkpt lat="41.9735960" lon="2.7092790">
        <ele>201.2</ele>
        <time>2022-05-27T06:39:26Z</time>
      </trkpt>
      <trkpt lat="41.9736430" lon="2.7092620">
        <ele>201.2</ele>
        <time>2022-05-27T06:39:27Z</time>
      </trkpt>
      <trkpt lat="41.9736930" lon="2.7092320">
        <ele>201.2</ele>
        <time>2022-05-27T06:39:28Z</time>
      </trkpt>
      <trkpt lat="41.9737390" lon="2.7092040">
        <ele>201.2</ele>
        <time>2022-05-27T06:39:29Z</time>
      </trkpt>
      <trkpt lat="41.9737780" lon="2.7091950">
        <ele>201.0</ele>
        <time>2022-05-27T06:39:30Z</time>
      </trkpt>
      <trkpt lat="41.9738130" lon="2.7091970">
        <ele>201.0</ele>
        <time>2022-05-27T06:39:31Z</time>
      </trkpt>
      <trkpt lat="41.9738410" lon="2.7092200">
        <ele>201.0</ele>
        <time>2022-05-27T06:39:32Z</time>
      </trkpt>
      <trkpt lat="41.9738620" lon="2.7092410">
        <ele>201.2</ele>
        <time>2022-05-27T06:39:33Z</time>
      </trkpt>
      <trkpt lat="41.9738890" lon="2.7092610">
        <ele>201.2</ele>
        <time>2022-05-27T06:39:34Z</time>
      </trkpt>
      <trkpt lat="41.9739290" lon="2.7092980">
        <ele>201.4</ele>
        <time>2022-05-27T06:39:35Z</time>
      </trkpt>
      <trkpt lat="41.9739820" lon="2.7093420">
        <ele>201.6</ele>
        <time>2022-05-27T06:39:36Z</time>
      </trkpt>
      <trkpt lat="41.9740410" lon="2.7093830">
        <ele>201.6</ele>
        <time>2022-05-27T06:39:37Z</time>
      </trkpt>
      <trkpt lat="41.9740850" lon="2.7093900">
        <ele>201.4</ele>
        <time>2022-05-27T06:39:38Z</time>
      </trkpt>
      <trkpt lat="41.9741200" lon="2.7093910">
        <ele>201.2</ele>
        <time>2022-05-27T06:39:39Z</time>
      </trkpt>
      <trkpt lat="41.9741530" lon="2.7093930">
        <ele>201.0</ele>
        <time>2022-05-27T06:39:40Z</time>
      </trkpt>
      <trkpt lat="41.9741830" lon="2.7093990">
        <ele>200.6</ele>
        <time>2022-05-27T06:39:41Z</time>
      </trkpt>
      <trkpt lat="41.9742160" lon="2.7094110">
        <ele>200.4</ele>
        <time>2022-05-27T06:39:42Z</time>
      </trkpt>
      <trkpt lat="41.9742470" lon="2.7094240">
        <ele>200.0</ele>
        <time>2022-05-27T06:39:43Z</time>
      </trkpt>
      <trkpt lat="41.9742700" lon="2.7094350">
        <ele>199.6</ele>
        <time>2022-05-27T06:39:44Z</time>
      </trkpt>
      <trkpt lat="41.9742840" lon="2.7094390">
        <ele>199.2</ele>
        <time>2022-05-27T06:39:45Z</time>
      </trkpt>
      <trkpt lat="41.9742930" lon="2.7094410">
        <ele>199.0</ele>
        <time>2022-05-27T06:39:46Z</time>
      </trkpt>
      <trkpt lat="41.9742970" lon="2.7094420">
        <ele>198.6</ele>
        <time>2022-05-27T06:39:47Z</time>
      </trkpt>
      <trkpt lat="41.9742980" lon="2.7094440">
        <ele>198.4</ele>
        <time>2022-05-27T06:39:48Z</time>
      </trkpt>
      <trkpt lat="41.9742990" lon="2.7094450">
        <ele>198.2</ele>
        <time>2022-05-27T06:39:49Z</time>
      </trkpt>
      <trkpt lat="41.9742980" lon="2.7094450">
        <ele>198.2</ele>
        <time>2022-05-27T06:39:50Z</time>
      </trkpt>
      <trkpt lat="41.9742980" lon="2.7094450">
        <ele>198.2</ele>
        <time>2022-05-27T06:39:51Z</time>
      </trkpt>
      <trkpt lat="41.9742980" lon="2.7094450">
        <ele>198.2</ele>
        <time>2022-05-27T06:39:52Z</time>
      </trkpt>
      <trkpt lat="41.9743680" lon="2.7095080">
        <ele>197.2</ele>
        <time>2022-05-27T06:40:36Z</time>
      </trkpt>
      <trkpt lat="41.9743750" lon="2.7094980">
        <ele>197.4</ele>
        <time>2022-05-27T06:40:37Z</time>
      </trkpt>
      <trkpt lat="41.9743810" lon="2.7094860">
        <ele>197.4</ele>
        <time>2022-05-27T06:40:38Z</time>
      </trkpt>
      <trkpt lat="41.9743860" lon="2.7094740">
        <ele>197.6</ele>
        <time>2022-05-27T06:40:39Z</time>
      </trkpt>
      <trkpt lat="41.9743880" lon="2.7094640">
        <ele>197.6</ele>
        <time>2022-05-27T06:40:40Z</time>
      </trkpt>
      <trkpt lat="41.9743890" lon="2.7094560">
        <ele>197.6</ele>
        <time>2022-05-27T06:40:41Z</time>
      </trkpt>
      <trkpt lat="41.9743840" lon="2.7094500">
        <ele>197.8</ele>
        <time>2022-05-27T06:40:42Z</time>
      </trkpt>
      <trkpt lat="41.9743780" lon="2.7094480">
        <ele>197.8</ele>
        <time>2022-05-27T06:40:43Z</time>
      </trkpt>
      <trkpt lat="41.9743720" lon="2.7094460">
        <ele>198.0</ele>
        <time>2022-05-27T06:40:44Z</time>
      </trkpt>
      <trkpt lat="41.9743620" lon="2.7094430">
        <ele>198.0</ele>
        <time>2022-05-27T06:40:45Z</time>
      </trkpt>
      <trkpt lat="41.9743550" lon="2.7094360">
        <ele>198.2</ele>
        <time>2022-05-27T06:40:46Z</time>
      </trkpt>
      <trkpt lat="41.9743490" lon="2.7094280">
        <ele>198.4</ele>
        <time>2022-05-27T06:40:47Z</time>
      </trkpt>
      <trkpt lat="41.9743450" lon="2.7094170">
        <ele>198.6</ele>
        <time>2022-05-27T06:40:48Z</time>
      </trkpt>
      <trkpt lat="41.9743400" lon="2.7094070">
        <ele>198.8</ele>
        <time>2022-05-27T06:40:49Z</time>
      </trkpt>
      <trkpt lat="41.9743340" lon="2.7093990">
        <ele>199.0</ele>
        <time>2022-05-27T06:40:50Z</time>
      </trkpt>
      <trkpt lat="41.9743310" lon="2.7093960">
        <ele>199.0</ele>
        <time>2022-05-27T06:40:51Z</time>
      </trkpt>
      <trkpt lat="41.9743260" lon="2.7093940">
        <ele>199.0</ele>
        <time>2022-05-27T06:40:52Z</time>
      </trkpt>
      <trkpt lat="41.9743160" lon="2.7093880">
        <ele>199.0</ele>
        <time>2022-05-27T06:40:53Z</time>
      </trkpt>
      <trkpt lat="41.9743090" lon="2.7093820">
        <ele>199.2</ele>
        <time>2022-05-27T06:40:54Z</time>
      </trkpt>
      <trkpt lat="41.9743070" lon="2.7093800">
        <ele>199.2</ele>
        <time>2022-05-27T06:40:55Z</time>
      </trkpt>
      <trkpt lat="41.9743120" lon="2.7093810">
        <ele>199.4</ele>
        <time>2022-05-27T06:40:56Z</time>
      </trkpt>
      <trkpt lat="41.9743180" lon="2.7093820">
        <ele>199.4</ele>
        <time>2022-05-27T06:40:57Z</time>
      </trkpt>
      <trkpt lat="41.9743210" lon="2.7093820">
        <ele>199.4</ele>
        <time>2022-05-27T06:40:58Z</time>
      </trkpt>
      <trkpt lat="41.9743190" lon="2.7093820">
        <ele>199.4</ele>
        <time>2022-05-27T06:40:59Z</time>
      </trkpt>
      <trkpt lat="41.9743180" lon="2.7093800">
        <ele>199.4</ele>
        <time>2022-05-27T06:41:00Z</time>
      </trkpt>
      <trkpt lat="41.9743190" lon="2.7093780">
        <ele>199.4</ele>
        <time>2022-05-27T06:41:01Z</time>
      </trkpt>
      <trkpt lat="41.9743210" lon="2.7093770">
        <ele>199.4</ele>
        <time>2022-05-27T06:41:02Z</time>
      </trkpt>
      <trkpt lat="41.9743240" lon="2.7093760">
        <ele>199.4</ele>
        <time>2022-05-27T06:41:03Z</time>
      </trkpt>
      <trkpt lat="41.9743270" lon="2.7093760">
        <ele>199.4</ele>
        <time>2022-05-27T06:41:04Z</time>
      </trkpt>
      <trkpt lat="41.9743920" lon="2.7094440">
        <ele>198.8</ele>
        <time>2022-05-27T06:41:26Z</time>
      </trkpt>
      <trkpt lat="41.9743930" lon="2.7094450">
        <ele>198.8</ele>
        <time>2022-05-27T06:41:27Z</time>
      </trkpt>
      <trkpt lat="41.9743950" lon="2.7094470">
        <ele>198.8</ele>
        <time>2022-05-27T06:41:28Z</time>
      </trkpt>
      <trkpt lat="41.9743950" lon="2.7094470">
        <ele>198.8</ele>
        <time>2022-05-27T06:41:29Z</time>
      </trkpt>
      <trkpt lat="41.9743950" lon="2.7094470">
        <ele>198.8</ele>
        <time>2022-05-27T06:41:30Z</time>
      </trkpt>
      <trkpt lat="41.9743950" lon="2.7094470">
        <ele>198.8</ele>
        <time>2022-05-27T06:41:31Z</time>
      </trkpt>
      <trkpt lat="41.9743950" lon="2.7094470">
        <ele>198.8</ele>
        <time>2022-05-27T06:41:32Z</time>
      </trkpt>
      <trkpt lat="41.9743930" lon="2.7094450">
        <ele>198.8</ele>
        <time>2022-05-27T06:41:33Z</time>
      </trkpt>
      <trkpt lat="41.9743930" lon="2.7094420">
        <ele>198.8</ele>
        <time>2022-05-27T06:41:34Z</time>
      </trkpt>
      <trkpt lat="41.9744040" lon="2.7093450">
        <ele>196.8</ele>
        <time>2022-05-27T06:42:19Z</time>
      </trkpt>
      <trkpt lat="41.9744270" lon="2.7093220">
        <ele>196.2</ele>
        <time>2022-05-27T06:42:20Z</time>
      </trkpt>
      <trkpt lat="41.9744390" lon="2.7092930">
        <ele>195.6</ele>
        <time>2022-05-27T06:42:21Z</time>
      </trkpt>
      <trkpt lat="41.9744450" lon="2.7092570">
        <ele>195.0</ele>
        <time>2022-05-27T06:42:22Z</time>
      </trkpt>
      <trkpt lat="41.9744540" lon="2.7092280">
        <ele>194.2</ele>
        <time>2022-05-27T06:42:23Z</time>
      </trkpt>
      <trkpt lat="41.9744670" lon="2.7092060">
        <ele>193.6</ele>
        <time>2022-05-27T06:42:24Z</time>
      </trkpt>
      <trkpt lat="41.9744870" lon="2.7091890">
        <ele>193.0</ele>
        <time>2022-05-27T06:42:25Z</time>
      </trkpt>
      <trkpt lat="41.9745130" lon="2.7091710">
        <ele>192.2</ele>
        <time>2022-05-27T06:42:26Z</time>
      </trkpt>
      <trkpt lat="41.9745370" lon="2.7091480">
        <ele>191.4</ele>
        <time>2022-05-27T06:42:27Z</time>
      </trkpt>
      <trkpt lat="41.9745370" lon="2.7091480">
        <ele>190.8</ele>
        <time>2022-05-27T06:42:28Z</time>
      </trkpt>
      <trkpt lat="41.9745530" lon="2.7090910">
        <ele>190.2</ele>
        <time>2022-05-27T06:42:29Z</time>
      </trkpt>
      <trkpt lat="41.9745440" lon="2.7090710">
        <ele>189.6</ele>
        <time>2022-05-27T06:42:30Z</time>
      </trkpt>
      <trkpt lat="41.9745400" lon="2.7090640">
        <ele>189.0</ele>
        <time>2022-05-27T06:42:31Z</time>
      </trkpt>
      <trkpt lat="41.9745160" lon="2.7090590">
        <ele>188.6</ele>
        <time>2022-05-27T06:42:32Z</time>
      </trkpt>
      <trkpt lat="41.9744920" lon="2.7090540">
        <ele>188.2</ele>
        <time>2022-05-27T06:42:33Z</time>
      </trkpt>
      <trkpt lat="41.9744680" lon="2.7090490">
        <ele>188.0</ele>
        <time>2022-05-27T06:42:34Z</time>
      </trkpt>
      <trkpt lat="41.9744440" lon="2.7090440">
        <ele>188.0</ele>
        <time>2022-05-27T06:42:35Z</time>
      </trkpt>
      <trkpt lat="41.9744210" lon="2.7090390">
        <ele>188.0</ele>
        <time>2022-05-27T06:42:36Z</time>
      </trkpt>
      <trkpt lat="41.9743970" lon="2.7090340">
        <ele>188.0</ele>
        <time>2022-05-27T06:42:37Z</time>
      </trkpt>
      <trkpt lat="41.9743730" lon="2.7090300">
        <ele>188.0</ele>
        <time>2022-05-27T06:42:38Z</time>
      </trkpt>
      <trkpt lat="41.9743490" lon="2.7090250">
        <ele>188.0</ele>
        <time>2022-05-27T06:42:39Z</time>
      </trkpt>
      <trkpt lat="41.9743250" lon="2.7090200">
        <ele>188.0</ele>
        <time>2022-05-27T06:42:40Z</time>
      </trkpt>
      <trkpt lat="41.9743010" lon="2.7090150">
        <ele>188.0</ele>
        <time>2022-05-27T06:42:41Z</time>
      </trkpt>
      <trkpt lat="41.9742770" lon="2.7090100">
        <ele>187.8</ele>
        <time>2022-05-27T06:43:35Z</time>
      </trkpt>
      <trkpt lat="41.9742530" lon="2.7090050">
        <ele>187.8</ele>
        <time>2022-05-27T06:43:36Z</time>
      </trkpt>
      <trkpt lat="41.9742210" lon="2.7089950">
        <ele>187.8</ele>
        <time>2022-05-27T06:43:37Z</time>
      </trkpt>
      <trkpt lat="41.9741940" lon="2.7089870">
        <ele>187.8</ele>
        <time>2022-05-27T06:43:38Z</time>
      </trkpt>
      <trkpt lat="41.9741680" lon="2.7089770">
        <ele>187.8</ele>
        <time>2022-05-27T06:43:39Z</time>
      </trkpt>
      <trkpt lat="41.9741420" lon="2.7089610">
        <ele>187.6</ele>
        <time>2022-05-27T06:43:40Z</time>
      </trkpt>
      <trkpt lat="41.9741140" lon="2.7089380">
        <ele>187.6</ele>
        <time>2022-05-27T06:43:41Z</time>
      </trkpt>
      <trkpt lat="41.9740840" lon="2.7089140">
        <ele>187.4</ele>
        <time>2022-05-27T06:43:42Z</time>
      </trkpt>
      <trkpt lat="41.9740560" lon="2.7088950">
        <ele>187.4</ele>
        <time>2022-05-27T06:43:43Z</time>
      </trkpt>
      <trkpt lat="41.9740300" lon="2.7088800">
        <ele>187.4</ele>
        <time>2022-05-27T06:43:44Z</time>
      </trkpt>
      <trkpt lat="41.9740010" lon="2.7088710">
        <ele>187.6</ele>
        <time>2022-05-27T06:43:45Z</time>
      </trkpt>
      <trkpt lat="41.9739630" lon="2.7088690">
        <ele>187.8</ele>
        <time>2022-05-27T06:43:46Z</time>
      </trkpt>
      <trkpt lat="41.9739240" lon="2.7088760">
        <ele>188.0</ele>
        <time>2022-05-27T06:43:47Z</time>
      </trkpt>
      <trkpt lat="41.9738940" lon="2.7088880">
        <ele>188.2</ele>
        <time>2022-05-27T06:43:48Z</time>
      </trkpt>
      <trkpt lat="41.9738700" lon="2.7088910">
        <ele>188.4</ele>
        <time>2022-05-27T06:43:49Z</time>
      </trkpt>
      <trkpt lat="41.9738480" lon="2.7088880">
        <ele>188.4</ele>
        <time>2022-05-27T06:43:50Z</time>
      </trkpt>
      <trkpt lat="41.9738260" lon="2.7088810">
        <ele>188.6</ele>
        <time>2022-05-27T06:43:51Z</time>
      </trkpt>
      <trkpt lat="41.9737940" lon="2.7088720">
        <ele>188.8</ele>
        <time>2022-05-27T06:43:52Z</time>
      </trkpt>
      <trkpt lat="41.9737530" lon="2.7088670">
        <ele>188.8</ele>
        <time>2022-05-27T06:43:53Z</time>
      </trkpt>
      <trkpt lat="41.9737120" lon="2.7088610">
        <ele>188.8</ele>
        <time>2022-05-27T06:43:54Z</time>
      </trkpt>
      <trkpt lat="41.9736740" lon="2.7088560">
        <ele>188.8</ele>
        <time>2022-05-27T06:43:55Z</time>
      </trkpt>
      <trkpt lat="41.9736370" lon="2.7088530">
        <ele>188.6</ele>
        <time>2022-05-27T06:43:56Z</time>
      </trkpt>
      <trkpt lat="41.9735970" lon="2.7088520">
        <ele>188.6</ele>
        <time>2022-05-27T06:43:57Z</time>
      </trkpt>
      <trkpt lat="41.9735550" lon="2.7088450">
        <ele>188.4</ele>
        <time>2022-05-27T06:43:58Z</time>
      </trkpt>
      <trkpt lat="41.9735070" lon="2.7088320">
        <ele>188.2</ele>
        <time>2022-05-27T06:43:59Z</time>
      </trkpt>
      <trkpt lat="41.9734580" lon="2.7088150">
        <ele>188.0</ele>
        <time>2022-05-27T06:44:00Z</time>
      </trkpt>
      <trkpt lat="41.9734070" lon="2.7087950">
        <ele>187.6</ele>
        <time>2022-05-27T06:44:01Z</time>
      </trkpt>
      <trkpt lat="41.9733530" lon="2.7087790">
        <ele>187.4</ele>
        <time>2022-05-27T06:44:02Z</time>
      </trkpt>
      <trkpt lat="41.9733010" lon="2.7087650">
        <ele>186.8</ele>
        <time>2022-05-27T06:44:03Z</time>
      </trkpt>
      <trkpt lat="41.9732530" lon="2.7087650">
        <ele>186.4</ele>
        <time>2022-05-27T06:44:04Z</time>
      </trkpt>
      <trkpt lat="41.9732040" lon="2.7087740">
        <ele>186.0</ele>
        <time>2022-05-27T06:44:05Z</time>
      </trkpt>
      <trkpt lat="41.9731550" lon="2.7087940">
        <ele>185.6</ele>
        <time>2022-05-27T06:44:06Z</time>
      </trkpt>
      <trkpt lat="41.9731090" lon="2.7088190">
        <ele>185.4</ele>
        <time>2022-05-27T06:44:07Z</time>
      </trkpt>
      <trkpt lat="41.9730740" lon="2.7088440">
        <ele>185.0</ele>
        <time>2022-05-27T06:44:08Z</time>
      </trkpt>
      <trkpt lat="41.9730520" lon="2.7088560">
        <ele>184.8</ele>
        <time>2022-05-27T06:44:09Z</time>
      </trkpt>
      <trkpt lat="41.9730310" lon="2.7088540">
        <ele>184.8</ele>
        <time>2022-05-27T06:44:10Z</time>
      </trkpt>
      <trkpt lat="41.9729980" lon="2.7088460">
        <ele>184.8</ele>
        <time>2022-05-27T06:44:11Z</time>
      </trkpt>
      <trkpt lat="41.9729580" lon="2.7088410">
        <ele>185.0</ele>
        <time>2022-05-27T06:44:12Z</time>
      </trkpt>
      <trkpt lat="41.9729160" lon="2.7088490">
        <ele>185.2</ele>
        <time>2022-05-27T06:44:13Z</time>
      </trkpt>
      <trkpt lat="41.9728720" lon="2.7088670">
        <ele>185.6</ele>
        <time>2022-05-27T06:44:14Z</time>
      </trkpt>
      <trkpt lat="41.9728220" lon="2.7088890">
        <ele>185.8</ele>
        <time>2022-05-27T06:44:15Z</time>
      </trkpt>
      <trkpt lat="41.9728220" lon="2.7088890">
        <ele>186.0</ele>
        <time>2022-05-27T06:44:16Z</time>
      </trkpt>
      <trkpt lat="41.9726960" lon="2.7089260">
        <ele>186.4</ele>
        <time>2022-05-27T06:44:17Z</time>
      </trkpt>
      <trkpt lat="41.9726320" lon="2.7089290">
        <ele>186.8</ele>
        <time>2022-05-27T06:44:18Z</time>
      </trkpt>
      <trkpt lat="41.9725680" lon="2.7089270">
        <ele>187.2</ele>
        <time>2022-05-27T06:44:19Z</time>
      </trkpt>
      <trkpt lat="41.9725040" lon="2.7089110">
        <ele>187.4</ele>
        <time>2022-05-27T06:44:20Z</time>
      </trkpt>
      <trkpt lat="41.9724340" lon="2.7088700">
        <ele>187.8</ele>
        <time>2022-05-27T06:44:21Z</time>
      </trkpt>
      <trkpt lat="41.9723640" lon="2.7088170">
        <ele>188.0</ele>
        <time>2022-05-27T06:44:22Z</time>
      </trkpt>
      <trkpt lat="41.9723030" lon="2.7087700">
        <ele>188.4</ele>
        <time>2022-05-27T06:44:23Z</time>
      </trkpt>
      <trkpt lat="41.9722520" lon="2.7087170">
        <ele>188.8</ele>
        <time>2022-05-27T06:44:24Z</time>
      </trkpt>
      <trkpt lat="41.9722520" lon="2.7087170">
        <ele>189.0</ele>
        <time>2022-05-27T06:44:25Z</time>
      </trkpt>
      <trkpt lat="41.9721640" lon="2.7085800">
        <ele>189.6</ele>
        <time>2022-05-27T06:44:26Z</time>
      </trkpt>
      <trkpt lat="41.9721300" lon="2.7084960">
        <ele>190.0</ele>
        <time>2022-05-27T06:44:27Z</time>
      </trkpt>
      <trkpt lat="41.9721300" lon="2.7084960">
        <ele>190.4</ele>
        <time>2022-05-27T06:44:28Z</time>
      </trkpt>
      <trkpt lat="41.9720850" lon="2.7083360">
        <ele>190.8</ele>
        <time>2022-05-27T06:44:29Z</time>
      </trkpt>
      <trkpt lat="41.9720570" lon="2.7082780">
        <ele>191.4</ele>
        <time>2022-05-27T06:44:30Z</time>
      </trkpt>
      <trkpt lat="41.9720150" lon="2.7082320">
        <ele>191.8</ele>
        <time>2022-05-27T06:44:31Z</time>
      </trkpt>
      <trkpt lat="41.9719680" lon="2.7081910">
        <ele>192.2</ele>
        <time>2022-05-27T06:44:32Z</time>
      </trkpt>
      <trkpt lat="41.9719340" lon="2.7081540">
        <ele>192.6</ele>
        <time>2022-05-27T06:44:33Z</time>
      </trkpt>
      <trkpt lat="41.9719220" lon="2.7081180">
        <ele>192.8</ele>
        <time>2022-05-27T06:44:34Z</time>
      </trkpt>
      <trkpt lat="41.9719170" lon="2.7080770">
        <ele>193.0</ele>
        <time>2022-05-27T06:44:35Z</time>
      </trkpt>
      <trkpt lat="41.9719230" lon="2.7080300">
        <ele>193.0</ele>
        <time>2022-05-27T06:44:36Z</time>
      </trkpt>
      <trkpt lat="41.9719300" lon="2.7079800">
        <ele>193.0</ele>
        <time>2022-05-27T06:44:37Z</time>
      </trkpt>
      <trkpt lat="41.9719340" lon="2.7079520">
        <ele>193.0</ele>
        <time>2022-05-27T06:44:38Z</time>
      </trkpt>
      <trkpt lat="41.9719470" lon="2.7079450">
        <ele>193.0</ele>
        <time>2022-05-27T06:44:39Z</time>
      </trkpt>
      <trkpt lat="41.9719470" lon="2.7079450">
        <ele>193.0</ele>
        <time>2022-05-27T06:44:40Z</time>
      </trkpt>
      <trkpt lat="41.9720300" lon="2.7079310">
        <ele>192.8</ele>
        <time>2022-05-27T06:44:41Z</time>
      </trkpt>
      <trkpt lat="41.9720890" lon="2.7079340">
        <ele>192.4</ele>
        <time>2022-05-27T06:44:42Z</time>
      </trkpt>
      <trkpt lat="41.9721580" lon="2.7079450">
        <ele>192.0</ele>
        <time>2022-05-27T06:44:43Z</time>
      </trkpt>
      <trkpt lat="41.9722640" lon="2.7079530">
        <ele>191.8</ele>
        <time>2022-05-27T06:44:44Z</time>
      </trkpt>
      <trkpt lat="41.9723800" lon="2.7079670">
        <ele>191.6</ele>
        <time>2022-05-27T06:44:45Z</time>
      </trkpt>
      <trkpt lat="41.9724690" lon="2.7079850">
        <ele>191.4</ele>
        <time>2022-05-27T06:44:46Z</time>
      </trkpt>
      <trkpt lat="41.9725390" lon="2.7080030">
        <ele>191.2</ele>
        <time>2022-05-27T06:44:47Z</time>
      </trkpt>
      <trkpt lat="41.9726090" lon="2.7080100">
        <ele>190.8</ele>
        <time>2022-05-27T06:44:48Z</time>
      </trkpt>
      <trkpt lat="41.9726860" lon="2.7080090">
        <ele>190.6</ele>
        <time>2022-05-27T06:44:49Z</time>
      </trkpt>
      <trkpt lat="41.9727650" lon="2.7079810">
        <ele>190.4</ele>
        <time>2022-05-27T06:44:50Z</time>
      </trkpt>
      <trkpt lat="41.9728490" lon="2.7079120">
        <ele>190.4</ele>
        <time>2022-05-27T06:44:51Z</time>
      </trkpt>
      <trkpt lat="41.9728490" lon="2.7079120">
        <ele>190.4</ele>
        <time>2022-05-27T06:44:52Z</time>
      </trkpt>
      <trkpt lat="41.9729420" lon="2.7077210">
        <ele>190.4</ele>
        <time>2022-05-27T06:44:53Z</time>
      </trkpt>
      <trkpt lat="41.9729740" lon="2.7076230">
        <ele>190.2</ele>
        <time>2022-05-27T06:44:54Z</time>
      </trkpt>
      <trkpt lat="41.9730160" lon="2.7075540">
        <ele>190.0</ele>
        <time>2022-05-27T06:44:55Z</time>
      </trkpt>
      <trkpt lat="41.9730670" lon="2.7075000">
        <ele>189.8</ele>
        <time>2022-05-27T06:44:56Z</time>
      </trkpt>
      <trkpt lat="41.9731180" lon="2.7074540">
        <ele>189.8</ele>
        <time>2022-05-27T06:44:57Z</time>
      </trkpt>
      <trkpt lat="41.9731670" lon="2.7074050">
        <ele>189.6</ele>
        <time>2022-05-27T06:44:58Z</time>
      </trkpt>
      <trkpt lat="41.9732150" lon="2.7073370">
        <ele>189.4</ele>
        <time>2022-05-27T06:44:59Z</time>
      </trkpt>
      <trkpt lat="41.9732620" lon="2.7072490">
        <ele>189.2</ele>
        <time>2022-05-27T06:45:00Z</time>
      </trkpt>
      <trkpt lat="41.9733020" lon="2.7071520">
        <ele>189.0</ele>
        <time>2022-05-27T06:45:01Z</time>
      </trkpt>
      <trkpt lat="41.9733430" lon="2.7070730">
        <ele>188.8</ele>
        <time>2022-05-27T06:45:02Z</time>
      </trkpt>
      <trkpt lat="41.9733900" lon="2.7070260">
        <ele>188.4</ele>
        <time>2022-05-27T06:45:03Z</time>
      </trkpt>
      <trkpt lat="41.9734460" lon="2.7069900">
        <ele>188.2</ele>
        <time>2022-05-27T06:45:04Z</time>
      </trkpt>
      <trkpt lat="41.9735110" lon="2.7069520">
        <ele>187.8</ele>
        <time>2022-05-27T06:45:05Z</time>
      </trkpt>
      <trkpt lat="41.9735830" lon="2.7069190">
        <ele>187.6</ele>
        <time>2022-05-27T06:45:06Z</time>
      </trkpt>
      <trkpt lat="41.9736500" lon="2.7068910">
        <ele>187.4</ele>
        <time>2022-05-27T06:45:07Z</time>
      </trkpt>
      <trkpt lat="41.9737050" lon="2.7068680">
        <ele>187.4</ele>
        <time>2022-05-27T06:45:08Z</time>
      </trkpt>
      <trkpt lat="41.9737370" lon="2.7068550">
        <ele>187.2</ele>
        <time>2022-05-27T06:45:09Z</time>
      </trkpt>
      <trkpt lat="41.9737520" lon="2.7068500">
        <ele>187.2</ele>
        <time>2022-05-27T06:45:10Z</time>
      </trkpt>
      <trkpt lat="41.9737570" lon="2.7068350">
        <ele>187.2</ele>
        <time>2022-05-27T06:45:11Z</time>
      </trkpt>
      <trkpt lat="41.9737570" lon="2.7068260">
        <ele>187.0</ele>
        <time>2022-05-27T06:45:12Z</time>
      </trkpt>
      <trkpt lat="41.9737570" lon="2.7068170">
        <ele>187.0</ele>
        <time>2022-05-27T06:45:13Z</time>
      </trkpt>
      <trkpt lat="41.9737570" lon="2.7068080">
        <ele>187.0</ele>
        <time>2022-05-27T06:45:14Z</time>
      </trkpt>
      <trkpt lat="41.9737570" lon="2.7067990">
        <ele>187.0</ele>
        <time>2022-05-27T06:45:15Z</time>
      </trkpt>
      <trkpt lat="41.9737570" lon="2.7067900">
        <ele>187.0</ele>
        <time>2022-05-27T06:45:16Z</time>
      </trkpt>
      <trkpt lat="41.9737570" lon="2.7067810">
        <ele>187.0</ele>
        <time>2022-05-27T06:45:17Z</time>
      </trkpt>
      <trkpt lat="41.9737570" lon="2.7067720">
        <ele>187.8</ele>
        <time>2022-05-27T06:46:16Z</time>
      </trkpt>
      <trkpt lat="41.9737570" lon="2.7067630">
        <ele>188.2</ele>
        <time>2022-05-27T06:46:17Z</time>
      </trkpt>
      <trkpt lat="41.9737740" lon="2.7066830">
        <ele>188.4</ele>
        <time>2022-05-27T06:46:18Z</time>
      </trkpt>
      <trkpt lat="41.9737950" lon="2.7065880">
        <ele>188.4</ele>
        <time>2022-05-27T06:46:19Z</time>
      </trkpt>
      <trkpt lat="41.9738170" lon="2.7064940">
        <ele>188.4</ele>
        <time>2022-05-27T06:46:20Z</time>
      </trkpt>
      <trkpt lat="41.9738430" lon="2.7064180">
        <ele>188.4</ele>
        <time>2022-05-27T06:46:21Z</time>
      </trkpt>
      <trkpt lat="41.9738750" lon="2.7063670">
        <ele>188.6</ele>
        <time>2022-05-27T06:46:22Z</time>
      </trkpt>
      <trkpt lat="41.9739130" lon="2.7063320">
        <ele>188.2</ele>
        <time>2022-05-27T06:46:23Z</time>
      </trkpt>
      <trkpt lat="41.9739550" lon="2.7062930">
        <ele>187.8</ele>
        <time>2022-05-27T06:46:24Z</time>
      </trkpt>
      <trkpt lat="41.9740010" lon="2.7062360">
        <ele>187.2</ele>
        <time>2022-05-27T06:46:25Z</time>
      </trkpt>
      <trkpt lat="41.9740540" lon="2.7061690">
        <ele>186.8</ele>
        <time>2022-05-27T06:46:26Z</time>
      </trkpt>
      <trkpt lat="41.9741100" lon="2.7061010">
        <ele>186.2</ele>
        <time>2022-05-27T06:46:27Z</time>
      </trkpt>
      <trkpt lat="41.9741100" lon="2.7061010">
        <ele>185.8</ele>
        <time>2022-05-27T06:46:28Z</time>
      </trkpt>
      <trkpt lat="41.9741720" lon="2.7059640">
        <ele>185.2</ele>
        <time>2022-05-27T06:46:29Z</time>
      </trkpt>
      <trkpt lat="41.9741730" lon="2.7058780">
        <ele>184.8</ele>
        <time>2022-05-27T06:46:30Z</time>
      </trkpt>
      <trkpt lat="41.9741730" lon="2.7058780">
        <ele>184.2</ele>
        <time>2022-05-27T06:46:31Z</time>
      </trkpt>
      <trkpt lat="41.9741480" lon="2.7056670">
        <ele>183.8</ele>
        <time>2022-05-27T06:46:32Z</time>
      </trkpt>
      <trkpt lat="41.9741420" lon="2.7055490">
        <ele>183.2</ele>
        <time>2022-05-27T06:46:33Z</time>
      </trkpt>
      <trkpt lat="41.9741380" lon="2.7054360">
        <ele>182.6</ele>
        <time>2022-05-27T06:46:34Z</time>
      </trkpt>
      <trkpt lat="41.9741290" lon="2.7053310">
        <ele>182.0</ele>
        <time>2022-05-27T06:46:35Z</time>
      </trkpt>
      <trkpt lat="41.9741100" lon="2.7052450">
        <ele>181.4</ele>
        <time>2022-05-27T06:46:36Z</time>
      </trkpt>
      <trkpt lat="41.9740900" lon="2.7051830">
        <ele>180.8</ele>
        <time>2022-05-27T06:46:37Z</time>
      </trkpt>
      <trkpt lat="41.9740790" lon="2.7051530">
        <ele>180.4</ele>
        <time>2022-05-27T06:46:38Z</time>
      </trkpt>
      <trkpt lat="41.9740750" lon="2.7051470">
        <ele>180.0</ele>
        <time>2022-05-27T06:46:39Z</time>
      </trkpt>
      <trkpt lat="41.9740850" lon="2.7051590">
        <ele>179.6</ele>
        <time>2022-05-27T06:46:40Z</time>
      </trkpt>
      <trkpt lat="41.9741080" lon="2.7051760">
        <ele>179.0</ele>
        <time>2022-05-27T06:46:41Z</time>
      </trkpt>
      <trkpt lat="41.9741530" lon="2.7052030">
        <ele>178.4</ele>
        <time>2022-05-27T06:46:42Z</time>
      </trkpt>
      <trkpt lat="41.9742060" lon="2.7052100">
        <ele>177.8</ele>
        <time>2022-05-27T06:46:43Z</time>
      </trkpt>
      <trkpt lat="41.9742680" lon="2.7052020">
        <ele>177.0</ele>
        <time>2022-05-27T06:46:44Z</time>
      </trkpt>
      <trkpt lat="41.9743140" lon="2.7051720">
        <ele>176.6</ele>
        <time>2022-05-27T06:46:45Z</time>
      </trkpt>
      <trkpt lat="41.9743570" lon="2.7051230">
        <ele>175.8</ele>
        <time>2022-05-27T06:46:46Z</time>
      </trkpt>
      <trkpt lat="41.9744030" lon="2.7050740">
        <ele>175.2</ele>
        <time>2022-05-27T06:46:47Z</time>
      </trkpt>
      <trkpt lat="41.9744430" lon="2.7050550">
        <ele>174.6</ele>
        <time>2022-05-27T06:46:48Z</time>
      </trkpt>
      <trkpt lat="41.9744820" lon="2.7050460">
        <ele>173.8</ele>
        <time>2022-05-27T06:46:49Z</time>
      </trkpt>
      <trkpt lat="41.9745230" lon="2.7050640">
        <ele>173.0</ele>
        <time>2022-05-27T06:46:50Z</time>
      </trkpt>
      <trkpt lat="41.9745620" lon="2.7050890">
        <ele>172.4</ele>
        <time>2022-05-27T06:46:51Z</time>
      </trkpt>
      <trkpt lat="41.9745960" lon="2.7051150">
        <ele>171.6</ele>
        <time>2022-05-27T06:46:52Z</time>
      </trkpt>
      <trkpt lat="41.9746270" lon="2.7051380">
        <ele>170.8</ele>
        <time>2022-05-27T06:46:53Z</time>
      </trkpt>
      <trkpt lat="41.9746640" lon="2.7051640">
        <ele>170.0</ele>
        <time>2022-05-27T06:46:54Z</time>
      </trkpt>
      <trkpt lat="41.9747030" lon="2.7051930">
        <ele>169.0</ele>
        <time>2022-05-27T06:46:55Z</time>
      </trkpt>
      <trkpt lat="41.9747360" lon="2.7052190">
        <ele>168.2</ele>
        <time>2022-05-27T06:46:56Z</time>
      </trkpt>
      <trkpt lat="41.9747640" lon="2.7052530">
        <ele>167.4</ele>
        <time>2022-05-27T06:46:57Z</time>
      </trkpt>
      <trkpt lat="41.9747880" lon="2.7053000">
        <ele>166.6</ele>
        <time>2022-05-27T06:46:58Z</time>
      </trkpt>
      <trkpt lat="41.9748100" lon="2.7053490">
        <ele>165.6</ele>
        <time>2022-05-27T06:46:59Z</time>
      </trkpt>
      <trkpt lat="41.9748280" lon="2.7053900">
        <ele>164.8</ele>
        <time>2022-05-27T06:47:00Z</time>
      </trkpt>
      <trkpt lat="41.9748410" lon="2.7054060">
        <ele>164.0</ele>
        <time>2022-05-27T06:47:01Z</time>
      </trkpt>
      <trkpt lat="41.9748530" lon="2.7054080">
        <ele>163.2</ele>
        <time>2022-05-27T06:47:02Z</time>
      </trkpt>
      <trkpt lat="41.9748720" lon="2.7053820">
        <ele>162.4</ele>
        <time>2022-05-27T06:47:03Z</time>
      </trkpt>
      <trkpt lat="41.9748950" lon="2.7053390">
        <ele>161.8</ele>
        <time>2022-05-27T06:47:04Z</time>
      </trkpt>
      <trkpt lat="41.9749120" lon="2.7052910">
        <ele>161.2</ele>
        <time>2022-05-27T06:47:05Z</time>
      </trkpt>
      <trkpt lat="41.9749320" lon="2.7052610">
        <ele>160.6</ele>
        <time>2022-05-27T06:47:06Z</time>
      </trkpt>
      <trkpt lat="41.9749620" lon="2.7052260">
        <ele>160.2</ele>
        <time>2022-05-27T06:47:07Z</time>
      </trkpt>
      <trkpt lat="41.9750110" lon="2.7051770">
        <ele>160.0</ele>
        <time>2022-05-27T06:47:08Z</time>
      </trkpt>
      <trkpt lat="41.9750460" lon="2.7051040">
        <ele>159.6</ele>
        <time>2022-05-27T06:47:09Z</time>
      </trkpt>
      <trkpt lat="41.9750470" lon="2.7050210">
        <ele>159.4</ele>
        <time>2022-05-27T06:47:10Z</time>
      </trkpt>
      <trkpt lat="41.9750500" lon="2.7049440">
        <ele>159.2</ele>
        <time>2022-05-27T06:47:11Z</time>
      </trkpt>
      <trkpt lat="41.9750420" lon="2.7048810">
        <ele>159.0</ele>
        <time>2022-05-27T06:47:12Z</time>
      </trkpt>
      <trkpt lat="41.9750300" lon="2.7048340">
        <ele>158.8</ele>
        <time>2022-05-27T06:47:13Z</time>
      </trkpt>
      <trkpt lat="41.9750160" lon="2.7047930">
        <ele>158.8</ele>
        <time>2022-05-27T06:47:14Z</time>
      </trkpt>
    </trkseg>
  </trk>
</gpx>
